<?xml version="1.0" encoding="UTF-8" standalone="no" ?>
<gpx xmlns="http://www.topografix.com/GPX/1/1" xmlns:xsi="http://www.w3.org/2001/XMLSchema-instance" xsi:schemaLocation="http://www.topografix.com/GPX/1/1 http://www.topografix.com/GPX/1/1/gpx.xsd" version="1.1" creator="VisuGPX - https://www.visugpx.com">
  <metadata>
    <name>pic brougat avec hésitations et rallonges</name>
    <desc><![CDATA[vers le pic brougat avec hésitations sur le départ du chemin]]></desc>
  </metadata>
  <trk>
    <name><![CDATA[pic de brougat avec jardinage]]></name>
    <trkseg>
      <trkpt lat="42.71015" lon="1.42465">
        <ele>1191.4000244141</ele>
        <time>2013-08-10T05:35:14.000Z</time>
      </trkpt>
      <trkpt lat="42.71014" lon="1.42465">
        <ele>1191</ele>
        <time>2013-08-10T05:35:15.000Z</time>
      </trkpt>
      <trkpt lat="42.71009" lon="1.42461">
        <ele>1189.5999755859</ele>
        <time>2013-08-10T05:35:19.000Z</time>
      </trkpt>
      <trkpt lat="42.71007" lon="1.42457">
        <ele>1189.1999511719</ele>
        <time>2013-08-10T05:35:23.000Z</time>
      </trkpt>
      <trkpt lat="42.71004" lon="1.42448">
        <ele>1189.4000244141</ele>
        <time>2013-08-10T05:35:28.000Z</time>
      </trkpt>
      <trkpt lat="42.71002" lon="1.42443">
        <ele>1189.4000244141</ele>
        <time>2013-08-10T05:35:33.000Z</time>
      </trkpt>
      <trkpt lat="42.71001" lon="1.42435">
        <ele>1189.8000488281</ele>
        <time>2013-08-10T05:35:38.000Z</time>
      </trkpt>
      <trkpt lat="42.70998" lon="1.42426">
        <ele>1191</ele>
        <time>2013-08-10T05:35:43.000Z</time>
      </trkpt>
      <trkpt lat="42.70996" lon="1.42422">
        <ele>1191.8000488281</ele>
        <time>2013-08-10T05:35:46.000Z</time>
      </trkpt>
      <trkpt lat="42.70995" lon="1.42421">
        <ele>1192</ele>
        <time>2013-08-10T05:35:47.000Z</time>
      </trkpt>
      <trkpt lat="42.70994" lon="1.42415">
        <ele>1192.8000488281</ele>
        <time>2013-08-10T05:35:49.000Z</time>
      </trkpt>
      <trkpt lat="42.7099" lon="1.42407">
        <ele>1194.4000244141</ele>
        <time>2013-08-10T05:35:53.000Z</time>
      </trkpt>
      <trkpt lat="42.70987" lon="1.42398">
        <ele>1195.8000488281</ele>
        <time>2013-08-10T05:35:58.000Z</time>
      </trkpt>
      <trkpt lat="42.70982" lon="1.42388">
        <ele>1197.4000244141</ele>
        <time>2013-08-10T05:36:03.000Z</time>
      </trkpt>
      <trkpt lat="42.70981" lon="1.42383">
        <ele>1198</ele>
        <time>2013-08-10T05:36:06.000Z</time>
      </trkpt>
      <trkpt lat="42.70981" lon="1.42372">
        <ele>1199.4000244141</ele>
        <time>2013-08-10T05:36:12.000Z</time>
      </trkpt>
      <trkpt lat="42.70981" lon="1.4237">
        <ele>1199.5999755859</ele>
        <time>2013-08-10T05:36:13.000Z</time>
      </trkpt>
      <trkpt lat="42.70978" lon="1.42359">
        <ele>1200.8000488281</ele>
        <time>2013-08-10T05:36:19.000Z</time>
      </trkpt>
      <trkpt lat="42.70975" lon="1.42354">
        <ele>1201.1999511719</ele>
        <time>2013-08-10T05:36:23.000Z</time>
      </trkpt>
      <trkpt lat="42.70973" lon="1.4235">
        <ele>1201.5999755859</ele>
        <time>2013-08-10T05:36:25.000Z</time>
      </trkpt>
      <trkpt lat="42.70969" lon="1.42341">
        <ele>1202.4000244141</ele>
        <time>2013-08-10T05:36:30.000Z</time>
      </trkpt>
      <trkpt lat="42.70968" lon="1.42338">
        <ele>1202.5999755859</ele>
        <time>2013-08-10T05:36:31.000Z</time>
      </trkpt>
      <trkpt lat="42.70965" lon="1.42329">
        <ele>1203.1999511719</ele>
        <time>2013-08-10T05:36:36.000Z</time>
      </trkpt>
      <trkpt lat="42.70962" lon="1.42315">
        <ele>1204.1999511719</ele>
        <time>2013-08-10T05:36:42.000Z</time>
      </trkpt>
      <trkpt lat="42.70961" lon="1.42308">
        <ele>1204.5999755859</ele>
        <time>2013-08-10T05:36:45.000Z</time>
      </trkpt>
      <trkpt lat="42.70961" lon="1.42304">
        <ele>1205</ele>
        <time>2013-08-10T05:36:47.000Z</time>
      </trkpt>
      <trkpt lat="42.7096" lon="1.4229">
        <ele>1206</ele>
        <time>2013-08-10T05:36:53.000Z</time>
      </trkpt>
      <trkpt lat="42.70959" lon="1.42274">
        <ele>1207.1999511719</ele>
        <time>2013-08-10T05:37:00.000Z</time>
      </trkpt>
      <trkpt lat="42.70957" lon="1.42256">
        <ele>1208.1999511719</ele>
        <time>2013-08-10T05:37:07.000Z</time>
      </trkpt>
      <trkpt lat="42.7095" lon="1.42235">
        <ele>1209</ele>
        <time>2013-08-10T05:37:16.000Z</time>
      </trkpt>
      <trkpt lat="42.70948" lon="1.42219">
        <ele>1210.1999511719</ele>
        <time>2013-08-10T05:37:23.000Z</time>
      </trkpt>
      <trkpt lat="42.70948" lon="1.4221">
        <ele>1210.8000488281</ele>
        <time>2013-08-10T05:37:27.000Z</time>
      </trkpt>
      <trkpt lat="42.7095" lon="1.42206">
        <ele>1211.8000488281</ele>
        <time>2013-08-10T05:37:29.000Z</time>
      </trkpt>
      <trkpt lat="42.70953" lon="1.42197">
        <ele>1214</ele>
        <time>2013-08-10T05:37:34.000Z</time>
      </trkpt>
      <trkpt lat="42.70956" lon="1.42194">
        <ele>1215.4000244141</ele>
        <time>2013-08-10T05:37:38.000Z</time>
      </trkpt>
      <trkpt lat="42.70956" lon="1.42191">
        <ele>1215.5999755859</ele>
        <time>2013-08-10T05:37:40.000Z</time>
      </trkpt>
      <trkpt lat="42.70957" lon="1.42187">
        <ele>1216.4000244141</ele>
        <time>2013-08-10T05:37:42.000Z</time>
      </trkpt>
      <trkpt lat="42.70957" lon="1.42184">
        <ele>1216.8000488281</ele>
        <time>2013-08-10T05:37:44.000Z</time>
      </trkpt>
      <trkpt lat="42.70957" lon="1.42179">
        <ele>1217.1999511719</ele>
        <time>2013-08-10T05:37:46.000Z</time>
      </trkpt>
      <trkpt lat="42.70953" lon="1.42171">
        <ele>1217</ele>
        <time>2013-08-10T05:37:51.000Z</time>
      </trkpt>
      <trkpt lat="42.70953" lon="1.42168">
        <ele>1217.1999511719</ele>
        <time>2013-08-10T05:37:53.000Z</time>
      </trkpt>
      <trkpt lat="42.70952" lon="1.42166">
        <ele>1216.8000488281</ele>
        <time>2013-08-10T05:37:56.000Z</time>
      </trkpt>
      <trkpt lat="42.70941" lon="1.42147">
        <ele>1214.1999511719</ele>
        <time>2013-08-10T05:38:17.000Z</time>
      </trkpt>
      <trkpt lat="42.70937" lon="1.42144">
        <ele>1212.5999755859</ele>
        <time>2013-08-10T05:38:20.000Z</time>
      </trkpt>
      <trkpt lat="42.70934" lon="1.42143">
        <ele>1211.4000244141</ele>
        <time>2013-08-10T05:38:22.000Z</time>
      </trkpt>
      <trkpt lat="42.70933" lon="1.42141">
        <ele>1211.1999511719</ele>
        <time>2013-08-10T05:38:24.000Z</time>
      </trkpt>
      <trkpt lat="42.70933" lon="1.42138">
        <ele>1211.1999511719</ele>
        <time>2013-08-10T05:38:27.000Z</time>
      </trkpt>
      <trkpt lat="42.7093" lon="1.42137">
        <ele>1209.8000488281</ele>
        <time>2013-08-10T05:38:29.000Z</time>
      </trkpt>
      <trkpt lat="42.70929" lon="1.42129">
        <ele>1210</ele>
        <time>2013-08-10T05:38:34.000Z</time>
      </trkpt>
      <trkpt lat="42.7093" lon="1.42126">
        <ele>1210.8000488281</ele>
        <time>2013-08-10T05:38:37.000Z</time>
      </trkpt>
      <trkpt lat="42.7093" lon="1.42118">
        <ele>1211.1999511719</ele>
        <time>2013-08-10T05:38:42.000Z</time>
      </trkpt>
      <trkpt lat="42.70932" lon="1.42114">
        <ele>1212.1999511719</ele>
        <time>2013-08-10T05:38:44.000Z</time>
      </trkpt>
      <trkpt lat="42.70932" lon="1.42111">
        <ele>1212.5999755859</ele>
        <time>2013-08-10T05:38:47.000Z</time>
      </trkpt>
      <trkpt lat="42.70934" lon="1.42109">
        <ele>1213.5999755859</ele>
        <time>2013-08-10T05:38:48.000Z</time>
      </trkpt>
      <trkpt lat="42.70934" lon="1.42112">
        <ele>1213.8000488281</ele>
        <time>2013-08-10T05:38:51.000Z</time>
      </trkpt>
      <trkpt lat="42.70934" lon="1.42113">
        <ele>1213.1999511719</ele>
        <time>2013-08-10T05:38:53.000Z</time>
      </trkpt>
      <trkpt lat="42.70936" lon="1.42111">
        <ele>1214.8000488281</ele>
        <time>2013-08-10T05:38:56.000Z</time>
      </trkpt>
      <trkpt lat="42.7094" lon="1.4211">
        <ele>1216.4000244141</ele>
        <time>2013-08-10T05:38:57.000Z</time>
      </trkpt>
      <trkpt lat="42.70941" lon="1.4211">
        <ele>1217.1999511719</ele>
        <time>2013-08-10T05:38:59.000Z</time>
      </trkpt>
      <trkpt lat="42.70946" lon="1.42109">
        <ele>1219.8000488281</ele>
        <time>2013-08-10T05:39:05.000Z</time>
      </trkpt>
      <trkpt lat="42.70949" lon="1.42109">
        <ele>1221</ele>
        <time>2013-08-10T05:39:08.000Z</time>
      </trkpt>
      <trkpt lat="42.7095" lon="1.42111">
        <ele>1221.5999755859</ele>
        <time>2013-08-10T05:39:10.000Z</time>
      </trkpt>
      <trkpt lat="42.70954" lon="1.42118">
        <ele>1222.5999755859</ele>
        <time>2013-08-10T05:39:15.000Z</time>
      </trkpt>
      <trkpt lat="42.70958" lon="1.42124">
        <ele>1224.1999511719</ele>
        <time>2013-08-10T05:39:20.000Z</time>
      </trkpt>
      <trkpt lat="42.70958" lon="1.42126">
        <ele>1224</ele>
        <time>2013-08-10T05:39:21.000Z</time>
      </trkpt>
      <trkpt lat="42.70959" lon="1.42131">
        <ele>1223.5999755859</ele>
        <time>2013-08-10T05:39:25.000Z</time>
      </trkpt>
      <trkpt lat="42.70963" lon="1.42134">
        <ele>1225</ele>
        <time>2013-08-10T05:39:30.000Z</time>
      </trkpt>
      <trkpt lat="42.70962" lon="1.42136">
        <ele>1224.8000488281</ele>
        <time>2013-08-10T05:39:31.000Z</time>
      </trkpt>
      <trkpt lat="42.70965" lon="1.42139">
        <ele>1225.4000244141</ele>
        <time>2013-08-10T05:39:35.000Z</time>
      </trkpt>
      <trkpt lat="42.70965" lon="1.42146">
        <ele>1224.8000488281</ele>
        <time>2013-08-10T05:39:40.000Z</time>
      </trkpt>
      <trkpt lat="42.70967" lon="1.42147">
        <ele>1225.4000244141</ele>
        <time>2013-08-10T05:39:41.000Z</time>
      </trkpt>
      <trkpt lat="42.70971" lon="1.42155">
        <ele>1226</ele>
        <time>2013-08-10T05:39:45.000Z</time>
      </trkpt>
      <trkpt lat="42.70972" lon="1.42161">
        <ele>1225.5999755859</ele>
        <time>2013-08-10T05:39:48.000Z</time>
      </trkpt>
      <trkpt lat="42.70972" lon="1.42164">
        <ele>1225.1999511719</ele>
        <time>2013-08-10T05:39:50.000Z</time>
      </trkpt>
      <trkpt lat="42.70973" lon="1.42166">
        <ele>1225.4000244141</ele>
        <time>2013-08-10T05:39:51.000Z</time>
      </trkpt>
      <trkpt lat="42.70975" lon="1.42169">
        <ele>1225.5999755859</ele>
        <time>2013-08-10T05:39:54.000Z</time>
      </trkpt>
      <trkpt lat="42.70975" lon="1.42171">
        <ele>1225.4000244141</ele>
        <time>2013-08-10T05:39:55.000Z</time>
      </trkpt>
      <trkpt lat="42.70974" lon="1.42173">
        <ele>1224.5999755859</ele>
        <time>2013-08-10T05:39:56.000Z</time>
      </trkpt>
      <trkpt lat="42.70972" lon="1.42177">
        <ele>1223</ele>
        <time>2013-08-10T05:39:59.000Z</time>
      </trkpt>
      <trkpt lat="42.70974" lon="1.42181">
        <ele>1223.1999511719</ele>
        <time>2013-08-10T05:40:02.000Z</time>
      </trkpt>
      <trkpt lat="42.70976" lon="1.42184">
        <ele>1223.4000244141</ele>
        <time>2013-08-10T05:40:04.000Z</time>
      </trkpt>
      <trkpt lat="42.70977" lon="1.42187">
        <ele>1223.4000244141</ele>
        <time>2013-08-10T05:40:07.000Z</time>
      </trkpt>
      <trkpt lat="42.70977" lon="1.42188">
        <ele>1223</ele>
        <time>2013-08-10T05:40:08.000Z</time>
      </trkpt>
      <trkpt lat="42.70978" lon="1.4219">
        <ele>1223</ele>
        <time>2013-08-10T05:40:09.000Z</time>
      </trkpt>
      <trkpt lat="42.70978" lon="1.42196">
        <ele>1222</ele>
        <time>2013-08-10T05:40:14.000Z</time>
      </trkpt>
      <trkpt lat="42.70978" lon="1.42197">
        <ele>1222</ele>
        <time>2013-08-10T05:40:15.000Z</time>
      </trkpt>
      <trkpt lat="42.7098" lon="1.42202">
        <ele>1221.5999755859</ele>
        <time>2013-08-10T05:40:18.000Z</time>
      </trkpt>
      <trkpt lat="42.70981" lon="1.42206">
        <ele>1221.1999511719</ele>
        <time>2013-08-10T05:40:20.000Z</time>
      </trkpt>
      <trkpt lat="42.70981" lon="1.42212">
        <ele>1220</ele>
        <time>2013-08-10T05:40:23.000Z</time>
      </trkpt>
      <trkpt lat="42.70981" lon="1.4222">
        <ele>1218.5999755859</ele>
        <time>2013-08-10T05:40:27.000Z</time>
      </trkpt>
      <trkpt lat="42.70981" lon="1.42233">
        <ele>1216.4000244141</ele>
        <time>2013-08-10T05:40:34.000Z</time>
      </trkpt>
      <trkpt lat="42.70981" lon="1.42236">
        <ele>1216</ele>
        <time>2013-08-10T05:40:35.000Z</time>
      </trkpt>
      <trkpt lat="42.70982" lon="1.42242">
        <ele>1215</ele>
        <time>2013-08-10T05:40:38.000Z</time>
      </trkpt>
      <trkpt lat="42.70983" lon="1.42245">
        <ele>1214.5999755859</ele>
        <time>2013-08-10T05:40:40.000Z</time>
      </trkpt>
      <trkpt lat="42.70984" lon="1.42247">
        <ele>1214.4000244141</ele>
        <time>2013-08-10T05:40:42.000Z</time>
      </trkpt>
      <trkpt lat="42.70982" lon="1.42252">
        <ele>1213.1999511719</ele>
        <time>2013-08-10T05:40:46.000Z</time>
      </trkpt>
      <trkpt lat="42.70982" lon="1.42256">
        <ele>1212.5999755859</ele>
        <time>2013-08-10T05:40:50.000Z</time>
      </trkpt>
      <trkpt lat="42.7098" lon="1.42259">
        <ele>1212.1999511719</ele>
        <time>2013-08-10T05:40:52.000Z</time>
      </trkpt>
      <trkpt lat="42.70982" lon="1.42264">
        <ele>1211.8000488281</ele>
        <time>2013-08-10T05:40:56.000Z</time>
      </trkpt>
      <trkpt lat="42.70984" lon="1.42275">
        <ele>1210.8000488281</ele>
        <time>2013-08-10T05:41:02.000Z</time>
      </trkpt>
      <trkpt lat="42.70987" lon="1.42283">
        <ele>1210.4000244141</ele>
        <time>2013-08-10T05:41:07.000Z</time>
      </trkpt>
      <trkpt lat="42.7099" lon="1.42286">
        <ele>1210.4000244141</ele>
        <time>2013-08-10T05:41:10.000Z</time>
      </trkpt>
      <trkpt lat="42.7099" lon="1.42288">
        <ele>1210.1999511719</ele>
        <time>2013-08-10T05:41:11.000Z</time>
      </trkpt>
      <trkpt lat="42.70991" lon="1.42288">
        <ele>1210.1999511719</ele>
        <time>2013-08-10T05:41:12.000Z</time>
      </trkpt>
      <trkpt lat="42.70993" lon="1.42292">
        <ele>1210</ele>
        <time>2013-08-10T05:41:15.000Z</time>
      </trkpt>
      <trkpt lat="42.70995" lon="1.42296">
        <ele>1209.8000488281</ele>
        <time>2013-08-10T05:41:18.000Z</time>
      </trkpt>
      <trkpt lat="42.70999" lon="1.42299">
        <ele>1209.8000488281</ele>
        <time>2013-08-10T05:41:21.000Z</time>
      </trkpt>
      <trkpt lat="42.71002" lon="1.423">
        <ele>1211.1999511719</ele>
        <time>2013-08-10T05:41:24.000Z</time>
      </trkpt>
      <trkpt lat="42.71005" lon="1.42303">
        <ele>1212.5999755859</ele>
        <time>2013-08-10T05:41:27.000Z</time>
      </trkpt>
      <trkpt lat="42.71006" lon="1.42303">
        <ele>1212.5999755859</ele>
        <time>2013-08-10T05:41:28.000Z</time>
      </trkpt>
      <trkpt lat="42.71009" lon="1.42306">
        <ele>1214</ele>
        <time>2013-08-10T05:41:30.000Z</time>
      </trkpt>
      <trkpt lat="42.71014" lon="1.42308">
        <ele>1216.5999755859</ele>
        <time>2013-08-10T05:41:33.000Z</time>
      </trkpt>
      <trkpt lat="42.71016" lon="1.42308">
        <ele>1217.4000244141</ele>
        <time>2013-08-10T05:41:35.000Z</time>
      </trkpt>
      <trkpt lat="42.71016" lon="1.42308">
        <ele>1217.5999755859</ele>
        <time>2013-08-10T05:41:36.000Z</time>
      </trkpt>
      <trkpt lat="42.71013" lon="1.42303">
        <ele>1216.8000488281</ele>
        <time>2013-08-10T05:41:44.000Z</time>
      </trkpt>
      <trkpt lat="42.71008" lon="1.42295">
        <ele>1215</ele>
        <time>2013-08-10T05:41:53.000Z</time>
      </trkpt>
      <trkpt lat="42.71006" lon="1.4229">
        <ele>1214.5999755859</ele>
        <time>2013-08-10T05:41:57.000Z</time>
      </trkpt>
      <trkpt lat="42.71006" lon="1.42289">
        <ele>1214.8000488281</ele>
        <time>2013-08-10T05:41:59.000Z</time>
      </trkpt>
      <trkpt lat="42.71004" lon="1.42284">
        <ele>1214.5999755859</ele>
        <time>2013-08-10T05:42:03.000Z</time>
      </trkpt>
      <trkpt lat="42.71004" lon="1.42279">
        <ele>1215</ele>
        <time>2013-08-10T05:42:06.000Z</time>
      </trkpt>
      <trkpt lat="42.71005" lon="1.4227">
        <ele>1217.1999511719</ele>
        <time>2013-08-10T05:42:13.000Z</time>
      </trkpt>
      <trkpt lat="42.71006" lon="1.42264">
        <ele>1218.4000244141</ele>
        <time>2013-08-10T05:42:20.000Z</time>
      </trkpt>
      <trkpt lat="42.71005" lon="1.4226">
        <ele>1218.8000488281</ele>
        <time>2013-08-10T05:42:25.000Z</time>
      </trkpt>
      <trkpt lat="42.71005" lon="1.42252">
        <ele>1220</ele>
        <time>2013-08-10T05:42:32.000Z</time>
      </trkpt>
      <trkpt lat="42.71006" lon="1.42248">
        <ele>1221.5999755859</ele>
        <time>2013-08-10T05:42:39.000Z</time>
      </trkpt>
      <trkpt lat="42.71008" lon="1.42242">
        <ele>1224</ele>
        <time>2013-08-10T05:42:44.000Z</time>
      </trkpt>
      <trkpt lat="42.71008" lon="1.42238">
        <ele>1225.1999511719</ele>
        <time>2013-08-10T05:42:48.000Z</time>
      </trkpt>
      <trkpt lat="42.71009" lon="1.42235">
        <ele>1226.4000244141</ele>
        <time>2013-08-10T05:42:51.000Z</time>
      </trkpt>
      <trkpt lat="42.7101" lon="1.42233">
        <ele>1227.5999755859</ele>
        <time>2013-08-10T05:42:53.000Z</time>
      </trkpt>
      <trkpt lat="42.71011" lon="1.42229">
        <ele>1229</ele>
        <time>2013-08-10T05:42:58.000Z</time>
      </trkpt>
      <trkpt lat="42.71013" lon="1.42225">
        <ele>1231.4000244141</ele>
        <time>2013-08-10T05:43:03.000Z</time>
      </trkpt>
      <trkpt lat="42.71013" lon="1.42221">
        <ele>1232.4000244141</ele>
        <time>2013-08-10T05:43:08.000Z</time>
      </trkpt>
      <trkpt lat="42.71015" lon="1.42218">
        <ele>1234.1999511719</ele>
        <time>2013-08-10T05:43:13.000Z</time>
      </trkpt>
      <trkpt lat="42.71016" lon="1.42214">
        <ele>1236.1999511719</ele>
        <time>2013-08-10T05:43:17.000Z</time>
      </trkpt>
      <trkpt lat="42.71019" lon="1.42209">
        <ele>1238.8000488281</ele>
        <time>2013-08-10T05:43:24.000Z</time>
      </trkpt>
      <trkpt lat="42.71019" lon="1.42205">
        <ele>1240.4000244141</ele>
        <time>2013-08-10T05:43:29.000Z</time>
      </trkpt>
      <trkpt lat="42.71021" lon="1.422">
        <ele>1242.4000244141</ele>
        <time>2013-08-10T05:43:34.000Z</time>
      </trkpt>
      <trkpt lat="42.71021" lon="1.42197">
        <ele>1243.1999511719</ele>
        <time>2013-08-10T05:43:38.000Z</time>
      </trkpt>
      <trkpt lat="42.71022" lon="1.42193">
        <ele>1244.8000488281</ele>
        <time>2013-08-10T05:43:43.000Z</time>
      </trkpt>
      <trkpt lat="42.71023" lon="1.42188">
        <ele>1246.8000488281</ele>
        <time>2013-08-10T05:43:48.000Z</time>
      </trkpt>
      <trkpt lat="42.71025" lon="1.42185">
        <ele>1248.5999755859</ele>
        <time>2013-08-10T05:43:52.000Z</time>
      </trkpt>
      <trkpt lat="42.71026" lon="1.42181">
        <ele>1250.1999511719</ele>
        <time>2013-08-10T05:43:56.000Z</time>
      </trkpt>
      <trkpt lat="42.71026" lon="1.42177">
        <ele>1251</ele>
        <time>2013-08-10T05:44:01.000Z</time>
      </trkpt>
      <trkpt lat="42.71026" lon="1.42173">
        <ele>1252</ele>
        <time>2013-08-10T05:44:06.000Z</time>
      </trkpt>
      <trkpt lat="42.71023" lon="1.42168">
        <ele>1251.4000244141</ele>
        <time>2013-08-10T05:44:14.000Z</time>
      </trkpt>
      <trkpt lat="42.71026" lon="1.42162">
        <ele>1254.5999755859</ele>
        <time>2013-08-10T05:44:20.000Z</time>
      </trkpt>
      <trkpt lat="42.71028" lon="1.42157">
        <ele>1256.8000488281</ele>
        <time>2013-08-10T05:44:25.000Z</time>
      </trkpt>
      <trkpt lat="42.71028" lon="1.42156">
        <ele>1257.4000244141</ele>
        <time>2013-08-10T05:44:27.000Z</time>
      </trkpt>
      <trkpt lat="42.7103" lon="1.42154">
        <ele>1258.8000488281</ele>
        <time>2013-08-10T05:44:31.000Z</time>
      </trkpt>
      <trkpt lat="42.7103" lon="1.4215">
        <ele>1259.8000488281</ele>
        <time>2013-08-10T05:44:37.000Z</time>
      </trkpt>
      <trkpt lat="42.71031" lon="1.42146">
        <ele>1261</ele>
        <time>2013-08-10T05:44:42.000Z</time>
      </trkpt>
      <trkpt lat="42.7103" lon="1.42142">
        <ele>1261.4000244141</ele>
        <time>2013-08-10T05:44:51.000Z</time>
      </trkpt>
      <trkpt lat="42.71032" lon="1.42136">
        <ele>1263.5999755859</ele>
        <time>2013-08-10T05:44:56.000Z</time>
      </trkpt>
      <trkpt lat="42.71033" lon="1.4213">
        <ele>1265.1999511719</ele>
        <time>2013-08-10T05:45:01.000Z</time>
      </trkpt>
      <trkpt lat="42.71034" lon="1.42124">
        <ele>1267</ele>
        <time>2013-08-10T05:45:06.000Z</time>
      </trkpt>
      <trkpt lat="42.71034" lon="1.42117">
        <ele>1268.5999755859</ele>
        <time>2013-08-10T05:45:12.000Z</time>
      </trkpt>
      <trkpt lat="42.71033" lon="1.42116">
        <ele>1268.5999755859</ele>
        <time>2013-08-10T05:45:13.000Z</time>
      </trkpt>
      <trkpt lat="42.71034" lon="1.42108">
        <ele>1270.5999755859</ele>
        <time>2013-08-10T05:45:19.000Z</time>
      </trkpt>
      <trkpt lat="42.71035" lon="1.42108">
        <ele>1271</ele>
        <time>2013-08-10T05:45:20.000Z</time>
      </trkpt>
      <trkpt lat="42.71035" lon="1.42106">
        <ele>1271.4000244141</ele>
        <time>2013-08-10T05:45:22.000Z</time>
      </trkpt>
      <trkpt lat="42.71035" lon="1.42105">
        <ele>1271.8000488281</ele>
        <time>2013-08-10T05:45:24.000Z</time>
      </trkpt>
      <trkpt lat="42.71035" lon="1.421">
        <ele>1272.8000488281</ele>
        <time>2013-08-10T05:45:29.000Z</time>
      </trkpt>
      <trkpt lat="42.71035" lon="1.42093">
        <ele>1273.5999755859</ele>
        <time>2013-08-10T05:45:34.000Z</time>
      </trkpt>
      <trkpt lat="42.71035" lon="1.42092">
        <ele>1274.1999511719</ele>
        <time>2013-08-10T05:45:35.000Z</time>
      </trkpt>
      <trkpt lat="42.71035" lon="1.42088">
        <ele>1275</ele>
        <time>2013-08-10T05:45:39.000Z</time>
      </trkpt>
      <trkpt lat="42.71035" lon="1.42087">
        <ele>1275.4000244141</ele>
        <time>2013-08-10T05:45:40.000Z</time>
      </trkpt>
      <trkpt lat="42.71036" lon="1.42082">
        <ele>1276.8000488281</ele>
        <time>2013-08-10T05:45:45.000Z</time>
      </trkpt>
      <trkpt lat="42.71038" lon="1.42077">
        <ele>1278.5999755859</ele>
        <time>2013-08-10T05:45:50.000Z</time>
      </trkpt>
      <trkpt lat="42.71039" lon="1.42071">
        <ele>1279.8000488281</ele>
        <time>2013-08-10T05:45:55.000Z</time>
      </trkpt>
      <trkpt lat="42.7104" lon="1.42069">
        <ele>1280.5999755859</ele>
        <time>2013-08-10T05:45:58.000Z</time>
      </trkpt>
      <trkpt lat="42.71041" lon="1.42066">
        <ele>1281.1999511719</ele>
        <time>2013-08-10T05:46:01.000Z</time>
      </trkpt>
      <trkpt lat="42.71042" lon="1.4206">
        <ele>1282</ele>
        <time>2013-08-10T05:46:06.000Z</time>
      </trkpt>
      <trkpt lat="42.71042" lon="1.42058">
        <ele>1282.4000244141</ele>
        <time>2013-08-10T05:46:08.000Z</time>
      </trkpt>
      <trkpt lat="42.71043" lon="1.42053">
        <ele>1283.4000244141</ele>
        <time>2013-08-10T05:46:14.000Z</time>
      </trkpt>
      <trkpt lat="42.71044" lon="1.42047">
        <ele>1284.8000488281</ele>
        <time>2013-08-10T05:46:18.000Z</time>
      </trkpt>
      <trkpt lat="42.71046" lon="1.42041">
        <ele>1286.4000244141</ele>
        <time>2013-08-10T05:46:24.000Z</time>
      </trkpt>
      <trkpt lat="42.71047" lon="1.42037">
        <ele>1287.1999511719</ele>
        <time>2013-08-10T05:46:27.000Z</time>
      </trkpt>
      <trkpt lat="42.71047" lon="1.42033">
        <ele>1288</ele>
        <time>2013-08-10T05:46:31.000Z</time>
      </trkpt>
      <trkpt lat="42.71049" lon="1.42029">
        <ele>1289.1999511719</ele>
        <time>2013-08-10T05:46:35.000Z</time>
      </trkpt>
      <trkpt lat="42.71051" lon="1.42023">
        <ele>1291</ele>
        <time>2013-08-10T05:46:42.000Z</time>
      </trkpt>
      <trkpt lat="42.71051" lon="1.42019">
        <ele>1291.8000488281</ele>
        <time>2013-08-10T05:46:48.000Z</time>
      </trkpt>
      <trkpt lat="42.71051" lon="1.42018">
        <ele>1291.5999755859</ele>
        <time>2013-08-10T05:46:49.000Z</time>
      </trkpt>
      <trkpt lat="42.7105" lon="1.42013">
        <ele>1291.1999511719</ele>
        <time>2013-08-10T05:46:53.000Z</time>
      </trkpt>
      <trkpt lat="42.7105" lon="1.4201">
        <ele>1291.4000244141</ele>
        <time>2013-08-10T05:46:55.000Z</time>
      </trkpt>
      <trkpt lat="42.7105" lon="1.42008">
        <ele>1292</ele>
        <time>2013-08-10T05:46:57.000Z</time>
      </trkpt>
      <trkpt lat="42.71051" lon="1.42006">
        <ele>1292.4000244141</ele>
        <time>2013-08-10T05:46:59.000Z</time>
      </trkpt>
      <trkpt lat="42.71052" lon="1.42002">
        <ele>1293.4000244141</ele>
        <time>2013-08-10T05:47:02.000Z</time>
      </trkpt>
      <trkpt lat="42.71053" lon="1.41997">
        <ele>1294.8000488281</ele>
        <time>2013-08-10T05:47:07.000Z</time>
      </trkpt>
      <trkpt lat="42.71054" lon="1.41994">
        <ele>1295.5999755859</ele>
        <time>2013-08-10T05:47:11.000Z</time>
      </trkpt>
      <trkpt lat="42.71056" lon="1.41988">
        <ele>1297.1999511719</ele>
        <time>2013-08-10T05:47:16.000Z</time>
      </trkpt>
      <trkpt lat="42.71058" lon="1.41985">
        <ele>1299.1999511719</ele>
        <time>2013-08-10T05:47:23.000Z</time>
      </trkpt>
      <trkpt lat="42.7106" lon="1.41977">
        <ele>1301</ele>
        <time>2013-08-10T05:47:31.000Z</time>
      </trkpt>
      <trkpt lat="42.71063" lon="1.41973">
        <ele>1303</ele>
        <time>2013-08-10T05:47:35.000Z</time>
      </trkpt>
      <trkpt lat="42.71063" lon="1.41969">
        <ele>1303.8000488281</ele>
        <time>2013-08-10T05:47:39.000Z</time>
      </trkpt>
      <trkpt lat="42.71064" lon="1.41967">
        <ele>1304.4000244141</ele>
        <time>2013-08-10T05:47:41.000Z</time>
      </trkpt>
      <trkpt lat="42.71066" lon="1.41962">
        <ele>1306.1999511719</ele>
        <time>2013-08-10T05:47:45.000Z</time>
      </trkpt>
      <trkpt lat="42.71068" lon="1.41955">
        <ele>1307.8000488281</ele>
        <time>2013-08-10T05:47:50.000Z</time>
      </trkpt>
      <trkpt lat="42.71068" lon="1.41953">
        <ele>1308.1999511719</ele>
        <time>2013-08-10T05:47:52.000Z</time>
      </trkpt>
      <trkpt lat="42.71068" lon="1.41951">
        <ele>1308.1999511719</ele>
        <time>2013-08-10T05:47:54.000Z</time>
      </trkpt>
      <trkpt lat="42.71067" lon="1.41948">
        <ele>1308</ele>
        <time>2013-08-10T05:47:56.000Z</time>
      </trkpt>
      <trkpt lat="42.71068" lon="1.41946">
        <ele>1308.8000488281</ele>
        <time>2013-08-10T05:47:59.000Z</time>
      </trkpt>
      <trkpt lat="42.71068" lon="1.41945">
        <ele>1308.8000488281</ele>
        <time>2013-08-10T05:48:00.000Z</time>
      </trkpt>
      <trkpt lat="42.71068" lon="1.41941">
        <ele>1309</ele>
        <time>2013-08-10T05:48:05.000Z</time>
      </trkpt>
      <trkpt lat="42.71069" lon="1.41938">
        <ele>1309.5999755859</ele>
        <time>2013-08-10T05:48:11.000Z</time>
      </trkpt>
      <trkpt lat="42.71068" lon="1.41931">
        <ele>1310</ele>
        <time>2013-08-10T05:48:16.000Z</time>
      </trkpt>
      <trkpt lat="42.71069" lon="1.41926">
        <ele>1310.5999755859</ele>
        <time>2013-08-10T05:48:19.000Z</time>
      </trkpt>
      <trkpt lat="42.71069" lon="1.41925">
        <ele>1310.8000488281</ele>
        <time>2013-08-10T05:48:20.000Z</time>
      </trkpt>
      <trkpt lat="42.71069" lon="1.41923">
        <ele>1311</ele>
        <time>2013-08-10T05:48:23.000Z</time>
      </trkpt>
      <trkpt lat="42.71069" lon="1.41922">
        <ele>1311.4000244141</ele>
        <time>2013-08-10T05:48:24.000Z</time>
      </trkpt>
      <trkpt lat="42.71069" lon="1.41916">
        <ele>1311.8000488281</ele>
        <time>2013-08-10T05:48:31.000Z</time>
      </trkpt>
      <trkpt lat="42.7107" lon="1.41911">
        <ele>1312.4000244141</ele>
        <time>2013-08-10T05:48:37.000Z</time>
      </trkpt>
      <trkpt lat="42.71072" lon="1.41907">
        <ele>1314</ele>
        <time>2013-08-10T05:48:44.000Z</time>
      </trkpt>
      <trkpt lat="42.71073" lon="1.41903">
        <ele>1315.1999511719</ele>
        <time>2013-08-10T05:48:49.000Z</time>
      </trkpt>
      <trkpt lat="42.71076" lon="1.41899">
        <ele>1317</ele>
        <time>2013-08-10T05:48:54.000Z</time>
      </trkpt>
      <trkpt lat="42.71078" lon="1.41895">
        <ele>1318.5999755859</ele>
        <time>2013-08-10T05:48:59.000Z</time>
      </trkpt>
      <trkpt lat="42.71079" lon="1.4189">
        <ele>1320.1999511719</ele>
        <time>2013-08-10T05:49:05.000Z</time>
      </trkpt>
      <trkpt lat="42.7108" lon="1.41885">
        <ele>1321</ele>
        <time>2013-08-10T05:49:10.000Z</time>
      </trkpt>
      <trkpt lat="42.71081" lon="1.41882">
        <ele>1322</ele>
        <time>2013-08-10T05:49:15.000Z</time>
      </trkpt>
      <trkpt lat="42.71082" lon="1.41879">
        <ele>1323</ele>
        <time>2013-08-10T05:49:19.000Z</time>
      </trkpt>
      <trkpt lat="42.71085" lon="1.41874">
        <ele>1325</ele>
        <time>2013-08-10T05:49:23.000Z</time>
      </trkpt>
      <trkpt lat="42.7109" lon="1.41871">
        <ele>1328.1999511719</ele>
        <time>2013-08-10T05:49:26.000Z</time>
      </trkpt>
      <trkpt lat="42.71089" lon="1.4187">
        <ele>1327.5999755859</ele>
        <time>2013-08-10T05:49:27.000Z</time>
      </trkpt>
      <trkpt lat="42.7109" lon="1.41868">
        <ele>1328</ele>
        <time>2013-08-10T05:49:29.000Z</time>
      </trkpt>
      <trkpt lat="42.7109" lon="1.41862">
        <ele>1328.8000488281</ele>
        <time>2013-08-10T05:49:36.000Z</time>
      </trkpt>
      <trkpt lat="42.7109" lon="1.41861">
        <ele>1328.8000488281</ele>
        <time>2013-08-10T05:49:37.000Z</time>
      </trkpt>
      <trkpt lat="42.71091" lon="1.41857">
        <ele>1329.5999755859</ele>
        <time>2013-08-10T05:49:40.000Z</time>
      </trkpt>
      <trkpt lat="42.71094" lon="1.41851">
        <ele>1331.4000244141</ele>
        <time>2013-08-10T05:49:47.000Z</time>
      </trkpt>
      <trkpt lat="42.71097" lon="1.41846">
        <ele>1333.1999511719</ele>
        <time>2013-08-10T05:49:53.000Z</time>
      </trkpt>
      <trkpt lat="42.71099" lon="1.4184">
        <ele>1334.5999755859</ele>
        <time>2013-08-10T05:49:59.000Z</time>
      </trkpt>
      <trkpt lat="42.71101" lon="1.41833">
        <ele>1336.4000244141</ele>
        <time>2013-08-10T05:50:06.000Z</time>
      </trkpt>
      <trkpt lat="42.71104" lon="1.41826">
        <ele>1338.4000244141</ele>
        <time>2013-08-10T05:50:13.000Z</time>
      </trkpt>
      <trkpt lat="42.71106" lon="1.41819">
        <ele>1340.1999511719</ele>
        <time>2013-08-10T05:50:20.000Z</time>
      </trkpt>
      <trkpt lat="42.71108" lon="1.41812">
        <ele>1341.8000488281</ele>
        <time>2013-08-10T05:50:27.000Z</time>
      </trkpt>
      <trkpt lat="42.7111" lon="1.41805">
        <ele>1343.1999511719</ele>
        <time>2013-08-10T05:50:34.000Z</time>
      </trkpt>
      <trkpt lat="42.71113" lon="1.41799">
        <ele>1345</ele>
        <time>2013-08-10T05:50:41.000Z</time>
      </trkpt>
      <trkpt lat="42.71114" lon="1.41798">
        <ele>1345.5999755859</ele>
        <time>2013-08-10T05:50:42.000Z</time>
      </trkpt>
      <trkpt lat="42.71115" lon="1.41792">
        <ele>1346.4000244141</ele>
        <time>2013-08-10T05:50:46.000Z</time>
      </trkpt>
      <trkpt lat="42.71117" lon="1.41787">
        <ele>1348</ele>
        <time>2013-08-10T05:50:51.000Z</time>
      </trkpt>
      <trkpt lat="42.71117" lon="1.41786">
        <ele>1348.4000244141</ele>
        <time>2013-08-10T05:50:52.000Z</time>
      </trkpt>
      <trkpt lat="42.71118" lon="1.4178">
        <ele>1349.1999511719</ele>
        <time>2013-08-10T05:50:57.000Z</time>
      </trkpt>
      <trkpt lat="42.71119" lon="1.41778">
        <ele>1349.5999755859</ele>
        <time>2013-08-10T05:50:59.000Z</time>
      </trkpt>
      <trkpt lat="42.7112" lon="1.41777">
        <ele>1350.1999511719</ele>
        <time>2013-08-10T05:51:00.000Z</time>
      </trkpt>
      <trkpt lat="42.71121" lon="1.41773">
        <ele>1351.1999511719</ele>
        <time>2013-08-10T05:51:03.000Z</time>
      </trkpt>
      <trkpt lat="42.71122" lon="1.41769">
        <ele>1351.8000488281</ele>
        <time>2013-08-10T05:51:06.000Z</time>
      </trkpt>
      <trkpt lat="42.71124" lon="1.41764">
        <ele>1353</ele>
        <time>2013-08-10T05:51:10.000Z</time>
      </trkpt>
      <trkpt lat="42.71127" lon="1.41754">
        <ele>1355.5999755859</ele>
        <time>2013-08-10T05:51:17.000Z</time>
      </trkpt>
      <trkpt lat="42.7113" lon="1.41749">
        <ele>1357.1999511719</ele>
        <time>2013-08-10T05:51:22.000Z</time>
      </trkpt>
      <trkpt lat="42.71131" lon="1.41747">
        <ele>1357.5999755859</ele>
        <time>2013-08-10T05:51:23.000Z</time>
      </trkpt>
      <trkpt lat="42.71132" lon="1.41741">
        <ele>1358.8000488281</ele>
        <time>2013-08-10T05:51:28.000Z</time>
      </trkpt>
      <trkpt lat="42.71135" lon="1.41738">
        <ele>1360.8000488281</ele>
        <time>2013-08-10T05:51:33.000Z</time>
      </trkpt>
      <trkpt lat="42.71136" lon="1.41737">
        <ele>1361.1999511719</ele>
        <time>2013-08-10T05:51:34.000Z</time>
      </trkpt>
      <trkpt lat="42.71139" lon="1.41732">
        <ele>1362.8000488281</ele>
        <time>2013-08-10T05:51:39.000Z</time>
      </trkpt>
      <trkpt lat="42.71139" lon="1.41731">
        <ele>1363</ele>
        <time>2013-08-10T05:51:40.000Z</time>
      </trkpt>
      <trkpt lat="42.7114" lon="1.41726">
        <ele>1363.8000488281</ele>
        <time>2013-08-10T05:51:44.000Z</time>
      </trkpt>
      <trkpt lat="42.71139" lon="1.41721">
        <ele>1364</ele>
        <time>2013-08-10T05:51:53.000Z</time>
      </trkpt>
      <trkpt lat="42.7114" lon="1.41718">
        <ele>1364.8000488281</ele>
        <time>2013-08-10T05:51:56.000Z</time>
      </trkpt>
      <trkpt lat="42.71141" lon="1.41715">
        <ele>1365</ele>
        <time>2013-08-10T05:51:58.000Z</time>
      </trkpt>
      <trkpt lat="42.71141" lon="1.41706">
        <ele>1366</ele>
        <time>2013-08-10T05:52:04.000Z</time>
      </trkpt>
      <trkpt lat="42.71141" lon="1.41704">
        <ele>1366.1999511719</ele>
        <time>2013-08-10T05:52:05.000Z</time>
      </trkpt>
      <trkpt lat="42.71144" lon="1.41695">
        <ele>1368</ele>
        <time>2013-08-10T05:52:11.000Z</time>
      </trkpt>
      <trkpt lat="42.71144" lon="1.41688">
        <ele>1368.4000244141</ele>
        <time>2013-08-10T05:52:16.000Z</time>
      </trkpt>
      <trkpt lat="42.71143" lon="1.41682">
        <ele>1368.5999755859</ele>
        <time>2013-08-10T05:52:20.000Z</time>
      </trkpt>
      <trkpt lat="42.71143" lon="1.4168">
        <ele>1368.5999755859</ele>
        <time>2013-08-10T05:52:21.000Z</time>
      </trkpt>
      <trkpt lat="42.71143" lon="1.41675">
        <ele>1368.8000488281</ele>
        <time>2013-08-10T05:52:24.000Z</time>
      </trkpt>
      <trkpt lat="42.71144" lon="1.41668">
        <ele>1369.5999755859</ele>
        <time>2013-08-10T05:52:28.000Z</time>
      </trkpt>
      <trkpt lat="42.71143" lon="1.4166">
        <ele>1370</ele>
        <time>2013-08-10T05:52:32.000Z</time>
      </trkpt>
      <trkpt lat="42.71144" lon="1.41656">
        <ele>1370.4000244141</ele>
        <time>2013-08-10T05:52:34.000Z</time>
      </trkpt>
      <trkpt lat="42.71143" lon="1.41652">
        <ele>1370.1999511719</ele>
        <time>2013-08-10T05:52:36.000Z</time>
      </trkpt>
      <trkpt lat="42.71143" lon="1.41649">
        <ele>1370.5999755859</ele>
        <time>2013-08-10T05:52:38.000Z</time>
      </trkpt>
      <trkpt lat="42.71141" lon="1.41642">
        <ele>1370</ele>
        <time>2013-08-10T05:52:42.000Z</time>
      </trkpt>
      <trkpt lat="42.71141" lon="1.4164">
        <ele>1370.1999511719</ele>
        <time>2013-08-10T05:52:43.000Z</time>
      </trkpt>
      <trkpt lat="42.71142" lon="1.41632">
        <ele>1371</ele>
        <time>2013-08-10T05:52:48.000Z</time>
      </trkpt>
      <trkpt lat="42.71141" lon="1.41631">
        <ele>1370.8000488281</ele>
        <time>2013-08-10T05:52:49.000Z</time>
      </trkpt>
      <trkpt lat="42.71144" lon="1.41625">
        <ele>1372.8000488281</ele>
        <time>2013-08-10T05:52:53.000Z</time>
      </trkpt>
      <trkpt lat="42.71148" lon="1.41619">
        <ele>1375.4000244141</ele>
        <time>2013-08-10T05:52:57.000Z</time>
      </trkpt>
      <trkpt lat="42.71151" lon="1.41615">
        <ele>1377.4000244141</ele>
        <time>2013-08-10T05:53:00.000Z</time>
      </trkpt>
      <trkpt lat="42.71153" lon="1.41613">
        <ele>1378.5999755859</ele>
        <time>2013-08-10T05:53:02.000Z</time>
      </trkpt>
      <trkpt lat="42.71155" lon="1.4161">
        <ele>1380</ele>
        <time>2013-08-10T05:53:04.000Z</time>
      </trkpt>
      <trkpt lat="42.71157" lon="1.41607">
        <ele>1381</ele>
        <time>2013-08-10T05:53:06.000Z</time>
      </trkpt>
      <trkpt lat="42.71158" lon="1.41604">
        <ele>1382</ele>
        <time>2013-08-10T05:53:08.000Z</time>
      </trkpt>
      <trkpt lat="42.71159" lon="1.41598">
        <ele>1383</ele>
        <time>2013-08-10T05:53:11.000Z</time>
      </trkpt>
      <trkpt lat="42.71158" lon="1.41597">
        <ele>1382.5999755859</ele>
        <time>2013-08-10T05:53:12.000Z</time>
      </trkpt>
      <trkpt lat="42.71155" lon="1.41593">
        <ele>1381.4000244141</ele>
        <time>2013-08-10T05:53:15.000Z</time>
      </trkpt>
      <trkpt lat="42.71155" lon="1.41593">
        <ele>1381.1999511719</ele>
        <time>2013-08-10T05:53:16.000Z</time>
      </trkpt>
      <trkpt lat="42.71152" lon="1.41588">
        <ele>1379.5999755859</ele>
        <time>2013-08-10T05:53:20.000Z</time>
      </trkpt>
      <trkpt lat="42.71148" lon="1.4158">
        <ele>1378</ele>
        <time>2013-08-10T05:53:25.000Z</time>
      </trkpt>
      <trkpt lat="42.71144" lon="1.41573">
        <ele>1375.8000488281</ele>
        <time>2013-08-10T05:53:30.000Z</time>
      </trkpt>
      <trkpt lat="42.71142" lon="1.41563">
        <ele>1376</ele>
        <time>2013-08-10T05:53:35.000Z</time>
      </trkpt>
      <trkpt lat="42.7114" lon="1.41554">
        <ele>1375</ele>
        <time>2013-08-10T05:53:40.000Z</time>
      </trkpt>
      <trkpt lat="42.71143" lon="1.41545">
        <ele>1378</ele>
        <time>2013-08-10T05:53:45.000Z</time>
      </trkpt>
      <trkpt lat="42.71144" lon="1.41543">
        <ele>1378.8000488281</ele>
        <time>2013-08-10T05:53:46.000Z</time>
      </trkpt>
      <trkpt lat="42.71145" lon="1.4154">
        <ele>1379.1999511719</ele>
        <time>2013-08-10T05:53:48.000Z</time>
      </trkpt>
      <trkpt lat="42.71144" lon="1.41537">
        <ele>1379.1999511719</ele>
        <time>2013-08-10T05:53:50.000Z</time>
      </trkpt>
      <trkpt lat="42.71146" lon="1.41536">
        <ele>1380.1999511719</ele>
        <time>2013-08-10T05:53:51.000Z</time>
      </trkpt>
      <trkpt lat="42.71143" lon="1.4153">
        <ele>1378.8000488281</ele>
        <time>2013-08-10T05:53:54.000Z</time>
      </trkpt>
      <trkpt lat="42.71139" lon="1.41523">
        <ele>1376.8000488281</ele>
        <time>2013-08-10T05:53:58.000Z</time>
      </trkpt>
      <trkpt lat="42.71137" lon="1.41514">
        <ele>1375.8000488281</ele>
        <time>2013-08-10T05:54:03.000Z</time>
      </trkpt>
      <trkpt lat="42.71135" lon="1.41507">
        <ele>1374.8000488281</ele>
        <time>2013-08-10T05:54:06.000Z</time>
      </trkpt>
      <trkpt lat="42.71134" lon="1.41502">
        <ele>1374.5999755859</ele>
        <time>2013-08-10T05:54:08.000Z</time>
      </trkpt>
      <trkpt lat="42.71135" lon="1.415">
        <ele>1375.1999511719</ele>
        <time>2013-08-10T05:54:09.000Z</time>
      </trkpt>
      <trkpt lat="42.71134" lon="1.41495">
        <ele>1374.8000488281</ele>
        <time>2013-08-10T05:54:13.000Z</time>
      </trkpt>
      <trkpt lat="42.71137" lon="1.41485">
        <ele>1376</ele>
        <time>2013-08-10T05:54:19.000Z</time>
      </trkpt>
      <trkpt lat="42.71138" lon="1.41479">
        <ele>1376.8000488281</ele>
        <time>2013-08-10T05:54:23.000Z</time>
      </trkpt>
      <trkpt lat="42.71142" lon="1.41468">
        <ele>1379.1999511719</ele>
        <time>2013-08-10T05:54:30.000Z</time>
      </trkpt>
      <trkpt lat="42.71144" lon="1.41465">
        <ele>1380.4000244141</ele>
        <time>2013-08-10T05:54:32.000Z</time>
      </trkpt>
      <trkpt lat="42.71144" lon="1.41462">
        <ele>1380.4000244141</ele>
        <time>2013-08-10T05:54:34.000Z</time>
      </trkpt>
      <trkpt lat="42.71146" lon="1.41454">
        <ele>1381.4000244141</ele>
        <time>2013-08-10T05:54:38.000Z</time>
      </trkpt>
      <trkpt lat="42.71149" lon="1.41447">
        <ele>1383.5999755859</ele>
        <time>2013-08-10T05:54:43.000Z</time>
      </trkpt>
      <trkpt lat="42.71154" lon="1.41444">
        <ele>1386.8000488281</ele>
        <time>2013-08-10T05:54:46.000Z</time>
      </trkpt>
      <trkpt lat="42.71155" lon="1.41443">
        <ele>1387.1999511719</ele>
        <time>2013-08-10T05:54:47.000Z</time>
      </trkpt>
      <trkpt lat="42.71159" lon="1.41439">
        <ele>1390</ele>
        <time>2013-08-10T05:54:51.000Z</time>
      </trkpt>
      <trkpt lat="42.71159" lon="1.41438">
        <ele>1390.1999511719</ele>
        <time>2013-08-10T05:54:52.000Z</time>
      </trkpt>
      <trkpt lat="42.71158" lon="1.4143">
        <ele>1389.4000244141</ele>
        <time>2013-08-10T05:54:56.000Z</time>
      </trkpt>
      <trkpt lat="42.7116" lon="1.41424">
        <ele>1390.5999755859</ele>
        <time>2013-08-10T05:55:00.000Z</time>
      </trkpt>
      <trkpt lat="42.71162" lon="1.41412">
        <ele>1390.8000488281</ele>
        <time>2013-08-10T05:55:06.000Z</time>
      </trkpt>
      <trkpt lat="42.71161" lon="1.41402">
        <ele>1389</ele>
        <time>2013-08-10T05:55:11.000Z</time>
      </trkpt>
      <trkpt lat="42.7116" lon="1.41392">
        <ele>1387.8000488281</ele>
        <time>2013-08-10T05:55:16.000Z</time>
      </trkpt>
      <trkpt lat="42.71162" lon="1.41391">
        <ele>1388.5999755859</ele>
        <time>2013-08-10T05:55:17.000Z</time>
      </trkpt>
      <trkpt lat="42.71162" lon="1.41384">
        <ele>1388.1999511719</ele>
        <time>2013-08-10T05:55:21.000Z</time>
      </trkpt>
      <trkpt lat="42.7116" lon="1.41376">
        <ele>1386.1999511719</ele>
        <time>2013-08-10T05:55:25.000Z</time>
      </trkpt>
      <trkpt lat="42.71159" lon="1.41369">
        <ele>1384.4000244141</ele>
        <time>2013-08-10T05:55:29.000Z</time>
      </trkpt>
      <trkpt lat="42.71159" lon="1.41364">
        <ele>1384.1999511719</ele>
        <time>2013-08-10T05:55:32.000Z</time>
      </trkpt>
      <trkpt lat="42.7116" lon="1.41362">
        <ele>1384.4000244141</ele>
        <time>2013-08-10T05:55:33.000Z</time>
      </trkpt>
      <trkpt lat="42.7116" lon="1.41356">
        <ele>1383.8000488281</ele>
        <time>2013-08-10T05:55:36.000Z</time>
      </trkpt>
      <trkpt lat="42.7116" lon="1.41354">
        <ele>1383.5999755859</ele>
        <time>2013-08-10T05:55:37.000Z</time>
      </trkpt>
      <trkpt lat="42.71167" lon="1.41345">
        <ele>1388.1999511719</ele>
        <time>2013-08-10T05:55:43.000Z</time>
      </trkpt>
      <trkpt lat="42.71168" lon="1.41338">
        <ele>1388</ele>
        <time>2013-08-10T05:55:47.000Z</time>
      </trkpt>
      <trkpt lat="42.71168" lon="1.41337">
        <ele>1388</ele>
        <time>2013-08-10T05:55:48.000Z</time>
      </trkpt>
      <trkpt lat="42.71168" lon="1.41336">
        <ele>1388.1999511719</ele>
        <time>2013-08-10T05:55:49.000Z</time>
      </trkpt>
      <trkpt lat="42.71171" lon="1.41329">
        <ele>1388.8000488281</ele>
        <time>2013-08-10T05:55:52.000Z</time>
      </trkpt>
      <trkpt lat="42.71171" lon="1.41322">
        <ele>1387.5999755859</ele>
        <time>2013-08-10T05:55:56.000Z</time>
      </trkpt>
      <trkpt lat="42.71171" lon="1.41316">
        <ele>1386</ele>
        <time>2013-08-10T05:55:59.000Z</time>
      </trkpt>
      <trkpt lat="42.71173" lon="1.41306">
        <ele>1385.4000244141</ele>
        <time>2013-08-10T05:56:04.000Z</time>
      </trkpt>
      <trkpt lat="42.71175" lon="1.41299">
        <ele>1385.4000244141</ele>
        <time>2013-08-10T05:56:08.000Z</time>
      </trkpt>
      <trkpt lat="42.71175" lon="1.41293">
        <ele>1384.1999511719</ele>
        <time>2013-08-10T05:56:12.000Z</time>
      </trkpt>
      <trkpt lat="42.71175" lon="1.41293">
        <ele>1384.1999511719</ele>
        <time>2013-08-10T05:56:13.000Z</time>
      </trkpt>
      <trkpt lat="42.71191" lon="1.41269">
        <ele>1389.5999755859</ele>
        <time>2013-08-10T05:56:41.000Z</time>
      </trkpt>
      <trkpt lat="42.71195" lon="1.41264">
        <ele>1391.5999755859</ele>
        <time>2013-08-10T05:56:44.000Z</time>
      </trkpt>
      <trkpt lat="42.71197" lon="1.41262">
        <ele>1392.4000244141</ele>
        <time>2013-08-10T05:56:45.000Z</time>
      </trkpt>
      <trkpt lat="42.71197" lon="1.4126">
        <ele>1392.1999511719</ele>
        <time>2013-08-10T05:56:46.000Z</time>
      </trkpt>
      <trkpt lat="42.712" lon="1.41258">
        <ele>1393.5999755859</ele>
        <time>2013-08-10T05:56:48.000Z</time>
      </trkpt>
      <trkpt lat="42.71202" lon="1.41257">
        <ele>1394.8000488281</ele>
        <time>2013-08-10T05:56:49.000Z</time>
      </trkpt>
      <trkpt lat="42.71208" lon="1.41252">
        <ele>1397.5999755859</ele>
        <time>2013-08-10T05:56:53.000Z</time>
      </trkpt>
      <trkpt lat="42.71216" lon="1.41245">
        <ele>1402</ele>
        <time>2013-08-10T05:56:59.000Z</time>
      </trkpt>
      <trkpt lat="42.71218" lon="1.41243">
        <ele>1402.8000488281</ele>
        <time>2013-08-10T05:57:01.000Z</time>
      </trkpt>
      <trkpt lat="42.7122" lon="1.41238">
        <ele>1403.5999755859</ele>
        <time>2013-08-10T05:57:04.000Z</time>
      </trkpt>
      <trkpt lat="42.71225" lon="1.41228">
        <ele>1405.4000244141</ele>
        <time>2013-08-10T05:57:10.000Z</time>
      </trkpt>
      <trkpt lat="42.71224" lon="1.41227">
        <ele>1405.1999511719</ele>
        <time>2013-08-10T05:57:11.000Z</time>
      </trkpt>
      <trkpt lat="42.71228" lon="1.41223">
        <ele>1407</ele>
        <time>2013-08-10T05:57:14.000Z</time>
      </trkpt>
      <trkpt lat="42.71237" lon="1.41212">
        <ele>1411.5999755859</ele>
        <time>2013-08-10T05:57:21.000Z</time>
      </trkpt>
      <trkpt lat="42.71245" lon="1.41203">
        <ele>1415.5999755859</ele>
        <time>2013-08-10T05:57:28.000Z</time>
      </trkpt>
      <trkpt lat="42.71256" lon="1.41195">
        <ele>1421.1999511719</ele>
        <time>2013-08-10T05:57:36.000Z</time>
      </trkpt>
      <trkpt lat="42.71257" lon="1.41192">
        <ele>1421.5999755859</ele>
        <time>2013-08-10T05:57:38.000Z</time>
      </trkpt>
      <trkpt lat="42.71261" lon="1.41191">
        <ele>1424.1999511719</ele>
        <time>2013-08-10T05:57:41.000Z</time>
      </trkpt>
      <trkpt lat="42.71264" lon="1.41189">
        <ele>1425.5999755859</ele>
        <time>2013-08-10T05:57:45.000Z</time>
      </trkpt>
      <trkpt lat="42.71262" lon="1.41186">
        <ele>1424</ele>
        <time>2013-08-10T05:57:51.000Z</time>
      </trkpt>
      <trkpt lat="42.71261" lon="1.41185">
        <ele>1423.1999511719</ele>
        <time>2013-08-10T05:57:55.000Z</time>
      </trkpt>
      <trkpt lat="42.71257" lon="1.41182">
        <ele>1420.5999755859</ele>
        <time>2013-08-10T05:58:00.000Z</time>
      </trkpt>
      <trkpt lat="42.71254" lon="1.41181">
        <ele>1418.1999511719</ele>
        <time>2013-08-10T05:58:04.000Z</time>
      </trkpt>
      <trkpt lat="42.71247" lon="1.41173">
        <ele>1413.1999511719</ele>
        <time>2013-08-10T05:58:10.000Z</time>
      </trkpt>
      <trkpt lat="42.71247" lon="1.41168">
        <ele>1412.1999511719</ele>
        <time>2013-08-10T05:58:13.000Z</time>
      </trkpt>
      <trkpt lat="42.71242" lon="1.41157">
        <ele>1409.8000488281</ele>
        <time>2013-08-10T05:58:19.000Z</time>
      </trkpt>
      <trkpt lat="42.7124" lon="1.41147">
        <ele>1408.8000488281</ele>
        <time>2013-08-10T05:58:24.000Z</time>
      </trkpt>
      <trkpt lat="42.71239" lon="1.4114">
        <ele>1408.8000488281</ele>
        <time>2013-08-10T05:58:28.000Z</time>
      </trkpt>
      <trkpt lat="42.71241" lon="1.41136">
        <ele>1410.5999755859</ele>
        <time>2013-08-10T05:58:31.000Z</time>
      </trkpt>
      <trkpt lat="42.71242" lon="1.41134">
        <ele>1411.1999511719</ele>
        <time>2013-08-10T05:58:32.000Z</time>
      </trkpt>
      <trkpt lat="42.71243" lon="1.41133">
        <ele>1412.1999511719</ele>
        <time>2013-08-10T05:58:33.000Z</time>
      </trkpt>
      <trkpt lat="42.71243" lon="1.4113">
        <ele>1412.4000244141</ele>
        <time>2013-08-10T05:58:36.000Z</time>
      </trkpt>
      <trkpt lat="42.71243" lon="1.41128">
        <ele>1412.5999755859</ele>
        <time>2013-08-10T05:58:37.000Z</time>
      </trkpt>
      <trkpt lat="42.71243" lon="1.41123">
        <ele>1412.5999755859</ele>
        <time>2013-08-10T05:58:41.000Z</time>
      </trkpt>
      <trkpt lat="42.71241" lon="1.41115">
        <ele>1412.1999511719</ele>
        <time>2013-08-10T05:58:45.000Z</time>
      </trkpt>
      <trkpt lat="42.71238" lon="1.41106">
        <ele>1411</ele>
        <time>2013-08-10T05:58:49.000Z</time>
      </trkpt>
      <trkpt lat="42.71237" lon="1.41098">
        <ele>1410.8000488281</ele>
        <time>2013-08-10T05:58:53.000Z</time>
      </trkpt>
      <trkpt lat="42.71236" lon="1.41092">
        <ele>1410.5999755859</ele>
        <time>2013-08-10T05:58:56.000Z</time>
      </trkpt>
      <trkpt lat="42.71236" lon="1.41088">
        <ele>1411</ele>
        <time>2013-08-10T05:58:58.000Z</time>
      </trkpt>
      <trkpt lat="42.71235" lon="1.41086">
        <ele>1410.5999755859</ele>
        <time>2013-08-10T05:58:59.000Z</time>
      </trkpt>
      <trkpt lat="42.71234" lon="1.41075">
        <ele>1410.4000244141</ele>
        <time>2013-08-10T05:59:04.000Z</time>
      </trkpt>
      <trkpt lat="42.71234" lon="1.41073">
        <ele>1410.5999755859</ele>
        <time>2013-08-10T05:59:05.000Z</time>
      </trkpt>
      <trkpt lat="42.71235" lon="1.41059">
        <ele>1411.5999755859</ele>
        <time>2013-08-10T05:59:12.000Z</time>
      </trkpt>
      <trkpt lat="42.71235" lon="1.41046">
        <ele>1412.1999511719</ele>
        <time>2013-08-10T05:59:18.000Z</time>
      </trkpt>
      <trkpt lat="42.71236" lon="1.41045">
        <ele>1412.5999755859</ele>
        <time>2013-08-10T05:59:19.000Z</time>
      </trkpt>
      <trkpt lat="42.71239" lon="1.41039">
        <ele>1414.5999755859</ele>
        <time>2013-08-10T05:59:23.000Z</time>
      </trkpt>
      <trkpt lat="42.71245" lon="1.41025">
        <ele>1418.1999511719</ele>
        <time>2013-08-10T05:59:30.000Z</time>
      </trkpt>
      <trkpt lat="42.71245" lon="1.4102">
        <ele>1418.4000244141</ele>
        <time>2013-08-10T05:59:32.000Z</time>
      </trkpt>
      <trkpt lat="42.71242" lon="1.41016">
        <ele>1417.1999511719</ele>
        <time>2013-08-10T05:59:34.000Z</time>
      </trkpt>
      <trkpt lat="42.71242" lon="1.41013">
        <ele>1417</ele>
        <time>2013-08-10T05:59:35.000Z</time>
      </trkpt>
      <trkpt lat="42.71242" lon="1.4101">
        <ele>1417</ele>
        <time>2013-08-10T05:59:38.000Z</time>
      </trkpt>
      <trkpt lat="42.71243" lon="1.4101">
        <ele>1417.5999755859</ele>
        <time>2013-08-10T05:59:39.000Z</time>
      </trkpt>
      <trkpt lat="42.71242" lon="1.41004">
        <ele>1417</ele>
        <time>2013-08-10T05:59:44.000Z</time>
      </trkpt>
      <trkpt lat="42.71242" lon="1.41003">
        <ele>1417.1999511719</ele>
        <time>2013-08-10T05:59:46.000Z</time>
      </trkpt>
      <trkpt lat="42.71241" lon="1.41001">
        <ele>1416.8000488281</ele>
        <time>2013-08-10T05:59:47.000Z</time>
      </trkpt>
      <trkpt lat="42.71239" lon="1.40998">
        <ele>1416.1999511719</ele>
        <time>2013-08-10T05:59:50.000Z</time>
      </trkpt>
      <trkpt lat="42.71238" lon="1.40997">
        <ele>1416</ele>
        <time>2013-08-10T05:59:51.000Z</time>
      </trkpt>
      <trkpt lat="42.71237" lon="1.40991">
        <ele>1416.5999755859</ele>
        <time>2013-08-10T05:59:56.000Z</time>
      </trkpt>
      <trkpt lat="42.71237" lon="1.40989">
        <ele>1417</ele>
        <time>2013-08-10T05:59:58.000Z</time>
      </trkpt>
      <trkpt lat="42.71237" lon="1.40986">
        <ele>1417.1999511719</ele>
        <time>2013-08-10T06:00:00.000Z</time>
      </trkpt>
      <trkpt lat="42.71234" lon="1.4098">
        <ele>1417</ele>
        <time>2013-08-10T06:00:05.000Z</time>
      </trkpt>
      <trkpt lat="42.71233" lon="1.40979">
        <ele>1417</ele>
        <time>2013-08-10T06:00:06.000Z</time>
      </trkpt>
      <trkpt lat="42.71233" lon="1.40974">
        <ele>1418</ele>
        <time>2013-08-10T06:00:09.000Z</time>
      </trkpt>
      <trkpt lat="42.71233" lon="1.40969">
        <ele>1418.8000488281</ele>
        <time>2013-08-10T06:00:12.000Z</time>
      </trkpt>
      <trkpt lat="42.71233" lon="1.40966">
        <ele>1419.4000244141</ele>
        <time>2013-08-10T06:00:14.000Z</time>
      </trkpt>
      <trkpt lat="42.71231" lon="1.40958">
        <ele>1420.4000244141</ele>
        <time>2013-08-10T06:00:18.000Z</time>
      </trkpt>
      <trkpt lat="42.71228" lon="1.40945">
        <ele>1421.1999511719</ele>
        <time>2013-08-10T06:00:25.000Z</time>
      </trkpt>
      <trkpt lat="42.71226" lon="1.4093">
        <ele>1423.5999755859</ele>
        <time>2013-08-10T06:00:32.000Z</time>
      </trkpt>
      <trkpt lat="42.71224" lon="1.40913">
        <ele>1425.5999755859</ele>
        <time>2013-08-10T06:00:40.000Z</time>
      </trkpt>
      <trkpt lat="42.7122" lon="1.40903">
        <ele>1425</ele>
        <time>2013-08-10T06:00:46.000Z</time>
      </trkpt>
      <trkpt lat="42.71217" lon="1.40898">
        <ele>1424.4000244141</ele>
        <time>2013-08-10T06:00:49.000Z</time>
      </trkpt>
      <trkpt lat="42.71215" lon="1.40894">
        <ele>1423.8000488281</ele>
        <time>2013-08-10T06:00:52.000Z</time>
      </trkpt>
      <trkpt lat="42.71212" lon="1.40883">
        <ele>1423.8000488281</ele>
        <time>2013-08-10T06:00:58.000Z</time>
      </trkpt>
      <trkpt lat="42.71206" lon="1.40868">
        <ele>1423.4000244141</ele>
        <time>2013-08-10T06:01:06.000Z</time>
      </trkpt>
      <trkpt lat="42.712" lon="1.40856">
        <ele>1422.1999511719</ele>
        <time>2013-08-10T06:01:13.000Z</time>
      </trkpt>
      <trkpt lat="42.71196" lon="1.40844">
        <ele>1422.5999755859</ele>
        <time>2013-08-10T06:01:20.000Z</time>
      </trkpt>
      <trkpt lat="42.71192" lon="1.40833">
        <ele>1423</ele>
        <time>2013-08-10T06:01:26.000Z</time>
      </trkpt>
      <trkpt lat="42.71186" lon="1.40823">
        <ele>1422</ele>
        <time>2013-08-10T06:01:33.000Z</time>
      </trkpt>
      <trkpt lat="42.71181" lon="1.40814">
        <ele>1421.4000244141</ele>
        <time>2013-08-10T06:01:39.000Z</time>
      </trkpt>
      <trkpt lat="42.71179" lon="1.40807">
        <ele>1422</ele>
        <time>2013-08-10T06:01:44.000Z</time>
      </trkpt>
      <trkpt lat="42.71176" lon="1.408">
        <ele>1422.1999511719</ele>
        <time>2013-08-10T06:01:48.000Z</time>
      </trkpt>
      <trkpt lat="42.71174" lon="1.40798">
        <ele>1421.8000488281</ele>
        <time>2013-08-10T06:01:50.000Z</time>
      </trkpt>
      <trkpt lat="42.71173" lon="1.40794">
        <ele>1421.8000488281</ele>
        <time>2013-08-10T06:01:52.000Z</time>
      </trkpt>
      <trkpt lat="42.71172" lon="1.40789">
        <ele>1422.4000244141</ele>
        <time>2013-08-10T06:01:55.000Z</time>
      </trkpt>
      <trkpt lat="42.71167" lon="1.40781">
        <ele>1422</ele>
        <time>2013-08-10T06:02:00.000Z</time>
      </trkpt>
      <trkpt lat="42.71167" lon="1.4078">
        <ele>1421.8000488281</ele>
        <time>2013-08-10T06:02:01.000Z</time>
      </trkpt>
      <trkpt lat="42.71164" lon="1.40775">
        <ele>1421</ele>
        <time>2013-08-10T06:02:05.000Z</time>
      </trkpt>
      <trkpt lat="42.71158" lon="1.40767">
        <ele>1419.4000244141</ele>
        <time>2013-08-10T06:02:11.000Z</time>
      </trkpt>
      <trkpt lat="42.71155" lon="1.40759">
        <ele>1419</ele>
        <time>2013-08-10T06:02:17.000Z</time>
      </trkpt>
      <trkpt lat="42.71154" lon="1.40753">
        <ele>1419.5999755859</ele>
        <time>2013-08-10T06:02:21.000Z</time>
      </trkpt>
      <trkpt lat="42.71153" lon="1.40751">
        <ele>1419.5999755859</ele>
        <time>2013-08-10T06:02:22.000Z</time>
      </trkpt>
      <trkpt lat="42.71151" lon="1.40746">
        <ele>1418.8000488281</ele>
        <time>2013-08-10T06:02:26.000Z</time>
      </trkpt>
      <trkpt lat="42.7115" lon="1.40747">
        <ele>1418.4000244141</ele>
        <time>2013-08-10T06:02:27.000Z</time>
      </trkpt>
      <trkpt lat="42.71147" lon="1.40742">
        <ele>1417.1999511719</ele>
        <time>2013-08-10T06:02:30.000Z</time>
      </trkpt>
      <trkpt lat="42.71144" lon="1.4074">
        <ele>1416.1999511719</ele>
        <time>2013-08-10T06:02:32.000Z</time>
      </trkpt>
      <trkpt lat="42.71139" lon="1.40733">
        <ele>1414.5999755859</ele>
        <time>2013-08-10T06:02:37.000Z</time>
      </trkpt>
      <trkpt lat="42.71137" lon="1.40723">
        <ele>1415</ele>
        <time>2013-08-10T06:02:43.000Z</time>
      </trkpt>
      <trkpt lat="42.71138" lon="1.40719">
        <ele>1416.1999511719</ele>
        <time>2013-08-10T06:02:45.000Z</time>
      </trkpt>
      <trkpt lat="42.71138" lon="1.40715">
        <ele>1417.4000244141</ele>
        <time>2013-08-10T06:02:48.000Z</time>
      </trkpt>
      <trkpt lat="42.71136" lon="1.40707">
        <ele>1417.5999755859</ele>
        <time>2013-08-10T06:02:53.000Z</time>
      </trkpt>
      <trkpt lat="42.71136" lon="1.40704">
        <ele>1417.8000488281</ele>
        <time>2013-08-10T06:02:55.000Z</time>
      </trkpt>
      <trkpt lat="42.71135" lon="1.40697">
        <ele>1418.5999755859</ele>
        <time>2013-08-10T06:02:59.000Z</time>
      </trkpt>
      <trkpt lat="42.71133" lon="1.40691">
        <ele>1418.5999755859</ele>
        <time>2013-08-10T06:03:03.000Z</time>
      </trkpt>
      <trkpt lat="42.71132" lon="1.4069">
        <ele>1418.4000244141</ele>
        <time>2013-08-10T06:03:04.000Z</time>
      </trkpt>
      <trkpt lat="42.71131" lon="1.40679">
        <ele>1419.1999511719</ele>
        <time>2013-08-10T06:03:09.000Z</time>
      </trkpt>
      <trkpt lat="42.71131" lon="1.40677">
        <ele>1419.5999755859</ele>
        <time>2013-08-10T06:03:10.000Z</time>
      </trkpt>
      <trkpt lat="42.71128" lon="1.4067">
        <ele>1419</ele>
        <time>2013-08-10T06:03:15.000Z</time>
      </trkpt>
      <trkpt lat="42.71126" lon="1.40662">
        <ele>1418.5999755859</ele>
        <time>2013-08-10T06:03:20.000Z</time>
      </trkpt>
      <trkpt lat="42.71126" lon="1.40654">
        <ele>1419.8000488281</ele>
        <time>2013-08-10T06:03:25.000Z</time>
      </trkpt>
      <trkpt lat="42.71124" lon="1.40645">
        <ele>1419.1999511719</ele>
        <time>2013-08-10T06:03:30.000Z</time>
      </trkpt>
      <trkpt lat="42.71125" lon="1.40637">
        <ele>1420.5999755859</ele>
        <time>2013-08-10T06:03:36.000Z</time>
      </trkpt>
      <trkpt lat="42.71123" lon="1.40629">
        <ele>1420.8000488281</ele>
        <time>2013-08-10T06:03:42.000Z</time>
      </trkpt>
      <trkpt lat="42.71122" lon="1.40625">
        <ele>1420.4000244141</ele>
        <time>2013-08-10T06:03:44.000Z</time>
      </trkpt>
      <trkpt lat="42.71122" lon="1.40623">
        <ele>1420.8000488281</ele>
        <time>2013-08-10T06:03:45.000Z</time>
      </trkpt>
      <trkpt lat="42.71122" lon="1.40619">
        <ele>1421.1999511719</ele>
        <time>2013-08-10T06:03:47.000Z</time>
      </trkpt>
      <trkpt lat="42.71121" lon="1.40611">
        <ele>1421</ele>
        <time>2013-08-10T06:03:51.000Z</time>
      </trkpt>
      <trkpt lat="42.71122" lon="1.40607">
        <ele>1422.4000244141</ele>
        <time>2013-08-10T06:03:53.000Z</time>
      </trkpt>
      <trkpt lat="42.7112" lon="1.40603">
        <ele>1421.8000488281</ele>
        <time>2013-08-10T06:03:55.000Z</time>
      </trkpt>
      <trkpt lat="42.7112" lon="1.40601">
        <ele>1421.8000488281</ele>
        <time>2013-08-10T06:03:56.000Z</time>
      </trkpt>
      <trkpt lat="42.71121" lon="1.40592">
        <ele>1423.5999755859</ele>
        <time>2013-08-10T06:04:01.000Z</time>
      </trkpt>
      <trkpt lat="42.71121" lon="1.40584">
        <ele>1424.1999511719</ele>
        <time>2013-08-10T06:04:06.000Z</time>
      </trkpt>
      <trkpt lat="42.7112" lon="1.40575">
        <ele>1422.8000488281</ele>
        <time>2013-08-10T06:04:11.000Z</time>
      </trkpt>
      <trkpt lat="42.71121" lon="1.40568">
        <ele>1422.8000488281</ele>
        <time>2013-08-10T06:04:15.000Z</time>
      </trkpt>
      <trkpt lat="42.7112" lon="1.40565">
        <ele>1421.5999755859</ele>
        <time>2013-08-10T06:04:17.000Z</time>
      </trkpt>
      <trkpt lat="42.7112" lon="1.40554">
        <ele>1421</ele>
        <time>2013-08-10T06:04:22.000Z</time>
      </trkpt>
      <trkpt lat="42.71121" lon="1.40549">
        <ele>1421</ele>
        <time>2013-08-10T06:04:25.000Z</time>
      </trkpt>
      <trkpt lat="42.7112" lon="1.40545">
        <ele>1419.8000488281</ele>
        <time>2013-08-10T06:04:28.000Z</time>
      </trkpt>
      <trkpt lat="42.7112" lon="1.40543">
        <ele>1420.1999511719</ele>
        <time>2013-08-10T06:04:30.000Z</time>
      </trkpt>
      <trkpt lat="42.7112" lon="1.40541">
        <ele>1419.5999755859</ele>
        <time>2013-08-10T06:04:32.000Z</time>
      </trkpt>
      <trkpt lat="42.71119" lon="1.40531">
        <ele>1417.8000488281</ele>
        <time>2013-08-10T06:04:37.000Z</time>
      </trkpt>
      <trkpt lat="42.7112" lon="1.40521">
        <ele>1417.8000488281</ele>
        <time>2013-08-10T06:04:43.000Z</time>
      </trkpt>
      <trkpt lat="42.71118" lon="1.4051">
        <ele>1415.5999755859</ele>
        <time>2013-08-10T06:04:48.000Z</time>
      </trkpt>
      <trkpt lat="42.71122" lon="1.40503">
        <ele>1417.1999511719</ele>
        <time>2013-08-10T06:04:52.000Z</time>
      </trkpt>
      <trkpt lat="42.71123" lon="1.40496">
        <ele>1416.4000244141</ele>
        <time>2013-08-10T06:04:56.000Z</time>
      </trkpt>
      <trkpt lat="42.71125" lon="1.40484">
        <ele>1413.5999755859</ele>
        <time>2013-08-10T06:05:02.000Z</time>
      </trkpt>
      <trkpt lat="42.71125" lon="1.40475">
        <ele>1410.1999511719</ele>
        <time>2013-08-10T06:05:07.000Z</time>
      </trkpt>
      <trkpt lat="42.71129" lon="1.40466">
        <ele>1409.8000488281</ele>
        <time>2013-08-10T06:05:12.000Z</time>
      </trkpt>
      <trkpt lat="42.71131" lon="1.40464">
        <ele>1410.4000244141</ele>
        <time>2013-08-10T06:05:14.000Z</time>
      </trkpt>
      <trkpt lat="42.71133" lon="1.40457">
        <ele>1409.4000244141</ele>
        <time>2013-08-10T06:05:18.000Z</time>
      </trkpt>
      <trkpt lat="42.71133" lon="1.40452">
        <ele>1407.4000244141</ele>
        <time>2013-08-10T06:05:21.000Z</time>
      </trkpt>
      <trkpt lat="42.71135" lon="1.40448">
        <ele>1407.1999511719</ele>
        <time>2013-08-10T06:05:23.000Z</time>
      </trkpt>
      <trkpt lat="42.71136" lon="1.40441">
        <ele>1405.4000244141</ele>
        <time>2013-08-10T06:05:28.000Z</time>
      </trkpt>
      <trkpt lat="42.71136" lon="1.40437">
        <ele>1404</ele>
        <time>2013-08-10T06:05:30.000Z</time>
      </trkpt>
      <trkpt lat="42.71137" lon="1.40435">
        <ele>1403.8000488281</ele>
        <time>2013-08-10T06:05:31.000Z</time>
      </trkpt>
      <trkpt lat="42.71137" lon="1.40433">
        <ele>1403.4000244141</ele>
        <time>2013-08-10T06:05:32.000Z</time>
      </trkpt>
      <trkpt lat="42.71138" lon="1.40431">
        <ele>1403</ele>
        <time>2013-08-10T06:05:34.000Z</time>
      </trkpt>
      <trkpt lat="42.71138" lon="1.40427">
        <ele>1401.4000244141</ele>
        <time>2013-08-10T06:05:37.000Z</time>
      </trkpt>
      <trkpt lat="42.71138" lon="1.40426">
        <ele>1401</ele>
        <time>2013-08-10T06:05:38.000Z</time>
      </trkpt>
      <trkpt lat="42.7114" lon="1.40419">
        <ele>1400.1999511719</ele>
        <time>2013-08-10T06:05:42.000Z</time>
      </trkpt>
      <trkpt lat="42.71141" lon="1.40417">
        <ele>1400</ele>
        <time>2013-08-10T06:05:44.000Z</time>
      </trkpt>
      <trkpt lat="42.71146" lon="1.40413">
        <ele>1401.8000488281</ele>
        <time>2013-08-10T06:05:48.000Z</time>
      </trkpt>
      <trkpt lat="42.71147" lon="1.40412">
        <ele>1401.8000488281</ele>
        <time>2013-08-10T06:05:49.000Z</time>
      </trkpt>
      <trkpt lat="42.71146" lon="1.4041">
        <ele>1401</ele>
        <time>2013-08-10T06:05:51.000Z</time>
      </trkpt>
      <trkpt lat="42.71152" lon="1.40404">
        <ele>1402.4000244141</ele>
        <time>2013-08-10T06:05:55.000Z</time>
      </trkpt>
      <trkpt lat="42.71159" lon="1.40403">
        <ele>1405.8000488281</ele>
        <time>2013-08-10T06:06:00.000Z</time>
      </trkpt>
      <trkpt lat="42.71162" lon="1.404">
        <ele>1406.8000488281</ele>
        <time>2013-08-10T06:06:04.000Z</time>
      </trkpt>
      <trkpt lat="42.7116" lon="1.40399">
        <ele>1405.5999755859</ele>
        <time>2013-08-10T06:06:07.000Z</time>
      </trkpt>
      <trkpt lat="42.71159" lon="1.40398">
        <ele>1404.5999755859</ele>
        <time>2013-08-10T06:06:09.000Z</time>
      </trkpt>
      <trkpt lat="42.71156" lon="1.40398">
        <ele>1403</ele>
        <time>2013-08-10T06:06:11.000Z</time>
      </trkpt>
      <trkpt lat="42.71154" lon="1.40396">
        <ele>1402</ele>
        <time>2013-08-10T06:06:13.000Z</time>
      </trkpt>
      <trkpt lat="42.71154" lon="1.40394">
        <ele>1401.4000244141</ele>
        <time>2013-08-10T06:06:14.000Z</time>
      </trkpt>
      <trkpt lat="42.71156" lon="1.40389">
        <ele>1400.8000488281</ele>
        <time>2013-08-10T06:06:17.000Z</time>
      </trkpt>
      <trkpt lat="42.7116" lon="1.40379">
        <ele>1399.8000488281</ele>
        <time>2013-08-10T06:06:24.000Z</time>
      </trkpt>
      <trkpt lat="42.71161" lon="1.40378">
        <ele>1399.8000488281</ele>
        <time>2013-08-10T06:06:25.000Z</time>
      </trkpt>
      <trkpt lat="42.71165" lon="1.40372">
        <ele>1399.8000488281</ele>
        <time>2013-08-10T06:06:30.000Z</time>
      </trkpt>
      <trkpt lat="42.71169" lon="1.40367">
        <ele>1400.1999511719</ele>
        <time>2013-08-10T06:06:34.000Z</time>
      </trkpt>
      <trkpt lat="42.7117" lon="1.40366">
        <ele>1400.1999511719</ele>
        <time>2013-08-10T06:06:35.000Z</time>
      </trkpt>
      <trkpt lat="42.71172" lon="1.40361">
        <ele>1400</ele>
        <time>2013-08-10T06:06:38.000Z</time>
      </trkpt>
      <trkpt lat="42.71171" lon="1.40359">
        <ele>1398.8000488281</ele>
        <time>2013-08-10T06:06:39.000Z</time>
      </trkpt>
      <trkpt lat="42.71165" lon="1.4035">
        <ele>1393.1999511719</ele>
        <time>2013-08-10T06:06:42.000Z</time>
      </trkpt>
      <trkpt lat="42.71164" lon="1.40348">
        <ele>1392.4000244141</ele>
        <time>2013-08-10T06:06:43.000Z</time>
      </trkpt>
      <trkpt lat="42.71163" lon="1.40346">
        <ele>1391.5999755859</ele>
        <time>2013-08-10T06:06:44.000Z</time>
      </trkpt>
      <trkpt lat="42.71165" lon="1.40344">
        <ele>1391.5999755859</ele>
        <time>2013-08-10T06:06:46.000Z</time>
      </trkpt>
      <trkpt lat="42.71167" lon="1.40343">
        <ele>1391.8000488281</ele>
        <time>2013-08-10T06:06:49.000Z</time>
      </trkpt>
      <trkpt lat="42.71171" lon="1.40342">
        <ele>1393.4000244141</ele>
        <time>2013-08-10T06:06:51.000Z</time>
      </trkpt>
      <trkpt lat="42.71175" lon="1.40337">
        <ele>1393.4000244141</ele>
        <time>2013-08-10T06:06:55.000Z</time>
      </trkpt>
      <trkpt lat="42.71175" lon="1.40334">
        <ele>1392.5999755859</ele>
        <time>2013-08-10T06:06:57.000Z</time>
      </trkpt>
      <trkpt lat="42.71176" lon="1.40325">
        <ele>1394.1999511719</ele>
        <time>2013-08-10T06:07:02.000Z</time>
      </trkpt>
      <trkpt lat="42.71177" lon="1.40324">
        <ele>1394.5999755859</ele>
        <time>2013-08-10T06:07:03.000Z</time>
      </trkpt>
      <trkpt lat="42.71179" lon="1.40323">
        <ele>1395.5999755859</ele>
        <time>2013-08-10T06:07:04.000Z</time>
      </trkpt>
      <trkpt lat="42.71182" lon="1.4032">
        <ele>1397.4000244141</ele>
        <time>2013-08-10T06:07:07.000Z</time>
      </trkpt>
      <trkpt lat="42.71186" lon="1.40316">
        <ele>1399</ele>
        <time>2013-08-10T06:07:10.000Z</time>
      </trkpt>
      <trkpt lat="42.7119" lon="1.40314">
        <ele>1400.5999755859</ele>
        <time>2013-08-10T06:07:13.000Z</time>
      </trkpt>
      <trkpt lat="42.7119" lon="1.40312">
        <ele>1400.8000488281</ele>
        <time>2013-08-10T06:07:14.000Z</time>
      </trkpt>
      <trkpt lat="42.7119" lon="1.40306">
        <ele>1401.1999511719</ele>
        <time>2013-08-10T06:07:17.000Z</time>
      </trkpt>
      <trkpt lat="42.7119" lon="1.40298">
        <ele>1402</ele>
        <time>2013-08-10T06:07:22.000Z</time>
      </trkpt>
      <trkpt lat="42.71191" lon="1.40298">
        <ele>1402.4000244141</ele>
        <time>2013-08-10T06:07:23.000Z</time>
      </trkpt>
      <trkpt lat="42.71193" lon="1.40292">
        <ele>1403.4000244141</ele>
        <time>2013-08-10T06:07:29.000Z</time>
      </trkpt>
      <trkpt lat="42.71191" lon="1.40284">
        <ele>1403.8000488281</ele>
        <time>2013-08-10T06:07:34.000Z</time>
      </trkpt>
      <trkpt lat="42.7119" lon="1.40279">
        <ele>1404.1999511719</ele>
        <time>2013-08-10T06:07:37.000Z</time>
      </trkpt>
      <trkpt lat="42.7119" lon="1.40278">
        <ele>1404.4000244141</ele>
        <time>2013-08-10T06:07:38.000Z</time>
      </trkpt>
      <trkpt lat="42.7119" lon="1.40276">
        <ele>1404.4000244141</ele>
        <time>2013-08-10T06:07:39.000Z</time>
      </trkpt>
      <trkpt lat="42.7119" lon="1.40273">
        <ele>1404.8000488281</ele>
        <time>2013-08-10T06:07:42.000Z</time>
      </trkpt>
      <trkpt lat="42.71191" lon="1.40273">
        <ele>1405</ele>
        <time>2013-08-10T06:07:43.000Z</time>
      </trkpt>
      <trkpt lat="42.71186" lon="1.40267">
        <ele>1405.1999511719</ele>
        <time>2013-08-10T06:07:46.000Z</time>
      </trkpt>
      <trkpt lat="42.71185" lon="1.40265">
        <ele>1405.4000244141</ele>
        <time>2013-08-10T06:07:47.000Z</time>
      </trkpt>
      <trkpt lat="42.71185" lon="1.4026">
        <ele>1406</ele>
        <time>2013-08-10T06:07:50.000Z</time>
      </trkpt>
      <trkpt lat="42.71186" lon="1.4026">
        <ele>1406.1999511719</ele>
        <time>2013-08-10T06:07:51.000Z</time>
      </trkpt>
      <trkpt lat="42.71191" lon="1.40257">
        <ele>1406.5999755859</ele>
        <time>2013-08-10T06:07:55.000Z</time>
      </trkpt>
      <trkpt lat="42.71192" lon="1.40254">
        <ele>1407</ele>
        <time>2013-08-10T06:07:57.000Z</time>
      </trkpt>
      <trkpt lat="42.71189" lon="1.40246">
        <ele>1409</ele>
        <time>2013-08-10T06:08:01.000Z</time>
      </trkpt>
      <trkpt lat="42.71189" lon="1.40245">
        <ele>1409.4000244141</ele>
        <time>2013-08-10T06:08:02.000Z</time>
      </trkpt>
      <trkpt lat="42.71191" lon="1.40242">
        <ele>1410.4000244141</ele>
        <time>2013-08-10T06:08:04.000Z</time>
      </trkpt>
      <trkpt lat="42.71194" lon="1.40242">
        <ele>1410.8000488281</ele>
        <time>2013-08-10T06:08:05.000Z</time>
      </trkpt>
      <trkpt lat="42.71199" lon="1.40239">
        <ele>1411.5999755859</ele>
        <time>2013-08-10T06:08:08.000Z</time>
      </trkpt>
      <trkpt lat="42.712" lon="1.40238">
        <ele>1412</ele>
        <time>2013-08-10T06:08:09.000Z</time>
      </trkpt>
      <trkpt lat="42.71202" lon="1.40237">
        <ele>1412.1999511719</ele>
        <time>2013-08-10T06:08:10.000Z</time>
      </trkpt>
      <trkpt lat="42.71207" lon="1.40236">
        <ele>1412.5999755859</ele>
        <time>2013-08-10T06:08:13.000Z</time>
      </trkpt>
      <trkpt lat="42.71208" lon="1.40233">
        <ele>1413.5999755859</ele>
        <time>2013-08-10T06:08:15.000Z</time>
      </trkpt>
      <trkpt lat="42.71207" lon="1.4023">
        <ele>1415</ele>
        <time>2013-08-10T06:08:17.000Z</time>
      </trkpt>
      <trkpt lat="42.71207" lon="1.40228">
        <ele>1415.8000488281</ele>
        <time>2013-08-10T06:08:18.000Z</time>
      </trkpt>
      <trkpt lat="42.71206" lon="1.40225">
        <ele>1417.1999511719</ele>
        <time>2013-08-10T06:08:20.000Z</time>
      </trkpt>
      <trkpt lat="42.71206" lon="1.40224">
        <ele>1417.4000244141</ele>
        <time>2013-08-10T06:08:22.000Z</time>
      </trkpt>
      <trkpt lat="42.71212" lon="1.40228">
        <ele>1415.4000244141</ele>
        <time>2013-08-10T06:08:25.000Z</time>
      </trkpt>
      <trkpt lat="42.71216" lon="1.40232">
        <ele>1413.5999755859</ele>
        <time>2013-08-10T06:08:28.000Z</time>
      </trkpt>
      <trkpt lat="42.71223" lon="1.40237">
        <ele>1411.4000244141</ele>
        <time>2013-08-10T06:08:32.000Z</time>
      </trkpt>
      <trkpt lat="42.7123" lon="1.40243">
        <ele>1409</ele>
        <time>2013-08-10T06:08:35.000Z</time>
      </trkpt>
      <trkpt lat="42.71233" lon="1.40248">
        <ele>1407</ele>
        <time>2013-08-10T06:08:38.000Z</time>
      </trkpt>
      <trkpt lat="42.71227" lon="1.4025">
        <ele>1406.4000244141</ele>
        <time>2013-08-10T06:08:42.000Z</time>
      </trkpt>
      <trkpt lat="42.71226" lon="1.4025">
        <ele>1406.5999755859</ele>
        <time>2013-08-10T06:08:46.000Z</time>
      </trkpt>
      <trkpt lat="42.71227" lon="1.40253">
        <ele>1406.8000488281</ele>
        <time>2013-08-10T06:08:49.000Z</time>
      </trkpt>
      <trkpt lat="42.71238" lon="1.40262">
        <ele>1407.8000488281</ele>
        <time>2013-08-10T06:08:54.000Z</time>
      </trkpt>
      <trkpt lat="42.71238" lon="1.40263">
        <ele>1408</ele>
        <time>2013-08-10T06:08:55.000Z</time>
      </trkpt>
      <trkpt lat="42.71237" lon="1.40262">
        <ele>1407.8000488281</ele>
        <time>2013-08-10T06:08:57.000Z</time>
      </trkpt>
      <trkpt lat="42.71235" lon="1.40256">
        <ele>1407</ele>
        <time>2013-08-10T06:09:00.000Z</time>
      </trkpt>
      <trkpt lat="42.71236" lon="1.40253">
        <ele>1406.5999755859</ele>
        <time>2013-08-10T06:09:03.000Z</time>
      </trkpt>
      <trkpt lat="42.71241" lon="1.40251">
        <ele>1406.4000244141</ele>
        <time>2013-08-10T06:09:08.000Z</time>
      </trkpt>
      <trkpt lat="42.71241" lon="1.40247">
        <ele>1407</ele>
        <time>2013-08-10T06:09:14.000Z</time>
      </trkpt>
      <trkpt lat="42.71244" lon="1.40246">
        <ele>1407.4000244141</ele>
        <time>2013-08-10T06:09:17.000Z</time>
      </trkpt>
      <trkpt lat="42.71246" lon="1.40244">
        <ele>1407.8000488281</ele>
        <time>2013-08-10T06:09:19.000Z</time>
      </trkpt>
      <trkpt lat="42.71253" lon="1.40239">
        <ele>1410.1999511719</ele>
        <time>2013-08-10T06:09:26.000Z</time>
      </trkpt>
      <trkpt lat="42.71253" lon="1.40236">
        <ele>1411</ele>
        <time>2013-08-10T06:09:29.000Z</time>
      </trkpt>
      <trkpt lat="42.7125" lon="1.40234">
        <ele>1411.4000244141</ele>
        <time>2013-08-10T06:09:32.000Z</time>
      </trkpt>
      <trkpt lat="42.71249" lon="1.40234">
        <ele>1411.4000244141</ele>
        <time>2013-08-10T06:09:33.000Z</time>
      </trkpt>
      <trkpt lat="42.71249" lon="1.40233">
        <ele>1411.5999755859</ele>
        <time>2013-08-10T06:09:39.000Z</time>
      </trkpt>
      <trkpt lat="42.71252" lon="1.40235">
        <ele>1411.4000244141</ele>
        <time>2013-08-10T06:09:43.000Z</time>
      </trkpt>
      <trkpt lat="42.71251" lon="1.40232">
        <ele>1412</ele>
        <time>2013-08-10T06:09:49.000Z</time>
      </trkpt>
      <trkpt lat="42.7125" lon="1.40231">
        <ele>1412.4000244141</ele>
        <time>2013-08-10T06:09:51.000Z</time>
      </trkpt>
      <trkpt lat="42.71257" lon="1.40235">
        <ele>1412.1999511719</ele>
        <time>2013-08-10T06:10:00.000Z</time>
      </trkpt>
      <trkpt lat="42.71258" lon="1.40235">
        <ele>1412.1999511719</ele>
        <time>2013-08-10T06:10:01.000Z</time>
      </trkpt>
      <trkpt lat="42.71261" lon="1.40234">
        <ele>1412.8000488281</ele>
        <time>2013-08-10T06:10:07.000Z</time>
      </trkpt>
      <trkpt lat="42.71257" lon="1.40231">
        <ele>1413.1999511719</ele>
        <time>2013-08-10T06:10:15.000Z</time>
      </trkpt>
      <trkpt lat="42.71265" lon="1.40237">
        <ele>1412.8000488281</ele>
        <time>2013-08-10T06:10:19.000Z</time>
      </trkpt>
      <trkpt lat="42.71279" lon="1.40245">
        <ele>1413</ele>
        <time>2013-08-10T06:10:26.000Z</time>
      </trkpt>
      <trkpt lat="42.71284" lon="1.40245">
        <ele>1413.8000488281</ele>
        <time>2013-08-10T06:10:33.000Z</time>
      </trkpt>
      <trkpt lat="42.7129" lon="1.40247">
        <ele>1414.8000488281</ele>
        <time>2013-08-10T06:10:40.000Z</time>
      </trkpt>
      <trkpt lat="42.71288" lon="1.40243">
        <ele>1415.1999511719</ele>
        <time>2013-08-10T06:10:43.000Z</time>
      </trkpt>
      <trkpt lat="42.71278" lon="1.40235">
        <ele>1415.1999511719</ele>
        <time>2013-08-10T06:10:48.000Z</time>
      </trkpt>
      <trkpt lat="42.71275" lon="1.4023">
        <ele>1416</ele>
        <time>2013-08-10T06:10:52.000Z</time>
      </trkpt>
      <trkpt lat="42.71275" lon="1.40228">
        <ele>1416.5999755859</ele>
        <time>2013-08-10T06:10:54.000Z</time>
      </trkpt>
      <trkpt lat="42.71274" lon="1.40225">
        <ele>1417.1999511719</ele>
        <time>2013-08-10T06:10:56.000Z</time>
      </trkpt>
      <trkpt lat="42.71276" lon="1.40224">
        <ele>1417.8000488281</ele>
        <time>2013-08-10T06:10:58.000Z</time>
      </trkpt>
      <trkpt lat="42.71276" lon="1.40224">
        <ele>1417.8000488281</ele>
        <time>2013-08-10T06:10:59.000Z</time>
      </trkpt>
      <trkpt lat="42.71274" lon="1.40219">
        <ele>1418.8000488281</ele>
        <time>2013-08-10T06:11:01.000Z</time>
      </trkpt>
      <trkpt lat="42.71271" lon="1.40214">
        <ele>1419.8000488281</ele>
        <time>2013-08-10T06:11:05.000Z</time>
      </trkpt>
      <trkpt lat="42.71271" lon="1.40213">
        <ele>1420</ele>
        <time>2013-08-10T06:11:07.000Z</time>
      </trkpt>
      <trkpt lat="42.71269" lon="1.40207">
        <ele>1421.4000244141</ele>
        <time>2013-08-10T06:11:11.000Z</time>
      </trkpt>
      <trkpt lat="42.71269" lon="1.40207">
        <ele>1421.5999755859</ele>
        <time>2013-08-10T06:11:12.000Z</time>
      </trkpt>
      <trkpt lat="42.71274" lon="1.40205">
        <ele>1422.4000244141</ele>
        <time>2013-08-10T06:11:17.000Z</time>
      </trkpt>
      <trkpt lat="42.71278" lon="1.40203">
        <ele>1423</ele>
        <time>2013-08-10T06:11:22.000Z</time>
      </trkpt>
      <trkpt lat="42.71277" lon="1.40201">
        <ele>1423.5999755859</ele>
        <time>2013-08-10T06:11:24.000Z</time>
      </trkpt>
      <trkpt lat="42.71278" lon="1.40198">
        <ele>1424.4000244141</ele>
        <time>2013-08-10T06:11:27.000Z</time>
      </trkpt>
      <trkpt lat="42.71277" lon="1.40192">
        <ele>1425.5999755859</ele>
        <time>2013-08-10T06:11:31.000Z</time>
      </trkpt>
      <trkpt lat="42.71277" lon="1.40188">
        <ele>1426.8000488281</ele>
        <time>2013-08-10T06:11:38.000Z</time>
      </trkpt>
      <trkpt lat="42.71275" lon="1.40183">
        <ele>1427.8000488281</ele>
        <time>2013-08-10T06:11:42.000Z</time>
      </trkpt>
      <trkpt lat="42.71271" lon="1.40181">
        <ele>1428.4000244141</ele>
        <time>2013-08-10T06:11:46.000Z</time>
      </trkpt>
      <trkpt lat="42.71271" lon="1.40182">
        <ele>1428.4000244141</ele>
        <time>2013-08-10T06:11:47.000Z</time>
      </trkpt>
      <trkpt lat="42.71271" lon="1.40183">
        <ele>1428</ele>
        <time>2013-08-10T06:11:49.000Z</time>
      </trkpt>
      <trkpt lat="42.71272" lon="1.40183">
        <ele>1428</ele>
        <time>2013-08-10T06:11:52.000Z</time>
      </trkpt>
      <trkpt lat="42.71283" lon="1.4019">
        <ele>1426.1999511719</ele>
        <time>2013-08-10T06:11:56.000Z</time>
      </trkpt>
      <trkpt lat="42.71285" lon="1.40192">
        <ele>1425.8000488281</ele>
        <time>2013-08-10T06:11:58.000Z</time>
      </trkpt>
      <trkpt lat="42.71282" lon="1.40189">
        <ele>1426.4000244141</ele>
        <time>2013-08-10T06:12:09.000Z</time>
      </trkpt>
      <trkpt lat="42.71279" lon="1.40187">
        <ele>1427</ele>
        <time>2013-08-10T06:12:12.000Z</time>
      </trkpt>
      <trkpt lat="42.71277" lon="1.40185">
        <ele>1427.4000244141</ele>
        <time>2013-08-10T06:12:18.000Z</time>
      </trkpt>
      <trkpt lat="42.7127" lon="1.40182">
        <ele>1428.4000244141</ele>
        <time>2013-08-10T06:12:25.000Z</time>
      </trkpt>
      <trkpt lat="42.71269" lon="1.4018">
        <ele>1428.8000488281</ele>
        <time>2013-08-10T06:12:29.000Z</time>
      </trkpt>
      <trkpt lat="42.71282" lon="1.40188">
        <ele>1426.5999755859</ele>
        <time>2013-08-10T06:12:49.000Z</time>
      </trkpt>
      <trkpt lat="42.71284" lon="1.4019">
        <ele>1426.4000244141</ele>
        <time>2013-08-10T06:12:52.000Z</time>
      </trkpt>
      <trkpt lat="42.71286" lon="1.4019">
        <ele>1426.1999511719</ele>
        <time>2013-08-10T06:12:54.000Z</time>
      </trkpt>
      <trkpt lat="42.71288" lon="1.40189">
        <ele>1426.4000244141</ele>
        <time>2013-08-10T06:12:56.000Z</time>
      </trkpt>
      <trkpt lat="42.71291" lon="1.40188">
        <ele>1426.5999755859</ele>
        <time>2013-08-10T06:12:58.000Z</time>
      </trkpt>
      <trkpt lat="42.71292" lon="1.40187">
        <ele>1426.8000488281</ele>
        <time>2013-08-10T06:12:59.000Z</time>
      </trkpt>
      <trkpt lat="42.71297" lon="1.40186">
        <ele>1427</ele>
        <time>2013-08-10T06:13:02.000Z</time>
      </trkpt>
      <trkpt lat="42.71298" lon="1.40185">
        <ele>1427.1999511719</ele>
        <time>2013-08-10T06:13:04.000Z</time>
      </trkpt>
      <trkpt lat="42.71299" lon="1.40183">
        <ele>1427.5999755859</ele>
        <time>2013-08-10T06:13:07.000Z</time>
      </trkpt>
      <trkpt lat="42.71304" lon="1.40181">
        <ele>1427.5999755859</ele>
        <time>2013-08-10T06:13:12.000Z</time>
      </trkpt>
      <trkpt lat="42.71305" lon="1.40178">
        <ele>1428.1999511719</ele>
        <time>2013-08-10T06:13:16.000Z</time>
      </trkpt>
      <trkpt lat="42.71306" lon="1.40177">
        <ele>1428.4000244141</ele>
        <time>2013-08-10T06:13:17.000Z</time>
      </trkpt>
      <trkpt lat="42.71306" lon="1.40175">
        <ele>1428.5999755859</ele>
        <time>2013-08-10T06:13:19.000Z</time>
      </trkpt>
      <trkpt lat="42.71307" lon="1.40172">
        <ele>1429</ele>
        <time>2013-08-10T06:13:23.000Z</time>
      </trkpt>
      <trkpt lat="42.71312" lon="1.40169">
        <ele>1429.1999511719</ele>
        <time>2013-08-10T06:13:28.000Z</time>
      </trkpt>
      <trkpt lat="42.71314" lon="1.40167">
        <ele>1429.4000244141</ele>
        <time>2013-08-10T06:13:32.000Z</time>
      </trkpt>
      <trkpt lat="42.71321" lon="1.40166">
        <ele>1429</ele>
        <time>2013-08-10T06:13:37.000Z</time>
      </trkpt>
      <trkpt lat="42.71328" lon="1.40165">
        <ele>1429</ele>
        <time>2013-08-10T06:13:41.000Z</time>
      </trkpt>
      <trkpt lat="42.71328" lon="1.40165">
        <ele>1429.1999511719</ele>
        <time>2013-08-10T06:13:42.000Z</time>
      </trkpt>
      <trkpt lat="42.71332" lon="1.40162">
        <ele>1430.4000244141</ele>
        <time>2013-08-10T06:13:47.000Z</time>
      </trkpt>
      <trkpt lat="42.71336" lon="1.40161">
        <ele>1431</ele>
        <time>2013-08-10T06:13:52.000Z</time>
      </trkpt>
      <trkpt lat="42.71342" lon="1.40157">
        <ele>1433.1999511719</ele>
        <time>2013-08-10T06:14:00.000Z</time>
      </trkpt>
      <trkpt lat="42.71348" lon="1.40152">
        <ele>1435.4000244141</ele>
        <time>2013-08-10T06:14:07.000Z</time>
      </trkpt>
      <trkpt lat="42.7135" lon="1.4015">
        <ele>1436.4000244141</ele>
        <time>2013-08-10T06:14:09.000Z</time>
      </trkpt>
      <trkpt lat="42.71354" lon="1.40147">
        <ele>1437.8000488281</ele>
        <time>2013-08-10T06:14:13.000Z</time>
      </trkpt>
      <trkpt lat="42.71357" lon="1.40145">
        <ele>1438.5999755859</ele>
        <time>2013-08-10T06:14:17.000Z</time>
      </trkpt>
      <trkpt lat="42.71362" lon="1.40136">
        <ele>1442</ele>
        <time>2013-08-10T06:14:24.000Z</time>
      </trkpt>
      <trkpt lat="42.71363" lon="1.40133">
        <ele>1443.5999755859</ele>
        <time>2013-08-10T06:14:28.000Z</time>
      </trkpt>
      <trkpt lat="42.71363" lon="1.40132">
        <ele>1443.8000488281</ele>
        <time>2013-08-10T06:14:29.000Z</time>
      </trkpt>
      <trkpt lat="42.71363" lon="1.40131">
        <ele>1444.1999511719</ele>
        <time>2013-08-10T06:14:33.000Z</time>
      </trkpt>
      <trkpt lat="42.71365" lon="1.40127">
        <ele>1445.5999755859</ele>
        <time>2013-08-10T06:14:38.000Z</time>
      </trkpt>
      <trkpt lat="42.71364" lon="1.40121">
        <ele>1447.8000488281</ele>
        <time>2013-08-10T06:14:43.000Z</time>
      </trkpt>
      <trkpt lat="42.71362" lon="1.40117">
        <ele>1449.8000488281</ele>
        <time>2013-08-10T06:14:46.000Z</time>
      </trkpt>
      <trkpt lat="42.71362" lon="1.40115">
        <ele>1450.4000244141</ele>
        <time>2013-08-10T06:14:47.000Z</time>
      </trkpt>
      <trkpt lat="42.71361" lon="1.40112">
        <ele>1451.5999755859</ele>
        <time>2013-08-10T06:14:49.000Z</time>
      </trkpt>
      <trkpt lat="42.71359" lon="1.40105">
        <ele>1454.8000488281</ele>
        <time>2013-08-10T06:14:54.000Z</time>
      </trkpt>
      <trkpt lat="42.71358" lon="1.40102">
        <ele>1456.4000244141</ele>
        <time>2013-08-10T06:14:56.000Z</time>
      </trkpt>
      <trkpt lat="42.71357" lon="1.401">
        <ele>1457.1999511719</ele>
        <time>2013-08-10T06:14:57.000Z</time>
      </trkpt>
      <trkpt lat="42.71357" lon="1.40098">
        <ele>1457.8000488281</ele>
        <time>2013-08-10T06:14:59.000Z</time>
      </trkpt>
      <trkpt lat="42.71357" lon="1.40094">
        <ele>1459.5999755859</ele>
        <time>2013-08-10T06:15:03.000Z</time>
      </trkpt>
      <trkpt lat="42.71357" lon="1.40093">
        <ele>1460</ele>
        <time>2013-08-10T06:15:04.000Z</time>
      </trkpt>
      <trkpt lat="42.7136" lon="1.4009">
        <ele>1460.1999511719</ele>
        <time>2013-08-10T06:15:08.000Z</time>
      </trkpt>
      <trkpt lat="42.71363" lon="1.40091">
        <ele>1459.4000244141</ele>
        <time>2013-08-10T06:15:09.000Z</time>
      </trkpt>
      <trkpt lat="42.7137" lon="1.40091">
        <ele>1458</ele>
        <time>2013-08-10T06:15:12.000Z</time>
      </trkpt>
      <trkpt lat="42.71373" lon="1.40091">
        <ele>1457.4000244141</ele>
        <time>2013-08-10T06:15:14.000Z</time>
      </trkpt>
      <trkpt lat="42.71379" lon="1.40088">
        <ele>1456.8000488281</ele>
        <time>2013-08-10T06:15:18.000Z</time>
      </trkpt>
      <trkpt lat="42.71388" lon="1.40086">
        <ele>1455.4000244141</ele>
        <time>2013-08-10T06:15:24.000Z</time>
      </trkpt>
      <trkpt lat="42.71397" lon="1.40085">
        <ele>1453.5999755859</ele>
        <time>2013-08-10T06:15:29.000Z</time>
      </trkpt>
      <trkpt lat="42.714" lon="1.40085">
        <ele>1452.8000488281</ele>
        <time>2013-08-10T06:15:30.000Z</time>
      </trkpt>
      <trkpt lat="42.71404" lon="1.40084">
        <ele>1451.8000488281</ele>
        <time>2013-08-10T06:15:33.000Z</time>
      </trkpt>
      <trkpt lat="42.7141" lon="1.40084">
        <ele>1450.4000244141</ele>
        <time>2013-08-10T06:15:37.000Z</time>
      </trkpt>
      <trkpt lat="42.71412" lon="1.40084">
        <ele>1450</ele>
        <time>2013-08-10T06:15:39.000Z</time>
      </trkpt>
      <trkpt lat="42.71413" lon="1.40083">
        <ele>1450</ele>
        <time>2013-08-10T06:15:41.000Z</time>
      </trkpt>
      <trkpt lat="42.71413" lon="1.40082">
        <ele>1450.4000244141</ele>
        <time>2013-08-10T06:15:42.000Z</time>
      </trkpt>
      <trkpt lat="42.71416" lon="1.4008">
        <ele>1450.5999755859</ele>
        <time>2013-08-10T06:15:44.000Z</time>
      </trkpt>
      <trkpt lat="42.71418" lon="1.40079">
        <ele>1451</ele>
        <time>2013-08-10T06:15:47.000Z</time>
      </trkpt>
      <trkpt lat="42.71421" lon="1.40078">
        <ele>1451.4000244141</ele>
        <time>2013-08-10T06:15:50.000Z</time>
      </trkpt>
      <trkpt lat="42.71423" lon="1.40077">
        <ele>1452</ele>
        <time>2013-08-10T06:15:52.000Z</time>
      </trkpt>
      <trkpt lat="42.71425" lon="1.40075">
        <ele>1453.4000244141</ele>
        <time>2013-08-10T06:15:56.000Z</time>
      </trkpt>
      <trkpt lat="42.71426" lon="1.40073">
        <ele>1453.8000488281</ele>
        <time>2013-08-10T06:15:57.000Z</time>
      </trkpt>
      <trkpt lat="42.71427" lon="1.40072">
        <ele>1454.4000244141</ele>
        <time>2013-08-10T06:15:59.000Z</time>
      </trkpt>
      <trkpt lat="42.71429" lon="1.40071">
        <ele>1455</ele>
        <time>2013-08-10T06:16:01.000Z</time>
      </trkpt>
      <trkpt lat="42.71433" lon="1.40068">
        <ele>1456.1999511719</ele>
        <time>2013-08-10T06:16:06.000Z</time>
      </trkpt>
      <trkpt lat="42.71437" lon="1.40067">
        <ele>1457</ele>
        <time>2013-08-10T06:16:12.000Z</time>
      </trkpt>
      <trkpt lat="42.71446" lon="1.40066">
        <ele>1457.4000244141</ele>
        <time>2013-08-10T06:16:33.000Z</time>
      </trkpt>
      <trkpt lat="42.71449" lon="1.40064">
        <ele>1458</ele>
        <time>2013-08-10T06:16:38.000Z</time>
      </trkpt>
      <trkpt lat="42.7145" lon="1.40063">
        <ele>1458.4000244141</ele>
        <time>2013-08-10T06:16:39.000Z</time>
      </trkpt>
      <trkpt lat="42.71451" lon="1.4006">
        <ele>1459.4000244141</ele>
        <time>2013-08-10T06:16:42.000Z</time>
      </trkpt>
      <trkpt lat="42.71452" lon="1.40059">
        <ele>1459.5999755859</ele>
        <time>2013-08-10T06:16:43.000Z</time>
      </trkpt>
      <trkpt lat="42.71453" lon="1.40058">
        <ele>1460</ele>
        <time>2013-08-10T06:16:44.000Z</time>
      </trkpt>
      <trkpt lat="42.71454" lon="1.40058">
        <ele>1460.1999511719</ele>
        <time>2013-08-10T06:16:47.000Z</time>
      </trkpt>
      <trkpt lat="42.7146" lon="1.40057">
        <ele>1460.1999511719</ele>
        <time>2013-08-10T06:16:53.000Z</time>
      </trkpt>
      <trkpt lat="42.71464" lon="1.40053">
        <ele>1461.1999511719</ele>
        <time>2013-08-10T06:16:58.000Z</time>
      </trkpt>
      <trkpt lat="42.71465" lon="1.40048">
        <ele>1462.5999755859</ele>
        <time>2013-08-10T06:17:03.000Z</time>
      </trkpt>
      <trkpt lat="42.71466" lon="1.40048">
        <ele>1462.8000488281</ele>
        <time>2013-08-10T06:17:04.000Z</time>
      </trkpt>
      <trkpt lat="42.71467" lon="1.40045">
        <ele>1463.4000244141</ele>
        <time>2013-08-10T06:17:07.000Z</time>
      </trkpt>
      <trkpt lat="42.71467" lon="1.40044">
        <ele>1463.5999755859</ele>
        <time>2013-08-10T06:17:08.000Z</time>
      </trkpt>
      <trkpt lat="42.7147" lon="1.40041">
        <ele>1464.1999511719</ele>
        <time>2013-08-10T06:17:12.000Z</time>
      </trkpt>
      <trkpt lat="42.71471" lon="1.40041">
        <ele>1464.1999511719</ele>
        <time>2013-08-10T06:17:13.000Z</time>
      </trkpt>
      <trkpt lat="42.71471" lon="1.40039">
        <ele>1464.5999755859</ele>
        <time>2013-08-10T06:17:14.000Z</time>
      </trkpt>
      <trkpt lat="42.71472" lon="1.40035">
        <ele>1465.5999755859</ele>
        <time>2013-08-10T06:17:18.000Z</time>
      </trkpt>
      <trkpt lat="42.71476" lon="1.40026">
        <ele>1467.1999511719</ele>
        <time>2013-08-10T06:17:25.000Z</time>
      </trkpt>
      <trkpt lat="42.71481" lon="1.40021">
        <ele>1467.8000488281</ele>
        <time>2013-08-10T06:17:32.000Z</time>
      </trkpt>
      <trkpt lat="42.71479" lon="1.4002">
        <ele>1468.1999511719</ele>
        <time>2013-08-10T06:17:34.000Z</time>
      </trkpt>
      <trkpt lat="42.71484" lon="1.40018">
        <ele>1467.8000488281</ele>
        <time>2013-08-10T06:17:37.000Z</time>
      </trkpt>
      <trkpt lat="42.71485" lon="1.40018">
        <ele>1467.5999755859</ele>
        <time>2013-08-10T06:17:38.000Z</time>
      </trkpt>
      <trkpt lat="42.71494" lon="1.40016">
        <ele>1466.5999755859</ele>
        <time>2013-08-10T06:17:44.000Z</time>
      </trkpt>
      <trkpt lat="42.71501" lon="1.40016">
        <ele>1465.8000488281</ele>
        <time>2013-08-10T06:17:49.000Z</time>
      </trkpt>
      <trkpt lat="42.71503" lon="1.40015">
        <ele>1466.5999755859</ele>
        <time>2013-08-10T06:17:52.000Z</time>
      </trkpt>
      <trkpt lat="42.71506" lon="1.40012">
        <ele>1467.8000488281</ele>
        <time>2013-08-10T06:17:57.000Z</time>
      </trkpt>
      <trkpt lat="42.71505" lon="1.4001">
        <ele>1467.8000488281</ele>
        <time>2013-08-10T06:17:58.000Z</time>
      </trkpt>
      <trkpt lat="42.71506" lon="1.4001">
        <ele>1468</ele>
        <time>2013-08-10T06:17:59.000Z</time>
      </trkpt>
      <trkpt lat="42.71509" lon="1.40008">
        <ele>1469</ele>
        <time>2013-08-10T06:18:02.000Z</time>
      </trkpt>
      <trkpt lat="42.71511" lon="1.40008">
        <ele>1469.4000244141</ele>
        <time>2013-08-10T06:18:03.000Z</time>
      </trkpt>
      <trkpt lat="42.71511" lon="1.40007">
        <ele>1469.5999755859</ele>
        <time>2013-08-10T06:18:04.000Z</time>
      </trkpt>
      <trkpt lat="42.7151" lon="1.40006">
        <ele>1469.8000488281</ele>
        <time>2013-08-10T06:18:07.000Z</time>
      </trkpt>
      <trkpt lat="42.7151" lon="1.40005">
        <ele>1469.5999755859</ele>
        <time>2013-08-10T06:18:08.000Z</time>
      </trkpt>
      <trkpt lat="42.7151" lon="1.40004">
        <ele>1469.8000488281</ele>
        <time>2013-08-10T06:18:09.000Z</time>
      </trkpt>
      <trkpt lat="42.71511" lon="1.40003">
        <ele>1470</ele>
        <time>2013-08-10T06:18:10.000Z</time>
      </trkpt>
      <trkpt lat="42.71513" lon="1.39998">
        <ele>1472.1999511719</ele>
        <time>2013-08-10T06:18:14.000Z</time>
      </trkpt>
      <trkpt lat="42.71514" lon="1.39995">
        <ele>1473.8000488281</ele>
        <time>2013-08-10T06:18:16.000Z</time>
      </trkpt>
      <trkpt lat="42.71516" lon="1.39991">
        <ele>1475.8000488281</ele>
        <time>2013-08-10T06:18:19.000Z</time>
      </trkpt>
      <trkpt lat="42.71517" lon="1.39989">
        <ele>1477</ele>
        <time>2013-08-10T06:18:21.000Z</time>
      </trkpt>
      <trkpt lat="42.71518" lon="1.39985">
        <ele>1479</ele>
        <time>2013-08-10T06:18:24.000Z</time>
      </trkpt>
      <trkpt lat="42.7152" lon="1.39981">
        <ele>1481.4000244141</ele>
        <time>2013-08-10T06:18:28.000Z</time>
      </trkpt>
      <trkpt lat="42.71523" lon="1.39973">
        <ele>1485.5999755859</ele>
        <time>2013-08-10T06:18:35.000Z</time>
      </trkpt>
      <trkpt lat="42.71525" lon="1.39967">
        <ele>1488.8000488281</ele>
        <time>2013-08-10T06:18:40.000Z</time>
      </trkpt>
      <trkpt lat="42.71525" lon="1.39966">
        <ele>1489</ele>
        <time>2013-08-10T06:18:41.000Z</time>
      </trkpt>
      <trkpt lat="42.71525" lon="1.39964">
        <ele>1489.8000488281</ele>
        <time>2013-08-10T06:18:44.000Z</time>
      </trkpt>
      <trkpt lat="42.71529" lon="1.39958">
        <ele>1493.4000244141</ele>
        <time>2013-08-10T06:18:49.000Z</time>
      </trkpt>
      <trkpt lat="42.71531" lon="1.39953">
        <ele>1495.8000488281</ele>
        <time>2013-08-10T06:18:53.000Z</time>
      </trkpt>
      <trkpt lat="42.71532" lon="1.39952">
        <ele>1496.5999755859</ele>
        <time>2013-08-10T06:18:54.000Z</time>
      </trkpt>
      <trkpt lat="42.71535" lon="1.39941">
        <ele>1502.1999511719</ele>
        <time>2013-08-10T06:19:02.000Z</time>
      </trkpt>
      <trkpt lat="42.71536" lon="1.39938">
        <ele>1503.5999755859</ele>
        <time>2013-08-10T06:19:04.000Z</time>
      </trkpt>
      <trkpt lat="42.7154" lon="1.39934">
        <ele>1506</ele>
        <time>2013-08-10T06:19:08.000Z</time>
      </trkpt>
      <trkpt lat="42.71542" lon="1.39932">
        <ele>1507</ele>
        <time>2013-08-10T06:19:12.000Z</time>
      </trkpt>
      <trkpt lat="42.71542" lon="1.39931">
        <ele>1507.5999755859</ele>
        <time>2013-08-10T06:19:13.000Z</time>
      </trkpt>
      <trkpt lat="42.71543" lon="1.39929">
        <ele>1508.5999755859</ele>
        <time>2013-08-10T06:19:16.000Z</time>
      </trkpt>
      <trkpt lat="42.71544" lon="1.39928">
        <ele>1509</ele>
        <time>2013-08-10T06:19:17.000Z</time>
      </trkpt>
      <trkpt lat="42.71547" lon="1.39928">
        <ele>1509.4000244141</ele>
        <time>2013-08-10T06:19:20.000Z</time>
      </trkpt>
      <trkpt lat="42.71548" lon="1.39928">
        <ele>1509.5999755859</ele>
        <time>2013-08-10T06:19:22.000Z</time>
      </trkpt>
      <trkpt lat="42.71549" lon="1.39928">
        <ele>1509.8000488281</ele>
        <time>2013-08-10T06:19:24.000Z</time>
      </trkpt>
      <trkpt lat="42.7155" lon="1.39928">
        <ele>1510</ele>
        <time>2013-08-10T06:19:25.000Z</time>
      </trkpt>
      <trkpt lat="42.71552" lon="1.39926">
        <ele>1511.4000244141</ele>
        <time>2013-08-10T06:19:28.000Z</time>
      </trkpt>
      <trkpt lat="42.71553" lon="1.39924">
        <ele>1512.1999511719</ele>
        <time>2013-08-10T06:19:29.000Z</time>
      </trkpt>
      <trkpt lat="42.71553" lon="1.3992">
        <ele>1513.8000488281</ele>
        <time>2013-08-10T06:19:32.000Z</time>
      </trkpt>
      <trkpt lat="42.71554" lon="1.39918">
        <ele>1514.5999755859</ele>
        <time>2013-08-10T06:19:34.000Z</time>
      </trkpt>
      <trkpt lat="42.71553" lon="1.39914">
        <ele>1516.1999511719</ele>
        <time>2013-08-10T06:19:38.000Z</time>
      </trkpt>
      <trkpt lat="42.7155" lon="1.39907">
        <ele>1518.8000488281</ele>
        <time>2013-08-10T06:19:44.000Z</time>
      </trkpt>
      <trkpt lat="42.71551" lon="1.39906">
        <ele>1519.1999511719</ele>
        <time>2013-08-10T06:19:45.000Z</time>
      </trkpt>
      <trkpt lat="42.71553" lon="1.39904">
        <ele>1520.1999511719</ele>
        <time>2013-08-10T06:19:48.000Z</time>
      </trkpt>
      <trkpt lat="42.71553" lon="1.39901">
        <ele>1521.5999755859</ele>
        <time>2013-08-10T06:19:52.000Z</time>
      </trkpt>
      <trkpt lat="42.71553" lon="1.399">
        <ele>1521.8000488281</ele>
        <time>2013-08-10T06:19:53.000Z</time>
      </trkpt>
      <trkpt lat="42.71552" lon="1.39896">
        <ele>1523.4000244141</ele>
        <time>2013-08-10T06:19:58.000Z</time>
      </trkpt>
      <trkpt lat="42.7155" lon="1.39893">
        <ele>1524.5999755859</ele>
        <time>2013-08-10T06:20:03.000Z</time>
      </trkpt>
      <trkpt lat="42.71552" lon="1.39889">
        <ele>1526.4000244141</ele>
        <time>2013-08-10T06:20:08.000Z</time>
      </trkpt>
      <trkpt lat="42.71555" lon="1.39887">
        <ele>1527.5999755859</ele>
        <time>2013-08-10T06:20:13.000Z</time>
      </trkpt>
      <trkpt lat="42.71558" lon="1.39885">
        <ele>1528.5999755859</ele>
        <time>2013-08-10T06:20:17.000Z</time>
      </trkpt>
      <trkpt lat="42.71557" lon="1.3988">
        <ele>1530.1999511719</ele>
        <time>2013-08-10T06:20:22.000Z</time>
      </trkpt>
      <trkpt lat="42.71557" lon="1.39878">
        <ele>1531</ele>
        <time>2013-08-10T06:20:26.000Z</time>
      </trkpt>
      <trkpt lat="42.71559" lon="1.39875">
        <ele>1532.4000244141</ele>
        <time>2013-08-10T06:20:34.000Z</time>
      </trkpt>
      <trkpt lat="42.7156" lon="1.39871">
        <ele>1534.1999511719</ele>
        <time>2013-08-10T06:20:40.000Z</time>
      </trkpt>
      <trkpt lat="42.7156" lon="1.39866">
        <ele>1536</ele>
        <time>2013-08-10T06:20:45.000Z</time>
      </trkpt>
      <trkpt lat="42.7156" lon="1.39862">
        <ele>1537.4000244141</ele>
        <time>2013-08-10T06:20:49.000Z</time>
      </trkpt>
      <trkpt lat="42.71563" lon="1.39861">
        <ele>1538</ele>
        <time>2013-08-10T06:20:54.000Z</time>
      </trkpt>
      <trkpt lat="42.71562" lon="1.3986">
        <ele>1538.4000244141</ele>
        <time>2013-08-10T06:20:57.000Z</time>
      </trkpt>
      <trkpt lat="42.71561" lon="1.39859">
        <ele>1538.5999755859</ele>
        <time>2013-08-10T06:20:58.000Z</time>
      </trkpt>
      <trkpt lat="42.71558" lon="1.39856">
        <ele>1539.8000488281</ele>
        <time>2013-08-10T06:21:02.000Z</time>
      </trkpt>
      <trkpt lat="42.71557" lon="1.39853">
        <ele>1541</ele>
        <time>2013-08-10T06:21:06.000Z</time>
      </trkpt>
      <trkpt lat="42.71555" lon="1.39851">
        <ele>1541.5999755859</ele>
        <time>2013-08-10T06:21:08.000Z</time>
      </trkpt>
      <trkpt lat="42.71552" lon="1.3985">
        <ele>1542.4000244141</ele>
        <time>2013-08-10T06:21:11.000Z</time>
      </trkpt>
      <trkpt lat="42.71551" lon="1.39849">
        <ele>1542.5999755859</ele>
        <time>2013-08-10T06:21:12.000Z</time>
      </trkpt>
      <trkpt lat="42.71548" lon="1.39848">
        <ele>1543.1999511719</ele>
        <time>2013-08-10T06:21:16.000Z</time>
      </trkpt>
      <trkpt lat="42.71547" lon="1.39848">
        <ele>1543</ele>
        <time>2013-08-10T06:21:17.000Z</time>
      </trkpt>
      <trkpt lat="42.71544" lon="1.39847">
        <ele>1543.5999755859</ele>
        <time>2013-08-10T06:21:21.000Z</time>
      </trkpt>
      <trkpt lat="42.71541" lon="1.39844">
        <ele>1544.8000488281</ele>
        <time>2013-08-10T06:21:24.000Z</time>
      </trkpt>
      <trkpt lat="42.71538" lon="1.39843">
        <ele>1545.4000244141</ele>
        <time>2013-08-10T06:21:27.000Z</time>
      </trkpt>
      <trkpt lat="42.71537" lon="1.39842">
        <ele>1545.8000488281</ele>
        <time>2013-08-10T06:21:28.000Z</time>
      </trkpt>
      <trkpt lat="42.71536" lon="1.39841">
        <ele>1546</ele>
        <time>2013-08-10T06:21:30.000Z</time>
      </trkpt>
      <trkpt lat="42.71535" lon="1.39841">
        <ele>1546.4000244141</ele>
        <time>2013-08-10T06:21:31.000Z</time>
      </trkpt>
      <trkpt lat="42.71535" lon="1.39837">
        <ele>1547.8000488281</ele>
        <time>2013-08-10T06:21:34.000Z</time>
      </trkpt>
      <trkpt lat="42.71537" lon="1.39836">
        <ele>1548.5999755859</ele>
        <time>2013-08-10T06:21:36.000Z</time>
      </trkpt>
      <trkpt lat="42.71539" lon="1.39834">
        <ele>1549.1999511719</ele>
        <time>2013-08-10T06:21:39.000Z</time>
      </trkpt>
      <trkpt lat="42.7154" lon="1.39833">
        <ele>1549.5999755859</ele>
        <time>2013-08-10T06:21:41.000Z</time>
      </trkpt>
      <trkpt lat="42.71545" lon="1.3983">
        <ele>1550.4000244141</ele>
        <time>2013-08-10T06:21:45.000Z</time>
      </trkpt>
      <trkpt lat="42.71547" lon="1.39829">
        <ele>1550.8000488281</ele>
        <time>2013-08-10T06:21:46.000Z</time>
      </trkpt>
      <trkpt lat="42.7155" lon="1.39828">
        <ele>1551.1999511719</ele>
        <time>2013-08-10T06:21:50.000Z</time>
      </trkpt>
      <trkpt lat="42.71555" lon="1.39826">
        <ele>1551.5999755859</ele>
        <time>2013-08-10T06:21:57.000Z</time>
      </trkpt>
      <trkpt lat="42.71559" lon="1.39825">
        <ele>1552</ele>
        <time>2013-08-10T06:22:00.000Z</time>
      </trkpt>
      <trkpt lat="42.71562" lon="1.39821">
        <ele>1553.1999511719</ele>
        <time>2013-08-10T06:22:05.000Z</time>
      </trkpt>
      <trkpt lat="42.71565" lon="1.3982">
        <ele>1553.4000244141</ele>
        <time>2013-08-10T06:22:08.000Z</time>
      </trkpt>
      <trkpt lat="42.71569" lon="1.3982">
        <ele>1553.1999511719</ele>
        <time>2013-08-10T06:22:12.000Z</time>
      </trkpt>
      <trkpt lat="42.71572" lon="1.39822">
        <ele>1552.4000244141</ele>
        <time>2013-08-10T06:22:18.000Z</time>
      </trkpt>
      <trkpt lat="42.71573" lon="1.39822">
        <ele>1552.4000244141</ele>
        <time>2013-08-10T06:22:19.000Z</time>
      </trkpt>
      <trkpt lat="42.71574" lon="1.39821">
        <ele>1552.5999755859</ele>
        <time>2013-08-10T06:22:21.000Z</time>
      </trkpt>
      <trkpt lat="42.71574" lon="1.39819">
        <ele>1553.4000244141</ele>
        <time>2013-08-10T06:22:26.000Z</time>
      </trkpt>
      <trkpt lat="42.71573" lon="1.39816">
        <ele>1554.4000244141</ele>
        <time>2013-08-10T06:22:29.000Z</time>
      </trkpt>
      <trkpt lat="42.71571" lon="1.39815">
        <ele>1555.1999511719</ele>
        <time>2013-08-10T06:22:31.000Z</time>
      </trkpt>
      <trkpt lat="42.7157" lon="1.39812">
        <ele>1556</ele>
        <time>2013-08-10T06:22:33.000Z</time>
      </trkpt>
      <trkpt lat="42.71568" lon="1.3981">
        <ele>1556.8000488281</ele>
        <time>2013-08-10T06:22:35.000Z</time>
      </trkpt>
      <trkpt lat="42.71564" lon="1.39808">
        <ele>1558</ele>
        <time>2013-08-10T06:22:39.000Z</time>
      </trkpt>
      <trkpt lat="42.71563" lon="1.39806">
        <ele>1558.5999755859</ele>
        <time>2013-08-10T06:22:41.000Z</time>
      </trkpt>
      <trkpt lat="42.71561" lon="1.39805">
        <ele>1559</ele>
        <time>2013-08-10T06:22:44.000Z</time>
      </trkpt>
      <trkpt lat="42.7156" lon="1.39805">
        <ele>1559</ele>
        <time>2013-08-10T06:22:45.000Z</time>
      </trkpt>
      <trkpt lat="42.71558" lon="1.39805">
        <ele>1559.4000244141</ele>
        <time>2013-08-10T06:22:48.000Z</time>
      </trkpt>
      <trkpt lat="42.71556" lon="1.39804">
        <ele>1559.5999755859</ele>
        <time>2013-08-10T06:22:49.000Z</time>
      </trkpt>
      <trkpt lat="42.71552" lon="1.39804">
        <ele>1560</ele>
        <time>2013-08-10T06:22:54.000Z</time>
      </trkpt>
      <trkpt lat="42.7155" lon="1.39801">
        <ele>1561</ele>
        <time>2013-08-10T06:22:58.000Z</time>
      </trkpt>
      <trkpt lat="42.7155" lon="1.398">
        <ele>1561.4000244141</ele>
        <time>2013-08-10T06:22:59.000Z</time>
      </trkpt>
      <trkpt lat="42.71551" lon="1.39799">
        <ele>1561.5999755859</ele>
        <time>2013-08-10T06:23:00.000Z</time>
      </trkpt>
      <trkpt lat="42.71552" lon="1.39798">
        <ele>1562.1999511719</ele>
        <time>2013-08-10T06:23:03.000Z</time>
      </trkpt>
      <trkpt lat="42.71556" lon="1.39796">
        <ele>1562.8000488281</ele>
        <time>2013-08-10T06:23:07.000Z</time>
      </trkpt>
      <trkpt lat="42.71557" lon="1.39795">
        <ele>1563</ele>
        <time>2013-08-10T06:23:09.000Z</time>
      </trkpt>
      <trkpt lat="42.71559" lon="1.39794">
        <ele>1563.4000244141</ele>
        <time>2013-08-10T06:23:11.000Z</time>
      </trkpt>
      <trkpt lat="42.71565" lon="1.39791">
        <ele>1563.8000488281</ele>
        <time>2013-08-10T06:23:17.000Z</time>
      </trkpt>
      <trkpt lat="42.71567" lon="1.3979">
        <ele>1564.4000244141</ele>
        <time>2013-08-10T06:23:21.000Z</time>
      </trkpt>
      <trkpt lat="42.71567" lon="1.39786">
        <ele>1565.5999755859</ele>
        <time>2013-08-10T06:23:26.000Z</time>
      </trkpt>
      <trkpt lat="42.71565" lon="1.39783">
        <ele>1567</ele>
        <time>2013-08-10T06:23:30.000Z</time>
      </trkpt>
      <trkpt lat="42.71563" lon="1.3978">
        <ele>1568.1999511719</ele>
        <time>2013-08-10T06:23:34.000Z</time>
      </trkpt>
      <trkpt lat="42.71561" lon="1.39777">
        <ele>1569.4000244141</ele>
        <time>2013-08-10T06:23:39.000Z</time>
      </trkpt>
      <trkpt lat="42.71559" lon="1.39775">
        <ele>1570</ele>
        <time>2013-08-10T06:23:42.000Z</time>
      </trkpt>
      <trkpt lat="42.71553" lon="1.39772">
        <ele>1571.5999755859</ele>
        <time>2013-08-10T06:23:48.000Z</time>
      </trkpt>
      <trkpt lat="42.71551" lon="1.39773">
        <ele>1571.4000244141</ele>
        <time>2013-08-10T06:23:52.000Z</time>
      </trkpt>
      <trkpt lat="42.7155" lon="1.39772">
        <ele>1571.5999755859</ele>
        <time>2013-08-10T06:23:56.000Z</time>
      </trkpt>
      <trkpt lat="42.71548" lon="1.39772">
        <ele>1571.8000488281</ele>
        <time>2013-08-10T06:24:00.000Z</time>
      </trkpt>
      <trkpt lat="42.71547" lon="1.39771">
        <ele>1572.1999511719</ele>
        <time>2013-08-10T06:24:01.000Z</time>
      </trkpt>
      <trkpt lat="42.71545" lon="1.39769">
        <ele>1573</ele>
        <time>2013-08-10T06:24:03.000Z</time>
      </trkpt>
      <trkpt lat="42.71543" lon="1.39768">
        <ele>1573.5999755859</ele>
        <time>2013-08-10T06:24:06.000Z</time>
      </trkpt>
      <trkpt lat="42.71542" lon="1.39768">
        <ele>1573.8000488281</ele>
        <time>2013-08-10T06:24:07.000Z</time>
      </trkpt>
      <trkpt lat="42.71539" lon="1.39768">
        <ele>1573.8000488281</ele>
        <time>2013-08-10T06:24:11.000Z</time>
      </trkpt>
      <trkpt lat="42.71536" lon="1.39768">
        <ele>1574.1999511719</ele>
        <time>2013-08-10T06:24:16.000Z</time>
      </trkpt>
      <trkpt lat="42.71535" lon="1.39764">
        <ele>1575.4000244141</ele>
        <time>2013-08-10T06:24:21.000Z</time>
      </trkpt>
      <trkpt lat="42.71536" lon="1.3976">
        <ele>1577</ele>
        <time>2013-08-10T06:24:26.000Z</time>
      </trkpt>
      <trkpt lat="42.71536" lon="1.39757">
        <ele>1578.1999511719</ele>
        <time>2013-08-10T06:24:30.000Z</time>
      </trkpt>
      <trkpt lat="42.71533" lon="1.39756">
        <ele>1578.5999755859</ele>
        <time>2013-08-10T06:24:35.000Z</time>
      </trkpt>
      <trkpt lat="42.71531" lon="1.39753">
        <ele>1579.8000488281</ele>
        <time>2013-08-10T06:24:40.000Z</time>
      </trkpt>
      <trkpt lat="42.71532" lon="1.39751">
        <ele>1580.5999755859</ele>
        <time>2013-08-10T06:24:43.000Z</time>
      </trkpt>
      <trkpt lat="42.71533" lon="1.3975">
        <ele>1581</ele>
        <time>2013-08-10T06:24:44.000Z</time>
      </trkpt>
      <trkpt lat="42.71534" lon="1.39749">
        <ele>1581.4000244141</ele>
        <time>2013-08-10T06:24:46.000Z</time>
      </trkpt>
      <trkpt lat="42.71535" lon="1.39748">
        <ele>1582</ele>
        <time>2013-08-10T06:24:48.000Z</time>
      </trkpt>
      <trkpt lat="42.71534" lon="1.39747">
        <ele>1582.1999511719</ele>
        <time>2013-08-10T06:24:49.000Z</time>
      </trkpt>
      <trkpt lat="42.71536" lon="1.39746">
        <ele>1582.5999755859</ele>
        <time>2013-08-10T06:24:51.000Z</time>
      </trkpt>
      <trkpt lat="42.71537" lon="1.39746">
        <ele>1582.8000488281</ele>
        <time>2013-08-10T06:24:52.000Z</time>
      </trkpt>
      <trkpt lat="42.71541" lon="1.39742">
        <ele>1584.1999511719</ele>
        <time>2013-08-10T06:25:02.000Z</time>
      </trkpt>
      <trkpt lat="42.71543" lon="1.39739">
        <ele>1585.1999511719</ele>
        <time>2013-08-10T06:25:08.000Z</time>
      </trkpt>
      <trkpt lat="42.71544" lon="1.39737">
        <ele>1586.1999511719</ele>
        <time>2013-08-10T06:25:12.000Z</time>
      </trkpt>
      <trkpt lat="42.71547" lon="1.39736">
        <ele>1586.1999511719</ele>
        <time>2013-08-10T06:25:17.000Z</time>
      </trkpt>
      <trkpt lat="42.71551" lon="1.39734">
        <ele>1586.5999755859</ele>
        <time>2013-08-10T06:25:22.000Z</time>
      </trkpt>
      <trkpt lat="42.71554" lon="1.39733">
        <ele>1586.8000488281</ele>
        <time>2013-08-10T06:25:27.000Z</time>
      </trkpt>
      <trkpt lat="42.71557" lon="1.39734">
        <ele>1586.1999511719</ele>
        <time>2013-08-10T06:25:30.000Z</time>
      </trkpt>
      <trkpt lat="42.71559" lon="1.39734">
        <ele>1586.1999511719</ele>
        <time>2013-08-10T06:25:32.000Z</time>
      </trkpt>
      <trkpt lat="42.71561" lon="1.39736">
        <ele>1585</ele>
        <time>2013-08-10T06:25:37.000Z</time>
      </trkpt>
      <trkpt lat="42.71566" lon="1.39739">
        <ele>1583.1999511719</ele>
        <time>2013-08-10T06:25:43.000Z</time>
      </trkpt>
      <trkpt lat="42.71567" lon="1.39739">
        <ele>1583.1999511719</ele>
        <time>2013-08-10T06:25:44.000Z</time>
      </trkpt>
      <trkpt lat="42.71566" lon="1.39736">
        <ele>1584.1999511719</ele>
        <time>2013-08-10T06:25:48.000Z</time>
      </trkpt>
      <trkpt lat="42.71565" lon="1.39733">
        <ele>1585.5999755859</ele>
        <time>2013-08-10T06:25:52.000Z</time>
      </trkpt>
      <trkpt lat="42.71564" lon="1.39729">
        <ele>1587.4000244141</ele>
        <time>2013-08-10T06:25:56.000Z</time>
      </trkpt>
      <trkpt lat="42.71563" lon="1.39724">
        <ele>1589.5999755859</ele>
        <time>2013-08-10T06:26:01.000Z</time>
      </trkpt>
      <trkpt lat="42.71563" lon="1.39722">
        <ele>1590.4000244141</ele>
        <time>2013-08-10T06:26:03.000Z</time>
      </trkpt>
      <trkpt lat="42.71562" lon="1.39719">
        <ele>1591.8000488281</ele>
        <time>2013-08-10T06:26:06.000Z</time>
      </trkpt>
      <trkpt lat="42.71562" lon="1.39718">
        <ele>1592.1999511719</ele>
        <time>2013-08-10T06:26:07.000Z</time>
      </trkpt>
      <trkpt lat="42.7156" lon="1.39714">
        <ele>1594</ele>
        <time>2013-08-10T06:26:11.000Z</time>
      </trkpt>
      <trkpt lat="42.71556" lon="1.39711">
        <ele>1595.8000488281</ele>
        <time>2013-08-10T06:26:16.000Z</time>
      </trkpt>
      <trkpt lat="42.71554" lon="1.39711">
        <ele>1596.1999511719</ele>
        <time>2013-08-10T06:26:19.000Z</time>
      </trkpt>
      <trkpt lat="42.71553" lon="1.39711">
        <ele>1596.5999755859</ele>
        <time>2013-08-10T06:26:20.000Z</time>
      </trkpt>
      <trkpt lat="42.7155" lon="1.39711">
        <ele>1597.1999511719</ele>
        <time>2013-08-10T06:26:24.000Z</time>
      </trkpt>
      <trkpt lat="42.71547" lon="1.39707">
        <ele>1599.4000244141</ele>
        <time>2013-08-10T06:26:29.000Z</time>
      </trkpt>
      <trkpt lat="42.71547" lon="1.39703">
        <ele>1601</ele>
        <time>2013-08-10T06:26:34.000Z</time>
      </trkpt>
      <trkpt lat="42.71551" lon="1.39701">
        <ele>1601.4000244141</ele>
        <time>2013-08-10T06:26:39.000Z</time>
      </trkpt>
      <trkpt lat="42.71554" lon="1.39699">
        <ele>1601.4000244141</ele>
        <time>2013-08-10T06:26:43.000Z</time>
      </trkpt>
      <trkpt lat="42.71559" lon="1.397">
        <ele>1599.8000488281</ele>
        <time>2013-08-10T06:26:48.000Z</time>
      </trkpt>
      <trkpt lat="42.71561" lon="1.39701">
        <ele>1599.1999511719</ele>
        <time>2013-08-10T06:26:50.000Z</time>
      </trkpt>
      <trkpt lat="42.71563" lon="1.397">
        <ele>1598.8000488281</ele>
        <time>2013-08-10T06:26:57.000Z</time>
      </trkpt>
      <trkpt lat="42.71567" lon="1.397">
        <ele>1598.4000244141</ele>
        <time>2013-08-10T06:27:01.000Z</time>
      </trkpt>
      <trkpt lat="42.71571" lon="1.397">
        <ele>1597.1999511719</ele>
        <time>2013-08-10T06:27:06.000Z</time>
      </trkpt>
      <trkpt lat="42.71573" lon="1.397">
        <ele>1597.1999511719</ele>
        <time>2013-08-10T06:27:10.000Z</time>
      </trkpt>
      <trkpt lat="42.71572" lon="1.39699">
        <ele>1597.8000488281</ele>
        <time>2013-08-10T06:27:11.000Z</time>
      </trkpt>
      <trkpt lat="42.7157" lon="1.39697">
        <ele>1598.5999755859</ele>
        <time>2013-08-10T06:27:13.000Z</time>
      </trkpt>
      <trkpt lat="42.71569" lon="1.39696">
        <ele>1599.1999511719</ele>
        <time>2013-08-10T06:27:14.000Z</time>
      </trkpt>
      <trkpt lat="42.71567" lon="1.39694">
        <ele>1600.4000244141</ele>
        <time>2013-08-10T06:27:17.000Z</time>
      </trkpt>
      <trkpt lat="42.71563" lon="1.39689">
        <ele>1603.5999755859</ele>
        <time>2013-08-10T06:27:23.000Z</time>
      </trkpt>
      <trkpt lat="42.71562" lon="1.39688">
        <ele>1604</ele>
        <time>2013-08-10T06:27:24.000Z</time>
      </trkpt>
      <trkpt lat="42.71559" lon="1.39685">
        <ele>1606</ele>
        <time>2013-08-10T06:27:28.000Z</time>
      </trkpt>
      <trkpt lat="42.71557" lon="1.39684">
        <ele>1607</ele>
        <time>2013-08-10T06:27:30.000Z</time>
      </trkpt>
      <trkpt lat="42.71554" lon="1.39683">
        <ele>1608.4000244141</ele>
        <time>2013-08-10T06:27:32.000Z</time>
      </trkpt>
      <trkpt lat="42.71553" lon="1.39681">
        <ele>1609.1999511719</ele>
        <time>2013-08-10T06:27:34.000Z</time>
      </trkpt>
      <trkpt lat="42.71552" lon="1.39681">
        <ele>1609.8000488281</ele>
        <time>2013-08-10T06:27:36.000Z</time>
      </trkpt>
      <trkpt lat="42.71546" lon="1.39678">
        <ele>1612.8000488281</ele>
        <time>2013-08-10T06:27:42.000Z</time>
      </trkpt>
      <trkpt lat="42.71545" lon="1.39679">
        <ele>1612.5999755859</ele>
        <time>2013-08-10T06:27:43.000Z</time>
      </trkpt>
      <trkpt lat="42.71543" lon="1.39678">
        <ele>1613.8000488281</ele>
        <time>2013-08-10T06:27:46.000Z</time>
      </trkpt>
      <trkpt lat="42.71538" lon="1.39676">
        <ele>1616</ele>
        <time>2013-08-10T06:27:52.000Z</time>
      </trkpt>
      <trkpt lat="42.71537" lon="1.39674">
        <ele>1617.4000244141</ele>
        <time>2013-08-10T06:27:55.000Z</time>
      </trkpt>
      <trkpt lat="42.71535" lon="1.39674">
        <ele>1617.8000488281</ele>
        <time>2013-08-10T06:27:59.000Z</time>
      </trkpt>
      <trkpt lat="42.71532" lon="1.39675">
        <ele>1618.4000244141</ele>
        <time>2013-08-10T06:28:04.000Z</time>
      </trkpt>
      <trkpt lat="42.71528" lon="1.39676">
        <ele>1619</ele>
        <time>2013-08-10T06:28:10.000Z</time>
      </trkpt>
      <trkpt lat="42.71525" lon="1.39674">
        <ele>1621</ele>
        <time>2013-08-10T06:28:14.000Z</time>
      </trkpt>
      <trkpt lat="42.71523" lon="1.39671">
        <ele>1623.4000244141</ele>
        <time>2013-08-10T06:28:17.000Z</time>
      </trkpt>
      <trkpt lat="42.71523" lon="1.3967">
        <ele>1623.5999755859</ele>
        <time>2013-08-10T06:28:18.000Z</time>
      </trkpt>
      <trkpt lat="42.71522" lon="1.39668">
        <ele>1625.1999511719</ele>
        <time>2013-08-10T06:28:23.000Z</time>
      </trkpt>
      <trkpt lat="42.71521" lon="1.39667">
        <ele>1626</ele>
        <time>2013-08-10T06:28:30.000Z</time>
      </trkpt>
      <trkpt lat="42.71519" lon="1.39666">
        <ele>1626.8000488281</ele>
        <time>2013-08-10T06:28:34.000Z</time>
      </trkpt>
      <trkpt lat="42.71519" lon="1.39662">
        <ele>1627.1999511719</ele>
        <time>2013-08-10T06:28:38.000Z</time>
      </trkpt>
      <trkpt lat="42.7152" lon="1.39659">
        <ele>1626.8000488281</ele>
        <time>2013-08-10T06:28:42.000Z</time>
      </trkpt>
      <trkpt lat="42.71521" lon="1.39655">
        <ele>1626.8000488281</ele>
        <time>2013-08-10T06:28:46.000Z</time>
      </trkpt>
      <trkpt lat="42.71518" lon="1.39652">
        <ele>1627.8000488281</ele>
        <time>2013-08-10T06:28:51.000Z</time>
      </trkpt>
      <trkpt lat="42.71517" lon="1.39648">
        <ele>1628.5999755859</ele>
        <time>2013-08-10T06:28:55.000Z</time>
      </trkpt>
      <trkpt lat="42.71517" lon="1.39644">
        <ele>1629</ele>
        <time>2013-08-10T06:28:59.000Z</time>
      </trkpt>
      <trkpt lat="42.71518" lon="1.39637">
        <ele>1629</ele>
        <time>2013-08-10T06:29:06.000Z</time>
      </trkpt>
      <trkpt lat="42.71516" lon="1.39632">
        <ele>1629.8000488281</ele>
        <time>2013-08-10T06:29:11.000Z</time>
      </trkpt>
      <trkpt lat="42.71517" lon="1.39631">
        <ele>1629.4000244141</ele>
        <time>2013-08-10T06:29:12.000Z</time>
      </trkpt>
      <trkpt lat="42.71518" lon="1.3963">
        <ele>1629.4000244141</ele>
        <time>2013-08-10T06:29:14.000Z</time>
      </trkpt>
      <trkpt lat="42.71517" lon="1.39626">
        <ele>1630</ele>
        <time>2013-08-10T06:29:18.000Z</time>
      </trkpt>
      <trkpt lat="42.71516" lon="1.39619">
        <ele>1630.5999755859</ele>
        <time>2013-08-10T06:29:25.000Z</time>
      </trkpt>
      <trkpt lat="42.71515" lon="1.39615">
        <ele>1631.1999511719</ele>
        <time>2013-08-10T06:29:29.000Z</time>
      </trkpt>
      <trkpt lat="42.71515" lon="1.39613">
        <ele>1631.4000244141</ele>
        <time>2013-08-10T06:29:30.000Z</time>
      </trkpt>
      <trkpt lat="42.71514" lon="1.39611">
        <ele>1631.5999755859</ele>
        <time>2013-08-10T06:29:33.000Z</time>
      </trkpt>
      <trkpt lat="42.71514" lon="1.39606">
        <ele>1632.1999511719</ele>
        <time>2013-08-10T06:29:38.000Z</time>
      </trkpt>
      <trkpt lat="42.71514" lon="1.39601">
        <ele>1632.1999511719</ele>
        <time>2013-08-10T06:29:42.000Z</time>
      </trkpt>
      <trkpt lat="42.71514" lon="1.39598">
        <ele>1632.5999755859</ele>
        <time>2013-08-10T06:29:45.000Z</time>
      </trkpt>
      <trkpt lat="42.71512" lon="1.39594">
        <ele>1633.4000244141</ele>
        <time>2013-08-10T06:29:49.000Z</time>
      </trkpt>
      <trkpt lat="42.71511" lon="1.39586">
        <ele>1634</ele>
        <time>2013-08-10T06:29:55.000Z</time>
      </trkpt>
      <trkpt lat="42.71512" lon="1.39586">
        <ele>1634</ele>
        <time>2013-08-10T06:29:56.000Z</time>
      </trkpt>
      <trkpt lat="42.71511" lon="1.39582">
        <ele>1634.5999755859</ele>
        <time>2013-08-10T06:29:59.000Z</time>
      </trkpt>
      <trkpt lat="42.7151" lon="1.39578">
        <ele>1635.5999755859</ele>
        <time>2013-08-10T06:30:03.000Z</time>
      </trkpt>
      <trkpt lat="42.71509" lon="1.39576">
        <ele>1636.1999511719</ele>
        <time>2013-08-10T06:30:05.000Z</time>
      </trkpt>
      <trkpt lat="42.71509" lon="1.39573">
        <ele>1636.5999755859</ele>
        <time>2013-08-10T06:30:08.000Z</time>
      </trkpt>
      <trkpt lat="42.71509" lon="1.39572">
        <ele>1636.8000488281</ele>
        <time>2013-08-10T06:30:09.000Z</time>
      </trkpt>
      <trkpt lat="42.71508" lon="1.39571">
        <ele>1637</ele>
        <time>2013-08-10T06:30:10.000Z</time>
      </trkpt>
      <trkpt lat="42.71508" lon="1.39567">
        <ele>1637.8000488281</ele>
        <time>2013-08-10T06:30:14.000Z</time>
      </trkpt>
      <trkpt lat="42.71507" lon="1.39564">
        <ele>1638.8000488281</ele>
        <time>2013-08-10T06:30:17.000Z</time>
      </trkpt>
      <trkpt lat="42.71507" lon="1.39563">
        <ele>1638.8000488281</ele>
        <time>2013-08-10T06:30:18.000Z</time>
      </trkpt>
      <trkpt lat="42.71506" lon="1.39556">
        <ele>1640.1999511719</ele>
        <time>2013-08-10T06:30:22.000Z</time>
      </trkpt>
      <trkpt lat="42.71505" lon="1.39552">
        <ele>1641.4000244141</ele>
        <time>2013-08-10T06:30:27.000Z</time>
      </trkpt>
      <trkpt lat="42.71504" lon="1.39549">
        <ele>1642.1999511719</ele>
        <time>2013-08-10T06:30:29.000Z</time>
      </trkpt>
      <trkpt lat="42.71503" lon="1.39543">
        <ele>1643.4000244141</ele>
        <time>2013-08-10T06:30:33.000Z</time>
      </trkpt>
      <trkpt lat="42.71503" lon="1.39543">
        <ele>1643.4000244141</ele>
        <time>2013-08-10T06:30:34.000Z</time>
      </trkpt>
      <trkpt lat="42.71503" lon="1.39541">
        <ele>1643.8000488281</ele>
        <time>2013-08-10T06:30:35.000Z</time>
      </trkpt>
      <trkpt lat="42.71501" lon="1.39538">
        <ele>1644.8000488281</ele>
        <time>2013-08-10T06:30:37.000Z</time>
      </trkpt>
      <trkpt lat="42.71501" lon="1.39533">
        <ele>1645.8000488281</ele>
        <time>2013-08-10T06:30:42.000Z</time>
      </trkpt>
      <trkpt lat="42.71501" lon="1.39532">
        <ele>1646</ele>
        <time>2013-08-10T06:30:43.000Z</time>
      </trkpt>
      <trkpt lat="42.715" lon="1.3953">
        <ele>1646.5999755859</ele>
        <time>2013-08-10T06:30:44.000Z</time>
      </trkpt>
      <trkpt lat="42.715" lon="1.39527">
        <ele>1647.5999755859</ele>
        <time>2013-08-10T06:30:46.000Z</time>
      </trkpt>
      <trkpt lat="42.71499" lon="1.39525">
        <ele>1648.4000244141</ele>
        <time>2013-08-10T06:30:48.000Z</time>
      </trkpt>
      <trkpt lat="42.71498" lon="1.39521">
        <ele>1649.8000488281</ele>
        <time>2013-08-10T06:30:50.000Z</time>
      </trkpt>
      <trkpt lat="42.71498" lon="1.3952">
        <ele>1649.8000488281</ele>
        <time>2013-08-10T06:30:51.000Z</time>
      </trkpt>
      <trkpt lat="42.71498" lon="1.39517">
        <ele>1650.4000244141</ele>
        <time>2013-08-10T06:30:54.000Z</time>
      </trkpt>
      <trkpt lat="42.71497" lon="1.39514">
        <ele>1651.4000244141</ele>
        <time>2013-08-10T06:30:56.000Z</time>
      </trkpt>
      <trkpt lat="42.71496" lon="1.39511">
        <ele>1652.5999755859</ele>
        <time>2013-08-10T06:30:59.000Z</time>
      </trkpt>
      <trkpt lat="42.71494" lon="1.39505">
        <ele>1654.1999511719</ele>
        <time>2013-08-10T06:31:04.000Z</time>
      </trkpt>
      <trkpt lat="42.71494" lon="1.39501">
        <ele>1655.1999511719</ele>
        <time>2013-08-10T06:31:07.000Z</time>
      </trkpt>
      <trkpt lat="42.71495" lon="1.39499">
        <ele>1654.8000488281</ele>
        <time>2013-08-10T06:31:09.000Z</time>
      </trkpt>
      <trkpt lat="42.71495" lon="1.39497">
        <ele>1654.4000244141</ele>
        <time>2013-08-10T06:31:11.000Z</time>
      </trkpt>
      <trkpt lat="42.71494" lon="1.39494">
        <ele>1654.5999755859</ele>
        <time>2013-08-10T06:31:14.000Z</time>
      </trkpt>
      <trkpt lat="42.71494" lon="1.39493">
        <ele>1654.5999755859</ele>
        <time>2013-08-10T06:31:15.000Z</time>
      </trkpt>
      <trkpt lat="42.71494" lon="1.3949">
        <ele>1654.8000488281</ele>
        <time>2013-08-10T06:31:18.000Z</time>
      </trkpt>
      <trkpt lat="42.71492" lon="1.39486">
        <ele>1655.4000244141</ele>
        <time>2013-08-10T06:31:21.000Z</time>
      </trkpt>
      <trkpt lat="42.71492" lon="1.39484">
        <ele>1655.5999755859</ele>
        <time>2013-08-10T06:31:23.000Z</time>
      </trkpt>
      <trkpt lat="42.71491" lon="1.3948">
        <ele>1655.5999755859</ele>
        <time>2013-08-10T06:31:26.000Z</time>
      </trkpt>
      <trkpt lat="42.7149" lon="1.39478">
        <ele>1655.8000488281</ele>
        <time>2013-08-10T06:31:28.000Z</time>
      </trkpt>
      <trkpt lat="42.71488" lon="1.39473">
        <ele>1656.5999755859</ele>
        <time>2013-08-10T06:31:33.000Z</time>
      </trkpt>
      <trkpt lat="42.71488" lon="1.39472">
        <ele>1656.4000244141</ele>
        <time>2013-08-10T06:31:34.000Z</time>
      </trkpt>
      <trkpt lat="42.71489" lon="1.39465">
        <ele>1656</ele>
        <time>2013-08-10T06:31:39.000Z</time>
      </trkpt>
      <trkpt lat="42.71488" lon="1.39462">
        <ele>1656</ele>
        <time>2013-08-10T06:31:44.000Z</time>
      </trkpt>
      <trkpt lat="42.71488" lon="1.39456">
        <ele>1656</ele>
        <time>2013-08-10T06:31:49.000Z</time>
      </trkpt>
      <trkpt lat="42.71488" lon="1.39455">
        <ele>1655.5999755859</ele>
        <time>2013-08-10T06:31:50.000Z</time>
      </trkpt>
      <trkpt lat="42.71488" lon="1.39452">
        <ele>1655.1999511719</ele>
        <time>2013-08-10T06:31:53.000Z</time>
      </trkpt>
      <trkpt lat="42.71488" lon="1.39449">
        <ele>1655</ele>
        <time>2013-08-10T06:31:56.000Z</time>
      </trkpt>
      <trkpt lat="42.71488" lon="1.39445">
        <ele>1654.8000488281</ele>
        <time>2013-08-10T06:32:00.000Z</time>
      </trkpt>
      <trkpt lat="42.71486" lon="1.39442">
        <ele>1655.8000488281</ele>
        <time>2013-08-10T06:32:04.000Z</time>
      </trkpt>
      <trkpt lat="42.71484" lon="1.3944">
        <ele>1656.5999755859</ele>
        <time>2013-08-10T06:32:07.000Z</time>
      </trkpt>
      <trkpt lat="42.71484" lon="1.39438">
        <ele>1656.5999755859</ele>
        <time>2013-08-10T06:32:09.000Z</time>
      </trkpt>
      <trkpt lat="42.71485" lon="1.39433">
        <ele>1655.4000244141</ele>
        <time>2013-08-10T06:32:14.000Z</time>
      </trkpt>
      <trkpt lat="42.71484" lon="1.39427">
        <ele>1655.5999755859</ele>
        <time>2013-08-10T06:32:20.000Z</time>
      </trkpt>
      <trkpt lat="42.71483" lon="1.39425">
        <ele>1656.1999511719</ele>
        <time>2013-08-10T06:32:22.000Z</time>
      </trkpt>
      <trkpt lat="42.71481" lon="1.39426">
        <ele>1657.1999511719</ele>
        <time>2013-08-10T06:32:25.000Z</time>
      </trkpt>
      <trkpt lat="42.71477" lon="1.39426">
        <ele>1659.4000244141</ele>
        <time>2013-08-10T06:32:30.000Z</time>
      </trkpt>
      <trkpt lat="42.71474" lon="1.39423">
        <ele>1661</ele>
        <time>2013-08-10T06:32:35.000Z</time>
      </trkpt>
      <trkpt lat="42.71473" lon="1.39423">
        <ele>1661.1999511719</ele>
        <time>2013-08-10T06:32:36.000Z</time>
      </trkpt>
      <trkpt lat="42.71472" lon="1.39422">
        <ele>1661.8000488281</ele>
        <time>2013-08-10T06:32:38.000Z</time>
      </trkpt>
      <trkpt lat="42.71471" lon="1.39421">
        <ele>1662.4000244141</ele>
        <time>2013-08-10T06:32:40.000Z</time>
      </trkpt>
      <trkpt lat="42.7147" lon="1.39416">
        <ele>1662.1999511719</ele>
        <time>2013-08-10T06:32:44.000Z</time>
      </trkpt>
      <trkpt lat="42.71468" lon="1.39409">
        <ele>1663.1999511719</ele>
        <time>2013-08-10T06:32:49.000Z</time>
      </trkpt>
      <trkpt lat="42.71464" lon="1.39402">
        <ele>1664.8000488281</ele>
        <time>2013-08-10T06:32:54.000Z</time>
      </trkpt>
      <trkpt lat="42.71463" lon="1.39401">
        <ele>1665.1999511719</ele>
        <time>2013-08-10T06:32:55.000Z</time>
      </trkpt>
      <trkpt lat="42.71461" lon="1.39397">
        <ele>1666.1999511719</ele>
        <time>2013-08-10T06:32:59.000Z</time>
      </trkpt>
      <trkpt lat="42.7146" lon="1.39395">
        <ele>1666.8000488281</ele>
        <time>2013-08-10T06:33:02.000Z</time>
      </trkpt>
      <trkpt lat="42.71459" lon="1.39394">
        <ele>1667</ele>
        <time>2013-08-10T06:33:03.000Z</time>
      </trkpt>
      <trkpt lat="42.71455" lon="1.39389">
        <ele>1669.8000488281</ele>
        <time>2013-08-10T06:33:08.000Z</time>
      </trkpt>
      <trkpt lat="42.71454" lon="1.39388">
        <ele>1670</ele>
        <time>2013-08-10T06:33:09.000Z</time>
      </trkpt>
      <trkpt lat="42.71454" lon="1.39387">
        <ele>1670.1999511719</ele>
        <time>2013-08-10T06:33:10.000Z</time>
      </trkpt>
      <trkpt lat="42.71453" lon="1.39385">
        <ele>1670.4000244141</ele>
        <time>2013-08-10T06:33:11.000Z</time>
      </trkpt>
      <trkpt lat="42.7145" lon="1.39382">
        <ele>1672.4000244141</ele>
        <time>2013-08-10T06:33:16.000Z</time>
      </trkpt>
      <trkpt lat="42.71448" lon="1.3938">
        <ele>1673.5999755859</ele>
        <time>2013-08-10T06:33:19.000Z</time>
      </trkpt>
      <trkpt lat="42.71446" lon="1.39374">
        <ele>1675.1999511719</ele>
        <time>2013-08-10T06:33:24.000Z</time>
      </trkpt>
      <trkpt lat="42.71446" lon="1.39373">
        <ele>1675.1999511719</ele>
        <time>2013-08-10T06:33:25.000Z</time>
      </trkpt>
      <trkpt lat="42.71441" lon="1.39367">
        <ele>1678.1999511719</ele>
        <time>2013-08-10T06:33:30.000Z</time>
      </trkpt>
      <trkpt lat="42.71439" lon="1.39363">
        <ele>1679.8000488281</ele>
        <time>2013-08-10T06:33:33.000Z</time>
      </trkpt>
      <trkpt lat="42.71437" lon="1.3936">
        <ele>1680.8000488281</ele>
        <time>2013-08-10T06:33:35.000Z</time>
      </trkpt>
      <trkpt lat="42.71435" lon="1.39355">
        <ele>1682.4000244141</ele>
        <time>2013-08-10T06:33:39.000Z</time>
      </trkpt>
      <trkpt lat="42.7143" lon="1.39345">
        <ele>1686.5999755859</ele>
        <time>2013-08-10T06:33:46.000Z</time>
      </trkpt>
      <trkpt lat="42.71429" lon="1.39344">
        <ele>1687.1999511719</ele>
        <time>2013-08-10T06:33:47.000Z</time>
      </trkpt>
      <trkpt lat="42.71427" lon="1.3934">
        <ele>1689.1999511719</ele>
        <time>2013-08-10T06:33:51.000Z</time>
      </trkpt>
      <trkpt lat="42.71427" lon="1.39331">
        <ele>1688.8000488281</ele>
        <time>2013-08-10T06:33:56.000Z</time>
      </trkpt>
      <trkpt lat="42.71427" lon="1.3933">
        <ele>1688.1999511719</ele>
        <time>2013-08-10T06:33:57.000Z</time>
      </trkpt>
      <trkpt lat="42.71425" lon="1.39323">
        <ele>1687.1999511719</ele>
        <time>2013-08-10T06:34:01.000Z</time>
      </trkpt>
      <trkpt lat="42.71424" lon="1.39321">
        <ele>1686.8000488281</ele>
        <time>2013-08-10T06:34:03.000Z</time>
      </trkpt>
      <trkpt lat="42.71422" lon="1.39316">
        <ele>1686.5999755859</ele>
        <time>2013-08-10T06:34:07.000Z</time>
      </trkpt>
      <trkpt lat="42.71421" lon="1.39315">
        <ele>1686.4000244141</ele>
        <time>2013-08-10T06:34:08.000Z</time>
      </trkpt>
      <trkpt lat="42.7142" lon="1.39312">
        <ele>1686.1999511719</ele>
        <time>2013-08-10T06:34:12.000Z</time>
      </trkpt>
      <trkpt lat="42.71419" lon="1.39311">
        <ele>1686.1999511719</ele>
        <time>2013-08-10T06:34:13.000Z</time>
      </trkpt>
      <trkpt lat="42.71418" lon="1.39311">
        <ele>1686.5999755859</ele>
        <time>2013-08-10T06:34:17.000Z</time>
      </trkpt>
      <trkpt lat="42.71415" lon="1.39306">
        <ele>1686.4000244141</ele>
        <time>2013-08-10T06:34:29.000Z</time>
      </trkpt>
      <trkpt lat="42.71414" lon="1.39303">
        <ele>1685.4000244141</ele>
        <time>2013-08-10T06:34:31.000Z</time>
      </trkpt>
      <trkpt lat="42.71414" lon="1.393">
        <ele>1684.4000244141</ele>
        <time>2013-08-10T06:34:33.000Z</time>
      </trkpt>
      <trkpt lat="42.71413" lon="1.39292">
        <ele>1681.1999511719</ele>
        <time>2013-08-10T06:34:38.000Z</time>
      </trkpt>
      <trkpt lat="42.71411" lon="1.39285">
        <ele>1678.4000244141</ele>
        <time>2013-08-10T06:34:43.000Z</time>
      </trkpt>
      <trkpt lat="42.71413" lon="1.39281">
        <ele>1675.5999755859</ele>
        <time>2013-08-10T06:34:46.000Z</time>
      </trkpt>
      <trkpt lat="42.71414" lon="1.39278">
        <ele>1674.1999511719</ele>
        <time>2013-08-10T06:34:48.000Z</time>
      </trkpt>
      <trkpt lat="42.71413" lon="1.39274">
        <ele>1672.5999755859</ele>
        <time>2013-08-10T06:34:50.000Z</time>
      </trkpt>
      <trkpt lat="42.71413" lon="1.39263">
        <ele>1667.5999755859</ele>
        <time>2013-08-10T06:34:56.000Z</time>
      </trkpt>
      <trkpt lat="42.71412" lon="1.3925">
        <ele>1662</ele>
        <time>2013-08-10T06:35:03.000Z</time>
      </trkpt>
      <trkpt lat="42.71413" lon="1.39241">
        <ele>1662</ele>
        <time>2013-08-10T06:35:08.000Z</time>
      </trkpt>
      <trkpt lat="42.71412" lon="1.39232">
        <ele>1662</ele>
        <time>2013-08-10T06:35:13.000Z</time>
      </trkpt>
      <trkpt lat="42.71412" lon="1.39228">
        <ele>1662</ele>
        <time>2013-08-10T06:35:15.000Z</time>
      </trkpt>
      <trkpt lat="42.71411" lon="1.39225">
        <ele>1662</ele>
        <time>2013-08-10T06:35:17.000Z</time>
      </trkpt>
      <trkpt lat="42.71411" lon="1.39216">
        <ele>1662</ele>
        <time>2013-08-10T06:35:22.000Z</time>
      </trkpt>
      <trkpt lat="42.71408" lon="1.39208">
        <ele>1693</ele>
        <time>2013-08-10T06:35:27.000Z</time>
      </trkpt>
      <trkpt lat="42.71408" lon="1.39206">
        <ele>1693</ele>
        <time>2013-08-10T06:35:28.000Z</time>
      </trkpt>
      <trkpt lat="42.71408" lon="1.39201">
        <ele>1693</ele>
        <time>2013-08-10T06:35:31.000Z</time>
      </trkpt>
      <trkpt lat="42.71407" lon="1.39196">
        <ele>1693.4000244141</ele>
        <time>2013-08-10T06:35:34.000Z</time>
      </trkpt>
      <trkpt lat="42.71405" lon="1.3919">
        <ele>1693.4000244141</ele>
        <time>2013-08-10T06:35:37.000Z</time>
      </trkpt>
      <trkpt lat="42.71403" lon="1.39187">
        <ele>1693.4000244141</ele>
        <time>2013-08-10T06:35:39.000Z</time>
      </trkpt>
      <trkpt lat="42.714" lon="1.39176">
        <ele>1693.8000488281</ele>
        <time>2013-08-10T06:35:45.000Z</time>
      </trkpt>
      <trkpt lat="42.71396" lon="1.39169">
        <ele>1693.8000488281</ele>
        <time>2013-08-10T06:35:50.000Z</time>
      </trkpt>
      <trkpt lat="42.71391" lon="1.39162">
        <ele>1693.8000488281</ele>
        <time>2013-08-10T06:35:55.000Z</time>
      </trkpt>
      <trkpt lat="42.71386" lon="1.39155">
        <ele>1693.8000488281</ele>
        <time>2013-08-10T06:36:01.000Z</time>
      </trkpt>
      <trkpt lat="42.71386" lon="1.39151">
        <ele>1693.8000488281</ele>
        <time>2013-08-10T06:36:04.000Z</time>
      </trkpt>
      <trkpt lat="42.71383" lon="1.39145">
        <ele>1693.8000488281</ele>
        <time>2013-08-10T06:36:08.000Z</time>
      </trkpt>
      <trkpt lat="42.71383" lon="1.39142">
        <ele>1693.8000488281</ele>
        <time>2013-08-10T06:36:10.000Z</time>
      </trkpt>
      <trkpt lat="42.71381" lon="1.39135">
        <ele>1693.8000488281</ele>
        <time>2013-08-10T06:36:15.000Z</time>
      </trkpt>
      <trkpt lat="42.71381" lon="1.39133">
        <ele>1693.8000488281</ele>
        <time>2013-08-10T06:36:16.000Z</time>
      </trkpt>
      <trkpt lat="42.71378" lon="1.3912">
        <ele>1694</ele>
        <time>2013-08-10T06:36:23.000Z</time>
      </trkpt>
      <trkpt lat="42.71377" lon="1.39112">
        <ele>1694</ele>
        <time>2013-08-10T06:36:28.000Z</time>
      </trkpt>
      <trkpt lat="42.71376" lon="1.39105">
        <ele>1694</ele>
        <time>2013-08-10T06:36:32.000Z</time>
      </trkpt>
      <trkpt lat="42.71375" lon="1.39102">
        <ele>1694.4000244141</ele>
        <time>2013-08-10T06:36:34.000Z</time>
      </trkpt>
      <trkpt lat="42.71373" lon="1.39093">
        <ele>1694.8000488281</ele>
        <time>2013-08-10T06:36:40.000Z</time>
      </trkpt>
      <trkpt lat="42.71374" lon="1.39086">
        <ele>1695</ele>
        <time>2013-08-10T06:36:45.000Z</time>
      </trkpt>
      <trkpt lat="42.71375" lon="1.39083">
        <ele>1695</ele>
        <time>2013-08-10T06:36:47.000Z</time>
      </trkpt>
      <trkpt lat="42.71378" lon="1.39079">
        <ele>1695</ele>
        <time>2013-08-10T06:36:50.000Z</time>
      </trkpt>
      <trkpt lat="42.71376" lon="1.39073">
        <ele>1695</ele>
        <time>2013-08-10T06:36:54.000Z</time>
      </trkpt>
      <trkpt lat="42.71378" lon="1.3907">
        <ele>1695.4000244141</ele>
        <time>2013-08-10T06:36:57.000Z</time>
      </trkpt>
      <trkpt lat="42.71379" lon="1.39065">
        <ele>1695.4000244141</ele>
        <time>2013-08-10T06:37:00.000Z</time>
      </trkpt>
      <trkpt lat="42.71379" lon="1.39064">
        <ele>1695.4000244141</ele>
        <time>2013-08-10T06:37:01.000Z</time>
      </trkpt>
      <trkpt lat="42.7138" lon="1.39063">
        <ele>1695.4000244141</ele>
        <time>2013-08-10T06:37:02.000Z</time>
      </trkpt>
      <trkpt lat="42.71382" lon="1.3906">
        <ele>1695.4000244141</ele>
        <time>2013-08-10T06:37:05.000Z</time>
      </trkpt>
      <trkpt lat="42.71381" lon="1.39056">
        <ele>1695.8000488281</ele>
        <time>2013-08-10T06:37:08.000Z</time>
      </trkpt>
      <trkpt lat="42.71381" lon="1.39053">
        <ele>1696</ele>
        <time>2013-08-10T06:37:10.000Z</time>
      </trkpt>
      <trkpt lat="42.71381" lon="1.39047">
        <ele>1696</ele>
        <time>2013-08-10T06:37:14.000Z</time>
      </trkpt>
      <trkpt lat="42.71384" lon="1.39043">
        <ele>1696</ele>
        <time>2013-08-10T06:37:18.000Z</time>
      </trkpt>
      <trkpt lat="42.71386" lon="1.39039">
        <ele>1696.4000244141</ele>
        <time>2013-08-10T06:37:21.000Z</time>
      </trkpt>
      <trkpt lat="42.71386" lon="1.39035">
        <ele>1696.4000244141</ele>
        <time>2013-08-10T06:37:24.000Z</time>
      </trkpt>
      <trkpt lat="42.71385" lon="1.3903">
        <ele>1696.4000244141</ele>
        <time>2013-08-10T06:37:28.000Z</time>
      </trkpt>
      <trkpt lat="42.71385" lon="1.39029">
        <ele>1696.4000244141</ele>
        <time>2013-08-10T06:37:29.000Z</time>
      </trkpt>
      <trkpt lat="42.71384" lon="1.39024">
        <ele>1696.8000488281</ele>
        <time>2013-08-10T06:37:32.000Z</time>
      </trkpt>
      <trkpt lat="42.71383" lon="1.39023">
        <ele>1696.8000488281</ele>
        <time>2013-08-10T06:37:33.000Z</time>
      </trkpt>
      <trkpt lat="42.71383" lon="1.39019">
        <ele>1697</ele>
        <time>2013-08-10T06:37:36.000Z</time>
      </trkpt>
      <trkpt lat="42.71383" lon="1.39016">
        <ele>1697</ele>
        <time>2013-08-10T06:37:38.000Z</time>
      </trkpt>
      <trkpt lat="42.71382" lon="1.39009">
        <ele>1697.4000244141</ele>
        <time>2013-08-10T06:37:43.000Z</time>
      </trkpt>
      <trkpt lat="42.71379" lon="1.39">
        <ele>1697.8000488281</ele>
        <time>2013-08-10T06:37:48.000Z</time>
      </trkpt>
      <trkpt lat="42.71378" lon="1.38995">
        <ele>1697.8000488281</ele>
        <time>2013-08-10T06:37:50.000Z</time>
      </trkpt>
      <trkpt lat="42.71375" lon="1.3899">
        <ele>1698</ele>
        <time>2013-08-10T06:37:52.000Z</time>
      </trkpt>
      <trkpt lat="42.71374" lon="1.38981">
        <ele>1698.4000244141</ele>
        <time>2013-08-10T06:37:57.000Z</time>
      </trkpt>
      <trkpt lat="42.71374" lon="1.3897">
        <ele>1699</ele>
        <time>2013-08-10T06:38:04.000Z</time>
      </trkpt>
      <trkpt lat="42.71373" lon="1.38962">
        <ele>1699.4000244141</ele>
        <time>2013-08-10T06:38:10.000Z</time>
      </trkpt>
      <trkpt lat="42.71374" lon="1.38959">
        <ele>1699.8000488281</ele>
        <time>2013-08-10T06:38:12.000Z</time>
      </trkpt>
      <trkpt lat="42.71373" lon="1.38957">
        <ele>1700</ele>
        <time>2013-08-10T06:38:14.000Z</time>
      </trkpt>
      <trkpt lat="42.71372" lon="1.38947">
        <ele>1700.4000244141</ele>
        <time>2013-08-10T06:38:20.000Z</time>
      </trkpt>
      <trkpt lat="42.7137" lon="1.3894">
        <ele>1701</ele>
        <time>2013-08-10T06:38:25.000Z</time>
      </trkpt>
      <trkpt lat="42.71369" lon="1.38936">
        <ele>1701.4000244141</ele>
        <time>2013-08-10T06:38:28.000Z</time>
      </trkpt>
      <trkpt lat="42.71368" lon="1.3893">
        <ele>1702.4000244141</ele>
        <time>2013-08-10T06:38:33.000Z</time>
      </trkpt>
      <trkpt lat="42.71366" lon="1.38924">
        <ele>1703</ele>
        <time>2013-08-10T06:38:38.000Z</time>
      </trkpt>
      <trkpt lat="42.71366" lon="1.38924">
        <ele>1703</ele>
        <time>2013-08-10T06:38:39.000Z</time>
      </trkpt>
      <trkpt lat="42.71366" lon="1.38922">
        <ele>1703.4000244141</ele>
        <time>2013-08-10T06:38:41.000Z</time>
      </trkpt>
      <trkpt lat="42.71367" lon="1.38919">
        <ele>1703.4000244141</ele>
        <time>2013-08-10T06:38:43.000Z</time>
      </trkpt>
      <trkpt lat="42.71368" lon="1.38918">
        <ele>1703.8000488281</ele>
        <time>2013-08-10T06:38:45.000Z</time>
      </trkpt>
      <trkpt lat="42.71368" lon="1.38916">
        <ele>1703.8000488281</ele>
        <time>2013-08-10T06:38:46.000Z</time>
      </trkpt>
      <trkpt lat="42.71368" lon="1.38913">
        <ele>1704</ele>
        <time>2013-08-10T06:38:48.000Z</time>
      </trkpt>
      <trkpt lat="42.71368" lon="1.3891">
        <ele>1704</ele>
        <time>2013-08-10T06:38:50.000Z</time>
      </trkpt>
      <trkpt lat="42.71368" lon="1.38905">
        <ele>1704.4000244141</ele>
        <time>2013-08-10T06:38:53.000Z</time>
      </trkpt>
      <trkpt lat="42.71368" lon="1.38901">
        <ele>1704.8000488281</ele>
        <time>2013-08-10T06:38:55.000Z</time>
      </trkpt>
      <trkpt lat="42.71368" lon="1.38889">
        <ele>1705.4000244141</ele>
        <time>2013-08-10T06:39:02.000Z</time>
      </trkpt>
      <trkpt lat="42.71367" lon="1.38884">
        <ele>1705.4000244141</ele>
        <time>2013-08-10T06:39:05.000Z</time>
      </trkpt>
      <trkpt lat="42.71367" lon="1.38882">
        <ele>1705.4000244141</ele>
        <time>2013-08-10T06:39:06.000Z</time>
      </trkpt>
      <trkpt lat="42.71366" lon="1.38869">
        <ele>1706</ele>
        <time>2013-08-10T06:39:14.000Z</time>
      </trkpt>
      <trkpt lat="42.71364" lon="1.38866">
        <ele>1706</ele>
        <time>2013-08-10T06:39:15.000Z</time>
      </trkpt>
      <trkpt lat="42.71363" lon="1.38865">
        <ele>1706</ele>
        <time>2013-08-10T06:39:16.000Z</time>
      </trkpt>
      <trkpt lat="42.71362" lon="1.3886">
        <ele>1706.4000244141</ele>
        <time>2013-08-10T06:39:19.000Z</time>
      </trkpt>
      <trkpt lat="42.71362" lon="1.38858">
        <ele>1706.4000244141</ele>
        <time>2013-08-10T06:39:20.000Z</time>
      </trkpt>
      <trkpt lat="42.71362" lon="1.38852">
        <ele>1706.4000244141</ele>
        <time>2013-08-10T06:39:24.000Z</time>
      </trkpt>
      <trkpt lat="42.71361" lon="1.3885">
        <ele>1706.8000488281</ele>
        <time>2013-08-10T06:39:25.000Z</time>
      </trkpt>
      <trkpt lat="42.71358" lon="1.38845">
        <ele>1707</ele>
        <time>2013-08-10T06:39:29.000Z</time>
      </trkpt>
      <trkpt lat="42.71358" lon="1.38843">
        <ele>1707</ele>
        <time>2013-08-10T06:39:31.000Z</time>
      </trkpt>
      <trkpt lat="42.71356" lon="1.38834">
        <ele>1707.4000244141</ele>
        <time>2013-08-10T06:39:36.000Z</time>
      </trkpt>
      <trkpt lat="42.71356" lon="1.38827">
        <ele>1707.4000244141</ele>
        <time>2013-08-10T06:39:41.000Z</time>
      </trkpt>
      <trkpt lat="42.71356" lon="1.38826">
        <ele>1707.8000488281</ele>
        <time>2013-08-10T06:39:42.000Z</time>
      </trkpt>
      <trkpt lat="42.71358" lon="1.38824">
        <ele>1707.8000488281</ele>
        <time>2013-08-10T06:39:45.000Z</time>
      </trkpt>
      <trkpt lat="42.71358" lon="1.38822">
        <ele>1708</ele>
        <time>2013-08-10T06:39:46.000Z</time>
      </trkpt>
      <trkpt lat="42.71357" lon="1.38817">
        <ele>1708</ele>
        <time>2013-08-10T06:39:50.000Z</time>
      </trkpt>
      <trkpt lat="42.71356" lon="1.38813">
        <ele>1708.4000244141</ele>
        <time>2013-08-10T06:39:53.000Z</time>
      </trkpt>
      <trkpt lat="42.71355" lon="1.38808">
        <ele>1708.4000244141</ele>
        <time>2013-08-10T06:39:56.000Z</time>
      </trkpt>
      <trkpt lat="42.71354" lon="1.38805">
        <ele>1708.8000488281</ele>
        <time>2013-08-10T06:39:59.000Z</time>
      </trkpt>
      <trkpt lat="42.71354" lon="1.38803">
        <ele>1709</ele>
        <time>2013-08-10T06:40:01.000Z</time>
      </trkpt>
      <trkpt lat="42.71354" lon="1.38802">
        <ele>1709</ele>
        <time>2013-08-10T06:40:02.000Z</time>
      </trkpt>
      <trkpt lat="42.71353" lon="1.38798">
        <ele>1709</ele>
        <time>2013-08-10T06:40:07.000Z</time>
      </trkpt>
      <trkpt lat="42.71351" lon="1.38792">
        <ele>1709.8000488281</ele>
        <time>2013-08-10T06:40:12.000Z</time>
      </trkpt>
      <trkpt lat="42.71351" lon="1.38786">
        <ele>1710</ele>
        <time>2013-08-10T06:40:16.000Z</time>
      </trkpt>
      <trkpt lat="42.7135" lon="1.38781">
        <ele>1710</ele>
        <time>2013-08-10T06:40:19.000Z</time>
      </trkpt>
      <trkpt lat="42.71349" lon="1.38778">
        <ele>1710.4000244141</ele>
        <time>2013-08-10T06:40:21.000Z</time>
      </trkpt>
      <trkpt lat="42.71349" lon="1.38771">
        <ele>1710.8000488281</ele>
        <time>2013-08-10T06:40:25.000Z</time>
      </trkpt>
      <trkpt lat="42.71349" lon="1.38768">
        <ele>1710.8000488281</ele>
        <time>2013-08-10T06:40:27.000Z</time>
      </trkpt>
      <trkpt lat="42.71348" lon="1.38762">
        <ele>1711</ele>
        <time>2013-08-10T06:40:31.000Z</time>
      </trkpt>
      <trkpt lat="42.71348" lon="1.3876">
        <ele>1711.4000244141</ele>
        <time>2013-08-10T06:40:33.000Z</time>
      </trkpt>
      <trkpt lat="42.71347" lon="1.38759">
        <ele>1711.4000244141</ele>
        <time>2013-08-10T06:40:35.000Z</time>
      </trkpt>
      <trkpt lat="42.71347" lon="1.38755">
        <ele>1711.8000488281</ele>
        <time>2013-08-10T06:40:39.000Z</time>
      </trkpt>
      <trkpt lat="42.71346" lon="1.38754">
        <ele>1711.8000488281</ele>
        <time>2013-08-10T06:40:40.000Z</time>
      </trkpt>
      <trkpt lat="42.71344" lon="1.38749">
        <ele>1712</ele>
        <time>2013-08-10T06:40:44.000Z</time>
      </trkpt>
      <trkpt lat="42.71344" lon="1.38747">
        <ele>1712</ele>
        <time>2013-08-10T06:40:45.000Z</time>
      </trkpt>
      <trkpt lat="42.71343" lon="1.38745">
        <ele>1712.4000244141</ele>
        <time>2013-08-10T06:40:47.000Z</time>
      </trkpt>
      <trkpt lat="42.71343" lon="1.38745">
        <ele>1712.4000244141</ele>
        <time>2013-08-10T06:40:48.000Z</time>
      </trkpt>
      <trkpt lat="42.71343" lon="1.38743">
        <ele>1712.4000244141</ele>
        <time>2013-08-10T06:40:49.000Z</time>
      </trkpt>
      <trkpt lat="42.71343" lon="1.38741">
        <ele>1712.8000488281</ele>
        <time>2013-08-10T06:40:51.000Z</time>
      </trkpt>
      <trkpt lat="42.71342" lon="1.38739">
        <ele>1713</ele>
        <time>2013-08-10T06:40:53.000Z</time>
      </trkpt>
      <trkpt lat="42.71341" lon="1.38737">
        <ele>1713</ele>
        <time>2013-08-10T06:40:55.000Z</time>
      </trkpt>
      <trkpt lat="42.71339" lon="1.38733">
        <ele>1713.4000244141</ele>
        <time>2013-08-10T06:40:58.000Z</time>
      </trkpt>
      <trkpt lat="42.71338" lon="1.38732">
        <ele>1713.4000244141</ele>
        <time>2013-08-10T06:40:59.000Z</time>
      </trkpt>
      <trkpt lat="42.71335" lon="1.38731">
        <ele>1714</ele>
        <time>2013-08-10T06:41:02.000Z</time>
      </trkpt>
      <trkpt lat="42.71336" lon="1.38729">
        <ele>1714</ele>
        <time>2013-08-10T06:41:04.000Z</time>
      </trkpt>
      <trkpt lat="42.71334" lon="1.38725">
        <ele>1715</ele>
        <time>2013-08-10T06:41:09.000Z</time>
      </trkpt>
      <trkpt lat="42.71334" lon="1.38724">
        <ele>1715</ele>
        <time>2013-08-10T06:41:10.000Z</time>
      </trkpt>
      <trkpt lat="42.71335" lon="1.3872">
        <ele>1715.8000488281</ele>
        <time>2013-08-10T06:41:15.000Z</time>
      </trkpt>
      <trkpt lat="42.71334" lon="1.38716">
        <ele>1716.4000244141</ele>
        <time>2013-08-10T06:41:19.000Z</time>
      </trkpt>
      <trkpt lat="42.71333" lon="1.38712">
        <ele>1716.8000488281</ele>
        <time>2013-08-10T06:41:23.000Z</time>
      </trkpt>
      <trkpt lat="42.71332" lon="1.38707">
        <ele>1717.4000244141</ele>
        <time>2013-08-10T06:41:27.000Z</time>
      </trkpt>
      <trkpt lat="42.7133" lon="1.38708">
        <ele>1718</ele>
        <time>2013-08-10T06:41:31.000Z</time>
      </trkpt>
      <trkpt lat="42.71327" lon="1.38706">
        <ele>1718.4000244141</ele>
        <time>2013-08-10T06:41:36.000Z</time>
      </trkpt>
      <trkpt lat="42.71325" lon="1.38701">
        <ele>1719.4000244141</ele>
        <time>2013-08-10T06:41:41.000Z</time>
      </trkpt>
      <trkpt lat="42.71324" lon="1.38698">
        <ele>1720</ele>
        <time>2013-08-10T06:41:45.000Z</time>
      </trkpt>
      <trkpt lat="42.71323" lon="1.38694">
        <ele>1720.4000244141</ele>
        <time>2013-08-10T06:41:47.000Z</time>
      </trkpt>
      <trkpt lat="42.71323" lon="1.38691">
        <ele>1720.4000244141</ele>
        <time>2013-08-10T06:41:49.000Z</time>
      </trkpt>
      <trkpt lat="42.71322" lon="1.38684">
        <ele>1721.4000244141</ele>
        <time>2013-08-10T06:41:55.000Z</time>
      </trkpt>
      <trkpt lat="42.71321" lon="1.38677">
        <ele>1722</ele>
        <time>2013-08-10T06:42:00.000Z</time>
      </trkpt>
      <trkpt lat="42.71319" lon="1.38674">
        <ele>1722.4000244141</ele>
        <time>2013-08-10T06:42:04.000Z</time>
      </trkpt>
      <trkpt lat="42.71317" lon="1.38669">
        <ele>1723.4000244141</ele>
        <time>2013-08-10T06:42:10.000Z</time>
      </trkpt>
      <trkpt lat="42.71314" lon="1.38662">
        <ele>1724</ele>
        <time>2013-08-10T06:42:18.000Z</time>
      </trkpt>
      <trkpt lat="42.71313" lon="1.3866">
        <ele>1724.8000488281</ele>
        <time>2013-08-10T06:42:22.000Z</time>
      </trkpt>
      <trkpt lat="42.71312" lon="1.3866">
        <ele>1725</ele>
        <time>2013-08-10T06:42:26.000Z</time>
      </trkpt>
      <trkpt lat="42.71309" lon="1.38659">
        <ele>1725.8000488281</ele>
        <time>2013-08-10T06:42:31.000Z</time>
      </trkpt>
      <trkpt lat="42.71305" lon="1.38655">
        <ele>1726.4000244141</ele>
        <time>2013-08-10T06:42:38.000Z</time>
      </trkpt>
      <trkpt lat="42.713" lon="1.38651">
        <ele>1727.4000244141</ele>
        <time>2013-08-10T06:42:44.000Z</time>
      </trkpt>
      <trkpt lat="42.71296" lon="1.38649">
        <ele>1728</ele>
        <time>2013-08-10T06:42:49.000Z</time>
      </trkpt>
      <trkpt lat="42.71295" lon="1.38649">
        <ele>1728</ele>
        <time>2013-08-10T06:42:50.000Z</time>
      </trkpt>
      <trkpt lat="42.7129" lon="1.38646">
        <ele>1728.8000488281</ele>
        <time>2013-08-10T06:42:56.000Z</time>
      </trkpt>
      <trkpt lat="42.71287" lon="1.38642">
        <ele>1729.4000244141</ele>
        <time>2013-08-10T06:43:01.000Z</time>
      </trkpt>
      <trkpt lat="42.71286" lon="1.38641">
        <ele>1729.8000488281</ele>
        <time>2013-08-10T06:43:03.000Z</time>
      </trkpt>
      <trkpt lat="42.71283" lon="1.38637">
        <ele>1730.4000244141</ele>
        <time>2013-08-10T06:43:07.000Z</time>
      </trkpt>
      <trkpt lat="42.71283" lon="1.38637">
        <ele>1730.4000244141</ele>
        <time>2013-08-10T06:43:08.000Z</time>
      </trkpt>
      <trkpt lat="42.71282" lon="1.38636">
        <ele>1730.4000244141</ele>
        <time>2013-08-10T06:43:09.000Z</time>
      </trkpt>
      <trkpt lat="42.7128" lon="1.38634">
        <ele>1731</ele>
        <time>2013-08-10T06:43:12.000Z</time>
      </trkpt>
      <trkpt lat="42.71279" lon="1.38633">
        <ele>1731.4000244141</ele>
        <time>2013-08-10T06:43:14.000Z</time>
      </trkpt>
      <trkpt lat="42.71276" lon="1.38629">
        <ele>1732.4000244141</ele>
        <time>2013-08-10T06:43:20.000Z</time>
      </trkpt>
      <trkpt lat="42.71274" lon="1.38625">
        <ele>1732.8000488281</ele>
        <time>2013-08-10T06:43:23.000Z</time>
      </trkpt>
      <trkpt lat="42.71274" lon="1.38619">
        <ele>1733</ele>
        <time>2013-08-10T06:43:26.000Z</time>
      </trkpt>
      <trkpt lat="42.71274" lon="1.38617">
        <ele>1733.4000244141</ele>
        <time>2013-08-10T06:43:28.000Z</time>
      </trkpt>
      <trkpt lat="42.71274" lon="1.38613">
        <ele>1734</ele>
        <time>2013-08-10T06:43:31.000Z</time>
      </trkpt>
      <trkpt lat="42.71272" lon="1.3861">
        <ele>1734.8000488281</ele>
        <time>2013-08-10T06:43:35.000Z</time>
      </trkpt>
      <trkpt lat="42.71271" lon="1.38605">
        <ele>1735.4000244141</ele>
        <time>2013-08-10T06:43:39.000Z</time>
      </trkpt>
      <trkpt lat="42.71271" lon="1.38604">
        <ele>1735.4000244141</ele>
        <time>2013-08-10T06:43:40.000Z</time>
      </trkpt>
      <trkpt lat="42.71269" lon="1.38599">
        <ele>1736.4000244141</ele>
        <time>2013-08-10T06:43:45.000Z</time>
      </trkpt>
      <trkpt lat="42.71268" lon="1.38598">
        <ele>1736.8000488281</ele>
        <time>2013-08-10T06:43:47.000Z</time>
      </trkpt>
      <trkpt lat="42.71266" lon="1.38597">
        <ele>1737</ele>
        <time>2013-08-10T06:43:49.000Z</time>
      </trkpt>
      <trkpt lat="42.71265" lon="1.38593">
        <ele>1738</ele>
        <time>2013-08-10T06:43:55.000Z</time>
      </trkpt>
      <trkpt lat="42.71264" lon="1.38586">
        <ele>1739</ele>
        <time>2013-08-10T06:44:01.000Z</time>
      </trkpt>
      <trkpt lat="42.71263" lon="1.3858">
        <ele>1739.4000244141</ele>
        <time>2013-08-10T06:44:05.000Z</time>
      </trkpt>
      <trkpt lat="42.71263" lon="1.38579">
        <ele>1739.4000244141</ele>
        <time>2013-08-10T06:44:06.000Z</time>
      </trkpt>
      <trkpt lat="42.71259" lon="1.3857">
        <ele>1740.4000244141</ele>
        <time>2013-08-10T06:44:13.000Z</time>
      </trkpt>
      <trkpt lat="42.71257" lon="1.38567">
        <ele>1741</ele>
        <time>2013-08-10T06:44:16.000Z</time>
      </trkpt>
      <trkpt lat="42.71257" lon="1.38566">
        <ele>1741.4000244141</ele>
        <time>2013-08-10T06:44:18.000Z</time>
      </trkpt>
      <trkpt lat="42.71256" lon="1.38564">
        <ele>1742</ele>
        <time>2013-08-10T06:44:24.000Z</time>
      </trkpt>
      <trkpt lat="42.71257" lon="1.3856">
        <ele>1743.4000244141</ele>
        <time>2013-08-10T06:44:31.000Z</time>
      </trkpt>
      <trkpt lat="42.71257" lon="1.38554">
        <ele>1744.8000488281</ele>
        <time>2013-08-10T06:44:36.000Z</time>
      </trkpt>
      <trkpt lat="42.71256" lon="1.38549">
        <ele>1746.8000488281</ele>
        <time>2013-08-10T06:44:42.000Z</time>
      </trkpt>
      <trkpt lat="42.71255" lon="1.38549">
        <ele>1747</ele>
        <time>2013-08-10T06:44:43.000Z</time>
      </trkpt>
      <trkpt lat="42.71253" lon="1.38549">
        <ele>1747.4000244141</ele>
        <time>2013-08-10T06:44:45.000Z</time>
      </trkpt>
      <trkpt lat="42.7125" lon="1.38546">
        <ele>1748.8000488281</ele>
        <time>2013-08-10T06:44:49.000Z</time>
      </trkpt>
      <trkpt lat="42.71248" lon="1.38544">
        <ele>1749.4000244141</ele>
        <time>2013-08-10T06:44:51.000Z</time>
      </trkpt>
      <trkpt lat="42.71247" lon="1.38541">
        <ele>1750.4000244141</ele>
        <time>2013-08-10T06:44:54.000Z</time>
      </trkpt>
      <trkpt lat="42.71245" lon="1.38539">
        <ele>1751</ele>
        <time>2013-08-10T06:44:57.000Z</time>
      </trkpt>
      <trkpt lat="42.71245" lon="1.38539">
        <ele>1751.4000244141</ele>
        <time>2013-08-10T06:44:58.000Z</time>
      </trkpt>
      <trkpt lat="42.71244" lon="1.38539">
        <ele>1751.8000488281</ele>
        <time>2013-08-10T06:44:59.000Z</time>
      </trkpt>
      <trkpt lat="42.71243" lon="1.38537">
        <ele>1752.4000244141</ele>
        <time>2013-08-10T06:45:01.000Z</time>
      </trkpt>
      <trkpt lat="42.71242" lon="1.38532">
        <ele>1753.8000488281</ele>
        <time>2013-08-10T06:45:06.000Z</time>
      </trkpt>
      <trkpt lat="42.71238" lon="1.38527">
        <ele>1755.4000244141</ele>
        <time>2013-08-10T06:45:12.000Z</time>
      </trkpt>
      <trkpt lat="42.71234" lon="1.38524">
        <ele>1757.4000244141</ele>
        <time>2013-08-10T06:45:18.000Z</time>
      </trkpt>
      <trkpt lat="42.71233" lon="1.3852">
        <ele>1759.4000244141</ele>
        <time>2013-08-10T06:45:25.000Z</time>
      </trkpt>
      <trkpt lat="42.71232" lon="1.38514">
        <ele>1760.8000488281</ele>
        <time>2013-08-10T06:45:30.000Z</time>
      </trkpt>
      <trkpt lat="42.7123" lon="1.38508">
        <ele>1762.4000244141</ele>
        <time>2013-08-10T06:45:36.000Z</time>
      </trkpt>
      <trkpt lat="42.71228" lon="1.38504">
        <ele>1763.4000244141</ele>
        <time>2013-08-10T06:45:40.000Z</time>
      </trkpt>
      <trkpt lat="42.71228" lon="1.38503">
        <ele>1763.4000244141</ele>
        <time>2013-08-10T06:45:41.000Z</time>
      </trkpt>
      <trkpt lat="42.71228" lon="1.38502">
        <ele>1764</ele>
        <time>2013-08-10T06:45:43.000Z</time>
      </trkpt>
      <trkpt lat="42.71225" lon="1.38498">
        <ele>1767</ele>
        <time>2013-08-10T06:45:54.000Z</time>
      </trkpt>
      <trkpt lat="42.71224" lon="1.38495">
        <ele>1767.4000244141</ele>
        <time>2013-08-10T06:45:56.000Z</time>
      </trkpt>
      <trkpt lat="42.71219" lon="1.38488">
        <ele>1768.4000244141</ele>
        <time>2013-08-10T06:46:01.000Z</time>
      </trkpt>
      <trkpt lat="42.71216" lon="1.38481">
        <ele>1769.8000488281</ele>
        <time>2013-08-10T06:46:06.000Z</time>
      </trkpt>
      <trkpt lat="42.71214" lon="1.38471">
        <ele>1771.4000244141</ele>
        <time>2013-08-10T06:46:13.000Z</time>
      </trkpt>
      <trkpt lat="42.71213" lon="1.38462">
        <ele>1773</ele>
        <time>2013-08-10T06:46:20.000Z</time>
      </trkpt>
      <trkpt lat="42.71212" lon="1.38461">
        <ele>1773.4000244141</ele>
        <time>2013-08-10T06:46:21.000Z</time>
      </trkpt>
      <trkpt lat="42.71213" lon="1.38456">
        <ele>1774.4000244141</ele>
        <time>2013-08-10T06:46:26.000Z</time>
      </trkpt>
      <trkpt lat="42.71213" lon="1.38455">
        <ele>1774.8000488281</ele>
        <time>2013-08-10T06:46:27.000Z</time>
      </trkpt>
      <trkpt lat="42.71211" lon="1.38452">
        <ele>1775.4000244141</ele>
        <time>2013-08-10T06:46:30.000Z</time>
      </trkpt>
      <trkpt lat="42.7121" lon="1.38451">
        <ele>1775.8000488281</ele>
        <time>2013-08-10T06:46:31.000Z</time>
      </trkpt>
      <trkpt lat="42.71209" lon="1.38443">
        <ele>1777.4000244141</ele>
        <time>2013-08-10T06:46:37.000Z</time>
      </trkpt>
      <trkpt lat="42.71207" lon="1.38437">
        <ele>1778.4000244141</ele>
        <time>2013-08-10T06:46:41.000Z</time>
      </trkpt>
      <trkpt lat="42.71207" lon="1.38437">
        <ele>1778.4000244141</ele>
        <time>2013-08-10T06:46:42.000Z</time>
      </trkpt>
      <trkpt lat="42.71207" lon="1.38437">
        <ele>1780.4000244141</ele>
        <time>2013-08-10T06:46:52.000Z</time>
      </trkpt>
      <trkpt lat="42.71207" lon="1.38438">
        <ele>1786</ele>
        <time>2013-08-10T06:47:33.000Z</time>
      </trkpt>
      <trkpt lat="42.71207" lon="1.38438">
        <ele>1787.4000244141</ele>
        <time>2013-08-10T06:47:52.000Z</time>
      </trkpt>
      <trkpt lat="42.71208" lon="1.38438">
        <ele>1788</ele>
        <time>2013-08-10T06:48:06.000Z</time>
      </trkpt>
      <trkpt lat="42.71206" lon="1.38435">
        <ele>1788.4000244141</ele>
        <time>2013-08-10T06:48:10.000Z</time>
      </trkpt>
      <trkpt lat="42.71203" lon="1.38426">
        <ele>1788.4000244141</ele>
        <time>2013-08-10T06:48:14.000Z</time>
      </trkpt>
      <trkpt lat="42.71202" lon="1.38425">
        <ele>1788.4000244141</ele>
        <time>2013-08-10T06:48:15.000Z</time>
      </trkpt>
      <trkpt lat="42.71201" lon="1.38421">
        <ele>1788.8000488281</ele>
        <time>2013-08-10T06:48:18.000Z</time>
      </trkpt>
      <trkpt lat="42.71201" lon="1.38418">
        <ele>1788.8000488281</ele>
        <time>2013-08-10T06:48:20.000Z</time>
      </trkpt>
      <trkpt lat="42.712" lon="1.38412">
        <ele>1789</ele>
        <time>2013-08-10T06:48:25.000Z</time>
      </trkpt>
      <trkpt lat="42.71199" lon="1.38404">
        <ele>1789.4000244141</ele>
        <time>2013-08-10T06:48:31.000Z</time>
      </trkpt>
      <trkpt lat="42.71195" lon="1.38393">
        <ele>1789.8000488281</ele>
        <time>2013-08-10T06:48:38.000Z</time>
      </trkpt>
      <trkpt lat="42.71195" lon="1.38385">
        <ele>1790</ele>
        <time>2013-08-10T06:48:43.000Z</time>
      </trkpt>
      <trkpt lat="42.71194" lon="1.38378">
        <ele>1790.4000244141</ele>
        <time>2013-08-10T06:48:48.000Z</time>
      </trkpt>
      <trkpt lat="42.71195" lon="1.38376">
        <ele>1790.4000244141</ele>
        <time>2013-08-10T06:48:49.000Z</time>
      </trkpt>
      <trkpt lat="42.71198" lon="1.38375">
        <ele>1790.8000488281</ele>
        <time>2013-08-10T06:48:52.000Z</time>
      </trkpt>
      <trkpt lat="42.71198" lon="1.3837">
        <ele>1791.4000244141</ele>
        <time>2013-08-10T06:48:58.000Z</time>
      </trkpt>
      <trkpt lat="42.71196" lon="1.38364">
        <ele>1792</ele>
        <time>2013-08-10T06:49:03.000Z</time>
      </trkpt>
      <trkpt lat="42.71197" lon="1.38355">
        <ele>1792.4000244141</ele>
        <time>2013-08-10T06:49:09.000Z</time>
      </trkpt>
      <trkpt lat="42.71197" lon="1.38348">
        <ele>1793</ele>
        <time>2013-08-10T06:49:13.000Z</time>
      </trkpt>
      <trkpt lat="42.71197" lon="1.38345">
        <ele>1793.4000244141</ele>
        <time>2013-08-10T06:49:15.000Z</time>
      </trkpt>
      <trkpt lat="42.71195" lon="1.3834">
        <ele>1793.8000488281</ele>
        <time>2013-08-10T06:49:20.000Z</time>
      </trkpt>
      <trkpt lat="42.7119" lon="1.38334">
        <ele>1794.4000244141</ele>
        <time>2013-08-10T06:49:26.000Z</time>
      </trkpt>
      <trkpt lat="42.71189" lon="1.38327">
        <ele>1795</ele>
        <time>2013-08-10T06:49:31.000Z</time>
      </trkpt>
      <trkpt lat="42.71187" lon="1.38322">
        <ele>1795.8000488281</ele>
        <time>2013-08-10T06:49:36.000Z</time>
      </trkpt>
      <trkpt lat="42.71186" lon="1.38317">
        <ele>1796</ele>
        <time>2013-08-10T06:49:40.000Z</time>
      </trkpt>
      <trkpt lat="42.71184" lon="1.38313">
        <ele>1796.4000244141</ele>
        <time>2013-08-10T06:49:43.000Z</time>
      </trkpt>
      <trkpt lat="42.71185" lon="1.38304">
        <ele>1796.8000488281</ele>
        <time>2013-08-10T06:49:48.000Z</time>
      </trkpt>
      <trkpt lat="42.71185" lon="1.38299">
        <ele>1797</ele>
        <time>2013-08-10T06:49:51.000Z</time>
      </trkpt>
      <trkpt lat="42.71185" lon="1.38295">
        <ele>1797.4000244141</ele>
        <time>2013-08-10T06:49:54.000Z</time>
      </trkpt>
      <trkpt lat="42.71189" lon="1.38289">
        <ele>1797.4000244141</ele>
        <time>2013-08-10T06:50:00.000Z</time>
      </trkpt>
      <trkpt lat="42.71188" lon="1.38288">
        <ele>1797.4000244141</ele>
        <time>2013-08-10T06:50:01.000Z</time>
      </trkpt>
      <trkpt lat="42.71186" lon="1.38284">
        <ele>1797.8000488281</ele>
        <time>2013-08-10T06:50:05.000Z</time>
      </trkpt>
      <trkpt lat="42.71183" lon="1.38275">
        <ele>1798</ele>
        <time>2013-08-10T06:50:11.000Z</time>
      </trkpt>
      <trkpt lat="42.71183" lon="1.38269">
        <ele>1798</ele>
        <time>2013-08-10T06:50:14.000Z</time>
      </trkpt>
      <trkpt lat="42.71183" lon="1.38265">
        <ele>1798.4000244141</ele>
        <time>2013-08-10T06:50:17.000Z</time>
      </trkpt>
      <trkpt lat="42.71182" lon="1.38258">
        <ele>1798.8000488281</ele>
        <time>2013-08-10T06:50:23.000Z</time>
      </trkpt>
      <trkpt lat="42.71181" lon="1.38257">
        <ele>1798.8000488281</ele>
        <time>2013-08-10T06:50:24.000Z</time>
      </trkpt>
      <trkpt lat="42.71181" lon="1.38256">
        <ele>1799.4000244141</ele>
        <time>2013-08-10T06:50:32.000Z</time>
      </trkpt>
      <trkpt lat="42.7118" lon="1.38252">
        <ele>1800</ele>
        <time>2013-08-10T06:50:42.000Z</time>
      </trkpt>
      <trkpt lat="42.71181" lon="1.38251">
        <ele>1800.4000244141</ele>
        <time>2013-08-10T06:50:43.000Z</time>
      </trkpt>
      <trkpt lat="42.71179" lon="1.38249">
        <ele>1800.4000244141</ele>
        <time>2013-08-10T06:50:45.000Z</time>
      </trkpt>
      <trkpt lat="42.71181" lon="1.38247">
        <ele>1800.4000244141</ele>
        <time>2013-08-10T06:50:47.000Z</time>
      </trkpt>
      <trkpt lat="42.71179" lon="1.38243">
        <ele>1801</ele>
        <time>2013-08-10T06:50:50.000Z</time>
      </trkpt>
      <trkpt lat="42.71178" lon="1.38238">
        <ele>1801.4000244141</ele>
        <time>2013-08-10T06:50:54.000Z</time>
      </trkpt>
      <trkpt lat="42.71178" lon="1.38238">
        <ele>1801.4000244141</ele>
        <time>2013-08-10T06:50:55.000Z</time>
      </trkpt>
      <trkpt lat="42.71177" lon="1.38237">
        <ele>1801.4000244141</ele>
        <time>2013-08-10T06:50:56.000Z</time>
      </trkpt>
      <trkpt lat="42.71178" lon="1.38235">
        <ele>1801.4000244141</ele>
        <time>2013-08-10T06:50:58.000Z</time>
      </trkpt>
      <trkpt lat="42.71178" lon="1.38231">
        <ele>1802</ele>
        <time>2013-08-10T06:51:01.000Z</time>
      </trkpt>
      <trkpt lat="42.71178" lon="1.38229">
        <ele>1802</ele>
        <time>2013-08-10T06:51:03.000Z</time>
      </trkpt>
      <trkpt lat="42.71178" lon="1.38226">
        <ele>1802</ele>
        <time>2013-08-10T06:51:05.000Z</time>
      </trkpt>
      <trkpt lat="42.71178" lon="1.38224">
        <ele>1802.4000244141</ele>
        <time>2013-08-10T06:51:06.000Z</time>
      </trkpt>
      <trkpt lat="42.71178" lon="1.38221">
        <ele>1802.8000488281</ele>
        <time>2013-08-10T06:51:09.000Z</time>
      </trkpt>
      <trkpt lat="42.71179" lon="1.38217">
        <ele>1803.4000244141</ele>
        <time>2013-08-10T06:51:13.000Z</time>
      </trkpt>
      <trkpt lat="42.71179" lon="1.38216">
        <ele>1803.4000244141</ele>
        <time>2013-08-10T06:51:14.000Z</time>
      </trkpt>
      <trkpt lat="42.71177" lon="1.38213">
        <ele>1804</ele>
        <time>2013-08-10T06:51:18.000Z</time>
      </trkpt>
      <trkpt lat="42.71176" lon="1.3821">
        <ele>1805</ele>
        <time>2013-08-10T06:51:23.000Z</time>
      </trkpt>
      <trkpt lat="42.71175" lon="1.38207">
        <ele>1805.8000488281</ele>
        <time>2013-08-10T06:51:28.000Z</time>
      </trkpt>
      <trkpt lat="42.71174" lon="1.38203">
        <ele>1806.4000244141</ele>
        <time>2013-08-10T06:51:31.000Z</time>
      </trkpt>
      <trkpt lat="42.71174" lon="1.38201">
        <ele>1806.4000244141</ele>
        <time>2013-08-10T06:51:33.000Z</time>
      </trkpt>
      <trkpt lat="42.71173" lon="1.38198">
        <ele>1807.4000244141</ele>
        <time>2013-08-10T06:51:37.000Z</time>
      </trkpt>
      <trkpt lat="42.71172" lon="1.38195">
        <ele>1808</ele>
        <time>2013-08-10T06:51:41.000Z</time>
      </trkpt>
      <trkpt lat="42.71171" lon="1.38191">
        <ele>1809</ele>
        <time>2013-08-10T06:51:46.000Z</time>
      </trkpt>
      <trkpt lat="42.71169" lon="1.3819">
        <ele>1810.4000244141</ele>
        <time>2013-08-10T06:51:54.000Z</time>
      </trkpt>
      <trkpt lat="42.71166" lon="1.38188">
        <ele>1811.4000244141</ele>
        <time>2013-08-10T06:51:59.000Z</time>
      </trkpt>
      <trkpt lat="42.71163" lon="1.38186">
        <ele>1812.4000244141</ele>
        <time>2013-08-10T06:52:03.000Z</time>
      </trkpt>
      <trkpt lat="42.71163" lon="1.38183">
        <ele>1813.8000488281</ele>
        <time>2013-08-10T06:52:08.000Z</time>
      </trkpt>
      <trkpt lat="42.71164" lon="1.3818">
        <ele>1815</ele>
        <time>2013-08-10T06:52:14.000Z</time>
      </trkpt>
      <trkpt lat="42.71165" lon="1.38177">
        <ele>1816</ele>
        <time>2013-08-10T06:52:18.000Z</time>
      </trkpt>
      <trkpt lat="42.71162" lon="1.38172">
        <ele>1817.4000244141</ele>
        <time>2013-08-10T06:52:24.000Z</time>
      </trkpt>
      <trkpt lat="42.71159" lon="1.38169">
        <ele>1819</ele>
        <time>2013-08-10T06:52:30.000Z</time>
      </trkpt>
      <trkpt lat="42.71157" lon="1.38167">
        <ele>1819.4000244141</ele>
        <time>2013-08-10T06:52:32.000Z</time>
      </trkpt>
      <trkpt lat="42.71155" lon="1.38164">
        <ele>1820</ele>
        <time>2013-08-10T06:52:35.000Z</time>
      </trkpt>
      <trkpt lat="42.71152" lon="1.38159">
        <ele>1821</ele>
        <time>2013-08-10T06:52:40.000Z</time>
      </trkpt>
      <trkpt lat="42.71151" lon="1.38157">
        <ele>1821.4000244141</ele>
        <time>2013-08-10T06:52:42.000Z</time>
      </trkpt>
      <trkpt lat="42.71149" lon="1.38156">
        <ele>1821.8000488281</ele>
        <time>2013-08-10T06:52:44.000Z</time>
      </trkpt>
      <trkpt lat="42.71148" lon="1.38155">
        <ele>1822</ele>
        <time>2013-08-10T06:52:45.000Z</time>
      </trkpt>
      <trkpt lat="42.71147" lon="1.38154">
        <ele>1822.4000244141</ele>
        <time>2013-08-10T06:52:47.000Z</time>
      </trkpt>
      <trkpt lat="42.71146" lon="1.38153">
        <ele>1822.8000488281</ele>
        <time>2013-08-10T06:52:48.000Z</time>
      </trkpt>
      <trkpt lat="42.71145" lon="1.38148">
        <ele>1823.4000244141</ele>
        <time>2013-08-10T06:52:52.000Z</time>
      </trkpt>
      <trkpt lat="42.71144" lon="1.3814">
        <ele>1824.4000244141</ele>
        <time>2013-08-10T06:52:57.000Z</time>
      </trkpt>
      <trkpt lat="42.71139" lon="1.38131">
        <ele>1825.4000244141</ele>
        <time>2013-08-10T06:53:04.000Z</time>
      </trkpt>
      <trkpt lat="42.71137" lon="1.38126">
        <ele>1826</ele>
        <time>2013-08-10T06:53:08.000Z</time>
      </trkpt>
      <trkpt lat="42.71136" lon="1.38123">
        <ele>1826.4000244141</ele>
        <time>2013-08-10T06:53:10.000Z</time>
      </trkpt>
      <trkpt lat="42.71136" lon="1.38121">
        <ele>1827</ele>
        <time>2013-08-10T06:53:14.000Z</time>
      </trkpt>
      <trkpt lat="42.71133" lon="1.38116">
        <ele>1828</ele>
        <time>2013-08-10T06:53:19.000Z</time>
      </trkpt>
      <trkpt lat="42.71133" lon="1.38115">
        <ele>1828.4000244141</ele>
        <time>2013-08-10T06:53:20.000Z</time>
      </trkpt>
      <trkpt lat="42.71131" lon="1.38112">
        <ele>1829</ele>
        <time>2013-08-10T06:53:24.000Z</time>
      </trkpt>
      <trkpt lat="42.71129" lon="1.3811">
        <ele>1830</ele>
        <time>2013-08-10T06:53:28.000Z</time>
      </trkpt>
      <trkpt lat="42.71126" lon="1.38109">
        <ele>1831</ele>
        <time>2013-08-10T06:53:33.000Z</time>
      </trkpt>
      <trkpt lat="42.71124" lon="1.38106">
        <ele>1832</ele>
        <time>2013-08-10T06:53:38.000Z</time>
      </trkpt>
      <trkpt lat="42.71121" lon="1.38104">
        <ele>1832.8000488281</ele>
        <time>2013-08-10T06:53:42.000Z</time>
      </trkpt>
      <trkpt lat="42.71121" lon="1.38099">
        <ele>1833.4000244141</ele>
        <time>2013-08-10T06:53:46.000Z</time>
      </trkpt>
      <trkpt lat="42.71119" lon="1.38096">
        <ele>1834</ele>
        <time>2013-08-10T06:53:50.000Z</time>
      </trkpt>
      <trkpt lat="42.71118" lon="1.38093">
        <ele>1834.8000488281</ele>
        <time>2013-08-10T06:53:53.000Z</time>
      </trkpt>
      <trkpt lat="42.71119" lon="1.38092">
        <ele>1835</ele>
        <time>2013-08-10T06:53:54.000Z</time>
      </trkpt>
      <trkpt lat="42.71118" lon="1.38088">
        <ele>1835.4000244141</ele>
        <time>2013-08-10T06:53:57.000Z</time>
      </trkpt>
      <trkpt lat="42.71118" lon="1.38087">
        <ele>1835.4000244141</ele>
        <time>2013-08-10T06:53:58.000Z</time>
      </trkpt>
      <trkpt lat="42.71117" lon="1.38086">
        <ele>1836</ele>
        <time>2013-08-10T06:54:00.000Z</time>
      </trkpt>
      <trkpt lat="42.71115" lon="1.38084">
        <ele>1836</ele>
        <time>2013-08-10T06:54:02.000Z</time>
      </trkpt>
      <trkpt lat="42.71115" lon="1.3808">
        <ele>1836.4000244141</ele>
        <time>2013-08-10T06:54:05.000Z</time>
      </trkpt>
      <trkpt lat="42.71115" lon="1.38079">
        <ele>1836.8000488281</ele>
        <time>2013-08-10T06:54:06.000Z</time>
      </trkpt>
      <trkpt lat="42.71114" lon="1.38077">
        <ele>1837</ele>
        <time>2013-08-10T06:54:08.000Z</time>
      </trkpt>
      <trkpt lat="42.71115" lon="1.38071">
        <ele>1837.8000488281</ele>
        <time>2013-08-10T06:54:12.000Z</time>
      </trkpt>
      <trkpt lat="42.71115" lon="1.38068">
        <ele>1838</ele>
        <time>2013-08-10T06:54:15.000Z</time>
      </trkpt>
      <trkpt lat="42.71116" lon="1.38067">
        <ele>1838.4000244141</ele>
        <time>2013-08-10T06:54:16.000Z</time>
      </trkpt>
      <trkpt lat="42.71117" lon="1.38063">
        <ele>1839.4000244141</ele>
        <time>2013-08-10T06:54:22.000Z</time>
      </trkpt>
      <trkpt lat="42.71117" lon="1.38059">
        <ele>1840</ele>
        <time>2013-08-10T06:54:25.000Z</time>
      </trkpt>
      <trkpt lat="42.71116" lon="1.38056">
        <ele>1841</ele>
        <time>2013-08-10T06:54:28.000Z</time>
      </trkpt>
      <trkpt lat="42.71116" lon="1.38054">
        <ele>1841.4000244141</ele>
        <time>2013-08-10T06:54:30.000Z</time>
      </trkpt>
      <trkpt lat="42.71114" lon="1.38052">
        <ele>1842.4000244141</ele>
        <time>2013-08-10T06:54:34.000Z</time>
      </trkpt>
      <trkpt lat="42.7111" lon="1.38049">
        <ele>1844.4000244141</ele>
        <time>2013-08-10T06:54:40.000Z</time>
      </trkpt>
      <trkpt lat="42.71109" lon="1.38046">
        <ele>1845.4000244141</ele>
        <time>2013-08-10T06:54:45.000Z</time>
      </trkpt>
      <trkpt lat="42.71107" lon="1.38043">
        <ele>1846.8000488281</ele>
        <time>2013-08-10T06:54:49.000Z</time>
      </trkpt>
      <trkpt lat="42.71106" lon="1.38042">
        <ele>1847</ele>
        <time>2013-08-10T06:54:51.000Z</time>
      </trkpt>
      <trkpt lat="42.71103" lon="1.38036">
        <ele>1848</ele>
        <time>2013-08-10T06:54:54.000Z</time>
      </trkpt>
      <trkpt lat="42.71103" lon="1.38035">
        <ele>1848</ele>
        <time>2013-08-10T06:54:55.000Z</time>
      </trkpt>
      <trkpt lat="42.71103" lon="1.38034">
        <ele>1848.4000244141</ele>
        <time>2013-08-10T06:54:56.000Z</time>
      </trkpt>
      <trkpt lat="42.71104" lon="1.3803">
        <ele>1849</ele>
        <time>2013-08-10T06:54:59.000Z</time>
      </trkpt>
      <trkpt lat="42.71103" lon="1.38029">
        <ele>1849.8000488281</ele>
        <time>2013-08-10T06:55:01.000Z</time>
      </trkpt>
      <trkpt lat="42.71102" lon="1.38028">
        <ele>1850</ele>
        <time>2013-08-10T06:55:02.000Z</time>
      </trkpt>
      <trkpt lat="42.71102" lon="1.38028">
        <ele>1850</ele>
        <time>2013-08-10T06:55:03.000Z</time>
      </trkpt>
      <trkpt lat="42.71099" lon="1.38023">
        <ele>1851.8000488281</ele>
        <time>2013-08-10T06:55:09.000Z</time>
      </trkpt>
      <trkpt lat="42.71096" lon="1.38018">
        <ele>1853</ele>
        <time>2013-08-10T06:55:14.000Z</time>
      </trkpt>
      <trkpt lat="42.71092" lon="1.38015">
        <ele>1855</ele>
        <time>2013-08-10T06:55:21.000Z</time>
      </trkpt>
      <trkpt lat="42.71091" lon="1.38012">
        <ele>1856</ele>
        <time>2013-08-10T06:55:25.000Z</time>
      </trkpt>
      <trkpt lat="42.71087" lon="1.38009">
        <ele>1857.8000488281</ele>
        <time>2013-08-10T06:55:31.000Z</time>
      </trkpt>
      <trkpt lat="42.71083" lon="1.38006">
        <ele>1859</ele>
        <time>2013-08-10T06:55:36.000Z</time>
      </trkpt>
      <trkpt lat="42.71083" lon="1.38005">
        <ele>1859.4000244141</ele>
        <time>2013-08-10T06:55:37.000Z</time>
      </trkpt>
      <trkpt lat="42.71083" lon="1.38003">
        <ele>1860</ele>
        <time>2013-08-10T06:55:40.000Z</time>
      </trkpt>
      <trkpt lat="42.71083" lon="1.38002">
        <ele>1861</ele>
        <time>2013-08-10T06:55:43.000Z</time>
      </trkpt>
      <trkpt lat="42.71083" lon="1.38">
        <ele>1861.4000244141</ele>
        <time>2013-08-10T06:55:45.000Z</time>
      </trkpt>
      <trkpt lat="42.71082" lon="1.37998">
        <ele>1862</ele>
        <time>2013-08-10T06:55:47.000Z</time>
      </trkpt>
      <trkpt lat="42.71082" lon="1.37997">
        <ele>1862.8000488281</ele>
        <time>2013-08-10T06:55:49.000Z</time>
      </trkpt>
      <trkpt lat="42.71082" lon="1.37991">
        <ele>1864.8000488281</ele>
        <time>2013-08-10T06:55:55.000Z</time>
      </trkpt>
      <trkpt lat="42.71082" lon="1.37987">
        <ele>1866.8000488281</ele>
        <time>2013-08-10T06:56:01.000Z</time>
      </trkpt>
      <trkpt lat="42.7108" lon="1.37982">
        <ele>1868.4000244141</ele>
        <time>2013-08-10T06:56:06.000Z</time>
      </trkpt>
      <trkpt lat="42.7108" lon="1.37982">
        <ele>1868.8000488281</ele>
        <time>2013-08-10T06:56:07.000Z</time>
      </trkpt>
      <trkpt lat="42.71079" lon="1.37977">
        <ele>1870</ele>
        <time>2013-08-10T06:56:11.000Z</time>
      </trkpt>
      <trkpt lat="42.71079" lon="1.37972">
        <ele>1871</ele>
        <time>2013-08-10T06:56:15.000Z</time>
      </trkpt>
      <trkpt lat="42.71078" lon="1.37967">
        <ele>1872.4000244141</ele>
        <time>2013-08-10T06:56:19.000Z</time>
      </trkpt>
      <trkpt lat="42.71078" lon="1.37965">
        <ele>1873</ele>
        <time>2013-08-10T06:56:21.000Z</time>
      </trkpt>
      <trkpt lat="42.71077" lon="1.37963">
        <ele>1874</ele>
        <time>2013-08-10T06:56:24.000Z</time>
      </trkpt>
      <trkpt lat="42.71076" lon="1.37957">
        <ele>1876</ele>
        <time>2013-08-10T06:56:29.000Z</time>
      </trkpt>
      <trkpt lat="42.71078" lon="1.37955">
        <ele>1877</ele>
        <time>2013-08-10T06:56:32.000Z</time>
      </trkpt>
      <trkpt lat="42.71079" lon="1.37951">
        <ele>1878.4000244141</ele>
        <time>2013-08-10T06:56:36.000Z</time>
      </trkpt>
      <trkpt lat="42.71079" lon="1.37949">
        <ele>1879</ele>
        <time>2013-08-10T06:56:37.000Z</time>
      </trkpt>
      <trkpt lat="42.71081" lon="1.37946">
        <ele>1879.4000244141</ele>
        <time>2013-08-10T06:56:38.000Z</time>
      </trkpt>
      <trkpt lat="42.71081" lon="1.37945">
        <ele>1879.8000488281</ele>
        <time>2013-08-10T06:56:39.000Z</time>
      </trkpt>
      <trkpt lat="42.71079" lon="1.37944">
        <ele>1881.4000244141</ele>
        <time>2013-08-10T06:56:43.000Z</time>
      </trkpt>
      <trkpt lat="42.71076" lon="1.37941">
        <ele>1883.4000244141</ele>
        <time>2013-08-10T06:56:48.000Z</time>
      </trkpt>
      <trkpt lat="42.71076" lon="1.37939">
        <ele>1884</ele>
        <time>2013-08-10T06:56:50.000Z</time>
      </trkpt>
      <trkpt lat="42.71075" lon="1.37936">
        <ele>1885</ele>
        <time>2013-08-10T06:56:52.000Z</time>
      </trkpt>
      <trkpt lat="42.71074" lon="1.3793">
        <ele>1887</ele>
        <time>2013-08-10T06:56:57.000Z</time>
      </trkpt>
      <trkpt lat="42.71075" lon="1.37923">
        <ele>1889.8000488281</ele>
        <time>2013-08-10T06:57:03.000Z</time>
      </trkpt>
      <trkpt lat="42.71076" lon="1.37921">
        <ele>1890.4000244141</ele>
        <time>2013-08-10T06:57:05.000Z</time>
      </trkpt>
      <trkpt lat="42.71075" lon="1.3792">
        <ele>1892</ele>
        <time>2013-08-10T06:57:08.000Z</time>
      </trkpt>
      <trkpt lat="42.71076" lon="1.37916">
        <ele>1894.4000244141</ele>
        <time>2013-08-10T06:57:13.000Z</time>
      </trkpt>
      <trkpt lat="42.71076" lon="1.37914">
        <ele>1896</ele>
        <time>2013-08-10T06:57:16.000Z</time>
      </trkpt>
      <trkpt lat="42.71077" lon="1.37911">
        <ele>1897</ele>
        <time>2013-08-10T06:57:18.000Z</time>
      </trkpt>
      <trkpt lat="42.71077" lon="1.37907">
        <ele>1899.4000244141</ele>
        <time>2013-08-10T06:57:23.000Z</time>
      </trkpt>
      <trkpt lat="42.71078" lon="1.37901">
        <ele>1902.4000244141</ele>
        <time>2013-08-10T06:57:29.000Z</time>
      </trkpt>
      <trkpt lat="42.71078" lon="1.37897">
        <ele>1904.8000488281</ele>
        <time>2013-08-10T06:57:35.000Z</time>
      </trkpt>
      <trkpt lat="42.71076" lon="1.37893">
        <ele>1906.8000488281</ele>
        <time>2013-08-10T06:57:41.000Z</time>
      </trkpt>
      <trkpt lat="42.71074" lon="1.37891">
        <ele>1908</ele>
        <time>2013-08-10T06:57:46.000Z</time>
      </trkpt>
      <trkpt lat="42.71072" lon="1.37891">
        <ele>1908.4000244141</ele>
        <time>2013-08-10T06:57:48.000Z</time>
      </trkpt>
      <trkpt lat="42.7107" lon="1.3789">
        <ele>1908.8000488281</ele>
        <time>2013-08-10T06:57:50.000Z</time>
      </trkpt>
      <trkpt lat="42.71064" lon="1.37887">
        <ele>1909.4000244141</ele>
        <time>2013-08-10T06:57:56.000Z</time>
      </trkpt>
      <trkpt lat="42.71058" lon="1.37886">
        <ele>1909</ele>
        <time>2013-08-10T06:58:04.000Z</time>
      </trkpt>
      <trkpt lat="42.71057" lon="1.37885">
        <ele>1909</ele>
        <time>2013-08-10T06:58:09.000Z</time>
      </trkpt>
      <trkpt lat="42.71059" lon="1.37882">
        <ele>1909.4000244141</ele>
        <time>2013-08-10T06:58:14.000Z</time>
      </trkpt>
      <trkpt lat="42.71058" lon="1.37879">
        <ele>1909.4000244141</ele>
        <time>2013-08-10T06:58:19.000Z</time>
      </trkpt>
      <trkpt lat="42.71056" lon="1.37877">
        <ele>1909.4000244141</ele>
        <time>2013-08-10T06:58:22.000Z</time>
      </trkpt>
      <trkpt lat="42.71056" lon="1.37876">
        <ele>1909.4000244141</ele>
        <time>2013-08-10T06:58:23.000Z</time>
      </trkpt>
      <trkpt lat="42.71054" lon="1.37877">
        <ele>1909.8000488281</ele>
        <time>2013-08-10T06:58:28.000Z</time>
      </trkpt>
      <trkpt lat="42.71051" lon="1.37873">
        <ele>1910</ele>
        <time>2013-08-10T06:58:33.000Z</time>
      </trkpt>
      <trkpt lat="42.71046" lon="1.37871">
        <ele>1909.8000488281</ele>
        <time>2013-08-10T06:58:38.000Z</time>
      </trkpt>
      <trkpt lat="42.71042" lon="1.3787">
        <ele>1909.4000244141</ele>
        <time>2013-08-10T06:58:45.000Z</time>
      </trkpt>
      <trkpt lat="42.71042" lon="1.37866">
        <ele>1909.4000244141</ele>
        <time>2013-08-10T06:58:51.000Z</time>
      </trkpt>
      <trkpt lat="42.71039" lon="1.3786">
        <ele>1909.4000244141</ele>
        <time>2013-08-10T06:58:56.000Z</time>
      </trkpt>
      <trkpt lat="42.71037" lon="1.37853">
        <ele>1909.4000244141</ele>
        <time>2013-08-10T06:59:01.000Z</time>
      </trkpt>
      <trkpt lat="42.71035" lon="1.37846">
        <ele>1909.4000244141</ele>
        <time>2013-08-10T06:59:06.000Z</time>
      </trkpt>
      <trkpt lat="42.71033" lon="1.37845">
        <ele>1909.4000244141</ele>
        <time>2013-08-10T06:59:07.000Z</time>
      </trkpt>
      <trkpt lat="42.71032" lon="1.37842">
        <ele>1909.4000244141</ele>
        <time>2013-08-10T06:59:09.000Z</time>
      </trkpt>
      <trkpt lat="42.71032" lon="1.37839">
        <ele>1909.4000244141</ele>
        <time>2013-08-10T06:59:11.000Z</time>
      </trkpt>
      <trkpt lat="42.71033" lon="1.37838">
        <ele>1909.4000244141</ele>
        <time>2013-08-10T06:59:12.000Z</time>
      </trkpt>
      <trkpt lat="42.71032" lon="1.37834">
        <ele>1909.4000244141</ele>
        <time>2013-08-10T06:59:15.000Z</time>
      </trkpt>
      <trkpt lat="42.71029" lon="1.37828">
        <ele>1909.4000244141</ele>
        <time>2013-08-10T06:59:19.000Z</time>
      </trkpt>
      <trkpt lat="42.71024" lon="1.37822">
        <ele>1909.4000244141</ele>
        <time>2013-08-10T06:59:24.000Z</time>
      </trkpt>
      <trkpt lat="42.7102" lon="1.37816">
        <ele>1909</ele>
        <time>2013-08-10T06:59:29.000Z</time>
      </trkpt>
      <trkpt lat="42.7102" lon="1.37814">
        <ele>1909</ele>
        <time>2013-08-10T06:59:31.000Z</time>
      </trkpt>
      <trkpt lat="42.71019" lon="1.37811">
        <ele>1909</ele>
        <time>2013-08-10T06:59:34.000Z</time>
      </trkpt>
      <trkpt lat="42.71018" lon="1.37807">
        <ele>1909</ele>
        <time>2013-08-10T06:59:37.000Z</time>
      </trkpt>
      <trkpt lat="42.71018" lon="1.37804">
        <ele>1909</ele>
        <time>2013-08-10T06:59:39.000Z</time>
      </trkpt>
      <trkpt lat="42.71017" lon="1.37798">
        <ele>1909</ele>
        <time>2013-08-10T06:59:44.000Z</time>
      </trkpt>
      <trkpt lat="42.71016" lon="1.37793">
        <ele>1909</ele>
        <time>2013-08-10T06:59:49.000Z</time>
      </trkpt>
      <trkpt lat="42.71016" lon="1.37792">
        <ele>1909</ele>
        <time>2013-08-10T06:59:50.000Z</time>
      </trkpt>
      <trkpt lat="42.71015" lon="1.37791">
        <ele>1909</ele>
        <time>2013-08-10T06:59:51.000Z</time>
      </trkpt>
      <trkpt lat="42.71014" lon="1.37785">
        <ele>1909</ele>
        <time>2013-08-10T06:59:55.000Z</time>
      </trkpt>
      <trkpt lat="42.71014" lon="1.37781">
        <ele>1909</ele>
        <time>2013-08-10T06:59:59.000Z</time>
      </trkpt>
      <trkpt lat="42.71014" lon="1.37775">
        <ele>1909</ele>
        <time>2013-08-10T07:00:03.000Z</time>
      </trkpt>
      <trkpt lat="42.71015" lon="1.37769">
        <ele>1909</ele>
        <time>2013-08-10T07:00:08.000Z</time>
      </trkpt>
      <trkpt lat="42.71015" lon="1.37762">
        <ele>1909</ele>
        <time>2013-08-10T07:00:12.000Z</time>
      </trkpt>
      <trkpt lat="42.71015" lon="1.37761">
        <ele>1909</ele>
        <time>2013-08-10T07:00:13.000Z</time>
      </trkpt>
      <trkpt lat="42.71017" lon="1.37753">
        <ele>1909.4000244141</ele>
        <time>2013-08-10T07:00:18.000Z</time>
      </trkpt>
      <trkpt lat="42.71017" lon="1.37752">
        <ele>1909.4000244141</ele>
        <time>2013-08-10T07:00:19.000Z</time>
      </trkpt>
      <trkpt lat="42.71016" lon="1.37748">
        <ele>1909.4000244141</ele>
        <time>2013-08-10T07:00:22.000Z</time>
      </trkpt>
      <trkpt lat="42.71015" lon="1.37745">
        <ele>1909.8000488281</ele>
        <time>2013-08-10T07:00:24.000Z</time>
      </trkpt>
      <trkpt lat="42.71013" lon="1.37742">
        <ele>1909.8000488281</ele>
        <time>2013-08-10T07:00:27.000Z</time>
      </trkpt>
      <trkpt lat="42.71011" lon="1.3774">
        <ele>1910</ele>
        <time>2013-08-10T07:00:29.000Z</time>
      </trkpt>
      <trkpt lat="42.71009" lon="1.37737">
        <ele>1910</ele>
        <time>2013-08-10T07:00:32.000Z</time>
      </trkpt>
      <trkpt lat="42.71006" lon="1.37735">
        <ele>1910</ele>
        <time>2013-08-10T07:00:34.000Z</time>
      </trkpt>
      <trkpt lat="42.71003" lon="1.37732">
        <ele>1910</ele>
        <time>2013-08-10T07:00:37.000Z</time>
      </trkpt>
      <trkpt lat="42.71" lon="1.37729">
        <ele>1909.8000488281</ele>
        <time>2013-08-10T07:00:41.000Z</time>
      </trkpt>
      <trkpt lat="42.70999" lon="1.37728">
        <ele>1909.8000488281</ele>
        <time>2013-08-10T07:00:42.000Z</time>
      </trkpt>
      <trkpt lat="42.70998" lon="1.37728">
        <ele>1909.8000488281</ele>
        <time>2013-08-10T07:00:43.000Z</time>
      </trkpt>
      <trkpt lat="42.70995" lon="1.37729">
        <ele>1909.8000488281</ele>
        <time>2013-08-10T07:00:47.000Z</time>
      </trkpt>
      <trkpt lat="42.70994" lon="1.37728">
        <ele>1909.8000488281</ele>
        <time>2013-08-10T07:00:49.000Z</time>
      </trkpt>
      <trkpt lat="42.70993" lon="1.37725">
        <ele>1909.4000244141</ele>
        <time>2013-08-10T07:00:51.000Z</time>
      </trkpt>
      <trkpt lat="42.7099" lon="1.37723">
        <ele>1909.4000244141</ele>
        <time>2013-08-10T07:00:56.000Z</time>
      </trkpt>
      <trkpt lat="42.70988" lon="1.37721">
        <ele>1909.4000244141</ele>
        <time>2013-08-10T07:00:58.000Z</time>
      </trkpt>
      <trkpt lat="42.70986" lon="1.37718">
        <ele>1909.4000244141</ele>
        <time>2013-08-10T07:01:01.000Z</time>
      </trkpt>
      <trkpt lat="42.70986" lon="1.37717">
        <ele>1909.4000244141</ele>
        <time>2013-08-10T07:01:02.000Z</time>
      </trkpt>
      <trkpt lat="42.70983" lon="1.37712">
        <ele>1909.4000244141</ele>
        <time>2013-08-10T07:01:07.000Z</time>
      </trkpt>
      <trkpt lat="42.70982" lon="1.37712">
        <ele>1909.4000244141</ele>
        <time>2013-08-10T07:01:08.000Z</time>
      </trkpt>
      <trkpt lat="42.7098" lon="1.37708">
        <ele>1909.8000488281</ele>
        <time>2013-08-10T07:01:12.000Z</time>
      </trkpt>
      <trkpt lat="42.70979" lon="1.37705">
        <ele>1909.8000488281</ele>
        <time>2013-08-10T07:01:15.000Z</time>
      </trkpt>
      <trkpt lat="42.70977" lon="1.37703">
        <ele>1910</ele>
        <time>2013-08-10T07:01:20.000Z</time>
      </trkpt>
      <trkpt lat="42.70973" lon="1.37698">
        <ele>1910</ele>
        <time>2013-08-10T07:01:26.000Z</time>
      </trkpt>
      <trkpt lat="42.70968" lon="1.37696">
        <ele>1910.4000244141</ele>
        <time>2013-08-10T07:01:33.000Z</time>
      </trkpt>
      <trkpt lat="42.70964" lon="1.37692">
        <ele>1910.4000244141</ele>
        <time>2013-08-10T07:01:38.000Z</time>
      </trkpt>
      <trkpt lat="42.70964" lon="1.37691">
        <ele>1910.4000244141</ele>
        <time>2013-08-10T07:01:39.000Z</time>
      </trkpt>
      <trkpt lat="42.70963" lon="1.37685">
        <ele>1910.4000244141</ele>
        <time>2013-08-10T07:01:44.000Z</time>
      </trkpt>
      <trkpt lat="42.70961" lon="1.37681">
        <ele>1910.4000244141</ele>
        <time>2013-08-10T07:01:48.000Z</time>
      </trkpt>
      <trkpt lat="42.7096" lon="1.37679">
        <ele>1910.4000244141</ele>
        <time>2013-08-10T07:01:50.000Z</time>
      </trkpt>
      <trkpt lat="42.7096" lon="1.37674">
        <ele>1910.4000244141</ele>
        <time>2013-08-10T07:01:53.000Z</time>
      </trkpt>
      <trkpt lat="42.70959" lon="1.37671">
        <ele>1910.4000244141</ele>
        <time>2013-08-10T07:01:56.000Z</time>
      </trkpt>
      <trkpt lat="42.70956" lon="1.37665">
        <ele>1910.4000244141</ele>
        <time>2013-08-10T07:02:01.000Z</time>
      </trkpt>
      <trkpt lat="42.70957" lon="1.37664">
        <ele>1910.4000244141</ele>
        <time>2013-08-10T07:02:02.000Z</time>
      </trkpt>
      <trkpt lat="42.70957" lon="1.37658">
        <ele>1910.4000244141</ele>
        <time>2013-08-10T07:02:07.000Z</time>
      </trkpt>
      <trkpt lat="42.70956" lon="1.37651">
        <ele>1910.4000244141</ele>
        <time>2013-08-10T07:02:13.000Z</time>
      </trkpt>
      <trkpt lat="42.70955" lon="1.37649">
        <ele>1910.4000244141</ele>
        <time>2013-08-10T07:02:15.000Z</time>
      </trkpt>
      <trkpt lat="42.70955" lon="1.37643">
        <ele>1910.4000244141</ele>
        <time>2013-08-10T07:02:20.000Z</time>
      </trkpt>
      <trkpt lat="42.70955" lon="1.37637">
        <ele>1910</ele>
        <time>2013-08-10T07:02:25.000Z</time>
      </trkpt>
      <trkpt lat="42.70955" lon="1.37634">
        <ele>1910</ele>
        <time>2013-08-10T07:02:27.000Z</time>
      </trkpt>
      <trkpt lat="42.70955" lon="1.37633">
        <ele>1910</ele>
        <time>2013-08-10T07:02:28.000Z</time>
      </trkpt>
      <trkpt lat="42.70951" lon="1.37624">
        <ele>1910</ele>
        <time>2013-08-10T07:02:34.000Z</time>
      </trkpt>
      <trkpt lat="42.70946" lon="1.37618">
        <ele>1909.8000488281</ele>
        <time>2013-08-10T07:02:41.000Z</time>
      </trkpt>
      <trkpt lat="42.70942" lon="1.37613">
        <ele>1909.8000488281</ele>
        <time>2013-08-10T07:02:45.000Z</time>
      </trkpt>
      <trkpt lat="42.70941" lon="1.37605">
        <ele>1909.4000244141</ele>
        <time>2013-08-10T07:02:50.000Z</time>
      </trkpt>
      <trkpt lat="42.70937" lon="1.37597">
        <ele>1909.4000244141</ele>
        <time>2013-08-10T07:02:55.000Z</time>
      </trkpt>
      <trkpt lat="42.70931" lon="1.37589">
        <ele>1909</ele>
        <time>2013-08-10T07:03:02.000Z</time>
      </trkpt>
      <trkpt lat="42.70927" lon="1.37581">
        <ele>1909</ele>
        <time>2013-08-10T07:03:08.000Z</time>
      </trkpt>
      <trkpt lat="42.70924" lon="1.37576">
        <ele>1909</ele>
        <time>2013-08-10T07:03:14.000Z</time>
      </trkpt>
      <trkpt lat="42.7092" lon="1.37574">
        <ele>1908.8000488281</ele>
        <time>2013-08-10T07:03:20.000Z</time>
      </trkpt>
      <trkpt lat="42.70915" lon="1.37568">
        <ele>1908.4000244141</ele>
        <time>2013-08-10T07:03:28.000Z</time>
      </trkpt>
      <trkpt lat="42.70912" lon="1.37566">
        <ele>1908.4000244141</ele>
        <time>2013-08-10T07:03:33.000Z</time>
      </trkpt>
      <trkpt lat="42.70908" lon="1.37563">
        <ele>1908.4000244141</ele>
        <time>2013-08-10T07:03:37.000Z</time>
      </trkpt>
      <trkpt lat="42.70908" lon="1.3756">
        <ele>1908.4000244141</ele>
        <time>2013-08-10T07:03:39.000Z</time>
      </trkpt>
      <trkpt lat="42.70907" lon="1.37556">
        <ele>1908.4000244141</ele>
        <time>2013-08-10T07:03:42.000Z</time>
      </trkpt>
      <trkpt lat="42.70907" lon="1.37554">
        <ele>1908.4000244141</ele>
        <time>2013-08-10T07:03:44.000Z</time>
      </trkpt>
      <trkpt lat="42.70905" lon="1.37548">
        <ele>1908.4000244141</ele>
        <time>2013-08-10T07:03:49.000Z</time>
      </trkpt>
      <trkpt lat="42.70904" lon="1.37543">
        <ele>1908.4000244141</ele>
        <time>2013-08-10T07:03:54.000Z</time>
      </trkpt>
      <trkpt lat="42.70904" lon="1.37541">
        <ele>1908.4000244141</ele>
        <time>2013-08-10T07:03:56.000Z</time>
      </trkpt>
      <trkpt lat="42.70903" lon="1.37539">
        <ele>1908</ele>
        <time>2013-08-10T07:04:03.000Z</time>
      </trkpt>
      <trkpt lat="42.70902" lon="1.37536">
        <ele>1908</ele>
        <time>2013-08-10T07:04:06.000Z</time>
      </trkpt>
      <trkpt lat="42.70901" lon="1.37534">
        <ele>1908</ele>
        <time>2013-08-10T07:04:07.000Z</time>
      </trkpt>
      <trkpt lat="42.70899" lon="1.37527">
        <ele>1908</ele>
        <time>2013-08-10T07:04:12.000Z</time>
      </trkpt>
      <trkpt lat="42.70896" lon="1.37523">
        <ele>1908</ele>
        <time>2013-08-10T07:04:16.000Z</time>
      </trkpt>
      <trkpt lat="42.70896" lon="1.3752">
        <ele>1908</ele>
        <time>2013-08-10T07:04:19.000Z</time>
      </trkpt>
      <trkpt lat="42.70896" lon="1.37518">
        <ele>1908</ele>
        <time>2013-08-10T07:04:20.000Z</time>
      </trkpt>
      <trkpt lat="42.70894" lon="1.37513">
        <ele>1908</ele>
        <time>2013-08-10T07:04:24.000Z</time>
      </trkpt>
      <trkpt lat="42.7089" lon="1.37508">
        <ele>1908</ele>
        <time>2013-08-10T07:04:30.000Z</time>
      </trkpt>
      <trkpt lat="42.70889" lon="1.37506">
        <ele>1908</ele>
        <time>2013-08-10T07:04:32.000Z</time>
      </trkpt>
      <trkpt lat="42.70887" lon="1.37502">
        <ele>1908</ele>
        <time>2013-08-10T07:04:35.000Z</time>
      </trkpt>
      <trkpt lat="42.70884" lon="1.37496">
        <ele>1908</ele>
        <time>2013-08-10T07:04:40.000Z</time>
      </trkpt>
      <trkpt lat="42.70879" lon="1.37487">
        <ele>1908</ele>
        <time>2013-08-10T07:04:47.000Z</time>
      </trkpt>
      <trkpt lat="42.70878" lon="1.37484">
        <ele>1908</ele>
        <time>2013-08-10T07:04:51.000Z</time>
      </trkpt>
      <trkpt lat="42.70877" lon="1.37483">
        <ele>1908.4000244141</ele>
        <time>2013-08-10T07:05:00.000Z</time>
      </trkpt>
      <trkpt lat="42.70877" lon="1.37475">
        <ele>1908.8000488281</ele>
        <time>2013-08-10T07:05:06.000Z</time>
      </trkpt>
      <trkpt lat="42.70877" lon="1.3747">
        <ele>1908.8000488281</ele>
        <time>2013-08-10T07:05:11.000Z</time>
      </trkpt>
      <trkpt lat="42.70876" lon="1.37469">
        <ele>1909</ele>
        <time>2013-08-10T07:05:26.000Z</time>
      </trkpt>
      <trkpt lat="42.70877" lon="1.3747">
        <ele>1909.4000244141</ele>
        <time>2013-08-10T07:05:46.000Z</time>
      </trkpt>
      <trkpt lat="42.70877" lon="1.3747">
        <ele>1909.8000488281</ele>
        <time>2013-08-10T07:05:55.000Z</time>
      </trkpt>
      <trkpt lat="42.70876" lon="1.3747">
        <ele>1909.8000488281</ele>
        <time>2013-08-10T07:06:03.000Z</time>
      </trkpt>
      <trkpt lat="42.70876" lon="1.3747">
        <ele>1909.8000488281</ele>
        <time>2013-08-10T07:06:09.000Z</time>
      </trkpt>
      <trkpt lat="42.70875" lon="1.37467">
        <ele>1909.4000244141</ele>
        <time>2013-08-10T07:06:18.000Z</time>
      </trkpt>
      <trkpt lat="42.70873" lon="1.37458">
        <ele>1909.4000244141</ele>
        <time>2013-08-10T07:06:24.000Z</time>
      </trkpt>
      <trkpt lat="42.70872" lon="1.37453">
        <ele>1909.4000244141</ele>
        <time>2013-08-10T07:06:27.000Z</time>
      </trkpt>
      <trkpt lat="42.70872" lon="1.3745">
        <ele>1909.4000244141</ele>
        <time>2013-08-10T07:06:29.000Z</time>
      </trkpt>
      <trkpt lat="42.70869" lon="1.37445">
        <ele>1909.4000244141</ele>
        <time>2013-08-10T07:06:34.000Z</time>
      </trkpt>
      <trkpt lat="42.70867" lon="1.3744">
        <ele>1909.4000244141</ele>
        <time>2013-08-10T07:06:38.000Z</time>
      </trkpt>
      <trkpt lat="42.70867" lon="1.37438">
        <ele>1909.8000488281</ele>
        <time>2013-08-10T07:06:41.000Z</time>
      </trkpt>
      <trkpt lat="42.70865" lon="1.37433">
        <ele>1910</ele>
        <time>2013-08-10T07:06:48.000Z</time>
      </trkpt>
      <trkpt lat="42.70865" lon="1.37431">
        <ele>1910</ele>
        <time>2013-08-10T07:06:49.000Z</time>
      </trkpt>
      <trkpt lat="42.70865" lon="1.37424">
        <ele>1910</ele>
        <time>2013-08-10T07:06:53.000Z</time>
      </trkpt>
      <trkpt lat="42.70865" lon="1.37423">
        <ele>1910.4000244141</ele>
        <time>2013-08-10T07:06:54.000Z</time>
      </trkpt>
      <trkpt lat="42.70863" lon="1.37419">
        <ele>1910.4000244141</ele>
        <time>2013-08-10T07:06:57.000Z</time>
      </trkpt>
      <trkpt lat="42.70862" lon="1.37417">
        <ele>1910.8000488281</ele>
        <time>2013-08-10T07:06:59.000Z</time>
      </trkpt>
      <trkpt lat="42.7086" lon="1.37415">
        <ele>1910.8000488281</ele>
        <time>2013-08-10T07:07:02.000Z</time>
      </trkpt>
      <trkpt lat="42.70859" lon="1.37414">
        <ele>1911</ele>
        <time>2013-08-10T07:07:03.000Z</time>
      </trkpt>
      <trkpt lat="42.70858" lon="1.3741">
        <ele>1911</ele>
        <time>2013-08-10T07:07:06.000Z</time>
      </trkpt>
      <trkpt lat="42.70856" lon="1.37408">
        <ele>1911</ele>
        <time>2013-08-10T07:07:09.000Z</time>
      </trkpt>
      <trkpt lat="42.70856" lon="1.37406">
        <ele>1911.4000244141</ele>
        <time>2013-08-10T07:07:10.000Z</time>
      </trkpt>
      <trkpt lat="42.70856" lon="1.37402">
        <ele>1911.4000244141</ele>
        <time>2013-08-10T07:07:13.000Z</time>
      </trkpt>
      <trkpt lat="42.70856" lon="1.37399">
        <ele>1911.4000244141</ele>
        <time>2013-08-10T07:07:15.000Z</time>
      </trkpt>
      <trkpt lat="42.70854" lon="1.3739">
        <ele>1911.8000488281</ele>
        <time>2013-08-10T07:07:21.000Z</time>
      </trkpt>
      <trkpt lat="42.70853" lon="1.37387">
        <ele>1912</ele>
        <time>2013-08-10T07:07:24.000Z</time>
      </trkpt>
      <trkpt lat="42.70851" lon="1.37385">
        <ele>1912</ele>
        <time>2013-08-10T07:07:27.000Z</time>
      </trkpt>
      <trkpt lat="42.70849" lon="1.37378">
        <ele>1912.4000244141</ele>
        <time>2013-08-10T07:07:33.000Z</time>
      </trkpt>
      <trkpt lat="42.70849" lon="1.37373">
        <ele>1913</ele>
        <time>2013-08-10T07:07:39.000Z</time>
      </trkpt>
      <trkpt lat="42.70848" lon="1.37369">
        <ele>1913.4000244141</ele>
        <time>2013-08-10T07:07:43.000Z</time>
      </trkpt>
      <trkpt lat="42.70847" lon="1.37366">
        <ele>1913.4000244141</ele>
        <time>2013-08-10T07:07:45.000Z</time>
      </trkpt>
      <trkpt lat="42.70846" lon="1.37361">
        <ele>1914</ele>
        <time>2013-08-10T07:07:50.000Z</time>
      </trkpt>
      <trkpt lat="42.70845" lon="1.3736">
        <ele>1914</ele>
        <time>2013-08-10T07:07:52.000Z</time>
      </trkpt>
      <trkpt lat="42.70841" lon="1.37356">
        <ele>1914.8000488281</ele>
        <time>2013-08-10T07:07:57.000Z</time>
      </trkpt>
      <trkpt lat="42.7084" lon="1.37351">
        <ele>1915</ele>
        <time>2013-08-10T07:08:03.000Z</time>
      </trkpt>
      <trkpt lat="42.70839" lon="1.37343">
        <ele>1916</ele>
        <time>2013-08-10T07:08:10.000Z</time>
      </trkpt>
      <trkpt lat="42.70838" lon="1.37342">
        <ele>1916</ele>
        <time>2013-08-10T07:08:11.000Z</time>
      </trkpt>
      <trkpt lat="42.70837" lon="1.37341">
        <ele>1916</ele>
        <time>2013-08-10T07:08:13.000Z</time>
      </trkpt>
      <trkpt lat="42.70836" lon="1.37341">
        <ele>1916.4000244141</ele>
        <time>2013-08-10T07:08:15.000Z</time>
      </trkpt>
      <trkpt lat="42.70833" lon="1.37337">
        <ele>1917</ele>
        <time>2013-08-10T07:08:20.000Z</time>
      </trkpt>
      <trkpt lat="42.70833" lon="1.37333">
        <ele>1917.8000488281</ele>
        <time>2013-08-10T07:08:24.000Z</time>
      </trkpt>
      <trkpt lat="42.70833" lon="1.37332">
        <ele>1918</ele>
        <time>2013-08-10T07:08:25.000Z</time>
      </trkpt>
      <trkpt lat="42.70831" lon="1.37327">
        <ele>1919</ele>
        <time>2013-08-10T07:08:31.000Z</time>
      </trkpt>
      <trkpt lat="42.70829" lon="1.37325">
        <ele>1920</ele>
        <time>2013-08-10T07:08:37.000Z</time>
      </trkpt>
      <trkpt lat="42.70828" lon="1.37321">
        <ele>1920.8000488281</ele>
        <time>2013-08-10T07:08:42.000Z</time>
      </trkpt>
      <trkpt lat="42.70827" lon="1.37318">
        <ele>1921.4000244141</ele>
        <time>2013-08-10T07:08:46.000Z</time>
      </trkpt>
      <trkpt lat="42.70825" lon="1.37315">
        <ele>1922.4000244141</ele>
        <time>2013-08-10T07:08:50.000Z</time>
      </trkpt>
      <trkpt lat="42.70822" lon="1.37312">
        <ele>1923.4000244141</ele>
        <time>2013-08-10T07:08:55.000Z</time>
      </trkpt>
      <trkpt lat="42.70821" lon="1.37308">
        <ele>1924.4000244141</ele>
        <time>2013-08-10T07:09:01.000Z</time>
      </trkpt>
      <trkpt lat="42.70818" lon="1.37303">
        <ele>1926</ele>
        <time>2013-08-10T07:09:07.000Z</time>
      </trkpt>
      <trkpt lat="42.70816" lon="1.37302">
        <ele>1926.4000244141</ele>
        <time>2013-08-10T07:09:09.000Z</time>
      </trkpt>
      <trkpt lat="42.70813" lon="1.37299">
        <ele>1927</ele>
        <time>2013-08-10T07:09:12.000Z</time>
      </trkpt>
      <trkpt lat="42.70813" lon="1.37298">
        <ele>1927</ele>
        <time>2013-08-10T07:09:13.000Z</time>
      </trkpt>
      <trkpt lat="42.7081" lon="1.37295">
        <ele>1928</ele>
        <time>2013-08-10T07:09:17.000Z</time>
      </trkpt>
      <trkpt lat="42.70809" lon="1.37293">
        <ele>1928.4000244141</ele>
        <time>2013-08-10T07:09:19.000Z</time>
      </trkpt>
      <trkpt lat="42.70805" lon="1.37286">
        <ele>1929.8000488281</ele>
        <time>2013-08-10T07:09:26.000Z</time>
      </trkpt>
      <trkpt lat="42.70803" lon="1.37283">
        <ele>1930.8000488281</ele>
        <time>2013-08-10T07:09:30.000Z</time>
      </trkpt>
      <trkpt lat="42.70801" lon="1.37282">
        <ele>1931</ele>
        <time>2013-08-10T07:09:32.000Z</time>
      </trkpt>
      <trkpt lat="42.70799" lon="1.37277">
        <ele>1932</ele>
        <time>2013-08-10T07:09:37.000Z</time>
      </trkpt>
      <trkpt lat="42.70798" lon="1.37276">
        <ele>1932.4000244141</ele>
        <time>2013-08-10T07:09:38.000Z</time>
      </trkpt>
      <trkpt lat="42.70797" lon="1.37274">
        <ele>1933</ele>
        <time>2013-08-10T07:09:41.000Z</time>
      </trkpt>
      <trkpt lat="42.70796" lon="1.37274">
        <ele>1933.4000244141</ele>
        <time>2013-08-10T07:09:43.000Z</time>
      </trkpt>
      <trkpt lat="42.70795" lon="1.37273">
        <ele>1933.4000244141</ele>
        <time>2013-08-10T07:09:44.000Z</time>
      </trkpt>
      <trkpt lat="42.70793" lon="1.37267">
        <ele>1934.4000244141</ele>
        <time>2013-08-10T07:09:49.000Z</time>
      </trkpt>
      <trkpt lat="42.7079" lon="1.37262">
        <ele>1935.8000488281</ele>
        <time>2013-08-10T07:09:55.000Z</time>
      </trkpt>
      <trkpt lat="42.70788" lon="1.3726">
        <ele>1936</ele>
        <time>2013-08-10T07:09:58.000Z</time>
      </trkpt>
      <trkpt lat="42.70787" lon="1.37257">
        <ele>1936.8000488281</ele>
        <time>2013-08-10T07:10:01.000Z</time>
      </trkpt>
      <trkpt lat="42.70786" lon="1.37255">
        <ele>1937</ele>
        <time>2013-08-10T07:10:02.000Z</time>
      </trkpt>
      <trkpt lat="42.70785" lon="1.37253">
        <ele>1937.8000488281</ele>
        <time>2013-08-10T07:10:06.000Z</time>
      </trkpt>
      <trkpt lat="42.70782" lon="1.37252">
        <ele>1938.8000488281</ele>
        <time>2013-08-10T07:10:11.000Z</time>
      </trkpt>
      <trkpt lat="42.70778" lon="1.37251">
        <ele>1939.8000488281</ele>
        <time>2013-08-10T07:10:16.000Z</time>
      </trkpt>
      <trkpt lat="42.70776" lon="1.37245">
        <ele>1941.4000244141</ele>
        <time>2013-08-10T07:10:23.000Z</time>
      </trkpt>
      <trkpt lat="42.70774" lon="1.37242">
        <ele>1942.4000244141</ele>
        <time>2013-08-10T07:10:27.000Z</time>
      </trkpt>
      <trkpt lat="42.70771" lon="1.3724">
        <ele>1944</ele>
        <time>2013-08-10T07:10:33.000Z</time>
      </trkpt>
      <trkpt lat="42.70768" lon="1.37239">
        <ele>1945</ele>
        <time>2013-08-10T07:10:38.000Z</time>
      </trkpt>
      <trkpt lat="42.70766" lon="1.37237">
        <ele>1946</ele>
        <time>2013-08-10T07:10:42.000Z</time>
      </trkpt>
      <trkpt lat="42.70764" lon="1.37233">
        <ele>1947</ele>
        <time>2013-08-10T07:10:47.000Z</time>
      </trkpt>
      <trkpt lat="42.70762" lon="1.37227">
        <ele>1948.8000488281</ele>
        <time>2013-08-10T07:10:54.000Z</time>
      </trkpt>
      <trkpt lat="42.7076" lon="1.37225">
        <ele>1950</ele>
        <time>2013-08-10T07:11:00.000Z</time>
      </trkpt>
      <trkpt lat="42.70758" lon="1.37221">
        <ele>1951</ele>
        <time>2013-08-10T07:11:04.000Z</time>
      </trkpt>
      <trkpt lat="42.70754" lon="1.37217">
        <ele>1952.4000244141</ele>
        <time>2013-08-10T07:11:10.000Z</time>
      </trkpt>
      <trkpt lat="42.70752" lon="1.37214">
        <ele>1953</ele>
        <time>2013-08-10T07:11:13.000Z</time>
      </trkpt>
      <trkpt lat="42.70751" lon="1.37213">
        <ele>1953.4000244141</ele>
        <time>2013-08-10T07:11:14.000Z</time>
      </trkpt>
      <trkpt lat="42.70749" lon="1.3721">
        <ele>1954.4000244141</ele>
        <time>2013-08-10T07:11:18.000Z</time>
      </trkpt>
      <trkpt lat="42.70748" lon="1.37209">
        <ele>1954.4000244141</ele>
        <time>2013-08-10T07:11:19.000Z</time>
      </trkpt>
      <trkpt lat="42.70746" lon="1.37207">
        <ele>1955.4000244141</ele>
        <time>2013-08-10T07:11:23.000Z</time>
      </trkpt>
      <trkpt lat="42.70743" lon="1.37205">
        <ele>1956.8000488281</ele>
        <time>2013-08-10T07:11:29.000Z</time>
      </trkpt>
      <trkpt lat="42.70739" lon="1.37203">
        <ele>1959</ele>
        <time>2013-08-10T07:11:41.000Z</time>
      </trkpt>
      <trkpt lat="42.70734" lon="1.37199">
        <ele>1960</ele>
        <time>2013-08-10T07:11:47.000Z</time>
      </trkpt>
      <trkpt lat="42.70732" lon="1.37198">
        <ele>1960.4000244141</ele>
        <time>2013-08-10T07:11:49.000Z</time>
      </trkpt>
      <trkpt lat="42.70729" lon="1.37198">
        <ele>1961</ele>
        <time>2013-08-10T07:11:53.000Z</time>
      </trkpt>
      <trkpt lat="42.70724" lon="1.37197">
        <ele>1962</ele>
        <time>2013-08-10T07:11:59.000Z</time>
      </trkpt>
      <trkpt lat="42.70722" lon="1.37196">
        <ele>1962.4000244141</ele>
        <time>2013-08-10T07:12:01.000Z</time>
      </trkpt>
      <trkpt lat="42.7072" lon="1.37192">
        <ele>1963.8000488281</ele>
        <time>2013-08-10T07:12:07.000Z</time>
      </trkpt>
      <trkpt lat="42.70718" lon="1.37191">
        <ele>1965</ele>
        <time>2013-08-10T07:12:14.000Z</time>
      </trkpt>
      <trkpt lat="42.70714" lon="1.3719">
        <ele>1965.4000244141</ele>
        <time>2013-08-10T07:12:18.000Z</time>
      </trkpt>
      <trkpt lat="42.70713" lon="1.37189">
        <ele>1965.8000488281</ele>
        <time>2013-08-10T07:12:19.000Z</time>
      </trkpt>
      <trkpt lat="42.70708" lon="1.37185">
        <ele>1966.4000244141</ele>
        <time>2013-08-10T07:12:25.000Z</time>
      </trkpt>
      <trkpt lat="42.70708" lon="1.37184">
        <ele>1966.8000488281</ele>
        <time>2013-08-10T07:12:26.000Z</time>
      </trkpt>
      <trkpt lat="42.70707" lon="1.37184">
        <ele>1967</ele>
        <time>2013-08-10T07:12:28.000Z</time>
      </trkpt>
      <trkpt lat="42.70706" lon="1.37184">
        <ele>1967</ele>
        <time>2013-08-10T07:12:29.000Z</time>
      </trkpt>
      <trkpt lat="42.70703" lon="1.37185">
        <ele>1967.8000488281</ele>
        <time>2013-08-10T07:12:33.000Z</time>
      </trkpt>
      <trkpt lat="42.70701" lon="1.37183">
        <ele>1968</ele>
        <time>2013-08-10T07:12:35.000Z</time>
      </trkpt>
      <trkpt lat="42.70699" lon="1.37182">
        <ele>1968.4000244141</ele>
        <time>2013-08-10T07:12:37.000Z</time>
      </trkpt>
      <trkpt lat="42.70699" lon="1.37181">
        <ele>1968.4000244141</ele>
        <time>2013-08-10T07:12:38.000Z</time>
      </trkpt>
      <trkpt lat="42.70697" lon="1.3718">
        <ele>1969</ele>
        <time>2013-08-10T07:12:42.000Z</time>
      </trkpt>
      <trkpt lat="42.707" lon="1.37182">
        <ele>1970</ele>
        <time>2013-08-10T07:12:51.000Z</time>
      </trkpt>
      <trkpt lat="42.70701" lon="1.37182">
        <ele>1970</ele>
        <time>2013-08-10T07:12:52.000Z</time>
      </trkpt>
      <trkpt lat="42.70706" lon="1.37184">
        <ele>1970.4000244141</ele>
        <time>2013-08-10T07:12:56.000Z</time>
      </trkpt>
      <trkpt lat="42.70711" lon="1.37186">
        <ele>1970.4000244141</ele>
        <time>2013-08-10T07:13:01.000Z</time>
      </trkpt>
      <trkpt lat="42.70713" lon="1.37187">
        <ele>1970.4000244141</ele>
        <time>2013-08-10T07:13:03.000Z</time>
      </trkpt>
      <trkpt lat="42.70716" lon="1.3719">
        <ele>1970.8000488281</ele>
        <time>2013-08-10T07:13:06.000Z</time>
      </trkpt>
      <trkpt lat="42.70719" lon="1.37191">
        <ele>1970.8000488281</ele>
        <time>2013-08-10T07:13:09.000Z</time>
      </trkpt>
      <trkpt lat="42.7072" lon="1.37191">
        <ele>1970.8000488281</ele>
        <time>2013-08-10T07:13:10.000Z</time>
      </trkpt>
      <trkpt lat="42.70721" lon="1.37192">
        <ele>1970.8000488281</ele>
        <time>2013-08-10T07:13:11.000Z</time>
      </trkpt>
      <trkpt lat="42.70724" lon="1.37195">
        <ele>1970.8000488281</ele>
        <time>2013-08-10T07:13:14.000Z</time>
      </trkpt>
      <trkpt lat="42.70726" lon="1.37197">
        <ele>1970.4000244141</ele>
        <time>2013-08-10T07:13:16.000Z</time>
      </trkpt>
      <trkpt lat="42.70727" lon="1.37197">
        <ele>1970.4000244141</ele>
        <time>2013-08-10T07:13:17.000Z</time>
      </trkpt>
      <trkpt lat="42.70727" lon="1.37198">
        <ele>1970.4000244141</ele>
        <time>2013-08-10T07:13:21.000Z</time>
      </trkpt>
      <trkpt lat="42.70726" lon="1.37197">
        <ele>1970.8000488281</ele>
        <time>2013-08-10T07:13:51.000Z</time>
      </trkpt>
      <trkpt lat="42.70732" lon="1.37198">
        <ele>1971</ele>
        <time>2013-08-10T07:13:56.000Z</time>
      </trkpt>
      <trkpt lat="42.70739" lon="1.37202">
        <ele>1970.8000488281</ele>
        <time>2013-08-10T07:14:02.000Z</time>
      </trkpt>
      <trkpt lat="42.70739" lon="1.37202">
        <ele>1970.8000488281</ele>
        <time>2013-08-10T07:14:07.000Z</time>
      </trkpt>
      <trkpt lat="42.70735" lon="1.372">
        <ele>1970.4000244141</ele>
        <time>2013-08-10T07:14:18.000Z</time>
      </trkpt>
      <trkpt lat="42.70735" lon="1.37199">
        <ele>1970.4000244141</ele>
        <time>2013-08-10T07:14:24.000Z</time>
      </trkpt>
      <trkpt lat="42.70736" lon="1.372">
        <ele>1970.4000244141</ele>
        <time>2013-08-10T07:14:25.000Z</time>
      </trkpt>
      <trkpt lat="42.70741" lon="1.37204">
        <ele>1970.4000244141</ele>
        <time>2013-08-10T07:14:29.000Z</time>
      </trkpt>
      <trkpt lat="42.70743" lon="1.37205">
        <ele>1970.4000244141</ele>
        <time>2013-08-10T07:14:31.000Z</time>
      </trkpt>
      <trkpt lat="42.70747" lon="1.37207">
        <ele>1970.4000244141</ele>
        <time>2013-08-10T07:14:34.000Z</time>
      </trkpt>
      <trkpt lat="42.70748" lon="1.37208">
        <ele>1970.4000244141</ele>
        <time>2013-08-10T07:14:35.000Z</time>
      </trkpt>
      <trkpt lat="42.70753" lon="1.37213">
        <ele>1970.4000244141</ele>
        <time>2013-08-10T07:14:40.000Z</time>
      </trkpt>
      <trkpt lat="42.70757" lon="1.37218">
        <ele>1970</ele>
        <time>2013-08-10T07:14:44.000Z</time>
      </trkpt>
      <trkpt lat="42.70757" lon="1.37219">
        <ele>1970</ele>
        <time>2013-08-10T07:14:45.000Z</time>
      </trkpt>
      <trkpt lat="42.7076" lon="1.37222">
        <ele>1970</ele>
        <time>2013-08-10T07:14:48.000Z</time>
      </trkpt>
      <trkpt lat="42.7076" lon="1.37222">
        <ele>1970</ele>
        <time>2013-08-10T07:14:49.000Z</time>
      </trkpt>
      <trkpt lat="42.70761" lon="1.37223">
        <ele>1970</ele>
        <time>2013-08-10T07:14:50.000Z</time>
      </trkpt>
      <trkpt lat="42.70763" lon="1.37227">
        <ele>1969.8000488281</ele>
        <time>2013-08-10T07:14:54.000Z</time>
      </trkpt>
      <trkpt lat="42.70764" lon="1.37228">
        <ele>1969.8000488281</ele>
        <time>2013-08-10T07:14:55.000Z</time>
      </trkpt>
      <trkpt lat="42.70767" lon="1.37235">
        <ele>1969.4000244141</ele>
        <time>2013-08-10T07:15:00.000Z</time>
      </trkpt>
      <trkpt lat="42.70767" lon="1.37235">
        <ele>1969</ele>
        <time>2013-08-10T07:15:06.000Z</time>
      </trkpt>
      <trkpt lat="42.70766" lon="1.37234">
        <ele>1966.4000244141</ele>
        <time>2013-08-10T07:15:53.000Z</time>
      </trkpt>
      <trkpt lat="42.70765" lon="1.37234">
        <ele>1966</ele>
        <time>2013-08-10T07:15:58.000Z</time>
      </trkpt>
      <trkpt lat="42.70768" lon="1.37238">
        <ele>1965.4000244141</ele>
        <time>2013-08-10T07:16:10.000Z</time>
      </trkpt>
      <trkpt lat="42.70772" lon="1.3724">
        <ele>1965</ele>
        <time>2013-08-10T07:16:14.000Z</time>
      </trkpt>
      <trkpt lat="42.70774" lon="1.37241">
        <ele>1965</ele>
        <time>2013-08-10T07:16:16.000Z</time>
      </trkpt>
      <trkpt lat="42.70779" lon="1.37248">
        <ele>1964.4000244141</ele>
        <time>2013-08-10T07:16:22.000Z</time>
      </trkpt>
      <trkpt lat="42.70782" lon="1.37253">
        <ele>1964</ele>
        <time>2013-08-10T07:16:28.000Z</time>
      </trkpt>
      <trkpt lat="42.70788" lon="1.37256">
        <ele>1963.4000244141</ele>
        <time>2013-08-10T07:16:33.000Z</time>
      </trkpt>
      <trkpt lat="42.70791" lon="1.3726">
        <ele>1963</ele>
        <time>2013-08-10T07:16:37.000Z</time>
      </trkpt>
      <trkpt lat="42.70791" lon="1.37261">
        <ele>1963</ele>
        <time>2013-08-10T07:16:38.000Z</time>
      </trkpt>
      <trkpt lat="42.70792" lon="1.37262">
        <ele>1963</ele>
        <time>2013-08-10T07:16:39.000Z</time>
      </trkpt>
      <trkpt lat="42.70796" lon="1.37267">
        <ele>1962.4000244141</ele>
        <time>2013-08-10T07:16:42.000Z</time>
      </trkpt>
      <trkpt lat="42.70798" lon="1.37272">
        <ele>1962</ele>
        <time>2013-08-10T07:16:46.000Z</time>
      </trkpt>
      <trkpt lat="42.70799" lon="1.37273">
        <ele>1962</ele>
        <time>2013-08-10T07:16:47.000Z</time>
      </trkpt>
      <trkpt lat="42.70802" lon="1.37277">
        <ele>1961.4000244141</ele>
        <time>2013-08-10T07:16:51.000Z</time>
      </trkpt>
      <trkpt lat="42.70803" lon="1.37278">
        <ele>1961.4000244141</ele>
        <time>2013-08-10T07:16:52.000Z</time>
      </trkpt>
      <trkpt lat="42.70805" lon="1.37281">
        <ele>1961</ele>
        <time>2013-08-10T07:16:54.000Z</time>
      </trkpt>
      <trkpt lat="42.70807" lon="1.37282">
        <ele>1960.8000488281</ele>
        <time>2013-08-10T07:16:56.000Z</time>
      </trkpt>
      <trkpt lat="42.70811" lon="1.37288">
        <ele>1960</ele>
        <time>2013-08-10T07:17:01.000Z</time>
      </trkpt>
      <trkpt lat="42.70812" lon="1.3729">
        <ele>1960</ele>
        <time>2013-08-10T07:17:02.000Z</time>
      </trkpt>
      <trkpt lat="42.70815" lon="1.37294">
        <ele>1959.8000488281</ele>
        <time>2013-08-10T07:17:05.000Z</time>
      </trkpt>
      <trkpt lat="42.70816" lon="1.37296">
        <ele>1959.4000244141</ele>
        <time>2013-08-10T07:17:07.000Z</time>
      </trkpt>
      <trkpt lat="42.70817" lon="1.37298">
        <ele>1959</ele>
        <time>2013-08-10T07:17:09.000Z</time>
      </trkpt>
      <trkpt lat="42.7082" lon="1.37302">
        <ele>1958.8000488281</ele>
        <time>2013-08-10T07:17:12.000Z</time>
      </trkpt>
      <trkpt lat="42.70821" lon="1.37303">
        <ele>1958.4000244141</ele>
        <time>2013-08-10T07:17:13.000Z</time>
      </trkpt>
      <trkpt lat="42.70826" lon="1.37309">
        <ele>1957.8000488281</ele>
        <time>2013-08-10T07:17:19.000Z</time>
      </trkpt>
      <trkpt lat="42.70828" lon="1.37313">
        <ele>1957</ele>
        <time>2013-08-10T07:17:23.000Z</time>
      </trkpt>
      <trkpt lat="42.70829" lon="1.37314">
        <ele>1957</ele>
        <time>2013-08-10T07:17:24.000Z</time>
      </trkpt>
      <trkpt lat="42.70831" lon="1.37317">
        <ele>1956.4000244141</ele>
        <time>2013-08-10T07:17:27.000Z</time>
      </trkpt>
      <trkpt lat="42.70833" lon="1.37323">
        <ele>1955.8000488281</ele>
        <time>2013-08-10T07:17:32.000Z</time>
      </trkpt>
      <trkpt lat="42.70838" lon="1.37327">
        <ele>1955</ele>
        <time>2013-08-10T07:17:37.000Z</time>
      </trkpt>
      <trkpt lat="42.7084" lon="1.3733">
        <ele>1954.4000244141</ele>
        <time>2013-08-10T07:17:39.000Z</time>
      </trkpt>
      <trkpt lat="42.70839" lon="1.37333">
        <ele>1954.4000244141</ele>
        <time>2013-08-10T07:17:41.000Z</time>
      </trkpt>
      <trkpt lat="42.70841" lon="1.3734">
        <ele>1953.4000244141</ele>
        <time>2013-08-10T07:17:46.000Z</time>
      </trkpt>
      <trkpt lat="42.70843" lon="1.37341">
        <ele>1953</ele>
        <time>2013-08-10T07:17:49.000Z</time>
      </trkpt>
      <trkpt lat="42.70845" lon="1.37342">
        <ele>1952.4000244141</ele>
        <time>2013-08-10T07:17:51.000Z</time>
      </trkpt>
      <trkpt lat="42.70848" lon="1.37349">
        <ele>1951.8000488281</ele>
        <time>2013-08-10T07:17:55.000Z</time>
      </trkpt>
      <trkpt lat="42.70847" lon="1.37351">
        <ele>1951.4000244141</ele>
        <time>2013-08-10T07:17:56.000Z</time>
      </trkpt>
      <trkpt lat="42.70848" lon="1.37355">
        <ele>1951</ele>
        <time>2013-08-10T07:17:59.000Z</time>
      </trkpt>
      <trkpt lat="42.70852" lon="1.37359">
        <ele>1950</ele>
        <time>2013-08-10T07:18:04.000Z</time>
      </trkpt>
      <trkpt lat="42.70854" lon="1.37365">
        <ele>1949.4000244141</ele>
        <time>2013-08-10T07:18:08.000Z</time>
      </trkpt>
      <trkpt lat="42.70856" lon="1.3737">
        <ele>1948.4000244141</ele>
        <time>2013-08-10T07:18:12.000Z</time>
      </trkpt>
      <trkpt lat="42.70857" lon="1.37372">
        <ele>1948.4000244141</ele>
        <time>2013-08-10T07:18:13.000Z</time>
      </trkpt>
      <trkpt lat="42.70856" lon="1.37377">
        <ele>1947.8000488281</ele>
        <time>2013-08-10T07:18:16.000Z</time>
      </trkpt>
      <trkpt lat="42.70856" lon="1.37381">
        <ele>1947.4000244141</ele>
        <time>2013-08-10T07:18:18.000Z</time>
      </trkpt>
      <trkpt lat="42.70859" lon="1.37386">
        <ele>1946</ele>
        <time>2013-08-10T07:18:23.000Z</time>
      </trkpt>
      <trkpt lat="42.70861" lon="1.37393">
        <ele>1945.4000244141</ele>
        <time>2013-08-10T07:18:27.000Z</time>
      </trkpt>
      <trkpt lat="42.70861" lon="1.37395">
        <ele>1945</ele>
        <time>2013-08-10T07:18:28.000Z</time>
      </trkpt>
      <trkpt lat="42.70862" lon="1.37403">
        <ele>1944</ele>
        <time>2013-08-10T07:18:33.000Z</time>
      </trkpt>
      <trkpt lat="42.70863" lon="1.37409">
        <ele>1943</ele>
        <time>2013-08-10T07:18:38.000Z</time>
      </trkpt>
      <trkpt lat="42.70864" lon="1.37411">
        <ele>1941.8000488281</ele>
        <time>2013-08-10T07:18:45.000Z</time>
      </trkpt>
      <trkpt lat="42.70866" lon="1.37415">
        <ele>1941</ele>
        <time>2013-08-10T07:18:48.000Z</time>
      </trkpt>
      <trkpt lat="42.70867" lon="1.37417">
        <ele>1940.8000488281</ele>
        <time>2013-08-10T07:18:50.000Z</time>
      </trkpt>
      <trkpt lat="42.7087" lon="1.3742">
        <ele>1940</ele>
        <time>2013-08-10T07:18:53.000Z</time>
      </trkpt>
      <trkpt lat="42.70871" lon="1.37423">
        <ele>1939.8000488281</ele>
        <time>2013-08-10T07:18:55.000Z</time>
      </trkpt>
      <trkpt lat="42.70871" lon="1.37426">
        <ele>1939.4000244141</ele>
        <time>2013-08-10T07:18:57.000Z</time>
      </trkpt>
      <trkpt lat="42.70871" lon="1.37427">
        <ele>1939</ele>
        <time>2013-08-10T07:19:00.000Z</time>
      </trkpt>
      <trkpt lat="42.70871" lon="1.3743">
        <ele>1937.4000244141</ele>
        <time>2013-08-10T07:19:09.000Z</time>
      </trkpt>
      <trkpt lat="42.70871" lon="1.37431">
        <ele>1937</ele>
        <time>2013-08-10T07:19:10.000Z</time>
      </trkpt>
      <trkpt lat="42.70874" lon="1.37437">
        <ele>1936.4000244141</ele>
        <time>2013-08-10T07:19:13.000Z</time>
      </trkpt>
      <trkpt lat="42.70875" lon="1.3744">
        <ele>1936.4000244141</ele>
        <time>2013-08-10T07:19:14.000Z</time>
      </trkpt>
      <trkpt lat="42.70875" lon="1.37442">
        <ele>1936.4000244141</ele>
        <time>2013-08-10T07:19:15.000Z</time>
      </trkpt>
      <trkpt lat="42.70879" lon="1.37451">
        <ele>1935.4000244141</ele>
        <time>2013-08-10T07:19:20.000Z</time>
      </trkpt>
      <trkpt lat="42.7088" lon="1.37454">
        <ele>1935</ele>
        <time>2013-08-10T07:19:22.000Z</time>
      </trkpt>
      <trkpt lat="42.70881" lon="1.3746">
        <ele>1934.4000244141</ele>
        <time>2013-08-10T07:19:25.000Z</time>
      </trkpt>
      <trkpt lat="42.70882" lon="1.37462">
        <ele>1934.4000244141</ele>
        <time>2013-08-10T07:19:26.000Z</time>
      </trkpt>
      <trkpt lat="42.70883" lon="1.37473">
        <ele>1933.4000244141</ele>
        <time>2013-08-10T07:19:32.000Z</time>
      </trkpt>
      <trkpt lat="42.70883" lon="1.37483">
        <ele>1932.8000488281</ele>
        <time>2013-08-10T07:19:37.000Z</time>
      </trkpt>
      <trkpt lat="42.70887" lon="1.3749">
        <ele>1932</ele>
        <time>2013-08-10T07:19:41.000Z</time>
      </trkpt>
      <trkpt lat="42.70887" lon="1.37492">
        <ele>1931.8000488281</ele>
        <time>2013-08-10T07:19:42.000Z</time>
      </trkpt>
      <trkpt lat="42.70893" lon="1.37504">
        <ele>1930.8000488281</ele>
        <time>2013-08-10T07:19:48.000Z</time>
      </trkpt>
      <trkpt lat="42.70898" lon="1.37512">
        <ele>1929.8000488281</ele>
        <time>2013-08-10T07:19:54.000Z</time>
      </trkpt>
      <trkpt lat="42.70899" lon="1.37517">
        <ele>1929.4000244141</ele>
        <time>2013-08-10T07:19:57.000Z</time>
      </trkpt>
      <trkpt lat="42.709" lon="1.3752">
        <ele>1929</ele>
        <time>2013-08-10T07:19:59.000Z</time>
      </trkpt>
      <trkpt lat="42.70901" lon="1.37525">
        <ele>1928</ele>
        <time>2013-08-10T07:20:04.000Z</time>
      </trkpt>
      <trkpt lat="42.70902" lon="1.37527">
        <ele>1928</ele>
        <time>2013-08-10T07:20:06.000Z</time>
      </trkpt>
      <trkpt lat="42.70903" lon="1.3753">
        <ele>1927.4000244141</ele>
        <time>2013-08-10T07:20:08.000Z</time>
      </trkpt>
      <trkpt lat="42.70905" lon="1.37536">
        <ele>1927</ele>
        <time>2013-08-10T07:20:12.000Z</time>
      </trkpt>
      <trkpt lat="42.70906" lon="1.3754">
        <ele>1926.4000244141</ele>
        <time>2013-08-10T07:20:15.000Z</time>
      </trkpt>
      <trkpt lat="42.70907" lon="1.37541">
        <ele>1926.4000244141</ele>
        <time>2013-08-10T07:20:16.000Z</time>
      </trkpt>
      <trkpt lat="42.70907" lon="1.37543">
        <ele>1926</ele>
        <time>2013-08-10T07:20:18.000Z</time>
      </trkpt>
      <trkpt lat="42.70907" lon="1.37544">
        <ele>1926</ele>
        <time>2013-08-10T07:20:20.000Z</time>
      </trkpt>
      <trkpt lat="42.70908" lon="1.37549">
        <ele>1925</ele>
        <time>2013-08-10T07:20:25.000Z</time>
      </trkpt>
      <trkpt lat="42.70909" lon="1.37554">
        <ele>1924.8000488281</ele>
        <time>2013-08-10T07:20:29.000Z</time>
      </trkpt>
      <trkpt lat="42.70911" lon="1.37559">
        <ele>1924.4000244141</ele>
        <time>2013-08-10T07:20:33.000Z</time>
      </trkpt>
      <trkpt lat="42.70913" lon="1.37564">
        <ele>1923.8000488281</ele>
        <time>2013-08-10T07:20:38.000Z</time>
      </trkpt>
      <trkpt lat="42.70914" lon="1.37564">
        <ele>1923.4000244141</ele>
        <time>2013-08-10T07:20:39.000Z</time>
      </trkpt>
      <trkpt lat="42.70918" lon="1.37567">
        <ele>1923.4000244141</ele>
        <time>2013-08-10T07:20:42.000Z</time>
      </trkpt>
      <trkpt lat="42.7092" lon="1.3757">
        <ele>1923</ele>
        <time>2013-08-10T07:20:45.000Z</time>
      </trkpt>
      <trkpt lat="42.70926" lon="1.37575">
        <ele>1922.4000244141</ele>
        <time>2013-08-10T07:20:51.000Z</time>
      </trkpt>
      <trkpt lat="42.70931" lon="1.37586">
        <ele>1921.4000244141</ele>
        <time>2013-08-10T07:20:57.000Z</time>
      </trkpt>
      <trkpt lat="42.70937" lon="1.37595">
        <ele>1920.8000488281</ele>
        <time>2013-08-10T07:21:03.000Z</time>
      </trkpt>
      <trkpt lat="42.7094" lon="1.376">
        <ele>1920</ele>
        <time>2013-08-10T07:21:08.000Z</time>
      </trkpt>
      <trkpt lat="42.7094" lon="1.37602">
        <ele>1920</ele>
        <time>2013-08-10T07:21:09.000Z</time>
      </trkpt>
      <trkpt lat="42.70942" lon="1.3761">
        <ele>1919.4000244141</ele>
        <time>2013-08-10T07:21:14.000Z</time>
      </trkpt>
      <trkpt lat="42.70945" lon="1.37617">
        <ele>1919</ele>
        <time>2013-08-10T07:21:19.000Z</time>
      </trkpt>
      <trkpt lat="42.70949" lon="1.37621">
        <ele>1918.8000488281</ele>
        <time>2013-08-10T07:21:22.000Z</time>
      </trkpt>
      <trkpt lat="42.7095" lon="1.37623">
        <ele>1918.4000244141</ele>
        <time>2013-08-10T07:21:23.000Z</time>
      </trkpt>
      <trkpt lat="42.70954" lon="1.37636">
        <ele>1917.8000488281</ele>
        <time>2013-08-10T07:21:31.000Z</time>
      </trkpt>
      <trkpt lat="42.70954" lon="1.37642">
        <ele>1917.4000244141</ele>
        <time>2013-08-10T07:21:35.000Z</time>
      </trkpt>
      <trkpt lat="42.70953" lon="1.37644">
        <ele>1917</ele>
        <time>2013-08-10T07:21:37.000Z</time>
      </trkpt>
      <trkpt lat="42.70954" lon="1.37651">
        <ele>1916.8000488281</ele>
        <time>2013-08-10T07:21:42.000Z</time>
      </trkpt>
      <trkpt lat="42.70956" lon="1.37654">
        <ele>1916.4000244141</ele>
        <time>2013-08-10T07:21:45.000Z</time>
      </trkpt>
      <trkpt lat="42.70957" lon="1.37656">
        <ele>1916</ele>
        <time>2013-08-10T07:21:47.000Z</time>
      </trkpt>
      <trkpt lat="42.70957" lon="1.37659">
        <ele>1915.4000244141</ele>
        <time>2013-08-10T07:21:56.000Z</time>
      </trkpt>
      <trkpt lat="42.70958" lon="1.37661">
        <ele>1915.4000244141</ele>
        <time>2013-08-10T07:21:58.000Z</time>
      </trkpt>
      <trkpt lat="42.70957" lon="1.37668">
        <ele>1915</ele>
        <time>2013-08-10T07:22:03.000Z</time>
      </trkpt>
      <trkpt lat="42.70958" lon="1.37671">
        <ele>1915</ele>
        <time>2013-08-10T07:22:05.000Z</time>
      </trkpt>
      <trkpt lat="42.70958" lon="1.37673">
        <ele>1914.8000488281</ele>
        <time>2013-08-10T07:22:06.000Z</time>
      </trkpt>
      <trkpt lat="42.70959" lon="1.37677">
        <ele>1914.4000244141</ele>
        <time>2013-08-10T07:22:09.000Z</time>
      </trkpt>
      <trkpt lat="42.70959" lon="1.37681">
        <ele>1914.4000244141</ele>
        <time>2013-08-10T07:22:12.000Z</time>
      </trkpt>
      <trkpt lat="42.70959" lon="1.37682">
        <ele>1914.4000244141</ele>
        <time>2013-08-10T07:22:13.000Z</time>
      </trkpt>
      <trkpt lat="42.7096" lon="1.37683">
        <ele>1914.4000244141</ele>
        <time>2013-08-10T07:22:14.000Z</time>
      </trkpt>
      <trkpt lat="42.7096" lon="1.37688">
        <ele>1914</ele>
        <time>2013-08-10T07:22:18.000Z</time>
      </trkpt>
      <trkpt lat="42.70961" lon="1.3769">
        <ele>1914</ele>
        <time>2013-08-10T07:22:19.000Z</time>
      </trkpt>
      <trkpt lat="42.70962" lon="1.37695">
        <ele>1913.8000488281</ele>
        <time>2013-08-10T07:22:24.000Z</time>
      </trkpt>
      <trkpt lat="42.70964" lon="1.37697">
        <ele>1913.4000244141</ele>
        <time>2013-08-10T07:22:26.000Z</time>
      </trkpt>
      <trkpt lat="42.70968" lon="1.37701">
        <ele>1913.4000244141</ele>
        <time>2013-08-10T07:22:31.000Z</time>
      </trkpt>
      <trkpt lat="42.70969" lon="1.37701">
        <ele>1913.4000244141</ele>
        <time>2013-08-10T07:22:32.000Z</time>
      </trkpt>
      <trkpt lat="42.70971" lon="1.37705">
        <ele>1913</ele>
        <time>2013-08-10T07:22:35.000Z</time>
      </trkpt>
      <trkpt lat="42.70973" lon="1.37709">
        <ele>1913</ele>
        <time>2013-08-10T07:22:40.000Z</time>
      </trkpt>
      <trkpt lat="42.70974" lon="1.37712">
        <ele>1912.8000488281</ele>
        <time>2013-08-10T07:22:43.000Z</time>
      </trkpt>
      <trkpt lat="42.70975" lon="1.37713">
        <ele>1912.4000244141</ele>
        <time>2013-08-10T07:22:44.000Z</time>
      </trkpt>
      <trkpt lat="42.70976" lon="1.37713">
        <ele>1912.4000244141</ele>
        <time>2013-08-10T07:22:46.000Z</time>
      </trkpt>
      <trkpt lat="42.70978" lon="1.37715">
        <ele>1912.4000244141</ele>
        <time>2013-08-10T07:22:50.000Z</time>
      </trkpt>
      <trkpt lat="42.70981" lon="1.37719">
        <ele>1912</ele>
        <time>2013-08-10T07:22:56.000Z</time>
      </trkpt>
      <trkpt lat="42.70981" lon="1.37721">
        <ele>1911.8000488281</ele>
        <time>2013-08-10T07:23:01.000Z</time>
      </trkpt>
      <trkpt lat="42.70983" lon="1.37725">
        <ele>1911.4000244141</ele>
        <time>2013-08-10T07:23:05.000Z</time>
      </trkpt>
      <trkpt lat="42.70986" lon="1.37728">
        <ele>1911</ele>
        <time>2013-08-10T07:23:11.000Z</time>
      </trkpt>
      <trkpt lat="42.70989" lon="1.37727">
        <ele>1911</ele>
        <time>2013-08-10T07:23:15.000Z</time>
      </trkpt>
      <trkpt lat="42.7099" lon="1.37728">
        <ele>1910.8000488281</ele>
        <time>2013-08-10T07:23:16.000Z</time>
      </trkpt>
      <trkpt lat="42.70993" lon="1.37736">
        <ele>1910.4000244141</ele>
        <time>2013-08-10T07:23:22.000Z</time>
      </trkpt>
      <trkpt lat="42.70994" lon="1.3774">
        <ele>1910</ele>
        <time>2013-08-10T07:23:26.000Z</time>
      </trkpt>
      <trkpt lat="42.70996" lon="1.37744">
        <ele>1909.4000244141</ele>
        <time>2013-08-10T07:23:29.000Z</time>
      </trkpt>
      <trkpt lat="42.70998" lon="1.37755">
        <ele>1909</ele>
        <time>2013-08-10T07:23:35.000Z</time>
      </trkpt>
      <trkpt lat="42.71" lon="1.37762">
        <ele>1908.4000244141</ele>
        <time>2013-08-10T07:23:40.000Z</time>
      </trkpt>
      <trkpt lat="42.71" lon="1.37768">
        <ele>1908</ele>
        <time>2013-08-10T07:23:44.000Z</time>
      </trkpt>
      <trkpt lat="42.71002" lon="1.37771">
        <ele>1908</ele>
        <time>2013-08-10T07:23:46.000Z</time>
      </trkpt>
      <trkpt lat="42.71003" lon="1.37772">
        <ele>1907.8000488281</ele>
        <time>2013-08-10T07:23:47.000Z</time>
      </trkpt>
      <trkpt lat="42.71003" lon="1.37773">
        <ele>1907.8000488281</ele>
        <time>2013-08-10T07:23:48.000Z</time>
      </trkpt>
      <trkpt lat="42.71004" lon="1.37779">
        <ele>1907.4000244141</ele>
        <time>2013-08-10T07:23:53.000Z</time>
      </trkpt>
      <trkpt lat="42.71004" lon="1.37779">
        <ele>1907</ele>
        <time>2013-08-10T07:23:54.000Z</time>
      </trkpt>
      <trkpt lat="42.71004" lon="1.3778">
        <ele>1907</ele>
        <time>2013-08-10T07:23:55.000Z</time>
      </trkpt>
      <trkpt lat="42.71005" lon="1.37783">
        <ele>1907</ele>
        <time>2013-08-10T07:23:57.000Z</time>
      </trkpt>
      <trkpt lat="42.71006" lon="1.3779">
        <ele>1906.4000244141</ele>
        <time>2013-08-10T07:24:04.000Z</time>
      </trkpt>
      <trkpt lat="42.71007" lon="1.37796">
        <ele>1905.8000488281</ele>
        <time>2013-08-10T07:24:10.000Z</time>
      </trkpt>
      <trkpt lat="42.71009" lon="1.37805">
        <ele>1905</ele>
        <time>2013-08-10T07:24:16.000Z</time>
      </trkpt>
      <trkpt lat="42.7101" lon="1.37808">
        <ele>1904.8000488281</ele>
        <time>2013-08-10T07:24:19.000Z</time>
      </trkpt>
      <trkpt lat="42.71011" lon="1.37811">
        <ele>1904.4000244141</ele>
        <time>2013-08-10T07:24:22.000Z</time>
      </trkpt>
      <trkpt lat="42.71011" lon="1.37813">
        <ele>1904.4000244141</ele>
        <time>2013-08-10T07:24:24.000Z</time>
      </trkpt>
      <trkpt lat="42.71012" lon="1.37817">
        <ele>1904</ele>
        <time>2013-08-10T07:24:27.000Z</time>
      </trkpt>
      <trkpt lat="42.71013" lon="1.37821">
        <ele>1903.8000488281</ele>
        <time>2013-08-10T07:24:30.000Z</time>
      </trkpt>
      <trkpt lat="42.71016" lon="1.37825">
        <ele>1903.4000244141</ele>
        <time>2013-08-10T07:24:34.000Z</time>
      </trkpt>
      <trkpt lat="42.71017" lon="1.37826">
        <ele>1903.4000244141</ele>
        <time>2013-08-10T07:24:35.000Z</time>
      </trkpt>
      <trkpt lat="42.71018" lon="1.37831">
        <ele>1903</ele>
        <time>2013-08-10T07:24:39.000Z</time>
      </trkpt>
      <trkpt lat="42.7102" lon="1.37837">
        <ele>1902.4000244141</ele>
        <time>2013-08-10T07:24:43.000Z</time>
      </trkpt>
      <trkpt lat="42.7102" lon="1.37839">
        <ele>1902.4000244141</ele>
        <time>2013-08-10T07:24:44.000Z</time>
      </trkpt>
      <trkpt lat="42.71021" lon="1.37842">
        <ele>1902</ele>
        <time>2013-08-10T07:24:47.000Z</time>
      </trkpt>
      <trkpt lat="42.71021" lon="1.37844">
        <ele>1902</ele>
        <time>2013-08-10T07:24:48.000Z</time>
      </trkpt>
      <trkpt lat="42.71021" lon="1.37851">
        <ele>1901.8000488281</ele>
        <time>2013-08-10T07:24:52.000Z</time>
      </trkpt>
      <trkpt lat="42.71022" lon="1.37852">
        <ele>1901.4000244141</ele>
        <time>2013-08-10T07:24:53.000Z</time>
      </trkpt>
      <trkpt lat="42.71022" lon="1.37854">
        <ele>1901.4000244141</ele>
        <time>2013-08-10T07:24:54.000Z</time>
      </trkpt>
      <trkpt lat="42.71024" lon="1.37856">
        <ele>1901</ele>
        <time>2013-08-10T07:24:56.000Z</time>
      </trkpt>
      <trkpt lat="42.71027" lon="1.37862">
        <ele>1900.8000488281</ele>
        <time>2013-08-10T07:25:01.000Z</time>
      </trkpt>
      <trkpt lat="42.71028" lon="1.37865">
        <ele>1900.4000244141</ele>
        <time>2013-08-10T07:25:03.000Z</time>
      </trkpt>
      <trkpt lat="42.71029" lon="1.37866">
        <ele>1900.4000244141</ele>
        <time>2013-08-10T07:25:04.000Z</time>
      </trkpt>
      <trkpt lat="42.71031" lon="1.37867">
        <ele>1900</ele>
        <time>2013-08-10T07:25:07.000Z</time>
      </trkpt>
      <trkpt lat="42.71033" lon="1.37869">
        <ele>1899.4000244141</ele>
        <time>2013-08-10T07:25:11.000Z</time>
      </trkpt>
      <trkpt lat="42.71033" lon="1.3787">
        <ele>1899.4000244141</ele>
        <time>2013-08-10T07:25:12.000Z</time>
      </trkpt>
      <trkpt lat="42.71036" lon="1.37873">
        <ele>1899</ele>
        <time>2013-08-10T07:25:17.000Z</time>
      </trkpt>
      <trkpt lat="42.71035" lon="1.3788">
        <ele>1898.4000244141</ele>
        <time>2013-08-10T07:25:23.000Z</time>
      </trkpt>
      <trkpt lat="42.71036" lon="1.37884">
        <ele>1898</ele>
        <time>2013-08-10T07:25:27.000Z</time>
      </trkpt>
      <trkpt lat="42.71036" lon="1.37886">
        <ele>1897.8000488281</ele>
        <time>2013-08-10T07:25:28.000Z</time>
      </trkpt>
      <trkpt lat="42.71037" lon="1.3789">
        <ele>1897.4000244141</ele>
        <time>2013-08-10T07:25:32.000Z</time>
      </trkpt>
      <trkpt lat="42.71037" lon="1.3789">
        <ele>1897.4000244141</ele>
        <time>2013-08-10T07:25:33.000Z</time>
      </trkpt>
      <trkpt lat="42.71038" lon="1.37894">
        <ele>1897</ele>
        <time>2013-08-10T07:25:37.000Z</time>
      </trkpt>
      <trkpt lat="42.71039" lon="1.37899">
        <ele>1896.4000244141</ele>
        <time>2013-08-10T07:25:42.000Z</time>
      </trkpt>
      <trkpt lat="42.7104" lon="1.37905">
        <ele>1895.8000488281</ele>
        <time>2013-08-10T07:25:49.000Z</time>
      </trkpt>
      <trkpt lat="42.71041" lon="1.3791">
        <ele>1895.4000244141</ele>
        <time>2013-08-10T07:25:52.000Z</time>
      </trkpt>
      <trkpt lat="42.71041" lon="1.37911">
        <ele>1895.4000244141</ele>
        <time>2013-08-10T07:25:53.000Z</time>
      </trkpt>
      <trkpt lat="42.71041" lon="1.37913">
        <ele>1895</ele>
        <time>2013-08-10T07:25:55.000Z</time>
      </trkpt>
      <trkpt lat="42.71044" lon="1.37916">
        <ele>1894.4000244141</ele>
        <time>2013-08-10T07:25:59.000Z</time>
      </trkpt>
      <trkpt lat="42.71046" lon="1.3792">
        <ele>1893.8000488281</ele>
        <time>2013-08-10T07:26:05.000Z</time>
      </trkpt>
      <trkpt lat="42.7105" lon="1.37924">
        <ele>1893</ele>
        <time>2013-08-10T07:26:11.000Z</time>
      </trkpt>
      <trkpt lat="42.71051" lon="1.37928">
        <ele>1892.4000244141</ele>
        <time>2013-08-10T07:26:14.000Z</time>
      </trkpt>
      <trkpt lat="42.71051" lon="1.3793">
        <ele>1892.4000244141</ele>
        <time>2013-08-10T07:26:16.000Z</time>
      </trkpt>
      <trkpt lat="42.71052" lon="1.37932">
        <ele>1892</ele>
        <time>2013-08-10T07:26:18.000Z</time>
      </trkpt>
      <trkpt lat="42.71054" lon="1.37937">
        <ele>1891.4000244141</ele>
        <time>2013-08-10T07:26:22.000Z</time>
      </trkpt>
      <trkpt lat="42.71057" lon="1.37939">
        <ele>1891</ele>
        <time>2013-08-10T07:26:26.000Z</time>
      </trkpt>
      <trkpt lat="42.71058" lon="1.3794">
        <ele>1890.8000488281</ele>
        <time>2013-08-10T07:26:27.000Z</time>
      </trkpt>
      <trkpt lat="42.71058" lon="1.3794">
        <ele>1890.4000244141</ele>
        <time>2013-08-10T07:26:28.000Z</time>
      </trkpt>
      <trkpt lat="42.71062" lon="1.37942">
        <ele>1890</ele>
        <time>2013-08-10T07:26:32.000Z</time>
      </trkpt>
      <trkpt lat="42.71064" lon="1.37948">
        <ele>1889</ele>
        <time>2013-08-10T07:26:37.000Z</time>
      </trkpt>
      <trkpt lat="42.71064" lon="1.37949">
        <ele>1889</ele>
        <time>2013-08-10T07:26:38.000Z</time>
      </trkpt>
      <trkpt lat="42.71065" lon="1.3795">
        <ele>1889</ele>
        <time>2013-08-10T07:26:39.000Z</time>
      </trkpt>
      <trkpt lat="42.71067" lon="1.37952">
        <ele>1888.4000244141</ele>
        <time>2013-08-10T07:26:41.000Z</time>
      </trkpt>
      <trkpt lat="42.71069" lon="1.37955">
        <ele>1888</ele>
        <time>2013-08-10T07:26:44.000Z</time>
      </trkpt>
      <trkpt lat="42.71071" lon="1.37958">
        <ele>1887.8000488281</ele>
        <time>2013-08-10T07:26:46.000Z</time>
      </trkpt>
      <trkpt lat="42.71074" lon="1.37966">
        <ele>1887</ele>
        <time>2013-08-10T07:26:52.000Z</time>
      </trkpt>
      <trkpt lat="42.71078" lon="1.37971">
        <ele>1886.4000244141</ele>
        <time>2013-08-10T07:26:57.000Z</time>
      </trkpt>
      <trkpt lat="42.71078" lon="1.37972">
        <ele>1886</ele>
        <time>2013-08-10T07:26:58.000Z</time>
      </trkpt>
      <trkpt lat="42.71082" lon="1.37978">
        <ele>1885.4000244141</ele>
        <time>2013-08-10T07:27:03.000Z</time>
      </trkpt>
      <trkpt lat="42.71086" lon="1.37985">
        <ele>1884.8000488281</ele>
        <time>2013-08-10T07:27:09.000Z</time>
      </trkpt>
      <trkpt lat="42.71086" lon="1.37988">
        <ele>1884.4000244141</ele>
        <time>2013-08-10T07:27:11.000Z</time>
      </trkpt>
      <trkpt lat="42.71088" lon="1.37992">
        <ele>1884</ele>
        <time>2013-08-10T07:27:15.000Z</time>
      </trkpt>
      <trkpt lat="42.7109" lon="1.37997">
        <ele>1883.4000244141</ele>
        <time>2013-08-10T07:27:18.000Z</time>
      </trkpt>
      <trkpt lat="42.71091" lon="1.37998">
        <ele>1883.4000244141</ele>
        <time>2013-08-10T07:27:19.000Z</time>
      </trkpt>
      <trkpt lat="42.71092" lon="1.38002">
        <ele>1883</ele>
        <time>2013-08-10T07:27:22.000Z</time>
      </trkpt>
      <trkpt lat="42.71094" lon="1.38003">
        <ele>1883</ele>
        <time>2013-08-10T07:27:24.000Z</time>
      </trkpt>
      <trkpt lat="42.71099" lon="1.38006">
        <ele>1882.4000244141</ele>
        <time>2013-08-10T07:27:28.000Z</time>
      </trkpt>
      <trkpt lat="42.71101" lon="1.3801">
        <ele>1882</ele>
        <time>2013-08-10T07:27:31.000Z</time>
      </trkpt>
      <trkpt lat="42.71102" lon="1.38012">
        <ele>1881.8000488281</ele>
        <time>2013-08-10T07:27:33.000Z</time>
      </trkpt>
      <trkpt lat="42.71106" lon="1.38017">
        <ele>1881</ele>
        <time>2013-08-10T07:27:39.000Z</time>
      </trkpt>
      <trkpt lat="42.71109" lon="1.38023">
        <ele>1880</ele>
        <time>2013-08-10T07:27:45.000Z</time>
      </trkpt>
      <trkpt lat="42.71111" lon="1.38025">
        <ele>1879.8000488281</ele>
        <time>2013-08-10T07:27:47.000Z</time>
      </trkpt>
      <trkpt lat="42.71111" lon="1.38026">
        <ele>1879.4000244141</ele>
        <time>2013-08-10T07:27:48.000Z</time>
      </trkpt>
      <trkpt lat="42.71112" lon="1.3803">
        <ele>1879</ele>
        <time>2013-08-10T07:27:50.000Z</time>
      </trkpt>
      <trkpt lat="42.71112" lon="1.38035">
        <ele>1878.4000244141</ele>
        <time>2013-08-10T07:27:54.000Z</time>
      </trkpt>
      <trkpt lat="42.71116" lon="1.38039">
        <ele>1877.8000488281</ele>
        <time>2013-08-10T07:28:00.000Z</time>
      </trkpt>
      <trkpt lat="42.71117" lon="1.38043">
        <ele>1877</ele>
        <time>2013-08-10T07:28:04.000Z</time>
      </trkpt>
      <trkpt lat="42.71121" lon="1.38046">
        <ele>1876</ele>
        <time>2013-08-10T07:28:10.000Z</time>
      </trkpt>
      <trkpt lat="42.71123" lon="1.3805">
        <ele>1875</ele>
        <time>2013-08-10T07:28:16.000Z</time>
      </trkpt>
      <trkpt lat="42.71124" lon="1.38057">
        <ele>1873.4000244141</ele>
        <time>2013-08-10T07:28:27.000Z</time>
      </trkpt>
      <trkpt lat="42.71123" lon="1.38058">
        <ele>1873.4000244141</ele>
        <time>2013-08-10T07:28:28.000Z</time>
      </trkpt>
      <trkpt lat="42.71123" lon="1.38062">
        <ele>1872.8000488281</ele>
        <time>2013-08-10T07:28:31.000Z</time>
      </trkpt>
      <trkpt lat="42.71122" lon="1.38065">
        <ele>1872.4000244141</ele>
        <time>2013-08-10T07:28:33.000Z</time>
      </trkpt>
      <trkpt lat="42.71121" lon="1.38066">
        <ele>1872</ele>
        <time>2013-08-10T07:28:36.000Z</time>
      </trkpt>
      <trkpt lat="42.71122" lon="1.38067">
        <ele>1871</ele>
        <time>2013-08-10T07:28:41.000Z</time>
      </trkpt>
      <trkpt lat="42.71122" lon="1.38073">
        <ele>1870.4000244141</ele>
        <time>2013-08-10T07:28:46.000Z</time>
      </trkpt>
      <trkpt lat="42.71123" lon="1.3808">
        <ele>1869.8000488281</ele>
        <time>2013-08-10T07:28:51.000Z</time>
      </trkpt>
      <trkpt lat="42.71123" lon="1.38081">
        <ele>1869.4000244141</ele>
        <time>2013-08-10T07:28:52.000Z</time>
      </trkpt>
      <trkpt lat="42.71124" lon="1.38085">
        <ele>1869</ele>
        <time>2013-08-10T07:28:55.000Z</time>
      </trkpt>
      <trkpt lat="42.71125" lon="1.38092">
        <ele>1868.4000244141</ele>
        <time>2013-08-10T07:29:00.000Z</time>
      </trkpt>
      <trkpt lat="42.71127" lon="1.38098">
        <ele>1867.4000244141</ele>
        <time>2013-08-10T07:29:06.000Z</time>
      </trkpt>
      <trkpt lat="42.71127" lon="1.381">
        <ele>1867</ele>
        <time>2013-08-10T07:29:07.000Z</time>
      </trkpt>
      <trkpt lat="42.71127" lon="1.38101">
        <ele>1867</ele>
        <time>2013-08-10T07:29:08.000Z</time>
      </trkpt>
      <trkpt lat="42.71129" lon="1.38103">
        <ele>1866.4000244141</ele>
        <time>2013-08-10T07:29:12.000Z</time>
      </trkpt>
      <trkpt lat="42.71133" lon="1.38106">
        <ele>1865.4000244141</ele>
        <time>2013-08-10T07:29:18.000Z</time>
      </trkpt>
      <trkpt lat="42.71135" lon="1.38108">
        <ele>1864.4000244141</ele>
        <time>2013-08-10T07:29:22.000Z</time>
      </trkpt>
      <trkpt lat="42.7114" lon="1.38114">
        <ele>1863.4000244141</ele>
        <time>2013-08-10T07:29:27.000Z</time>
      </trkpt>
      <trkpt lat="42.71144" lon="1.38122">
        <ele>1862.8000488281</ele>
        <time>2013-08-10T07:29:31.000Z</time>
      </trkpt>
      <trkpt lat="42.71147" lon="1.38129">
        <ele>1861.8000488281</ele>
        <time>2013-08-10T07:29:36.000Z</time>
      </trkpt>
      <trkpt lat="42.71151" lon="1.38138">
        <ele>1861</ele>
        <time>2013-08-10T07:29:41.000Z</time>
      </trkpt>
      <trkpt lat="42.71155" lon="1.38148">
        <ele>1859.8000488281</ele>
        <time>2013-08-10T07:29:48.000Z</time>
      </trkpt>
      <trkpt lat="42.71157" lon="1.38153">
        <ele>1859</ele>
        <time>2013-08-10T07:29:52.000Z</time>
      </trkpt>
      <trkpt lat="42.71158" lon="1.38155">
        <ele>1859</ele>
        <time>2013-08-10T07:29:53.000Z</time>
      </trkpt>
      <trkpt lat="42.71161" lon="1.38162">
        <ele>1858</ele>
        <time>2013-08-10T07:29:58.000Z</time>
      </trkpt>
      <trkpt lat="42.71166" lon="1.38169">
        <ele>1857</ele>
        <time>2013-08-10T07:30:03.000Z</time>
      </trkpt>
      <trkpt lat="42.71168" lon="1.38176">
        <ele>1856</ele>
        <time>2013-08-10T07:30:08.000Z</time>
      </trkpt>
      <trkpt lat="42.7117" lon="1.38179">
        <ele>1855</ele>
        <time>2013-08-10T07:30:13.000Z</time>
      </trkpt>
      <trkpt lat="42.7117" lon="1.3818">
        <ele>1855</ele>
        <time>2013-08-10T07:30:14.000Z</time>
      </trkpt>
      <trkpt lat="42.71167" lon="1.38186">
        <ele>1854</ele>
        <time>2013-08-10T07:30:19.000Z</time>
      </trkpt>
      <trkpt lat="42.71169" lon="1.3819">
        <ele>1853</ele>
        <time>2013-08-10T07:30:24.000Z</time>
      </trkpt>
      <trkpt lat="42.7117" lon="1.38191">
        <ele>1853</ele>
        <time>2013-08-10T07:30:25.000Z</time>
      </trkpt>
      <trkpt lat="42.71173" lon="1.38194">
        <ele>1852</ele>
        <time>2013-08-10T07:30:30.000Z</time>
      </trkpt>
      <trkpt lat="42.71176" lon="1.38201">
        <ele>1851</ele>
        <time>2013-08-10T07:30:35.000Z</time>
      </trkpt>
      <trkpt lat="42.71178" lon="1.38207">
        <ele>1850</ele>
        <time>2013-08-10T07:30:39.000Z</time>
      </trkpt>
      <trkpt lat="42.71181" lon="1.38212">
        <ele>1849.4000244141</ele>
        <time>2013-08-10T07:30:43.000Z</time>
      </trkpt>
      <trkpt lat="42.71182" lon="1.38219">
        <ele>1848.4000244141</ele>
        <time>2013-08-10T07:30:48.000Z</time>
      </trkpt>
      <trkpt lat="42.71184" lon="1.38221">
        <ele>1848.4000244141</ele>
        <time>2013-08-10T07:30:49.000Z</time>
      </trkpt>
      <trkpt lat="42.71185" lon="1.38224">
        <ele>1847.8000488281</ele>
        <time>2013-08-10T07:30:52.000Z</time>
      </trkpt>
      <trkpt lat="42.71183" lon="1.38228">
        <ele>1846.8000488281</ele>
        <time>2013-08-10T07:30:57.000Z</time>
      </trkpt>
      <trkpt lat="42.71183" lon="1.3823">
        <ele>1846.8000488281</ele>
        <time>2013-08-10T07:30:58.000Z</time>
      </trkpt>
      <trkpt lat="42.71183" lon="1.3824">
        <ele>1845.8000488281</ele>
        <time>2013-08-10T07:31:03.000Z</time>
      </trkpt>
      <trkpt lat="42.71182" lon="1.38247">
        <ele>1845</ele>
        <time>2013-08-10T07:31:08.000Z</time>
      </trkpt>
      <trkpt lat="42.71183" lon="1.38251">
        <ele>1844</ele>
        <time>2013-08-10T07:31:12.000Z</time>
      </trkpt>
      <trkpt lat="42.71184" lon="1.38256">
        <ele>1843</ele>
        <time>2013-08-10T07:31:17.000Z</time>
      </trkpt>
      <trkpt lat="42.71185" lon="1.38257">
        <ele>1843</ele>
        <time>2013-08-10T07:31:18.000Z</time>
      </trkpt>
      <trkpt lat="42.71186" lon="1.3826">
        <ele>1842.4000244141</ele>
        <time>2013-08-10T07:31:20.000Z</time>
      </trkpt>
      <trkpt lat="42.71186" lon="1.38261">
        <ele>1842</ele>
        <time>2013-08-10T07:31:21.000Z</time>
      </trkpt>
      <trkpt lat="42.71188" lon="1.38275">
        <ele>1840.8000488281</ele>
        <time>2013-08-10T07:31:28.000Z</time>
      </trkpt>
      <trkpt lat="42.71188" lon="1.38279">
        <ele>1840</ele>
        <time>2013-08-10T07:31:31.000Z</time>
      </trkpt>
      <trkpt lat="42.71188" lon="1.38282">
        <ele>1839.4000244141</ele>
        <time>2013-08-10T07:31:33.000Z</time>
      </trkpt>
      <trkpt lat="42.71192" lon="1.38288">
        <ele>1838</ele>
        <time>2013-08-10T07:31:39.000Z</time>
      </trkpt>
      <trkpt lat="42.71194" lon="1.38295">
        <ele>1837</ele>
        <time>2013-08-10T07:31:44.000Z</time>
      </trkpt>
      <trkpt lat="42.71193" lon="1.38296">
        <ele>1836.8000488281</ele>
        <time>2013-08-10T07:31:45.000Z</time>
      </trkpt>
      <trkpt lat="42.71192" lon="1.38299">
        <ele>1836</ele>
        <time>2013-08-10T07:31:48.000Z</time>
      </trkpt>
      <trkpt lat="42.71192" lon="1.38305">
        <ele>1835.4000244141</ele>
        <time>2013-08-10T07:31:51.000Z</time>
      </trkpt>
      <trkpt lat="42.7119" lon="1.38316">
        <ele>1833.4000244141</ele>
        <time>2013-08-10T07:31:58.000Z</time>
      </trkpt>
      <trkpt lat="42.71191" lon="1.38317">
        <ele>1833.4000244141</ele>
        <time>2013-08-10T07:31:59.000Z</time>
      </trkpt>
      <trkpt lat="42.71193" lon="1.38322">
        <ele>1832.4000244141</ele>
        <time>2013-08-10T07:32:03.000Z</time>
      </trkpt>
      <trkpt lat="42.71195" lon="1.3833">
        <ele>1831</ele>
        <time>2013-08-10T07:32:09.000Z</time>
      </trkpt>
      <trkpt lat="42.71195" lon="1.38336">
        <ele>1829.8000488281</ele>
        <time>2013-08-10T07:32:14.000Z</time>
      </trkpt>
      <trkpt lat="42.71197" lon="1.38337">
        <ele>1829</ele>
        <time>2013-08-10T07:32:16.000Z</time>
      </trkpt>
      <trkpt lat="42.71198" lon="1.38338">
        <ele>1828.4000244141</ele>
        <time>2013-08-10T07:32:19.000Z</time>
      </trkpt>
      <trkpt lat="42.71202" lon="1.38342">
        <ele>1827.4000244141</ele>
        <time>2013-08-10T07:32:23.000Z</time>
      </trkpt>
      <trkpt lat="42.71202" lon="1.38344">
        <ele>1827.4000244141</ele>
        <time>2013-08-10T07:32:24.000Z</time>
      </trkpt>
      <trkpt lat="42.71203" lon="1.38349">
        <ele>1826.4000244141</ele>
        <time>2013-08-10T07:32:27.000Z</time>
      </trkpt>
      <trkpt lat="42.71202" lon="1.38351">
        <ele>1826.4000244141</ele>
        <time>2013-08-10T07:32:28.000Z</time>
      </trkpt>
      <trkpt lat="42.71201" lon="1.3836">
        <ele>1825</ele>
        <time>2013-08-10T07:32:34.000Z</time>
      </trkpt>
      <trkpt lat="42.712" lon="1.38368">
        <ele>1824</ele>
        <time>2013-08-10T07:32:39.000Z</time>
      </trkpt>
      <trkpt lat="42.71199" lon="1.38377">
        <ele>1822.4000244141</ele>
        <time>2013-08-10T07:32:45.000Z</time>
      </trkpt>
      <trkpt lat="42.71198" lon="1.38384">
        <ele>1821.4000244141</ele>
        <time>2013-08-10T07:32:50.000Z</time>
      </trkpt>
      <trkpt lat="42.71198" lon="1.3839">
        <ele>1820.4000244141</ele>
        <time>2013-08-10T07:32:54.000Z</time>
      </trkpt>
      <trkpt lat="42.71198" lon="1.38391">
        <ele>1820.4000244141</ele>
        <time>2013-08-10T07:32:55.000Z</time>
      </trkpt>
      <trkpt lat="42.71199" lon="1.38397">
        <ele>1819.4000244141</ele>
        <time>2013-08-10T07:32:59.000Z</time>
      </trkpt>
      <trkpt lat="42.71199" lon="1.38399">
        <ele>1819</ele>
        <time>2013-08-10T07:33:00.000Z</time>
      </trkpt>
      <trkpt lat="42.71201" lon="1.38403">
        <ele>1818.4000244141</ele>
        <time>2013-08-10T07:33:03.000Z</time>
      </trkpt>
      <trkpt lat="42.71201" lon="1.38406">
        <ele>1818</ele>
        <time>2013-08-10T07:33:06.000Z</time>
      </trkpt>
      <trkpt lat="42.71203" lon="1.38412">
        <ele>1816.4000244141</ele>
        <time>2013-08-10T07:33:13.000Z</time>
      </trkpt>
      <trkpt lat="42.71204" lon="1.38417">
        <ele>1816</ele>
        <time>2013-08-10T07:33:16.000Z</time>
      </trkpt>
      <trkpt lat="42.71205" lon="1.38421">
        <ele>1815.4000244141</ele>
        <time>2013-08-10T07:33:18.000Z</time>
      </trkpt>
      <trkpt lat="42.71206" lon="1.38425">
        <ele>1815</ele>
        <time>2013-08-10T07:33:21.000Z</time>
      </trkpt>
      <trkpt lat="42.71208" lon="1.38427">
        <ele>1814.4000244141</ele>
        <time>2013-08-10T07:33:23.000Z</time>
      </trkpt>
      <trkpt lat="42.71212" lon="1.38435">
        <ele>1813.8000488281</ele>
        <time>2013-08-10T07:33:28.000Z</time>
      </trkpt>
      <trkpt lat="42.71213" lon="1.38442">
        <ele>1812.8000488281</ele>
        <time>2013-08-10T07:33:33.000Z</time>
      </trkpt>
      <trkpt lat="42.71215" lon="1.38452">
        <ele>1811.4000244141</ele>
        <time>2013-08-10T07:33:40.000Z</time>
      </trkpt>
      <trkpt lat="42.71218" lon="1.38459">
        <ele>1810.8000488281</ele>
        <time>2013-08-10T07:33:45.000Z</time>
      </trkpt>
      <trkpt lat="42.71218" lon="1.38461">
        <ele>1810.4000244141</ele>
        <time>2013-08-10T07:33:46.000Z</time>
      </trkpt>
      <trkpt lat="42.71218" lon="1.38471">
        <ele>1809.4000244141</ele>
        <time>2013-08-10T07:33:52.000Z</time>
      </trkpt>
      <trkpt lat="42.71218" lon="1.38477">
        <ele>1809</ele>
        <time>2013-08-10T07:33:55.000Z</time>
      </trkpt>
      <trkpt lat="42.71219" lon="1.3848">
        <ele>1808.4000244141</ele>
        <time>2013-08-10T07:33:57.000Z</time>
      </trkpt>
      <trkpt lat="42.71222" lon="1.38489">
        <ele>1807.4000244141</ele>
        <time>2013-08-10T07:34:03.000Z</time>
      </trkpt>
      <trkpt lat="42.71221" lon="1.38491">
        <ele>1806.4000244141</ele>
        <time>2013-08-10T07:34:08.000Z</time>
      </trkpt>
      <trkpt lat="42.71223" lon="1.38496">
        <ele>1804.8000488281</ele>
        <time>2013-08-10T07:34:19.000Z</time>
      </trkpt>
      <trkpt lat="42.71221" lon="1.385">
        <ele>1804</ele>
        <time>2013-08-10T07:34:22.000Z</time>
      </trkpt>
      <trkpt lat="42.71219" lon="1.38503">
        <ele>1803.8000488281</ele>
        <time>2013-08-10T07:34:24.000Z</time>
      </trkpt>
      <trkpt lat="42.71219" lon="1.38504">
        <ele>1803.4000244141</ele>
        <time>2013-08-10T07:34:25.000Z</time>
      </trkpt>
      <trkpt lat="42.7122" lon="1.38507">
        <ele>1803</ele>
        <time>2013-08-10T07:34:28.000Z</time>
      </trkpt>
      <trkpt lat="42.71218" lon="1.38511">
        <ele>1802.4000244141</ele>
        <time>2013-08-10T07:34:32.000Z</time>
      </trkpt>
      <trkpt lat="42.71216" lon="1.38511">
        <ele>1802</ele>
        <time>2013-08-10T07:34:34.000Z</time>
      </trkpt>
      <trkpt lat="42.71215" lon="1.38512">
        <ele>1802</ele>
        <time>2013-08-10T07:34:35.000Z</time>
      </trkpt>
      <trkpt lat="42.71215" lon="1.38515">
        <ele>1801.4000244141</ele>
        <time>2013-08-10T07:34:37.000Z</time>
      </trkpt>
      <trkpt lat="42.71213" lon="1.38525">
        <ele>1800.8000488281</ele>
        <time>2013-08-10T07:34:42.000Z</time>
      </trkpt>
      <trkpt lat="42.71215" lon="1.38532">
        <ele>1799.8000488281</ele>
        <time>2013-08-10T07:34:47.000Z</time>
      </trkpt>
      <trkpt lat="42.71214" lon="1.38541">
        <ele>1799</ele>
        <time>2013-08-10T07:34:52.000Z</time>
      </trkpt>
      <trkpt lat="42.71213" lon="1.38545">
        <ele>1798.4000244141</ele>
        <time>2013-08-10T07:34:55.000Z</time>
      </trkpt>
      <trkpt lat="42.71213" lon="1.3855">
        <ele>1798</ele>
        <time>2013-08-10T07:34:58.000Z</time>
      </trkpt>
      <trkpt lat="42.71211" lon="1.38554">
        <ele>1797</ele>
        <time>2013-08-10T07:35:03.000Z</time>
      </trkpt>
      <trkpt lat="42.7121" lon="1.38556">
        <ele>1796.4000244141</ele>
        <time>2013-08-10T07:35:07.000Z</time>
      </trkpt>
      <trkpt lat="42.71209" lon="1.38559">
        <ele>1796.4000244141</ele>
        <time>2013-08-10T07:35:08.000Z</time>
      </trkpt>
      <trkpt lat="42.71209" lon="1.38559">
        <ele>1795.8000488281</ele>
        <time>2013-08-10T07:35:12.000Z</time>
      </trkpt>
      <trkpt lat="42.71207" lon="1.38561">
        <ele>1795</ele>
        <time>2013-08-10T07:35:19.000Z</time>
      </trkpt>
      <trkpt lat="42.71207" lon="1.38562">
        <ele>1794.4000244141</ele>
        <time>2013-08-10T07:35:21.000Z</time>
      </trkpt>
      <trkpt lat="42.71206" lon="1.38566">
        <ele>1794</ele>
        <time>2013-08-10T07:35:25.000Z</time>
      </trkpt>
      <trkpt lat="42.71207" lon="1.38574">
        <ele>1793.4000244141</ele>
        <time>2013-08-10T07:35:30.000Z</time>
      </trkpt>
      <trkpt lat="42.71209" lon="1.38583">
        <ele>1792.8000488281</ele>
        <time>2013-08-10T07:35:37.000Z</time>
      </trkpt>
      <trkpt lat="42.71208" lon="1.38585">
        <ele>1792</ele>
        <time>2013-08-10T07:35:43.000Z</time>
      </trkpt>
      <trkpt lat="42.71208" lon="1.38588">
        <ele>1791.4000244141</ele>
        <time>2013-08-10T07:35:49.000Z</time>
      </trkpt>
      <trkpt lat="42.71208" lon="1.38591">
        <ele>1791.4000244141</ele>
        <time>2013-08-10T07:35:51.000Z</time>
      </trkpt>
      <trkpt lat="42.71208" lon="1.38599">
        <ele>1791</ele>
        <time>2013-08-10T07:35:56.000Z</time>
      </trkpt>
      <trkpt lat="42.71208" lon="1.386">
        <ele>1791</ele>
        <time>2013-08-10T07:35:57.000Z</time>
      </trkpt>
      <trkpt lat="42.71207" lon="1.38604">
        <ele>1790.4000244141</ele>
        <time>2013-08-10T07:36:01.000Z</time>
      </trkpt>
      <trkpt lat="42.71207" lon="1.3861">
        <ele>1790</ele>
        <time>2013-08-10T07:36:06.000Z</time>
      </trkpt>
      <trkpt lat="42.71207" lon="1.3861">
        <ele>1790</ele>
        <time>2013-08-10T07:36:07.000Z</time>
      </trkpt>
      <trkpt lat="42.71206" lon="1.3861">
        <ele>1789.4000244141</ele>
        <time>2013-08-10T07:36:12.000Z</time>
      </trkpt>
      <trkpt lat="42.71206" lon="1.38614">
        <ele>1789</ele>
        <time>2013-08-10T07:36:22.000Z</time>
      </trkpt>
      <trkpt lat="42.71207" lon="1.38618">
        <ele>1788.4000244141</ele>
        <time>2013-08-10T07:36:28.000Z</time>
      </trkpt>
      <trkpt lat="42.71207" lon="1.38627">
        <ele>1788</ele>
        <time>2013-08-10T07:36:34.000Z</time>
      </trkpt>
      <trkpt lat="42.71208" lon="1.38629">
        <ele>1788</ele>
        <time>2013-08-10T07:36:36.000Z</time>
      </trkpt>
      <trkpt lat="42.71207" lon="1.38632">
        <ele>1787.4000244141</ele>
        <time>2013-08-10T07:36:40.000Z</time>
      </trkpt>
      <trkpt lat="42.71206" lon="1.38637">
        <ele>1787</ele>
        <time>2013-08-10T07:36:47.000Z</time>
      </trkpt>
      <trkpt lat="42.71204" lon="1.3864">
        <ele>1787</ele>
        <time>2013-08-10T07:36:51.000Z</time>
      </trkpt>
      <trkpt lat="42.71203" lon="1.38641">
        <ele>1786.4000244141</ele>
        <time>2013-08-10T07:36:58.000Z</time>
      </trkpt>
      <trkpt lat="42.71203" lon="1.3864">
        <ele>1786</ele>
        <time>2013-08-10T07:37:09.000Z</time>
      </trkpt>
      <trkpt lat="42.71204" lon="1.38641">
        <ele>1785.4000244141</ele>
        <time>2013-08-10T07:37:21.000Z</time>
      </trkpt>
      <trkpt lat="42.71201" lon="1.3864">
        <ele>1784.8000488281</ele>
        <time>2013-08-10T07:37:50.000Z</time>
      </trkpt>
      <trkpt lat="42.71203" lon="1.38639">
        <ele>1784.8000488281</ele>
        <time>2013-08-10T07:37:52.000Z</time>
      </trkpt>
      <trkpt lat="42.71202" lon="1.38635">
        <ele>1784.4000244141</ele>
        <time>2013-08-10T07:38:11.000Z</time>
      </trkpt>
      <trkpt lat="42.71202" lon="1.38628">
        <ele>1784.4000244141</ele>
        <time>2013-08-10T07:38:17.000Z</time>
      </trkpt>
      <trkpt lat="42.712" lon="1.38623">
        <ele>1784.4000244141</ele>
        <time>2013-08-10T07:38:22.000Z</time>
      </trkpt>
      <trkpt lat="42.71199" lon="1.38616">
        <ele>1784.4000244141</ele>
        <time>2013-08-10T07:38:28.000Z</time>
      </trkpt>
      <trkpt lat="42.71197" lon="1.3861">
        <ele>1784.4000244141</ele>
        <time>2013-08-10T07:38:34.000Z</time>
      </trkpt>
      <trkpt lat="42.71197" lon="1.38609">
        <ele>1784.8000488281</ele>
        <time>2013-08-10T07:38:40.000Z</time>
      </trkpt>
      <trkpt lat="42.71195" lon="1.38604">
        <ele>1784.8000488281</ele>
        <time>2013-08-10T07:38:50.000Z</time>
      </trkpt>
      <trkpt lat="42.71191" lon="1.38598">
        <ele>1784.8000488281</ele>
        <time>2013-08-10T07:38:57.000Z</time>
      </trkpt>
      <trkpt lat="42.71187" lon="1.38591">
        <ele>1784.8000488281</ele>
        <time>2013-08-10T07:39:04.000Z</time>
      </trkpt>
      <trkpt lat="42.71184" lon="1.38586">
        <ele>1784.8000488281</ele>
        <time>2013-08-10T07:39:10.000Z</time>
      </trkpt>
      <trkpt lat="42.71183" lon="1.38584">
        <ele>1785</ele>
        <time>2013-08-10T07:39:12.000Z</time>
      </trkpt>
      <trkpt lat="42.7118" lon="1.3858">
        <ele>1785</ele>
        <time>2013-08-10T07:39:16.000Z</time>
      </trkpt>
      <trkpt lat="42.71179" lon="1.3858">
        <ele>1785</ele>
        <time>2013-08-10T07:39:17.000Z</time>
      </trkpt>
      <trkpt lat="42.71175" lon="1.38577">
        <ele>1785</ele>
        <time>2013-08-10T07:39:23.000Z</time>
      </trkpt>
      <trkpt lat="42.71172" lon="1.38575">
        <ele>1785.4000244141</ele>
        <time>2013-08-10T07:39:26.000Z</time>
      </trkpt>
      <trkpt lat="42.71171" lon="1.38573">
        <ele>1785.4000244141</ele>
        <time>2013-08-10T07:39:28.000Z</time>
      </trkpt>
      <trkpt lat="42.71169" lon="1.38573">
        <ele>1785.4000244141</ele>
        <time>2013-08-10T07:39:29.000Z</time>
      </trkpt>
      <trkpt lat="42.71167" lon="1.3857">
        <ele>1785.4000244141</ele>
        <time>2013-08-10T07:39:33.000Z</time>
      </trkpt>
      <trkpt lat="42.71165" lon="1.38569">
        <ele>1785.4000244141</ele>
        <time>2013-08-10T07:39:35.000Z</time>
      </trkpt>
      <trkpt lat="42.71163" lon="1.38568">
        <ele>1785.8000488281</ele>
        <time>2013-08-10T07:39:38.000Z</time>
      </trkpt>
      <trkpt lat="42.7116" lon="1.38566">
        <ele>1786</ele>
        <time>2013-08-10T07:39:41.000Z</time>
      </trkpt>
      <trkpt lat="42.71159" lon="1.38567">
        <ele>1786</ele>
        <time>2013-08-10T07:39:43.000Z</time>
      </trkpt>
      <trkpt lat="42.71158" lon="1.38567">
        <ele>1786</ele>
        <time>2013-08-10T07:39:46.000Z</time>
      </trkpt>
      <trkpt lat="42.71157" lon="1.3857">
        <ele>1786.4000244141</ele>
        <time>2013-08-10T07:39:49.000Z</time>
      </trkpt>
      <trkpt lat="42.71156" lon="1.38574">
        <ele>1786.4000244141</ele>
        <time>2013-08-10T07:39:53.000Z</time>
      </trkpt>
      <trkpt lat="42.71154" lon="1.38573">
        <ele>1786.4000244141</ele>
        <time>2013-08-10T07:39:56.000Z</time>
      </trkpt>
      <trkpt lat="42.71151" lon="1.3857">
        <ele>1787</ele>
        <time>2013-08-10T07:40:01.000Z</time>
      </trkpt>
      <trkpt lat="42.71148" lon="1.38571">
        <ele>1787.4000244141</ele>
        <time>2013-08-10T07:40:06.000Z</time>
      </trkpt>
      <trkpt lat="42.71143" lon="1.38571">
        <ele>1788</ele>
        <time>2013-08-10T07:40:13.000Z</time>
      </trkpt>
      <trkpt lat="42.71141" lon="1.3857">
        <ele>1788.4000244141</ele>
        <time>2013-08-10T07:40:17.000Z</time>
      </trkpt>
      <trkpt lat="42.71138" lon="1.38569">
        <ele>1789</ele>
        <time>2013-08-10T07:40:22.000Z</time>
      </trkpt>
      <trkpt lat="42.71136" lon="1.38569">
        <ele>1789.4000244141</ele>
        <time>2013-08-10T07:40:26.000Z</time>
      </trkpt>
      <trkpt lat="42.71132" lon="1.38569">
        <ele>1790</ele>
        <time>2013-08-10T07:40:31.000Z</time>
      </trkpt>
      <trkpt lat="42.71129" lon="1.38567">
        <ele>1790.8000488281</ele>
        <time>2013-08-10T07:40:36.000Z</time>
      </trkpt>
      <trkpt lat="42.71123" lon="1.38565">
        <ele>1791.4000244141</ele>
        <time>2013-08-10T07:40:43.000Z</time>
      </trkpt>
      <trkpt lat="42.7112" lon="1.38562">
        <ele>1792</ele>
        <time>2013-08-10T07:40:48.000Z</time>
      </trkpt>
      <trkpt lat="42.71117" lon="1.38556">
        <ele>1793</ele>
        <time>2013-08-10T07:40:54.000Z</time>
      </trkpt>
      <trkpt lat="42.71116" lon="1.38554">
        <ele>1793</ele>
        <time>2013-08-10T07:40:56.000Z</time>
      </trkpt>
      <trkpt lat="42.71115" lon="1.38548">
        <ele>1793.4000244141</ele>
        <time>2013-08-10T07:41:00.000Z</time>
      </trkpt>
      <trkpt lat="42.71114" lon="1.38545">
        <ele>1794</ele>
        <time>2013-08-10T07:41:03.000Z</time>
      </trkpt>
      <trkpt lat="42.71111" lon="1.38543">
        <ele>1794</ele>
        <time>2013-08-10T07:41:06.000Z</time>
      </trkpt>
      <trkpt lat="42.71107" lon="1.38539">
        <ele>1794.4000244141</ele>
        <time>2013-08-10T07:41:11.000Z</time>
      </trkpt>
      <trkpt lat="42.71104" lon="1.38535">
        <ele>1795</ele>
        <time>2013-08-10T07:41:16.000Z</time>
      </trkpt>
      <trkpt lat="42.71104" lon="1.38534">
        <ele>1795.4000244141</ele>
        <time>2013-08-10T07:41:22.000Z</time>
      </trkpt>
      <trkpt lat="42.71106" lon="1.38533">
        <ele>1799.4000244141</ele>
        <time>2013-08-10T07:42:22.000Z</time>
      </trkpt>
      <trkpt lat="42.71103" lon="1.38531">
        <ele>1799.8000488281</ele>
        <time>2013-08-10T07:42:27.000Z</time>
      </trkpt>
      <trkpt lat="42.711" lon="1.38527">
        <ele>1800</ele>
        <time>2013-08-10T07:42:35.000Z</time>
      </trkpt>
      <trkpt lat="42.71098" lon="1.38526">
        <ele>1800</ele>
        <time>2013-08-10T07:42:39.000Z</time>
      </trkpt>
      <trkpt lat="42.71094" lon="1.38527">
        <ele>1800.4000244141</ele>
        <time>2013-08-10T07:42:41.000Z</time>
      </trkpt>
      <trkpt lat="42.71093" lon="1.38526">
        <ele>1800.4000244141</ele>
        <time>2013-08-10T07:42:43.000Z</time>
      </trkpt>
      <trkpt lat="42.71092" lon="1.38526">
        <ele>1800.4000244141</ele>
        <time>2013-08-10T07:42:45.000Z</time>
      </trkpt>
      <trkpt lat="42.7109" lon="1.38525">
        <ele>1800.4000244141</ele>
        <time>2013-08-10T07:42:48.000Z</time>
      </trkpt>
      <trkpt lat="42.71089" lon="1.38526">
        <ele>1801</ele>
        <time>2013-08-10T07:42:52.000Z</time>
      </trkpt>
      <trkpt lat="42.71089" lon="1.38531">
        <ele>1801.4000244141</ele>
        <time>2013-08-10T07:42:58.000Z</time>
      </trkpt>
      <trkpt lat="42.71089" lon="1.38535">
        <ele>1801.4000244141</ele>
        <time>2013-08-10T07:43:03.000Z</time>
      </trkpt>
      <trkpt lat="42.71088" lon="1.38535">
        <ele>1802</ele>
        <time>2013-08-10T07:43:08.000Z</time>
      </trkpt>
      <trkpt lat="42.71085" lon="1.38531">
        <ele>1802.4000244141</ele>
        <time>2013-08-10T07:43:13.000Z</time>
      </trkpt>
      <trkpt lat="42.71084" lon="1.3853">
        <ele>1802.4000244141</ele>
        <time>2013-08-10T07:43:14.000Z</time>
      </trkpt>
      <trkpt lat="42.71084" lon="1.38529">
        <ele>1802.8000488281</ele>
        <time>2013-08-10T07:43:17.000Z</time>
      </trkpt>
      <trkpt lat="42.71085" lon="1.38528">
        <ele>1803.4000244141</ele>
        <time>2013-08-10T07:43:27.000Z</time>
      </trkpt>
      <trkpt lat="42.71084" lon="1.3853">
        <ele>1804</ele>
        <time>2013-08-10T07:43:47.000Z</time>
      </trkpt>
      <trkpt lat="42.71084" lon="1.38529">
        <ele>1804.4000244141</ele>
        <time>2013-08-10T07:43:59.000Z</time>
      </trkpt>
      <trkpt lat="42.71083" lon="1.38529">
        <ele>1805.4000244141</ele>
        <time>2013-08-10T07:44:35.000Z</time>
      </trkpt>
      <trkpt lat="42.71084" lon="1.38529">
        <ele>1805.8000488281</ele>
        <time>2013-08-10T07:44:52.000Z</time>
      </trkpt>
      <trkpt lat="42.71083" lon="1.38529">
        <ele>1806</ele>
        <time>2013-08-10T07:46:04.000Z</time>
      </trkpt>
      <trkpt lat="42.71079" lon="1.38524">
        <ele>1806.4000244141</ele>
        <time>2013-08-10T07:46:12.000Z</time>
      </trkpt>
      <trkpt lat="42.71075" lon="1.3852">
        <ele>1806.4000244141</ele>
        <time>2013-08-10T07:46:18.000Z</time>
      </trkpt>
      <trkpt lat="42.71072" lon="1.38515">
        <ele>1806.4000244141</ele>
        <time>2013-08-10T07:46:23.000Z</time>
      </trkpt>
      <trkpt lat="42.7107" lon="1.38512">
        <ele>1806.8000488281</ele>
        <time>2013-08-10T07:46:26.000Z</time>
      </trkpt>
      <trkpt lat="42.71067" lon="1.3851">
        <ele>1807</ele>
        <time>2013-08-10T07:46:31.000Z</time>
      </trkpt>
      <trkpt lat="42.71066" lon="1.38508">
        <ele>1807.4000244141</ele>
        <time>2013-08-10T07:46:33.000Z</time>
      </trkpt>
      <trkpt lat="42.71062" lon="1.38505">
        <ele>1807.8000488281</ele>
        <time>2013-08-10T07:46:39.000Z</time>
      </trkpt>
      <trkpt lat="42.7106" lon="1.38503">
        <ele>1808</ele>
        <time>2013-08-10T07:46:43.000Z</time>
      </trkpt>
      <trkpt lat="42.71056" lon="1.38502">
        <ele>1808.4000244141</ele>
        <time>2013-08-10T07:46:47.000Z</time>
      </trkpt>
      <trkpt lat="42.71055" lon="1.38501">
        <ele>1808.8000488281</ele>
        <time>2013-08-10T07:46:51.000Z</time>
      </trkpt>
      <trkpt lat="42.71053" lon="1.38499">
        <ele>1809.4000244141</ele>
        <time>2013-08-10T07:46:57.000Z</time>
      </trkpt>
      <trkpt lat="42.71051" lon="1.38497">
        <ele>1810</ele>
        <time>2013-08-10T07:47:01.000Z</time>
      </trkpt>
      <trkpt lat="42.71047" lon="1.38493">
        <ele>1810.4000244141</ele>
        <time>2013-08-10T07:47:07.000Z</time>
      </trkpt>
      <trkpt lat="42.71044" lon="1.38489">
        <ele>1811</ele>
        <time>2013-08-10T07:47:13.000Z</time>
      </trkpt>
      <trkpt lat="42.7104" lon="1.38487">
        <ele>1812</ele>
        <time>2013-08-10T07:47:20.000Z</time>
      </trkpt>
      <trkpt lat="42.71035" lon="1.38486">
        <ele>1812.4000244141</ele>
        <time>2013-08-10T07:47:25.000Z</time>
      </trkpt>
      <trkpt lat="42.71032" lon="1.38485">
        <ele>1813</ele>
        <time>2013-08-10T07:47:30.000Z</time>
      </trkpt>
      <trkpt lat="42.71026" lon="1.3848">
        <ele>1814</ele>
        <time>2013-08-10T07:47:38.000Z</time>
      </trkpt>
      <trkpt lat="42.71023" lon="1.38477">
        <ele>1814.4000244141</ele>
        <time>2013-08-10T07:47:43.000Z</time>
      </trkpt>
      <trkpt lat="42.71018" lon="1.38475">
        <ele>1815</ele>
        <time>2013-08-10T07:47:49.000Z</time>
      </trkpt>
      <trkpt lat="42.71016" lon="1.38473">
        <ele>1815.4000244141</ele>
        <time>2013-08-10T07:47:53.000Z</time>
      </trkpt>
      <trkpt lat="42.7101" lon="1.38471">
        <ele>1816.4000244141</ele>
        <time>2013-08-10T07:48:00.000Z</time>
      </trkpt>
      <trkpt lat="42.71006" lon="1.38469">
        <ele>1817.4000244141</ele>
        <time>2013-08-10T07:48:06.000Z</time>
      </trkpt>
      <trkpt lat="42.71003" lon="1.38468">
        <ele>1818.4000244141</ele>
        <time>2013-08-10T07:48:12.000Z</time>
      </trkpt>
      <trkpt lat="42.71001" lon="1.38466">
        <ele>1819.4000244141</ele>
        <time>2013-08-10T07:48:17.000Z</time>
      </trkpt>
      <trkpt lat="42.70998" lon="1.38464">
        <ele>1820.4000244141</ele>
        <time>2013-08-10T07:48:23.000Z</time>
      </trkpt>
      <trkpt lat="42.70995" lon="1.38461">
        <ele>1821.4000244141</ele>
        <time>2013-08-10T07:48:28.000Z</time>
      </trkpt>
      <trkpt lat="42.70991" lon="1.38459">
        <ele>1822.8000488281</ele>
        <time>2013-08-10T07:48:36.000Z</time>
      </trkpt>
      <trkpt lat="42.70987" lon="1.38459">
        <ele>1824</ele>
        <time>2013-08-10T07:48:42.000Z</time>
      </trkpt>
      <trkpt lat="42.70985" lon="1.38458">
        <ele>1825</ele>
        <time>2013-08-10T07:48:46.000Z</time>
      </trkpt>
      <trkpt lat="42.70984" lon="1.38454">
        <ele>1826</ele>
        <time>2013-08-10T07:48:51.000Z</time>
      </trkpt>
      <trkpt lat="42.70982" lon="1.38452">
        <ele>1827</ele>
        <time>2013-08-10T07:48:55.000Z</time>
      </trkpt>
      <trkpt lat="42.70979" lon="1.38449">
        <ele>1828.4000244141</ele>
        <time>2013-08-10T07:49:02.000Z</time>
      </trkpt>
      <trkpt lat="42.70976" lon="1.38446">
        <ele>1829.4000244141</ele>
        <time>2013-08-10T07:49:07.000Z</time>
      </trkpt>
      <trkpt lat="42.70974" lon="1.38445">
        <ele>1830.4000244141</ele>
        <time>2013-08-10T07:49:11.000Z</time>
      </trkpt>
      <trkpt lat="42.70972" lon="1.38443">
        <ele>1831.4000244141</ele>
        <time>2013-08-10T07:49:16.000Z</time>
      </trkpt>
      <trkpt lat="42.70969" lon="1.3844">
        <ele>1832.4000244141</ele>
        <time>2013-08-10T07:49:22.000Z</time>
      </trkpt>
      <trkpt lat="42.70967" lon="1.38436">
        <ele>1833.8000488281</ele>
        <time>2013-08-10T07:49:28.000Z</time>
      </trkpt>
      <trkpt lat="42.70964" lon="1.38433">
        <ele>1835</ele>
        <time>2013-08-10T07:49:34.000Z</time>
      </trkpt>
      <trkpt lat="42.7096" lon="1.38431">
        <ele>1836</ele>
        <time>2013-08-10T07:49:40.000Z</time>
      </trkpt>
      <trkpt lat="42.70957" lon="1.38427">
        <ele>1837</ele>
        <time>2013-08-10T07:49:46.000Z</time>
      </trkpt>
      <trkpt lat="42.70954" lon="1.38424">
        <ele>1838</ele>
        <time>2013-08-10T07:49:51.000Z</time>
      </trkpt>
      <trkpt lat="42.70952" lon="1.3842">
        <ele>1838.8000488281</ele>
        <time>2013-08-10T07:49:55.000Z</time>
      </trkpt>
      <trkpt lat="42.7095" lon="1.38417">
        <ele>1840</ele>
        <time>2013-08-10T07:50:01.000Z</time>
      </trkpt>
      <trkpt lat="42.70948" lon="1.38414">
        <ele>1840.4000244141</ele>
        <time>2013-08-10T07:50:05.000Z</time>
      </trkpt>
      <trkpt lat="42.70946" lon="1.38411">
        <ele>1841.4000244141</ele>
        <time>2013-08-10T07:50:10.000Z</time>
      </trkpt>
      <trkpt lat="42.70944" lon="1.38406">
        <ele>1842</ele>
        <time>2013-08-10T07:50:15.000Z</time>
      </trkpt>
      <trkpt lat="42.70943" lon="1.38402">
        <ele>1843</ele>
        <time>2013-08-10T07:50:21.000Z</time>
      </trkpt>
      <trkpt lat="42.70941" lon="1.384">
        <ele>1843.8000488281</ele>
        <time>2013-08-10T07:50:25.000Z</time>
      </trkpt>
      <trkpt lat="42.70938" lon="1.38399">
        <ele>1845</ele>
        <time>2013-08-10T07:50:32.000Z</time>
      </trkpt>
      <trkpt lat="42.70936" lon="1.38398">
        <ele>1846</ele>
        <time>2013-08-10T07:50:37.000Z</time>
      </trkpt>
      <trkpt lat="42.70935" lon="1.38396">
        <ele>1847</ele>
        <time>2013-08-10T07:50:41.000Z</time>
      </trkpt>
      <trkpt lat="42.70934" lon="1.38392">
        <ele>1848</ele>
        <time>2013-08-10T07:50:47.000Z</time>
      </trkpt>
      <trkpt lat="42.70934" lon="1.38389">
        <ele>1849</ele>
        <time>2013-08-10T07:50:51.000Z</time>
      </trkpt>
      <trkpt lat="42.70933" lon="1.38384">
        <ele>1849.8000488281</ele>
        <time>2013-08-10T07:50:55.000Z</time>
      </trkpt>
      <trkpt lat="42.70932" lon="1.38382">
        <ele>1851</ele>
        <time>2013-08-10T07:51:01.000Z</time>
      </trkpt>
      <trkpt lat="42.7093" lon="1.38377">
        <ele>1853.4000244141</ele>
        <time>2013-08-10T07:51:13.000Z</time>
      </trkpt>
      <trkpt lat="42.7093" lon="1.38372">
        <ele>1855.4000244141</ele>
        <time>2013-08-10T07:51:24.000Z</time>
      </trkpt>
      <trkpt lat="42.7093" lon="1.38365">
        <ele>1858.8000488281</ele>
        <time>2013-08-10T07:51:41.000Z</time>
      </trkpt>
      <trkpt lat="42.7093" lon="1.38361">
        <ele>1859.4000244141</ele>
        <time>2013-08-10T07:51:44.000Z</time>
      </trkpt>
      <trkpt lat="42.70929" lon="1.3836">
        <ele>1860</ele>
        <time>2013-08-10T07:51:47.000Z</time>
      </trkpt>
      <trkpt lat="42.70926" lon="1.38358">
        <ele>1860.8000488281</ele>
        <time>2013-08-10T07:51:52.000Z</time>
      </trkpt>
      <trkpt lat="42.70927" lon="1.38357">
        <ele>1861.4000244141</ele>
        <time>2013-08-10T07:51:58.000Z</time>
      </trkpt>
      <trkpt lat="42.70933" lon="1.38365">
        <ele>1865.4000244141</ele>
        <time>2013-08-10T07:52:28.000Z</time>
      </trkpt>
      <trkpt lat="42.70935" lon="1.38373">
        <ele>1865.8000488281</ele>
        <time>2013-08-10T07:52:33.000Z</time>
      </trkpt>
      <trkpt lat="42.70936" lon="1.38375">
        <ele>1866</ele>
        <time>2013-08-10T07:52:37.000Z</time>
      </trkpt>
      <trkpt lat="42.70938" lon="1.38379">
        <ele>1866.4000244141</ele>
        <time>2013-08-10T07:52:41.000Z</time>
      </trkpt>
      <trkpt lat="42.70937" lon="1.3838">
        <ele>1866.4000244141</ele>
        <time>2013-08-10T07:52:42.000Z</time>
      </trkpt>
      <trkpt lat="42.7094" lon="1.38382">
        <ele>1866.8000488281</ele>
        <time>2013-08-10T07:52:46.000Z</time>
      </trkpt>
      <trkpt lat="42.70941" lon="1.38385">
        <ele>1866.8000488281</ele>
        <time>2013-08-10T07:52:50.000Z</time>
      </trkpt>
      <trkpt lat="42.70942" lon="1.38388">
        <ele>1867</ele>
        <time>2013-08-10T07:52:54.000Z</time>
      </trkpt>
      <trkpt lat="42.70942" lon="1.38392">
        <ele>1867</ele>
        <time>2013-08-10T07:52:58.000Z</time>
      </trkpt>
      <trkpt lat="42.70944" lon="1.38398">
        <ele>1867</ele>
        <time>2013-08-10T07:53:04.000Z</time>
      </trkpt>
      <trkpt lat="42.70946" lon="1.384">
        <ele>1867</ele>
        <time>2013-08-10T07:53:09.000Z</time>
      </trkpt>
      <trkpt lat="42.70949" lon="1.38406">
        <ele>1867</ele>
        <time>2013-08-10T07:53:14.000Z</time>
      </trkpt>
      <trkpt lat="42.70951" lon="1.38409">
        <ele>1866.8000488281</ele>
        <time>2013-08-10T07:53:18.000Z</time>
      </trkpt>
      <trkpt lat="42.70952" lon="1.38413">
        <ele>1866.4000244141</ele>
        <time>2013-08-10T07:53:23.000Z</time>
      </trkpt>
      <trkpt lat="42.70954" lon="1.38416">
        <ele>1866.4000244141</ele>
        <time>2013-08-10T07:53:25.000Z</time>
      </trkpt>
      <trkpt lat="42.70958" lon="1.38419">
        <ele>1866</ele>
        <time>2013-08-10T07:53:29.000Z</time>
      </trkpt>
      <trkpt lat="42.70962" lon="1.38425">
        <ele>1865.4000244141</ele>
        <time>2013-08-10T07:53:36.000Z</time>
      </trkpt>
      <trkpt lat="42.70966" lon="1.38429">
        <ele>1865</ele>
        <time>2013-08-10T07:53:42.000Z</time>
      </trkpt>
      <trkpt lat="42.70966" lon="1.38429">
        <ele>1865</ele>
        <time>2013-08-10T07:53:43.000Z</time>
      </trkpt>
      <trkpt lat="42.70969" lon="1.38432">
        <ele>1864.8000488281</ele>
        <time>2013-08-10T07:53:46.000Z</time>
      </trkpt>
      <trkpt lat="42.7097" lon="1.38432">
        <ele>1864.4000244141</ele>
        <time>2013-08-10T07:53:48.000Z</time>
      </trkpt>
      <trkpt lat="42.7097" lon="1.38433">
        <ele>1864</ele>
        <time>2013-08-10T07:53:52.000Z</time>
      </trkpt>
      <trkpt lat="42.70972" lon="1.38434">
        <ele>1861</ele>
        <time>2013-08-10T07:54:25.000Z</time>
      </trkpt>
      <trkpt lat="42.70972" lon="1.38434">
        <ele>1861</ele>
        <time>2013-08-10T07:54:26.000Z</time>
      </trkpt>
      <trkpt lat="42.70976" lon="1.38437">
        <ele>1860.4000244141</ele>
        <time>2013-08-10T07:54:30.000Z</time>
      </trkpt>
      <trkpt lat="42.70977" lon="1.38438">
        <ele>1860.4000244141</ele>
        <time>2013-08-10T07:54:31.000Z</time>
      </trkpt>
      <trkpt lat="42.7098" lon="1.38441">
        <ele>1859.8000488281</ele>
        <time>2013-08-10T07:54:37.000Z</time>
      </trkpt>
      <trkpt lat="42.70981" lon="1.38442">
        <ele>1859.8000488281</ele>
        <time>2013-08-10T07:54:38.000Z</time>
      </trkpt>
      <trkpt lat="42.70983" lon="1.38444">
        <ele>1859.4000244141</ele>
        <time>2013-08-10T07:54:41.000Z</time>
      </trkpt>
      <trkpt lat="42.70984" lon="1.38445">
        <ele>1859.4000244141</ele>
        <time>2013-08-10T07:54:42.000Z</time>
      </trkpt>
      <trkpt lat="42.70985" lon="1.38448">
        <ele>1858.4000244141</ele>
        <time>2013-08-10T07:54:48.000Z</time>
      </trkpt>
      <trkpt lat="42.70988" lon="1.3845">
        <ele>1857.8000488281</ele>
        <time>2013-08-10T07:54:54.000Z</time>
      </trkpt>
      <trkpt lat="42.70989" lon="1.38451">
        <ele>1857.4000244141</ele>
        <time>2013-08-10T07:54:56.000Z</time>
      </trkpt>
      <trkpt lat="42.70993" lon="1.38454">
        <ele>1857</ele>
        <time>2013-08-10T07:54:59.000Z</time>
      </trkpt>
      <trkpt lat="42.70997" lon="1.38456">
        <ele>1856.8000488281</ele>
        <time>2013-08-10T07:55:02.000Z</time>
      </trkpt>
      <trkpt lat="42.70997" lon="1.38457">
        <ele>1856.4000244141</ele>
        <time>2013-08-10T07:55:04.000Z</time>
      </trkpt>
      <trkpt lat="42.70998" lon="1.38456">
        <ele>1856.4000244141</ele>
        <time>2013-08-10T07:55:05.000Z</time>
      </trkpt>
      <trkpt lat="42.71001" lon="1.38456">
        <ele>1855.8000488281</ele>
        <time>2013-08-10T07:55:09.000Z</time>
      </trkpt>
      <trkpt lat="42.71002" lon="1.38457">
        <ele>1855.4000244141</ele>
        <time>2013-08-10T07:55:10.000Z</time>
      </trkpt>
      <trkpt lat="42.71005" lon="1.3846">
        <ele>1855</ele>
        <time>2013-08-10T07:55:14.000Z</time>
      </trkpt>
      <trkpt lat="42.71006" lon="1.38461">
        <ele>1854.4000244141</ele>
        <time>2013-08-10T07:55:16.000Z</time>
      </trkpt>
      <trkpt lat="42.71008" lon="1.38462">
        <ele>1854.4000244141</ele>
        <time>2013-08-10T07:55:18.000Z</time>
      </trkpt>
      <trkpt lat="42.71011" lon="1.38464">
        <ele>1853.8000488281</ele>
        <time>2013-08-10T07:55:21.000Z</time>
      </trkpt>
      <trkpt lat="42.71014" lon="1.38466">
        <ele>1853</ele>
        <time>2013-08-10T07:55:25.000Z</time>
      </trkpt>
      <trkpt lat="42.71016" lon="1.38467">
        <ele>1852.4000244141</ele>
        <time>2013-08-10T07:55:29.000Z</time>
      </trkpt>
      <trkpt lat="42.71016" lon="1.38467">
        <ele>1852</ele>
        <time>2013-08-10T07:55:31.000Z</time>
      </trkpt>
      <trkpt lat="42.71021" lon="1.38469">
        <ele>1850.8000488281</ele>
        <time>2013-08-10T07:55:40.000Z</time>
      </trkpt>
      <trkpt lat="42.71027" lon="1.38473">
        <ele>1849.4000244141</ele>
        <time>2013-08-10T07:55:47.000Z</time>
      </trkpt>
      <trkpt lat="42.71033" lon="1.38477">
        <ele>1848.4000244141</ele>
        <time>2013-08-10T07:55:52.000Z</time>
      </trkpt>
      <trkpt lat="42.71041" lon="1.38483">
        <ele>1847</ele>
        <time>2013-08-10T07:56:00.000Z</time>
      </trkpt>
      <trkpt lat="42.71044" lon="1.38484">
        <ele>1846.8000488281</ele>
        <time>2013-08-10T07:56:02.000Z</time>
      </trkpt>
      <trkpt lat="42.71045" lon="1.38485">
        <ele>1846.4000244141</ele>
        <time>2013-08-10T07:56:03.000Z</time>
      </trkpt>
      <trkpt lat="42.71051" lon="1.38486">
        <ele>1845.4000244141</ele>
        <time>2013-08-10T07:56:08.000Z</time>
      </trkpt>
      <trkpt lat="42.71051" lon="1.38486">
        <ele>1845.4000244141</ele>
        <time>2013-08-10T07:56:09.000Z</time>
      </trkpt>
      <trkpt lat="42.71055" lon="1.38491">
        <ele>1844.4000244141</ele>
        <time>2013-08-10T07:56:14.000Z</time>
      </trkpt>
      <trkpt lat="42.71057" lon="1.38493">
        <ele>1844</ele>
        <time>2013-08-10T07:56:16.000Z</time>
      </trkpt>
      <trkpt lat="42.71065" lon="1.38501">
        <ele>1842.4000244141</ele>
        <time>2013-08-10T07:56:24.000Z</time>
      </trkpt>
      <trkpt lat="42.7107" lon="1.38505">
        <ele>1841.4000244141</ele>
        <time>2013-08-10T07:56:28.000Z</time>
      </trkpt>
      <trkpt lat="42.71071" lon="1.38506">
        <ele>1841</ele>
        <time>2013-08-10T07:56:29.000Z</time>
      </trkpt>
      <trkpt lat="42.71071" lon="1.38506">
        <ele>1840</ele>
        <time>2013-08-10T07:56:34.000Z</time>
      </trkpt>
      <trkpt lat="42.71074" lon="1.38509">
        <ele>1839.4000244141</ele>
        <time>2013-08-10T07:56:37.000Z</time>
      </trkpt>
      <trkpt lat="42.71076" lon="1.3851">
        <ele>1839.4000244141</ele>
        <time>2013-08-10T07:56:38.000Z</time>
      </trkpt>
      <trkpt lat="42.71079" lon="1.38513">
        <ele>1838.4000244141</ele>
        <time>2013-08-10T07:56:41.000Z</time>
      </trkpt>
      <trkpt lat="42.71081" lon="1.38516">
        <ele>1838</ele>
        <time>2013-08-10T07:56:44.000Z</time>
      </trkpt>
      <trkpt lat="42.7109" lon="1.38529">
        <ele>1835.8000488281</ele>
        <time>2013-08-10T07:56:54.000Z</time>
      </trkpt>
      <trkpt lat="42.71096" lon="1.38536">
        <ele>1834.4000244141</ele>
        <time>2013-08-10T07:57:00.000Z</time>
      </trkpt>
      <trkpt lat="42.71104" lon="1.38541">
        <ele>1832.4000244141</ele>
        <time>2013-08-10T07:57:08.000Z</time>
      </trkpt>
      <trkpt lat="42.71107" lon="1.38544">
        <ele>1831.4000244141</ele>
        <time>2013-08-10T07:57:13.000Z</time>
      </trkpt>
      <trkpt lat="42.71108" lon="1.38544">
        <ele>1831.4000244141</ele>
        <time>2013-08-10T07:57:14.000Z</time>
      </trkpt>
      <trkpt lat="42.71109" lon="1.38543">
        <ele>1831</ele>
        <time>2013-08-10T07:57:16.000Z</time>
      </trkpt>
      <trkpt lat="42.7111" lon="1.38538">
        <ele>1830</ele>
        <time>2013-08-10T07:57:21.000Z</time>
      </trkpt>
      <trkpt lat="42.71109" lon="1.38534">
        <ele>1829.4000244141</ele>
        <time>2013-08-10T07:57:24.000Z</time>
      </trkpt>
      <trkpt lat="42.7111" lon="1.38534">
        <ele>1829</ele>
        <time>2013-08-10T07:57:25.000Z</time>
      </trkpt>
      <trkpt lat="42.71116" lon="1.3854">
        <ele>1827.8000488281</ele>
        <time>2013-08-10T07:57:31.000Z</time>
      </trkpt>
      <trkpt lat="42.71121" lon="1.38547">
        <ele>1826.4000244141</ele>
        <time>2013-08-10T07:57:38.000Z</time>
      </trkpt>
      <trkpt lat="42.71121" lon="1.38549">
        <ele>1826.4000244141</ele>
        <time>2013-08-10T07:57:39.000Z</time>
      </trkpt>
      <trkpt lat="42.71126" lon="1.38559">
        <ele>1824.8000488281</ele>
        <time>2013-08-10T07:57:47.000Z</time>
      </trkpt>
      <trkpt lat="42.71128" lon="1.38561">
        <ele>1824</ele>
        <time>2013-08-10T07:57:52.000Z</time>
      </trkpt>
      <trkpt lat="42.71134" lon="1.38565">
        <ele>1823</ele>
        <time>2013-08-10T07:57:57.000Z</time>
      </trkpt>
      <trkpt lat="42.71143" lon="1.38572">
        <ele>1821.4000244141</ele>
        <time>2013-08-10T07:58:04.000Z</time>
      </trkpt>
      <trkpt lat="42.71152" lon="1.38576">
        <ele>1820</ele>
        <time>2013-08-10T07:58:11.000Z</time>
      </trkpt>
      <trkpt lat="42.71157" lon="1.3858">
        <ele>1819</ele>
        <time>2013-08-10T07:58:17.000Z</time>
      </trkpt>
      <trkpt lat="42.71158" lon="1.3858">
        <ele>1818.8000488281</ele>
        <time>2013-08-10T07:58:18.000Z</time>
      </trkpt>
      <trkpt lat="42.71161" lon="1.38583">
        <ele>1818</ele>
        <time>2013-08-10T07:58:21.000Z</time>
      </trkpt>
      <trkpt lat="42.71163" lon="1.38583">
        <ele>1817.8000488281</ele>
        <time>2013-08-10T07:58:23.000Z</time>
      </trkpt>
      <trkpt lat="42.7117" lon="1.38586">
        <ele>1816.4000244141</ele>
        <time>2013-08-10T07:58:29.000Z</time>
      </trkpt>
      <trkpt lat="42.71171" lon="1.38586">
        <ele>1816.4000244141</ele>
        <time>2013-08-10T07:58:30.000Z</time>
      </trkpt>
      <trkpt lat="42.71174" lon="1.38587">
        <ele>1815.8000488281</ele>
        <time>2013-08-10T07:58:33.000Z</time>
      </trkpt>
      <trkpt lat="42.7118" lon="1.3859">
        <ele>1814.4000244141</ele>
        <time>2013-08-10T07:58:39.000Z</time>
      </trkpt>
      <trkpt lat="42.71182" lon="1.38591">
        <ele>1814</ele>
        <time>2013-08-10T07:58:41.000Z</time>
      </trkpt>
      <trkpt lat="42.71183" lon="1.38592">
        <ele>1813.8000488281</ele>
        <time>2013-08-10T07:58:43.000Z</time>
      </trkpt>
      <trkpt lat="42.71185" lon="1.38594">
        <ele>1813.4000244141</ele>
        <time>2013-08-10T07:58:45.000Z</time>
      </trkpt>
      <trkpt lat="42.71186" lon="1.38596">
        <ele>1812.8000488281</ele>
        <time>2013-08-10T07:58:48.000Z</time>
      </trkpt>
      <trkpt lat="42.71187" lon="1.386">
        <ele>1812.4000244141</ele>
        <time>2013-08-10T07:58:51.000Z</time>
      </trkpt>
      <trkpt lat="42.7119" lon="1.38606">
        <ele>1811.4000244141</ele>
        <time>2013-08-10T07:58:56.000Z</time>
      </trkpt>
      <trkpt lat="42.71191" lon="1.38607">
        <ele>1811</ele>
        <time>2013-08-10T07:58:57.000Z</time>
      </trkpt>
      <trkpt lat="42.71194" lon="1.3861">
        <ele>1810.8000488281</ele>
        <time>2013-08-10T07:58:59.000Z</time>
      </trkpt>
      <trkpt lat="42.71196" lon="1.38616">
        <ele>1810</ele>
        <time>2013-08-10T07:59:03.000Z</time>
      </trkpt>
      <trkpt lat="42.71198" lon="1.38619">
        <ele>1809.4000244141</ele>
        <time>2013-08-10T07:59:06.000Z</time>
      </trkpt>
      <trkpt lat="42.71199" lon="1.38621">
        <ele>1809</ele>
        <time>2013-08-10T07:59:08.000Z</time>
      </trkpt>
      <trkpt lat="42.71202" lon="1.38623">
        <ele>1808.4000244141</ele>
        <time>2013-08-10T07:59:12.000Z</time>
      </trkpt>
      <trkpt lat="42.71203" lon="1.38624">
        <ele>1808</ele>
        <time>2013-08-10T07:59:13.000Z</time>
      </trkpt>
      <trkpt lat="42.71205" lon="1.38628">
        <ele>1807.4000244141</ele>
        <time>2013-08-10T07:59:16.000Z</time>
      </trkpt>
      <trkpt lat="42.71206" lon="1.38635">
        <ele>1806.8000488281</ele>
        <time>2013-08-10T07:59:20.000Z</time>
      </trkpt>
      <trkpt lat="42.71208" lon="1.38643">
        <ele>1805.4000244141</ele>
        <time>2013-08-10T07:59:27.000Z</time>
      </trkpt>
      <trkpt lat="42.71212" lon="1.38638">
        <ele>1804.4000244141</ele>
        <time>2013-08-10T07:59:32.000Z</time>
      </trkpt>
      <trkpt lat="42.71216" lon="1.38631">
        <ele>1803</ele>
        <time>2013-08-10T07:59:39.000Z</time>
      </trkpt>
      <trkpt lat="42.71215" lon="1.38622">
        <ele>1801.4000244141</ele>
        <time>2013-08-10T07:59:46.000Z</time>
      </trkpt>
      <trkpt lat="42.71212" lon="1.38611">
        <ele>1800.4000244141</ele>
        <time>2013-08-10T07:59:53.000Z</time>
      </trkpt>
      <trkpt lat="42.71212" lon="1.38605">
        <ele>1799.4000244141</ele>
        <time>2013-08-10T07:59:57.000Z</time>
      </trkpt>
      <trkpt lat="42.71212" lon="1.38603">
        <ele>1799</ele>
        <time>2013-08-10T07:59:59.000Z</time>
      </trkpt>
      <trkpt lat="42.71211" lon="1.386">
        <ele>1798.8000488281</ele>
        <time>2013-08-10T08:00:01.000Z</time>
      </trkpt>
      <trkpt lat="42.7121" lon="1.38596">
        <ele>1798</ele>
        <time>2013-08-10T08:00:05.000Z</time>
      </trkpt>
      <trkpt lat="42.71208" lon="1.38587">
        <ele>1797</ele>
        <time>2013-08-10T08:00:12.000Z</time>
      </trkpt>
      <trkpt lat="42.71208" lon="1.38585">
        <ele>1797</ele>
        <time>2013-08-10T08:00:13.000Z</time>
      </trkpt>
      <trkpt lat="42.71207" lon="1.38579">
        <ele>1796</ele>
        <time>2013-08-10T08:00:18.000Z</time>
      </trkpt>
      <trkpt lat="42.71206" lon="1.38573">
        <ele>1795.4000244141</ele>
        <time>2013-08-10T08:00:22.000Z</time>
      </trkpt>
      <trkpt lat="42.71206" lon="1.38569">
        <ele>1795</ele>
        <time>2013-08-10T08:00:24.000Z</time>
      </trkpt>
      <trkpt lat="42.71206" lon="1.38564">
        <ele>1794.8000488281</ele>
        <time>2013-08-10T08:00:28.000Z</time>
      </trkpt>
      <trkpt lat="42.71206" lon="1.38564">
        <ele>1794.4000244141</ele>
        <time>2013-08-10T08:00:29.000Z</time>
      </trkpt>
      <trkpt lat="42.71208" lon="1.38557">
        <ele>1793</ele>
        <time>2013-08-10T08:00:40.000Z</time>
      </trkpt>
      <trkpt lat="42.7121" lon="1.38547">
        <ele>1792</ele>
        <time>2013-08-10T08:00:47.000Z</time>
      </trkpt>
      <trkpt lat="42.71212" lon="1.3854">
        <ele>1791.4000244141</ele>
        <time>2013-08-10T08:00:53.000Z</time>
      </trkpt>
      <trkpt lat="42.71211" lon="1.38533">
        <ele>1790.8000488281</ele>
        <time>2013-08-10T08:00:58.000Z</time>
      </trkpt>
      <trkpt lat="42.71212" lon="1.38526">
        <ele>1790</ele>
        <time>2013-08-10T08:01:04.000Z</time>
      </trkpt>
      <trkpt lat="42.71212" lon="1.38524">
        <ele>1789.8000488281</ele>
        <time>2013-08-10T08:01:06.000Z</time>
      </trkpt>
      <trkpt lat="42.71211" lon="1.38522">
        <ele>1789.4000244141</ele>
        <time>2013-08-10T08:01:08.000Z</time>
      </trkpt>
      <trkpt lat="42.7121" lon="1.38515">
        <ele>1789</ele>
        <time>2013-08-10T08:01:12.000Z</time>
      </trkpt>
      <trkpt lat="42.7121" lon="1.38514">
        <ele>1789</ele>
        <time>2013-08-10T08:01:13.000Z</time>
      </trkpt>
      <trkpt lat="42.71212" lon="1.38507">
        <ele>1788.4000244141</ele>
        <time>2013-08-10T08:01:18.000Z</time>
      </trkpt>
      <trkpt lat="42.71213" lon="1.38503">
        <ele>1788</ele>
        <time>2013-08-10T08:01:22.000Z</time>
      </trkpt>
      <trkpt lat="42.71213" lon="1.38501">
        <ele>1788</ele>
        <time>2013-08-10T08:01:23.000Z</time>
      </trkpt>
      <trkpt lat="42.71214" lon="1.38497">
        <ele>1788</ele>
        <time>2013-08-10T08:01:26.000Z</time>
      </trkpt>
      <trkpt lat="42.71215" lon="1.38496">
        <ele>1787.8000488281</ele>
        <time>2013-08-10T08:01:27.000Z</time>
      </trkpt>
      <trkpt lat="42.71216" lon="1.3849">
        <ele>1787.4000244141</ele>
        <time>2013-08-10T08:01:32.000Z</time>
      </trkpt>
      <trkpt lat="42.71216" lon="1.38489">
        <ele>1787.4000244141</ele>
        <time>2013-08-10T08:01:33.000Z</time>
      </trkpt>
      <trkpt lat="42.71216" lon="1.38489">
        <ele>1787</ele>
        <time>2013-08-10T08:01:39.000Z</time>
      </trkpt>
      <trkpt lat="42.71216" lon="1.3849">
        <ele>1786.4000244141</ele>
        <time>2013-08-10T08:01:46.000Z</time>
      </trkpt>
      <trkpt lat="42.71212" lon="1.38483">
        <ele>1784</ele>
        <time>2013-08-10T08:02:44.000Z</time>
      </trkpt>
      <trkpt lat="42.7121" lon="1.3847">
        <ele>1784</ele>
        <time>2013-08-10T08:02:52.000Z</time>
      </trkpt>
      <trkpt lat="42.7121" lon="1.38469">
        <ele>1784</ele>
        <time>2013-08-10T08:02:53.000Z</time>
      </trkpt>
      <trkpt lat="42.71209" lon="1.38465">
        <ele>1783.8000488281</ele>
        <time>2013-08-10T08:02:57.000Z</time>
      </trkpt>
      <trkpt lat="42.71209" lon="1.38464">
        <ele>1783.8000488281</ele>
        <time>2013-08-10T08:02:58.000Z</time>
      </trkpt>
      <trkpt lat="42.71208" lon="1.38459">
        <ele>1783.8000488281</ele>
        <time>2013-08-10T08:03:02.000Z</time>
      </trkpt>
      <trkpt lat="42.71209" lon="1.38457">
        <ele>1783.8000488281</ele>
        <time>2013-08-10T08:03:04.000Z</time>
      </trkpt>
      <trkpt lat="42.71207" lon="1.38452">
        <ele>1783.8000488281</ele>
        <time>2013-08-10T08:03:11.000Z</time>
      </trkpt>
      <trkpt lat="42.71205" lon="1.38446">
        <ele>1784</ele>
        <time>2013-08-10T08:03:17.000Z</time>
      </trkpt>
      <trkpt lat="42.71203" lon="1.38439">
        <ele>1784</ele>
        <time>2013-08-10T08:03:21.000Z</time>
      </trkpt>
      <trkpt lat="42.712" lon="1.38428">
        <ele>1784</ele>
        <time>2013-08-10T08:03:27.000Z</time>
      </trkpt>
      <trkpt lat="42.71198" lon="1.38421">
        <ele>1784.4000244141</ele>
        <time>2013-08-10T08:03:33.000Z</time>
      </trkpt>
      <trkpt lat="42.71197" lon="1.38417">
        <ele>1784.4000244141</ele>
        <time>2013-08-10T08:03:37.000Z</time>
      </trkpt>
      <trkpt lat="42.71196" lon="1.38415">
        <ele>1784.8000488281</ele>
        <time>2013-08-10T08:03:38.000Z</time>
      </trkpt>
      <trkpt lat="42.71194" lon="1.38403">
        <ele>1785</ele>
        <time>2013-08-10T08:03:46.000Z</time>
      </trkpt>
      <trkpt lat="42.71192" lon="1.384">
        <ele>1785</ele>
        <time>2013-08-10T08:03:48.000Z</time>
      </trkpt>
      <trkpt lat="42.71189" lon="1.38396">
        <ele>1785</ele>
        <time>2013-08-10T08:03:51.000Z</time>
      </trkpt>
      <trkpt lat="42.7119" lon="1.38387">
        <ele>1785.4000244141</ele>
        <time>2013-08-10T08:03:57.000Z</time>
      </trkpt>
      <trkpt lat="42.71189" lon="1.38385">
        <ele>1785.4000244141</ele>
        <time>2013-08-10T08:03:58.000Z</time>
      </trkpt>
      <trkpt lat="42.71189" lon="1.3838">
        <ele>1785.4000244141</ele>
        <time>2013-08-10T08:04:02.000Z</time>
      </trkpt>
      <trkpt lat="42.71191" lon="1.38379">
        <ele>1785.8000488281</ele>
        <time>2013-08-10T08:04:03.000Z</time>
      </trkpt>
      <trkpt lat="42.71191" lon="1.38381">
        <ele>1786</ele>
        <time>2013-08-10T08:04:07.000Z</time>
      </trkpt>
      <trkpt lat="42.71192" lon="1.38379">
        <ele>1786</ele>
        <time>2013-08-10T08:04:08.000Z</time>
      </trkpt>
      <trkpt lat="42.71191" lon="1.38376">
        <ele>1786</ele>
        <time>2013-08-10T08:04:10.000Z</time>
      </trkpt>
      <trkpt lat="42.71191" lon="1.38376">
        <ele>1786</ele>
        <time>2013-08-10T08:04:11.000Z</time>
      </trkpt>
      <trkpt lat="42.71189" lon="1.38374">
        <ele>1786.4000244141</ele>
        <time>2013-08-10T08:04:13.000Z</time>
      </trkpt>
      <trkpt lat="42.7119" lon="1.38369">
        <ele>1786.4000244141</ele>
        <time>2013-08-10T08:04:16.000Z</time>
      </trkpt>
      <trkpt lat="42.7119" lon="1.38368">
        <ele>1786.4000244141</ele>
        <time>2013-08-10T08:04:17.000Z</time>
      </trkpt>
      <trkpt lat="42.7119" lon="1.38366">
        <ele>1786.4000244141</ele>
        <time>2013-08-10T08:04:18.000Z</time>
      </trkpt>
      <trkpt lat="42.71191" lon="1.38361">
        <ele>1786.8000488281</ele>
        <time>2013-08-10T08:04:22.000Z</time>
      </trkpt>
      <trkpt lat="42.71192" lon="1.3835">
        <ele>1787</ele>
        <time>2013-08-10T08:04:28.000Z</time>
      </trkpt>
      <trkpt lat="42.71192" lon="1.38348">
        <ele>1787</ele>
        <time>2013-08-10T08:04:29.000Z</time>
      </trkpt>
      <trkpt lat="42.71191" lon="1.38346">
        <ele>1787</ele>
        <time>2013-08-10T08:04:31.000Z</time>
      </trkpt>
      <trkpt lat="42.71186" lon="1.38341">
        <ele>1787.8000488281</ele>
        <time>2013-08-10T08:04:37.000Z</time>
      </trkpt>
      <trkpt lat="42.71186" lon="1.3834">
        <ele>1787.8000488281</ele>
        <time>2013-08-10T08:04:38.000Z</time>
      </trkpt>
      <trkpt lat="42.71184" lon="1.3833">
        <ele>1788</ele>
        <time>2013-08-10T08:04:43.000Z</time>
      </trkpt>
      <trkpt lat="42.7118" lon="1.38319">
        <ele>1788.4000244141</ele>
        <time>2013-08-10T08:04:49.000Z</time>
      </trkpt>
      <trkpt lat="42.71178" lon="1.38317">
        <ele>1788.8000488281</ele>
        <time>2013-08-10T08:04:51.000Z</time>
      </trkpt>
      <trkpt lat="42.71178" lon="1.38314">
        <ele>1788.8000488281</ele>
        <time>2013-08-10T08:04:52.000Z</time>
      </trkpt>
      <trkpt lat="42.71179" lon="1.38309">
        <ele>1789</ele>
        <time>2013-08-10T08:04:55.000Z</time>
      </trkpt>
      <trkpt lat="42.71179" lon="1.38303">
        <ele>1789</ele>
        <time>2013-08-10T08:04:58.000Z</time>
      </trkpt>
      <trkpt lat="42.71179" lon="1.38301">
        <ele>1789</ele>
        <time>2013-08-10T08:05:00.000Z</time>
      </trkpt>
      <trkpt lat="42.7118" lon="1.38297">
        <ele>1789.4000244141</ele>
        <time>2013-08-10T08:05:03.000Z</time>
      </trkpt>
      <trkpt lat="42.71181" lon="1.38294">
        <ele>1789.4000244141</ele>
        <time>2013-08-10T08:05:05.000Z</time>
      </trkpt>
      <trkpt lat="42.71182" lon="1.38289">
        <ele>1789.8000488281</ele>
        <time>2013-08-10T08:05:08.000Z</time>
      </trkpt>
      <trkpt lat="42.71181" lon="1.38287">
        <ele>1790</ele>
        <time>2013-08-10T08:05:10.000Z</time>
      </trkpt>
      <trkpt lat="42.7118" lon="1.38285">
        <ele>1790</ele>
        <time>2013-08-10T08:05:12.000Z</time>
      </trkpt>
      <trkpt lat="42.71176" lon="1.38273">
        <ele>1790.8000488281</ele>
        <time>2013-08-10T08:05:20.000Z</time>
      </trkpt>
      <trkpt lat="42.71176" lon="1.38263">
        <ele>1791</ele>
        <time>2013-08-10T08:05:25.000Z</time>
      </trkpt>
      <trkpt lat="42.71176" lon="1.38262">
        <ele>1791</ele>
        <time>2013-08-10T08:05:27.000Z</time>
      </trkpt>
      <trkpt lat="42.71176" lon="1.3826">
        <ele>1791.4000244141</ele>
        <time>2013-08-10T08:05:28.000Z</time>
      </trkpt>
      <trkpt lat="42.71175" lon="1.38255">
        <ele>1791.4000244141</ele>
        <time>2013-08-10T08:05:32.000Z</time>
      </trkpt>
      <trkpt lat="42.71175" lon="1.38252">
        <ele>1791.8000488281</ele>
        <time>2013-08-10T08:05:34.000Z</time>
      </trkpt>
      <trkpt lat="42.71174" lon="1.38246">
        <ele>1792.4000244141</ele>
        <time>2013-08-10T08:05:39.000Z</time>
      </trkpt>
      <trkpt lat="42.71174" lon="1.38245">
        <ele>1792.4000244141</ele>
        <time>2013-08-10T08:05:40.000Z</time>
      </trkpt>
      <trkpt lat="42.71173" lon="1.38241">
        <ele>1793</ele>
        <time>2013-08-10T08:05:45.000Z</time>
      </trkpt>
      <trkpt lat="42.71172" lon="1.38237">
        <ele>1793.4000244141</ele>
        <time>2013-08-10T08:05:50.000Z</time>
      </trkpt>
      <trkpt lat="42.71173" lon="1.38231">
        <ele>1794.4000244141</ele>
        <time>2013-08-10T08:05:56.000Z</time>
      </trkpt>
      <trkpt lat="42.71173" lon="1.38225">
        <ele>1795.8000488281</ele>
        <time>2013-08-10T08:06:03.000Z</time>
      </trkpt>
      <trkpt lat="42.71175" lon="1.38219">
        <ele>1797.4000244141</ele>
        <time>2013-08-10T08:06:11.000Z</time>
      </trkpt>
      <trkpt lat="42.71173" lon="1.38215">
        <ele>1798.4000244141</ele>
        <time>2013-08-10T08:06:17.000Z</time>
      </trkpt>
      <trkpt lat="42.71172" lon="1.38212">
        <ele>1799.4000244141</ele>
        <time>2013-08-10T08:06:21.000Z</time>
      </trkpt>
      <trkpt lat="42.7117" lon="1.38206">
        <ele>1800.8000488281</ele>
        <time>2013-08-10T08:06:27.000Z</time>
      </trkpt>
      <trkpt lat="42.71169" lon="1.38203">
        <ele>1801.4000244141</ele>
        <time>2013-08-10T08:06:31.000Z</time>
      </trkpt>
      <trkpt lat="42.71168" lon="1.38198">
        <ele>1802.8000488281</ele>
        <time>2013-08-10T08:06:37.000Z</time>
      </trkpt>
      <trkpt lat="42.71166" lon="1.38194">
        <ele>1803.8000488281</ele>
        <time>2013-08-10T08:06:42.000Z</time>
      </trkpt>
      <trkpt lat="42.71164" lon="1.38192">
        <ele>1804.4000244141</ele>
        <time>2013-08-10T08:06:46.000Z</time>
      </trkpt>
      <trkpt lat="42.71163" lon="1.38192">
        <ele>1805</ele>
        <time>2013-08-10T08:06:49.000Z</time>
      </trkpt>
      <trkpt lat="42.7116" lon="1.3819">
        <ele>1806.4000244141</ele>
        <time>2013-08-10T08:06:55.000Z</time>
      </trkpt>
      <trkpt lat="42.71159" lon="1.38187">
        <ele>1807.8000488281</ele>
        <time>2013-08-10T08:07:00.000Z</time>
      </trkpt>
      <trkpt lat="42.71161" lon="1.38182">
        <ele>1809.4000244141</ele>
        <time>2013-08-10T08:07:06.000Z</time>
      </trkpt>
      <trkpt lat="42.71159" lon="1.38177">
        <ele>1811.4000244141</ele>
        <time>2013-08-10T08:07:13.000Z</time>
      </trkpt>
      <trkpt lat="42.71153" lon="1.3817">
        <ele>1814</ele>
        <time>2013-08-10T08:07:23.000Z</time>
      </trkpt>
      <trkpt lat="42.71148" lon="1.38163">
        <ele>1816.4000244141</ele>
        <time>2013-08-10T08:07:32.000Z</time>
      </trkpt>
      <trkpt lat="42.71147" lon="1.38161">
        <ele>1816.8000488281</ele>
        <time>2013-08-10T08:07:34.000Z</time>
      </trkpt>
      <trkpt lat="42.71146" lon="1.38159">
        <ele>1817.4000244141</ele>
        <time>2013-08-10T08:07:37.000Z</time>
      </trkpt>
      <trkpt lat="42.71143" lon="1.38152">
        <ele>1818.8000488281</ele>
        <time>2013-08-10T08:07:44.000Z</time>
      </trkpt>
      <trkpt lat="42.71142" lon="1.38145">
        <ele>1819.4000244141</ele>
        <time>2013-08-10T08:07:48.000Z</time>
      </trkpt>
      <trkpt lat="42.71142" lon="1.38142">
        <ele>1820</ele>
        <time>2013-08-10T08:07:50.000Z</time>
      </trkpt>
      <trkpt lat="42.71141" lon="1.3814">
        <ele>1820</ele>
        <time>2013-08-10T08:07:51.000Z</time>
      </trkpt>
      <trkpt lat="42.71138" lon="1.38135">
        <ele>1821</ele>
        <time>2013-08-10T08:07:56.000Z</time>
      </trkpt>
      <trkpt lat="42.71137" lon="1.38134">
        <ele>1821</ele>
        <time>2013-08-10T08:07:57.000Z</time>
      </trkpt>
      <trkpt lat="42.71131" lon="1.38123">
        <ele>1823</ele>
        <time>2013-08-10T08:08:06.000Z</time>
      </trkpt>
      <trkpt lat="42.71127" lon="1.38115">
        <ele>1824.8000488281</ele>
        <time>2013-08-10T08:08:15.000Z</time>
      </trkpt>
      <trkpt lat="42.71124" lon="1.38112">
        <ele>1826.4000244141</ele>
        <time>2013-08-10T08:08:22.000Z</time>
      </trkpt>
      <trkpt lat="42.71121" lon="1.3811">
        <ele>1827.8000488281</ele>
        <time>2013-08-10T08:08:28.000Z</time>
      </trkpt>
      <trkpt lat="42.71118" lon="1.38106">
        <ele>1829</ele>
        <time>2013-08-10T08:08:34.000Z</time>
      </trkpt>
      <trkpt lat="42.71115" lon="1.38101">
        <ele>1830.4000244141</ele>
        <time>2013-08-10T08:08:40.000Z</time>
      </trkpt>
      <trkpt lat="42.71115" lon="1.38096">
        <ele>1831.4000244141</ele>
        <time>2013-08-10T08:08:45.000Z</time>
      </trkpt>
      <trkpt lat="42.71114" lon="1.38093">
        <ele>1832</ele>
        <time>2013-08-10T08:08:48.000Z</time>
      </trkpt>
      <trkpt lat="42.71113" lon="1.38092">
        <ele>1832.4000244141</ele>
        <time>2013-08-10T08:08:51.000Z</time>
      </trkpt>
      <trkpt lat="42.71114" lon="1.38088">
        <ele>1833</ele>
        <time>2013-08-10T08:08:56.000Z</time>
      </trkpt>
      <trkpt lat="42.71113" lon="1.38082">
        <ele>1834</ele>
        <time>2013-08-10T08:09:02.000Z</time>
      </trkpt>
      <trkpt lat="42.71115" lon="1.38073">
        <ele>1835</ele>
        <time>2013-08-10T08:09:08.000Z</time>
      </trkpt>
      <trkpt lat="42.71115" lon="1.38071">
        <ele>1835.4000244141</ele>
        <time>2013-08-10T08:09:10.000Z</time>
      </trkpt>
      <trkpt lat="42.71115" lon="1.38068">
        <ele>1835.8000488281</ele>
        <time>2013-08-10T08:09:13.000Z</time>
      </trkpt>
      <trkpt lat="42.71115" lon="1.38063">
        <ele>1836</ele>
        <time>2013-08-10T08:09:16.000Z</time>
      </trkpt>
      <trkpt lat="42.71114" lon="1.38057">
        <ele>1837</ele>
        <time>2013-08-10T08:09:21.000Z</time>
      </trkpt>
      <trkpt lat="42.71113" lon="1.38056">
        <ele>1837</ele>
        <time>2013-08-10T08:09:22.000Z</time>
      </trkpt>
      <trkpt lat="42.7111" lon="1.38054">
        <ele>1838</ele>
        <time>2013-08-10T08:09:26.000Z</time>
      </trkpt>
      <trkpt lat="42.7111" lon="1.38053">
        <ele>1838</ele>
        <time>2013-08-10T08:09:27.000Z</time>
      </trkpt>
      <trkpt lat="42.71108" lon="1.38051">
        <ele>1838.4000244141</ele>
        <time>2013-08-10T08:09:29.000Z</time>
      </trkpt>
      <trkpt lat="42.71108" lon="1.38049">
        <ele>1839</ele>
        <time>2013-08-10T08:09:31.000Z</time>
      </trkpt>
      <trkpt lat="42.71108" lon="1.38048">
        <ele>1839.4000244141</ele>
        <time>2013-08-10T08:09:33.000Z</time>
      </trkpt>
      <trkpt lat="42.71104" lon="1.38042">
        <ele>1840.8000488281</ele>
        <time>2013-08-10T08:09:41.000Z</time>
      </trkpt>
      <trkpt lat="42.71104" lon="1.38032">
        <ele>1842.4000244141</ele>
        <time>2013-08-10T08:09:49.000Z</time>
      </trkpt>
      <trkpt lat="42.71104" lon="1.38032">
        <ele>1842.4000244141</ele>
        <time>2013-08-10T08:09:50.000Z</time>
      </trkpt>
      <trkpt lat="42.71103" lon="1.38032">
        <ele>1843</ele>
        <time>2013-08-10T08:09:52.000Z</time>
      </trkpt>
      <trkpt lat="42.71101" lon="1.38028">
        <ele>1843.8000488281</ele>
        <time>2013-08-10T08:09:55.000Z</time>
      </trkpt>
      <trkpt lat="42.71099" lon="1.38023">
        <ele>1845</ele>
        <time>2013-08-10T08:10:00.000Z</time>
      </trkpt>
      <trkpt lat="42.71095" lon="1.38019">
        <ele>1846.4000244141</ele>
        <time>2013-08-10T08:10:08.000Z</time>
      </trkpt>
      <trkpt lat="42.71091" lon="1.38014">
        <ele>1848</ele>
        <time>2013-08-10T08:10:15.000Z</time>
      </trkpt>
      <trkpt lat="42.71085" lon="1.38007">
        <ele>1849.8000488281</ele>
        <time>2013-08-10T08:10:24.000Z</time>
      </trkpt>
      <trkpt lat="42.71081" lon="1.37998">
        <ele>1851</ele>
        <time>2013-08-10T08:10:31.000Z</time>
      </trkpt>
      <trkpt lat="42.71077" lon="1.37989">
        <ele>1852</ele>
        <time>2013-08-10T08:10:37.000Z</time>
      </trkpt>
      <trkpt lat="42.71077" lon="1.37987">
        <ele>1852.4000244141</ele>
        <time>2013-08-10T08:10:38.000Z</time>
      </trkpt>
      <trkpt lat="42.71074" lon="1.37984">
        <ele>1852.8000488281</ele>
        <time>2013-08-10T08:10:41.000Z</time>
      </trkpt>
      <trkpt lat="42.71073" lon="1.37983">
        <ele>1853</ele>
        <time>2013-08-10T08:10:42.000Z</time>
      </trkpt>
      <trkpt lat="42.71071" lon="1.37981">
        <ele>1853</ele>
        <time>2013-08-10T08:10:44.000Z</time>
      </trkpt>
      <trkpt lat="42.71068" lon="1.37976">
        <ele>1853.4000244141</ele>
        <time>2013-08-10T08:10:48.000Z</time>
      </trkpt>
      <trkpt lat="42.71068" lon="1.37974">
        <ele>1853.8000488281</ele>
        <time>2013-08-10T08:10:49.000Z</time>
      </trkpt>
      <trkpt lat="42.71068" lon="1.37971">
        <ele>1854</ele>
        <time>2013-08-10T08:10:51.000Z</time>
      </trkpt>
      <trkpt lat="42.71068" lon="1.37969">
        <ele>1854</ele>
        <time>2013-08-10T08:10:52.000Z</time>
      </trkpt>
      <trkpt lat="42.71067" lon="1.37968">
        <ele>1854</ele>
        <time>2013-08-10T08:10:53.000Z</time>
      </trkpt>
      <trkpt lat="42.71065" lon="1.3796">
        <ele>1854.4000244141</ele>
        <time>2013-08-10T08:10:57.000Z</time>
      </trkpt>
      <trkpt lat="42.71065" lon="1.37959">
        <ele>1854.4000244141</ele>
        <time>2013-08-10T08:10:58.000Z</time>
      </trkpt>
      <trkpt lat="42.71063" lon="1.37953">
        <ele>1855</ele>
        <time>2013-08-10T08:11:02.000Z</time>
      </trkpt>
      <trkpt lat="42.71061" lon="1.37953">
        <ele>1855.4000244141</ele>
        <time>2013-08-10T08:11:03.000Z</time>
      </trkpt>
      <trkpt lat="42.71062" lon="1.37951">
        <ele>1855.8000488281</ele>
        <time>2013-08-10T08:11:05.000Z</time>
      </trkpt>
      <trkpt lat="42.7106" lon="1.3795">
        <ele>1856</ele>
        <time>2013-08-10T08:11:07.000Z</time>
      </trkpt>
      <trkpt lat="42.71061" lon="1.37947">
        <ele>1856</ele>
        <time>2013-08-10T08:11:08.000Z</time>
      </trkpt>
      <trkpt lat="42.71061" lon="1.37945">
        <ele>1856.4000244141</ele>
        <time>2013-08-10T08:11:10.000Z</time>
      </trkpt>
      <trkpt lat="42.71064" lon="1.37939">
        <ele>1857</ele>
        <time>2013-08-10T08:11:13.000Z</time>
      </trkpt>
      <trkpt lat="42.71064" lon="1.37935">
        <ele>1857.4000244141</ele>
        <time>2013-08-10T08:11:16.000Z</time>
      </trkpt>
      <trkpt lat="42.71063" lon="1.37934">
        <ele>1857.8000488281</ele>
        <time>2013-08-10T08:11:18.000Z</time>
      </trkpt>
      <trkpt lat="42.71061" lon="1.37929">
        <ele>1858.4000244141</ele>
        <time>2013-08-10T08:11:22.000Z</time>
      </trkpt>
      <trkpt lat="42.71059" lon="1.37925">
        <ele>1859.4000244141</ele>
        <time>2013-08-10T08:11:27.000Z</time>
      </trkpt>
      <trkpt lat="42.71059" lon="1.37922">
        <ele>1859.8000488281</ele>
        <time>2013-08-10T08:11:29.000Z</time>
      </trkpt>
      <trkpt lat="42.71061" lon="1.37918">
        <ele>1860</ele>
        <time>2013-08-10T08:11:31.000Z</time>
      </trkpt>
      <trkpt lat="42.71061" lon="1.37913">
        <ele>1860.8000488281</ele>
        <time>2013-08-10T08:11:34.000Z</time>
      </trkpt>
      <trkpt lat="42.71061" lon="1.37909">
        <ele>1861.4000244141</ele>
        <time>2013-08-10T08:11:37.000Z</time>
      </trkpt>
      <trkpt lat="42.71062" lon="1.37908">
        <ele>1861.4000244141</ele>
        <time>2013-08-10T08:11:38.000Z</time>
      </trkpt>
      <trkpt lat="42.71062" lon="1.37907">
        <ele>1862</ele>
        <time>2013-08-10T08:11:40.000Z</time>
      </trkpt>
      <trkpt lat="42.71062" lon="1.37904">
        <ele>1862.4000244141</ele>
        <time>2013-08-10T08:11:43.000Z</time>
      </trkpt>
      <trkpt lat="42.71061" lon="1.37899">
        <ele>1863.8000488281</ele>
        <time>2013-08-10T08:11:49.000Z</time>
      </trkpt>
      <trkpt lat="42.7106" lon="1.37894">
        <ele>1865</ele>
        <time>2013-08-10T08:11:55.000Z</time>
      </trkpt>
      <trkpt lat="42.7106" lon="1.37888">
        <ele>1866.4000244141</ele>
        <time>2013-08-10T08:12:00.000Z</time>
      </trkpt>
      <trkpt lat="42.71059" lon="1.37886">
        <ele>1867</ele>
        <time>2013-08-10T08:12:03.000Z</time>
      </trkpt>
      <trkpt lat="42.71061" lon="1.37883">
        <ele>1867.4000244141</ele>
        <time>2013-08-10T08:12:05.000Z</time>
      </trkpt>
      <trkpt lat="42.71061" lon="1.37882">
        <ele>1867.4000244141</ele>
        <time>2013-08-10T08:12:06.000Z</time>
      </trkpt>
      <trkpt lat="42.71062" lon="1.3788">
        <ele>1868</ele>
        <time>2013-08-10T08:12:08.000Z</time>
      </trkpt>
      <trkpt lat="42.71061" lon="1.37878">
        <ele>1868.4000244141</ele>
        <time>2013-08-10T08:12:10.000Z</time>
      </trkpt>
      <trkpt lat="42.71063" lon="1.37874">
        <ele>1869</ele>
        <time>2013-08-10T08:12:13.000Z</time>
      </trkpt>
      <trkpt lat="42.71062" lon="1.37873">
        <ele>1869.4000244141</ele>
        <time>2013-08-10T08:12:14.000Z</time>
      </trkpt>
      <trkpt lat="42.71061" lon="1.37872">
        <ele>1870</ele>
        <time>2013-08-10T08:12:16.000Z</time>
      </trkpt>
      <trkpt lat="42.71057" lon="1.37871">
        <ele>1870.8000488281</ele>
        <time>2013-08-10T08:12:20.000Z</time>
      </trkpt>
      <trkpt lat="42.71056" lon="1.3787">
        <ele>1871</ele>
        <time>2013-08-10T08:12:22.000Z</time>
      </trkpt>
      <trkpt lat="42.71051" lon="1.37872">
        <ele>1871.8000488281</ele>
        <time>2013-08-10T08:12:25.000Z</time>
      </trkpt>
      <trkpt lat="42.71045" lon="1.37873">
        <ele>1873</ele>
        <time>2013-08-10T08:12:31.000Z</time>
      </trkpt>
      <trkpt lat="42.71041" lon="1.3787">
        <ele>1874.4000244141</ele>
        <time>2013-08-10T08:12:37.000Z</time>
      </trkpt>
      <trkpt lat="42.71039" lon="1.37868">
        <ele>1875.4000244141</ele>
        <time>2013-08-10T08:12:43.000Z</time>
      </trkpt>
      <trkpt lat="42.71035" lon="1.37864">
        <ele>1876.4000244141</ele>
        <time>2013-08-10T08:12:49.000Z</time>
      </trkpt>
      <trkpt lat="42.71031" lon="1.37862">
        <ele>1877</ele>
        <time>2013-08-10T08:12:55.000Z</time>
      </trkpt>
      <trkpt lat="42.71028" lon="1.37858">
        <ele>1878</ele>
        <time>2013-08-10T08:13:00.000Z</time>
      </trkpt>
      <trkpt lat="42.71028" lon="1.37855">
        <ele>1878</ele>
        <time>2013-08-10T08:13:02.000Z</time>
      </trkpt>
      <trkpt lat="42.71026" lon="1.37852">
        <ele>1878.4000244141</ele>
        <time>2013-08-10T08:13:04.000Z</time>
      </trkpt>
      <trkpt lat="42.71024" lon="1.37849">
        <ele>1878.8000488281</ele>
        <time>2013-08-10T08:13:07.000Z</time>
      </trkpt>
      <trkpt lat="42.71023" lon="1.37847">
        <ele>1879</ele>
        <time>2013-08-10T08:13:09.000Z</time>
      </trkpt>
      <trkpt lat="42.71024" lon="1.37841">
        <ele>1879.4000244141</ele>
        <time>2013-08-10T08:13:12.000Z</time>
      </trkpt>
      <trkpt lat="42.71023" lon="1.37839">
        <ele>1879.4000244141</ele>
        <time>2013-08-10T08:13:13.000Z</time>
      </trkpt>
      <trkpt lat="42.71024" lon="1.37835">
        <ele>1880</ele>
        <time>2013-08-10T08:13:15.000Z</time>
      </trkpt>
      <trkpt lat="42.71024" lon="1.37832">
        <ele>1880</ele>
        <time>2013-08-10T08:13:17.000Z</time>
      </trkpt>
      <trkpt lat="42.71025" lon="1.37822">
        <ele>1881</ele>
        <time>2013-08-10T08:13:23.000Z</time>
      </trkpt>
      <trkpt lat="42.71024" lon="1.37822">
        <ele>1881</ele>
        <time>2013-08-10T08:13:24.000Z</time>
      </trkpt>
      <trkpt lat="42.71021" lon="1.37818">
        <ele>1881.4000244141</ele>
        <time>2013-08-10T08:13:27.000Z</time>
      </trkpt>
      <trkpt lat="42.71017" lon="1.37814">
        <ele>1882</ele>
        <time>2013-08-10T08:13:32.000Z</time>
      </trkpt>
      <trkpt lat="42.71018" lon="1.37811">
        <ele>1882</ele>
        <time>2013-08-10T08:13:33.000Z</time>
      </trkpt>
      <trkpt lat="42.71018" lon="1.37808">
        <ele>1882.4000244141</ele>
        <time>2013-08-10T08:13:35.000Z</time>
      </trkpt>
      <trkpt lat="42.71018" lon="1.37805">
        <ele>1882.8000488281</ele>
        <time>2013-08-10T08:13:37.000Z</time>
      </trkpt>
      <trkpt lat="42.71018" lon="1.378">
        <ele>1883</ele>
        <time>2013-08-10T08:13:40.000Z</time>
      </trkpt>
      <trkpt lat="42.71018" lon="1.37799">
        <ele>1883</ele>
        <time>2013-08-10T08:13:41.000Z</time>
      </trkpt>
      <trkpt lat="42.7102" lon="1.37791">
        <ele>1883.8000488281</ele>
        <time>2013-08-10T08:13:45.000Z</time>
      </trkpt>
      <trkpt lat="42.71021" lon="1.37787">
        <ele>1884</ele>
        <time>2013-08-10T08:13:47.000Z</time>
      </trkpt>
      <trkpt lat="42.71022" lon="1.37783">
        <ele>1884</ele>
        <time>2013-08-10T08:13:49.000Z</time>
      </trkpt>
      <trkpt lat="42.71022" lon="1.37781">
        <ele>1884.4000244141</ele>
        <time>2013-08-10T08:13:51.000Z</time>
      </trkpt>
      <trkpt lat="42.71022" lon="1.37779">
        <ele>1884.4000244141</ele>
        <time>2013-08-10T08:13:53.000Z</time>
      </trkpt>
      <trkpt lat="42.71023" lon="1.37775">
        <ele>1884.8000488281</ele>
        <time>2013-08-10T08:13:55.000Z</time>
      </trkpt>
      <trkpt lat="42.71023" lon="1.37772">
        <ele>1885</ele>
        <time>2013-08-10T08:13:57.000Z</time>
      </trkpt>
      <trkpt lat="42.71023" lon="1.37771">
        <ele>1885.4000244141</ele>
        <time>2013-08-10T08:13:58.000Z</time>
      </trkpt>
      <trkpt lat="42.71024" lon="1.37769">
        <ele>1885.4000244141</ele>
        <time>2013-08-10T08:14:00.000Z</time>
      </trkpt>
      <trkpt lat="42.71025" lon="1.37765">
        <ele>1885.8000488281</ele>
        <time>2013-08-10T08:14:03.000Z</time>
      </trkpt>
      <trkpt lat="42.71028" lon="1.37758">
        <ele>1886</ele>
        <time>2013-08-10T08:14:06.000Z</time>
      </trkpt>
      <trkpt lat="42.71028" lon="1.37757">
        <ele>1886.4000244141</ele>
        <time>2013-08-10T08:14:07.000Z</time>
      </trkpt>
      <trkpt lat="42.71024" lon="1.37754">
        <ele>1887</ele>
        <time>2013-08-10T08:14:11.000Z</time>
      </trkpt>
      <trkpt lat="42.71023" lon="1.3775">
        <ele>1887</ele>
        <time>2013-08-10T08:14:13.000Z</time>
      </trkpt>
      <trkpt lat="42.71021" lon="1.37744">
        <ele>1887.4000244141</ele>
        <time>2013-08-10T08:14:17.000Z</time>
      </trkpt>
      <trkpt lat="42.71022" lon="1.37741">
        <ele>1887.4000244141</ele>
        <time>2013-08-10T08:14:18.000Z</time>
      </trkpt>
      <trkpt lat="42.71022" lon="1.37739">
        <ele>1887.4000244141</ele>
        <time>2013-08-10T08:14:19.000Z</time>
      </trkpt>
      <trkpt lat="42.7102" lon="1.37732">
        <ele>1887.8000488281</ele>
        <time>2013-08-10T08:14:23.000Z</time>
      </trkpt>
      <trkpt lat="42.71019" lon="1.37729">
        <ele>1888</ele>
        <time>2013-08-10T08:14:25.000Z</time>
      </trkpt>
      <trkpt lat="42.71018" lon="1.37726">
        <ele>1888</ele>
        <time>2013-08-10T08:14:27.000Z</time>
      </trkpt>
      <trkpt lat="42.71018" lon="1.37723">
        <ele>1888</ele>
        <time>2013-08-10T08:14:29.000Z</time>
      </trkpt>
      <trkpt lat="42.71018" lon="1.37717">
        <ele>1888.4000244141</ele>
        <time>2013-08-10T08:14:32.000Z</time>
      </trkpt>
      <trkpt lat="42.71019" lon="1.37714">
        <ele>1888.4000244141</ele>
        <time>2013-08-10T08:14:34.000Z</time>
      </trkpt>
      <trkpt lat="42.71018" lon="1.37712">
        <ele>1888.4000244141</ele>
        <time>2013-08-10T08:14:36.000Z</time>
      </trkpt>
      <trkpt lat="42.71018" lon="1.3771">
        <ele>1888.8000488281</ele>
        <time>2013-08-10T08:14:38.000Z</time>
      </trkpt>
      <trkpt lat="42.71018" lon="1.37709">
        <ele>1889</ele>
        <time>2013-08-10T08:14:40.000Z</time>
      </trkpt>
      <trkpt lat="42.71018" lon="1.37704">
        <ele>1889.4000244141</ele>
        <time>2013-08-10T08:14:43.000Z</time>
      </trkpt>
      <trkpt lat="42.71019" lon="1.37702">
        <ele>1889.4000244141</ele>
        <time>2013-08-10T08:14:44.000Z</time>
      </trkpt>
      <trkpt lat="42.71018" lon="1.377">
        <ele>1890</ele>
        <time>2013-08-10T08:14:48.000Z</time>
      </trkpt>
      <trkpt lat="42.71019" lon="1.37694">
        <ele>1891</ele>
        <time>2013-08-10T08:14:55.000Z</time>
      </trkpt>
      <trkpt lat="42.71019" lon="1.37693">
        <ele>1891</ele>
        <time>2013-08-10T08:14:56.000Z</time>
      </trkpt>
      <trkpt lat="42.71021" lon="1.37689">
        <ele>1891.4000244141</ele>
        <time>2013-08-10T08:14:59.000Z</time>
      </trkpt>
      <trkpt lat="42.7102" lon="1.37688">
        <ele>1891.8000488281</ele>
        <time>2013-08-10T08:15:00.000Z</time>
      </trkpt>
      <trkpt lat="42.71019" lon="1.37683">
        <ele>1893</ele>
        <time>2013-08-10T08:15:07.000Z</time>
      </trkpt>
      <trkpt lat="42.71021" lon="1.3768">
        <ele>1894</ele>
        <time>2013-08-10T08:15:15.000Z</time>
      </trkpt>
      <trkpt lat="42.71021" lon="1.37679">
        <ele>1894.8000488281</ele>
        <time>2013-08-10T08:15:18.000Z</time>
      </trkpt>
      <trkpt lat="42.71021" lon="1.37678">
        <ele>1895</ele>
        <time>2013-08-10T08:15:19.000Z</time>
      </trkpt>
      <trkpt lat="42.71022" lon="1.37676">
        <ele>1895.4000244141</ele>
        <time>2013-08-10T08:15:21.000Z</time>
      </trkpt>
      <trkpt lat="42.7102" lon="1.37674">
        <ele>1896</ele>
        <time>2013-08-10T08:15:25.000Z</time>
      </trkpt>
      <trkpt lat="42.71014" lon="1.37677">
        <ele>1897</ele>
        <time>2013-08-10T08:15:29.000Z</time>
      </trkpt>
      <trkpt lat="42.70998" lon="1.37688">
        <ele>1897.4000244141</ele>
        <time>2013-08-10T08:15:33.000Z</time>
      </trkpt>
      <trkpt lat="42.7099" lon="1.37693">
        <ele>1897.8000488281</ele>
        <time>2013-08-10T08:15:36.000Z</time>
      </trkpt>
      <trkpt lat="42.70987" lon="1.37695">
        <ele>1898</ele>
        <time>2013-08-10T08:15:38.000Z</time>
      </trkpt>
      <trkpt lat="42.70974" lon="1.37691">
        <ele>1898.8000488281</ele>
        <time>2013-08-10T08:15:46.000Z</time>
      </trkpt>
      <trkpt lat="42.70969" lon="1.37683">
        <ele>1899.4000244141</ele>
        <time>2013-08-10T08:15:53.000Z</time>
      </trkpt>
      <trkpt lat="42.70968" lon="1.37677">
        <ele>1899.8000488281</ele>
        <time>2013-08-10T08:15:57.000Z</time>
      </trkpt>
      <trkpt lat="42.70965" lon="1.37677">
        <ele>1899.8000488281</ele>
        <time>2013-08-10T08:15:58.000Z</time>
      </trkpt>
      <trkpt lat="42.70965" lon="1.37676">
        <ele>1899.8000488281</ele>
        <time>2013-08-10T08:15:59.000Z</time>
      </trkpt>
      <trkpt lat="42.70961" lon="1.37671">
        <ele>1899.8000488281</ele>
        <time>2013-08-10T08:16:03.000Z</time>
      </trkpt>
      <trkpt lat="42.70957" lon="1.37665">
        <ele>1900</ele>
        <time>2013-08-10T08:16:08.000Z</time>
      </trkpt>
      <trkpt lat="42.70957" lon="1.37664">
        <ele>1900</ele>
        <time>2013-08-10T08:16:09.000Z</time>
      </trkpt>
      <trkpt lat="42.70957" lon="1.3766">
        <ele>1900</ele>
        <time>2013-08-10T08:16:13.000Z</time>
      </trkpt>
      <trkpt lat="42.70954" lon="1.37653">
        <ele>1900</ele>
        <time>2013-08-10T08:16:18.000Z</time>
      </trkpt>
      <trkpt lat="42.70953" lon="1.3765">
        <ele>1900</ele>
        <time>2013-08-10T08:16:24.000Z</time>
      </trkpt>
      <trkpt lat="42.70953" lon="1.37648">
        <ele>1900</ele>
        <time>2013-08-10T08:16:26.000Z</time>
      </trkpt>
      <trkpt lat="42.70953" lon="1.37644">
        <ele>1900</ele>
        <time>2013-08-10T08:16:29.000Z</time>
      </trkpt>
      <trkpt lat="42.70953" lon="1.37643">
        <ele>1900</ele>
        <time>2013-08-10T08:16:30.000Z</time>
      </trkpt>
      <trkpt lat="42.70953" lon="1.37639">
        <ele>1900</ele>
        <time>2013-08-10T08:16:33.000Z</time>
      </trkpt>
      <trkpt lat="42.70953" lon="1.37632">
        <ele>1900</ele>
        <time>2013-08-10T08:16:37.000Z</time>
      </trkpt>
      <trkpt lat="42.70951" lon="1.3763">
        <ele>1900</ele>
        <time>2013-08-10T08:16:38.000Z</time>
      </trkpt>
      <trkpt lat="42.70947" lon="1.37622">
        <ele>1900</ele>
        <time>2013-08-10T08:16:43.000Z</time>
      </trkpt>
      <trkpt lat="42.70942" lon="1.37611">
        <ele>1899.8000488281</ele>
        <time>2013-08-10T08:16:50.000Z</time>
      </trkpt>
      <trkpt lat="42.70941" lon="1.37609">
        <ele>1899.8000488281</ele>
        <time>2013-08-10T08:16:55.000Z</time>
      </trkpt>
      <trkpt lat="42.70936" lon="1.37603">
        <ele>1899.8000488281</ele>
        <time>2013-08-10T08:17:00.000Z</time>
      </trkpt>
      <trkpt lat="42.70935" lon="1.37602">
        <ele>1899.8000488281</ele>
        <time>2013-08-10T08:17:01.000Z</time>
      </trkpt>
      <trkpt lat="42.7093" lon="1.37592">
        <ele>1899.8000488281</ele>
        <time>2013-08-10T08:17:08.000Z</time>
      </trkpt>
      <trkpt lat="42.70927" lon="1.37589">
        <ele>1899.8000488281</ele>
        <time>2013-08-10T08:17:11.000Z</time>
      </trkpt>
      <trkpt lat="42.70925" lon="1.37585">
        <ele>1899.8000488281</ele>
        <time>2013-08-10T08:17:14.000Z</time>
      </trkpt>
      <trkpt lat="42.70922" lon="1.3758">
        <ele>1899.8000488281</ele>
        <time>2013-08-10T08:17:18.000Z</time>
      </trkpt>
      <trkpt lat="42.70919" lon="1.37577">
        <ele>1899.8000488281</ele>
        <time>2013-08-10T08:17:21.000Z</time>
      </trkpt>
      <trkpt lat="42.70917" lon="1.37575">
        <ele>1899.8000488281</ele>
        <time>2013-08-10T08:17:23.000Z</time>
      </trkpt>
      <trkpt lat="42.70913" lon="1.37572">
        <ele>1899.8000488281</ele>
        <time>2013-08-10T08:17:27.000Z</time>
      </trkpt>
      <trkpt lat="42.70913" lon="1.37571">
        <ele>1900</ele>
        <time>2013-08-10T08:17:28.000Z</time>
      </trkpt>
      <trkpt lat="42.70909" lon="1.37567">
        <ele>1900</ele>
        <time>2013-08-10T08:17:33.000Z</time>
      </trkpt>
      <trkpt lat="42.70908" lon="1.37566">
        <ele>1900</ele>
        <time>2013-08-10T08:17:34.000Z</time>
      </trkpt>
      <trkpt lat="42.70906" lon="1.37563">
        <ele>1900</ele>
        <time>2013-08-10T08:17:37.000Z</time>
      </trkpt>
      <trkpt lat="42.70905" lon="1.3756">
        <ele>1900.4000244141</ele>
        <time>2013-08-10T08:17:39.000Z</time>
      </trkpt>
      <trkpt lat="42.70904" lon="1.37554">
        <ele>1900.4000244141</ele>
        <time>2013-08-10T08:17:44.000Z</time>
      </trkpt>
      <trkpt lat="42.70902" lon="1.37553">
        <ele>1900.4000244141</ele>
        <time>2013-08-10T08:17:46.000Z</time>
      </trkpt>
      <trkpt lat="42.70901" lon="1.37551">
        <ele>1900.4000244141</ele>
        <time>2013-08-10T08:17:47.000Z</time>
      </trkpt>
      <trkpt lat="42.70902" lon="1.3755">
        <ele>1900.4000244141</ele>
        <time>2013-08-10T08:17:48.000Z</time>
      </trkpt>
      <trkpt lat="42.70901" lon="1.37547">
        <ele>1900.8000488281</ele>
        <time>2013-08-10T08:17:51.000Z</time>
      </trkpt>
      <trkpt lat="42.70897" lon="1.37536">
        <ele>1901</ele>
        <time>2013-08-10T08:17:59.000Z</time>
      </trkpt>
      <trkpt lat="42.70895" lon="1.37531">
        <ele>1901.4000244141</ele>
        <time>2013-08-10T08:18:03.000Z</time>
      </trkpt>
      <trkpt lat="42.70894" lon="1.3753">
        <ele>1901.4000244141</ele>
        <time>2013-08-10T08:18:04.000Z</time>
      </trkpt>
      <trkpt lat="42.70892" lon="1.37525">
        <ele>1901.4000244141</ele>
        <time>2013-08-10T08:18:08.000Z</time>
      </trkpt>
      <trkpt lat="42.70892" lon="1.37522">
        <ele>1901.4000244141</ele>
        <time>2013-08-10T08:18:10.000Z</time>
      </trkpt>
      <trkpt lat="42.70892" lon="1.37519">
        <ele>1901.4000244141</ele>
        <time>2013-08-10T08:18:12.000Z</time>
      </trkpt>
      <trkpt lat="42.70892" lon="1.37518">
        <ele>1901.4000244141</ele>
        <time>2013-08-10T08:18:13.000Z</time>
      </trkpt>
      <trkpt lat="42.70891" lon="1.37516">
        <ele>1901.4000244141</ele>
        <time>2013-08-10T08:18:15.000Z</time>
      </trkpt>
      <trkpt lat="42.70886" lon="1.37511">
        <ele>1901.8000488281</ele>
        <time>2013-08-10T08:18:20.000Z</time>
      </trkpt>
      <trkpt lat="42.7088" lon="1.37496">
        <ele>1902</ele>
        <time>2013-08-10T08:18:29.000Z</time>
      </trkpt>
      <trkpt lat="42.70874" lon="1.37484">
        <ele>1902</ele>
        <time>2013-08-10T08:18:38.000Z</time>
      </trkpt>
      <trkpt lat="42.70874" lon="1.37478">
        <ele>1902.4000244141</ele>
        <time>2013-08-10T08:18:42.000Z</time>
      </trkpt>
      <trkpt lat="42.70874" lon="1.37475">
        <ele>1902.4000244141</ele>
        <time>2013-08-10T08:18:44.000Z</time>
      </trkpt>
      <trkpt lat="42.70874" lon="1.37473">
        <ele>1902.4000244141</ele>
        <time>2013-08-10T08:18:45.000Z</time>
      </trkpt>
      <trkpt lat="42.70872" lon="1.37467">
        <ele>1902.4000244141</ele>
        <time>2013-08-10T08:18:49.000Z</time>
      </trkpt>
      <trkpt lat="42.7087" lon="1.37457">
        <ele>1902.4000244141</ele>
        <time>2013-08-10T08:18:55.000Z</time>
      </trkpt>
      <trkpt lat="42.70869" lon="1.37451">
        <ele>1902.8000488281</ele>
        <time>2013-08-10T08:18:59.000Z</time>
      </trkpt>
      <trkpt lat="42.70867" lon="1.37447">
        <ele>1902.8000488281</ele>
        <time>2013-08-10T08:19:02.000Z</time>
      </trkpt>
      <trkpt lat="42.70863" lon="1.37437">
        <ele>1903</ele>
        <time>2013-08-10T08:19:10.000Z</time>
      </trkpt>
      <trkpt lat="42.70863" lon="1.37431">
        <ele>1903.4000244141</ele>
        <time>2013-08-10T08:19:14.000Z</time>
      </trkpt>
      <trkpt lat="42.70863" lon="1.37427">
        <ele>1903.4000244141</ele>
        <time>2013-08-10T08:19:17.000Z</time>
      </trkpt>
      <trkpt lat="42.70862" lon="1.37425">
        <ele>1903.4000244141</ele>
        <time>2013-08-10T08:19:18.000Z</time>
      </trkpt>
      <trkpt lat="42.7086" lon="1.37421">
        <ele>1903.8000488281</ele>
        <time>2013-08-10T08:19:21.000Z</time>
      </trkpt>
      <trkpt lat="42.70858" lon="1.37418">
        <ele>1904</ele>
        <time>2013-08-10T08:19:25.000Z</time>
      </trkpt>
      <trkpt lat="42.70856" lon="1.37413">
        <ele>1904.4000244141</ele>
        <time>2013-08-10T08:19:29.000Z</time>
      </trkpt>
      <trkpt lat="42.70854" lon="1.37409">
        <ele>1904.8000488281</ele>
        <time>2013-08-10T08:19:32.000Z</time>
      </trkpt>
      <trkpt lat="42.70854" lon="1.37406">
        <ele>1905</ele>
        <time>2013-08-10T08:19:34.000Z</time>
      </trkpt>
      <trkpt lat="42.70852" lon="1.37397">
        <ele>1905.4000244141</ele>
        <time>2013-08-10T08:19:40.000Z</time>
      </trkpt>
      <trkpt lat="42.70852" lon="1.37396">
        <ele>1905.4000244141</ele>
        <time>2013-08-10T08:19:41.000Z</time>
      </trkpt>
      <trkpt lat="42.70851" lon="1.37391">
        <ele>1905.8000488281</ele>
        <time>2013-08-10T08:19:45.000Z</time>
      </trkpt>
      <trkpt lat="42.70848" lon="1.37386">
        <ele>1906</ele>
        <time>2013-08-10T08:19:50.000Z</time>
      </trkpt>
      <trkpt lat="42.70847" lon="1.3738">
        <ele>1906.4000244141</ele>
        <time>2013-08-10T08:19:55.000Z</time>
      </trkpt>
      <trkpt lat="42.70847" lon="1.37379">
        <ele>1906.8000488281</ele>
        <time>2013-08-10T08:19:56.000Z</time>
      </trkpt>
      <trkpt lat="42.70847" lon="1.37373">
        <ele>1907.4000244141</ele>
        <time>2013-08-10T08:20:01.000Z</time>
      </trkpt>
      <trkpt lat="42.70846" lon="1.37372">
        <ele>1907.4000244141</ele>
        <time>2013-08-10T08:20:03.000Z</time>
      </trkpt>
      <trkpt lat="42.70845" lon="1.37368">
        <ele>1908</ele>
        <time>2013-08-10T08:20:07.000Z</time>
      </trkpt>
      <trkpt lat="42.70844" lon="1.37364">
        <ele>1909</ele>
        <time>2013-08-10T08:20:13.000Z</time>
      </trkpt>
      <trkpt lat="42.70842" lon="1.37363">
        <ele>1910</ele>
        <time>2013-08-10T08:20:20.000Z</time>
      </trkpt>
      <trkpt lat="42.70838" lon="1.37359">
        <ele>1910.8000488281</ele>
        <time>2013-08-10T08:20:26.000Z</time>
      </trkpt>
      <trkpt lat="42.70838" lon="1.37358">
        <ele>1911</ele>
        <time>2013-08-10T08:20:27.000Z</time>
      </trkpt>
      <trkpt lat="42.70838" lon="1.37356">
        <ele>1911</ele>
        <time>2013-08-10T08:20:28.000Z</time>
      </trkpt>
      <trkpt lat="42.70837" lon="1.37351">
        <ele>1911.4000244141</ele>
        <time>2013-08-10T08:20:32.000Z</time>
      </trkpt>
      <trkpt lat="42.70837" lon="1.3735">
        <ele>1911.8000488281</ele>
        <time>2013-08-10T08:20:33.000Z</time>
      </trkpt>
      <trkpt lat="42.70835" lon="1.37347">
        <ele>1912.4000244141</ele>
        <time>2013-08-10T08:20:37.000Z</time>
      </trkpt>
      <trkpt lat="42.70835" lon="1.37346">
        <ele>1912.4000244141</ele>
        <time>2013-08-10T08:20:38.000Z</time>
      </trkpt>
      <trkpt lat="42.70832" lon="1.37346">
        <ele>1913</ele>
        <time>2013-08-10T08:20:41.000Z</time>
      </trkpt>
      <trkpt lat="42.70831" lon="1.37343">
        <ele>1913.4000244141</ele>
        <time>2013-08-10T08:20:44.000Z</time>
      </trkpt>
      <trkpt lat="42.7083" lon="1.37339">
        <ele>1914.4000244141</ele>
        <time>2013-08-10T08:20:49.000Z</time>
      </trkpt>
      <trkpt lat="42.7083" lon="1.37335">
        <ele>1915</ele>
        <time>2013-08-10T08:20:52.000Z</time>
      </trkpt>
      <trkpt lat="42.70828" lon="1.37333">
        <ele>1915.8000488281</ele>
        <time>2013-08-10T08:20:55.000Z</time>
      </trkpt>
      <trkpt lat="42.70827" lon="1.37333">
        <ele>1916</ele>
        <time>2013-08-10T08:20:56.000Z</time>
      </trkpt>
      <trkpt lat="42.70825" lon="1.37332">
        <ele>1916.4000244141</ele>
        <time>2013-08-10T08:20:58.000Z</time>
      </trkpt>
      <trkpt lat="42.70825" lon="1.3733">
        <ele>1917</ele>
        <time>2013-08-10T08:21:01.000Z</time>
      </trkpt>
      <trkpt lat="42.70822" lon="1.37326">
        <ele>1918</ele>
        <time>2013-08-10T08:21:07.000Z</time>
      </trkpt>
      <trkpt lat="42.7082" lon="1.37322">
        <ele>1919.4000244141</ele>
        <time>2013-08-10T08:21:12.000Z</time>
      </trkpt>
      <trkpt lat="42.70818" lon="1.3732">
        <ele>1920.4000244141</ele>
        <time>2013-08-10T08:21:16.000Z</time>
      </trkpt>
      <trkpt lat="42.70817" lon="1.37317">
        <ele>1921</ele>
        <time>2013-08-10T08:21:20.000Z</time>
      </trkpt>
      <trkpt lat="42.70815" lon="1.37313">
        <ele>1922.4000244141</ele>
        <time>2013-08-10T08:21:25.000Z</time>
      </trkpt>
      <trkpt lat="42.70812" lon="1.3731">
        <ele>1923</ele>
        <time>2013-08-10T08:21:29.000Z</time>
      </trkpt>
      <trkpt lat="42.70809" lon="1.37306">
        <ele>1924</ele>
        <time>2013-08-10T08:21:34.000Z</time>
      </trkpt>
      <trkpt lat="42.70809" lon="1.37304">
        <ele>1924.4000244141</ele>
        <time>2013-08-10T08:21:36.000Z</time>
      </trkpt>
      <trkpt lat="42.70806" lon="1.373">
        <ele>1925</ele>
        <time>2013-08-10T08:21:40.000Z</time>
      </trkpt>
      <trkpt lat="42.70805" lon="1.37299">
        <ele>1925.4000244141</ele>
        <time>2013-08-10T08:21:42.000Z</time>
      </trkpt>
      <trkpt lat="42.70803" lon="1.37294">
        <ele>1926.4000244141</ele>
        <time>2013-08-10T08:21:47.000Z</time>
      </trkpt>
      <trkpt lat="42.70802" lon="1.37291">
        <ele>1927</ele>
        <time>2013-08-10T08:21:50.000Z</time>
      </trkpt>
      <trkpt lat="42.70802" lon="1.3729">
        <ele>1927.4000244141</ele>
        <time>2013-08-10T08:21:52.000Z</time>
      </trkpt>
      <trkpt lat="42.70801" lon="1.37288">
        <ele>1927.8000488281</ele>
        <time>2013-08-10T08:21:54.000Z</time>
      </trkpt>
      <trkpt lat="42.70799" lon="1.37287">
        <ele>1928</ele>
        <time>2013-08-10T08:21:56.000Z</time>
      </trkpt>
      <trkpt lat="42.70797" lon="1.37283">
        <ele>1928.8000488281</ele>
        <time>2013-08-10T08:22:00.000Z</time>
      </trkpt>
      <trkpt lat="42.70794" lon="1.37279">
        <ele>1930</ele>
        <time>2013-08-10T08:22:07.000Z</time>
      </trkpt>
      <trkpt lat="42.70792" lon="1.37273">
        <ele>1930.8000488281</ele>
        <time>2013-08-10T08:22:13.000Z</time>
      </trkpt>
      <trkpt lat="42.70789" lon="1.3727">
        <ele>1931.4000244141</ele>
        <time>2013-08-10T08:22:17.000Z</time>
      </trkpt>
      <trkpt lat="42.70786" lon="1.37266">
        <ele>1932.4000244141</ele>
        <time>2013-08-10T08:22:22.000Z</time>
      </trkpt>
      <trkpt lat="42.70784" lon="1.37262">
        <ele>1933</ele>
        <time>2013-08-10T08:22:26.000Z</time>
      </trkpt>
      <trkpt lat="42.70783" lon="1.37261">
        <ele>1933</ele>
        <time>2013-08-10T08:22:27.000Z</time>
      </trkpt>
      <trkpt lat="42.70783" lon="1.3726">
        <ele>1933.4000244141</ele>
        <time>2013-08-10T08:22:28.000Z</time>
      </trkpt>
      <trkpt lat="42.70781" lon="1.3726">
        <ele>1933.8000488281</ele>
        <time>2013-08-10T08:22:30.000Z</time>
      </trkpt>
      <trkpt lat="42.70778" lon="1.37259">
        <ele>1935</ele>
        <time>2013-08-10T08:22:35.000Z</time>
      </trkpt>
      <trkpt lat="42.70776" lon="1.37259">
        <ele>1935.4000244141</ele>
        <time>2013-08-10T08:22:37.000Z</time>
      </trkpt>
      <trkpt lat="42.70775" lon="1.37257">
        <ele>1935.8000488281</ele>
        <time>2013-08-10T08:22:39.000Z</time>
      </trkpt>
      <trkpt lat="42.70774" lon="1.37252">
        <ele>1937</ele>
        <time>2013-08-10T08:22:44.000Z</time>
      </trkpt>
      <trkpt lat="42.70772" lon="1.37247">
        <ele>1938</ele>
        <time>2013-08-10T08:22:49.000Z</time>
      </trkpt>
      <trkpt lat="42.70771" lon="1.37246">
        <ele>1938</ele>
        <time>2013-08-10T08:22:50.000Z</time>
      </trkpt>
      <trkpt lat="42.7077" lon="1.37245">
        <ele>1938.8000488281</ele>
        <time>2013-08-10T08:22:53.000Z</time>
      </trkpt>
      <trkpt lat="42.70767" lon="1.37244">
        <ele>1939.8000488281</ele>
        <time>2013-08-10T08:22:57.000Z</time>
      </trkpt>
      <trkpt lat="42.70765" lon="1.37243">
        <ele>1940.8000488281</ele>
        <time>2013-08-10T08:23:01.000Z</time>
      </trkpt>
      <trkpt lat="42.70763" lon="1.37241">
        <ele>1942</ele>
        <time>2013-08-10T08:23:06.000Z</time>
      </trkpt>
      <trkpt lat="42.70762" lon="1.37237">
        <ele>1943</ele>
        <time>2013-08-10T08:23:12.000Z</time>
      </trkpt>
      <trkpt lat="42.70759" lon="1.37232">
        <ele>1944.8000488281</ele>
        <time>2013-08-10T08:23:19.000Z</time>
      </trkpt>
      <trkpt lat="42.70756" lon="1.37228">
        <ele>1946</ele>
        <time>2013-08-10T08:23:26.000Z</time>
      </trkpt>
      <trkpt lat="42.70754" lon="1.37224">
        <ele>1947</ele>
        <time>2013-08-10T08:23:30.000Z</time>
      </trkpt>
      <trkpt lat="42.70751" lon="1.37222">
        <ele>1947.8000488281</ele>
        <time>2013-08-10T08:23:34.000Z</time>
      </trkpt>
      <trkpt lat="42.70748" lon="1.37218">
        <ele>1949</ele>
        <time>2013-08-10T08:23:39.000Z</time>
      </trkpt>
      <trkpt lat="42.70747" lon="1.37215">
        <ele>1949.4000244141</ele>
        <time>2013-08-10T08:23:42.000Z</time>
      </trkpt>
      <trkpt lat="42.70746" lon="1.37214">
        <ele>1949.4000244141</ele>
        <time>2013-08-10T08:23:43.000Z</time>
      </trkpt>
      <trkpt lat="42.70742" lon="1.37211">
        <ele>1950.8000488281</ele>
        <time>2013-08-10T08:23:48.000Z</time>
      </trkpt>
      <trkpt lat="42.70736" lon="1.37206">
        <ele>1952.4000244141</ele>
        <time>2013-08-10T08:23:56.000Z</time>
      </trkpt>
      <trkpt lat="42.70734" lon="1.37204">
        <ele>1953</ele>
        <time>2013-08-10T08:23:58.000Z</time>
      </trkpt>
      <trkpt lat="42.70731" lon="1.37201">
        <ele>1954</ele>
        <time>2013-08-10T08:24:02.000Z</time>
      </trkpt>
      <trkpt lat="42.70726" lon="1.372">
        <ele>1955.4000244141</ele>
        <time>2013-08-10T08:24:08.000Z</time>
      </trkpt>
      <trkpt lat="42.70723" lon="1.37199">
        <ele>1956</ele>
        <time>2013-08-10T08:24:11.000Z</time>
      </trkpt>
      <trkpt lat="42.70721" lon="1.37196">
        <ele>1956.8000488281</ele>
        <time>2013-08-10T08:24:14.000Z</time>
      </trkpt>
      <trkpt lat="42.7072" lon="1.37196">
        <ele>1957</ele>
        <time>2013-08-10T08:24:15.000Z</time>
      </trkpt>
      <trkpt lat="42.70718" lon="1.37194">
        <ele>1957.4000244141</ele>
        <time>2013-08-10T08:24:18.000Z</time>
      </trkpt>
      <trkpt lat="42.70715" lon="1.37193">
        <ele>1958.4000244141</ele>
        <time>2013-08-10T08:24:21.000Z</time>
      </trkpt>
      <trkpt lat="42.70712" lon="1.37191">
        <ele>1959</ele>
        <time>2013-08-10T08:24:24.000Z</time>
      </trkpt>
      <trkpt lat="42.70709" lon="1.37189">
        <ele>1960</ele>
        <time>2013-08-10T08:24:28.000Z</time>
      </trkpt>
      <trkpt lat="42.70707" lon="1.37187">
        <ele>1960.4000244141</ele>
        <time>2013-08-10T08:24:31.000Z</time>
      </trkpt>
      <trkpt lat="42.70706" lon="1.37188">
        <ele>1960.8000488281</ele>
        <time>2013-08-10T08:24:33.000Z</time>
      </trkpt>
      <trkpt lat="42.70703" lon="1.37188">
        <ele>1961.4000244141</ele>
        <time>2013-08-10T08:24:36.000Z</time>
      </trkpt>
      <trkpt lat="42.70698" lon="1.37183">
        <ele>1962.8000488281</ele>
        <time>2013-08-10T08:24:43.000Z</time>
      </trkpt>
      <trkpt lat="42.70693" lon="1.37182">
        <ele>1963.4000244141</ele>
        <time>2013-08-10T08:24:48.000Z</time>
      </trkpt>
      <trkpt lat="42.7069" lon="1.37179">
        <ele>1964.4000244141</ele>
        <time>2013-08-10T08:24:52.000Z</time>
      </trkpt>
      <trkpt lat="42.70686" lon="1.37176">
        <ele>1965</ele>
        <time>2013-08-10T08:24:57.000Z</time>
      </trkpt>
      <trkpt lat="42.70683" lon="1.37175">
        <ele>1966</ele>
        <time>2013-08-10T08:25:01.000Z</time>
      </trkpt>
      <trkpt lat="42.70682" lon="1.37173">
        <ele>1966</ele>
        <time>2013-08-10T08:25:03.000Z</time>
      </trkpt>
      <trkpt lat="42.7068" lon="1.37172">
        <ele>1966.4000244141</ele>
        <time>2013-08-10T08:25:05.000Z</time>
      </trkpt>
      <trkpt lat="42.70679" lon="1.37172">
        <ele>1966.8000488281</ele>
        <time>2013-08-10T08:25:06.000Z</time>
      </trkpt>
      <trkpt lat="42.70677" lon="1.3717">
        <ele>1967.4000244141</ele>
        <time>2013-08-10T08:25:09.000Z</time>
      </trkpt>
      <trkpt lat="42.70674" lon="1.37168">
        <ele>1968</ele>
        <time>2013-08-10T08:25:12.000Z</time>
      </trkpt>
      <trkpt lat="42.70672" lon="1.37167">
        <ele>1968.4000244141</ele>
        <time>2013-08-10T08:25:14.000Z</time>
      </trkpt>
      <trkpt lat="42.70669" lon="1.37164">
        <ele>1969</ele>
        <time>2013-08-10T08:25:17.000Z</time>
      </trkpt>
      <trkpt lat="42.70667" lon="1.37161">
        <ele>1969.4000244141</ele>
        <time>2013-08-10T08:25:20.000Z</time>
      </trkpt>
      <trkpt lat="42.70666" lon="1.37158">
        <ele>1970</ele>
        <time>2013-08-10T08:25:22.000Z</time>
      </trkpt>
      <trkpt lat="42.70665" lon="1.37158">
        <ele>1970</ele>
        <time>2013-08-10T08:25:23.000Z</time>
      </trkpt>
      <trkpt lat="42.70663" lon="1.37154">
        <ele>1971</ele>
        <time>2013-08-10T08:25:27.000Z</time>
      </trkpt>
      <trkpt lat="42.7066" lon="1.37151">
        <ele>1971.4000244141</ele>
        <time>2013-08-10T08:25:30.000Z</time>
      </trkpt>
      <trkpt lat="42.70659" lon="1.3715">
        <ele>1972</ele>
        <time>2013-08-10T08:25:32.000Z</time>
      </trkpt>
      <trkpt lat="42.70658" lon="1.37149">
        <ele>1972</ele>
        <time>2013-08-10T08:25:33.000Z</time>
      </trkpt>
      <trkpt lat="42.70656" lon="1.37146">
        <ele>1972.8000488281</ele>
        <time>2013-08-10T08:25:36.000Z</time>
      </trkpt>
      <trkpt lat="42.70654" lon="1.37143">
        <ele>1973.4000244141</ele>
        <time>2013-08-10T08:25:39.000Z</time>
      </trkpt>
      <trkpt lat="42.70652" lon="1.37141">
        <ele>1973.8000488281</ele>
        <time>2013-08-10T08:25:41.000Z</time>
      </trkpt>
      <trkpt lat="42.7065" lon="1.37138">
        <ele>1974.4000244141</ele>
        <time>2013-08-10T08:25:44.000Z</time>
      </trkpt>
      <trkpt lat="42.70649" lon="1.37135">
        <ele>1975</ele>
        <time>2013-08-10T08:25:47.000Z</time>
      </trkpt>
      <trkpt lat="42.70647" lon="1.37133">
        <ele>1975.4000244141</ele>
        <time>2013-08-10T08:25:49.000Z</time>
      </trkpt>
      <trkpt lat="42.70646" lon="1.37132">
        <ele>1975.8000488281</ele>
        <time>2013-08-10T08:25:50.000Z</time>
      </trkpt>
      <trkpt lat="42.70645" lon="1.3713">
        <ele>1976</ele>
        <time>2013-08-10T08:25:53.000Z</time>
      </trkpt>
      <trkpt lat="42.70645" lon="1.3713">
        <ele>1976.4000244141</ele>
        <time>2013-08-10T08:25:54.000Z</time>
      </trkpt>
      <trkpt lat="42.70641" lon="1.37125">
        <ele>1977.4000244141</ele>
        <time>2013-08-10T08:25:59.000Z</time>
      </trkpt>
      <trkpt lat="42.7064" lon="1.37125">
        <ele>1978</ele>
        <time>2013-08-10T08:26:01.000Z</time>
      </trkpt>
      <trkpt lat="42.70638" lon="1.37126">
        <ele>1978.4000244141</ele>
        <time>2013-08-10T08:26:03.000Z</time>
      </trkpt>
      <trkpt lat="42.70635" lon="1.37121">
        <ele>1979.4000244141</ele>
        <time>2013-08-10T08:26:08.000Z</time>
      </trkpt>
      <trkpt lat="42.70633" lon="1.37115">
        <ele>1980.8000488281</ele>
        <time>2013-08-10T08:26:13.000Z</time>
      </trkpt>
      <trkpt lat="42.70633" lon="1.37114">
        <ele>1981</ele>
        <time>2013-08-10T08:26:14.000Z</time>
      </trkpt>
      <trkpt lat="42.70629" lon="1.37109">
        <ele>1982</ele>
        <time>2013-08-10T08:26:19.000Z</time>
      </trkpt>
      <trkpt lat="42.70627" lon="1.37103">
        <ele>1983.4000244141</ele>
        <time>2013-08-10T08:26:26.000Z</time>
      </trkpt>
      <trkpt lat="42.70625" lon="1.37102">
        <ele>1984</ele>
        <time>2013-08-10T08:26:28.000Z</time>
      </trkpt>
      <trkpt lat="42.70624" lon="1.37102">
        <ele>1984.4000244141</ele>
        <time>2013-08-10T08:26:31.000Z</time>
      </trkpt>
      <trkpt lat="42.70622" lon="1.37099">
        <ele>1985.4000244141</ele>
        <time>2013-08-10T08:26:35.000Z</time>
      </trkpt>
      <trkpt lat="42.7062" lon="1.37096">
        <ele>1986.4000244141</ele>
        <time>2013-08-10T08:26:40.000Z</time>
      </trkpt>
      <trkpt lat="42.70618" lon="1.37092">
        <ele>1987.4000244141</ele>
        <time>2013-08-10T08:26:45.000Z</time>
      </trkpt>
      <trkpt lat="42.70616" lon="1.37088">
        <ele>1988</ele>
        <time>2013-08-10T08:26:50.000Z</time>
      </trkpt>
      <trkpt lat="42.70614" lon="1.37084">
        <ele>1989</ele>
        <time>2013-08-10T08:26:54.000Z</time>
      </trkpt>
      <trkpt lat="42.70614" lon="1.37083">
        <ele>1989</ele>
        <time>2013-08-10T08:26:55.000Z</time>
      </trkpt>
      <trkpt lat="42.70611" lon="1.37081">
        <ele>1990</ele>
        <time>2013-08-10T08:27:00.000Z</time>
      </trkpt>
      <trkpt lat="42.70609" lon="1.37078">
        <ele>1991</ele>
        <time>2013-08-10T08:27:05.000Z</time>
      </trkpt>
      <trkpt lat="42.70606" lon="1.37077">
        <ele>1992</ele>
        <time>2013-08-10T08:27:10.000Z</time>
      </trkpt>
      <trkpt lat="42.70604" lon="1.37073">
        <ele>1993</ele>
        <time>2013-08-10T08:27:15.000Z</time>
      </trkpt>
      <trkpt lat="42.70601" lon="1.37068">
        <ele>1994.4000244141</ele>
        <time>2013-08-10T08:27:22.000Z</time>
      </trkpt>
      <trkpt lat="42.70599" lon="1.37065">
        <ele>1995.8000488281</ele>
        <time>2013-08-10T08:27:29.000Z</time>
      </trkpt>
      <trkpt lat="42.70596" lon="1.37065">
        <ele>1996.8000488281</ele>
        <time>2013-08-10T08:27:33.000Z</time>
      </trkpt>
      <trkpt lat="42.70597" lon="1.37062">
        <ele>1997.4000244141</ele>
        <time>2013-08-10T08:27:37.000Z</time>
      </trkpt>
      <trkpt lat="42.70598" lon="1.37057">
        <ele>1998.8000488281</ele>
        <time>2013-08-10T08:27:42.000Z</time>
      </trkpt>
      <trkpt lat="42.70598" lon="1.37053">
        <ele>2000</ele>
        <time>2013-08-10T08:27:47.000Z</time>
      </trkpt>
      <trkpt lat="42.70598" lon="1.37049">
        <ele>2001</ele>
        <time>2013-08-10T08:27:51.000Z</time>
      </trkpt>
      <trkpt lat="42.70597" lon="1.37046">
        <ele>2002</ele>
        <time>2013-08-10T08:27:55.000Z</time>
      </trkpt>
      <trkpt lat="42.70595" lon="1.37044">
        <ele>2003</ele>
        <time>2013-08-10T08:28:01.000Z</time>
      </trkpt>
      <trkpt lat="42.70596" lon="1.37039">
        <ele>2004</ele>
        <time>2013-08-10T08:28:06.000Z</time>
      </trkpt>
      <trkpt lat="42.70596" lon="1.3704">
        <ele>2004.8000488281</ele>
        <time>2013-08-10T08:28:09.000Z</time>
      </trkpt>
      <trkpt lat="42.70597" lon="1.37039">
        <ele>2005</ele>
        <time>2013-08-10T08:28:10.000Z</time>
      </trkpt>
      <trkpt lat="42.70596" lon="1.37036">
        <ele>2005.8000488281</ele>
        <time>2013-08-10T08:28:13.000Z</time>
      </trkpt>
      <trkpt lat="42.70596" lon="1.37031">
        <ele>2006.8000488281</ele>
        <time>2013-08-10T08:28:18.000Z</time>
      </trkpt>
      <trkpt lat="42.70596" lon="1.37028">
        <ele>2008</ele>
        <time>2013-08-10T08:28:23.000Z</time>
      </trkpt>
      <trkpt lat="42.70596" lon="1.37026">
        <ele>2008.8000488281</ele>
        <time>2013-08-10T08:28:27.000Z</time>
      </trkpt>
      <trkpt lat="42.70595" lon="1.37026">
        <ele>2016.4000244141</ele>
        <time>2013-08-10T08:29:09.000Z</time>
      </trkpt>
      <trkpt lat="42.70596" lon="1.37023">
        <ele>2018.8000488281</ele>
        <time>2013-08-10T08:29:31.000Z</time>
      </trkpt>
      <trkpt lat="42.70595" lon="1.37021">
        <ele>2019.8000488281</ele>
        <time>2013-08-10T08:29:42.000Z</time>
      </trkpt>
      <trkpt lat="42.70594" lon="1.37018">
        <ele>2021</ele>
        <time>2013-08-10T08:30:00.000Z</time>
      </trkpt>
      <trkpt lat="42.70593" lon="1.37015">
        <ele>2021.4000244141</ele>
        <time>2013-08-10T08:30:03.000Z</time>
      </trkpt>
      <trkpt lat="42.70593" lon="1.37013">
        <ele>2021.4000244141</ele>
        <time>2013-08-10T08:30:04.000Z</time>
      </trkpt>
      <trkpt lat="42.70593" lon="1.37005">
        <ele>2022</ele>
        <time>2013-08-10T08:30:09.000Z</time>
      </trkpt>
      <trkpt lat="42.70593" lon="1.36999">
        <ele>2022.4000244141</ele>
        <time>2013-08-10T08:30:13.000Z</time>
      </trkpt>
      <trkpt lat="42.70592" lon="1.36997">
        <ele>2022.4000244141</ele>
        <time>2013-08-10T08:30:15.000Z</time>
      </trkpt>
      <trkpt lat="42.70593" lon="1.36991">
        <ele>2023</ele>
        <time>2013-08-10T08:30:20.000Z</time>
      </trkpt>
      <trkpt lat="42.70593" lon="1.36982">
        <ele>2024</ele>
        <time>2013-08-10T08:30:28.000Z</time>
      </trkpt>
      <trkpt lat="42.70595" lon="1.36976">
        <ele>2024.4000244141</ele>
        <time>2013-08-10T08:30:32.000Z</time>
      </trkpt>
      <trkpt lat="42.70596" lon="1.36974">
        <ele>2025</ele>
        <time>2013-08-10T08:30:35.000Z</time>
      </trkpt>
      <trkpt lat="42.70597" lon="1.3697">
        <ele>2025.4000244141</ele>
        <time>2013-08-10T08:30:38.000Z</time>
      </trkpt>
      <trkpt lat="42.70597" lon="1.36969">
        <ele>2025.4000244141</ele>
        <time>2013-08-10T08:30:39.000Z</time>
      </trkpt>
      <trkpt lat="42.70596" lon="1.36969">
        <ele>2025.4000244141</ele>
        <time>2013-08-10T08:30:40.000Z</time>
      </trkpt>
      <trkpt lat="42.70595" lon="1.36968">
        <ele>2025.8000488281</ele>
        <time>2013-08-10T08:30:41.000Z</time>
      </trkpt>
      <trkpt lat="42.70594" lon="1.36966">
        <ele>2026</ele>
        <time>2013-08-10T08:30:44.000Z</time>
      </trkpt>
      <trkpt lat="42.70594" lon="1.36965">
        <ele>2026.4000244141</ele>
        <time>2013-08-10T08:30:45.000Z</time>
      </trkpt>
      <trkpt lat="42.70595" lon="1.36961">
        <ele>2027</ele>
        <time>2013-08-10T08:30:50.000Z</time>
      </trkpt>
      <trkpt lat="42.70593" lon="1.3696">
        <ele>2028</ele>
        <time>2013-08-10T08:30:57.000Z</time>
      </trkpt>
      <trkpt lat="42.70592" lon="1.36958">
        <ele>2029</ele>
        <time>2013-08-10T08:31:02.000Z</time>
      </trkpt>
      <trkpt lat="42.7059" lon="1.36955">
        <ele>2030.4000244141</ele>
        <time>2013-08-10T08:31:11.000Z</time>
      </trkpt>
      <trkpt lat="42.70588" lon="1.36954">
        <ele>2031.4000244141</ele>
        <time>2013-08-10T08:31:16.000Z</time>
      </trkpt>
      <trkpt lat="42.70587" lon="1.36951">
        <ele>2033</ele>
        <time>2013-08-10T08:31:23.000Z</time>
      </trkpt>
      <trkpt lat="42.70587" lon="1.36948">
        <ele>2033.8000488281</ele>
        <time>2013-08-10T08:31:27.000Z</time>
      </trkpt>
      <trkpt lat="42.70586" lon="1.36944">
        <ele>2035</ele>
        <time>2013-08-10T08:31:34.000Z</time>
      </trkpt>
      <trkpt lat="42.70587" lon="1.36942">
        <ele>2035.8000488281</ele>
        <time>2013-08-10T08:31:38.000Z</time>
      </trkpt>
      <trkpt lat="42.70588" lon="1.36938">
        <ele>2036.8000488281</ele>
        <time>2013-08-10T08:31:43.000Z</time>
      </trkpt>
      <trkpt lat="42.70588" lon="1.36936">
        <ele>2037.8000488281</ele>
        <time>2013-08-10T08:31:47.000Z</time>
      </trkpt>
      <trkpt lat="42.70589" lon="1.3693">
        <ele>2038.8000488281</ele>
        <time>2013-08-10T08:31:53.000Z</time>
      </trkpt>
      <trkpt lat="42.70588" lon="1.36925">
        <ele>2039.8000488281</ele>
        <time>2013-08-10T08:31:58.000Z</time>
      </trkpt>
      <trkpt lat="42.70589" lon="1.36921">
        <ele>2040.4000244141</ele>
        <time>2013-08-10T08:32:01.000Z</time>
      </trkpt>
      <trkpt lat="42.7059" lon="1.3692">
        <ele>2040.8000488281</ele>
        <time>2013-08-10T08:32:03.000Z</time>
      </trkpt>
      <trkpt lat="42.7059" lon="1.36917">
        <ele>2041.8000488281</ele>
        <time>2013-08-10T08:32:08.000Z</time>
      </trkpt>
      <trkpt lat="42.70589" lon="1.36916">
        <ele>2042</ele>
        <time>2013-08-10T08:32:09.000Z</time>
      </trkpt>
      <trkpt lat="42.7059" lon="1.36914">
        <ele>2042.4000244141</ele>
        <time>2013-08-10T08:32:12.000Z</time>
      </trkpt>
      <trkpt lat="42.70591" lon="1.36911">
        <ele>2043.4000244141</ele>
        <time>2013-08-10T08:32:16.000Z</time>
      </trkpt>
      <trkpt lat="42.7059" lon="1.36908">
        <ele>2044.4000244141</ele>
        <time>2013-08-10T08:32:20.000Z</time>
      </trkpt>
      <trkpt lat="42.70588" lon="1.36907">
        <ele>2045.4000244141</ele>
        <time>2013-08-10T08:32:24.000Z</time>
      </trkpt>
      <trkpt lat="42.70585" lon="1.36904">
        <ele>2046.8000488281</ele>
        <time>2013-08-10T08:32:30.000Z</time>
      </trkpt>
      <trkpt lat="42.70582" lon="1.36901">
        <ele>2048</ele>
        <time>2013-08-10T08:32:36.000Z</time>
      </trkpt>
      <trkpt lat="42.70582" lon="1.36898">
        <ele>2049</ele>
        <time>2013-08-10T08:32:41.000Z</time>
      </trkpt>
      <trkpt lat="42.70579" lon="1.36895">
        <ele>2050</ele>
        <time>2013-08-10T08:32:47.000Z</time>
      </trkpt>
      <trkpt lat="42.70577" lon="1.36891">
        <ele>2052</ele>
        <time>2013-08-10T08:32:54.000Z</time>
      </trkpt>
      <trkpt lat="42.70574" lon="1.36889">
        <ele>2053</ele>
        <time>2013-08-10T08:33:00.000Z</time>
      </trkpt>
      <trkpt lat="42.70571" lon="1.36889">
        <ele>2054</ele>
        <time>2013-08-10T08:33:04.000Z</time>
      </trkpt>
      <trkpt lat="42.70568" lon="1.36885">
        <ele>2055.8000488281</ele>
        <time>2013-08-10T08:33:10.000Z</time>
      </trkpt>
      <trkpt lat="42.70567" lon="1.36882">
        <ele>2056.8000488281</ele>
        <time>2013-08-10T08:33:14.000Z</time>
      </trkpt>
      <trkpt lat="42.70564" lon="1.36878">
        <ele>2058</ele>
        <time>2013-08-10T08:33:19.000Z</time>
      </trkpt>
      <trkpt lat="42.70562" lon="1.36873">
        <ele>2059</ele>
        <time>2013-08-10T08:33:25.000Z</time>
      </trkpt>
      <trkpt lat="42.7056" lon="1.36869">
        <ele>2060.6000976562</ele>
        <time>2013-08-10T08:33:30.000Z</time>
      </trkpt>
      <trkpt lat="42.70559" lon="1.36871">
        <ele>2062</ele>
        <time>2013-08-10T08:33:38.000Z</time>
      </trkpt>
      <trkpt lat="42.70558" lon="1.36871">
        <ele>2063.6000976562</ele>
        <time>2013-08-10T08:33:44.000Z</time>
      </trkpt>
      <trkpt lat="42.70556" lon="1.36871">
        <ele>2064</ele>
        <time>2013-08-10T08:33:48.000Z</time>
      </trkpt>
      <trkpt lat="42.70551" lon="1.36874">
        <ele>2065.8000488281</ele>
        <time>2013-08-10T08:33:55.000Z</time>
      </trkpt>
      <trkpt lat="42.70549" lon="1.36874">
        <ele>2066.6000976562</ele>
        <time>2013-08-10T08:33:59.000Z</time>
      </trkpt>
      <trkpt lat="42.70547" lon="1.36876">
        <ele>2067.6000976562</ele>
        <time>2013-08-10T08:34:04.000Z</time>
      </trkpt>
      <trkpt lat="42.70546" lon="1.36878">
        <ele>2068</ele>
        <time>2013-08-10T08:34:08.000Z</time>
      </trkpt>
      <trkpt lat="42.70545" lon="1.3688">
        <ele>2069</ele>
        <time>2013-08-10T08:34:14.000Z</time>
      </trkpt>
      <trkpt lat="42.70542" lon="1.36878">
        <ele>2070</ele>
        <time>2013-08-10T08:34:19.000Z</time>
      </trkpt>
      <trkpt lat="42.70539" lon="1.36875">
        <ele>2071.8000488281</ele>
        <time>2013-08-10T08:34:26.000Z</time>
      </trkpt>
      <trkpt lat="42.70538" lon="1.36874">
        <ele>2072.8000488281</ele>
        <time>2013-08-10T08:34:31.000Z</time>
      </trkpt>
      <trkpt lat="42.70535" lon="1.36872">
        <ele>2073.8000488281</ele>
        <time>2013-08-10T08:34:37.000Z</time>
      </trkpt>
      <trkpt lat="42.70532" lon="1.36873">
        <ele>2074.8000488281</ele>
        <time>2013-08-10T08:34:43.000Z</time>
      </trkpt>
      <trkpt lat="42.70527" lon="1.36873">
        <ele>2075.8000488281</ele>
        <time>2013-08-10T08:34:48.000Z</time>
      </trkpt>
      <trkpt lat="42.70523" lon="1.36874">
        <ele>2077</ele>
        <time>2013-08-10T08:34:55.000Z</time>
      </trkpt>
      <trkpt lat="42.70519" lon="1.36874">
        <ele>2078</ele>
        <time>2013-08-10T08:35:01.000Z</time>
      </trkpt>
      <trkpt lat="42.70515" lon="1.36871">
        <ele>2080.8000488281</ele>
        <time>2013-08-10T08:35:16.000Z</time>
      </trkpt>
      <trkpt lat="42.70513" lon="1.36868">
        <ele>2081.6000976562</ele>
        <time>2013-08-10T08:35:21.000Z</time>
      </trkpt>
      <trkpt lat="42.70511" lon="1.36869">
        <ele>2082.6000976562</ele>
        <time>2013-08-10T08:35:27.000Z</time>
      </trkpt>
      <trkpt lat="42.70512" lon="1.36867">
        <ele>2083.6000976562</ele>
        <time>2013-08-10T08:35:33.000Z</time>
      </trkpt>
      <trkpt lat="42.70516" lon="1.36864">
        <ele>2084</ele>
        <time>2013-08-10T08:35:38.000Z</time>
      </trkpt>
      <trkpt lat="42.70516" lon="1.36857">
        <ele>2084.6000976562</ele>
        <time>2013-08-10T08:35:43.000Z</time>
      </trkpt>
      <trkpt lat="42.70516" lon="1.36855">
        <ele>2084.8000488281</ele>
        <time>2013-08-10T08:35:45.000Z</time>
      </trkpt>
      <trkpt lat="42.70515" lon="1.36852">
        <ele>2085</ele>
        <time>2013-08-10T08:35:47.000Z</time>
      </trkpt>
      <trkpt lat="42.70514" lon="1.3685">
        <ele>2085</ele>
        <time>2013-08-10T08:35:53.000Z</time>
      </trkpt>
      <trkpt lat="42.70512" lon="1.36847">
        <ele>2085.8000488281</ele>
        <time>2013-08-10T08:35:58.000Z</time>
      </trkpt>
      <trkpt lat="42.70508" lon="1.36849">
        <ele>2086.6000976562</ele>
        <time>2013-08-10T08:36:04.000Z</time>
      </trkpt>
      <trkpt lat="42.70506" lon="1.3685">
        <ele>2087.6000976562</ele>
        <time>2013-08-10T08:36:13.000Z</time>
      </trkpt>
      <trkpt lat="42.70504" lon="1.36855">
        <ele>2088</ele>
        <time>2013-08-10T08:36:17.000Z</time>
      </trkpt>
      <trkpt lat="42.70503" lon="1.36855">
        <ele>2088</ele>
        <time>2013-08-10T08:36:18.000Z</time>
      </trkpt>
      <trkpt lat="42.705" lon="1.36857">
        <ele>2089</ele>
        <time>2013-08-10T08:36:23.000Z</time>
      </trkpt>
      <trkpt lat="42.70497" lon="1.36861">
        <ele>2090</ele>
        <time>2013-08-10T08:36:30.000Z</time>
      </trkpt>
      <trkpt lat="42.70494" lon="1.36863">
        <ele>2091</ele>
        <time>2013-08-10T08:36:35.000Z</time>
      </trkpt>
      <trkpt lat="42.7049" lon="1.36866">
        <ele>2092</ele>
        <time>2013-08-10T08:36:42.000Z</time>
      </trkpt>
      <trkpt lat="42.70485" lon="1.36865">
        <ele>2093</ele>
        <time>2013-08-10T08:36:48.000Z</time>
      </trkpt>
      <trkpt lat="42.70481" lon="1.36861">
        <ele>2094</ele>
        <time>2013-08-10T08:36:54.000Z</time>
      </trkpt>
      <trkpt lat="42.70478" lon="1.36858">
        <ele>2095</ele>
        <time>2013-08-10T08:36:59.000Z</time>
      </trkpt>
      <trkpt lat="42.70473" lon="1.36863">
        <ele>2095.8000488281</ele>
        <time>2013-08-10T08:37:05.000Z</time>
      </trkpt>
      <trkpt lat="42.70471" lon="1.36864">
        <ele>2096</ele>
        <time>2013-08-10T08:37:07.000Z</time>
      </trkpt>
      <trkpt lat="42.70468" lon="1.36867">
        <ele>2096.6000976562</ele>
        <time>2013-08-10T08:37:10.000Z</time>
      </trkpt>
      <trkpt lat="42.70463" lon="1.36868">
        <ele>2097</ele>
        <time>2013-08-10T08:37:16.000Z</time>
      </trkpt>
      <trkpt lat="42.70461" lon="1.36869">
        <ele>2097.8000488281</ele>
        <time>2013-08-10T08:37:18.000Z</time>
      </trkpt>
      <trkpt lat="42.7046" lon="1.36869">
        <ele>2098</ele>
        <time>2013-08-10T08:37:20.000Z</time>
      </trkpt>
      <trkpt lat="42.70459" lon="1.3687">
        <ele>2098</ele>
        <time>2013-08-10T08:37:21.000Z</time>
      </trkpt>
      <trkpt lat="42.70456" lon="1.36874">
        <ele>2099</ele>
        <time>2013-08-10T08:37:27.000Z</time>
      </trkpt>
      <trkpt lat="42.70453" lon="1.36877">
        <ele>2100</ele>
        <time>2013-08-10T08:37:32.000Z</time>
      </trkpt>
      <trkpt lat="42.70451" lon="1.36879">
        <ele>2100.8000488281</ele>
        <time>2013-08-10T08:37:36.000Z</time>
      </trkpt>
      <trkpt lat="42.70447" lon="1.36882">
        <ele>2101.8000488281</ele>
        <time>2013-08-10T08:37:42.000Z</time>
      </trkpt>
      <trkpt lat="42.70446" lon="1.36884">
        <ele>2102.6000976562</ele>
        <time>2013-08-10T08:37:46.000Z</time>
      </trkpt>
      <trkpt lat="42.70442" lon="1.36882">
        <ele>2103.6000976562</ele>
        <time>2013-08-10T08:37:51.000Z</time>
      </trkpt>
      <trkpt lat="42.7044" lon="1.36882">
        <ele>2104</ele>
        <time>2013-08-10T08:37:55.000Z</time>
      </trkpt>
      <trkpt lat="42.70435" lon="1.36882">
        <ele>2105</ele>
        <time>2013-08-10T08:38:02.000Z</time>
      </trkpt>
      <trkpt lat="42.70433" lon="1.36883">
        <ele>2106</ele>
        <time>2013-08-10T08:38:06.000Z</time>
      </trkpt>
      <trkpt lat="42.70429" lon="1.36879">
        <ele>2107.6000976562</ele>
        <time>2013-08-10T08:38:14.000Z</time>
      </trkpt>
      <trkpt lat="42.70425" lon="1.36881">
        <ele>2108.8000488281</ele>
        <time>2013-08-10T08:38:20.000Z</time>
      </trkpt>
      <trkpt lat="42.70423" lon="1.36882">
        <ele>2109.8000488281</ele>
        <time>2013-08-10T08:38:25.000Z</time>
      </trkpt>
      <trkpt lat="42.70419" lon="1.36884">
        <ele>2111</ele>
        <time>2013-08-10T08:38:31.000Z</time>
      </trkpt>
      <trkpt lat="42.70417" lon="1.36886">
        <ele>2111.6000976562</ele>
        <time>2013-08-10T08:38:35.000Z</time>
      </trkpt>
      <trkpt lat="42.70414" lon="1.36887">
        <ele>2112.8000488281</ele>
        <time>2013-08-10T08:38:40.000Z</time>
      </trkpt>
      <trkpt lat="42.70411" lon="1.36889">
        <ele>2113.8000488281</ele>
        <time>2013-08-10T08:38:45.000Z</time>
      </trkpt>
      <trkpt lat="42.70407" lon="1.36889">
        <ele>2115</ele>
        <time>2013-08-10T08:38:52.000Z</time>
      </trkpt>
      <trkpt lat="42.70405" lon="1.36891">
        <ele>2116</ele>
        <time>2013-08-10T08:38:57.000Z</time>
      </trkpt>
      <trkpt lat="42.70404" lon="1.36894">
        <ele>2117</ele>
        <time>2013-08-10T08:39:02.000Z</time>
      </trkpt>
      <trkpt lat="42.70402" lon="1.36898">
        <ele>2118.6000976562</ele>
        <time>2013-08-10T08:39:08.000Z</time>
      </trkpt>
      <trkpt lat="42.70399" lon="1.36901">
        <ele>2119.6000976562</ele>
        <time>2013-08-10T08:39:13.000Z</time>
      </trkpt>
      <trkpt lat="42.70397" lon="1.36903">
        <ele>2120.8000488281</ele>
        <time>2013-08-10T08:39:18.000Z</time>
      </trkpt>
      <trkpt lat="42.70394" lon="1.36906">
        <ele>2122</ele>
        <time>2013-08-10T08:39:24.000Z</time>
      </trkpt>
      <trkpt lat="42.70392" lon="1.36911">
        <ele>2123.6000976562</ele>
        <time>2013-08-10T08:39:30.000Z</time>
      </trkpt>
      <trkpt lat="42.70389" lon="1.36914">
        <ele>2124.6000976562</ele>
        <time>2013-08-10T08:39:35.000Z</time>
      </trkpt>
      <trkpt lat="42.70387" lon="1.36915">
        <ele>2125</ele>
        <time>2013-08-10T08:39:39.000Z</time>
      </trkpt>
      <trkpt lat="42.70386" lon="1.36918">
        <ele>2126</ele>
        <time>2013-08-10T08:39:43.000Z</time>
      </trkpt>
      <trkpt lat="42.70383" lon="1.36924">
        <ele>2127.6000976562</ele>
        <time>2013-08-10T08:39:49.000Z</time>
      </trkpt>
      <trkpt lat="42.7038" lon="1.36928">
        <ele>2128.8000488281</ele>
        <time>2013-08-10T08:39:55.000Z</time>
      </trkpt>
      <trkpt lat="42.7038" lon="1.36936">
        <ele>2130</ele>
        <time>2013-08-10T08:40:01.000Z</time>
      </trkpt>
      <trkpt lat="42.7038" lon="1.3694">
        <ele>2131</ele>
        <time>2013-08-10T08:40:06.000Z</time>
      </trkpt>
      <trkpt lat="42.70381" lon="1.36944">
        <ele>2132</ele>
        <time>2013-08-10T08:40:11.000Z</time>
      </trkpt>
      <trkpt lat="42.70384" lon="1.36949">
        <ele>2133.6000976562</ele>
        <time>2013-08-10T08:40:17.000Z</time>
      </trkpt>
      <trkpt lat="42.70385" lon="1.36953">
        <ele>2134.6000976562</ele>
        <time>2013-08-10T08:40:22.000Z</time>
      </trkpt>
      <trkpt lat="42.70388" lon="1.36957">
        <ele>2136</ele>
        <time>2013-08-10T08:40:29.000Z</time>
      </trkpt>
      <trkpt lat="42.70389" lon="1.36959">
        <ele>2137</ele>
        <time>2013-08-10T08:40:34.000Z</time>
      </trkpt>
      <trkpt lat="42.70387" lon="1.36959">
        <ele>2138</ele>
        <time>2013-08-10T08:40:39.000Z</time>
      </trkpt>
      <trkpt lat="42.70385" lon="1.36958">
        <ele>2139</ele>
        <time>2013-08-10T08:40:44.000Z</time>
      </trkpt>
      <trkpt lat="42.70383" lon="1.36959">
        <ele>2140</ele>
        <time>2013-08-10T08:40:49.000Z</time>
      </trkpt>
      <trkpt lat="42.70383" lon="1.36962">
        <ele>2140.6000976562</ele>
        <time>2013-08-10T08:40:53.000Z</time>
      </trkpt>
      <trkpt lat="42.70382" lon="1.36964">
        <ele>2141.6000976562</ele>
        <time>2013-08-10T08:40:59.000Z</time>
      </trkpt>
      <trkpt lat="42.70381" lon="1.36965">
        <ele>2142.6000976562</ele>
        <time>2013-08-10T08:41:05.000Z</time>
      </trkpt>
      <trkpt lat="42.70379" lon="1.36965">
        <ele>2143.8000488281</ele>
        <time>2013-08-10T08:41:12.000Z</time>
      </trkpt>
      <trkpt lat="42.70377" lon="1.36967">
        <ele>2145</ele>
        <time>2013-08-10T08:41:19.000Z</time>
      </trkpt>
      <trkpt lat="42.70377" lon="1.3697">
        <ele>2146</ele>
        <time>2013-08-10T08:41:25.000Z</time>
      </trkpt>
      <trkpt lat="42.70377" lon="1.3697">
        <ele>2147</ele>
        <time>2013-08-10T08:41:30.000Z</time>
      </trkpt>
      <trkpt lat="42.70379" lon="1.36972">
        <ele>2148</ele>
        <time>2013-08-10T08:41:35.000Z</time>
      </trkpt>
      <trkpt lat="42.70379" lon="1.36974">
        <ele>2149</ele>
        <time>2013-08-10T08:41:39.000Z</time>
      </trkpt>
      <trkpt lat="42.70378" lon="1.36977">
        <ele>2150.6000976562</ele>
        <time>2013-08-10T08:41:45.000Z</time>
      </trkpt>
      <trkpt lat="42.70377" lon="1.3698">
        <ele>2151.8000488281</ele>
        <time>2013-08-10T08:41:51.000Z</time>
      </trkpt>
      <trkpt lat="42.70376" lon="1.36981">
        <ele>2153</ele>
        <time>2013-08-10T08:41:56.000Z</time>
      </trkpt>
      <trkpt lat="42.70377" lon="1.36982">
        <ele>2154</ele>
        <time>2013-08-10T08:42:02.000Z</time>
      </trkpt>
      <trkpt lat="42.70379" lon="1.36984">
        <ele>2155.6000976562</ele>
        <time>2013-08-10T08:42:07.000Z</time>
      </trkpt>
      <trkpt lat="42.7038" lon="1.36988">
        <ele>2157</ele>
        <time>2013-08-10T08:42:13.000Z</time>
      </trkpt>
      <trkpt lat="42.70381" lon="1.3699">
        <ele>2158</ele>
        <time>2013-08-10T08:42:17.000Z</time>
      </trkpt>
      <trkpt lat="42.70383" lon="1.36993">
        <ele>2159</ele>
        <time>2013-08-10T08:42:21.000Z</time>
      </trkpt>
      <trkpt lat="42.70382" lon="1.36996">
        <ele>2160</ele>
        <time>2013-08-10T08:42:26.000Z</time>
      </trkpt>
      <trkpt lat="42.70383" lon="1.36999">
        <ele>2161.8000488281</ele>
        <time>2013-08-10T08:42:32.000Z</time>
      </trkpt>
      <trkpt lat="42.70382" lon="1.37002">
        <ele>2163</ele>
        <time>2013-08-10T08:42:38.000Z</time>
      </trkpt>
      <trkpt lat="42.70382" lon="1.37005">
        <ele>2164</ele>
        <time>2013-08-10T08:42:42.000Z</time>
      </trkpt>
      <trkpt lat="42.7038" lon="1.37005">
        <ele>2165</ele>
        <time>2013-08-10T08:42:47.000Z</time>
      </trkpt>
      <trkpt lat="42.70376" lon="1.37005">
        <ele>2166.8000488281</ele>
        <time>2013-08-10T08:42:54.000Z</time>
      </trkpt>
      <trkpt lat="42.70375" lon="1.37006">
        <ele>2167.8000488281</ele>
        <time>2013-08-10T08:42:59.000Z</time>
      </trkpt>
      <trkpt lat="42.70374" lon="1.37011">
        <ele>2169</ele>
        <time>2013-08-10T08:43:06.000Z</time>
      </trkpt>
      <trkpt lat="42.70373" lon="1.37012">
        <ele>2170.6000976562</ele>
        <time>2013-08-10T08:43:12.000Z</time>
      </trkpt>
      <trkpt lat="42.70374" lon="1.37014">
        <ele>2171</ele>
        <time>2013-08-10T08:43:16.000Z</time>
      </trkpt>
      <trkpt lat="42.70373" lon="1.37017">
        <ele>2172</ele>
        <time>2013-08-10T08:43:20.000Z</time>
      </trkpt>
      <trkpt lat="42.7037" lon="1.37019">
        <ele>2173.8000488281</ele>
        <time>2013-08-10T08:43:27.000Z</time>
      </trkpt>
      <trkpt lat="42.7037" lon="1.37022">
        <ele>2174.8000488281</ele>
        <time>2013-08-10T08:43:32.000Z</time>
      </trkpt>
      <trkpt lat="42.70369" lon="1.37024">
        <ele>2175.8000488281</ele>
        <time>2013-08-10T08:43:37.000Z</time>
      </trkpt>
      <trkpt lat="42.70369" lon="1.37027">
        <ele>2176.6000976562</ele>
        <time>2013-08-10T08:43:41.000Z</time>
      </trkpt>
      <trkpt lat="42.70368" lon="1.37028">
        <ele>2177.6000976562</ele>
        <time>2013-08-10T08:43:46.000Z</time>
      </trkpt>
      <trkpt lat="42.70365" lon="1.37027">
        <ele>2178.6000976562</ele>
        <time>2013-08-10T08:43:51.000Z</time>
      </trkpt>
      <trkpt lat="42.70363" lon="1.37029">
        <ele>2179.6000976562</ele>
        <time>2013-08-10T08:43:57.000Z</time>
      </trkpt>
      <trkpt lat="42.70363" lon="1.37031">
        <ele>2180.6000976562</ele>
        <time>2013-08-10T08:44:02.000Z</time>
      </trkpt>
      <trkpt lat="42.70363" lon="1.37034">
        <ele>2182</ele>
        <time>2013-08-10T08:44:09.000Z</time>
      </trkpt>
      <trkpt lat="42.70362" lon="1.37037">
        <ele>2182.6000976562</ele>
        <time>2013-08-10T08:44:13.000Z</time>
      </trkpt>
      <trkpt lat="42.70361" lon="1.3704">
        <ele>2183.6000976562</ele>
        <time>2013-08-10T08:44:18.000Z</time>
      </trkpt>
      <trkpt lat="42.70361" lon="1.37044">
        <ele>2184.6000976562</ele>
        <time>2013-08-10T08:44:23.000Z</time>
      </trkpt>
      <trkpt lat="42.7036" lon="1.37048">
        <ele>2185.6000976562</ele>
        <time>2013-08-10T08:44:28.000Z</time>
      </trkpt>
      <trkpt lat="42.7036" lon="1.37053">
        <ele>2187</ele>
        <time>2013-08-10T08:44:36.000Z</time>
      </trkpt>
      <trkpt lat="42.70358" lon="1.37054">
        <ele>2188</ele>
        <time>2013-08-10T08:44:40.000Z</time>
      </trkpt>
      <trkpt lat="42.70356" lon="1.37052">
        <ele>2189</ele>
        <time>2013-08-10T08:44:45.000Z</time>
      </trkpt>
      <trkpt lat="42.70355" lon="1.37057">
        <ele>2190</ele>
        <time>2013-08-10T08:44:51.000Z</time>
      </trkpt>
      <trkpt lat="42.70355" lon="1.37061">
        <ele>2191</ele>
        <time>2013-08-10T08:44:56.000Z</time>
      </trkpt>
      <trkpt lat="42.70354" lon="1.37064">
        <ele>2192.6000976562</ele>
        <time>2013-08-10T08:45:02.000Z</time>
      </trkpt>
      <trkpt lat="42.70351" lon="1.37065">
        <ele>2193.6000976562</ele>
        <time>2013-08-10T08:45:07.000Z</time>
      </trkpt>
      <trkpt lat="42.70349" lon="1.37065">
        <ele>2194.8000488281</ele>
        <time>2013-08-10T08:45:12.000Z</time>
      </trkpt>
      <trkpt lat="42.70347" lon="1.37063">
        <ele>2195.8000488281</ele>
        <time>2013-08-10T08:45:17.000Z</time>
      </trkpt>
      <trkpt lat="42.70344" lon="1.37064">
        <ele>2197</ele>
        <time>2013-08-10T08:45:23.000Z</time>
      </trkpt>
      <trkpt lat="42.70342" lon="1.37067">
        <ele>2198</ele>
        <time>2013-08-10T08:45:28.000Z</time>
      </trkpt>
      <trkpt lat="42.70341" lon="1.37073">
        <ele>2199.6000976562</ele>
        <time>2013-08-10T08:45:35.000Z</time>
      </trkpt>
      <trkpt lat="42.70339" lon="1.37079">
        <ele>2201</ele>
        <time>2013-08-10T08:45:42.000Z</time>
      </trkpt>
      <trkpt lat="42.70337" lon="1.37085">
        <ele>2202</ele>
        <time>2013-08-10T08:45:48.000Z</time>
      </trkpt>
      <trkpt lat="42.70334" lon="1.37086">
        <ele>2203</ele>
        <time>2013-08-10T08:45:53.000Z</time>
      </trkpt>
      <trkpt lat="42.70332" lon="1.37091">
        <ele>2204</ele>
        <time>2013-08-10T08:45:59.000Z</time>
      </trkpt>
      <trkpt lat="42.70331" lon="1.37097">
        <ele>2206</ele>
        <time>2013-08-10T08:46:07.000Z</time>
      </trkpt>
      <trkpt lat="42.7033" lon="1.37103">
        <ele>2207.8000488281</ele>
        <time>2013-08-10T08:46:15.000Z</time>
      </trkpt>
      <trkpt lat="42.70331" lon="1.37108">
        <ele>2209</ele>
        <time>2013-08-10T08:46:22.000Z</time>
      </trkpt>
      <trkpt lat="42.70331" lon="1.3711">
        <ele>2209.8000488281</ele>
        <time>2013-08-10T08:46:25.000Z</time>
      </trkpt>
      <trkpt lat="42.70329" lon="1.37113">
        <ele>2210.8000488281</ele>
        <time>2013-08-10T08:46:30.000Z</time>
      </trkpt>
      <trkpt lat="42.70328" lon="1.37117">
        <ele>2212</ele>
        <time>2013-08-10T08:46:36.000Z</time>
      </trkpt>
      <trkpt lat="42.70328" lon="1.3712">
        <ele>2213</ele>
        <time>2013-08-10T08:46:41.000Z</time>
      </trkpt>
      <trkpt lat="42.70328" lon="1.37126">
        <ele>2214.8000488281</ele>
        <time>2013-08-10T08:46:48.000Z</time>
      </trkpt>
      <trkpt lat="42.70326" lon="1.37128">
        <ele>2215.8000488281</ele>
        <time>2013-08-10T08:46:53.000Z</time>
      </trkpt>
      <trkpt lat="42.70324" lon="1.37129">
        <ele>2217</ele>
        <time>2013-08-10T08:46:58.000Z</time>
      </trkpt>
      <trkpt lat="42.70321" lon="1.37132">
        <ele>2218</ele>
        <time>2013-08-10T08:47:05.000Z</time>
      </trkpt>
      <trkpt lat="42.7032" lon="1.37135">
        <ele>2219.8000488281</ele>
        <time>2013-08-10T08:47:11.000Z</time>
      </trkpt>
      <trkpt lat="42.70317" lon="1.37138">
        <ele>2221</ele>
        <time>2013-08-10T08:47:16.000Z</time>
      </trkpt>
      <trkpt lat="42.70316" lon="1.37139">
        <ele>2222</ele>
        <time>2013-08-10T08:47:21.000Z</time>
      </trkpt>
      <trkpt lat="42.70317" lon="1.37143">
        <ele>2223.6000976562</ele>
        <time>2013-08-10T08:47:27.000Z</time>
      </trkpt>
      <trkpt lat="42.70315" lon="1.37145">
        <ele>2224.8000488281</ele>
        <time>2013-08-10T08:47:32.000Z</time>
      </trkpt>
      <trkpt lat="42.70314" lon="1.37147">
        <ele>2226</ele>
        <time>2013-08-10T08:47:37.000Z</time>
      </trkpt>
      <trkpt lat="42.70312" lon="1.37151">
        <ele>2227</ele>
        <time>2013-08-10T08:47:43.000Z</time>
      </trkpt>
      <trkpt lat="42.7031" lon="1.37152">
        <ele>2228</ele>
        <time>2013-08-10T08:47:47.000Z</time>
      </trkpt>
      <trkpt lat="42.70308" lon="1.37154">
        <ele>2229.6000976562</ele>
        <time>2013-08-10T08:47:52.000Z</time>
      </trkpt>
      <trkpt lat="42.70309" lon="1.37158">
        <ele>2230.8000488281</ele>
        <time>2013-08-10T08:47:57.000Z</time>
      </trkpt>
      <trkpt lat="42.70308" lon="1.3716">
        <ele>2232</ele>
        <time>2013-08-10T08:48:02.000Z</time>
      </trkpt>
      <trkpt lat="42.70307" lon="1.37163">
        <ele>2233</ele>
        <time>2013-08-10T08:48:07.000Z</time>
      </trkpt>
      <trkpt lat="42.70308" lon="1.37168">
        <ele>2234</ele>
        <time>2013-08-10T08:48:13.000Z</time>
      </trkpt>
      <trkpt lat="42.70305" lon="1.37168">
        <ele>2235</ele>
        <time>2013-08-10T08:48:18.000Z</time>
      </trkpt>
      <trkpt lat="42.70303" lon="1.37166">
        <ele>2236.6000976562</ele>
        <time>2013-08-10T08:48:23.000Z</time>
      </trkpt>
      <trkpt lat="42.70301" lon="1.37164">
        <ele>2237.8000488281</ele>
        <time>2013-08-10T08:48:28.000Z</time>
      </trkpt>
      <trkpt lat="42.70301" lon="1.37167">
        <ele>2238.8000488281</ele>
        <time>2013-08-10T08:48:33.000Z</time>
      </trkpt>
      <trkpt lat="42.70299" lon="1.37169">
        <ele>2239.8000488281</ele>
        <time>2013-08-10T08:48:37.000Z</time>
      </trkpt>
      <trkpt lat="42.70298" lon="1.37167">
        <ele>2240.6000976562</ele>
        <time>2013-08-10T08:48:41.000Z</time>
      </trkpt>
      <trkpt lat="42.70295" lon="1.37165">
        <ele>2242</ele>
        <time>2013-08-10T08:48:47.000Z</time>
      </trkpt>
      <trkpt lat="42.70294" lon="1.37167">
        <ele>2243</ele>
        <time>2013-08-10T08:48:53.000Z</time>
      </trkpt>
      <trkpt lat="42.70295" lon="1.37171">
        <ele>2244</ele>
        <time>2013-08-10T08:48:58.000Z</time>
      </trkpt>
      <trkpt lat="42.70293" lon="1.37171">
        <ele>2245.6000976562</ele>
        <time>2013-08-10T08:49:03.000Z</time>
      </trkpt>
      <trkpt lat="42.7029" lon="1.3717">
        <ele>2246.8000488281</ele>
        <time>2013-08-10T08:49:08.000Z</time>
      </trkpt>
      <trkpt lat="42.70288" lon="1.37169">
        <ele>2248</ele>
        <time>2013-08-10T08:49:13.000Z</time>
      </trkpt>
      <trkpt lat="42.70288" lon="1.37171">
        <ele>2249</ele>
        <time>2013-08-10T08:49:18.000Z</time>
      </trkpt>
      <trkpt lat="42.70289" lon="1.37175">
        <ele>2250.8000488281</ele>
        <time>2013-08-10T08:49:24.000Z</time>
      </trkpt>
      <trkpt lat="42.70288" lon="1.37179">
        <ele>2252</ele>
        <time>2013-08-10T08:49:30.000Z</time>
      </trkpt>
      <trkpt lat="42.70288" lon="1.37182">
        <ele>2253.6000976562</ele>
        <time>2013-08-10T08:49:35.000Z</time>
      </trkpt>
      <trkpt lat="42.70288" lon="1.37184">
        <ele>2254.6000976562</ele>
        <time>2013-08-10T08:49:39.000Z</time>
      </trkpt>
      <trkpt lat="42.70287" lon="1.37188">
        <ele>2255.8000488281</ele>
        <time>2013-08-10T08:49:44.000Z</time>
      </trkpt>
      <trkpt lat="42.70285" lon="1.37189">
        <ele>2257</ele>
        <time>2013-08-10T08:49:49.000Z</time>
      </trkpt>
      <trkpt lat="42.70283" lon="1.37188">
        <ele>2258</ele>
        <time>2013-08-10T08:49:54.000Z</time>
      </trkpt>
      <trkpt lat="42.7028" lon="1.37188">
        <ele>2259.6000976562</ele>
        <time>2013-08-10T08:50:00.000Z</time>
      </trkpt>
      <trkpt lat="42.70277" lon="1.37185">
        <ele>2261</ele>
        <time>2013-08-10T08:50:06.000Z</time>
      </trkpt>
      <trkpt lat="42.70275" lon="1.37184">
        <ele>2261.8000488281</ele>
        <time>2013-08-10T08:50:10.000Z</time>
      </trkpt>
      <trkpt lat="42.70273" lon="1.37182">
        <ele>2263</ele>
        <time>2013-08-10T08:50:15.000Z</time>
      </trkpt>
      <trkpt lat="42.7027" lon="1.37179">
        <ele>2264</ele>
        <time>2013-08-10T08:50:21.000Z</time>
      </trkpt>
      <trkpt lat="42.70269" lon="1.3718">
        <ele>2265</ele>
        <time>2013-08-10T08:50:25.000Z</time>
      </trkpt>
      <trkpt lat="42.70267" lon="1.37181">
        <ele>2266</ele>
        <time>2013-08-10T08:50:30.000Z</time>
      </trkpt>
      <trkpt lat="42.70264" lon="1.37181">
        <ele>2267</ele>
        <time>2013-08-10T08:50:35.000Z</time>
      </trkpt>
      <trkpt lat="42.70262" lon="1.3718">
        <ele>2268</ele>
        <time>2013-08-10T08:50:40.000Z</time>
      </trkpt>
      <trkpt lat="42.70259" lon="1.37179">
        <ele>2269</ele>
        <time>2013-08-10T08:50:45.000Z</time>
      </trkpt>
      <trkpt lat="42.70257" lon="1.37179">
        <ele>2270</ele>
        <time>2013-08-10T08:50:51.000Z</time>
      </trkpt>
      <trkpt lat="42.70256" lon="1.37182">
        <ele>2271.8000488281</ele>
        <time>2013-08-10T08:50:58.000Z</time>
      </trkpt>
      <trkpt lat="42.70256" lon="1.37185">
        <ele>2273</ele>
        <time>2013-08-10T08:51:04.000Z</time>
      </trkpt>
      <trkpt lat="42.70256" lon="1.3719">
        <ele>2274</ele>
        <time>2013-08-10T08:51:10.000Z</time>
      </trkpt>
      <trkpt lat="42.70255" lon="1.37193">
        <ele>2275</ele>
        <time>2013-08-10T08:51:15.000Z</time>
      </trkpt>
      <trkpt lat="42.70252" lon="1.37193">
        <ele>2276.6000976562</ele>
        <time>2013-08-10T08:51:20.000Z</time>
      </trkpt>
      <trkpt lat="42.70249" lon="1.37193">
        <ele>2277.8000488281</ele>
        <time>2013-08-10T08:51:26.000Z</time>
      </trkpt>
      <trkpt lat="42.70249" lon="1.37197">
        <ele>2278.8000488281</ele>
        <time>2013-08-10T08:51:31.000Z</time>
      </trkpt>
      <trkpt lat="42.70248" lon="1.37199">
        <ele>2279.6000976562</ele>
        <time>2013-08-10T08:51:35.000Z</time>
      </trkpt>
      <trkpt lat="42.70246" lon="1.37203">
        <ele>2280.6000976562</ele>
        <time>2013-08-10T08:51:40.000Z</time>
      </trkpt>
      <trkpt lat="42.70244" lon="1.37204">
        <ele>2281.8000488281</ele>
        <time>2013-08-10T08:51:45.000Z</time>
      </trkpt>
      <trkpt lat="42.70243" lon="1.37206">
        <ele>2283</ele>
        <time>2013-08-10T08:51:51.000Z</time>
      </trkpt>
      <trkpt lat="42.70242" lon="1.37211">
        <ele>2284</ele>
        <time>2013-08-10T08:51:57.000Z</time>
      </trkpt>
      <trkpt lat="42.7024" lon="1.37211">
        <ele>2285</ele>
        <time>2013-08-10T08:52:01.000Z</time>
      </trkpt>
      <trkpt lat="42.70237" lon="1.37212">
        <ele>2286.6000976562</ele>
        <time>2013-08-10T08:52:06.000Z</time>
      </trkpt>
      <trkpt lat="42.70233" lon="1.37212">
        <ele>2288</ele>
        <time>2013-08-10T08:52:12.000Z</time>
      </trkpt>
      <trkpt lat="42.7023" lon="1.37211">
        <ele>2289</ele>
        <time>2013-08-10T08:52:18.000Z</time>
      </trkpt>
      <trkpt lat="42.70226" lon="1.37212">
        <ele>2291</ele>
        <time>2013-08-10T08:52:24.000Z</time>
      </trkpt>
      <trkpt lat="42.70221" lon="1.37212">
        <ele>2292.8000488281</ele>
        <time>2013-08-10T08:52:31.000Z</time>
      </trkpt>
      <trkpt lat="42.70217" lon="1.37215">
        <ele>2294</ele>
        <time>2013-08-10T08:52:37.000Z</time>
      </trkpt>
      <trkpt lat="42.70214" lon="1.37217">
        <ele>2295.8000488281</ele>
        <time>2013-08-10T08:52:43.000Z</time>
      </trkpt>
      <trkpt lat="42.7021" lon="1.37221">
        <ele>2297</ele>
        <time>2013-08-10T08:52:49.000Z</time>
      </trkpt>
      <trkpt lat="42.70209" lon="1.37221">
        <ele>2298.8000488281</ele>
        <time>2013-08-10T08:52:58.000Z</time>
      </trkpt>
      <trkpt lat="42.70207" lon="1.37226">
        <ele>2302.6000976562</ele>
        <time>2013-08-10T08:53:23.000Z</time>
      </trkpt>
      <trkpt lat="42.70205" lon="1.37232">
        <ele>2303</ele>
        <time>2013-08-10T08:53:30.000Z</time>
      </trkpt>
      <trkpt lat="42.70207" lon="1.37233">
        <ele>2304</ele>
        <time>2013-08-10T08:53:39.000Z</time>
      </trkpt>
      <trkpt lat="42.7021" lon="1.3724">
        <ele>2305</ele>
        <time>2013-08-10T08:53:44.000Z</time>
      </trkpt>
      <trkpt lat="42.7021" lon="1.37243">
        <ele>2305</ele>
        <time>2013-08-10T08:53:46.000Z</time>
      </trkpt>
      <trkpt lat="42.70209" lon="1.3725">
        <ele>2305.8000488281</ele>
        <time>2013-08-10T08:53:50.000Z</time>
      </trkpt>
      <trkpt lat="42.70209" lon="1.37251">
        <ele>2306</ele>
        <time>2013-08-10T08:53:51.000Z</time>
      </trkpt>
      <trkpt lat="42.70208" lon="1.37256">
        <ele>2306</ele>
        <time>2013-08-10T08:53:54.000Z</time>
      </trkpt>
      <trkpt lat="42.70209" lon="1.37259">
        <ele>2307</ele>
        <time>2013-08-10T08:53:59.000Z</time>
      </trkpt>
      <trkpt lat="42.7021" lon="1.37263">
        <ele>2307</ele>
        <time>2013-08-10T08:54:03.000Z</time>
      </trkpt>
      <trkpt lat="42.70212" lon="1.37269">
        <ele>2307.6000976562</ele>
        <time>2013-08-10T08:54:08.000Z</time>
      </trkpt>
      <trkpt lat="42.70214" lon="1.37276">
        <ele>2308</ele>
        <time>2013-08-10T08:54:13.000Z</time>
      </trkpt>
      <trkpt lat="42.70215" lon="1.37279">
        <ele>2308</ele>
        <time>2013-08-10T08:54:15.000Z</time>
      </trkpt>
      <trkpt lat="42.70218" lon="1.37283">
        <ele>2308</ele>
        <time>2013-08-10T08:54:18.000Z</time>
      </trkpt>
      <trkpt lat="42.70222" lon="1.37291">
        <ele>2308</ele>
        <time>2013-08-10T08:54:24.000Z</time>
      </trkpt>
      <trkpt lat="42.70223" lon="1.37295">
        <ele>2308</ele>
        <time>2013-08-10T08:54:27.000Z</time>
      </trkpt>
      <trkpt lat="42.70224" lon="1.37298">
        <ele>2308</ele>
        <time>2013-08-10T08:54:29.000Z</time>
      </trkpt>
      <trkpt lat="42.7022" lon="1.37303">
        <ele>2307.8000488281</ele>
        <time>2013-08-10T08:54:34.000Z</time>
      </trkpt>
      <trkpt lat="42.70216" lon="1.37304">
        <ele>2307.6000976562</ele>
        <time>2013-08-10T08:54:38.000Z</time>
      </trkpt>
      <trkpt lat="42.70215" lon="1.37305">
        <ele>2307</ele>
        <time>2013-08-10T08:54:49.000Z</time>
      </trkpt>
      <trkpt lat="42.70215" lon="1.37308">
        <ele>2306</ele>
        <time>2013-08-10T08:55:13.000Z</time>
      </trkpt>
      <trkpt lat="42.70214" lon="1.37309">
        <ele>2306</ele>
        <time>2013-08-10T08:55:15.000Z</time>
      </trkpt>
      <trkpt lat="42.70214" lon="1.37309">
        <ele>2306</ele>
        <time>2013-08-10T08:55:22.000Z</time>
      </trkpt>
      <trkpt lat="42.70214" lon="1.37308">
        <ele>2305.8000488281</ele>
        <time>2013-08-10T08:55:37.000Z</time>
      </trkpt>
      <trkpt lat="42.70214" lon="1.37306">
        <ele>2305.6000976562</ele>
        <time>2013-08-10T08:55:58.000Z</time>
      </trkpt>
      <trkpt lat="42.70215" lon="1.37306">
        <ele>2305</ele>
        <time>2013-08-10T08:56:18.000Z</time>
      </trkpt>
      <trkpt lat="42.70214" lon="1.37305">
        <ele>2305.6000976562</ele>
        <time>2013-08-10T08:57:01.000Z</time>
      </trkpt>
      <trkpt lat="42.70209" lon="1.37308">
        <ele>2305.6000976562</ele>
        <time>2013-08-10T08:57:07.000Z</time>
      </trkpt>
      <trkpt lat="42.70206" lon="1.37309">
        <ele>2305.6000976562</ele>
        <time>2013-08-10T08:57:11.000Z</time>
      </trkpt>
      <trkpt lat="42.70203" lon="1.37311">
        <ele>2305.6000976562</ele>
        <time>2013-08-10T08:57:14.000Z</time>
      </trkpt>
      <trkpt lat="42.70202" lon="1.37312">
        <ele>2305.6000976562</ele>
        <time>2013-08-10T08:57:16.000Z</time>
      </trkpt>
      <trkpt lat="42.702" lon="1.37315">
        <ele>2305.6000976562</ele>
        <time>2013-08-10T08:57:19.000Z</time>
      </trkpt>
      <trkpt lat="42.70198" lon="1.37321">
        <ele>2305.8000488281</ele>
        <time>2013-08-10T08:57:23.000Z</time>
      </trkpt>
      <trkpt lat="42.70197" lon="1.37322">
        <ele>2305.8000488281</ele>
        <time>2013-08-10T08:57:24.000Z</time>
      </trkpt>
      <trkpt lat="42.70194" lon="1.37323">
        <ele>2306</ele>
        <time>2013-08-10T08:57:28.000Z</time>
      </trkpt>
      <trkpt lat="42.70192" lon="1.37322">
        <ele>2306</ele>
        <time>2013-08-10T08:57:30.000Z</time>
      </trkpt>
      <trkpt lat="42.70185" lon="1.37321">
        <ele>2306</ele>
        <time>2013-08-10T08:57:36.000Z</time>
      </trkpt>
      <trkpt lat="42.70179" lon="1.37322">
        <ele>2306.6000976562</ele>
        <time>2013-08-10T08:57:41.000Z</time>
      </trkpt>
      <trkpt lat="42.70175" lon="1.37322">
        <ele>2306.8000488281</ele>
        <time>2013-08-10T08:57:46.000Z</time>
      </trkpt>
      <trkpt lat="42.70174" lon="1.37323">
        <ele>2307</ele>
        <time>2013-08-10T08:57:48.000Z</time>
      </trkpt>
      <trkpt lat="42.70171" lon="1.37325">
        <ele>2307</ele>
        <time>2013-08-10T08:57:52.000Z</time>
      </trkpt>
      <trkpt lat="42.7017" lon="1.37326">
        <ele>2307</ele>
        <time>2013-08-10T08:57:53.000Z</time>
      </trkpt>
      <trkpt lat="42.70169" lon="1.37329">
        <ele>2307.6000976562</ele>
        <time>2013-08-10T08:57:58.000Z</time>
      </trkpt>
      <trkpt lat="42.70167" lon="1.37331">
        <ele>2308</ele>
        <time>2013-08-10T08:58:03.000Z</time>
      </trkpt>
      <trkpt lat="42.70163" lon="1.37336">
        <ele>2309</ele>
        <time>2013-08-10T08:58:10.000Z</time>
      </trkpt>
      <trkpt lat="42.70162" lon="1.37335">
        <ele>2309.6000976562</ele>
        <time>2013-08-10T08:58:15.000Z</time>
      </trkpt>
      <trkpt lat="42.7016" lon="1.37333">
        <ele>2310</ele>
        <time>2013-08-10T08:58:19.000Z</time>
      </trkpt>
      <trkpt lat="42.70155" lon="1.37335">
        <ele>2310</ele>
        <time>2013-08-10T08:58:25.000Z</time>
      </trkpt>
      <trkpt lat="42.7015" lon="1.37335">
        <ele>2310.8000488281</ele>
        <time>2013-08-10T08:58:30.000Z</time>
      </trkpt>
      <trkpt lat="42.70149" lon="1.37335">
        <ele>2310.8000488281</ele>
        <time>2013-08-10T08:58:31.000Z</time>
      </trkpt>
      <trkpt lat="42.70147" lon="1.37336">
        <ele>2311</ele>
        <time>2013-08-10T08:58:35.000Z</time>
      </trkpt>
      <trkpt lat="42.70145" lon="1.37337">
        <ele>2311</ele>
        <time>2013-08-10T08:58:37.000Z</time>
      </trkpt>
      <trkpt lat="42.70144" lon="1.37337">
        <ele>2311.6000976562</ele>
        <time>2013-08-10T08:58:39.000Z</time>
      </trkpt>
      <trkpt lat="42.70142" lon="1.37338">
        <ele>2312</ele>
        <time>2013-08-10T08:58:42.000Z</time>
      </trkpt>
      <trkpt lat="42.70138" lon="1.3734">
        <ele>2312.8000488281</ele>
        <time>2013-08-10T08:58:48.000Z</time>
      </trkpt>
      <trkpt lat="42.70136" lon="1.3734">
        <ele>2313</ele>
        <time>2013-08-10T08:58:52.000Z</time>
      </trkpt>
      <trkpt lat="42.70133" lon="1.3734">
        <ele>2314</ele>
        <time>2013-08-10T08:58:58.000Z</time>
      </trkpt>
      <trkpt lat="42.7013" lon="1.37341">
        <ele>2315</ele>
        <time>2013-08-10T08:59:03.000Z</time>
      </trkpt>
      <trkpt lat="42.70124" lon="1.37342">
        <ele>2316</ele>
        <time>2013-08-10T08:59:08.000Z</time>
      </trkpt>
      <trkpt lat="42.70123" lon="1.37342">
        <ele>2316</ele>
        <time>2013-08-10T08:59:09.000Z</time>
      </trkpt>
      <trkpt lat="42.70119" lon="1.37342">
        <ele>2316.6000976562</ele>
        <time>2013-08-10T08:59:13.000Z</time>
      </trkpt>
      <trkpt lat="42.70115" lon="1.37342">
        <ele>2317</ele>
        <time>2013-08-10T08:59:17.000Z</time>
      </trkpt>
      <trkpt lat="42.70113" lon="1.37343">
        <ele>2317</ele>
        <time>2013-08-10T08:59:19.000Z</time>
      </trkpt>
      <trkpt lat="42.70107" lon="1.37343">
        <ele>2318</ele>
        <time>2013-08-10T08:59:25.000Z</time>
      </trkpt>
      <trkpt lat="42.70102" lon="1.37346">
        <ele>2319</ele>
        <time>2013-08-10T08:59:32.000Z</time>
      </trkpt>
      <trkpt lat="42.70096" lon="1.37348">
        <ele>2320</ele>
        <time>2013-08-10T08:59:38.000Z</time>
      </trkpt>
      <trkpt lat="42.70092" lon="1.3735">
        <ele>2320.6000976562</ele>
        <time>2013-08-10T08:59:44.000Z</time>
      </trkpt>
      <trkpt lat="42.70093" lon="1.37354">
        <ele>2321</ele>
        <time>2013-08-10T08:59:50.000Z</time>
      </trkpt>
      <trkpt lat="42.70092" lon="1.37358">
        <ele>2322</ele>
        <time>2013-08-10T08:59:55.000Z</time>
      </trkpt>
      <trkpt lat="42.70091" lon="1.37365">
        <ele>2322.6000976562</ele>
        <time>2013-08-10T09:00:01.000Z</time>
      </trkpt>
      <trkpt lat="42.70091" lon="1.37365">
        <ele>2323</ele>
        <time>2013-08-10T09:00:08.000Z</time>
      </trkpt>
      <trkpt lat="42.7009" lon="1.37369">
        <ele>2324.6000976562</ele>
        <time>2013-08-10T09:00:23.000Z</time>
      </trkpt>
      <trkpt lat="42.70088" lon="1.37373">
        <ele>2325</ele>
        <time>2013-08-10T09:00:28.000Z</time>
      </trkpt>
      <trkpt lat="42.70087" lon="1.37376">
        <ele>2325</ele>
        <time>2013-08-10T09:00:31.000Z</time>
      </trkpt>
      <trkpt lat="42.70085" lon="1.3738">
        <ele>2325.6000976562</ele>
        <time>2013-08-10T09:00:36.000Z</time>
      </trkpt>
      <trkpt lat="42.70083" lon="1.37383">
        <ele>2325.8000488281</ele>
        <time>2013-08-10T09:00:41.000Z</time>
      </trkpt>
      <trkpt lat="42.70081" lon="1.37386">
        <ele>2326</ele>
        <time>2013-08-10T09:00:47.000Z</time>
      </trkpt>
      <trkpt lat="42.70079" lon="1.37389">
        <ele>2326.6000976562</ele>
        <time>2013-08-10T09:00:52.000Z</time>
      </trkpt>
      <trkpt lat="42.70076" lon="1.37391">
        <ele>2327</ele>
        <time>2013-08-10T09:00:58.000Z</time>
      </trkpt>
      <trkpt lat="42.70075" lon="1.37392">
        <ele>2327</ele>
        <time>2013-08-10T09:01:02.000Z</time>
      </trkpt>
      <trkpt lat="42.70072" lon="1.37393">
        <ele>2328</ele>
        <time>2013-08-10T09:01:08.000Z</time>
      </trkpt>
      <trkpt lat="42.70071" lon="1.37395">
        <ele>2328.6000976562</ele>
        <time>2013-08-10T09:01:13.000Z</time>
      </trkpt>
      <trkpt lat="42.70074" lon="1.37397">
        <ele>2329</ele>
        <time>2013-08-10T09:01:17.000Z</time>
      </trkpt>
      <trkpt lat="42.70074" lon="1.37399">
        <ele>2329.6000976562</ele>
        <time>2013-08-10T09:01:21.000Z</time>
      </trkpt>
      <trkpt lat="42.70074" lon="1.37402">
        <ele>2330</ele>
        <time>2013-08-10T09:01:26.000Z</time>
      </trkpt>
      <trkpt lat="42.70071" lon="1.37403">
        <ele>2330.6000976562</ele>
        <time>2013-08-10T09:01:31.000Z</time>
      </trkpt>
      <trkpt lat="42.70069" lon="1.37404">
        <ele>2331</ele>
        <time>2013-08-10T09:01:37.000Z</time>
      </trkpt>
      <trkpt lat="42.70067" lon="1.37406">
        <ele>2331.6000976562</ele>
        <time>2013-08-10T09:01:41.000Z</time>
      </trkpt>
      <trkpt lat="42.70065" lon="1.37406">
        <ele>2332</ele>
        <time>2013-08-10T09:01:45.000Z</time>
      </trkpt>
      <trkpt lat="42.70063" lon="1.37407">
        <ele>2332.6000976562</ele>
        <time>2013-08-10T09:01:49.000Z</time>
      </trkpt>
      <trkpt lat="42.70062" lon="1.3741">
        <ele>2333.6000976562</ele>
        <time>2013-08-10T09:01:57.000Z</time>
      </trkpt>
      <trkpt lat="42.70061" lon="1.37413">
        <ele>2334</ele>
        <time>2013-08-10T09:02:02.000Z</time>
      </trkpt>
      <trkpt lat="42.70059" lon="1.37415">
        <ele>2335</ele>
        <time>2013-08-10T09:02:07.000Z</time>
      </trkpt>
      <trkpt lat="42.70057" lon="1.37417">
        <ele>2336</ele>
        <time>2013-08-10T09:02:12.000Z</time>
      </trkpt>
      <trkpt lat="42.70055" lon="1.37417">
        <ele>2337</ele>
        <time>2013-08-10T09:02:18.000Z</time>
      </trkpt>
      <trkpt lat="42.70053" lon="1.37417">
        <ele>2338</ele>
        <time>2013-08-10T09:02:25.000Z</time>
      </trkpt>
      <trkpt lat="42.70052" lon="1.37416">
        <ele>2339</ele>
        <time>2013-08-10T09:02:29.000Z</time>
      </trkpt>
      <trkpt lat="42.70049" lon="1.37416">
        <ele>2339.8000488281</ele>
        <time>2013-08-10T09:02:34.000Z</time>
      </trkpt>
      <trkpt lat="42.70047" lon="1.37413">
        <ele>2340.8000488281</ele>
        <time>2013-08-10T09:02:40.000Z</time>
      </trkpt>
      <trkpt lat="42.70045" lon="1.37409">
        <ele>2341</ele>
        <time>2013-08-10T09:02:44.000Z</time>
      </trkpt>
      <trkpt lat="42.70044" lon="1.37408">
        <ele>2341</ele>
        <time>2013-08-10T09:02:46.000Z</time>
      </trkpt>
      <trkpt lat="42.7004" lon="1.37405">
        <ele>2342</ele>
        <time>2013-08-10T09:02:52.000Z</time>
      </trkpt>
      <trkpt lat="42.70038" lon="1.37405">
        <ele>2343</ele>
        <time>2013-08-10T09:02:59.000Z</time>
      </trkpt>
      <trkpt lat="42.70036" lon="1.37407">
        <ele>2343.8000488281</ele>
        <time>2013-08-10T09:03:04.000Z</time>
      </trkpt>
      <trkpt lat="42.70034" lon="1.37409">
        <ele>2344.8000488281</ele>
        <time>2013-08-10T09:03:10.000Z</time>
      </trkpt>
      <trkpt lat="42.70031" lon="1.37412">
        <ele>2345.8000488281</ele>
        <time>2013-08-10T09:03:16.000Z</time>
      </trkpt>
      <trkpt lat="42.70028" lon="1.37415">
        <ele>2347</ele>
        <time>2013-08-10T09:03:26.000Z</time>
      </trkpt>
      <trkpt lat="42.70026" lon="1.37417">
        <ele>2347.8000488281</ele>
        <time>2013-08-10T09:03:31.000Z</time>
      </trkpt>
      <trkpt lat="42.70024" lon="1.3742">
        <ele>2348.6000976562</ele>
        <time>2013-08-10T09:03:38.000Z</time>
      </trkpt>
      <trkpt lat="42.70022" lon="1.37422">
        <ele>2349</ele>
        <time>2013-08-10T09:03:45.000Z</time>
      </trkpt>
      <trkpt lat="42.70021" lon="1.37423">
        <ele>2350</ele>
        <time>2013-08-10T09:03:50.000Z</time>
      </trkpt>
      <trkpt lat="42.70018" lon="1.37426">
        <ele>2350.8000488281</ele>
        <time>2013-08-10T09:03:59.000Z</time>
      </trkpt>
      <trkpt lat="42.7002" lon="1.37428">
        <ele>2351</ele>
        <time>2013-08-10T09:04:04.000Z</time>
      </trkpt>
      <trkpt lat="42.70018" lon="1.3743">
        <ele>2352</ele>
        <time>2013-08-10T09:04:09.000Z</time>
      </trkpt>
      <trkpt lat="42.70016" lon="1.37431">
        <ele>2352.6000976562</ele>
        <time>2013-08-10T09:04:14.000Z</time>
      </trkpt>
      <trkpt lat="42.70014" lon="1.37433">
        <ele>2353</ele>
        <time>2013-08-10T09:04:19.000Z</time>
      </trkpt>
      <trkpt lat="42.70011" lon="1.37436">
        <ele>2354</ele>
        <time>2013-08-10T09:04:24.000Z</time>
      </trkpt>
      <trkpt lat="42.70009" lon="1.37439">
        <ele>2354.6000976562</ele>
        <time>2013-08-10T09:04:30.000Z</time>
      </trkpt>
      <trkpt lat="42.70006" lon="1.37441">
        <ele>2355</ele>
        <time>2013-08-10T09:04:34.000Z</time>
      </trkpt>
      <trkpt lat="42.70004" lon="1.37446">
        <ele>2356</ele>
        <time>2013-08-10T09:04:42.000Z</time>
      </trkpt>
      <trkpt lat="42.69999" lon="1.3745">
        <ele>2357</ele>
        <time>2013-08-10T09:04:50.000Z</time>
      </trkpt>
      <trkpt lat="42.69996" lon="1.37451">
        <ele>2357</ele>
        <time>2013-08-10T09:04:55.000Z</time>
      </trkpt>
      <trkpt lat="42.69992" lon="1.37451">
        <ele>2358</ele>
        <time>2013-08-10T09:04:59.000Z</time>
      </trkpt>
      <trkpt lat="42.69989" lon="1.37451">
        <ele>2358</ele>
        <time>2013-08-10T09:05:03.000Z</time>
      </trkpt>
      <trkpt lat="42.69986" lon="1.37449">
        <ele>2359</ele>
        <time>2013-08-10T09:05:09.000Z</time>
      </trkpt>
      <trkpt lat="42.69984" lon="1.37449">
        <ele>2359.8000488281</ele>
        <time>2013-08-10T09:05:13.000Z</time>
      </trkpt>
      <trkpt lat="42.69981" lon="1.3745">
        <ele>2360</ele>
        <time>2013-08-10T09:05:18.000Z</time>
      </trkpt>
      <trkpt lat="42.69978" lon="1.3745">
        <ele>2360.6000976562</ele>
        <time>2013-08-10T09:05:22.000Z</time>
      </trkpt>
      <trkpt lat="42.69975" lon="1.37449">
        <ele>2361</ele>
        <time>2013-08-10T09:05:28.000Z</time>
      </trkpt>
      <trkpt lat="42.69973" lon="1.37449">
        <ele>2361</ele>
        <time>2013-08-10T09:05:31.000Z</time>
      </trkpt>
      <trkpt lat="42.6997" lon="1.37449">
        <ele>2361.6000976562</ele>
        <time>2013-08-10T09:05:35.000Z</time>
      </trkpt>
      <trkpt lat="42.69965" lon="1.37448">
        <ele>2362</ele>
        <time>2013-08-10T09:05:41.000Z</time>
      </trkpt>
      <trkpt lat="42.6996" lon="1.37447">
        <ele>2362.6000976562</ele>
        <time>2013-08-10T09:05:48.000Z</time>
      </trkpt>
      <trkpt lat="42.69957" lon="1.37448">
        <ele>2362.8000488281</ele>
        <time>2013-08-10T09:05:53.000Z</time>
      </trkpt>
      <trkpt lat="42.69954" lon="1.37451">
        <ele>2363</ele>
        <time>2013-08-10T09:05:58.000Z</time>
      </trkpt>
      <trkpt lat="42.6995" lon="1.37451">
        <ele>2364</ele>
        <time>2013-08-10T09:06:04.000Z</time>
      </trkpt>
      <trkpt lat="42.69944" lon="1.3745">
        <ele>2364.6000976562</ele>
        <time>2013-08-10T09:06:11.000Z</time>
      </trkpt>
      <trkpt lat="42.6994" lon="1.3745">
        <ele>2365</ele>
        <time>2013-08-10T09:06:16.000Z</time>
      </trkpt>
      <trkpt lat="42.69939" lon="1.37451">
        <ele>2365</ele>
        <time>2013-08-10T09:06:18.000Z</time>
      </trkpt>
      <trkpt lat="42.69936" lon="1.37453">
        <ele>2365.8000488281</ele>
        <time>2013-08-10T09:06:22.000Z</time>
      </trkpt>
      <trkpt lat="42.69931" lon="1.37454">
        <ele>2366.6000976562</ele>
        <time>2013-08-10T09:06:29.000Z</time>
      </trkpt>
      <trkpt lat="42.69926" lon="1.37456">
        <ele>2367</ele>
        <time>2013-08-10T09:06:36.000Z</time>
      </trkpt>
      <trkpt lat="42.69923" lon="1.37458">
        <ele>2368</ele>
        <time>2013-08-10T09:06:42.000Z</time>
      </trkpt>
      <trkpt lat="42.69918" lon="1.37463">
        <ele>2369</ele>
        <time>2013-08-10T09:06:50.000Z</time>
      </trkpt>
      <trkpt lat="42.69915" lon="1.37465">
        <ele>2369.6000976562</ele>
        <time>2013-08-10T09:06:54.000Z</time>
      </trkpt>
      <trkpt lat="42.69913" lon="1.37467">
        <ele>2370</ele>
        <time>2013-08-10T09:06:59.000Z</time>
      </trkpt>
      <trkpt lat="42.69912" lon="1.37469">
        <ele>2370.8000488281</ele>
        <time>2013-08-10T09:07:03.000Z</time>
      </trkpt>
      <trkpt lat="42.69909" lon="1.37472">
        <ele>2371</ele>
        <time>2013-08-10T09:07:08.000Z</time>
      </trkpt>
      <trkpt lat="42.69908" lon="1.37473">
        <ele>2372</ele>
        <time>2013-08-10T09:07:16.000Z</time>
      </trkpt>
      <trkpt lat="42.69904" lon="1.37473">
        <ele>2373</ele>
        <time>2013-08-10T09:07:23.000Z</time>
      </trkpt>
      <trkpt lat="42.69902" lon="1.37473">
        <ele>2373</ele>
        <time>2013-08-10T09:07:26.000Z</time>
      </trkpt>
      <trkpt lat="42.69901" lon="1.37473">
        <ele>2373.6000976562</ele>
        <time>2013-08-10T09:07:27.000Z</time>
      </trkpt>
      <trkpt lat="42.69896" lon="1.37472">
        <ele>2374</ele>
        <time>2013-08-10T09:07:33.000Z</time>
      </trkpt>
      <trkpt lat="42.69894" lon="1.37472">
        <ele>2375</ele>
        <time>2013-08-10T09:07:40.000Z</time>
      </trkpt>
      <trkpt lat="42.69895" lon="1.37471">
        <ele>2376.8000488281</ele>
        <time>2013-08-10T09:07:50.000Z</time>
      </trkpt>
      <trkpt lat="42.69892" lon="1.37471">
        <ele>2377.8000488281</ele>
        <time>2013-08-10T09:07:57.000Z</time>
      </trkpt>
      <trkpt lat="42.69889" lon="1.3747">
        <ele>2379</ele>
        <time>2013-08-10T09:08:06.000Z</time>
      </trkpt>
      <trkpt lat="42.69883" lon="1.3747">
        <ele>2380.6000976562</ele>
        <time>2013-08-10T09:08:18.000Z</time>
      </trkpt>
      <trkpt lat="42.69879" lon="1.37472">
        <ele>2381</ele>
        <time>2013-08-10T09:08:22.000Z</time>
      </trkpt>
      <trkpt lat="42.69876" lon="1.37472">
        <ele>2381.8000488281</ele>
        <time>2013-08-10T09:08:26.000Z</time>
      </trkpt>
      <trkpt lat="42.69874" lon="1.37472">
        <ele>2384</ele>
        <time>2013-08-10T09:08:39.000Z</time>
      </trkpt>
      <trkpt lat="42.6987" lon="1.37472">
        <ele>2384.8000488281</ele>
        <time>2013-08-10T09:08:43.000Z</time>
      </trkpt>
      <trkpt lat="42.69867" lon="1.37472">
        <ele>2385.6000976562</ele>
        <time>2013-08-10T09:08:47.000Z</time>
      </trkpt>
      <trkpt lat="42.69863" lon="1.37472">
        <ele>2386.6000976562</ele>
        <time>2013-08-10T09:08:53.000Z</time>
      </trkpt>
      <trkpt lat="42.69858" lon="1.37472">
        <ele>2387.6000976562</ele>
        <time>2013-08-10T09:09:00.000Z</time>
      </trkpt>
      <trkpt lat="42.69855" lon="1.37472">
        <ele>2388.6000976562</ele>
        <time>2013-08-10T09:09:07.000Z</time>
      </trkpt>
      <trkpt lat="42.69851" lon="1.37471">
        <ele>2389</ele>
        <time>2013-08-10T09:09:13.000Z</time>
      </trkpt>
      <trkpt lat="42.69848" lon="1.3747">
        <ele>2389.6000976562</ele>
        <time>2013-08-10T09:09:17.000Z</time>
      </trkpt>
      <trkpt lat="42.69846" lon="1.37469">
        <ele>2390</ele>
        <time>2013-08-10T09:09:22.000Z</time>
      </trkpt>
      <trkpt lat="42.69839" lon="1.3747">
        <ele>2390.6000976562</ele>
        <time>2013-08-10T09:09:34.000Z</time>
      </trkpt>
      <trkpt lat="42.69836" lon="1.37471">
        <ele>2391</ele>
        <time>2013-08-10T09:09:39.000Z</time>
      </trkpt>
      <trkpt lat="42.69832" lon="1.37472">
        <ele>2391</ele>
        <time>2013-08-10T09:09:43.000Z</time>
      </trkpt>
      <trkpt lat="42.69829" lon="1.37471">
        <ele>2391</ele>
        <time>2013-08-10T09:09:47.000Z</time>
      </trkpt>
      <trkpt lat="42.69826" lon="1.37471">
        <ele>2391.6000976562</ele>
        <time>2013-08-10T09:09:52.000Z</time>
      </trkpt>
      <trkpt lat="42.69824" lon="1.37471">
        <ele>2392</ele>
        <time>2013-08-10T09:09:56.000Z</time>
      </trkpt>
      <trkpt lat="42.69818" lon="1.37474">
        <ele>2393</ele>
        <time>2013-08-10T09:10:13.000Z</time>
      </trkpt>
      <trkpt lat="42.69813" lon="1.37475">
        <ele>2393.6000976562</ele>
        <time>2013-08-10T09:10:21.000Z</time>
      </trkpt>
      <trkpt lat="42.6981" lon="1.37475">
        <ele>2394</ele>
        <time>2013-08-10T09:10:27.000Z</time>
      </trkpt>
      <trkpt lat="42.69806" lon="1.37475">
        <ele>2394.8000488281</ele>
        <time>2013-08-10T09:10:36.000Z</time>
      </trkpt>
      <trkpt lat="42.69794" lon="1.37473">
        <ele>2396.6000976562</ele>
        <time>2013-08-10T09:10:59.000Z</time>
      </trkpt>
      <trkpt lat="42.69791" lon="1.37473">
        <ele>2397</ele>
        <time>2013-08-10T09:11:07.000Z</time>
      </trkpt>
      <trkpt lat="42.69786" lon="1.37472">
        <ele>2398</ele>
        <time>2013-08-10T09:11:16.000Z</time>
      </trkpt>
      <trkpt lat="42.69781" lon="1.37472">
        <ele>2400</ele>
        <time>2013-08-10T09:11:33.000Z</time>
      </trkpt>
      <trkpt lat="42.69778" lon="1.37475">
        <ele>2401</ele>
        <time>2013-08-10T09:11:41.000Z</time>
      </trkpt>
      <trkpt lat="42.69775" lon="1.37475">
        <ele>2401.6000976562</ele>
        <time>2013-08-10T09:11:46.000Z</time>
      </trkpt>
      <trkpt lat="42.69769" lon="1.37474">
        <ele>2403</ele>
        <time>2013-08-10T09:11:57.000Z</time>
      </trkpt>
      <trkpt lat="42.69764" lon="1.37477">
        <ele>2405.6000976562</ele>
        <time>2013-08-10T09:12:15.000Z</time>
      </trkpt>
      <trkpt lat="42.69759" lon="1.37482">
        <ele>2409</ele>
        <time>2013-08-10T09:12:41.000Z</time>
      </trkpt>
      <trkpt lat="42.69753" lon="1.37479">
        <ele>2411</ele>
        <time>2013-08-10T09:12:52.000Z</time>
      </trkpt>
      <trkpt lat="42.6975" lon="1.37478">
        <ele>2412</ele>
        <time>2013-08-10T09:12:58.000Z</time>
      </trkpt>
      <trkpt lat="42.69748" lon="1.37478">
        <ele>2413</ele>
        <time>2013-08-10T09:13:05.000Z</time>
      </trkpt>
      <trkpt lat="42.69746" lon="1.37479">
        <ele>2414</ele>
        <time>2013-08-10T09:13:12.000Z</time>
      </trkpt>
      <trkpt lat="42.69744" lon="1.37479">
        <ele>2414.8000488281</ele>
        <time>2013-08-10T09:13:18.000Z</time>
      </trkpt>
      <trkpt lat="42.69731" lon="1.37476">
        <ele>2420</ele>
        <time>2013-08-10T09:13:53.000Z</time>
      </trkpt>
      <trkpt lat="42.69727" lon="1.37476">
        <ele>2420.6000976562</ele>
        <time>2013-08-10T09:13:57.000Z</time>
      </trkpt>
      <trkpt lat="42.69725" lon="1.37474">
        <ele>2421</ele>
        <time>2013-08-10T09:14:01.000Z</time>
      </trkpt>
      <trkpt lat="42.69722" lon="1.37473">
        <ele>2421.6000976562</ele>
        <time>2013-08-10T09:14:04.000Z</time>
      </trkpt>
      <trkpt lat="42.69718" lon="1.37472">
        <ele>2422.6000976562</ele>
        <time>2013-08-10T09:14:10.000Z</time>
      </trkpt>
      <trkpt lat="42.69716" lon="1.37466">
        <ele>2425</ele>
        <time>2013-08-10T09:14:26.000Z</time>
      </trkpt>
      <trkpt lat="42.69714" lon="1.37462">
        <ele>2425</ele>
        <time>2013-08-10T09:14:29.000Z</time>
      </trkpt>
      <trkpt lat="42.69713" lon="1.37457">
        <ele>2426</ele>
        <time>2013-08-10T09:14:33.000Z</time>
      </trkpt>
      <trkpt lat="42.69713" lon="1.37452">
        <ele>2426</ele>
        <time>2013-08-10T09:14:38.000Z</time>
      </trkpt>
      <trkpt lat="42.69711" lon="1.37447">
        <ele>2427</ele>
        <time>2013-08-10T09:14:44.000Z</time>
      </trkpt>
      <trkpt lat="42.69709" lon="1.37442">
        <ele>2427</ele>
        <time>2013-08-10T09:14:49.000Z</time>
      </trkpt>
      <trkpt lat="42.69705" lon="1.37439">
        <ele>2427.6000976562</ele>
        <time>2013-08-10T09:14:52.000Z</time>
      </trkpt>
      <trkpt lat="42.69704" lon="1.37436">
        <ele>2427.8000488281</ele>
        <time>2013-08-10T09:14:57.000Z</time>
      </trkpt>
      <trkpt lat="42.69703" lon="1.3743">
        <ele>2428</ele>
        <time>2013-08-10T09:15:01.000Z</time>
      </trkpt>
      <trkpt lat="42.69702" lon="1.37428">
        <ele>2428</ele>
        <time>2013-08-10T09:15:03.000Z</time>
      </trkpt>
      <trkpt lat="42.697" lon="1.37428">
        <ele>2428</ele>
        <time>2013-08-10T09:15:06.000Z</time>
      </trkpt>
      <trkpt lat="42.69697" lon="1.37424">
        <ele>2428</ele>
        <time>2013-08-10T09:15:11.000Z</time>
      </trkpt>
      <trkpt lat="42.69692" lon="1.37421">
        <ele>2428</ele>
        <time>2013-08-10T09:15:20.000Z</time>
      </trkpt>
      <trkpt lat="42.69678" lon="1.37423">
        <ele>2429.8000488281</ele>
        <time>2013-08-10T09:15:51.000Z</time>
      </trkpt>
      <trkpt lat="42.69675" lon="1.37423">
        <ele>2430</ele>
        <time>2013-08-10T09:15:56.000Z</time>
      </trkpt>
      <trkpt lat="42.69671" lon="1.37436">
        <ele>2431.8000488281</ele>
        <time>2013-08-10T09:16:16.000Z</time>
      </trkpt>
      <trkpt lat="42.69671" lon="1.3744">
        <ele>2432.6000976562</ele>
        <time>2013-08-10T09:16:24.000Z</time>
      </trkpt>
      <trkpt lat="42.69671" lon="1.37445">
        <ele>2433</ele>
        <time>2013-08-10T09:16:29.000Z</time>
      </trkpt>
      <trkpt lat="42.69669" lon="1.37447">
        <ele>2433</ele>
        <time>2013-08-10T09:16:33.000Z</time>
      </trkpt>
      <trkpt lat="42.69664" lon="1.37449">
        <ele>2434.8000488281</ele>
        <time>2013-08-10T09:16:48.000Z</time>
      </trkpt>
      <trkpt lat="42.69664" lon="1.37452">
        <ele>2435</ele>
        <time>2013-08-10T09:16:53.000Z</time>
      </trkpt>
      <trkpt lat="42.69661" lon="1.37456">
        <ele>2436</ele>
        <time>2013-08-10T09:17:04.000Z</time>
      </trkpt>
      <trkpt lat="42.69658" lon="1.37459">
        <ele>2437</ele>
        <time>2013-08-10T09:17:15.000Z</time>
      </trkpt>
      <trkpt lat="42.69657" lon="1.3746">
        <ele>2437.6000976562</ele>
        <time>2013-08-10T09:17:18.000Z</time>
      </trkpt>
      <trkpt lat="42.69655" lon="1.37463">
        <ele>2438</ele>
        <time>2013-08-10T09:17:24.000Z</time>
      </trkpt>
      <trkpt lat="42.69649" lon="1.37465">
        <ele>2440</ele>
        <time>2013-08-10T09:17:37.000Z</time>
      </trkpt>
      <trkpt lat="42.69649" lon="1.37467">
        <ele>2441</ele>
        <time>2013-08-10T09:17:42.000Z</time>
      </trkpt>
      <trkpt lat="42.69648" lon="1.37467">
        <ele>2441.6000976562</ele>
        <time>2013-08-10T09:17:46.000Z</time>
      </trkpt>
      <trkpt lat="42.69636" lon="1.37475">
        <ele>2448</ele>
        <time>2013-08-10T09:18:32.000Z</time>
      </trkpt>
      <trkpt lat="42.69631" lon="1.37477">
        <ele>2450.6000976562</ele>
        <time>2013-08-10T09:18:45.000Z</time>
      </trkpt>
      <trkpt lat="42.69625" lon="1.37475">
        <ele>2451.8000488281</ele>
        <time>2013-08-10T09:18:53.000Z</time>
      </trkpt>
      <trkpt lat="42.69623" lon="1.37475">
        <ele>2452</ele>
        <time>2013-08-10T09:18:57.000Z</time>
      </trkpt>
      <trkpt lat="42.69621" lon="1.37483">
        <ele>2455</ele>
        <time>2013-08-10T09:19:16.000Z</time>
      </trkpt>
      <trkpt lat="42.69587" lon="1.37483">
        <ele>2474</ele>
        <time>2013-08-10T09:21:11.000Z</time>
      </trkpt>
      <trkpt lat="42.69586" lon="1.37483">
        <ele>2474.8000488281</ele>
        <time>2013-08-10T09:21:14.000Z</time>
      </trkpt>
      <trkpt lat="42.69571" lon="1.37493">
        <ele>2484.8000488281</ele>
        <time>2013-08-10T09:22:07.000Z</time>
      </trkpt>
      <trkpt lat="42.69568" lon="1.37492">
        <ele>2486</ele>
        <time>2013-08-10T09:22:14.000Z</time>
      </trkpt>
      <trkpt lat="42.69557" lon="1.3749">
        <ele>2494</ele>
        <time>2013-08-10T09:22:56.000Z</time>
      </trkpt>
      <trkpt lat="42.69556" lon="1.37488">
        <ele>2495</ele>
        <time>2013-08-10T09:23:01.000Z</time>
      </trkpt>
      <trkpt lat="42.6955" lon="1.37483">
        <ele>2499</ele>
        <time>2013-08-10T09:23:23.000Z</time>
      </trkpt>
      <trkpt lat="42.69546" lon="1.37472">
        <ele>2503</ele>
        <time>2013-08-10T09:23:41.000Z</time>
      </trkpt>
      <trkpt lat="42.69545" lon="1.37471">
        <ele>2503.8000488281</ele>
        <time>2013-08-10T09:23:44.000Z</time>
      </trkpt>
      <trkpt lat="42.69529" lon="1.37449">
        <ele>2514</ele>
        <time>2013-08-10T09:24:33.000Z</time>
      </trkpt>
      <trkpt lat="42.69526" lon="1.37443">
        <ele>2516.6000976562</ele>
        <time>2013-08-10T09:24:45.000Z</time>
      </trkpt>
      <trkpt lat="42.69524" lon="1.37439">
        <ele>2518</ele>
        <time>2013-08-10T09:24:52.000Z</time>
      </trkpt>
      <trkpt lat="42.69522" lon="1.37435">
        <ele>2519.6000976562</ele>
        <time>2013-08-10T09:24:59.000Z</time>
      </trkpt>
      <trkpt lat="42.69518" lon="1.37432">
        <ele>2522</ele>
        <time>2013-08-10T09:25:11.000Z</time>
      </trkpt>
      <trkpt lat="42.69513" lon="1.37425">
        <ele>2526</ele>
        <time>2013-08-10T09:25:32.000Z</time>
      </trkpt>
      <trkpt lat="42.69511" lon="1.37418">
        <ele>2527.6000976562</ele>
        <time>2013-08-10T09:25:41.000Z</time>
      </trkpt>
      <trkpt lat="42.69509" lon="1.37409">
        <ele>2532</ele>
        <time>2013-08-10T09:26:03.000Z</time>
      </trkpt>
      <trkpt lat="42.69507" lon="1.37406">
        <ele>2533</ele>
        <time>2013-08-10T09:26:08.000Z</time>
      </trkpt>
      <trkpt lat="42.69505" lon="1.37402">
        <ele>2534</ele>
        <time>2013-08-10T09:26:15.000Z</time>
      </trkpt>
      <trkpt lat="42.69503" lon="1.37398">
        <ele>2535</ele>
        <time>2013-08-10T09:26:20.000Z</time>
      </trkpt>
      <trkpt lat="42.69505" lon="1.37395">
        <ele>2537</ele>
        <time>2013-08-10T09:26:28.000Z</time>
      </trkpt>
      <trkpt lat="42.695" lon="1.37388">
        <ele>2539.8000488281</ele>
        <time>2013-08-10T09:26:41.000Z</time>
      </trkpt>
      <trkpt lat="42.69498" lon="1.3739">
        <ele>2541.8000488281</ele>
        <time>2013-08-10T09:26:51.000Z</time>
      </trkpt>
      <trkpt lat="42.69495" lon="1.37391">
        <ele>2542</ele>
        <time>2013-08-10T09:26:55.000Z</time>
      </trkpt>
      <trkpt lat="42.69493" lon="1.37392">
        <ele>2543</ele>
        <time>2013-08-10T09:27:01.000Z</time>
      </trkpt>
      <trkpt lat="42.6949" lon="1.37391">
        <ele>2544</ele>
        <time>2013-08-10T09:27:06.000Z</time>
      </trkpt>
      <trkpt lat="42.69488" lon="1.37388">
        <ele>2545.6000976562</ele>
        <time>2013-08-10T09:27:12.000Z</time>
      </trkpt>
      <trkpt lat="42.69486" lon="1.37384">
        <ele>2546</ele>
        <time>2013-08-10T09:27:16.000Z</time>
      </trkpt>
      <trkpt lat="42.69486" lon="1.3738">
        <ele>2547</ele>
        <time>2013-08-10T09:27:20.000Z</time>
      </trkpt>
      <trkpt lat="42.69484" lon="1.37377">
        <ele>2547.8000488281</ele>
        <time>2013-08-10T09:27:26.000Z</time>
      </trkpt>
      <trkpt lat="42.69484" lon="1.37372">
        <ele>2549</ele>
        <time>2013-08-10T09:27:34.000Z</time>
      </trkpt>
      <trkpt lat="42.69482" lon="1.37369">
        <ele>2549.8000488281</ele>
        <time>2013-08-10T09:27:38.000Z</time>
      </trkpt>
      <trkpt lat="42.69483" lon="1.37365">
        <ele>2550.6000976562</ele>
        <time>2013-08-10T09:27:43.000Z</time>
      </trkpt>
      <trkpt lat="42.69485" lon="1.37362">
        <ele>2551</ele>
        <time>2013-08-10T09:27:48.000Z</time>
      </trkpt>
      <trkpt lat="42.69486" lon="1.37359">
        <ele>2552</ele>
        <time>2013-08-10T09:27:56.000Z</time>
      </trkpt>
      <trkpt lat="42.69484" lon="1.37361">
        <ele>2553</ele>
        <time>2013-08-10T09:28:02.000Z</time>
      </trkpt>
      <trkpt lat="42.69481" lon="1.37362">
        <ele>2554</ele>
        <time>2013-08-10T09:28:08.000Z</time>
      </trkpt>
      <trkpt lat="42.69479" lon="1.37359">
        <ele>2555</ele>
        <time>2013-08-10T09:28:13.000Z</time>
      </trkpt>
      <trkpt lat="42.69478" lon="1.37356">
        <ele>2556.6000976562</ele>
        <time>2013-08-10T09:28:19.000Z</time>
      </trkpt>
      <trkpt lat="42.69478" lon="1.37354">
        <ele>2558</ele>
        <time>2013-08-10T09:28:24.000Z</time>
      </trkpt>
      <trkpt lat="42.6948" lon="1.37355">
        <ele>2560</ele>
        <time>2013-08-10T09:28:32.000Z</time>
      </trkpt>
      <trkpt lat="42.69481" lon="1.37355">
        <ele>2562</ele>
        <time>2013-08-10T09:28:40.000Z</time>
      </trkpt>
      <trkpt lat="42.69482" lon="1.37356">
        <ele>2563</ele>
        <time>2013-08-10T09:28:45.000Z</time>
      </trkpt>
      <trkpt lat="42.69482" lon="1.37359">
        <ele>2564.6000976562</ele>
        <time>2013-08-10T09:28:51.000Z</time>
      </trkpt>
      <trkpt lat="42.69481" lon="1.37354">
        <ele>2566.8000488281</ele>
        <time>2013-08-10T09:29:02.000Z</time>
      </trkpt>
      <trkpt lat="42.6948" lon="1.37352">
        <ele>2568.8000488281</ele>
        <time>2013-08-10T09:29:10.000Z</time>
      </trkpt>
      <trkpt lat="42.6948" lon="1.37346">
        <ele>2571</ele>
        <time>2013-08-10T09:29:21.000Z</time>
      </trkpt>
      <trkpt lat="42.69481" lon="1.3734">
        <ele>2572.8000488281</ele>
        <time>2013-08-10T09:29:27.000Z</time>
      </trkpt>
      <trkpt lat="42.69482" lon="1.37334">
        <ele>2574.6000976562</ele>
        <time>2013-08-10T09:29:34.000Z</time>
      </trkpt>
      <trkpt lat="42.69481" lon="1.37328">
        <ele>2576</ele>
        <time>2013-08-10T09:29:40.000Z</time>
      </trkpt>
      <trkpt lat="42.69481" lon="1.37324">
        <ele>2576</ele>
        <time>2013-08-10T09:29:42.000Z</time>
      </trkpt>
      <trkpt lat="42.69481" lon="1.37318">
        <ele>2577.6000976562</ele>
        <time>2013-08-10T09:29:47.000Z</time>
      </trkpt>
      <trkpt lat="42.69482" lon="1.37312">
        <ele>2578.6000976562</ele>
        <time>2013-08-10T09:29:52.000Z</time>
      </trkpt>
      <trkpt lat="42.69481" lon="1.37307">
        <ele>2579.6000976562</ele>
        <time>2013-08-10T09:29:57.000Z</time>
      </trkpt>
      <trkpt lat="42.69479" lon="1.37301">
        <ele>2580.8000488281</ele>
        <time>2013-08-10T09:30:04.000Z</time>
      </trkpt>
      <trkpt lat="42.6948" lon="1.37297">
        <ele>2581.6000976562</ele>
        <time>2013-08-10T09:30:08.000Z</time>
      </trkpt>
      <trkpt lat="42.69479" lon="1.37294">
        <ele>2582</ele>
        <time>2013-08-10T09:30:10.000Z</time>
      </trkpt>
      <trkpt lat="42.69479" lon="1.37288">
        <ele>2582.8000488281</ele>
        <time>2013-08-10T09:30:15.000Z</time>
      </trkpt>
      <trkpt lat="42.69479" lon="1.37279">
        <ele>2584</ele>
        <time>2013-08-10T09:30:23.000Z</time>
      </trkpt>
      <trkpt lat="42.69479" lon="1.37274">
        <ele>2585</ele>
        <time>2013-08-10T09:30:29.000Z</time>
      </trkpt>
      <trkpt lat="42.69479" lon="1.3727">
        <ele>2585.6000976562</ele>
        <time>2013-08-10T09:30:34.000Z</time>
      </trkpt>
      <trkpt lat="42.6948" lon="1.37263">
        <ele>2586</ele>
        <time>2013-08-10T09:30:40.000Z</time>
      </trkpt>
      <trkpt lat="42.69478" lon="1.37258">
        <ele>2586.8000488281</ele>
        <time>2013-08-10T09:30:46.000Z</time>
      </trkpt>
      <trkpt lat="42.6948" lon="1.37251">
        <ele>2587</ele>
        <time>2013-08-10T09:30:52.000Z</time>
      </trkpt>
      <trkpt lat="42.69483" lon="1.37247">
        <ele>2587.8000488281</ele>
        <time>2013-08-10T09:30:58.000Z</time>
      </trkpt>
      <trkpt lat="42.69485" lon="1.37241">
        <ele>2588</ele>
        <time>2013-08-10T09:31:03.000Z</time>
      </trkpt>
      <trkpt lat="42.69486" lon="1.37234">
        <ele>2589</ele>
        <time>2013-08-10T09:31:09.000Z</time>
      </trkpt>
      <trkpt lat="42.69486" lon="1.37234">
        <ele>2589</ele>
        <time>2013-08-10T09:31:15.000Z</time>
      </trkpt>
      <trkpt lat="42.69485" lon="1.37233">
        <ele>2592</ele>
        <time>2013-08-10T09:31:47.000Z</time>
      </trkpt>
      <trkpt lat="42.69487" lon="1.3723">
        <ele>2592</ele>
        <time>2013-08-10T09:31:52.000Z</time>
      </trkpt>
      <trkpt lat="42.6949" lon="1.37221">
        <ele>2593</ele>
        <time>2013-08-10T09:32:00.000Z</time>
      </trkpt>
      <trkpt lat="42.69492" lon="1.37213">
        <ele>2593.6000976562</ele>
        <time>2013-08-10T09:32:06.000Z</time>
      </trkpt>
      <trkpt lat="42.69493" lon="1.37211">
        <ele>2593.8000488281</ele>
        <time>2013-08-10T09:32:08.000Z</time>
      </trkpt>
      <trkpt lat="42.69493" lon="1.37206">
        <ele>2594</ele>
        <time>2013-08-10T09:32:12.000Z</time>
      </trkpt>
      <trkpt lat="42.69494" lon="1.37196">
        <ele>2595</ele>
        <time>2013-08-10T09:32:19.000Z</time>
      </trkpt>
      <trkpt lat="42.69494" lon="1.37195">
        <ele>2595.6000976562</ele>
        <time>2013-08-10T09:32:20.000Z</time>
      </trkpt>
      <trkpt lat="42.69495" lon="1.37192">
        <ele>2596</ele>
        <time>2013-08-10T09:32:24.000Z</time>
      </trkpt>
      <trkpt lat="42.69496" lon="1.3719">
        <ele>2596</ele>
        <time>2013-08-10T09:32:25.000Z</time>
      </trkpt>
      <trkpt lat="42.69496" lon="1.37187">
        <ele>2596.8000488281</ele>
        <time>2013-08-10T09:32:28.000Z</time>
      </trkpt>
      <trkpt lat="42.69498" lon="1.37179">
        <ele>2598</ele>
        <time>2013-08-10T09:32:35.000Z</time>
      </trkpt>
      <trkpt lat="42.695" lon="1.37174">
        <ele>2599</ele>
        <time>2013-08-10T09:32:41.000Z</time>
      </trkpt>
      <trkpt lat="42.695" lon="1.37169">
        <ele>2599.6000976562</ele>
        <time>2013-08-10T09:32:45.000Z</time>
      </trkpt>
      <trkpt lat="42.69498" lon="1.37164">
        <ele>2600</ele>
        <time>2013-08-10T09:32:48.000Z</time>
      </trkpt>
      <trkpt lat="42.69498" lon="1.3716">
        <ele>2600</ele>
        <time>2013-08-10T09:32:51.000Z</time>
      </trkpt>
      <trkpt lat="42.69498" lon="1.37158">
        <ele>2600.6000976562</ele>
        <time>2013-08-10T09:32:53.000Z</time>
      </trkpt>
      <trkpt lat="42.69497" lon="1.37156">
        <ele>2600.8000488281</ele>
        <time>2013-08-10T09:32:55.000Z</time>
      </trkpt>
      <trkpt lat="42.69495" lon="1.37151">
        <ele>2601</ele>
        <time>2013-08-10T09:32:59.000Z</time>
      </trkpt>
      <trkpt lat="42.69495" lon="1.37142">
        <ele>2601.6000976562</ele>
        <time>2013-08-10T09:33:05.000Z</time>
      </trkpt>
      <trkpt lat="42.69494" lon="1.3714">
        <ele>2601.6000976562</ele>
        <time>2013-08-10T09:33:07.000Z</time>
      </trkpt>
      <trkpt lat="42.69494" lon="1.37133">
        <ele>2601.8000488281</ele>
        <time>2013-08-10T09:33:12.000Z</time>
      </trkpt>
      <trkpt lat="42.69494" lon="1.37124">
        <ele>2602</ele>
        <time>2013-08-10T09:33:18.000Z</time>
      </trkpt>
      <trkpt lat="42.69496" lon="1.37117">
        <ele>2602</ele>
        <time>2013-08-10T09:33:24.000Z</time>
      </trkpt>
      <trkpt lat="42.69497" lon="1.37115">
        <ele>2602.6000976562</ele>
        <time>2013-08-10T09:33:27.000Z</time>
      </trkpt>
      <trkpt lat="42.69497" lon="1.37114">
        <ele>2602.8000488281</ele>
        <time>2013-08-10T09:33:28.000Z</time>
      </trkpt>
      <trkpt lat="42.69499" lon="1.37109">
        <ele>2603</ele>
        <time>2013-08-10T09:33:34.000Z</time>
      </trkpt>
      <trkpt lat="42.69502" lon="1.37104">
        <ele>2604</ele>
        <time>2013-08-10T09:33:40.000Z</time>
      </trkpt>
      <trkpt lat="42.69503" lon="1.371">
        <ele>2604.8000488281</ele>
        <time>2013-08-10T09:33:45.000Z</time>
      </trkpt>
      <trkpt lat="42.69504" lon="1.37095">
        <ele>2605.6000976562</ele>
        <time>2013-08-10T09:33:51.000Z</time>
      </trkpt>
      <trkpt lat="42.69505" lon="1.37091">
        <ele>2606</ele>
        <time>2013-08-10T09:33:55.000Z</time>
      </trkpt>
      <trkpt lat="42.69507" lon="1.37085">
        <ele>2607.6000976562</ele>
        <time>2013-08-10T09:34:02.000Z</time>
      </trkpt>
      <trkpt lat="42.69509" lon="1.37082">
        <ele>2608</ele>
        <time>2013-08-10T09:34:06.000Z</time>
      </trkpt>
      <trkpt lat="42.69509" lon="1.37079">
        <ele>2609</ele>
        <time>2013-08-10T09:34:11.000Z</time>
      </trkpt>
      <trkpt lat="42.69511" lon="1.37075">
        <ele>2610</ele>
        <time>2013-08-10T09:34:16.000Z</time>
      </trkpt>
      <trkpt lat="42.69512" lon="1.37069">
        <ele>2611.6000976562</ele>
        <time>2013-08-10T09:34:23.000Z</time>
      </trkpt>
      <trkpt lat="42.69514" lon="1.37065">
        <ele>2613</ele>
        <time>2013-08-10T09:34:31.000Z</time>
      </trkpt>
      <trkpt lat="42.69515" lon="1.37063">
        <ele>2613.8000488281</ele>
        <time>2013-08-10T09:34:35.000Z</time>
      </trkpt>
      <trkpt lat="42.69516" lon="1.37061">
        <ele>2615</ele>
        <time>2013-08-10T09:34:41.000Z</time>
      </trkpt>
      <trkpt lat="42.69517" lon="1.37062">
        <ele>2615.8000488281</ele>
        <time>2013-08-10T09:34:46.000Z</time>
      </trkpt>
      <trkpt lat="42.69519" lon="1.37059">
        <ele>2617</ele>
        <time>2013-08-10T09:34:53.000Z</time>
      </trkpt>
      <trkpt lat="42.69522" lon="1.3706">
        <ele>2618.6000976562</ele>
        <time>2013-08-10T09:35:00.000Z</time>
      </trkpt>
      <trkpt lat="42.69524" lon="1.37057">
        <ele>2620</ele>
        <time>2013-08-10T09:35:07.000Z</time>
      </trkpt>
      <trkpt lat="42.69524" lon="1.37053">
        <ele>2621</ele>
        <time>2013-08-10T09:35:13.000Z</time>
      </trkpt>
      <trkpt lat="42.69526" lon="1.37053">
        <ele>2622</ele>
        <time>2013-08-10T09:35:18.000Z</time>
      </trkpt>
      <trkpt lat="42.69528" lon="1.37051">
        <ele>2622.8000488281</ele>
        <time>2013-08-10T09:35:22.000Z</time>
      </trkpt>
      <trkpt lat="42.69532" lon="1.37052">
        <ele>2624</ele>
        <time>2013-08-10T09:35:29.000Z</time>
      </trkpt>
      <trkpt lat="42.69533" lon="1.3705">
        <ele>2625</ele>
        <time>2013-08-10T09:35:33.000Z</time>
      </trkpt>
      <trkpt lat="42.69534" lon="1.37048">
        <ele>2626</ele>
        <time>2013-08-10T09:35:39.000Z</time>
      </trkpt>
      <trkpt lat="42.69537" lon="1.37047">
        <ele>2627</ele>
        <time>2013-08-10T09:35:44.000Z</time>
      </trkpt>
      <trkpt lat="42.69539" lon="1.37044">
        <ele>2628</ele>
        <time>2013-08-10T09:35:49.000Z</time>
      </trkpt>
      <trkpt lat="42.69539" lon="1.37041">
        <ele>2628.8000488281</ele>
        <time>2013-08-10T09:35:53.000Z</time>
      </trkpt>
      <trkpt lat="42.69541" lon="1.37037">
        <ele>2629.8000488281</ele>
        <time>2013-08-10T09:35:58.000Z</time>
      </trkpt>
      <trkpt lat="42.69543" lon="1.37034">
        <ele>2631</ele>
        <time>2013-08-10T09:36:04.000Z</time>
      </trkpt>
      <trkpt lat="42.69546" lon="1.37032">
        <ele>2632</ele>
        <time>2013-08-10T09:36:10.000Z</time>
      </trkpt>
      <trkpt lat="42.69546" lon="1.37032">
        <ele>2634</ele>
        <time>2013-08-10T09:36:19.000Z</time>
      </trkpt>
      <trkpt lat="42.69546" lon="1.37027">
        <ele>2636</ele>
        <time>2013-08-10T09:36:28.000Z</time>
      </trkpt>
      <trkpt lat="42.69549" lon="1.37026">
        <ele>2637</ele>
        <time>2013-08-10T09:36:33.000Z</time>
      </trkpt>
      <trkpt lat="42.69551" lon="1.37023">
        <ele>2638</ele>
        <time>2013-08-10T09:36:39.000Z</time>
      </trkpt>
      <trkpt lat="42.69549" lon="1.37018">
        <ele>2639</ele>
        <time>2013-08-10T09:36:45.000Z</time>
      </trkpt>
      <trkpt lat="42.6955" lon="1.37013">
        <ele>2640</ele>
        <time>2013-08-10T09:36:50.000Z</time>
      </trkpt>
      <trkpt lat="42.69553" lon="1.37012">
        <ele>2641</ele>
        <time>2013-08-10T09:36:55.000Z</time>
      </trkpt>
      <trkpt lat="42.69555" lon="1.37011">
        <ele>2642</ele>
        <time>2013-08-10T09:37:00.000Z</time>
      </trkpt>
      <trkpt lat="42.69556" lon="1.37006">
        <ele>2643</ele>
        <time>2013-08-10T09:37:06.000Z</time>
      </trkpt>
      <trkpt lat="42.69558" lon="1.37001">
        <ele>2644.6000976562</ele>
        <time>2013-08-10T09:37:12.000Z</time>
      </trkpt>
      <trkpt lat="42.69559" lon="1.36998">
        <ele>2645.6000976562</ele>
        <time>2013-08-10T09:37:17.000Z</time>
      </trkpt>
      <trkpt lat="42.69559" lon="1.3699">
        <ele>2647</ele>
        <time>2013-08-10T09:37:24.000Z</time>
      </trkpt>
      <trkpt lat="42.6956" lon="1.36984">
        <ele>2648</ele>
        <time>2013-08-10T09:37:30.000Z</time>
      </trkpt>
      <trkpt lat="42.69561" lon="1.36979">
        <ele>2649.6000976562</ele>
        <time>2013-08-10T09:37:37.000Z</time>
      </trkpt>
      <trkpt lat="42.69561" lon="1.36973">
        <ele>2650.6000976562</ele>
        <time>2013-08-10T09:37:43.000Z</time>
      </trkpt>
      <trkpt lat="42.69562" lon="1.3697">
        <ele>2651</ele>
        <time>2013-08-10T09:37:48.000Z</time>
      </trkpt>
      <trkpt lat="42.69562" lon="1.36965">
        <ele>2652</ele>
        <time>2013-08-10T09:37:54.000Z</time>
      </trkpt>
      <trkpt lat="42.69562" lon="1.36962">
        <ele>2653</ele>
        <time>2013-08-10T09:37:58.000Z</time>
      </trkpt>
      <trkpt lat="42.69563" lon="1.36959">
        <ele>2654</ele>
        <time>2013-08-10T09:38:03.000Z</time>
      </trkpt>
      <trkpt lat="42.69563" lon="1.36955">
        <ele>2655</ele>
        <time>2013-08-10T09:38:08.000Z</time>
      </trkpt>
      <trkpt lat="42.69564" lon="1.36952">
        <ele>2655.6000976562</ele>
        <time>2013-08-10T09:38:12.000Z</time>
      </trkpt>
      <trkpt lat="42.69566" lon="1.36952">
        <ele>2656</ele>
        <time>2013-08-10T09:38:16.000Z</time>
      </trkpt>
      <trkpt lat="42.69565" lon="1.36949">
        <ele>2657</ele>
        <time>2013-08-10T09:38:21.000Z</time>
      </trkpt>
      <trkpt lat="42.69565" lon="1.36943">
        <ele>2658.6000976562</ele>
        <time>2013-08-10T09:38:27.000Z</time>
      </trkpt>
      <trkpt lat="42.69568" lon="1.36943">
        <ele>2659.6000976562</ele>
        <time>2013-08-10T09:38:31.000Z</time>
      </trkpt>
      <trkpt lat="42.69568" lon="1.36942">
        <ele>2661</ele>
        <time>2013-08-10T09:38:39.000Z</time>
      </trkpt>
      <trkpt lat="42.69568" lon="1.3694">
        <ele>2662.6000976562</ele>
        <time>2013-08-10T09:38:45.000Z</time>
      </trkpt>
      <trkpt lat="42.69566" lon="1.36933">
        <ele>2664</ele>
        <time>2013-08-10T09:38:53.000Z</time>
      </trkpt>
      <trkpt lat="42.69564" lon="1.36925">
        <ele>2665.8000488281</ele>
        <time>2013-08-10T09:39:01.000Z</time>
      </trkpt>
      <trkpt lat="42.69564" lon="1.36924">
        <ele>2666</ele>
        <time>2013-08-10T09:39:02.000Z</time>
      </trkpt>
      <trkpt lat="42.69565" lon="1.3692">
        <ele>2667</ele>
        <time>2013-08-10T09:39:07.000Z</time>
      </trkpt>
      <trkpt lat="42.69565" lon="1.36915">
        <ele>2668</ele>
        <time>2013-08-10T09:39:12.000Z</time>
      </trkpt>
      <trkpt lat="42.69565" lon="1.36912">
        <ele>2669</ele>
        <time>2013-08-10T09:39:16.000Z</time>
      </trkpt>
      <trkpt lat="42.69565" lon="1.36907">
        <ele>2670</ele>
        <time>2013-08-10T09:39:22.000Z</time>
      </trkpt>
      <trkpt lat="42.69564" lon="1.36901">
        <ele>2672</ele>
        <time>2013-08-10T09:39:32.000Z</time>
      </trkpt>
      <trkpt lat="42.69564" lon="1.36897">
        <ele>2673</ele>
        <time>2013-08-10T09:39:37.000Z</time>
      </trkpt>
      <trkpt lat="42.69567" lon="1.36895">
        <ele>2674</ele>
        <time>2013-08-10T09:39:42.000Z</time>
      </trkpt>
      <trkpt lat="42.69568" lon="1.36892">
        <ele>2675</ele>
        <time>2013-08-10T09:39:48.000Z</time>
      </trkpt>
      <trkpt lat="42.69569" lon="1.3689">
        <ele>2676</ele>
        <time>2013-08-10T09:39:52.000Z</time>
      </trkpt>
      <trkpt lat="42.69571" lon="1.3689">
        <ele>2677</ele>
        <time>2013-08-10T09:39:57.000Z</time>
      </trkpt>
      <trkpt lat="42.69571" lon="1.36889">
        <ele>2678</ele>
        <time>2013-08-10T09:40:03.000Z</time>
      </trkpt>
      <trkpt lat="42.6957" lon="1.36884">
        <ele>2679</ele>
        <time>2013-08-10T09:40:08.000Z</time>
      </trkpt>
      <trkpt lat="42.69569" lon="1.3688">
        <ele>2680</ele>
        <time>2013-08-10T09:40:13.000Z</time>
      </trkpt>
      <trkpt lat="42.69569" lon="1.36878">
        <ele>2681</ele>
        <time>2013-08-10T09:40:18.000Z</time>
      </trkpt>
      <trkpt lat="42.69568" lon="1.36874">
        <ele>2682</ele>
        <time>2013-08-10T09:40:24.000Z</time>
      </trkpt>
      <trkpt lat="42.69567" lon="1.36871">
        <ele>2683</ele>
        <time>2013-08-10T09:40:29.000Z</time>
      </trkpt>
      <trkpt lat="42.69567" lon="1.36867">
        <ele>2684</ele>
        <time>2013-08-10T09:40:34.000Z</time>
      </trkpt>
      <trkpt lat="42.69566" lon="1.36864">
        <ele>2685</ele>
        <time>2013-08-10T09:40:39.000Z</time>
      </trkpt>
      <trkpt lat="42.69566" lon="1.3686">
        <ele>2686</ele>
        <time>2013-08-10T09:40:45.000Z</time>
      </trkpt>
      <trkpt lat="42.69567" lon="1.36857">
        <ele>2687</ele>
        <time>2013-08-10T09:40:49.000Z</time>
      </trkpt>
      <trkpt lat="42.69568" lon="1.36855">
        <ele>2688</ele>
        <time>2013-08-10T09:40:56.000Z</time>
      </trkpt>
      <trkpt lat="42.69568" lon="1.36856">
        <ele>2689.6000976562</ele>
        <time>2013-08-10T09:41:03.000Z</time>
      </trkpt>
      <trkpt lat="42.69566" lon="1.3685">
        <ele>2691</ele>
        <time>2013-08-10T09:41:13.000Z</time>
      </trkpt>
      <trkpt lat="42.69566" lon="1.36848">
        <ele>2691</ele>
        <time>2013-08-10T09:41:14.000Z</time>
      </trkpt>
      <trkpt lat="42.69565" lon="1.36845">
        <ele>2691.6000976562</ele>
        <time>2013-08-10T09:41:17.000Z</time>
      </trkpt>
      <trkpt lat="42.69564" lon="1.36839">
        <ele>2692.6000976562</ele>
        <time>2013-08-10T09:41:24.000Z</time>
      </trkpt>
      <trkpt lat="42.69561" lon="1.36835">
        <ele>2693</ele>
        <time>2013-08-10T09:41:30.000Z</time>
      </trkpt>
      <trkpt lat="42.6956" lon="1.3683">
        <ele>2694</ele>
        <time>2013-08-10T09:41:36.000Z</time>
      </trkpt>
      <trkpt lat="42.69557" lon="1.36826">
        <ele>2694.6000976562</ele>
        <time>2013-08-10T09:41:42.000Z</time>
      </trkpt>
      <trkpt lat="42.69556" lon="1.36825">
        <ele>2694.8000488281</ele>
        <time>2013-08-10T09:41:46.000Z</time>
      </trkpt>
      <trkpt lat="42.69553" lon="1.36826">
        <ele>2696.6000976562</ele>
        <time>2013-08-10T09:42:15.000Z</time>
      </trkpt>
      <trkpt lat="42.69552" lon="1.36825">
        <ele>2696.8000488281</ele>
        <time>2013-08-10T09:42:21.000Z</time>
      </trkpt>
      <trkpt lat="42.69549" lon="1.36824">
        <ele>2697</ele>
        <time>2013-08-10T09:42:27.000Z</time>
      </trkpt>
      <trkpt lat="42.69547" lon="1.3682">
        <ele>2697</ele>
        <time>2013-08-10T09:42:36.000Z</time>
      </trkpt>
      <trkpt lat="42.69546" lon="1.36818">
        <ele>2697</ele>
        <time>2013-08-10T09:42:42.000Z</time>
      </trkpt>
      <trkpt lat="42.69544" lon="1.36818">
        <ele>2697</ele>
        <time>2013-08-10T09:42:53.000Z</time>
      </trkpt>
      <trkpt lat="42.69543" lon="1.36817">
        <ele>2697</ele>
        <time>2013-08-10T09:42:58.000Z</time>
      </trkpt>
      <trkpt lat="42.69541" lon="1.36816">
        <ele>2697</ele>
        <time>2013-08-10T09:43:03.000Z</time>
      </trkpt>
      <trkpt lat="42.69539" lon="1.36815">
        <ele>2697</ele>
        <time>2013-08-10T09:43:07.000Z</time>
      </trkpt>
      <trkpt lat="42.69539" lon="1.36814">
        <ele>2697</ele>
        <time>2013-08-10T09:43:09.000Z</time>
      </trkpt>
      <trkpt lat="42.69538" lon="1.36813">
        <ele>2697</ele>
        <time>2013-08-10T09:43:10.000Z</time>
      </trkpt>
      <trkpt lat="42.69536" lon="1.3681">
        <ele>2697</ele>
        <time>2013-08-10T09:43:13.000Z</time>
      </trkpt>
      <trkpt lat="42.69537" lon="1.36809">
        <ele>2696.8000488281</ele>
        <time>2013-08-10T09:43:14.000Z</time>
      </trkpt>
      <trkpt lat="42.69536" lon="1.36806">
        <ele>2696.8000488281</ele>
        <time>2013-08-10T09:43:17.000Z</time>
      </trkpt>
      <trkpt lat="42.69534" lon="1.36803">
        <ele>2696.6000976562</ele>
        <time>2013-08-10T09:43:22.000Z</time>
      </trkpt>
      <trkpt lat="42.69532" lon="1.368">
        <ele>2696</ele>
        <time>2013-08-10T09:43:28.000Z</time>
      </trkpt>
      <trkpt lat="42.69529" lon="1.36796">
        <ele>2696</ele>
        <time>2013-08-10T09:43:34.000Z</time>
      </trkpt>
      <trkpt lat="42.69528" lon="1.36793">
        <ele>2696</ele>
        <time>2013-08-10T09:43:38.000Z</time>
      </trkpt>
      <trkpt lat="42.69527" lon="1.36789">
        <ele>2695.8000488281</ele>
        <time>2013-08-10T09:43:44.000Z</time>
      </trkpt>
      <trkpt lat="42.69525" lon="1.36784">
        <ele>2695.6000976562</ele>
        <time>2013-08-10T09:43:49.000Z</time>
      </trkpt>
      <trkpt lat="42.69522" lon="1.36775">
        <ele>2695</ele>
        <time>2013-08-10T09:43:56.000Z</time>
      </trkpt>
      <trkpt lat="42.69521" lon="1.36773">
        <ele>2695</ele>
        <time>2013-08-10T09:43:58.000Z</time>
      </trkpt>
      <trkpt lat="42.6952" lon="1.36772">
        <ele>2695</ele>
        <time>2013-08-10T09:44:00.000Z</time>
      </trkpt>
      <trkpt lat="42.69517" lon="1.36766">
        <ele>2695</ele>
        <time>2013-08-10T09:44:06.000Z</time>
      </trkpt>
      <trkpt lat="42.69516" lon="1.36764">
        <ele>2695</ele>
        <time>2013-08-10T09:44:07.000Z</time>
      </trkpt>
      <trkpt lat="42.69514" lon="1.36761">
        <ele>2694.8000488281</ele>
        <time>2013-08-10T09:44:10.000Z</time>
      </trkpt>
      <trkpt lat="42.69512" lon="1.36753">
        <ele>2694.6000976562</ele>
        <time>2013-08-10T09:44:16.000Z</time>
      </trkpt>
      <trkpt lat="42.69512" lon="1.36746">
        <ele>2694</ele>
        <time>2013-08-10T09:44:22.000Z</time>
      </trkpt>
      <trkpt lat="42.69512" lon="1.36742">
        <ele>2694</ele>
        <time>2013-08-10T09:44:26.000Z</time>
      </trkpt>
      <trkpt lat="42.69511" lon="1.36739">
        <ele>2694</ele>
        <time>2013-08-10T09:44:28.000Z</time>
      </trkpt>
      <trkpt lat="42.6951" lon="1.36732">
        <ele>2694</ele>
        <time>2013-08-10T09:44:35.000Z</time>
      </trkpt>
      <trkpt lat="42.69509" lon="1.36726">
        <ele>2694</ele>
        <time>2013-08-10T09:44:41.000Z</time>
      </trkpt>
      <trkpt lat="42.69509" lon="1.36724">
        <ele>2694</ele>
        <time>2013-08-10T09:44:45.000Z</time>
      </trkpt>
      <trkpt lat="42.69509" lon="1.36719">
        <ele>2694.6000976562</ele>
        <time>2013-08-10T09:44:50.000Z</time>
      </trkpt>
      <trkpt lat="42.6951" lon="1.36716">
        <ele>2695</ele>
        <time>2013-08-10T09:44:56.000Z</time>
      </trkpt>
      <trkpt lat="42.6951" lon="1.36712">
        <ele>2695</ele>
        <time>2013-08-10T09:45:01.000Z</time>
      </trkpt>
      <trkpt lat="42.69511" lon="1.3671">
        <ele>2695.6000976562</ele>
        <time>2013-08-10T09:45:06.000Z</time>
      </trkpt>
      <trkpt lat="42.69513" lon="1.36709">
        <ele>2696</ele>
        <time>2013-08-10T09:45:11.000Z</time>
      </trkpt>
      <trkpt lat="42.69514" lon="1.36706">
        <ele>2696</ele>
        <time>2013-08-10T09:45:15.000Z</time>
      </trkpt>
      <trkpt lat="42.69512" lon="1.36702">
        <ele>2696.8000488281</ele>
        <time>2013-08-10T09:45:19.000Z</time>
      </trkpt>
      <trkpt lat="42.69511" lon="1.36695">
        <ele>2697</ele>
        <time>2013-08-10T09:45:24.000Z</time>
      </trkpt>
      <trkpt lat="42.69511" lon="1.36694">
        <ele>2697</ele>
        <time>2013-08-10T09:45:25.000Z</time>
      </trkpt>
      <trkpt lat="42.69511" lon="1.36689">
        <ele>2697.6000976562</ele>
        <time>2013-08-10T09:45:29.000Z</time>
      </trkpt>
      <trkpt lat="42.69511" lon="1.36688">
        <ele>2697.8000488281</ele>
        <time>2013-08-10T09:45:30.000Z</time>
      </trkpt>
      <trkpt lat="42.69511" lon="1.3668">
        <ele>2698</ele>
        <time>2013-08-10T09:45:36.000Z</time>
      </trkpt>
      <trkpt lat="42.69513" lon="1.36671">
        <ele>2698.8000488281</ele>
        <time>2013-08-10T09:45:43.000Z</time>
      </trkpt>
      <trkpt lat="42.69514" lon="1.36665">
        <ele>2699</ele>
        <time>2013-08-10T09:45:49.000Z</time>
      </trkpt>
      <trkpt lat="42.69515" lon="1.36664">
        <ele>2699</ele>
        <time>2013-08-10T09:45:50.000Z</time>
      </trkpt>
      <trkpt lat="42.69516" lon="1.36662">
        <ele>2699.6000976562</ele>
        <time>2013-08-10T09:45:53.000Z</time>
      </trkpt>
      <trkpt lat="42.69517" lon="1.36662">
        <ele>2700</ele>
        <time>2013-08-10T09:45:58.000Z</time>
      </trkpt>
      <trkpt lat="42.69518" lon="1.36663">
        <ele>2700</ele>
        <time>2013-08-10T09:46:01.000Z</time>
      </trkpt>
      <trkpt lat="42.69519" lon="1.36661">
        <ele>2701</ele>
        <time>2013-08-10T09:46:05.000Z</time>
      </trkpt>
      <trkpt lat="42.69521" lon="1.36659">
        <ele>2701.6000976562</ele>
        <time>2013-08-10T09:46:10.000Z</time>
      </trkpt>
      <trkpt lat="42.69523" lon="1.36656">
        <ele>2702</ele>
        <time>2013-08-10T09:46:15.000Z</time>
      </trkpt>
      <trkpt lat="42.69525" lon="1.36658">
        <ele>2703</ele>
        <time>2013-08-10T09:46:20.000Z</time>
      </trkpt>
      <trkpt lat="42.69526" lon="1.36658">
        <ele>2704.6000976562</ele>
        <time>2013-08-10T09:46:28.000Z</time>
      </trkpt>
      <trkpt lat="42.69527" lon="1.36658">
        <ele>2705</ele>
        <time>2013-08-10T09:46:32.000Z</time>
      </trkpt>
      <trkpt lat="42.69526" lon="1.36658">
        <ele>2707</ele>
        <time>2013-08-10T09:46:43.000Z</time>
      </trkpt>
      <trkpt lat="42.69525" lon="1.3666">
        <ele>2712</ele>
        <time>2013-08-10T09:47:21.000Z</time>
      </trkpt>
      <trkpt lat="42.69525" lon="1.3666">
        <ele>2714.6000976562</ele>
        <time>2013-08-10T09:48:02.000Z</time>
      </trkpt>
      <trkpt lat="42.69521" lon="1.36662">
        <ele>2714.8000488281</ele>
        <time>2013-08-10T09:48:08.000Z</time>
      </trkpt>
      <trkpt lat="42.69518" lon="1.36659">
        <ele>2714.8000488281</ele>
        <time>2013-08-10T09:48:15.000Z</time>
      </trkpt>
      <trkpt lat="42.69516" lon="1.36662">
        <ele>2714.8000488281</ele>
        <time>2013-08-10T09:48:19.000Z</time>
      </trkpt>
      <trkpt lat="42.69515" lon="1.36665">
        <ele>2714.6000976562</ele>
        <time>2013-08-10T09:48:23.000Z</time>
      </trkpt>
      <trkpt lat="42.69513" lon="1.36667">
        <ele>2714</ele>
        <time>2013-08-10T09:48:29.000Z</time>
      </trkpt>
      <trkpt lat="42.69511" lon="1.36667">
        <ele>2714</ele>
        <time>2013-08-10T09:48:35.000Z</time>
      </trkpt>
      <trkpt lat="42.69509" lon="1.36672">
        <ele>2714</ele>
        <time>2013-08-10T09:48:41.000Z</time>
      </trkpt>
      <trkpt lat="42.69507" lon="1.36674">
        <ele>2713.6000976562</ele>
        <time>2013-08-10T09:48:47.000Z</time>
      </trkpt>
      <trkpt lat="42.69508" lon="1.3668">
        <ele>2713</ele>
        <time>2013-08-10T09:48:51.000Z</time>
      </trkpt>
      <trkpt lat="42.69506" lon="1.36686">
        <ele>2713</ele>
        <time>2013-08-10T09:48:56.000Z</time>
      </trkpt>
      <trkpt lat="42.69505" lon="1.3669">
        <ele>2712.8000488281</ele>
        <time>2013-08-10T09:49:00.000Z</time>
      </trkpt>
      <trkpt lat="42.69504" lon="1.36692">
        <ele>2712.8000488281</ele>
        <time>2013-08-10T09:49:03.000Z</time>
      </trkpt>
      <trkpt lat="42.69504" lon="1.36693">
        <ele>2712.6000976562</ele>
        <time>2013-08-10T09:49:04.000Z</time>
      </trkpt>
      <trkpt lat="42.69503" lon="1.36697">
        <ele>2712</ele>
        <time>2013-08-10T09:49:09.000Z</time>
      </trkpt>
      <trkpt lat="42.69503" lon="1.36702">
        <ele>2711.8000488281</ele>
        <time>2013-08-10T09:49:15.000Z</time>
      </trkpt>
      <trkpt lat="42.69505" lon="1.36706">
        <ele>2711.6000976562</ele>
        <time>2013-08-10T09:49:19.000Z</time>
      </trkpt>
      <trkpt lat="42.69507" lon="1.36714">
        <ele>2711</ele>
        <time>2013-08-10T09:49:25.000Z</time>
      </trkpt>
      <trkpt lat="42.69507" lon="1.36719">
        <ele>2710.8000488281</ele>
        <time>2013-08-10T09:49:30.000Z</time>
      </trkpt>
      <trkpt lat="42.69507" lon="1.3672">
        <ele>2710.6000976562</ele>
        <time>2013-08-10T09:49:31.000Z</time>
      </trkpt>
      <trkpt lat="42.69507" lon="1.36721">
        <ele>2710.6000976562</ele>
        <time>2013-08-10T09:49:32.000Z</time>
      </trkpt>
      <trkpt lat="42.69509" lon="1.36726">
        <ele>2710</ele>
        <time>2013-08-10T09:49:36.000Z</time>
      </trkpt>
      <trkpt lat="42.6951" lon="1.36732">
        <ele>2709.8000488281</ele>
        <time>2013-08-10T09:49:41.000Z</time>
      </trkpt>
      <trkpt lat="42.69511" lon="1.36734">
        <ele>2709.6000976562</ele>
        <time>2013-08-10T09:49:43.000Z</time>
      </trkpt>
      <trkpt lat="42.69511" lon="1.36738">
        <ele>2709</ele>
        <time>2013-08-10T09:49:48.000Z</time>
      </trkpt>
      <trkpt lat="42.69511" lon="1.36739">
        <ele>2709</ele>
        <time>2013-08-10T09:49:49.000Z</time>
      </trkpt>
      <trkpt lat="42.69511" lon="1.36743">
        <ele>2708.6000976562</ele>
        <time>2013-08-10T09:49:54.000Z</time>
      </trkpt>
      <trkpt lat="42.69511" lon="1.36748">
        <ele>2708</ele>
        <time>2013-08-10T09:49:59.000Z</time>
      </trkpt>
      <trkpt lat="42.69512" lon="1.36753">
        <ele>2707.8000488281</ele>
        <time>2013-08-10T09:50:04.000Z</time>
      </trkpt>
      <trkpt lat="42.69515" lon="1.36761">
        <ele>2707</ele>
        <time>2013-08-10T09:50:12.000Z</time>
      </trkpt>
      <trkpt lat="42.69516" lon="1.36762">
        <ele>2706.8000488281</ele>
        <time>2013-08-10T09:50:13.000Z</time>
      </trkpt>
      <trkpt lat="42.69519" lon="1.36768">
        <ele>2706</ele>
        <time>2013-08-10T09:50:17.000Z</time>
      </trkpt>
      <trkpt lat="42.6952" lon="1.36772">
        <ele>2705.8000488281</ele>
        <time>2013-08-10T09:50:22.000Z</time>
      </trkpt>
      <trkpt lat="42.69521" lon="1.36773">
        <ele>2705.8000488281</ele>
        <time>2013-08-10T09:50:23.000Z</time>
      </trkpt>
      <trkpt lat="42.69523" lon="1.36776">
        <ele>2705</ele>
        <time>2013-08-10T09:50:27.000Z</time>
      </trkpt>
      <trkpt lat="42.69527" lon="1.36779">
        <ele>2704.8000488281</ele>
        <time>2013-08-10T09:50:32.000Z</time>
      </trkpt>
      <trkpt lat="42.69529" lon="1.36786">
        <ele>2704</ele>
        <time>2013-08-10T09:50:38.000Z</time>
      </trkpt>
      <trkpt lat="42.6953" lon="1.36787">
        <ele>2704</ele>
        <time>2013-08-10T09:50:39.000Z</time>
      </trkpt>
      <trkpt lat="42.69531" lon="1.36789">
        <ele>2704</ele>
        <time>2013-08-10T09:50:43.000Z</time>
      </trkpt>
      <trkpt lat="42.69532" lon="1.3679">
        <ele>2703.8000488281</ele>
        <time>2013-08-10T09:50:44.000Z</time>
      </trkpt>
      <trkpt lat="42.69533" lon="1.36793">
        <ele>2703</ele>
        <time>2013-08-10T09:50:50.000Z</time>
      </trkpt>
      <trkpt lat="42.69535" lon="1.36796">
        <ele>2703</ele>
        <time>2013-08-10T09:50:56.000Z</time>
      </trkpt>
      <trkpt lat="42.69537" lon="1.36801">
        <ele>2702</ele>
        <time>2013-08-10T09:51:01.000Z</time>
      </trkpt>
      <trkpt lat="42.69539" lon="1.36808">
        <ele>2702</ele>
        <time>2013-08-10T09:51:08.000Z</time>
      </trkpt>
      <trkpt lat="42.6954" lon="1.36813">
        <ele>2701.6000976562</ele>
        <time>2013-08-10T09:51:14.000Z</time>
      </trkpt>
      <trkpt lat="42.69545" lon="1.36815">
        <ele>2701</ele>
        <time>2013-08-10T09:51:21.000Z</time>
      </trkpt>
      <trkpt lat="42.69546" lon="1.36815">
        <ele>2701</ele>
        <time>2013-08-10T09:51:23.000Z</time>
      </trkpt>
      <trkpt lat="42.69546" lon="1.36817">
        <ele>2701</ele>
        <time>2013-08-10T09:51:25.000Z</time>
      </trkpt>
      <trkpt lat="42.69547" lon="1.36819">
        <ele>2700.6000976562</ele>
        <time>2013-08-10T09:51:30.000Z</time>
      </trkpt>
      <trkpt lat="42.69548" lon="1.3682">
        <ele>2700</ele>
        <time>2013-08-10T09:51:35.000Z</time>
      </trkpt>
      <trkpt lat="42.69549" lon="1.36824">
        <ele>2700</ele>
        <time>2013-08-10T09:51:39.000Z</time>
      </trkpt>
      <trkpt lat="42.69551" lon="1.36825">
        <ele>2700</ele>
        <time>2013-08-10T09:51:44.000Z</time>
      </trkpt>
      <trkpt lat="42.69555" lon="1.36827">
        <ele>2700</ele>
        <time>2013-08-10T09:51:49.000Z</time>
      </trkpt>
      <trkpt lat="42.69557" lon="1.36829">
        <ele>2700</ele>
        <time>2013-08-10T09:51:53.000Z</time>
      </trkpt>
      <trkpt lat="42.69562" lon="1.36837">
        <ele>2700.6000976562</ele>
        <time>2013-08-10T09:52:01.000Z</time>
      </trkpt>
      <trkpt lat="42.69564" lon="1.36844">
        <ele>2701</ele>
        <time>2013-08-10T09:52:08.000Z</time>
      </trkpt>
      <trkpt lat="42.69565" lon="1.36847">
        <ele>2701</ele>
        <time>2013-08-10T09:52:14.000Z</time>
      </trkpt>
      <trkpt lat="42.69566" lon="1.36854">
        <ele>2701.6000976562</ele>
        <time>2013-08-10T09:52:20.000Z</time>
      </trkpt>
      <trkpt lat="42.69568" lon="1.3686">
        <ele>2701.6000976562</ele>
        <time>2013-08-10T09:52:25.000Z</time>
      </trkpt>
      <trkpt lat="42.69568" lon="1.36862">
        <ele>2701.8000488281</ele>
        <time>2013-08-10T09:52:27.000Z</time>
      </trkpt>
      <trkpt lat="42.69567" lon="1.36865">
        <ele>2701.6000976562</ele>
        <time>2013-08-10T09:52:31.000Z</time>
      </trkpt>
      <trkpt lat="42.69565" lon="1.36867">
        <ele>2701.6000976562</ele>
        <time>2013-08-10T09:52:35.000Z</time>
      </trkpt>
      <trkpt lat="42.69565" lon="1.36871">
        <ele>2701.6000976562</ele>
        <time>2013-08-10T09:52:40.000Z</time>
      </trkpt>
      <trkpt lat="42.69565" lon="1.36872">
        <ele>2701.6000976562</ele>
        <time>2013-08-10T09:52:41.000Z</time>
      </trkpt>
      <trkpt lat="42.69565" lon="1.36875">
        <ele>2701.6000976562</ele>
        <time>2013-08-10T09:52:44.000Z</time>
      </trkpt>
      <trkpt lat="42.69565" lon="1.36876">
        <ele>2701.6000976562</ele>
        <time>2013-08-10T09:52:45.000Z</time>
      </trkpt>
      <trkpt lat="42.69567" lon="1.3688">
        <ele>2701</ele>
        <time>2013-08-10T09:52:49.000Z</time>
      </trkpt>
      <trkpt lat="42.69568" lon="1.36884">
        <ele>2701</ele>
        <time>2013-08-10T09:52:55.000Z</time>
      </trkpt>
      <trkpt lat="42.69568" lon="1.36888">
        <ele>2701</ele>
        <time>2013-08-10T09:52:59.000Z</time>
      </trkpt>
      <trkpt lat="42.69569" lon="1.36892">
        <ele>2700.8000488281</ele>
        <time>2013-08-10T09:53:04.000Z</time>
      </trkpt>
      <trkpt lat="42.69567" lon="1.36895">
        <ele>2700.6000976562</ele>
        <time>2013-08-10T09:53:09.000Z</time>
      </trkpt>
      <trkpt lat="42.69566" lon="1.36895">
        <ele>2700</ele>
        <time>2013-08-10T09:53:13.000Z</time>
      </trkpt>
      <trkpt lat="42.69566" lon="1.36898">
        <ele>2700</ele>
        <time>2013-08-10T09:53:18.000Z</time>
      </trkpt>
      <trkpt lat="42.69564" lon="1.36899">
        <ele>2699.6000976562</ele>
        <time>2013-08-10T09:53:24.000Z</time>
      </trkpt>
      <trkpt lat="42.69564" lon="1.36903">
        <ele>2699</ele>
        <time>2013-08-10T09:53:29.000Z</time>
      </trkpt>
      <trkpt lat="42.69566" lon="1.36911">
        <ele>2698.8000488281</ele>
        <time>2013-08-10T09:53:35.000Z</time>
      </trkpt>
      <trkpt lat="42.69565" lon="1.36916">
        <ele>2698</ele>
        <time>2013-08-10T09:53:40.000Z</time>
      </trkpt>
      <trkpt lat="42.69565" lon="1.36918">
        <ele>2698</ele>
        <time>2013-08-10T09:53:42.000Z</time>
      </trkpt>
      <trkpt lat="42.69564" lon="1.36923">
        <ele>2697.6000976562</ele>
        <time>2013-08-10T09:53:48.000Z</time>
      </trkpt>
      <trkpt lat="42.69563" lon="1.36929">
        <ele>2696.8000488281</ele>
        <time>2013-08-10T09:53:55.000Z</time>
      </trkpt>
      <trkpt lat="42.69563" lon="1.36934">
        <ele>2696</ele>
        <time>2013-08-10T09:54:00.000Z</time>
      </trkpt>
      <trkpt lat="42.69563" lon="1.3694">
        <ele>2695</ele>
        <time>2013-08-10T09:54:06.000Z</time>
      </trkpt>
      <trkpt lat="42.69562" lon="1.36945">
        <ele>2694.6000976562</ele>
        <time>2013-08-10T09:54:11.000Z</time>
      </trkpt>
      <trkpt lat="42.69562" lon="1.36947">
        <ele>2694</ele>
        <time>2013-08-10T09:54:12.000Z</time>
      </trkpt>
      <trkpt lat="42.6956" lon="1.36953">
        <ele>2693.6000976562</ele>
        <time>2013-08-10T09:54:18.000Z</time>
      </trkpt>
      <trkpt lat="42.6956" lon="1.36954">
        <ele>2693</ele>
        <time>2013-08-10T09:54:19.000Z</time>
      </trkpt>
      <trkpt lat="42.69559" lon="1.36958">
        <ele>2692.8000488281</ele>
        <time>2013-08-10T09:54:23.000Z</time>
      </trkpt>
      <trkpt lat="42.69558" lon="1.36959">
        <ele>2692.6000976562</ele>
        <time>2013-08-10T09:54:24.000Z</time>
      </trkpt>
      <trkpt lat="42.69558" lon="1.36962">
        <ele>2692</ele>
        <time>2013-08-10T09:54:28.000Z</time>
      </trkpt>
      <trkpt lat="42.69558" lon="1.36969">
        <ele>2691</ele>
        <time>2013-08-10T09:54:33.000Z</time>
      </trkpt>
      <trkpt lat="42.69558" lon="1.36974">
        <ele>2690</ele>
        <time>2013-08-10T09:54:38.000Z</time>
      </trkpt>
      <trkpt lat="42.69558" lon="1.36976">
        <ele>2690</ele>
        <time>2013-08-10T09:54:39.000Z</time>
      </trkpt>
      <trkpt lat="42.69557" lon="1.36983">
        <ele>2689</ele>
        <time>2013-08-10T09:54:45.000Z</time>
      </trkpt>
      <trkpt lat="42.69556" lon="1.36986">
        <ele>2688</ele>
        <time>2013-08-10T09:54:48.000Z</time>
      </trkpt>
      <trkpt lat="42.69556" lon="1.36991">
        <ele>2687.8000488281</ele>
        <time>2013-08-10T09:54:52.000Z</time>
      </trkpt>
      <trkpt lat="42.69554" lon="1.36998">
        <ele>2686.6000976562</ele>
        <time>2013-08-10T09:54:58.000Z</time>
      </trkpt>
      <trkpt lat="42.69554" lon="1.36999">
        <ele>2686</ele>
        <time>2013-08-10T09:54:59.000Z</time>
      </trkpt>
      <trkpt lat="42.69553" lon="1.37003">
        <ele>2685.8000488281</ele>
        <time>2013-08-10T09:55:02.000Z</time>
      </trkpt>
      <trkpt lat="42.69553" lon="1.37005">
        <ele>2685</ele>
        <time>2013-08-10T09:55:04.000Z</time>
      </trkpt>
      <trkpt lat="42.69553" lon="1.37007">
        <ele>2685</ele>
        <time>2013-08-10T09:55:05.000Z</time>
      </trkpt>
      <trkpt lat="42.69551" lon="1.37009">
        <ele>2684.8000488281</ele>
        <time>2013-08-10T09:55:07.000Z</time>
      </trkpt>
      <trkpt lat="42.6955" lon="1.37012">
        <ele>2684</ele>
        <time>2013-08-10T09:55:11.000Z</time>
      </trkpt>
      <trkpt lat="42.69549" lon="1.37013">
        <ele>2683.6000976562</ele>
        <time>2013-08-10T09:55:13.000Z</time>
      </trkpt>
      <trkpt lat="42.69546" lon="1.37015">
        <ele>2682.8000488281</ele>
        <time>2013-08-10T09:55:17.000Z</time>
      </trkpt>
      <trkpt lat="42.69543" lon="1.37017">
        <ele>2681.8000488281</ele>
        <time>2013-08-10T09:55:22.000Z</time>
      </trkpt>
      <trkpt lat="42.69542" lon="1.3702">
        <ele>2680.6000976562</ele>
        <time>2013-08-10T09:55:27.000Z</time>
      </trkpt>
      <trkpt lat="42.69539" lon="1.37026">
        <ele>2679</ele>
        <time>2013-08-10T09:55:33.000Z</time>
      </trkpt>
      <trkpt lat="42.69537" lon="1.37032">
        <ele>2677.8000488281</ele>
        <time>2013-08-10T09:55:40.000Z</time>
      </trkpt>
      <trkpt lat="42.69535" lon="1.37037">
        <ele>2676.6000976562</ele>
        <time>2013-08-10T09:55:45.000Z</time>
      </trkpt>
      <trkpt lat="42.69534" lon="1.37038">
        <ele>2676</ele>
        <time>2013-08-10T09:55:46.000Z</time>
      </trkpt>
      <trkpt lat="42.6953" lon="1.37042">
        <ele>2675</ele>
        <time>2013-08-10T09:55:52.000Z</time>
      </trkpt>
      <trkpt lat="42.6953" lon="1.37042">
        <ele>2674.8000488281</ele>
        <time>2013-08-10T09:55:53.000Z</time>
      </trkpt>
      <trkpt lat="42.69528" lon="1.37045">
        <ele>2673</ele>
        <time>2013-08-10T09:55:58.000Z</time>
      </trkpt>
      <trkpt lat="42.69527" lon="1.37051">
        <ele>2672</ele>
        <time>2013-08-10T09:56:04.000Z</time>
      </trkpt>
      <trkpt lat="42.69525" lon="1.37056">
        <ele>2670.6000976562</ele>
        <time>2013-08-10T09:56:09.000Z</time>
      </trkpt>
      <trkpt lat="42.69522" lon="1.37059">
        <ele>2669</ele>
        <time>2013-08-10T09:56:15.000Z</time>
      </trkpt>
      <trkpt lat="42.69521" lon="1.37062">
        <ele>2667.8000488281</ele>
        <time>2013-08-10T09:56:20.000Z</time>
      </trkpt>
      <trkpt lat="42.69518" lon="1.37064">
        <ele>2666</ele>
        <time>2013-08-10T09:56:25.000Z</time>
      </trkpt>
      <trkpt lat="42.69514" lon="1.37065">
        <ele>2664</ele>
        <time>2013-08-10T09:56:33.000Z</time>
      </trkpt>
      <trkpt lat="42.69513" lon="1.37067">
        <ele>2662.8000488281</ele>
        <time>2013-08-10T09:56:38.000Z</time>
      </trkpt>
      <trkpt lat="42.69512" lon="1.37072">
        <ele>2661</ele>
        <time>2013-08-10T09:56:43.000Z</time>
      </trkpt>
      <trkpt lat="42.69511" lon="1.37076">
        <ele>2659.8000488281</ele>
        <time>2013-08-10T09:56:49.000Z</time>
      </trkpt>
      <trkpt lat="42.69509" lon="1.37083">
        <ele>2657</ele>
        <time>2013-08-10T09:56:57.000Z</time>
      </trkpt>
      <trkpt lat="42.69508" lon="1.3709">
        <ele>2655.8000488281</ele>
        <time>2013-08-10T09:57:03.000Z</time>
      </trkpt>
      <trkpt lat="42.69505" lon="1.37095">
        <ele>2654</ele>
        <time>2013-08-10T09:57:08.000Z</time>
      </trkpt>
      <trkpt lat="42.69504" lon="1.37096">
        <ele>2652.8000488281</ele>
        <time>2013-08-10T09:57:13.000Z</time>
      </trkpt>
      <trkpt lat="42.69505" lon="1.37096">
        <ele>2650.8000488281</ele>
        <time>2013-08-10T09:57:21.000Z</time>
      </trkpt>
      <trkpt lat="42.69503" lon="1.37102">
        <ele>2649</ele>
        <time>2013-08-10T09:57:26.000Z</time>
      </trkpt>
      <trkpt lat="42.69502" lon="1.37107">
        <ele>2648</ele>
        <time>2013-08-10T09:57:30.000Z</time>
      </trkpt>
      <trkpt lat="42.695" lon="1.37111">
        <ele>2647</ele>
        <time>2013-08-10T09:57:33.000Z</time>
      </trkpt>
      <trkpt lat="42.69498" lon="1.37114">
        <ele>2646.8000488281</ele>
        <time>2013-08-10T09:57:35.000Z</time>
      </trkpt>
      <trkpt lat="42.69497" lon="1.37119">
        <ele>2645</ele>
        <time>2013-08-10T09:57:40.000Z</time>
      </trkpt>
      <trkpt lat="42.69495" lon="1.37126">
        <ele>2643.8000488281</ele>
        <time>2013-08-10T09:57:46.000Z</time>
      </trkpt>
      <trkpt lat="42.69494" lon="1.37136">
        <ele>2642</ele>
        <time>2013-08-10T09:57:52.000Z</time>
      </trkpt>
      <trkpt lat="42.69494" lon="1.37139">
        <ele>2641.6000976562</ele>
        <time>2013-08-10T09:57:54.000Z</time>
      </trkpt>
      <trkpt lat="42.69494" lon="1.37145">
        <ele>2640</ele>
        <time>2013-08-10T09:57:58.000Z</time>
      </trkpt>
      <trkpt lat="42.69494" lon="1.37147">
        <ele>2640</ele>
        <time>2013-08-10T09:57:59.000Z</time>
      </trkpt>
      <trkpt lat="42.69493" lon="1.37154">
        <ele>2639</ele>
        <time>2013-08-10T09:58:04.000Z</time>
      </trkpt>
      <trkpt lat="42.69493" lon="1.37162">
        <ele>2637</ele>
        <time>2013-08-10T09:58:10.000Z</time>
      </trkpt>
      <trkpt lat="42.69492" lon="1.37173">
        <ele>2635.8000488281</ele>
        <time>2013-08-10T09:58:17.000Z</time>
      </trkpt>
      <trkpt lat="42.69493" lon="1.37183">
        <ele>2634</ele>
        <time>2013-08-10T09:58:24.000Z</time>
      </trkpt>
      <trkpt lat="42.69493" lon="1.37185">
        <ele>2633.6000976562</ele>
        <time>2013-08-10T09:58:26.000Z</time>
      </trkpt>
      <trkpt lat="42.69494" lon="1.37192">
        <ele>2632.6000976562</ele>
        <time>2013-08-10T09:58:31.000Z</time>
      </trkpt>
      <trkpt lat="42.69494" lon="1.372">
        <ele>2631</ele>
        <time>2013-08-10T09:58:38.000Z</time>
      </trkpt>
      <trkpt lat="42.69493" lon="1.37211">
        <ele>2629.6000976562</ele>
        <time>2013-08-10T09:58:45.000Z</time>
      </trkpt>
      <trkpt lat="42.69491" lon="1.37221">
        <ele>2628</ele>
        <time>2013-08-10T09:58:52.000Z</time>
      </trkpt>
      <trkpt lat="42.6949" lon="1.37233">
        <ele>2626.6000976562</ele>
        <time>2013-08-10T09:58:59.000Z</time>
      </trkpt>
      <trkpt lat="42.69488" lon="1.37238">
        <ele>2625.6000976562</ele>
        <time>2013-08-10T09:59:03.000Z</time>
      </trkpt>
      <trkpt lat="42.69486" lon="1.37241">
        <ele>2625</ele>
        <time>2013-08-10T09:59:06.000Z</time>
      </trkpt>
      <trkpt lat="42.69484" lon="1.3725">
        <ele>2623.6000976562</ele>
        <time>2013-08-10T09:59:13.000Z</time>
      </trkpt>
      <trkpt lat="42.69483" lon="1.37251">
        <ele>2622</ele>
        <time>2013-08-10T09:59:20.000Z</time>
      </trkpt>
      <trkpt lat="42.6948" lon="1.37254">
        <ele>2621</ele>
        <time>2013-08-10T09:59:26.000Z</time>
      </trkpt>
      <trkpt lat="42.69478" lon="1.37259">
        <ele>2619.8000488281</ele>
        <time>2013-08-10T09:59:31.000Z</time>
      </trkpt>
      <trkpt lat="42.69477" lon="1.37267">
        <ele>2618.8000488281</ele>
        <time>2013-08-10T09:59:37.000Z</time>
      </trkpt>
      <trkpt lat="42.69476" lon="1.37274">
        <ele>2617.6000976562</ele>
        <time>2013-08-10T09:59:43.000Z</time>
      </trkpt>
      <trkpt lat="42.69475" lon="1.37281">
        <ele>2616.8000488281</ele>
        <time>2013-08-10T09:59:48.000Z</time>
      </trkpt>
      <trkpt lat="42.69475" lon="1.37288">
        <ele>2615.8000488281</ele>
        <time>2013-08-10T09:59:53.000Z</time>
      </trkpt>
      <trkpt lat="42.69476" lon="1.37292">
        <ele>2615</ele>
        <time>2013-08-10T09:59:56.000Z</time>
      </trkpt>
      <trkpt lat="42.69477" lon="1.37295">
        <ele>2614.8000488281</ele>
        <time>2013-08-10T09:59:59.000Z</time>
      </trkpt>
      <trkpt lat="42.69478" lon="1.373">
        <ele>2614</ele>
        <time>2013-08-10T10:00:03.000Z</time>
      </trkpt>
      <trkpt lat="42.69478" lon="1.37301">
        <ele>2614</ele>
        <time>2013-08-10T10:00:04.000Z</time>
      </trkpt>
      <trkpt lat="42.69478" lon="1.37304">
        <ele>2613.6000976562</ele>
        <time>2013-08-10T10:00:06.000Z</time>
      </trkpt>
      <trkpt lat="42.69478" lon="1.37306">
        <ele>2613</ele>
        <time>2013-08-10T10:00:08.000Z</time>
      </trkpt>
      <trkpt lat="42.69478" lon="1.3731">
        <ele>2612.8000488281</ele>
        <time>2013-08-10T10:00:11.000Z</time>
      </trkpt>
      <trkpt lat="42.69478" lon="1.37311">
        <ele>2612.8000488281</ele>
        <time>2013-08-10T10:00:12.000Z</time>
      </trkpt>
      <trkpt lat="42.69478" lon="1.37319">
        <ele>2612</ele>
        <time>2013-08-10T10:00:17.000Z</time>
      </trkpt>
      <trkpt lat="42.69478" lon="1.37326">
        <ele>2611</ele>
        <time>2013-08-10T10:00:23.000Z</time>
      </trkpt>
      <trkpt lat="42.69478" lon="1.37333">
        <ele>2610</ele>
        <time>2013-08-10T10:00:28.000Z</time>
      </trkpt>
      <trkpt lat="42.69478" lon="1.37336">
        <ele>2610</ele>
        <time>2013-08-10T10:00:30.000Z</time>
      </trkpt>
      <trkpt lat="42.69477" lon="1.37339">
        <ele>2609.6000976562</ele>
        <time>2013-08-10T10:00:34.000Z</time>
      </trkpt>
      <trkpt lat="42.69475" lon="1.37347">
        <ele>2608.8000488281</ele>
        <time>2013-08-10T10:00:40.000Z</time>
      </trkpt>
      <trkpt lat="42.69476" lon="1.37351">
        <ele>2607.8000488281</ele>
        <time>2013-08-10T10:00:47.000Z</time>
      </trkpt>
      <trkpt lat="42.69476" lon="1.37353">
        <ele>2607</ele>
        <time>2013-08-10T10:00:52.000Z</time>
      </trkpt>
      <trkpt lat="42.69479" lon="1.37356">
        <ele>2606</ele>
        <time>2013-08-10T10:00:58.000Z</time>
      </trkpt>
      <trkpt lat="42.6948" lon="1.37359">
        <ele>2605.6000976562</ele>
        <time>2013-08-10T10:01:03.000Z</time>
      </trkpt>
      <trkpt lat="42.69485" lon="1.37356">
        <ele>2604</ele>
        <time>2013-08-10T10:01:12.000Z</time>
      </trkpt>
      <trkpt lat="42.69488" lon="1.37357">
        <ele>2603.8000488281</ele>
        <time>2013-08-10T10:01:15.000Z</time>
      </trkpt>
      <trkpt lat="42.69488" lon="1.37359">
        <ele>2603</ele>
        <time>2013-08-10T10:01:17.000Z</time>
      </trkpt>
      <trkpt lat="42.69487" lon="1.37361">
        <ele>2603</ele>
        <time>2013-08-10T10:01:20.000Z</time>
      </trkpt>
      <trkpt lat="42.69487" lon="1.37364">
        <ele>2602</ele>
        <time>2013-08-10T10:01:24.000Z</time>
      </trkpt>
      <trkpt lat="42.69488" lon="1.3737">
        <ele>2601</ele>
        <time>2013-08-10T10:01:30.000Z</time>
      </trkpt>
      <trkpt lat="42.6949" lon="1.37376">
        <ele>2600</ele>
        <time>2013-08-10T10:01:37.000Z</time>
      </trkpt>
      <trkpt lat="42.69492" lon="1.37379">
        <ele>2599</ele>
        <time>2013-08-10T10:01:43.000Z</time>
      </trkpt>
      <trkpt lat="42.69492" lon="1.37382">
        <ele>2598</ele>
        <time>2013-08-10T10:01:48.000Z</time>
      </trkpt>
      <trkpt lat="42.69495" lon="1.37389">
        <ele>2597</ele>
        <time>2013-08-10T10:01:53.000Z</time>
      </trkpt>
      <trkpt lat="42.69499" lon="1.3739">
        <ele>2596</ele>
        <time>2013-08-10T10:01:59.000Z</time>
      </trkpt>
      <trkpt lat="42.69501" lon="1.37388">
        <ele>2595</ele>
        <time>2013-08-10T10:02:06.000Z</time>
      </trkpt>
      <trkpt lat="42.69505" lon="1.37385">
        <ele>2593.8000488281</ele>
        <time>2013-08-10T10:02:13.000Z</time>
      </trkpt>
      <trkpt lat="42.69507" lon="1.37389">
        <ele>2592.8000488281</ele>
        <time>2013-08-10T10:02:18.000Z</time>
      </trkpt>
      <trkpt lat="42.69509" lon="1.37393">
        <ele>2591</ele>
        <time>2013-08-10T10:02:26.000Z</time>
      </trkpt>
      <trkpt lat="42.69509" lon="1.37398">
        <ele>2590</ele>
        <time>2013-08-10T10:02:32.000Z</time>
      </trkpt>
      <trkpt lat="42.6951" lon="1.37402">
        <ele>2588</ele>
        <time>2013-08-10T10:02:41.000Z</time>
      </trkpt>
      <trkpt lat="42.69513" lon="1.37407">
        <ele>2586.6000976562</ele>
        <time>2013-08-10T10:02:48.000Z</time>
      </trkpt>
      <trkpt lat="42.69515" lon="1.37412">
        <ele>2585</ele>
        <time>2013-08-10T10:02:54.000Z</time>
      </trkpt>
      <trkpt lat="42.69517" lon="1.37418">
        <ele>2583.8000488281</ele>
        <time>2013-08-10T10:03:01.000Z</time>
      </trkpt>
      <trkpt lat="42.69518" lon="1.37421">
        <ele>2582.6000976562</ele>
        <time>2013-08-10T10:03:06.000Z</time>
      </trkpt>
      <trkpt lat="42.6952" lon="1.37425">
        <ele>2581</ele>
        <time>2013-08-10T10:03:13.000Z</time>
      </trkpt>
      <trkpt lat="42.69523" lon="1.37429">
        <ele>2579</ele>
        <time>2013-08-10T10:03:20.000Z</time>
      </trkpt>
      <trkpt lat="42.69525" lon="1.37429">
        <ele>2578</ele>
        <time>2013-08-10T10:03:26.000Z</time>
      </trkpt>
      <trkpt lat="42.69528" lon="1.37432">
        <ele>2576.8000488281</ele>
        <time>2013-08-10T10:03:31.000Z</time>
      </trkpt>
      <trkpt lat="42.6953" lon="1.37437">
        <ele>2575</ele>
        <time>2013-08-10T10:03:38.000Z</time>
      </trkpt>
      <trkpt lat="42.69533" lon="1.37441">
        <ele>2573</ele>
        <time>2013-08-10T10:03:45.000Z</time>
      </trkpt>
      <trkpt lat="42.69535" lon="1.37445">
        <ele>2572</ele>
        <time>2013-08-10T10:03:51.000Z</time>
      </trkpt>
      <trkpt lat="42.69537" lon="1.37447">
        <ele>2571</ele>
        <time>2013-08-10T10:03:56.000Z</time>
      </trkpt>
      <trkpt lat="42.69539" lon="1.3745">
        <ele>2570</ele>
        <time>2013-08-10T10:04:00.000Z</time>
      </trkpt>
      <trkpt lat="42.69542" lon="1.37455">
        <ele>2568</ele>
        <time>2013-08-10T10:04:07.000Z</time>
      </trkpt>
      <trkpt lat="42.69544" lon="1.37457">
        <ele>2567</ele>
        <time>2013-08-10T10:04:12.000Z</time>
      </trkpt>
      <trkpt lat="42.69547" lon="1.37462">
        <ele>2565.6000976562</ele>
        <time>2013-08-10T10:04:18.000Z</time>
      </trkpt>
      <trkpt lat="42.69549" lon="1.37465">
        <ele>2564</ele>
        <time>2013-08-10T10:04:23.000Z</time>
      </trkpt>
      <trkpt lat="42.69551" lon="1.3747">
        <ele>2563</ele>
        <time>2013-08-10T10:04:29.000Z</time>
      </trkpt>
      <trkpt lat="42.69554" lon="1.37475">
        <ele>2561.6000976562</ele>
        <time>2013-08-10T10:04:35.000Z</time>
      </trkpt>
      <trkpt lat="42.69555" lon="1.37478">
        <ele>2560</ele>
        <time>2013-08-10T10:04:41.000Z</time>
      </trkpt>
      <trkpt lat="42.69559" lon="1.37476">
        <ele>2558.6000976562</ele>
        <time>2013-08-10T10:04:47.000Z</time>
      </trkpt>
      <trkpt lat="42.6956" lon="1.37479">
        <ele>2557</ele>
        <time>2013-08-10T10:04:53.000Z</time>
      </trkpt>
      <trkpt lat="42.69562" lon="1.37482">
        <ele>2555.8000488281</ele>
        <time>2013-08-10T10:04:59.000Z</time>
      </trkpt>
      <trkpt lat="42.69566" lon="1.37482">
        <ele>2554.6000976562</ele>
        <time>2013-08-10T10:05:05.000Z</time>
      </trkpt>
      <trkpt lat="42.69569" lon="1.37484">
        <ele>2553.6000976562</ele>
        <time>2013-08-10T10:05:10.000Z</time>
      </trkpt>
      <trkpt lat="42.69572" lon="1.37485">
        <ele>2553</ele>
        <time>2013-08-10T10:05:13.000Z</time>
      </trkpt>
      <trkpt lat="42.69574" lon="1.37485">
        <ele>2552</ele>
        <time>2013-08-10T10:05:17.000Z</time>
      </trkpt>
      <trkpt lat="42.69576" lon="1.37487">
        <ele>2551</ele>
        <time>2013-08-10T10:05:21.000Z</time>
      </trkpt>
      <trkpt lat="42.69578" lon="1.37488">
        <ele>2550.6000976562</ele>
        <time>2013-08-10T10:05:25.000Z</time>
      </trkpt>
      <trkpt lat="42.69577" lon="1.37484">
        <ele>2550</ele>
        <time>2013-08-10T10:05:28.000Z</time>
      </trkpt>
      <trkpt lat="42.69576" lon="1.37482">
        <ele>2549.6000976562</ele>
        <time>2013-08-10T10:05:30.000Z</time>
      </trkpt>
      <trkpt lat="42.69576" lon="1.37481">
        <ele>2549</ele>
        <time>2013-08-10T10:05:32.000Z</time>
      </trkpt>
      <trkpt lat="42.69578" lon="1.37481">
        <ele>2548</ele>
        <time>2013-08-10T10:05:36.000Z</time>
      </trkpt>
      <trkpt lat="42.69579" lon="1.37481">
        <ele>2546.8000488281</ele>
        <time>2013-08-10T10:05:42.000Z</time>
      </trkpt>
      <trkpt lat="42.69579" lon="1.37476">
        <ele>2545.8000488281</ele>
        <time>2013-08-10T10:05:47.000Z</time>
      </trkpt>
      <trkpt lat="42.69579" lon="1.37471">
        <ele>2544.6000976562</ele>
        <time>2013-08-10T10:05:52.000Z</time>
      </trkpt>
      <trkpt lat="42.6958" lon="1.37468">
        <ele>2543.6000976562</ele>
        <time>2013-08-10T10:05:56.000Z</time>
      </trkpt>
      <trkpt lat="42.69581" lon="1.37468">
        <ele>2542.6000976562</ele>
        <time>2013-08-10T10:06:00.000Z</time>
      </trkpt>
      <trkpt lat="42.69582" lon="1.37469">
        <ele>2540</ele>
        <time>2013-08-10T10:06:10.000Z</time>
      </trkpt>
      <trkpt lat="42.69585" lon="1.37467">
        <ele>2539</ele>
        <time>2013-08-10T10:06:15.000Z</time>
      </trkpt>
      <trkpt lat="42.69588" lon="1.37469">
        <ele>2538</ele>
        <time>2013-08-10T10:06:19.000Z</time>
      </trkpt>
      <trkpt lat="42.6959" lon="1.3747">
        <ele>2536.6000976562</ele>
        <time>2013-08-10T10:06:24.000Z</time>
      </trkpt>
      <trkpt lat="42.69592" lon="1.37471">
        <ele>2535.6000976562</ele>
        <time>2013-08-10T10:06:28.000Z</time>
      </trkpt>
      <trkpt lat="42.69593" lon="1.37471">
        <ele>2535</ele>
        <time>2013-08-10T10:06:29.000Z</time>
      </trkpt>
      <trkpt lat="42.69595" lon="1.3747">
        <ele>2534</ele>
        <time>2013-08-10T10:06:34.000Z</time>
      </trkpt>
      <trkpt lat="42.69595" lon="1.37466">
        <ele>2532.8000488281</ele>
        <time>2013-08-10T10:06:39.000Z</time>
      </trkpt>
      <trkpt lat="42.69598" lon="1.37465">
        <ele>2531</ele>
        <time>2013-08-10T10:06:44.000Z</time>
      </trkpt>
      <trkpt lat="42.69601" lon="1.37464">
        <ele>2529.8000488281</ele>
        <time>2013-08-10T10:06:50.000Z</time>
      </trkpt>
      <trkpt lat="42.69606" lon="1.37465">
        <ele>2528</ele>
        <time>2013-08-10T10:06:56.000Z</time>
      </trkpt>
      <trkpt lat="42.69609" lon="1.37465">
        <ele>2526</ele>
        <time>2013-08-10T10:07:03.000Z</time>
      </trkpt>
      <trkpt lat="42.69614" lon="1.37466">
        <ele>2524.8000488281</ele>
        <time>2013-08-10T10:07:09.000Z</time>
      </trkpt>
      <trkpt lat="42.69617" lon="1.37466">
        <ele>2523</ele>
        <time>2013-08-10T10:07:14.000Z</time>
      </trkpt>
      <trkpt lat="42.69621" lon="1.37467">
        <ele>2521.8000488281</ele>
        <time>2013-08-10T10:07:20.000Z</time>
      </trkpt>
      <trkpt lat="42.69623" lon="1.37467">
        <ele>2520</ele>
        <time>2013-08-10T10:07:25.000Z</time>
      </trkpt>
      <trkpt lat="42.69623" lon="1.37464">
        <ele>2519</ele>
        <time>2013-08-10T10:07:29.000Z</time>
      </trkpt>
      <trkpt lat="42.69625" lon="1.3746">
        <ele>2517.8000488281</ele>
        <time>2013-08-10T10:07:34.000Z</time>
      </trkpt>
      <trkpt lat="42.69628" lon="1.3746">
        <ele>2516</ele>
        <time>2013-08-10T10:07:40.000Z</time>
      </trkpt>
      <trkpt lat="42.69631" lon="1.37462">
        <ele>2514</ele>
        <time>2013-08-10T10:07:46.000Z</time>
      </trkpt>
      <trkpt lat="42.69634" lon="1.37463">
        <ele>2511.6000976562</ele>
        <time>2013-08-10T10:07:56.000Z</time>
      </trkpt>
      <trkpt lat="42.69638" lon="1.37463">
        <ele>2510</ele>
        <time>2013-08-10T10:08:02.000Z</time>
      </trkpt>
      <trkpt lat="42.6964" lon="1.37462">
        <ele>2508.6000976562</ele>
        <time>2013-08-10T10:08:07.000Z</time>
      </trkpt>
      <trkpt lat="42.69642" lon="1.37456">
        <ele>2507</ele>
        <time>2013-08-10T10:08:12.000Z</time>
      </trkpt>
      <trkpt lat="42.69646" lon="1.37456">
        <ele>2505</ele>
        <time>2013-08-10T10:08:18.000Z</time>
      </trkpt>
      <trkpt lat="42.69648" lon="1.37454">
        <ele>2504</ele>
        <time>2013-08-10T10:08:23.000Z</time>
      </trkpt>
      <trkpt lat="42.69652" lon="1.37453">
        <ele>2502</ele>
        <time>2013-08-10T10:08:28.000Z</time>
      </trkpt>
      <trkpt lat="42.69654" lon="1.3745">
        <ele>2501</ele>
        <time>2013-08-10T10:08:33.000Z</time>
      </trkpt>
      <trkpt lat="42.69654" lon="1.37448">
        <ele>2500.6000976562</ele>
        <time>2013-08-10T10:08:34.000Z</time>
      </trkpt>
      <trkpt lat="42.69656" lon="1.37444">
        <ele>2499</ele>
        <time>2013-08-10T10:08:38.000Z</time>
      </trkpt>
      <trkpt lat="42.69658" lon="1.37441">
        <ele>2497.8000488281</ele>
        <time>2013-08-10T10:08:43.000Z</time>
      </trkpt>
      <trkpt lat="42.69658" lon="1.3744">
        <ele>2497.6000976562</ele>
        <time>2013-08-10T10:08:44.000Z</time>
      </trkpt>
      <trkpt lat="42.6966" lon="1.37439">
        <ele>2496.6000976562</ele>
        <time>2013-08-10T10:08:47.000Z</time>
      </trkpt>
      <trkpt lat="42.69662" lon="1.37439">
        <ele>2495</ele>
        <time>2013-08-10T10:08:52.000Z</time>
      </trkpt>
      <trkpt lat="42.69664" lon="1.37435">
        <ele>2493.8000488281</ele>
        <time>2013-08-10T10:08:56.000Z</time>
      </trkpt>
      <trkpt lat="42.69666" lon="1.37435">
        <ele>2492</ele>
        <time>2013-08-10T10:09:01.000Z</time>
      </trkpt>
      <trkpt lat="42.6967" lon="1.37438">
        <ele>2490.8000488281</ele>
        <time>2013-08-10T10:09:06.000Z</time>
      </trkpt>
      <trkpt lat="42.69674" lon="1.37438">
        <ele>2488.6000976562</ele>
        <time>2013-08-10T10:09:13.000Z</time>
      </trkpt>
      <trkpt lat="42.69673" lon="1.37431">
        <ele>2486.8000488281</ele>
        <time>2013-08-10T10:09:19.000Z</time>
      </trkpt>
      <trkpt lat="42.69674" lon="1.37426">
        <ele>2485</ele>
        <time>2013-08-10T10:09:25.000Z</time>
      </trkpt>
      <trkpt lat="42.69676" lon="1.3742">
        <ele>2483</ele>
        <time>2013-08-10T10:09:30.000Z</time>
      </trkpt>
      <trkpt lat="42.69678" lon="1.37417">
        <ele>2482</ele>
        <time>2013-08-10T10:09:35.000Z</time>
      </trkpt>
      <trkpt lat="42.69681" lon="1.37415">
        <ele>2480</ele>
        <time>2013-08-10T10:09:41.000Z</time>
      </trkpt>
      <trkpt lat="42.69684" lon="1.37412">
        <ele>2478</ele>
        <time>2013-08-10T10:09:47.000Z</time>
      </trkpt>
      <trkpt lat="42.69687" lon="1.37413">
        <ele>2477</ele>
        <time>2013-08-10T10:09:51.000Z</time>
      </trkpt>
      <trkpt lat="42.69689" lon="1.3741">
        <ele>2476</ele>
        <time>2013-08-10T10:09:55.000Z</time>
      </trkpt>
      <trkpt lat="42.6969" lon="1.37409">
        <ele>2475.8000488281</ele>
        <time>2013-08-10T10:09:56.000Z</time>
      </trkpt>
      <trkpt lat="42.69692" lon="1.37408">
        <ele>2475</ele>
        <time>2013-08-10T10:09:59.000Z</time>
      </trkpt>
      <trkpt lat="42.69694" lon="1.37407">
        <ele>2474</ele>
        <time>2013-08-10T10:10:02.000Z</time>
      </trkpt>
      <trkpt lat="42.69695" lon="1.37407">
        <ele>2473</ele>
        <time>2013-08-10T10:10:04.000Z</time>
      </trkpt>
      <trkpt lat="42.69698" lon="1.37411">
        <ele>2472</ele>
        <time>2013-08-10T10:10:09.000Z</time>
      </trkpt>
      <trkpt lat="42.69699" lon="1.37412">
        <ele>2471.6000976562</ele>
        <time>2013-08-10T10:10:10.000Z</time>
      </trkpt>
      <trkpt lat="42.69701" lon="1.37415">
        <ele>2470.6000976562</ele>
        <time>2013-08-10T10:10:14.000Z</time>
      </trkpt>
      <trkpt lat="42.69702" lon="1.37417">
        <ele>2468.8000488281</ele>
        <time>2013-08-10T10:10:20.000Z</time>
      </trkpt>
      <trkpt lat="42.69705" lon="1.37421">
        <ele>2466.8000488281</ele>
        <time>2013-08-10T10:10:27.000Z</time>
      </trkpt>
      <trkpt lat="42.69708" lon="1.37425">
        <ele>2465.8000488281</ele>
        <time>2013-08-10T10:10:31.000Z</time>
      </trkpt>
      <trkpt lat="42.69709" lon="1.37425">
        <ele>2465</ele>
        <time>2013-08-10T10:10:32.000Z</time>
      </trkpt>
      <trkpt lat="42.69711" lon="1.37423">
        <ele>2464</ele>
        <time>2013-08-10T10:10:36.000Z</time>
      </trkpt>
      <trkpt lat="42.69712" lon="1.37424">
        <ele>2464</ele>
        <time>2013-08-10T10:10:37.000Z</time>
      </trkpt>
      <trkpt lat="42.69713" lon="1.37426">
        <ele>2462.8000488281</ele>
        <time>2013-08-10T10:10:42.000Z</time>
      </trkpt>
      <trkpt lat="42.69716" lon="1.37429">
        <ele>2462</ele>
        <time>2013-08-10T10:10:45.000Z</time>
      </trkpt>
      <trkpt lat="42.69716" lon="1.3743">
        <ele>2461.6000976562</ele>
        <time>2013-08-10T10:10:47.000Z</time>
      </trkpt>
      <trkpt lat="42.69718" lon="1.37434">
        <ele>2456.6000976562</ele>
        <time>2013-08-10T10:11:08.000Z</time>
      </trkpt>
      <trkpt lat="42.6972" lon="1.37437">
        <ele>2455.8000488281</ele>
        <time>2013-08-10T10:11:12.000Z</time>
      </trkpt>
      <trkpt lat="42.69721" lon="1.37439">
        <ele>2455.6000976562</ele>
        <time>2013-08-10T10:11:13.000Z</time>
      </trkpt>
      <trkpt lat="42.69723" lon="1.3744">
        <ele>2454.8000488281</ele>
        <time>2013-08-10T10:11:17.000Z</time>
      </trkpt>
      <trkpt lat="42.69725" lon="1.37445">
        <ele>2450.6000976562</ele>
        <time>2013-08-10T10:11:39.000Z</time>
      </trkpt>
      <trkpt lat="42.69727" lon="1.37449">
        <ele>2448</ele>
        <time>2013-08-10T10:11:51.000Z</time>
      </trkpt>
      <trkpt lat="42.69728" lon="1.37451">
        <ele>2447.6000976562</ele>
        <time>2013-08-10T10:11:56.000Z</time>
      </trkpt>
      <trkpt lat="42.69733" lon="1.37456">
        <ele>2446</ele>
        <time>2013-08-10T10:12:05.000Z</time>
      </trkpt>
      <trkpt lat="42.69735" lon="1.37458">
        <ele>2445.8000488281</ele>
        <time>2013-08-10T10:12:09.000Z</time>
      </trkpt>
      <trkpt lat="42.69736" lon="1.37459">
        <ele>2445.6000976562</ele>
        <time>2013-08-10T10:12:10.000Z</time>
      </trkpt>
      <trkpt lat="42.69739" lon="1.37459">
        <ele>2444.8000488281</ele>
        <time>2013-08-10T10:12:15.000Z</time>
      </trkpt>
      <trkpt lat="42.69741" lon="1.3746">
        <ele>2444</ele>
        <time>2013-08-10T10:12:21.000Z</time>
      </trkpt>
      <trkpt lat="42.69744" lon="1.37462">
        <ele>2443</ele>
        <time>2013-08-10T10:12:26.000Z</time>
      </trkpt>
      <trkpt lat="42.69746" lon="1.37465">
        <ele>2442</ele>
        <time>2013-08-10T10:12:32.000Z</time>
      </trkpt>
      <trkpt lat="42.69745" lon="1.37469">
        <ele>2442</ele>
        <time>2013-08-10T10:12:37.000Z</time>
      </trkpt>
      <trkpt lat="42.69745" lon="1.37471">
        <ele>2441</ele>
        <time>2013-08-10T10:12:41.000Z</time>
      </trkpt>
      <trkpt lat="42.69747" lon="1.37473">
        <ele>2441</ele>
        <time>2013-08-10T10:12:46.000Z</time>
      </trkpt>
      <trkpt lat="42.69748" lon="1.37475">
        <ele>2440.6000976562</ele>
        <time>2013-08-10T10:12:50.000Z</time>
      </trkpt>
      <trkpt lat="42.6975" lon="1.37477">
        <ele>2440</ele>
        <time>2013-08-10T10:12:54.000Z</time>
      </trkpt>
      <trkpt lat="42.69754" lon="1.37478">
        <ele>2439</ele>
        <time>2013-08-10T10:13:02.000Z</time>
      </trkpt>
      <trkpt lat="42.69757" lon="1.37478">
        <ele>2439</ele>
        <time>2013-08-10T10:13:07.000Z</time>
      </trkpt>
      <trkpt lat="42.69758" lon="1.3748">
        <ele>2438.6000976562</ele>
        <time>2013-08-10T10:13:12.000Z</time>
      </trkpt>
      <trkpt lat="42.69761" lon="1.37483">
        <ele>2438</ele>
        <time>2013-08-10T10:13:18.000Z</time>
      </trkpt>
      <trkpt lat="42.69762" lon="1.37486">
        <ele>2437.8000488281</ele>
        <time>2013-08-10T10:13:22.000Z</time>
      </trkpt>
      <trkpt lat="42.69765" lon="1.37487">
        <ele>2437</ele>
        <time>2013-08-10T10:13:26.000Z</time>
      </trkpt>
      <trkpt lat="42.69767" lon="1.37489">
        <ele>2437</ele>
        <time>2013-08-10T10:13:30.000Z</time>
      </trkpt>
      <trkpt lat="42.6977" lon="1.37491">
        <ele>2436.8000488281</ele>
        <time>2013-08-10T10:13:35.000Z</time>
      </trkpt>
      <trkpt lat="42.69773" lon="1.3749">
        <ele>2436</ele>
        <time>2013-08-10T10:13:39.000Z</time>
      </trkpt>
      <trkpt lat="42.69775" lon="1.37493">
        <ele>2436</ele>
        <time>2013-08-10T10:13:43.000Z</time>
      </trkpt>
      <trkpt lat="42.69779" lon="1.37493">
        <ele>2435.6000976562</ele>
        <time>2013-08-10T10:13:48.000Z</time>
      </trkpt>
      <trkpt lat="42.69784" lon="1.37494">
        <ele>2435</ele>
        <time>2013-08-10T10:13:52.000Z</time>
      </trkpt>
      <trkpt lat="42.69788" lon="1.37494">
        <ele>2434.8000488281</ele>
        <time>2013-08-10T10:13:57.000Z</time>
      </trkpt>
      <trkpt lat="42.69793" lon="1.37493">
        <ele>2434</ele>
        <time>2013-08-10T10:14:03.000Z</time>
      </trkpt>
      <trkpt lat="42.69795" lon="1.37493">
        <ele>2434</ele>
        <time>2013-08-10T10:14:04.000Z</time>
      </trkpt>
      <trkpt lat="42.69797" lon="1.37493">
        <ele>2433.8000488281</ele>
        <time>2013-08-10T10:14:07.000Z</time>
      </trkpt>
      <trkpt lat="42.69799" lon="1.37493">
        <ele>2433.6000976562</ele>
        <time>2013-08-10T10:14:09.000Z</time>
      </trkpt>
      <trkpt lat="42.698" lon="1.37493">
        <ele>2433</ele>
        <time>2013-08-10T10:14:10.000Z</time>
      </trkpt>
      <trkpt lat="42.69803" lon="1.37491">
        <ele>2432.8000488281</ele>
        <time>2013-08-10T10:14:17.000Z</time>
      </trkpt>
      <trkpt lat="42.69805" lon="1.37491">
        <ele>2432</ele>
        <time>2013-08-10T10:14:22.000Z</time>
      </trkpt>
      <trkpt lat="42.69808" lon="1.37492">
        <ele>2431.8000488281</ele>
        <time>2013-08-10T10:14:25.000Z</time>
      </trkpt>
      <trkpt lat="42.69811" lon="1.37492">
        <ele>2431</ele>
        <time>2013-08-10T10:14:30.000Z</time>
      </trkpt>
      <trkpt lat="42.69814" lon="1.37494">
        <ele>2430.8000488281</ele>
        <time>2013-08-10T10:14:35.000Z</time>
      </trkpt>
      <trkpt lat="42.69819" lon="1.37496">
        <ele>2430</ele>
        <time>2013-08-10T10:14:42.000Z</time>
      </trkpt>
      <trkpt lat="42.69822" lon="1.37498">
        <ele>2429.6000976562</ele>
        <time>2013-08-10T10:14:47.000Z</time>
      </trkpt>
      <trkpt lat="42.69825" lon="1.37498">
        <ele>2429</ele>
        <time>2013-08-10T10:14:51.000Z</time>
      </trkpt>
      <trkpt lat="42.69827" lon="1.37497">
        <ele>2428.6000976562</ele>
        <time>2013-08-10T10:14:57.000Z</time>
      </trkpt>
      <trkpt lat="42.69828" lon="1.37495">
        <ele>2428</ele>
        <time>2013-08-10T10:15:01.000Z</time>
      </trkpt>
      <trkpt lat="42.6983" lon="1.37494">
        <ele>2427.6000976562</ele>
        <time>2013-08-10T10:15:06.000Z</time>
      </trkpt>
      <trkpt lat="42.69829" lon="1.3749">
        <ele>2427</ele>
        <time>2013-08-10T10:15:11.000Z</time>
      </trkpt>
      <trkpt lat="42.69831" lon="1.37489">
        <ele>2426</ele>
        <time>2013-08-10T10:15:15.000Z</time>
      </trkpt>
      <trkpt lat="42.69831" lon="1.37485">
        <ele>2426</ele>
        <time>2013-08-10T10:15:19.000Z</time>
      </trkpt>
      <trkpt lat="42.69831" lon="1.37483">
        <ele>2425</ele>
        <time>2013-08-10T10:15:24.000Z</time>
      </trkpt>
      <trkpt lat="42.69833" lon="1.37481">
        <ele>2424.8000488281</ele>
        <time>2013-08-10T10:15:28.000Z</time>
      </trkpt>
      <trkpt lat="42.69834" lon="1.3748">
        <ele>2424</ele>
        <time>2013-08-10T10:15:34.000Z</time>
      </trkpt>
      <trkpt lat="42.69835" lon="1.37476">
        <ele>2423</ele>
        <time>2013-08-10T10:15:39.000Z</time>
      </trkpt>
      <trkpt lat="42.69835" lon="1.37474">
        <ele>2422.8000488281</ele>
        <time>2013-08-10T10:15:43.000Z</time>
      </trkpt>
      <trkpt lat="42.69837" lon="1.3747">
        <ele>2422</ele>
        <time>2013-08-10T10:15:48.000Z</time>
      </trkpt>
      <trkpt lat="42.69836" lon="1.37465">
        <ele>2421</ele>
        <time>2013-08-10T10:15:53.000Z</time>
      </trkpt>
      <trkpt lat="42.69835" lon="1.3746">
        <ele>2420.6000976562</ele>
        <time>2013-08-10T10:15:59.000Z</time>
      </trkpt>
      <trkpt lat="42.69838" lon="1.37458">
        <ele>2419.8000488281</ele>
        <time>2013-08-10T10:16:04.000Z</time>
      </trkpt>
      <trkpt lat="42.69844" lon="1.37457">
        <ele>2418.8000488281</ele>
        <time>2013-08-10T10:16:11.000Z</time>
      </trkpt>
      <trkpt lat="42.69848" lon="1.37456">
        <ele>2418</ele>
        <time>2013-08-10T10:16:16.000Z</time>
      </trkpt>
      <trkpt lat="42.69848" lon="1.37456">
        <ele>2418</ele>
        <time>2013-08-10T10:16:17.000Z</time>
      </trkpt>
      <trkpt lat="42.6985" lon="1.37457">
        <ele>2417.6000976562</ele>
        <time>2013-08-10T10:16:20.000Z</time>
      </trkpt>
      <trkpt lat="42.69855" lon="1.37456">
        <ele>2416.6000976562</ele>
        <time>2013-08-10T10:16:27.000Z</time>
      </trkpt>
      <trkpt lat="42.69859" lon="1.37456">
        <ele>2415.8000488281</ele>
        <time>2013-08-10T10:16:33.000Z</time>
      </trkpt>
      <trkpt lat="42.69864" lon="1.37456">
        <ele>2415</ele>
        <time>2013-08-10T10:16:39.000Z</time>
      </trkpt>
      <trkpt lat="42.69868" lon="1.37458">
        <ele>2414</ele>
        <time>2013-08-10T10:16:44.000Z</time>
      </trkpt>
      <trkpt lat="42.6987" lon="1.37459">
        <ele>2413.8000488281</ele>
        <time>2013-08-10T10:16:49.000Z</time>
      </trkpt>
      <trkpt lat="42.69872" lon="1.3746">
        <ele>2413</ele>
        <time>2013-08-10T10:16:57.000Z</time>
      </trkpt>
      <trkpt lat="42.69874" lon="1.37461">
        <ele>2412</ele>
        <time>2013-08-10T10:17:03.000Z</time>
      </trkpt>
      <trkpt lat="42.69876" lon="1.37461">
        <ele>2411.6000976562</ele>
        <time>2013-08-10T10:17:09.000Z</time>
      </trkpt>
      <trkpt lat="42.69879" lon="1.37459">
        <ele>2411</ele>
        <time>2013-08-10T10:17:14.000Z</time>
      </trkpt>
      <trkpt lat="42.69881" lon="1.37461">
        <ele>2410</ele>
        <time>2013-08-10T10:17:20.000Z</time>
      </trkpt>
      <trkpt lat="42.69883" lon="1.37463">
        <ele>2410</ele>
        <time>2013-08-10T10:17:24.000Z</time>
      </trkpt>
      <trkpt lat="42.6989" lon="1.37463">
        <ele>2409</ele>
        <time>2013-08-10T10:17:31.000Z</time>
      </trkpt>
      <trkpt lat="42.69891" lon="1.37464">
        <ele>2409</ele>
        <time>2013-08-10T10:17:33.000Z</time>
      </trkpt>
      <trkpt lat="42.69894" lon="1.37465">
        <ele>2408.8000488281</ele>
        <time>2013-08-10T10:17:37.000Z</time>
      </trkpt>
      <trkpt lat="42.69895" lon="1.37465">
        <ele>2408.6000976562</ele>
        <time>2013-08-10T10:17:38.000Z</time>
      </trkpt>
      <trkpt lat="42.69896" lon="1.37466">
        <ele>2408</ele>
        <time>2013-08-10T10:17:41.000Z</time>
      </trkpt>
      <trkpt lat="42.69901" lon="1.37464">
        <ele>2407.6000976562</ele>
        <time>2013-08-10T10:17:47.000Z</time>
      </trkpt>
      <trkpt lat="42.69904" lon="1.37463">
        <ele>2407</ele>
        <time>2013-08-10T10:17:52.000Z</time>
      </trkpt>
      <trkpt lat="42.69908" lon="1.37458">
        <ele>2406.6000976562</ele>
        <time>2013-08-10T10:17:57.000Z</time>
      </trkpt>
      <trkpt lat="42.69912" lon="1.37453">
        <ele>2406</ele>
        <time>2013-08-10T10:18:02.000Z</time>
      </trkpt>
      <trkpt lat="42.69919" lon="1.37447">
        <ele>2405</ele>
        <time>2013-08-10T10:18:09.000Z</time>
      </trkpt>
      <trkpt lat="42.69926" lon="1.37443">
        <ele>2404</ele>
        <time>2013-08-10T10:18:16.000Z</time>
      </trkpt>
      <trkpt lat="42.69931" lon="1.37442">
        <ele>2403.6000976562</ele>
        <time>2013-08-10T10:18:20.000Z</time>
      </trkpt>
      <trkpt lat="42.69936" lon="1.37441">
        <ele>2402.8000488281</ele>
        <time>2013-08-10T10:18:25.000Z</time>
      </trkpt>
      <trkpt lat="42.69938" lon="1.3744">
        <ele>2402.6000976562</ele>
        <time>2013-08-10T10:18:27.000Z</time>
      </trkpt>
      <trkpt lat="42.69943" lon="1.37439">
        <ele>2401.8000488281</ele>
        <time>2013-08-10T10:18:32.000Z</time>
      </trkpt>
      <trkpt lat="42.69945" lon="1.3744">
        <ele>2401.6000976562</ele>
        <time>2013-08-10T10:18:34.000Z</time>
      </trkpt>
      <trkpt lat="42.69949" lon="1.3744">
        <ele>2400.8000488281</ele>
        <time>2013-08-10T10:18:39.000Z</time>
      </trkpt>
      <trkpt lat="42.69951" lon="1.3744">
        <ele>2400.6000976562</ele>
        <time>2013-08-10T10:18:41.000Z</time>
      </trkpt>
      <trkpt lat="42.69952" lon="1.37439">
        <ele>2400</ele>
        <time>2013-08-10T10:18:43.000Z</time>
      </trkpt>
      <trkpt lat="42.69954" lon="1.37438">
        <ele>2400</ele>
        <time>2013-08-10T10:18:45.000Z</time>
      </trkpt>
      <trkpt lat="42.6996" lon="1.37436">
        <ele>2398.8000488281</ele>
        <time>2013-08-10T10:18:52.000Z</time>
      </trkpt>
      <trkpt lat="42.69965" lon="1.37438">
        <ele>2398</ele>
        <time>2013-08-10T10:18:57.000Z</time>
      </trkpt>
      <trkpt lat="42.69971" lon="1.3744">
        <ele>2397</ele>
        <time>2013-08-10T10:19:03.000Z</time>
      </trkpt>
      <trkpt lat="42.69974" lon="1.3744">
        <ele>2396.6000976562</ele>
        <time>2013-08-10T10:19:08.000Z</time>
      </trkpt>
      <trkpt lat="42.69976" lon="1.3744">
        <ele>2396</ele>
        <time>2013-08-10T10:19:10.000Z</time>
      </trkpt>
      <trkpt lat="42.6998" lon="1.37441">
        <ele>2395.6000976562</ele>
        <time>2013-08-10T10:19:14.000Z</time>
      </trkpt>
      <trkpt lat="42.69982" lon="1.37442">
        <ele>2395</ele>
        <time>2013-08-10T10:19:18.000Z</time>
      </trkpt>
      <trkpt lat="42.69983" lon="1.37442">
        <ele>2395</ele>
        <time>2013-08-10T10:19:19.000Z</time>
      </trkpt>
      <trkpt lat="42.69986" lon="1.37443">
        <ele>2394</ele>
        <time>2013-08-10T10:19:22.000Z</time>
      </trkpt>
      <trkpt lat="42.69987" lon="1.37443">
        <ele>2394</ele>
        <time>2013-08-10T10:19:23.000Z</time>
      </trkpt>
      <trkpt lat="42.69988" lon="1.37442">
        <ele>2394</ele>
        <time>2013-08-10T10:19:24.000Z</time>
      </trkpt>
      <trkpt lat="42.69991" lon="1.37443">
        <ele>2393.6000976562</ele>
        <time>2013-08-10T10:19:28.000Z</time>
      </trkpt>
      <trkpt lat="42.69993" lon="1.37443">
        <ele>2393.6000976562</ele>
        <time>2013-08-10T10:19:29.000Z</time>
      </trkpt>
      <trkpt lat="42.69993" lon="1.37444">
        <ele>2393</ele>
        <time>2013-08-10T10:19:30.000Z</time>
      </trkpt>
      <trkpt lat="42.69996" lon="1.37443">
        <ele>2393</ele>
        <time>2013-08-10T10:19:34.000Z</time>
      </trkpt>
      <trkpt lat="42.69999" lon="1.37442">
        <ele>2392</ele>
        <time>2013-08-10T10:19:39.000Z</time>
      </trkpt>
      <trkpt lat="42.70001" lon="1.37441">
        <ele>2392</ele>
        <time>2013-08-10T10:19:42.000Z</time>
      </trkpt>
      <trkpt lat="42.70005" lon="1.37442">
        <ele>2391</ele>
        <time>2013-08-10T10:19:47.000Z</time>
      </trkpt>
      <trkpt lat="42.7001" lon="1.37443">
        <ele>2390.6000976562</ele>
        <time>2013-08-10T10:19:53.000Z</time>
      </trkpt>
      <trkpt lat="42.70011" lon="1.37443">
        <ele>2390.6000976562</ele>
        <time>2013-08-10T10:19:54.000Z</time>
      </trkpt>
      <trkpt lat="42.70012" lon="1.37442">
        <ele>2390</ele>
        <time>2013-08-10T10:19:56.000Z</time>
      </trkpt>
      <trkpt lat="42.70016" lon="1.37442">
        <ele>2390</ele>
        <time>2013-08-10T10:19:59.000Z</time>
      </trkpt>
      <trkpt lat="42.70019" lon="1.37444">
        <ele>2389</ele>
        <time>2013-08-10T10:20:05.000Z</time>
      </trkpt>
      <trkpt lat="42.70021" lon="1.37445">
        <ele>2389</ele>
        <time>2013-08-10T10:20:06.000Z</time>
      </trkpt>
      <trkpt lat="42.70024" lon="1.37445">
        <ele>2388.8000488281</ele>
        <time>2013-08-10T10:20:09.000Z</time>
      </trkpt>
      <trkpt lat="42.70027" lon="1.37447">
        <ele>2388</ele>
        <time>2013-08-10T10:20:15.000Z</time>
      </trkpt>
      <trkpt lat="42.70031" lon="1.37445">
        <ele>2387.6000976562</ele>
        <time>2013-08-10T10:20:20.000Z</time>
      </trkpt>
      <trkpt lat="42.70034" lon="1.37445">
        <ele>2387</ele>
        <time>2013-08-10T10:20:23.000Z</time>
      </trkpt>
      <trkpt lat="42.70034" lon="1.37445">
        <ele>2387</ele>
        <time>2013-08-10T10:20:25.000Z</time>
      </trkpt>
      <trkpt lat="42.70032" lon="1.37443">
        <ele>2386</ele>
        <time>2013-08-10T10:20:35.000Z</time>
      </trkpt>
      <trkpt lat="42.70034" lon="1.37439">
        <ele>2385</ele>
        <time>2013-08-10T10:20:40.000Z</time>
      </trkpt>
      <trkpt lat="42.70036" lon="1.3744">
        <ele>2385</ele>
        <time>2013-08-10T10:20:44.000Z</time>
      </trkpt>
      <trkpt lat="42.70036" lon="1.37441">
        <ele>2384</ele>
        <time>2013-08-10T10:20:51.000Z</time>
      </trkpt>
      <trkpt lat="42.70036" lon="1.37441">
        <ele>2383.6000976562</ele>
        <time>2013-08-10T10:20:58.000Z</time>
      </trkpt>
      <trkpt lat="42.70039" lon="1.37441">
        <ele>2383</ele>
        <time>2013-08-10T10:21:02.000Z</time>
      </trkpt>
      <trkpt lat="42.70041" lon="1.37443">
        <ele>2382.8000488281</ele>
        <time>2013-08-10T10:21:05.000Z</time>
      </trkpt>
      <trkpt lat="42.70041" lon="1.37443">
        <ele>2382.6000976562</ele>
        <time>2013-08-10T10:21:07.000Z</time>
      </trkpt>
      <trkpt lat="42.70042" lon="1.3744">
        <ele>2382</ele>
        <time>2013-08-10T10:21:11.000Z</time>
      </trkpt>
      <trkpt lat="42.70044" lon="1.37438">
        <ele>2381.8000488281</ele>
        <time>2013-08-10T10:21:15.000Z</time>
      </trkpt>
      <trkpt lat="42.70044" lon="1.37434">
        <ele>2381</ele>
        <time>2013-08-10T10:21:20.000Z</time>
      </trkpt>
      <trkpt lat="42.70045" lon="1.3743">
        <ele>2380.6000976562</ele>
        <time>2013-08-10T10:21:24.000Z</time>
      </trkpt>
      <trkpt lat="42.70047" lon="1.37429">
        <ele>2380</ele>
        <time>2013-08-10T10:21:29.000Z</time>
      </trkpt>
      <trkpt lat="42.70049" lon="1.37422">
        <ele>2379</ele>
        <time>2013-08-10T10:21:35.000Z</time>
      </trkpt>
      <trkpt lat="42.70051" lon="1.37422">
        <ele>2378.6000976562</ele>
        <time>2013-08-10T10:21:40.000Z</time>
      </trkpt>
      <trkpt lat="42.70054" lon="1.37422">
        <ele>2378</ele>
        <time>2013-08-10T10:21:45.000Z</time>
      </trkpt>
      <trkpt lat="42.70055" lon="1.37422">
        <ele>2376.8000488281</ele>
        <time>2013-08-10T10:21:54.000Z</time>
      </trkpt>
      <trkpt lat="42.70056" lon="1.37422">
        <ele>2375.8000488281</ele>
        <time>2013-08-10T10:22:02.000Z</time>
      </trkpt>
      <trkpt lat="42.70057" lon="1.37422">
        <ele>2375</ele>
        <time>2013-08-10T10:22:07.000Z</time>
      </trkpt>
      <trkpt lat="42.70061" lon="1.37424">
        <ele>2374</ele>
        <time>2013-08-10T10:22:16.000Z</time>
      </trkpt>
      <trkpt lat="42.70063" lon="1.37425">
        <ele>2373</ele>
        <time>2013-08-10T10:22:21.000Z</time>
      </trkpt>
      <trkpt lat="42.70065" lon="1.37425">
        <ele>2372.8000488281</ele>
        <time>2013-08-10T10:22:25.000Z</time>
      </trkpt>
      <trkpt lat="42.70067" lon="1.37422">
        <ele>2372</ele>
        <time>2013-08-10T10:22:30.000Z</time>
      </trkpt>
      <trkpt lat="42.7007" lon="1.3742">
        <ele>2371</ele>
        <time>2013-08-10T10:22:37.000Z</time>
      </trkpt>
      <trkpt lat="42.70071" lon="1.37418">
        <ele>2370</ele>
        <time>2013-08-10T10:22:44.000Z</time>
      </trkpt>
      <trkpt lat="42.70072" lon="1.37416">
        <ele>2369</ele>
        <time>2013-08-10T10:22:50.000Z</time>
      </trkpt>
      <trkpt lat="42.70072" lon="1.37412">
        <ele>2369</ele>
        <time>2013-08-10T10:22:54.000Z</time>
      </trkpt>
      <trkpt lat="42.70074" lon="1.3741">
        <ele>2368</ele>
        <time>2013-08-10T10:23:00.000Z</time>
      </trkpt>
      <trkpt lat="42.70079" lon="1.37405">
        <ele>2367</ele>
        <time>2013-08-10T10:23:07.000Z</time>
      </trkpt>
      <trkpt lat="42.70079" lon="1.37402">
        <ele>2366.6000976562</ele>
        <time>2013-08-10T10:23:11.000Z</time>
      </trkpt>
      <trkpt lat="42.7008" lon="1.37398">
        <ele>2366</ele>
        <time>2013-08-10T10:23:16.000Z</time>
      </trkpt>
      <trkpt lat="42.70083" lon="1.37394">
        <ele>2365</ele>
        <time>2013-08-10T10:23:22.000Z</time>
      </trkpt>
      <trkpt lat="42.70085" lon="1.3739">
        <ele>2364</ele>
        <time>2013-08-10T10:23:28.000Z</time>
      </trkpt>
      <trkpt lat="42.70089" lon="1.37387">
        <ele>2363.8000488281</ele>
        <time>2013-08-10T10:23:33.000Z</time>
      </trkpt>
      <trkpt lat="42.70091" lon="1.37379">
        <ele>2362.8000488281</ele>
        <time>2013-08-10T10:23:40.000Z</time>
      </trkpt>
      <trkpt lat="42.70094" lon="1.37373">
        <ele>2362</ele>
        <time>2013-08-10T10:23:46.000Z</time>
      </trkpt>
      <trkpt lat="42.70095" lon="1.37368">
        <ele>2361.6000976562</ele>
        <time>2013-08-10T10:23:49.000Z</time>
      </trkpt>
      <trkpt lat="42.70096" lon="1.37365">
        <ele>2361</ele>
        <time>2013-08-10T10:23:51.000Z</time>
      </trkpt>
      <trkpt lat="42.70099" lon="1.3736">
        <ele>2360.6000976562</ele>
        <time>2013-08-10T10:23:56.000Z</time>
      </trkpt>
      <trkpt lat="42.70103" lon="1.37357">
        <ele>2360</ele>
        <time>2013-08-10T10:24:00.000Z</time>
      </trkpt>
      <trkpt lat="42.70105" lon="1.37356">
        <ele>2359.6000976562</ele>
        <time>2013-08-10T10:24:02.000Z</time>
      </trkpt>
      <trkpt lat="42.70107" lon="1.37354">
        <ele>2359</ele>
        <time>2013-08-10T10:24:05.000Z</time>
      </trkpt>
      <trkpt lat="42.70107" lon="1.37354">
        <ele>2358.8000488281</ele>
        <time>2013-08-10T10:24:06.000Z</time>
      </trkpt>
      <trkpt lat="42.70112" lon="1.37348">
        <ele>2357.8000488281</ele>
        <time>2013-08-10T10:24:12.000Z</time>
      </trkpt>
      <trkpt lat="42.70113" lon="1.37343">
        <ele>2357</ele>
        <time>2013-08-10T10:24:15.000Z</time>
      </trkpt>
      <trkpt lat="42.70114" lon="1.37339">
        <ele>2356.8000488281</ele>
        <time>2013-08-10T10:24:17.000Z</time>
      </trkpt>
      <trkpt lat="42.70117" lon="1.37336">
        <ele>2356</ele>
        <time>2013-08-10T10:24:20.000Z</time>
      </trkpt>
      <trkpt lat="42.70119" lon="1.37336">
        <ele>2355.8000488281</ele>
        <time>2013-08-10T10:24:22.000Z</time>
      </trkpt>
      <trkpt lat="42.70126" lon="1.37337">
        <ele>2355</ele>
        <time>2013-08-10T10:24:26.000Z</time>
      </trkpt>
      <trkpt lat="42.70128" lon="1.37337">
        <ele>2354.8000488281</ele>
        <time>2013-08-10T10:24:27.000Z</time>
      </trkpt>
      <trkpt lat="42.70134" lon="1.37337">
        <ele>2353.8000488281</ele>
        <time>2013-08-10T10:24:32.000Z</time>
      </trkpt>
      <trkpt lat="42.70141" lon="1.37336">
        <ele>2352</ele>
        <time>2013-08-10T10:24:39.000Z</time>
      </trkpt>
      <trkpt lat="42.70145" lon="1.37335">
        <ele>2351.6000976562</ele>
        <time>2013-08-10T10:24:42.000Z</time>
      </trkpt>
      <trkpt lat="42.70147" lon="1.37334">
        <ele>2351</ele>
        <time>2013-08-10T10:24:44.000Z</time>
      </trkpt>
      <trkpt lat="42.70154" lon="1.37333">
        <ele>2349.6000976562</ele>
        <time>2013-08-10T10:24:50.000Z</time>
      </trkpt>
      <trkpt lat="42.70155" lon="1.37332">
        <ele>2349</ele>
        <time>2013-08-10T10:24:51.000Z</time>
      </trkpt>
      <trkpt lat="42.7016" lon="1.3733">
        <ele>2348</ele>
        <time>2013-08-10T10:24:55.000Z</time>
      </trkpt>
      <trkpt lat="42.7016" lon="1.37329">
        <ele>2347.8000488281</ele>
        <time>2013-08-10T10:24:57.000Z</time>
      </trkpt>
      <trkpt lat="42.70163" lon="1.37326">
        <ele>2347</ele>
        <time>2013-08-10T10:25:00.000Z</time>
      </trkpt>
      <trkpt lat="42.70169" lon="1.37321">
        <ele>2345.6000976562</ele>
        <time>2013-08-10T10:25:06.000Z</time>
      </trkpt>
      <trkpt lat="42.70173" lon="1.37323">
        <ele>2344</ele>
        <time>2013-08-10T10:25:11.000Z</time>
      </trkpt>
      <trkpt lat="42.70178" lon="1.37322">
        <ele>2343</ele>
        <time>2013-08-10T10:25:16.000Z</time>
      </trkpt>
      <trkpt lat="42.70184" lon="1.37321">
        <ele>2341.8000488281</ele>
        <time>2013-08-10T10:25:22.000Z</time>
      </trkpt>
      <trkpt lat="42.70189" lon="1.3732">
        <ele>2340.8000488281</ele>
        <time>2013-08-10T10:25:26.000Z</time>
      </trkpt>
      <trkpt lat="42.70191" lon="1.3732">
        <ele>2340</ele>
        <time>2013-08-10T10:25:28.000Z</time>
      </trkpt>
      <trkpt lat="42.702" lon="1.37322">
        <ele>2338.8000488281</ele>
        <time>2013-08-10T10:25:35.000Z</time>
      </trkpt>
      <trkpt lat="42.70201" lon="1.37321">
        <ele>2338</ele>
        <time>2013-08-10T10:25:37.000Z</time>
      </trkpt>
      <trkpt lat="42.70203" lon="1.37316">
        <ele>2337.8000488281</ele>
        <time>2013-08-10T10:25:40.000Z</time>
      </trkpt>
      <trkpt lat="42.70204" lon="1.37315">
        <ele>2337.6000976562</ele>
        <time>2013-08-10T10:25:41.000Z</time>
      </trkpt>
      <trkpt lat="42.70206" lon="1.37313">
        <ele>2337</ele>
        <time>2013-08-10T10:25:43.000Z</time>
      </trkpt>
      <trkpt lat="42.70205" lon="1.37313">
        <ele>2336.6000976562</ele>
        <time>2013-08-10T10:25:45.000Z</time>
      </trkpt>
      <trkpt lat="42.70206" lon="1.37313">
        <ele>2330.8000488281</ele>
        <time>2013-08-10T10:26:16.000Z</time>
      </trkpt>
      <trkpt lat="42.70208" lon="1.37311">
        <ele>2330</ele>
        <time>2013-08-10T10:26:18.000Z</time>
      </trkpt>
      <trkpt lat="42.70211" lon="1.37308">
        <ele>2330</ele>
        <time>2013-08-10T10:26:20.000Z</time>
      </trkpt>
      <trkpt lat="42.7022" lon="1.37302">
        <ele>2329</ele>
        <time>2013-08-10T10:26:26.000Z</time>
      </trkpt>
      <trkpt lat="42.70224" lon="1.37298">
        <ele>2328</ele>
        <time>2013-08-10T10:26:32.000Z</time>
      </trkpt>
      <trkpt lat="42.70226" lon="1.37296">
        <ele>2327</ele>
        <time>2013-08-10T10:26:36.000Z</time>
      </trkpt>
      <trkpt lat="42.70225" lon="1.37294">
        <ele>2327</ele>
        <time>2013-08-10T10:26:38.000Z</time>
      </trkpt>
      <trkpt lat="42.70223" lon="1.37288">
        <ele>2326.6000976562</ele>
        <time>2013-08-10T10:26:43.000Z</time>
      </trkpt>
      <trkpt lat="42.7022" lon="1.37284">
        <ele>2326</ele>
        <time>2013-08-10T10:26:48.000Z</time>
      </trkpt>
      <trkpt lat="42.70216" lon="1.37277">
        <ele>2325</ele>
        <time>2013-08-10T10:26:53.000Z</time>
      </trkpt>
      <trkpt lat="42.70215" lon="1.37274">
        <ele>2325</ele>
        <time>2013-08-10T10:26:56.000Z</time>
      </trkpt>
      <trkpt lat="42.70214" lon="1.37271">
        <ele>2324.8000488281</ele>
        <time>2013-08-10T10:26:58.000Z</time>
      </trkpt>
      <trkpt lat="42.7021" lon="1.37263">
        <ele>2324</ele>
        <time>2013-08-10T10:27:04.000Z</time>
      </trkpt>
      <trkpt lat="42.7021" lon="1.37261">
        <ele>2324</ele>
        <time>2013-08-10T10:27:06.000Z</time>
      </trkpt>
      <trkpt lat="42.70209" lon="1.37259">
        <ele>2324</ele>
        <time>2013-08-10T10:27:08.000Z</time>
      </trkpt>
      <trkpt lat="42.70209" lon="1.37259">
        <ele>2323.8000488281</ele>
        <time>2013-08-10T10:27:09.000Z</time>
      </trkpt>
      <trkpt lat="42.70209" lon="1.37258">
        <ele>2323.8000488281</ele>
        <time>2013-08-10T10:27:10.000Z</time>
      </trkpt>
      <trkpt lat="42.70209" lon="1.37255">
        <ele>2323</ele>
        <time>2013-08-10T10:27:14.000Z</time>
      </trkpt>
      <trkpt lat="42.70208" lon="1.37255">
        <ele>2323</ele>
        <time>2013-08-10T10:27:19.000Z</time>
      </trkpt>
      <trkpt lat="42.70208" lon="1.37246">
        <ele>2322</ele>
        <time>2013-08-10T10:27:26.000Z</time>
      </trkpt>
      <trkpt lat="42.70209" lon="1.37237">
        <ele>2322</ele>
        <time>2013-08-10T10:27:31.000Z</time>
      </trkpt>
      <trkpt lat="42.70209" lon="1.37236">
        <ele>2321.6000976562</ele>
        <time>2013-08-10T10:27:37.000Z</time>
      </trkpt>
      <trkpt lat="42.70208" lon="1.37228">
        <ele>2321</ele>
        <time>2013-08-10T10:27:42.000Z</time>
      </trkpt>
      <trkpt lat="42.7021" lon="1.37219">
        <ele>2320.8000488281</ele>
        <time>2013-08-10T10:27:48.000Z</time>
      </trkpt>
      <trkpt lat="42.70215" lon="1.37213">
        <ele>2320</ele>
        <time>2013-08-10T10:27:54.000Z</time>
      </trkpt>
      <trkpt lat="42.70218" lon="1.3721">
        <ele>2320</ele>
        <time>2013-08-10T10:27:58.000Z</time>
      </trkpt>
      <trkpt lat="42.7022" lon="1.37209">
        <ele>2319.8000488281</ele>
        <time>2013-08-10T10:28:00.000Z</time>
      </trkpt>
      <trkpt lat="42.70223" lon="1.37207">
        <ele>2319</ele>
        <time>2013-08-10T10:28:05.000Z</time>
      </trkpt>
      <trkpt lat="42.70225" lon="1.37207">
        <ele>2319</ele>
        <time>2013-08-10T10:28:08.000Z</time>
      </trkpt>
      <trkpt lat="42.70228" lon="1.37207">
        <ele>2318.6000976562</ele>
        <time>2013-08-10T10:28:12.000Z</time>
      </trkpt>
      <trkpt lat="42.70229" lon="1.37207">
        <ele>2318.6000976562</ele>
        <time>2013-08-10T10:28:13.000Z</time>
      </trkpt>
      <trkpt lat="42.70233" lon="1.37207">
        <ele>2318</ele>
        <time>2013-08-10T10:28:17.000Z</time>
      </trkpt>
      <trkpt lat="42.70237" lon="1.37209">
        <ele>2317.8000488281</ele>
        <time>2013-08-10T10:28:21.000Z</time>
      </trkpt>
      <trkpt lat="42.70242" lon="1.3721">
        <ele>2317</ele>
        <time>2013-08-10T10:28:27.000Z</time>
      </trkpt>
      <trkpt lat="42.70243" lon="1.3721">
        <ele>2316.8000488281</ele>
        <time>2013-08-10T10:28:29.000Z</time>
      </trkpt>
      <trkpt lat="42.70245" lon="1.37208">
        <ele>2316</ele>
        <time>2013-08-10T10:28:32.000Z</time>
      </trkpt>
      <trkpt lat="42.70248" lon="1.37202">
        <ele>2315.8000488281</ele>
        <time>2013-08-10T10:28:38.000Z</time>
      </trkpt>
      <trkpt lat="42.7025" lon="1.37199">
        <ele>2315</ele>
        <time>2013-08-10T10:28:42.000Z</time>
      </trkpt>
      <trkpt lat="42.7025" lon="1.37199">
        <ele>2315</ele>
        <time>2013-08-10T10:28:43.000Z</time>
      </trkpt>
      <trkpt lat="42.70252" lon="1.37192">
        <ele>2314</ele>
        <time>2013-08-10T10:28:49.000Z</time>
      </trkpt>
      <trkpt lat="42.70251" lon="1.37188">
        <ele>2313.6000976562</ele>
        <time>2013-08-10T10:28:53.000Z</time>
      </trkpt>
      <trkpt lat="42.70252" lon="1.37186">
        <ele>2313</ele>
        <time>2013-08-10T10:28:54.000Z</time>
      </trkpt>
      <trkpt lat="42.70254" lon="1.37187">
        <ele>2313</ele>
        <time>2013-08-10T10:28:57.000Z</time>
      </trkpt>
      <trkpt lat="42.70253" lon="1.37186">
        <ele>2312.8000488281</ele>
        <time>2013-08-10T10:28:58.000Z</time>
      </trkpt>
      <trkpt lat="42.70256" lon="1.37182">
        <ele>2311.6000976562</ele>
        <time>2013-08-10T10:29:06.000Z</time>
      </trkpt>
      <trkpt lat="42.70258" lon="1.3718">
        <ele>2310.8000488281</ele>
        <time>2013-08-10T10:29:11.000Z</time>
      </trkpt>
      <trkpt lat="42.70259" lon="1.37174">
        <ele>2309.6000976562</ele>
        <time>2013-08-10T10:29:18.000Z</time>
      </trkpt>
      <trkpt lat="42.70264" lon="1.37174">
        <ele>2308.6000976562</ele>
        <time>2013-08-10T10:29:23.000Z</time>
      </trkpt>
      <trkpt lat="42.70267" lon="1.37177">
        <ele>2307.8000488281</ele>
        <time>2013-08-10T10:29:27.000Z</time>
      </trkpt>
      <trkpt lat="42.70268" lon="1.37177">
        <ele>2307.6000976562</ele>
        <time>2013-08-10T10:29:28.000Z</time>
      </trkpt>
      <trkpt lat="42.7027" lon="1.37177">
        <ele>2306.6000976562</ele>
        <time>2013-08-10T10:29:32.000Z</time>
      </trkpt>
      <trkpt lat="42.70273" lon="1.37175">
        <ele>2305.6000976562</ele>
        <time>2013-08-10T10:29:37.000Z</time>
      </trkpt>
      <trkpt lat="42.70277" lon="1.37179">
        <ele>2304</ele>
        <time>2013-08-10T10:29:42.000Z</time>
      </trkpt>
      <trkpt lat="42.70278" lon="1.3718">
        <ele>2304</ele>
        <time>2013-08-10T10:29:44.000Z</time>
      </trkpt>
      <trkpt lat="42.70281" lon="1.37182">
        <ele>2303</ele>
        <time>2013-08-10T10:29:47.000Z</time>
      </trkpt>
      <trkpt lat="42.70287" lon="1.37185">
        <ele>2302</ele>
        <time>2013-08-10T10:29:53.000Z</time>
      </trkpt>
      <trkpt lat="42.7029" lon="1.37184">
        <ele>2300.8000488281</ele>
        <time>2013-08-10T10:29:58.000Z</time>
      </trkpt>
      <trkpt lat="42.70291" lon="1.37179">
        <ele>2299</ele>
        <time>2013-08-10T10:30:04.000Z</time>
      </trkpt>
      <trkpt lat="42.70291" lon="1.37172">
        <ele>2297.8000488281</ele>
        <time>2013-08-10T10:30:10.000Z</time>
      </trkpt>
      <trkpt lat="42.7029" lon="1.37165">
        <ele>2296</ele>
        <time>2013-08-10T10:30:16.000Z</time>
      </trkpt>
      <trkpt lat="42.70291" lon="1.37164">
        <ele>2295.6000976562</ele>
        <time>2013-08-10T10:30:18.000Z</time>
      </trkpt>
      <trkpt lat="42.70293" lon="1.37163">
        <ele>2295</ele>
        <time>2013-08-10T10:30:20.000Z</time>
      </trkpt>
      <trkpt lat="42.70295" lon="1.37164">
        <ele>2294</ele>
        <time>2013-08-10T10:30:23.000Z</time>
      </trkpt>
      <trkpt lat="42.70298" lon="1.37165">
        <ele>2293.8000488281</ele>
        <time>2013-08-10T10:30:25.000Z</time>
      </trkpt>
      <trkpt lat="42.70299" lon="1.37165">
        <ele>2293.6000976562</ele>
        <time>2013-08-10T10:30:26.000Z</time>
      </trkpt>
      <trkpt lat="42.70298" lon="1.37161">
        <ele>2292.6000976562</ele>
        <time>2013-08-10T10:30:30.000Z</time>
      </trkpt>
      <trkpt lat="42.70298" lon="1.37159">
        <ele>2292</ele>
        <time>2013-08-10T10:30:31.000Z</time>
      </trkpt>
      <trkpt lat="42.703" lon="1.37159">
        <ele>2291</ele>
        <time>2013-08-10T10:30:34.000Z</time>
      </trkpt>
      <trkpt lat="42.70303" lon="1.37163">
        <ele>2290</ele>
        <time>2013-08-10T10:30:39.000Z</time>
      </trkpt>
      <trkpt lat="42.70304" lon="1.37162">
        <ele>2289</ele>
        <time>2013-08-10T10:30:41.000Z</time>
      </trkpt>
      <trkpt lat="42.70305" lon="1.37159">
        <ele>2288</ele>
        <time>2013-08-10T10:30:46.000Z</time>
      </trkpt>
      <trkpt lat="42.70309" lon="1.37161">
        <ele>2286.6000976562</ele>
        <time>2013-08-10T10:30:51.000Z</time>
      </trkpt>
      <trkpt lat="42.70311" lon="1.37161">
        <ele>2285</ele>
        <time>2013-08-10T10:30:56.000Z</time>
      </trkpt>
      <trkpt lat="42.7031" lon="1.37155">
        <ele>2284</ele>
        <time>2013-08-10T10:31:00.000Z</time>
      </trkpt>
      <trkpt lat="42.70311" lon="1.37152">
        <ele>2283</ele>
        <time>2013-08-10T10:31:03.000Z</time>
      </trkpt>
      <trkpt lat="42.70311" lon="1.37151">
        <ele>2282.6000976562</ele>
        <time>2013-08-10T10:31:05.000Z</time>
      </trkpt>
      <trkpt lat="42.70311" lon="1.37148">
        <ele>2281.8000488281</ele>
        <time>2013-08-10T10:31:08.000Z</time>
      </trkpt>
      <trkpt lat="42.7031" lon="1.37146">
        <ele>2281</ele>
        <time>2013-08-10T10:31:10.000Z</time>
      </trkpt>
      <trkpt lat="42.70313" lon="1.37144">
        <ele>2279.6000976562</ele>
        <time>2013-08-10T10:31:15.000Z</time>
      </trkpt>
      <trkpt lat="42.70315" lon="1.37141">
        <ele>2277.8000488281</ele>
        <time>2013-08-10T10:31:21.000Z</time>
      </trkpt>
      <trkpt lat="42.70318" lon="1.37138">
        <ele>2276</ele>
        <time>2013-08-10T10:31:27.000Z</time>
      </trkpt>
      <trkpt lat="42.70317" lon="1.37134">
        <ele>2274</ele>
        <time>2013-08-10T10:31:33.000Z</time>
      </trkpt>
      <trkpt lat="42.70321" lon="1.37132">
        <ele>2273</ele>
        <time>2013-08-10T10:31:37.000Z</time>
      </trkpt>
      <trkpt lat="42.70323" lon="1.37127">
        <ele>2271</ele>
        <time>2013-08-10T10:31:43.000Z</time>
      </trkpt>
      <trkpt lat="42.70324" lon="1.37121">
        <ele>2269.8000488281</ele>
        <time>2013-08-10T10:31:48.000Z</time>
      </trkpt>
      <trkpt lat="42.70325" lon="1.3712">
        <ele>2269.6000976562</ele>
        <time>2013-08-10T10:31:49.000Z</time>
      </trkpt>
      <trkpt lat="42.70326" lon="1.37117">
        <ele>2268</ele>
        <time>2013-08-10T10:31:53.000Z</time>
      </trkpt>
      <trkpt lat="42.70327" lon="1.37116">
        <ele>2268</ele>
        <time>2013-08-10T10:31:54.000Z</time>
      </trkpt>
      <trkpt lat="42.7033" lon="1.3711">
        <ele>2266.6000976562</ele>
        <time>2013-08-10T10:31:59.000Z</time>
      </trkpt>
      <trkpt lat="42.70331" lon="1.37107">
        <ele>2265</ele>
        <time>2013-08-10T10:32:03.000Z</time>
      </trkpt>
      <trkpt lat="42.70331" lon="1.37103">
        <ele>2264</ele>
        <time>2013-08-10T10:32:06.000Z</time>
      </trkpt>
      <trkpt lat="42.70333" lon="1.37102">
        <ele>2263.8000488281</ele>
        <time>2013-08-10T10:32:08.000Z</time>
      </trkpt>
      <trkpt lat="42.70334" lon="1.37099">
        <ele>2263</ele>
        <time>2013-08-10T10:32:10.000Z</time>
      </trkpt>
      <trkpt lat="42.70335" lon="1.3709">
        <ele>2261</ele>
        <time>2013-08-10T10:32:16.000Z</time>
      </trkpt>
      <trkpt lat="42.70336" lon="1.37089">
        <ele>2261</ele>
        <time>2013-08-10T10:32:17.000Z</time>
      </trkpt>
      <trkpt lat="42.70337" lon="1.37084">
        <ele>2259.8000488281</ele>
        <time>2013-08-10T10:32:21.000Z</time>
      </trkpt>
      <trkpt lat="42.70339" lon="1.37082">
        <ele>2259</ele>
        <time>2013-08-10T10:32:23.000Z</time>
      </trkpt>
      <trkpt lat="42.70342" lon="1.37078">
        <ele>2257.8000488281</ele>
        <time>2013-08-10T10:32:27.000Z</time>
      </trkpt>
      <trkpt lat="42.70342" lon="1.37077">
        <ele>2257.6000976562</ele>
        <time>2013-08-10T10:32:28.000Z</time>
      </trkpt>
      <trkpt lat="42.70345" lon="1.37071">
        <ele>2256</ele>
        <time>2013-08-10T10:32:33.000Z</time>
      </trkpt>
      <trkpt lat="42.7035" lon="1.37065">
        <ele>2253.6000976562</ele>
        <time>2013-08-10T10:32:40.000Z</time>
      </trkpt>
      <trkpt lat="42.70354" lon="1.3706">
        <ele>2251</ele>
        <time>2013-08-10T10:32:47.000Z</time>
      </trkpt>
      <trkpt lat="42.70358" lon="1.37059">
        <ele>2249.6000976562</ele>
        <time>2013-08-10T10:32:52.000Z</time>
      </trkpt>
      <trkpt lat="42.7036" lon="1.37054">
        <ele>2248</ele>
        <time>2013-08-10T10:32:56.000Z</time>
      </trkpt>
      <trkpt lat="42.7036" lon="1.37049">
        <ele>2247</ele>
        <time>2013-08-10T10:32:59.000Z</time>
      </trkpt>
      <trkpt lat="42.70361" lon="1.37046">
        <ele>2246</ele>
        <time>2013-08-10T10:33:02.000Z</time>
      </trkpt>
      <trkpt lat="42.70361" lon="1.37046">
        <ele>2246</ele>
        <time>2013-08-10T10:33:03.000Z</time>
      </trkpt>
      <trkpt lat="42.70364" lon="1.37048">
        <ele>2245</ele>
        <time>2013-08-10T10:33:06.000Z</time>
      </trkpt>
      <trkpt lat="42.70364" lon="1.37044">
        <ele>2243</ele>
        <time>2013-08-10T10:33:11.000Z</time>
      </trkpt>
      <trkpt lat="42.70365" lon="1.37035">
        <ele>2240.8000488281</ele>
        <time>2013-08-10T10:33:18.000Z</time>
      </trkpt>
      <trkpt lat="42.70367" lon="1.37026">
        <ele>2238.6000976562</ele>
        <time>2013-08-10T10:33:25.000Z</time>
      </trkpt>
      <trkpt lat="42.70366" lon="1.37025">
        <ele>2238</ele>
        <time>2013-08-10T10:33:26.000Z</time>
      </trkpt>
      <trkpt lat="42.70366" lon="1.37023">
        <ele>2237</ele>
        <time>2013-08-10T10:33:29.000Z</time>
      </trkpt>
      <trkpt lat="42.70371" lon="1.37021">
        <ele>2235</ele>
        <time>2013-08-10T10:33:35.000Z</time>
      </trkpt>
      <trkpt lat="42.70371" lon="1.37022">
        <ele>2233.8000488281</ele>
        <time>2013-08-10T10:33:39.000Z</time>
      </trkpt>
      <trkpt lat="42.70373" lon="1.37019">
        <ele>2232.6000976562</ele>
        <time>2013-08-10T10:33:43.000Z</time>
      </trkpt>
      <trkpt lat="42.70374" lon="1.37015">
        <ele>2231</ele>
        <time>2013-08-10T10:33:48.000Z</time>
      </trkpt>
      <trkpt lat="42.70376" lon="1.37012">
        <ele>2229</ele>
        <time>2013-08-10T10:33:53.000Z</time>
      </trkpt>
      <trkpt lat="42.70377" lon="1.3701">
        <ele>2227.6000976562</ele>
        <time>2013-08-10T10:33:58.000Z</time>
      </trkpt>
      <trkpt lat="42.70376" lon="1.37006">
        <ele>2225.8000488281</ele>
        <time>2013-08-10T10:34:04.000Z</time>
      </trkpt>
      <trkpt lat="42.70377" lon="1.37006">
        <ele>2224</ele>
        <time>2013-08-10T10:34:08.000Z</time>
      </trkpt>
      <trkpt lat="42.70378" lon="1.37">
        <ele>2223</ele>
        <time>2013-08-10T10:34:13.000Z</time>
      </trkpt>
      <trkpt lat="42.70383" lon="1.37">
        <ele>2221</ele>
        <time>2013-08-10T10:34:18.000Z</time>
      </trkpt>
      <trkpt lat="42.70385" lon="1.36997">
        <ele>2220</ele>
        <time>2013-08-10T10:34:22.000Z</time>
      </trkpt>
      <trkpt lat="42.70386" lon="1.36996">
        <ele>2219</ele>
        <time>2013-08-10T10:34:24.000Z</time>
      </trkpt>
      <trkpt lat="42.70386" lon="1.36992">
        <ele>2217.6000976562</ele>
        <time>2013-08-10T10:34:29.000Z</time>
      </trkpt>
      <trkpt lat="42.70385" lon="1.36989">
        <ele>2217</ele>
        <time>2013-08-10T10:34:31.000Z</time>
      </trkpt>
      <trkpt lat="42.70385" lon="1.36986">
        <ele>2216</ele>
        <time>2013-08-10T10:34:34.000Z</time>
      </trkpt>
      <trkpt lat="42.70382" lon="1.36979">
        <ele>2214.6000976562</ele>
        <time>2013-08-10T10:34:38.000Z</time>
      </trkpt>
      <trkpt lat="42.70382" lon="1.36978">
        <ele>2214</ele>
        <time>2013-08-10T10:34:39.000Z</time>
      </trkpt>
      <trkpt lat="42.70381" lon="1.36977">
        <ele>2213.6000976562</ele>
        <time>2013-08-10T10:34:41.000Z</time>
      </trkpt>
      <trkpt lat="42.7038" lon="1.36975">
        <ele>2212</ele>
        <time>2013-08-10T10:34:45.000Z</time>
      </trkpt>
      <trkpt lat="42.70381" lon="1.36972">
        <ele>2210</ele>
        <time>2013-08-10T10:34:51.000Z</time>
      </trkpt>
      <trkpt lat="42.7038" lon="1.36969">
        <ele>2208</ele>
        <time>2013-08-10T10:34:57.000Z</time>
      </trkpt>
      <trkpt lat="42.7038" lon="1.36965">
        <ele>2207</ele>
        <time>2013-08-10T10:35:01.000Z</time>
      </trkpt>
      <trkpt lat="42.70382" lon="1.36962">
        <ele>2206</ele>
        <time>2013-08-10T10:35:04.000Z</time>
      </trkpt>
      <trkpt lat="42.70382" lon="1.36961">
        <ele>2205</ele>
        <time>2013-08-10T10:35:06.000Z</time>
      </trkpt>
      <trkpt lat="42.70379" lon="1.36958">
        <ele>2203.8000488281</ele>
        <time>2013-08-10T10:35:11.000Z</time>
      </trkpt>
      <trkpt lat="42.70379" lon="1.36955">
        <ele>2202</ele>
        <time>2013-08-10T10:35:16.000Z</time>
      </trkpt>
      <trkpt lat="42.7038" lon="1.36952">
        <ele>2201</ele>
        <time>2013-08-10T10:35:20.000Z</time>
      </trkpt>
      <trkpt lat="42.70383" lon="1.36949">
        <ele>2199</ele>
        <time>2013-08-10T10:35:26.000Z</time>
      </trkpt>
      <trkpt lat="42.70383" lon="1.36946">
        <ele>2197.8000488281</ele>
        <time>2013-08-10T10:35:30.000Z</time>
      </trkpt>
      <trkpt lat="42.70385" lon="1.36941">
        <ele>2196</ele>
        <time>2013-08-10T10:35:35.000Z</time>
      </trkpt>
      <trkpt lat="42.70388" lon="1.36942">
        <ele>2194.8000488281</ele>
        <time>2013-08-10T10:35:40.000Z</time>
      </trkpt>
      <trkpt lat="42.70392" lon="1.36942">
        <ele>2193</ele>
        <time>2013-08-10T10:35:45.000Z</time>
      </trkpt>
      <trkpt lat="42.70394" lon="1.36939">
        <ele>2191.8000488281</ele>
        <time>2013-08-10T10:35:50.000Z</time>
      </trkpt>
      <trkpt lat="42.70391" lon="1.3693">
        <ele>2190</ele>
        <time>2013-08-10T10:35:56.000Z</time>
      </trkpt>
      <trkpt lat="42.7039" lon="1.36926">
        <ele>2188.6000976562</ele>
        <time>2013-08-10T10:36:02.000Z</time>
      </trkpt>
      <trkpt lat="42.70386" lon="1.3692">
        <ele>2186.8000488281</ele>
        <time>2013-08-10T10:36:08.000Z</time>
      </trkpt>
      <trkpt lat="42.70386" lon="1.36913">
        <ele>2185</ele>
        <time>2013-08-10T10:36:13.000Z</time>
      </trkpt>
      <trkpt lat="42.70386" lon="1.36911">
        <ele>2185</ele>
        <time>2013-08-10T10:36:14.000Z</time>
      </trkpt>
      <trkpt lat="42.70387" lon="1.36909">
        <ele>2184</ele>
        <time>2013-08-10T10:36:16.000Z</time>
      </trkpt>
      <trkpt lat="42.70388" lon="1.36908">
        <ele>2183.8000488281</ele>
        <time>2013-08-10T10:36:18.000Z</time>
      </trkpt>
      <trkpt lat="42.7039" lon="1.36905">
        <ele>2182.8000488281</ele>
        <time>2013-08-10T10:36:21.000Z</time>
      </trkpt>
      <trkpt lat="42.70393" lon="1.36901">
        <ele>2181.8000488281</ele>
        <time>2013-08-10T10:36:24.000Z</time>
      </trkpt>
      <trkpt lat="42.70394" lon="1.36899">
        <ele>2181</ele>
        <time>2013-08-10T10:36:25.000Z</time>
      </trkpt>
      <trkpt lat="42.70397" lon="1.36895">
        <ele>2179.8000488281</ele>
        <time>2013-08-10T10:36:30.000Z</time>
      </trkpt>
      <trkpt lat="42.70405" lon="1.36887">
        <ele>2177</ele>
        <time>2013-08-10T10:36:38.000Z</time>
      </trkpt>
      <trkpt lat="42.70407" lon="1.36886">
        <ele>2176</ele>
        <time>2013-08-10T10:36:40.000Z</time>
      </trkpt>
      <trkpt lat="42.7041" lon="1.36881">
        <ele>2174.8000488281</ele>
        <time>2013-08-10T10:36:44.000Z</time>
      </trkpt>
      <trkpt lat="42.70412" lon="1.36878">
        <ele>2174</ele>
        <time>2013-08-10T10:36:46.000Z</time>
      </trkpt>
      <trkpt lat="42.70416" lon="1.36877">
        <ele>2173</ele>
        <time>2013-08-10T10:36:49.000Z</time>
      </trkpt>
      <trkpt lat="42.70417" lon="1.36877">
        <ele>2172.6000976562</ele>
        <time>2013-08-10T10:36:50.000Z</time>
      </trkpt>
      <trkpt lat="42.70424" lon="1.36874">
        <ele>2170</ele>
        <time>2013-08-10T10:36:56.000Z</time>
      </trkpt>
      <trkpt lat="42.70428" lon="1.36872">
        <ele>2169</ele>
        <time>2013-08-10T10:36:59.000Z</time>
      </trkpt>
      <trkpt lat="42.7043" lon="1.36872">
        <ele>2168.6000976562</ele>
        <time>2013-08-10T10:37:01.000Z</time>
      </trkpt>
      <trkpt lat="42.7043" lon="1.36871">
        <ele>2168</ele>
        <time>2013-08-10T10:37:02.000Z</time>
      </trkpt>
      <trkpt lat="42.70432" lon="1.36871">
        <ele>2167.8000488281</ele>
        <time>2013-08-10T10:37:03.000Z</time>
      </trkpt>
      <trkpt lat="42.70436" lon="1.36869">
        <ele>2166</ele>
        <time>2013-08-10T10:37:08.000Z</time>
      </trkpt>
      <trkpt lat="42.70438" lon="1.36869">
        <ele>2165.6000976562</ele>
        <time>2013-08-10T10:37:09.000Z</time>
      </trkpt>
      <trkpt lat="42.70442" lon="1.36872">
        <ele>2164</ele>
        <time>2013-08-10T10:37:13.000Z</time>
      </trkpt>
      <trkpt lat="42.70443" lon="1.36873">
        <ele>2163</ele>
        <time>2013-08-10T10:37:15.000Z</time>
      </trkpt>
      <trkpt lat="42.70444" lon="1.36872">
        <ele>2163</ele>
        <time>2013-08-10T10:37:16.000Z</time>
      </trkpt>
      <trkpt lat="42.70447" lon="1.36871">
        <ele>2162</ele>
        <time>2013-08-10T10:37:18.000Z</time>
      </trkpt>
      <trkpt lat="42.70452" lon="1.36873">
        <ele>2160.8000488281</ele>
        <time>2013-08-10T10:37:22.000Z</time>
      </trkpt>
      <trkpt lat="42.70454" lon="1.36874">
        <ele>2159.6000976562</ele>
        <time>2013-08-10T10:37:25.000Z</time>
      </trkpt>
      <trkpt lat="42.70455" lon="1.36873">
        <ele>2159</ele>
        <time>2013-08-10T10:37:26.000Z</time>
      </trkpt>
      <trkpt lat="42.70463" lon="1.36867">
        <ele>2156</ele>
        <time>2013-08-10T10:37:34.000Z</time>
      </trkpt>
      <trkpt lat="42.70469" lon="1.36863">
        <ele>2154</ele>
        <time>2013-08-10T10:37:40.000Z</time>
      </trkpt>
      <trkpt lat="42.70472" lon="1.36861">
        <ele>2153</ele>
        <time>2013-08-10T10:37:42.000Z</time>
      </trkpt>
      <trkpt lat="42.70477" lon="1.36861">
        <ele>2152</ele>
        <time>2013-08-10T10:37:45.000Z</time>
      </trkpt>
      <trkpt lat="42.70483" lon="1.36861">
        <ele>2150</ele>
        <time>2013-08-10T10:37:50.000Z</time>
      </trkpt>
      <trkpt lat="42.70484" lon="1.36861">
        <ele>2149.8000488281</ele>
        <time>2013-08-10T10:37:51.000Z</time>
      </trkpt>
      <trkpt lat="42.70492" lon="1.36859">
        <ele>2147</ele>
        <time>2013-08-10T10:37:58.000Z</time>
      </trkpt>
      <trkpt lat="42.70496" lon="1.36861">
        <ele>2146</ele>
        <time>2013-08-10T10:38:02.000Z</time>
      </trkpt>
      <trkpt lat="42.70498" lon="1.36862">
        <ele>2145</ele>
        <time>2013-08-10T10:38:04.000Z</time>
      </trkpt>
      <trkpt lat="42.70501" lon="1.36864">
        <ele>2144</ele>
        <time>2013-08-10T10:38:07.000Z</time>
      </trkpt>
      <trkpt lat="42.70502" lon="1.36863">
        <ele>2143.8000488281</ele>
        <time>2013-08-10T10:38:08.000Z</time>
      </trkpt>
      <trkpt lat="42.70503" lon="1.36863">
        <ele>2143</ele>
        <time>2013-08-10T10:38:09.000Z</time>
      </trkpt>
      <trkpt lat="42.70506" lon="1.36862">
        <ele>2142.8000488281</ele>
        <time>2013-08-10T10:38:11.000Z</time>
      </trkpt>
      <trkpt lat="42.70507" lon="1.36863">
        <ele>2142</ele>
        <time>2013-08-10T10:38:13.000Z</time>
      </trkpt>
      <trkpt lat="42.70508" lon="1.36862">
        <ele>2141.6000976562</ele>
        <time>2013-08-10T10:38:14.000Z</time>
      </trkpt>
      <trkpt lat="42.7051" lon="1.36861">
        <ele>2140.6000976562</ele>
        <time>2013-08-10T10:38:17.000Z</time>
      </trkpt>
      <trkpt lat="42.70511" lon="1.3686">
        <ele>2140</ele>
        <time>2013-08-10T10:38:19.000Z</time>
      </trkpt>
      <trkpt lat="42.70515" lon="1.36859">
        <ele>2138</ele>
        <time>2013-08-10T10:38:24.000Z</time>
      </trkpt>
      <trkpt lat="42.70519" lon="1.36858">
        <ele>2136</ele>
        <time>2013-08-10T10:38:30.000Z</time>
      </trkpt>
      <trkpt lat="42.70523" lon="1.3686">
        <ele>2134</ele>
        <time>2013-08-10T10:38:36.000Z</time>
      </trkpt>
      <trkpt lat="42.70524" lon="1.36861">
        <ele>2133.8000488281</ele>
        <time>2013-08-10T10:38:37.000Z</time>
      </trkpt>
      <trkpt lat="42.70526" lon="1.36867">
        <ele>2132</ele>
        <time>2013-08-10T10:38:41.000Z</time>
      </trkpt>
      <trkpt lat="42.70529" lon="1.36872">
        <ele>2131</ele>
        <time>2013-08-10T10:38:45.000Z</time>
      </trkpt>
      <trkpt lat="42.70533" lon="1.36872">
        <ele>2129</ele>
        <time>2013-08-10T10:38:50.000Z</time>
      </trkpt>
      <trkpt lat="42.70535" lon="1.36872">
        <ele>2129</ele>
        <time>2013-08-10T10:38:51.000Z</time>
      </trkpt>
      <trkpt lat="42.70539" lon="1.36872">
        <ele>2127</ele>
        <time>2013-08-10T10:38:56.000Z</time>
      </trkpt>
      <trkpt lat="42.70541" lon="1.36872">
        <ele>2126.6000976562</ele>
        <time>2013-08-10T10:38:58.000Z</time>
      </trkpt>
      <trkpt lat="42.70542" lon="1.36873">
        <ele>2126</ele>
        <time>2013-08-10T10:39:00.000Z</time>
      </trkpt>
      <trkpt lat="42.70544" lon="1.36873">
        <ele>2125</ele>
        <time>2013-08-10T10:39:03.000Z</time>
      </trkpt>
      <trkpt lat="42.70546" lon="1.36876">
        <ele>2123</ele>
        <time>2013-08-10T10:39:08.000Z</time>
      </trkpt>
      <trkpt lat="42.70549" lon="1.36874">
        <ele>2121</ele>
        <time>2013-08-10T10:39:14.000Z</time>
      </trkpt>
      <trkpt lat="42.70549" lon="1.36873">
        <ele>2119.6000976562</ele>
        <time>2013-08-10T10:39:19.000Z</time>
      </trkpt>
      <trkpt lat="42.70549" lon="1.36878">
        <ele>2117.8000488281</ele>
        <time>2013-08-10T10:39:25.000Z</time>
      </trkpt>
      <trkpt lat="42.70552" lon="1.36875">
        <ele>2116</ele>
        <time>2013-08-10T10:39:30.000Z</time>
      </trkpt>
      <trkpt lat="42.70555" lon="1.36871">
        <ele>2114</ele>
        <time>2013-08-10T10:39:37.000Z</time>
      </trkpt>
      <trkpt lat="42.7056" lon="1.36868">
        <ele>2112</ele>
        <time>2013-08-10T10:39:43.000Z</time>
      </trkpt>
      <trkpt lat="42.70562" lon="1.36868">
        <ele>2111.8000488281</ele>
        <time>2013-08-10T10:39:45.000Z</time>
      </trkpt>
      <trkpt lat="42.70566" lon="1.3687">
        <ele>2110.8000488281</ele>
        <time>2013-08-10T10:39:48.000Z</time>
      </trkpt>
      <trkpt lat="42.70567" lon="1.36872">
        <ele>2110</ele>
        <time>2013-08-10T10:39:50.000Z</time>
      </trkpt>
      <trkpt lat="42.7057" lon="1.36879">
        <ele>2108</ele>
        <time>2013-08-10T10:39:56.000Z</time>
      </trkpt>
      <trkpt lat="42.70573" lon="1.36885">
        <ele>2106.6000976562</ele>
        <time>2013-08-10T10:40:02.000Z</time>
      </trkpt>
      <trkpt lat="42.70576" lon="1.36887">
        <ele>2105.6000976562</ele>
        <time>2013-08-10T10:40:05.000Z</time>
      </trkpt>
      <trkpt lat="42.70578" lon="1.36887">
        <ele>2104.8000488281</ele>
        <time>2013-08-10T10:40:08.000Z</time>
      </trkpt>
      <trkpt lat="42.70583" lon="1.36893">
        <ele>2103</ele>
        <time>2013-08-10T10:40:13.000Z</time>
      </trkpt>
      <trkpt lat="42.70587" lon="1.369">
        <ele>2101</ele>
        <time>2013-08-10T10:40:20.000Z</time>
      </trkpt>
      <trkpt lat="42.70588" lon="1.36901">
        <ele>2100.8000488281</ele>
        <time>2013-08-10T10:40:21.000Z</time>
      </trkpt>
      <trkpt lat="42.70589" lon="1.36902">
        <ele>2100</ele>
        <time>2013-08-10T10:40:23.000Z</time>
      </trkpt>
      <trkpt lat="42.70591" lon="1.36906">
        <ele>2098.8000488281</ele>
        <time>2013-08-10T10:40:27.000Z</time>
      </trkpt>
      <trkpt lat="42.70595" lon="1.36908">
        <ele>2097.6000976562</ele>
        <time>2013-08-10T10:40:31.000Z</time>
      </trkpt>
      <trkpt lat="42.70596" lon="1.36911">
        <ele>2097</ele>
        <time>2013-08-10T10:40:33.000Z</time>
      </trkpt>
      <trkpt lat="42.70594" lon="1.36914">
        <ele>2096</ele>
        <time>2013-08-10T10:40:36.000Z</time>
      </trkpt>
      <trkpt lat="42.70594" lon="1.36921">
        <ele>2094</ele>
        <time>2013-08-10T10:40:42.000Z</time>
      </trkpt>
      <trkpt lat="42.70593" lon="1.36928">
        <ele>2092.8000488281</ele>
        <time>2013-08-10T10:40:47.000Z</time>
      </trkpt>
      <trkpt lat="42.70594" lon="1.36931">
        <ele>2092</ele>
        <time>2013-08-10T10:40:49.000Z</time>
      </trkpt>
      <trkpt lat="42.70594" lon="1.36932">
        <ele>2091.8000488281</ele>
        <time>2013-08-10T10:40:50.000Z</time>
      </trkpt>
      <trkpt lat="42.70595" lon="1.36934">
        <ele>2091</ele>
        <time>2013-08-10T10:40:52.000Z</time>
      </trkpt>
      <trkpt lat="42.70595" lon="1.36936">
        <ele>2091</ele>
        <time>2013-08-10T10:40:53.000Z</time>
      </trkpt>
      <trkpt lat="42.70594" lon="1.3694">
        <ele>2089.8000488281</ele>
        <time>2013-08-10T10:40:57.000Z</time>
      </trkpt>
      <trkpt lat="42.70594" lon="1.36941">
        <ele>2089</ele>
        <time>2013-08-10T10:40:58.000Z</time>
      </trkpt>
      <trkpt lat="42.70593" lon="1.36942">
        <ele>2089</ele>
        <time>2013-08-10T10:40:59.000Z</time>
      </trkpt>
      <trkpt lat="42.70592" lon="1.36946">
        <ele>2088</ele>
        <time>2013-08-10T10:41:03.000Z</time>
      </trkpt>
      <trkpt lat="42.70593" lon="1.36949">
        <ele>2087</ele>
        <time>2013-08-10T10:41:06.000Z</time>
      </trkpt>
      <trkpt lat="42.70593" lon="1.3695">
        <ele>2086.8000488281</ele>
        <time>2013-08-10T10:41:07.000Z</time>
      </trkpt>
      <trkpt lat="42.70593" lon="1.36952">
        <ele>2086</ele>
        <time>2013-08-10T10:41:08.000Z</time>
      </trkpt>
      <trkpt lat="42.70594" lon="1.36955">
        <ele>2084.6000976562</ele>
        <time>2013-08-10T10:41:14.000Z</time>
      </trkpt>
      <trkpt lat="42.70597" lon="1.36957">
        <ele>2083</ele>
        <time>2013-08-10T10:41:19.000Z</time>
      </trkpt>
      <trkpt lat="42.70599" lon="1.3696">
        <ele>2081.6000976562</ele>
        <time>2013-08-10T10:41:24.000Z</time>
      </trkpt>
      <trkpt lat="42.70601" lon="1.36964">
        <ele>2080</ele>
        <time>2013-08-10T10:41:29.000Z</time>
      </trkpt>
      <trkpt lat="42.70601" lon="1.36968">
        <ele>2078.6000976562</ele>
        <time>2013-08-10T10:41:34.000Z</time>
      </trkpt>
      <trkpt lat="42.70602" lon="1.36973">
        <ele>2077</ele>
        <time>2013-08-10T10:41:39.000Z</time>
      </trkpt>
      <trkpt lat="42.70602" lon="1.36974">
        <ele>2076.8000488281</ele>
        <time>2013-08-10T10:41:40.000Z</time>
      </trkpt>
      <trkpt lat="42.70601" lon="1.36978">
        <ele>2075.8000488281</ele>
        <time>2013-08-10T10:41:43.000Z</time>
      </trkpt>
      <trkpt lat="42.70598" lon="1.36985">
        <ele>2074</ele>
        <time>2013-08-10T10:41:49.000Z</time>
      </trkpt>
      <trkpt lat="42.70598" lon="1.36994">
        <ele>2072</ele>
        <time>2013-08-10T10:41:55.000Z</time>
      </trkpt>
      <trkpt lat="42.70598" lon="1.36997">
        <ele>2071.6000976562</ele>
        <time>2013-08-10T10:41:57.000Z</time>
      </trkpt>
      <trkpt lat="42.70597" lon="1.37001">
        <ele>2070.6000976562</ele>
        <time>2013-08-10T10:42:00.000Z</time>
      </trkpt>
      <trkpt lat="42.70598" lon="1.37005">
        <ele>2069.6000976562</ele>
        <time>2013-08-10T10:42:03.000Z</time>
      </trkpt>
      <trkpt lat="42.70598" lon="1.3701">
        <ele>2068.8000488281</ele>
        <time>2013-08-10T10:42:06.000Z</time>
      </trkpt>
      <trkpt lat="42.70598" lon="1.37019">
        <ele>2067</ele>
        <time>2013-08-10T10:42:12.000Z</time>
      </trkpt>
      <trkpt lat="42.70598" lon="1.3702">
        <ele>2066.6000976562</ele>
        <time>2013-08-10T10:42:13.000Z</time>
      </trkpt>
      <trkpt lat="42.70599" lon="1.37023">
        <ele>2065</ele>
        <time>2013-08-10T10:42:17.000Z</time>
      </trkpt>
      <trkpt lat="42.70604" lon="1.37027">
        <ele>2063.8000488281</ele>
        <time>2013-08-10T10:42:22.000Z</time>
      </trkpt>
      <trkpt lat="42.70604" lon="1.37028">
        <ele>2063.6000976562</ele>
        <time>2013-08-10T10:42:23.000Z</time>
      </trkpt>
      <trkpt lat="42.70604" lon="1.37032">
        <ele>2062.6000976562</ele>
        <time>2013-08-10T10:42:26.000Z</time>
      </trkpt>
      <trkpt lat="42.70604" lon="1.37034">
        <ele>2062</ele>
        <time>2013-08-10T10:42:28.000Z</time>
      </trkpt>
      <trkpt lat="42.70604" lon="1.37035">
        <ele>2061.8000488281</ele>
        <time>2013-08-10T10:42:29.000Z</time>
      </trkpt>
      <trkpt lat="42.70604" lon="1.37039">
        <ele>2060.8000488281</ele>
        <time>2013-08-10T10:42:32.000Z</time>
      </trkpt>
      <trkpt lat="42.70604" lon="1.37041">
        <ele>2060.6000976562</ele>
        <time>2013-08-10T10:42:33.000Z</time>
      </trkpt>
      <trkpt lat="42.70602" lon="1.37044">
        <ele>2059.6000976562</ele>
        <time>2013-08-10T10:42:36.000Z</time>
      </trkpt>
      <trkpt lat="42.70601" lon="1.37048">
        <ele>2058</ele>
        <time>2013-08-10T10:42:40.000Z</time>
      </trkpt>
      <trkpt lat="42.70604" lon="1.3705">
        <ele>2057</ele>
        <time>2013-08-10T10:42:43.000Z</time>
      </trkpt>
      <trkpt lat="42.70604" lon="1.37051">
        <ele>2057</ele>
        <time>2013-08-10T10:42:44.000Z</time>
      </trkpt>
      <trkpt lat="42.70605" lon="1.37052">
        <ele>2056.6000976562</ele>
        <time>2013-08-10T10:42:46.000Z</time>
      </trkpt>
      <trkpt lat="42.70607" lon="1.37056">
        <ele>2055.6000976562</ele>
        <time>2013-08-10T10:42:49.000Z</time>
      </trkpt>
      <trkpt lat="42.70606" lon="1.37058">
        <ele>2055</ele>
        <time>2013-08-10T10:42:50.000Z</time>
      </trkpt>
      <trkpt lat="42.70606" lon="1.37059">
        <ele>2055</ele>
        <time>2013-08-10T10:42:51.000Z</time>
      </trkpt>
      <trkpt lat="42.70604" lon="1.37064">
        <ele>2054</ele>
        <time>2013-08-10T10:42:54.000Z</time>
      </trkpt>
      <trkpt lat="42.70605" lon="1.37068">
        <ele>2052.6000976562</ele>
        <time>2013-08-10T10:42:59.000Z</time>
      </trkpt>
      <trkpt lat="42.70608" lon="1.37069">
        <ele>2051</ele>
        <time>2013-08-10T10:43:03.000Z</time>
      </trkpt>
      <trkpt lat="42.70609" lon="1.37071">
        <ele>2050.8000488281</ele>
        <time>2013-08-10T10:43:05.000Z</time>
      </trkpt>
      <trkpt lat="42.70611" lon="1.37075">
        <ele>2049.8000488281</ele>
        <time>2013-08-10T10:43:08.000Z</time>
      </trkpt>
      <trkpt lat="42.70613" lon="1.37079">
        <ele>2049</ele>
        <time>2013-08-10T10:43:11.000Z</time>
      </trkpt>
      <trkpt lat="42.70614" lon="1.3708">
        <ele>2048</ele>
        <time>2013-08-10T10:43:13.000Z</time>
      </trkpt>
      <trkpt lat="42.70618" lon="1.37083">
        <ele>2046.8000488281</ele>
        <time>2013-08-10T10:43:18.000Z</time>
      </trkpt>
      <trkpt lat="42.70619" lon="1.37084">
        <ele>2046</ele>
        <time>2013-08-10T10:43:20.000Z</time>
      </trkpt>
      <trkpt lat="42.70621" lon="1.37087">
        <ele>2045</ele>
        <time>2013-08-10T10:43:23.000Z</time>
      </trkpt>
      <trkpt lat="42.70624" lon="1.37093">
        <ele>2043</ele>
        <time>2013-08-10T10:43:29.000Z</time>
      </trkpt>
      <trkpt lat="42.70628" lon="1.37099">
        <ele>2041.4000244141</ele>
        <time>2013-08-10T10:43:34.000Z</time>
      </trkpt>
      <trkpt lat="42.70632" lon="1.37103">
        <ele>2040</ele>
        <time>2013-08-10T10:43:39.000Z</time>
      </trkpt>
      <trkpt lat="42.70633" lon="1.37104">
        <ele>2039.8000488281</ele>
        <time>2013-08-10T10:43:40.000Z</time>
      </trkpt>
      <trkpt lat="42.70636" lon="1.37108">
        <ele>2038.4000244141</ele>
        <time>2013-08-10T10:43:44.000Z</time>
      </trkpt>
      <trkpt lat="42.70637" lon="1.3711">
        <ele>2037.8000488281</ele>
        <time>2013-08-10T10:43:46.000Z</time>
      </trkpt>
      <trkpt lat="42.70639" lon="1.37114">
        <ele>2037</ele>
        <time>2013-08-10T10:43:49.000Z</time>
      </trkpt>
      <trkpt lat="42.7064" lon="1.37115">
        <ele>2036.4000244141</ele>
        <time>2013-08-10T10:43:50.000Z</time>
      </trkpt>
      <trkpt lat="42.70641" lon="1.3712">
        <ele>2035.4000244141</ele>
        <time>2013-08-10T10:43:53.000Z</time>
      </trkpt>
      <trkpt lat="42.70643" lon="1.37125">
        <ele>2034.4000244141</ele>
        <time>2013-08-10T10:43:57.000Z</time>
      </trkpt>
      <trkpt lat="42.70644" lon="1.37127">
        <ele>2033.8000488281</ele>
        <time>2013-08-10T10:43:59.000Z</time>
      </trkpt>
      <trkpt lat="42.70647" lon="1.37126">
        <ele>2032.8000488281</ele>
        <time>2013-08-10T10:44:02.000Z</time>
      </trkpt>
      <trkpt lat="42.70651" lon="1.3713">
        <ele>2031.4000244141</ele>
        <time>2013-08-10T10:44:06.000Z</time>
      </trkpt>
      <trkpt lat="42.70653" lon="1.37132">
        <ele>2031</ele>
        <time>2013-08-10T10:44:08.000Z</time>
      </trkpt>
      <trkpt lat="42.70657" lon="1.3714">
        <ele>2029.4000244141</ele>
        <time>2013-08-10T10:44:13.000Z</time>
      </trkpt>
      <trkpt lat="42.70662" lon="1.37147">
        <ele>2027.8000488281</ele>
        <time>2013-08-10T10:44:18.000Z</time>
      </trkpt>
      <trkpt lat="42.70664" lon="1.3715">
        <ele>2026</ele>
        <time>2013-08-10T10:44:23.000Z</time>
      </trkpt>
      <trkpt lat="42.70665" lon="1.3715">
        <ele>2026</ele>
        <time>2013-08-10T10:44:24.000Z</time>
      </trkpt>
      <trkpt lat="42.70669" lon="1.37156">
        <ele>2024.4000244141</ele>
        <time>2013-08-10T10:44:28.000Z</time>
      </trkpt>
      <trkpt lat="42.70669" lon="1.37157">
        <ele>2024.4000244141</ele>
        <time>2013-08-10T10:44:29.000Z</time>
      </trkpt>
      <trkpt lat="42.70672" lon="1.3716">
        <ele>2023.4000244141</ele>
        <time>2013-08-10T10:44:32.000Z</time>
      </trkpt>
      <trkpt lat="42.70673" lon="1.37163">
        <ele>2022.8000488281</ele>
        <time>2013-08-10T10:44:34.000Z</time>
      </trkpt>
      <trkpt lat="42.70674" lon="1.37164">
        <ele>2022.4000244141</ele>
        <time>2013-08-10T10:44:35.000Z</time>
      </trkpt>
      <trkpt lat="42.70678" lon="1.37167">
        <ele>2021.4000244141</ele>
        <time>2013-08-10T10:44:38.000Z</time>
      </trkpt>
      <trkpt lat="42.70682" lon="1.3717">
        <ele>2020.4000244141</ele>
        <time>2013-08-10T10:44:42.000Z</time>
      </trkpt>
      <trkpt lat="42.70683" lon="1.37171">
        <ele>2020</ele>
        <time>2013-08-10T10:44:43.000Z</time>
      </trkpt>
      <trkpt lat="42.70687" lon="1.37173">
        <ele>2018.8000488281</ele>
        <time>2013-08-10T10:44:47.000Z</time>
      </trkpt>
      <trkpt lat="42.70688" lon="1.37175">
        <ele>2018.4000244141</ele>
        <time>2013-08-10T10:44:49.000Z</time>
      </trkpt>
      <trkpt lat="42.70693" lon="1.37177">
        <ele>2016.8000488281</ele>
        <time>2013-08-10T10:44:54.000Z</time>
      </trkpt>
      <trkpt lat="42.70695" lon="1.37179">
        <ele>2016</ele>
        <time>2013-08-10T10:44:56.000Z</time>
      </trkpt>
      <trkpt lat="42.70696" lon="1.3718">
        <ele>2016</ele>
        <time>2013-08-10T10:44:57.000Z</time>
      </trkpt>
      <trkpt lat="42.70699" lon="1.3718">
        <ele>2015.4000244141</ele>
        <time>2013-08-10T10:44:59.000Z</time>
      </trkpt>
      <trkpt lat="42.70704" lon="1.37184">
        <ele>2014</ele>
        <time>2013-08-10T10:45:04.000Z</time>
      </trkpt>
      <trkpt lat="42.70711" lon="1.37186">
        <ele>2012</ele>
        <time>2013-08-10T10:45:10.000Z</time>
      </trkpt>
      <trkpt lat="42.70715" lon="1.3719">
        <ele>2010.8000488281</ele>
        <time>2013-08-10T10:45:15.000Z</time>
      </trkpt>
      <trkpt lat="42.70719" lon="1.37191">
        <ele>2010</ele>
        <time>2013-08-10T10:45:18.000Z</time>
      </trkpt>
      <trkpt lat="42.70722" lon="1.37193">
        <ele>2009</ele>
        <time>2013-08-10T10:45:21.000Z</time>
      </trkpt>
      <trkpt lat="42.70727" lon="1.37197">
        <ele>2007.4000244141</ele>
        <time>2013-08-10T10:45:26.000Z</time>
      </trkpt>
      <trkpt lat="42.70731" lon="1.372">
        <ele>2006.8000488281</ele>
        <time>2013-08-10T10:45:29.000Z</time>
      </trkpt>
      <trkpt lat="42.70735" lon="1.372">
        <ele>2006</ele>
        <time>2013-08-10T10:45:32.000Z</time>
      </trkpt>
      <trkpt lat="42.70744" lon="1.37207">
        <ele>2003.4000244141</ele>
        <time>2013-08-10T10:45:40.000Z</time>
      </trkpt>
      <trkpt lat="42.70747" lon="1.37208">
        <ele>2002.8000488281</ele>
        <time>2013-08-10T10:45:43.000Z</time>
      </trkpt>
      <trkpt lat="42.7075" lon="1.3721">
        <ele>2002</ele>
        <time>2013-08-10T10:45:45.000Z</time>
      </trkpt>
      <trkpt lat="42.70755" lon="1.37215">
        <ele>2000.8000488281</ele>
        <time>2013-08-10T10:45:50.000Z</time>
      </trkpt>
      <trkpt lat="42.70759" lon="1.37219">
        <ele>1999.4000244141</ele>
        <time>2013-08-10T10:45:55.000Z</time>
      </trkpt>
      <trkpt lat="42.70762" lon="1.37223">
        <ele>1998</ele>
        <time>2013-08-10T10:45:59.000Z</time>
      </trkpt>
      <trkpt lat="42.70763" lon="1.37225">
        <ele>1997.4000244141</ele>
        <time>2013-08-10T10:46:01.000Z</time>
      </trkpt>
      <trkpt lat="42.70765" lon="1.37228">
        <ele>1996.8000488281</ele>
        <time>2013-08-10T10:46:04.000Z</time>
      </trkpt>
      <trkpt lat="42.70765" lon="1.37229">
        <ele>1996.4000244141</ele>
        <time>2013-08-10T10:46:05.000Z</time>
      </trkpt>
      <trkpt lat="42.70766" lon="1.3723">
        <ele>1996</ele>
        <time>2013-08-10T10:46:06.000Z</time>
      </trkpt>
      <trkpt lat="42.7077" lon="1.37238">
        <ele>1994.8000488281</ele>
        <time>2013-08-10T10:46:11.000Z</time>
      </trkpt>
      <trkpt lat="42.7077" lon="1.37239">
        <ele>1994.4000244141</ele>
        <time>2013-08-10T10:46:12.000Z</time>
      </trkpt>
      <trkpt lat="42.70774" lon="1.37242">
        <ele>1993</ele>
        <time>2013-08-10T10:46:17.000Z</time>
      </trkpt>
      <trkpt lat="42.70779" lon="1.37246">
        <ele>1991</ele>
        <time>2013-08-10T10:46:23.000Z</time>
      </trkpt>
      <trkpt lat="42.70781" lon="1.37252">
        <ele>1989.4000244141</ele>
        <time>2013-08-10T10:46:28.000Z</time>
      </trkpt>
      <trkpt lat="42.70784" lon="1.37254">
        <ele>1988.8000488281</ele>
        <time>2013-08-10T10:46:31.000Z</time>
      </trkpt>
      <trkpt lat="42.70786" lon="1.37254">
        <ele>1988</ele>
        <time>2013-08-10T10:46:33.000Z</time>
      </trkpt>
      <trkpt lat="42.70789" lon="1.37258">
        <ele>1987</ele>
        <time>2013-08-10T10:46:37.000Z</time>
      </trkpt>
      <trkpt lat="42.7079" lon="1.37259">
        <ele>1986.8000488281</ele>
        <time>2013-08-10T10:46:38.000Z</time>
      </trkpt>
      <trkpt lat="42.70795" lon="1.37266">
        <ele>1985</ele>
        <time>2013-08-10T10:46:44.000Z</time>
      </trkpt>
      <trkpt lat="42.70798" lon="1.37273">
        <ele>1983.4000244141</ele>
        <time>2013-08-10T10:46:49.000Z</time>
      </trkpt>
      <trkpt lat="42.708" lon="1.37275">
        <ele>1982.8000488281</ele>
        <time>2013-08-10T10:46:52.000Z</time>
      </trkpt>
      <trkpt lat="42.70801" lon="1.37276">
        <ele>1982.4000244141</ele>
        <time>2013-08-10T10:46:53.000Z</time>
      </trkpt>
      <trkpt lat="42.70801" lon="1.37278">
        <ele>1982</ele>
        <time>2013-08-10T10:46:54.000Z</time>
      </trkpt>
      <trkpt lat="42.70807" lon="1.37285">
        <ele>1980.4000244141</ele>
        <time>2013-08-10T10:47:00.000Z</time>
      </trkpt>
      <trkpt lat="42.70808" lon="1.37287">
        <ele>1980</ele>
        <time>2013-08-10T10:47:02.000Z</time>
      </trkpt>
      <trkpt lat="42.70813" lon="1.37295">
        <ele>1978</ele>
        <time>2013-08-10T10:47:08.000Z</time>
      </trkpt>
      <trkpt lat="42.70818" lon="1.37303">
        <ele>1976.4000244141</ele>
        <time>2013-08-10T10:47:14.000Z</time>
      </trkpt>
      <trkpt lat="42.70823" lon="1.37309">
        <ele>1974.8000488281</ele>
        <time>2013-08-10T10:47:20.000Z</time>
      </trkpt>
      <trkpt lat="42.70826" lon="1.37315">
        <ele>1973</ele>
        <time>2013-08-10T10:47:26.000Z</time>
      </trkpt>
      <trkpt lat="42.70828" lon="1.37321">
        <ele>1971.8000488281</ele>
        <time>2013-08-10T10:47:31.000Z</time>
      </trkpt>
      <trkpt lat="42.7083" lon="1.37326">
        <ele>1970.4000244141</ele>
        <time>2013-08-10T10:47:36.000Z</time>
      </trkpt>
      <trkpt lat="42.70834" lon="1.37329">
        <ele>1969</ele>
        <time>2013-08-10T10:47:41.000Z</time>
      </trkpt>
      <trkpt lat="42.70835" lon="1.37337">
        <ele>1967.4000244141</ele>
        <time>2013-08-10T10:47:46.000Z</time>
      </trkpt>
      <trkpt lat="42.70836" lon="1.37342">
        <ele>1966.4000244141</ele>
        <time>2013-08-10T10:47:50.000Z</time>
      </trkpt>
      <trkpt lat="42.70841" lon="1.37344">
        <ele>1965</ele>
        <time>2013-08-10T10:47:54.000Z</time>
      </trkpt>
      <trkpt lat="42.70842" lon="1.37349">
        <ele>1964</ele>
        <time>2013-08-10T10:47:57.000Z</time>
      </trkpt>
      <trkpt lat="42.70841" lon="1.37351">
        <ele>1963.8000488281</ele>
        <time>2013-08-10T10:47:58.000Z</time>
      </trkpt>
      <trkpt lat="42.70841" lon="1.37353">
        <ele>1963.4000244141</ele>
        <time>2013-08-10T10:47:59.000Z</time>
      </trkpt>
      <trkpt lat="42.70843" lon="1.37358">
        <ele>1962</ele>
        <time>2013-08-10T10:48:04.000Z</time>
      </trkpt>
      <trkpt lat="42.70848" lon="1.37362">
        <ele>1960.8000488281</ele>
        <time>2013-08-10T10:48:08.000Z</time>
      </trkpt>
      <trkpt lat="42.70851" lon="1.37371">
        <ele>1959</ele>
        <time>2013-08-10T10:48:14.000Z</time>
      </trkpt>
      <trkpt lat="42.70851" lon="1.3738">
        <ele>1957</ele>
        <time>2013-08-10T10:48:20.000Z</time>
      </trkpt>
      <trkpt lat="42.70852" lon="1.37382">
        <ele>1957</ele>
        <time>2013-08-10T10:48:21.000Z</time>
      </trkpt>
      <trkpt lat="42.70854" lon="1.37387">
        <ele>1955.4000244141</ele>
        <time>2013-08-10T10:48:25.000Z</time>
      </trkpt>
      <trkpt lat="42.70855" lon="1.37388">
        <ele>1955.4000244141</ele>
        <time>2013-08-10T10:48:26.000Z</time>
      </trkpt>
      <trkpt lat="42.70856" lon="1.37394">
        <ele>1954.4000244141</ele>
        <time>2013-08-10T10:48:29.000Z</time>
      </trkpt>
      <trkpt lat="42.70856" lon="1.37399">
        <ele>1953.4000244141</ele>
        <time>2013-08-10T10:48:32.000Z</time>
      </trkpt>
      <trkpt lat="42.70854" lon="1.37401">
        <ele>1953</ele>
        <time>2013-08-10T10:48:33.000Z</time>
      </trkpt>
      <trkpt lat="42.70855" lon="1.37407">
        <ele>1952</ele>
        <time>2013-08-10T10:48:37.000Z</time>
      </trkpt>
      <trkpt lat="42.70857" lon="1.3741">
        <ele>1951.4000244141</ele>
        <time>2013-08-10T10:48:39.000Z</time>
      </trkpt>
      <trkpt lat="42.70857" lon="1.37412">
        <ele>1951</ele>
        <time>2013-08-10T10:48:40.000Z</time>
      </trkpt>
      <trkpt lat="42.70858" lon="1.37414">
        <ele>1950.4000244141</ele>
        <time>2013-08-10T10:48:42.000Z</time>
      </trkpt>
      <trkpt lat="42.70861" lon="1.37416">
        <ele>1950</ele>
        <time>2013-08-10T10:48:44.000Z</time>
      </trkpt>
      <trkpt lat="42.70864" lon="1.3742">
        <ele>1949</ele>
        <time>2013-08-10T10:48:47.000Z</time>
      </trkpt>
      <trkpt lat="42.70865" lon="1.37422">
        <ele>1949</ele>
        <time>2013-08-10T10:48:48.000Z</time>
      </trkpt>
      <trkpt lat="42.70865" lon="1.3743">
        <ele>1947.4000244141</ele>
        <time>2013-08-10T10:48:53.000Z</time>
      </trkpt>
      <trkpt lat="42.70866" lon="1.37432">
        <ele>1947</ele>
        <time>2013-08-10T10:48:54.000Z</time>
      </trkpt>
      <trkpt lat="42.70868" lon="1.37441">
        <ele>1946</ele>
        <time>2013-08-10T10:48:59.000Z</time>
      </trkpt>
      <trkpt lat="42.70869" lon="1.37442">
        <ele>1945.4000244141</ele>
        <time>2013-08-10T10:49:00.000Z</time>
      </trkpt>
      <trkpt lat="42.70872" lon="1.37452">
        <ele>1944</ele>
        <time>2013-08-10T10:49:06.000Z</time>
      </trkpt>
      <trkpt lat="42.70875" lon="1.37461">
        <ele>1942.4000244141</ele>
        <time>2013-08-10T10:49:11.000Z</time>
      </trkpt>
      <trkpt lat="42.70877" lon="1.37471">
        <ele>1941.4000244141</ele>
        <time>2013-08-10T10:49:16.000Z</time>
      </trkpt>
      <trkpt lat="42.70877" lon="1.37477">
        <ele>1940.4000244141</ele>
        <time>2013-08-10T10:49:19.000Z</time>
      </trkpt>
      <trkpt lat="42.70877" lon="1.37481">
        <ele>1940</ele>
        <time>2013-08-10T10:49:21.000Z</time>
      </trkpt>
      <trkpt lat="42.70881" lon="1.37491">
        <ele>1938.8000488281</ele>
        <time>2013-08-10T10:49:26.000Z</time>
      </trkpt>
      <trkpt lat="42.70887" lon="1.37501">
        <ele>1937.4000244141</ele>
        <time>2013-08-10T10:49:32.000Z</time>
      </trkpt>
      <trkpt lat="42.70892" lon="1.37511">
        <ele>1936</ele>
        <time>2013-08-10T10:49:38.000Z</time>
      </trkpt>
      <trkpt lat="42.70896" lon="1.37519">
        <ele>1934.8000488281</ele>
        <time>2013-08-10T10:49:43.000Z</time>
      </trkpt>
      <trkpt lat="42.70897" lon="1.37522">
        <ele>1934.4000244141</ele>
        <time>2013-08-10T10:49:45.000Z</time>
      </trkpt>
      <trkpt lat="42.70898" lon="1.37524">
        <ele>1934</ele>
        <time>2013-08-10T10:49:47.000Z</time>
      </trkpt>
      <trkpt lat="42.70898" lon="1.37526">
        <ele>1933.8000488281</ele>
        <time>2013-08-10T10:49:48.000Z</time>
      </trkpt>
      <trkpt lat="42.709" lon="1.37532">
        <ele>1933</ele>
        <time>2013-08-10T10:49:52.000Z</time>
      </trkpt>
      <trkpt lat="42.70899" lon="1.37536">
        <ele>1932</ele>
        <time>2013-08-10T10:49:56.000Z</time>
      </trkpt>
      <trkpt lat="42.709" lon="1.37539">
        <ele>1931.4000244141</ele>
        <time>2013-08-10T10:49:58.000Z</time>
      </trkpt>
      <trkpt lat="42.70902" lon="1.37544">
        <ele>1931</ele>
        <time>2013-08-10T10:50:01.000Z</time>
      </trkpt>
      <trkpt lat="42.70902" lon="1.37545">
        <ele>1930.8000488281</ele>
        <time>2013-08-10T10:50:02.000Z</time>
      </trkpt>
      <trkpt lat="42.70903" lon="1.37551">
        <ele>1929.8000488281</ele>
        <time>2013-08-10T10:50:08.000Z</time>
      </trkpt>
      <trkpt lat="42.70904" lon="1.37552">
        <ele>1929.4000244141</ele>
        <time>2013-08-10T10:50:09.000Z</time>
      </trkpt>
      <trkpt lat="42.70904" lon="1.37554">
        <ele>1929.4000244141</ele>
        <time>2013-08-10T10:50:10.000Z</time>
      </trkpt>
      <trkpt lat="42.70905" lon="1.37558">
        <ele>1928.4000244141</ele>
        <time>2013-08-10T10:50:14.000Z</time>
      </trkpt>
      <trkpt lat="42.70906" lon="1.37564">
        <ele>1927.8000488281</ele>
        <time>2013-08-10T10:50:19.000Z</time>
      </trkpt>
      <trkpt lat="42.70907" lon="1.37565">
        <ele>1927.4000244141</ele>
        <time>2013-08-10T10:50:20.000Z</time>
      </trkpt>
      <trkpt lat="42.70912" lon="1.37569">
        <ele>1926.8000488281</ele>
        <time>2013-08-10T10:50:24.000Z</time>
      </trkpt>
      <trkpt lat="42.7092" lon="1.37576">
        <ele>1925.4000244141</ele>
        <time>2013-08-10T10:50:31.000Z</time>
      </trkpt>
      <trkpt lat="42.70921" lon="1.37577">
        <ele>1925.4000244141</ele>
        <time>2013-08-10T10:50:32.000Z</time>
      </trkpt>
      <trkpt lat="42.70925" lon="1.37582">
        <ele>1924.8000488281</ele>
        <time>2013-08-10T10:50:35.000Z</time>
      </trkpt>
      <trkpt lat="42.70927" lon="1.37587">
        <ele>1924.4000244141</ele>
        <time>2013-08-10T10:50:37.000Z</time>
      </trkpt>
      <trkpt lat="42.7093" lon="1.37591">
        <ele>1924</ele>
        <time>2013-08-10T10:50:40.000Z</time>
      </trkpt>
      <trkpt lat="42.70936" lon="1.37601">
        <ele>1922.8000488281</ele>
        <time>2013-08-10T10:50:46.000Z</time>
      </trkpt>
      <trkpt lat="42.70941" lon="1.37609">
        <ele>1922</ele>
        <time>2013-08-10T10:50:51.000Z</time>
      </trkpt>
      <trkpt lat="42.70944" lon="1.37617">
        <ele>1921</ele>
        <time>2013-08-10T10:50:56.000Z</time>
      </trkpt>
      <trkpt lat="42.70949" lon="1.37627">
        <ele>1920</ele>
        <time>2013-08-10T10:51:02.000Z</time>
      </trkpt>
      <trkpt lat="42.70951" lon="1.37634">
        <ele>1919.4000244141</ele>
        <time>2013-08-10T10:51:06.000Z</time>
      </trkpt>
      <trkpt lat="42.70952" lon="1.37639">
        <ele>1919</ele>
        <time>2013-08-10T10:51:09.000Z</time>
      </trkpt>
      <trkpt lat="42.70952" lon="1.37642">
        <ele>1918.8000488281</ele>
        <time>2013-08-10T10:51:11.000Z</time>
      </trkpt>
      <trkpt lat="42.70951" lon="1.37644">
        <ele>1918.4000244141</ele>
        <time>2013-08-10T10:51:12.000Z</time>
      </trkpt>
      <trkpt lat="42.70951" lon="1.37645">
        <ele>1918.4000244141</ele>
        <time>2013-08-10T10:51:13.000Z</time>
      </trkpt>
      <trkpt lat="42.70951" lon="1.37649">
        <ele>1918</ele>
        <time>2013-08-10T10:51:16.000Z</time>
      </trkpt>
      <trkpt lat="42.70952" lon="1.3765">
        <ele>1918</ele>
        <time>2013-08-10T10:51:17.000Z</time>
      </trkpt>
      <trkpt lat="42.70953" lon="1.37651">
        <ele>1917.8000488281</ele>
        <time>2013-08-10T10:51:18.000Z</time>
      </trkpt>
      <trkpt lat="42.70955" lon="1.37656">
        <ele>1917</ele>
        <time>2013-08-10T10:51:22.000Z</time>
      </trkpt>
      <trkpt lat="42.70955" lon="1.37659">
        <ele>1917</ele>
        <time>2013-08-10T10:51:24.000Z</time>
      </trkpt>
      <trkpt lat="42.70956" lon="1.3766">
        <ele>1916.8000488281</ele>
        <time>2013-08-10T10:51:25.000Z</time>
      </trkpt>
      <trkpt lat="42.70957" lon="1.37663">
        <ele>1916.4000244141</ele>
        <time>2013-08-10T10:51:27.000Z</time>
      </trkpt>
      <trkpt lat="42.70955" lon="1.37667">
        <ele>1916</ele>
        <time>2013-08-10T10:51:31.000Z</time>
      </trkpt>
      <trkpt lat="42.70956" lon="1.37674">
        <ele>1915</ele>
        <time>2013-08-10T10:51:36.000Z</time>
      </trkpt>
      <trkpt lat="42.70957" lon="1.37679">
        <ele>1914.8000488281</ele>
        <time>2013-08-10T10:51:39.000Z</time>
      </trkpt>
      <trkpt lat="42.70958" lon="1.37682">
        <ele>1914.4000244141</ele>
        <time>2013-08-10T10:51:42.000Z</time>
      </trkpt>
      <trkpt lat="42.70958" lon="1.37686">
        <ele>1914</ele>
        <time>2013-08-10T10:51:45.000Z</time>
      </trkpt>
      <trkpt lat="42.70957" lon="1.37689">
        <ele>1914</ele>
        <time>2013-08-10T10:51:47.000Z</time>
      </trkpt>
      <trkpt lat="42.70958" lon="1.37692">
        <ele>1913.8000488281</ele>
        <time>2013-08-10T10:51:49.000Z</time>
      </trkpt>
      <trkpt lat="42.70959" lon="1.37695">
        <ele>1913.4000244141</ele>
        <time>2013-08-10T10:51:52.000Z</time>
      </trkpt>
      <trkpt lat="42.70965" lon="1.377">
        <ele>1912.8000488281</ele>
        <time>2013-08-10T10:51:58.000Z</time>
      </trkpt>
      <trkpt lat="42.70965" lon="1.37702">
        <ele>1912.4000244141</ele>
        <time>2013-08-10T10:51:59.000Z</time>
      </trkpt>
      <trkpt lat="42.70967" lon="1.37705">
        <ele>1912.4000244141</ele>
        <time>2013-08-10T10:52:02.000Z</time>
      </trkpt>
      <trkpt lat="42.7097" lon="1.37712">
        <ele>1911.8000488281</ele>
        <time>2013-08-10T10:52:08.000Z</time>
      </trkpt>
      <trkpt lat="42.7097" lon="1.37714">
        <ele>1911.4000244141</ele>
        <time>2013-08-10T10:52:10.000Z</time>
      </trkpt>
      <trkpt lat="42.7097" lon="1.37715">
        <ele>1911</ele>
        <time>2013-08-10T10:52:13.000Z</time>
      </trkpt>
      <trkpt lat="42.70973" lon="1.37719">
        <ele>1910</ele>
        <time>2013-08-10T10:52:24.000Z</time>
      </trkpt>
      <trkpt lat="42.70976" lon="1.37724">
        <ele>1909.4000244141</ele>
        <time>2013-08-10T10:52:30.000Z</time>
      </trkpt>
      <trkpt lat="42.70977" lon="1.37728">
        <ele>1909</ele>
        <time>2013-08-10T10:52:34.000Z</time>
      </trkpt>
      <trkpt lat="42.70978" lon="1.37729">
        <ele>1909</ele>
        <time>2013-08-10T10:52:36.000Z</time>
      </trkpt>
      <trkpt lat="42.70981" lon="1.37729">
        <ele>1908.4000244141</ele>
        <time>2013-08-10T10:52:40.000Z</time>
      </trkpt>
      <trkpt lat="42.70985" lon="1.3773">
        <ele>1908</ele>
        <time>2013-08-10T10:52:45.000Z</time>
      </trkpt>
      <trkpt lat="42.70986" lon="1.37733">
        <ele>1907.8000488281</ele>
        <time>2013-08-10T10:52:47.000Z</time>
      </trkpt>
      <trkpt lat="42.70986" lon="1.37736">
        <ele>1907.4000244141</ele>
        <time>2013-08-10T10:52:49.000Z</time>
      </trkpt>
      <trkpt lat="42.70988" lon="1.37738">
        <ele>1907</ele>
        <time>2013-08-10T10:52:51.000Z</time>
      </trkpt>
      <trkpt lat="42.70987" lon="1.37741">
        <ele>1907</ele>
        <time>2013-08-10T10:52:53.000Z</time>
      </trkpt>
      <trkpt lat="42.70984" lon="1.37747">
        <ele>1906.4000244141</ele>
        <time>2013-08-10T10:52:56.000Z</time>
      </trkpt>
      <trkpt lat="42.70985" lon="1.3775">
        <ele>1906.4000244141</ele>
        <time>2013-08-10T10:52:58.000Z</time>
      </trkpt>
      <trkpt lat="42.70986" lon="1.37755">
        <ele>1906</ele>
        <time>2013-08-10T10:53:00.000Z</time>
      </trkpt>
      <trkpt lat="42.70988" lon="1.37758">
        <ele>1905.8000488281</ele>
        <time>2013-08-10T10:53:02.000Z</time>
      </trkpt>
      <trkpt lat="42.70988" lon="1.3776">
        <ele>1905.8000488281</ele>
        <time>2013-08-10T10:53:03.000Z</time>
      </trkpt>
      <trkpt lat="42.70989" lon="1.37762">
        <ele>1905.4000244141</ele>
        <time>2013-08-10T10:53:05.000Z</time>
      </trkpt>
      <trkpt lat="42.70991" lon="1.37766">
        <ele>1905</ele>
        <time>2013-08-10T10:53:08.000Z</time>
      </trkpt>
      <trkpt lat="42.70993" lon="1.37771">
        <ele>1904.8000488281</ele>
        <time>2013-08-10T10:53:11.000Z</time>
      </trkpt>
      <trkpt lat="42.70994" lon="1.37774">
        <ele>1904.4000244141</ele>
        <time>2013-08-10T10:53:13.000Z</time>
      </trkpt>
      <trkpt lat="42.70995" lon="1.37776">
        <ele>1904</ele>
        <time>2013-08-10T10:53:16.000Z</time>
      </trkpt>
      <trkpt lat="42.70995" lon="1.37784">
        <ele>1903.4000244141</ele>
        <time>2013-08-10T10:53:22.000Z</time>
      </trkpt>
      <trkpt lat="42.70995" lon="1.37785">
        <ele>1903.4000244141</ele>
        <time>2013-08-10T10:53:23.000Z</time>
      </trkpt>
      <trkpt lat="42.70994" lon="1.37788">
        <ele>1903.4000244141</ele>
        <time>2013-08-10T10:53:26.000Z</time>
      </trkpt>
      <trkpt lat="42.70997" lon="1.37796">
        <ele>1902.8000488281</ele>
        <time>2013-08-10T10:53:32.000Z</time>
      </trkpt>
      <trkpt lat="42.71" lon="1.37803">
        <ele>1902</ele>
        <time>2013-08-10T10:53:38.000Z</time>
      </trkpt>
      <trkpt lat="42.71001" lon="1.37812">
        <ele>1901.4000244141</ele>
        <time>2013-08-10T10:53:44.000Z</time>
      </trkpt>
      <trkpt lat="42.71004" lon="1.37816">
        <ele>1901.4000244141</ele>
        <time>2013-08-10T10:53:48.000Z</time>
      </trkpt>
      <trkpt lat="42.71004" lon="1.37818">
        <ele>1901</ele>
        <time>2013-08-10T10:53:49.000Z</time>
      </trkpt>
      <trkpt lat="42.71005" lon="1.37822">
        <ele>1901</ele>
        <time>2013-08-10T10:53:52.000Z</time>
      </trkpt>
      <trkpt lat="42.71005" lon="1.37823">
        <ele>1900.8000488281</ele>
        <time>2013-08-10T10:53:53.000Z</time>
      </trkpt>
      <trkpt lat="42.71009" lon="1.37828">
        <ele>1900.4000244141</ele>
        <time>2013-08-10T10:53:58.000Z</time>
      </trkpt>
      <trkpt lat="42.71011" lon="1.3783">
        <ele>1900</ele>
        <time>2013-08-10T10:54:00.000Z</time>
      </trkpt>
      <trkpt lat="42.71011" lon="1.37833">
        <ele>1900</ele>
        <time>2013-08-10T10:54:02.000Z</time>
      </trkpt>
      <trkpt lat="42.71011" lon="1.37834">
        <ele>1900</ele>
        <time>2013-08-10T10:54:03.000Z</time>
      </trkpt>
      <trkpt lat="42.71011" lon="1.3784">
        <ele>1899.8000488281</ele>
        <time>2013-08-10T10:54:06.000Z</time>
      </trkpt>
      <trkpt lat="42.71011" lon="1.3785">
        <ele>1899</ele>
        <time>2013-08-10T10:54:12.000Z</time>
      </trkpt>
      <trkpt lat="42.71013" lon="1.37854">
        <ele>1899</ele>
        <time>2013-08-10T10:54:15.000Z</time>
      </trkpt>
      <trkpt lat="42.71015" lon="1.37858">
        <ele>1898.8000488281</ele>
        <time>2013-08-10T10:54:18.000Z</time>
      </trkpt>
      <trkpt lat="42.71017" lon="1.37862">
        <ele>1898.4000244141</ele>
        <time>2013-08-10T10:54:21.000Z</time>
      </trkpt>
      <trkpt lat="42.71019" lon="1.37865">
        <ele>1898.4000244141</ele>
        <time>2013-08-10T10:54:23.000Z</time>
      </trkpt>
      <trkpt lat="42.7102" lon="1.3787">
        <ele>1898</ele>
        <time>2013-08-10T10:54:27.000Z</time>
      </trkpt>
      <trkpt lat="42.71021" lon="1.37871">
        <ele>1898</ele>
        <time>2013-08-10T10:54:29.000Z</time>
      </trkpt>
      <trkpt lat="42.71025" lon="1.37876">
        <ele>1897.4000244141</ele>
        <time>2013-08-10T10:54:34.000Z</time>
      </trkpt>
      <trkpt lat="42.71027" lon="1.37878">
        <ele>1897.4000244141</ele>
        <time>2013-08-10T10:54:37.000Z</time>
      </trkpt>
      <trkpt lat="42.71027" lon="1.37878">
        <ele>1897.4000244141</ele>
        <time>2013-08-10T10:54:38.000Z</time>
      </trkpt>
      <trkpt lat="42.71027" lon="1.37884">
        <ele>1897</ele>
        <time>2013-08-10T10:54:43.000Z</time>
      </trkpt>
      <trkpt lat="42.71027" lon="1.37886">
        <ele>1897</ele>
        <time>2013-08-10T10:54:44.000Z</time>
      </trkpt>
      <trkpt lat="42.71029" lon="1.37891">
        <ele>1896.8000488281</ele>
        <time>2013-08-10T10:54:48.000Z</time>
      </trkpt>
      <trkpt lat="42.71028" lon="1.37896">
        <ele>1896.4000244141</ele>
        <time>2013-08-10T10:54:53.000Z</time>
      </trkpt>
      <trkpt lat="42.71029" lon="1.37902">
        <ele>1896</ele>
        <time>2013-08-10T10:54:59.000Z</time>
      </trkpt>
      <trkpt lat="42.7103" lon="1.37905">
        <ele>1895.8000488281</ele>
        <time>2013-08-10T10:55:03.000Z</time>
      </trkpt>
      <trkpt lat="42.71032" lon="1.37911">
        <ele>1895.4000244141</ele>
        <time>2013-08-10T10:55:08.000Z</time>
      </trkpt>
      <trkpt lat="42.71032" lon="1.37913">
        <ele>1895.4000244141</ele>
        <time>2013-08-10T10:55:09.000Z</time>
      </trkpt>
      <trkpt lat="42.71033" lon="1.37919">
        <ele>1895</ele>
        <time>2013-08-10T10:55:13.000Z</time>
      </trkpt>
      <trkpt lat="42.71035" lon="1.37923">
        <ele>1894.8000488281</ele>
        <time>2013-08-10T10:55:18.000Z</time>
      </trkpt>
      <trkpt lat="42.71036" lon="1.37925">
        <ele>1894.4000244141</ele>
        <time>2013-08-10T10:55:20.000Z</time>
      </trkpt>
      <trkpt lat="42.71035" lon="1.37925">
        <ele>1894.4000244141</ele>
        <time>2013-08-10T10:55:21.000Z</time>
      </trkpt>
      <trkpt lat="42.71036" lon="1.37926">
        <ele>1894.4000244141</ele>
        <time>2013-08-10T10:55:22.000Z</time>
      </trkpt>
      <trkpt lat="42.71038" lon="1.37928">
        <ele>1894</ele>
        <time>2013-08-10T10:55:26.000Z</time>
      </trkpt>
      <trkpt lat="42.71041" lon="1.37934">
        <ele>1893.4000244141</ele>
        <time>2013-08-10T10:55:32.000Z</time>
      </trkpt>
      <trkpt lat="42.71042" lon="1.37936">
        <ele>1893.4000244141</ele>
        <time>2013-08-10T10:55:33.000Z</time>
      </trkpt>
      <trkpt lat="42.71042" lon="1.37938">
        <ele>1893</ele>
        <time>2013-08-10T10:55:35.000Z</time>
      </trkpt>
      <trkpt lat="42.71043" lon="1.37941">
        <ele>1893</ele>
        <time>2013-08-10T10:55:37.000Z</time>
      </trkpt>
      <trkpt lat="42.71046" lon="1.37945">
        <ele>1892.4000244141</ele>
        <time>2013-08-10T10:55:41.000Z</time>
      </trkpt>
      <trkpt lat="42.7105" lon="1.37947">
        <ele>1891.8000488281</ele>
        <time>2013-08-10T10:55:46.000Z</time>
      </trkpt>
      <trkpt lat="42.7105" lon="1.37947">
        <ele>1891.4000244141</ele>
        <time>2013-08-10T10:55:47.000Z</time>
      </trkpt>
      <trkpt lat="42.71052" lon="1.37949">
        <ele>1891.4000244141</ele>
        <time>2013-08-10T10:55:49.000Z</time>
      </trkpt>
      <trkpt lat="42.71055" lon="1.37953">
        <ele>1891</ele>
        <time>2013-08-10T10:55:52.000Z</time>
      </trkpt>
      <trkpt lat="42.71055" lon="1.37955">
        <ele>1890.8000488281</ele>
        <time>2013-08-10T10:55:54.000Z</time>
      </trkpt>
      <trkpt lat="42.7106" lon="1.3796">
        <ele>1890</ele>
        <time>2013-08-10T10:55:59.000Z</time>
      </trkpt>
      <trkpt lat="42.71063" lon="1.37965">
        <ele>1889.4000244141</ele>
        <time>2013-08-10T10:56:02.000Z</time>
      </trkpt>
      <trkpt lat="42.71064" lon="1.37968">
        <ele>1889.4000244141</ele>
        <time>2013-08-10T10:56:04.000Z</time>
      </trkpt>
      <trkpt lat="42.71067" lon="1.37976">
        <ele>1888.4000244141</ele>
        <time>2013-08-10T10:56:10.000Z</time>
      </trkpt>
      <trkpt lat="42.71068" lon="1.37977">
        <ele>1888.4000244141</ele>
        <time>2013-08-10T10:56:11.000Z</time>
      </trkpt>
      <trkpt lat="42.71072" lon="1.37982">
        <ele>1887.8000488281</ele>
        <time>2013-08-10T10:56:15.000Z</time>
      </trkpt>
      <trkpt lat="42.71074" lon="1.37985">
        <ele>1887.4000244141</ele>
        <time>2013-08-10T10:56:19.000Z</time>
      </trkpt>
      <trkpt lat="42.71078" lon="1.37991">
        <ele>1886.8000488281</ele>
        <time>2013-08-10T10:56:23.000Z</time>
      </trkpt>
      <trkpt lat="42.71078" lon="1.37992">
        <ele>1886.4000244141</ele>
        <time>2013-08-10T10:56:24.000Z</time>
      </trkpt>
      <trkpt lat="42.7108" lon="1.37996">
        <ele>1886</ele>
        <time>2013-08-10T10:56:28.000Z</time>
      </trkpt>
      <trkpt lat="42.71085" lon="1.38004">
        <ele>1885</ele>
        <time>2013-08-10T10:56:34.000Z</time>
      </trkpt>
      <trkpt lat="42.71086" lon="1.38005">
        <ele>1885</ele>
        <time>2013-08-10T10:56:35.000Z</time>
      </trkpt>
      <trkpt lat="42.7109" lon="1.38009">
        <ele>1884.4000244141</ele>
        <time>2013-08-10T10:56:40.000Z</time>
      </trkpt>
      <trkpt lat="42.71091" lon="1.3801">
        <ele>1884</ele>
        <time>2013-08-10T10:56:41.000Z</time>
      </trkpt>
      <trkpt lat="42.71094" lon="1.38013">
        <ele>1883.4000244141</ele>
        <time>2013-08-10T10:56:45.000Z</time>
      </trkpt>
      <trkpt lat="42.71098" lon="1.38018">
        <ele>1882.8000488281</ele>
        <time>2013-08-10T10:56:50.000Z</time>
      </trkpt>
      <trkpt lat="42.71099" lon="1.3802">
        <ele>1881.8000488281</ele>
        <time>2013-08-10T10:56:55.000Z</time>
      </trkpt>
      <trkpt lat="42.711" lon="1.38022">
        <ele>1881.8000488281</ele>
        <time>2013-08-10T10:56:56.000Z</time>
      </trkpt>
      <trkpt lat="42.71102" lon="1.38027">
        <ele>1881</ele>
        <time>2013-08-10T10:57:00.000Z</time>
      </trkpt>
      <trkpt lat="42.71103" lon="1.38028">
        <ele>1880.8000488281</ele>
        <time>2013-08-10T10:57:02.000Z</time>
      </trkpt>
      <trkpt lat="42.71105" lon="1.38032">
        <ele>1880</ele>
        <time>2013-08-10T10:57:05.000Z</time>
      </trkpt>
      <trkpt lat="42.71105" lon="1.38039">
        <ele>1879.4000244141</ele>
        <time>2013-08-10T10:57:10.000Z</time>
      </trkpt>
      <trkpt lat="42.71105" lon="1.38042">
        <ele>1878.8000488281</ele>
        <time>2013-08-10T10:57:13.000Z</time>
      </trkpt>
      <trkpt lat="42.71105" lon="1.38043">
        <ele>1878.4000244141</ele>
        <time>2013-08-10T10:57:14.000Z</time>
      </trkpt>
      <trkpt lat="42.71107" lon="1.38044">
        <ele>1878.4000244141</ele>
        <time>2013-08-10T10:57:16.000Z</time>
      </trkpt>
      <trkpt lat="42.7111" lon="1.38049">
        <ele>1877</ele>
        <time>2013-08-10T10:57:22.000Z</time>
      </trkpt>
      <trkpt lat="42.71115" lon="1.38052">
        <ele>1876.4000244141</ele>
        <time>2013-08-10T10:57:27.000Z</time>
      </trkpt>
      <trkpt lat="42.71116" lon="1.38055">
        <ele>1876</ele>
        <time>2013-08-10T10:57:29.000Z</time>
      </trkpt>
      <trkpt lat="42.71119" lon="1.3806">
        <ele>1875.4000244141</ele>
        <time>2013-08-10T10:57:32.000Z</time>
      </trkpt>
      <trkpt lat="42.71118" lon="1.38065">
        <ele>1874.8000488281</ele>
        <time>2013-08-10T10:57:35.000Z</time>
      </trkpt>
      <trkpt lat="42.71118" lon="1.38071">
        <ele>1874</ele>
        <time>2013-08-10T10:57:39.000Z</time>
      </trkpt>
      <trkpt lat="42.71118" lon="1.38074">
        <ele>1873.4000244141</ele>
        <time>2013-08-10T10:57:42.000Z</time>
      </trkpt>
      <trkpt lat="42.71118" lon="1.38076">
        <ele>1873</ele>
        <time>2013-08-10T10:57:43.000Z</time>
      </trkpt>
      <trkpt lat="42.71119" lon="1.38077">
        <ele>1873</ele>
        <time>2013-08-10T10:57:44.000Z</time>
      </trkpt>
      <trkpt lat="42.71118" lon="1.38084">
        <ele>1872</ele>
        <time>2013-08-10T10:57:49.000Z</time>
      </trkpt>
      <trkpt lat="42.71118" lon="1.38085">
        <ele>1871.8000488281</ele>
        <time>2013-08-10T10:57:50.000Z</time>
      </trkpt>
      <trkpt lat="42.7112" lon="1.38088">
        <ele>1871</ele>
        <time>2013-08-10T10:57:54.000Z</time>
      </trkpt>
      <trkpt lat="42.7112" lon="1.3809">
        <ele>1870.8000488281</ele>
        <time>2013-08-10T10:57:55.000Z</time>
      </trkpt>
      <trkpt lat="42.71121" lon="1.38097">
        <ele>1869.8000488281</ele>
        <time>2013-08-10T10:58:00.000Z</time>
      </trkpt>
      <trkpt lat="42.71121" lon="1.38098">
        <ele>1869.4000244141</ele>
        <time>2013-08-10T10:58:01.000Z</time>
      </trkpt>
      <trkpt lat="42.71121" lon="1.38099">
        <ele>1869.4000244141</ele>
        <time>2013-08-10T10:58:02.000Z</time>
      </trkpt>
      <trkpt lat="42.71122" lon="1.38104">
        <ele>1868.8000488281</ele>
        <time>2013-08-10T10:58:05.000Z</time>
      </trkpt>
      <trkpt lat="42.71123" lon="1.38105">
        <ele>1868.4000244141</ele>
        <time>2013-08-10T10:58:07.000Z</time>
      </trkpt>
      <trkpt lat="42.71124" lon="1.38106">
        <ele>1868</ele>
        <time>2013-08-10T10:58:09.000Z</time>
      </trkpt>
      <trkpt lat="42.71127" lon="1.38109">
        <ele>1867</ele>
        <time>2013-08-10T10:58:13.000Z</time>
      </trkpt>
      <trkpt lat="42.71128" lon="1.38109">
        <ele>1867</ele>
        <time>2013-08-10T10:58:14.000Z</time>
      </trkpt>
      <trkpt lat="42.71128" lon="1.38108">
        <ele>1866.8000488281</ele>
        <time>2013-08-10T10:58:15.000Z</time>
      </trkpt>
      <trkpt lat="42.71131" lon="1.38111">
        <ele>1865.8000488281</ele>
        <time>2013-08-10T10:58:19.000Z</time>
      </trkpt>
      <trkpt lat="42.71137" lon="1.38123">
        <ele>1864</ele>
        <time>2013-08-10T10:58:27.000Z</time>
      </trkpt>
      <trkpt lat="42.71143" lon="1.38132">
        <ele>1862.8000488281</ele>
        <time>2013-08-10T10:58:33.000Z</time>
      </trkpt>
      <trkpt lat="42.71148" lon="1.38141">
        <ele>1861.4000244141</ele>
        <time>2013-08-10T10:58:39.000Z</time>
      </trkpt>
      <trkpt lat="42.71151" lon="1.38154">
        <ele>1859.4000244141</ele>
        <time>2013-08-10T10:58:47.000Z</time>
      </trkpt>
      <trkpt lat="42.71157" lon="1.38162">
        <ele>1858</ele>
        <time>2013-08-10T10:58:53.000Z</time>
      </trkpt>
      <trkpt lat="42.7116" lon="1.38167">
        <ele>1857</ele>
        <time>2013-08-10T10:58:57.000Z</time>
      </trkpt>
      <trkpt lat="42.71162" lon="1.3817">
        <ele>1856.8000488281</ele>
        <time>2013-08-10T10:58:59.000Z</time>
      </trkpt>
      <trkpt lat="42.71167" lon="1.38176">
        <ele>1855.4000244141</ele>
        <time>2013-08-10T10:59:05.000Z</time>
      </trkpt>
      <trkpt lat="42.71168" lon="1.38181">
        <ele>1854</ele>
        <time>2013-08-10T10:59:10.000Z</time>
      </trkpt>
      <trkpt lat="42.71167" lon="1.38182">
        <ele>1853.8000488281</ele>
        <time>2013-08-10T10:59:11.000Z</time>
      </trkpt>
      <trkpt lat="42.71165" lon="1.38186">
        <ele>1853</ele>
        <time>2013-08-10T10:59:14.000Z</time>
      </trkpt>
      <trkpt lat="42.71169" lon="1.38189">
        <ele>1852</ele>
        <time>2013-08-10T10:59:18.000Z</time>
      </trkpt>
      <trkpt lat="42.7117" lon="1.3819">
        <ele>1852</ele>
        <time>2013-08-10T10:59:19.000Z</time>
      </trkpt>
      <trkpt lat="42.71176" lon="1.38196">
        <ele>1850</ele>
        <time>2013-08-10T10:59:26.000Z</time>
      </trkpt>
      <trkpt lat="42.71177" lon="1.38199">
        <ele>1849.4000244141</ele>
        <time>2013-08-10T10:59:28.000Z</time>
      </trkpt>
      <trkpt lat="42.71177" lon="1.38202">
        <ele>1849</ele>
        <time>2013-08-10T10:59:30.000Z</time>
      </trkpt>
      <trkpt lat="42.71177" lon="1.38206">
        <ele>1848.4000244141</ele>
        <time>2013-08-10T10:59:32.000Z</time>
      </trkpt>
      <trkpt lat="42.71177" lon="1.38207">
        <ele>1848</ele>
        <time>2013-08-10T10:59:33.000Z</time>
      </trkpt>
      <trkpt lat="42.71179" lon="1.38215">
        <ele>1847</ele>
        <time>2013-08-10T10:59:38.000Z</time>
      </trkpt>
      <trkpt lat="42.71179" lon="1.38216">
        <ele>1846.4000244141</ele>
        <time>2013-08-10T10:59:39.000Z</time>
      </trkpt>
      <trkpt lat="42.7118" lon="1.3822">
        <ele>1846</ele>
        <time>2013-08-10T10:59:42.000Z</time>
      </trkpt>
      <trkpt lat="42.7118" lon="1.38223">
        <ele>1845.4000244141</ele>
        <time>2013-08-10T10:59:44.000Z</time>
      </trkpt>
      <trkpt lat="42.71181" lon="1.38228">
        <ele>1844.4000244141</ele>
        <time>2013-08-10T10:59:48.000Z</time>
      </trkpt>
      <trkpt lat="42.71181" lon="1.38231">
        <ele>1843.8000488281</ele>
        <time>2013-08-10T10:59:50.000Z</time>
      </trkpt>
      <trkpt lat="42.71178" lon="1.38241">
        <ele>1842.4000244141</ele>
        <time>2013-08-10T10:59:55.000Z</time>
      </trkpt>
      <trkpt lat="42.71178" lon="1.38246">
        <ele>1841.4000244141</ele>
        <time>2013-08-10T10:59:59.000Z</time>
      </trkpt>
      <trkpt lat="42.71179" lon="1.38248">
        <ele>1841</ele>
        <time>2013-08-10T11:00:01.000Z</time>
      </trkpt>
      <trkpt lat="42.7118" lon="1.38252">
        <ele>1840.4000244141</ele>
        <time>2013-08-10T11:00:04.000Z</time>
      </trkpt>
      <trkpt lat="42.71182" lon="1.38259">
        <ele>1839</ele>
        <time>2013-08-10T11:00:09.000Z</time>
      </trkpt>
      <trkpt lat="42.71184" lon="1.38267">
        <ele>1838</ele>
        <time>2013-08-10T11:00:13.000Z</time>
      </trkpt>
      <trkpt lat="42.71185" lon="1.38274">
        <ele>1837</ele>
        <time>2013-08-10T11:00:17.000Z</time>
      </trkpt>
      <trkpt lat="42.71186" lon="1.38278">
        <ele>1836</ele>
        <time>2013-08-10T11:00:20.000Z</time>
      </trkpt>
      <trkpt lat="42.71186" lon="1.38279">
        <ele>1836</ele>
        <time>2013-08-10T11:00:21.000Z</time>
      </trkpt>
      <trkpt lat="42.7119" lon="1.38284">
        <ele>1835</ele>
        <time>2013-08-10T11:00:25.000Z</time>
      </trkpt>
      <trkpt lat="42.71192" lon="1.38289">
        <ele>1834</ele>
        <time>2013-08-10T11:00:28.000Z</time>
      </trkpt>
      <trkpt lat="42.71191" lon="1.38292">
        <ele>1833.4000244141</ele>
        <time>2013-08-10T11:00:30.000Z</time>
      </trkpt>
      <trkpt lat="42.7119" lon="1.38298">
        <ele>1832.4000244141</ele>
        <time>2013-08-10T11:00:34.000Z</time>
      </trkpt>
      <trkpt lat="42.71189" lon="1.38306">
        <ele>1831.4000244141</ele>
        <time>2013-08-10T11:00:38.000Z</time>
      </trkpt>
      <trkpt lat="42.71189" lon="1.38307">
        <ele>1831.4000244141</ele>
        <time>2013-08-10T11:00:39.000Z</time>
      </trkpt>
      <trkpt lat="42.71188" lon="1.38312">
        <ele>1830.4000244141</ele>
        <time>2013-08-10T11:00:42.000Z</time>
      </trkpt>
      <trkpt lat="42.7119" lon="1.38316">
        <ele>1829.8000488281</ele>
        <time>2013-08-10T11:00:45.000Z</time>
      </trkpt>
      <trkpt lat="42.71191" lon="1.38323">
        <ele>1828.8000488281</ele>
        <time>2013-08-10T11:00:49.000Z</time>
      </trkpt>
      <trkpt lat="42.71193" lon="1.38328">
        <ele>1828</ele>
        <time>2013-08-10T11:00:52.000Z</time>
      </trkpt>
      <trkpt lat="42.71193" lon="1.38334">
        <ele>1827.4000244141</ele>
        <time>2013-08-10T11:00:55.000Z</time>
      </trkpt>
      <trkpt lat="42.71196" lon="1.38337">
        <ele>1826.4000244141</ele>
        <time>2013-08-10T11:00:58.000Z</time>
      </trkpt>
      <trkpt lat="42.71198" lon="1.38339">
        <ele>1826</ele>
        <time>2013-08-10T11:01:00.000Z</time>
      </trkpt>
      <trkpt lat="42.71201" lon="1.38347">
        <ele>1825</ele>
        <time>2013-08-10T11:01:05.000Z</time>
      </trkpt>
      <trkpt lat="42.712" lon="1.38356">
        <ele>1823.8000488281</ele>
        <time>2013-08-10T11:01:10.000Z</time>
      </trkpt>
      <trkpt lat="42.71199" lon="1.38363">
        <ele>1822.4000244141</ele>
        <time>2013-08-10T11:01:15.000Z</time>
      </trkpt>
      <trkpt lat="42.71198" lon="1.38369">
        <ele>1821.8000488281</ele>
        <time>2013-08-10T11:01:19.000Z</time>
      </trkpt>
      <trkpt lat="42.71199" lon="1.3837">
        <ele>1821.4000244141</ele>
        <time>2013-08-10T11:01:20.000Z</time>
      </trkpt>
      <trkpt lat="42.71202" lon="1.38374">
        <ele>1820.8000488281</ele>
        <time>2013-08-10T11:01:23.000Z</time>
      </trkpt>
      <trkpt lat="42.71198" lon="1.38378">
        <ele>1820</ele>
        <time>2013-08-10T11:01:26.000Z</time>
      </trkpt>
      <trkpt lat="42.71197" lon="1.38379">
        <ele>1820</ele>
        <time>2013-08-10T11:01:27.000Z</time>
      </trkpt>
      <trkpt lat="42.71196" lon="1.3838">
        <ele>1819.8000488281</ele>
        <time>2013-08-10T11:01:28.000Z</time>
      </trkpt>
      <trkpt lat="42.71196" lon="1.38383">
        <ele>1819.4000244141</ele>
        <time>2013-08-10T11:01:30.000Z</time>
      </trkpt>
      <trkpt lat="42.71197" lon="1.38393">
        <ele>1818.4000244141</ele>
        <time>2013-08-10T11:01:35.000Z</time>
      </trkpt>
      <trkpt lat="42.71197" lon="1.38399">
        <ele>1817.4000244141</ele>
        <time>2013-08-10T11:01:39.000Z</time>
      </trkpt>
      <trkpt lat="42.71198" lon="1.38402">
        <ele>1817</ele>
        <time>2013-08-10T11:01:41.000Z</time>
      </trkpt>
      <trkpt lat="42.71202" lon="1.38412">
        <ele>1816</ele>
        <time>2013-08-10T11:01:47.000Z</time>
      </trkpt>
      <trkpt lat="42.71203" lon="1.38421">
        <ele>1815</ele>
        <time>2013-08-10T11:01:52.000Z</time>
      </trkpt>
      <trkpt lat="42.71203" lon="1.38422">
        <ele>1814.8000488281</ele>
        <time>2013-08-10T11:01:53.000Z</time>
      </trkpt>
      <trkpt lat="42.71205" lon="1.3843">
        <ele>1813.4000244141</ele>
        <time>2013-08-10T11:01:59.000Z</time>
      </trkpt>
      <trkpt lat="42.71207" lon="1.38434">
        <ele>1813</ele>
        <time>2013-08-10T11:02:02.000Z</time>
      </trkpt>
      <trkpt lat="42.71208" lon="1.38438">
        <ele>1812.4000244141</ele>
        <time>2013-08-10T11:02:04.000Z</time>
      </trkpt>
      <trkpt lat="42.71211" lon="1.3845">
        <ele>1811</ele>
        <time>2013-08-10T11:02:11.000Z</time>
      </trkpt>
      <trkpt lat="42.71213" lon="1.38456">
        <ele>1810.4000244141</ele>
        <time>2013-08-10T11:02:14.000Z</time>
      </trkpt>
      <trkpt lat="42.71215" lon="1.38458">
        <ele>1810</ele>
        <time>2013-08-10T11:02:16.000Z</time>
      </trkpt>
      <trkpt lat="42.71215" lon="1.38459">
        <ele>1810</ele>
        <time>2013-08-10T11:02:17.000Z</time>
      </trkpt>
      <trkpt lat="42.71214" lon="1.38464">
        <ele>1809.4000244141</ele>
        <time>2013-08-10T11:02:20.000Z</time>
      </trkpt>
      <trkpt lat="42.71215" lon="1.38468">
        <ele>1809</ele>
        <time>2013-08-10T11:02:22.000Z</time>
      </trkpt>
      <trkpt lat="42.71216" lon="1.38474">
        <ele>1808.4000244141</ele>
        <time>2013-08-10T11:02:25.000Z</time>
      </trkpt>
      <trkpt lat="42.71217" lon="1.3848">
        <ele>1808</ele>
        <time>2013-08-10T11:02:28.000Z</time>
      </trkpt>
      <trkpt lat="42.71219" lon="1.38487">
        <ele>1807</ele>
        <time>2013-08-10T11:02:32.000Z</time>
      </trkpt>
      <trkpt lat="42.71224" lon="1.38497">
        <ele>1806</ele>
        <time>2013-08-10T11:02:38.000Z</time>
      </trkpt>
      <trkpt lat="42.71227" lon="1.38502">
        <ele>1805</ele>
        <time>2013-08-10T11:02:41.000Z</time>
      </trkpt>
      <trkpt lat="42.71229" lon="1.38505">
        <ele>1804.8000488281</ele>
        <time>2013-08-10T11:02:43.000Z</time>
      </trkpt>
      <trkpt lat="42.71231" lon="1.3851">
        <ele>1804</ele>
        <time>2013-08-10T11:02:47.000Z</time>
      </trkpt>
      <trkpt lat="42.71233" lon="1.38515">
        <ele>1803.4000244141</ele>
        <time>2013-08-10T11:02:50.000Z</time>
      </trkpt>
      <trkpt lat="42.71234" lon="1.38518">
        <ele>1803</ele>
        <time>2013-08-10T11:02:52.000Z</time>
      </trkpt>
      <trkpt lat="42.7124" lon="1.3853">
        <ele>1801.4000244141</ele>
        <time>2013-08-10T11:02:59.000Z</time>
      </trkpt>
      <trkpt lat="42.71246" lon="1.38538">
        <ele>1800.4000244141</ele>
        <time>2013-08-10T11:03:05.000Z</time>
      </trkpt>
      <trkpt lat="42.71249" lon="1.38544">
        <ele>1799.8000488281</ele>
        <time>2013-08-10T11:03:08.000Z</time>
      </trkpt>
      <trkpt lat="42.7125" lon="1.38545">
        <ele>1799.4000244141</ele>
        <time>2013-08-10T11:03:09.000Z</time>
      </trkpt>
      <trkpt lat="42.71251" lon="1.38547">
        <ele>1799</ele>
        <time>2013-08-10T11:03:11.000Z</time>
      </trkpt>
      <trkpt lat="42.71252" lon="1.3855">
        <ele>1798.4000244141</ele>
        <time>2013-08-10T11:03:13.000Z</time>
      </trkpt>
      <trkpt lat="42.71256" lon="1.38553">
        <ele>1798</ele>
        <time>2013-08-10T11:03:16.000Z</time>
      </trkpt>
      <trkpt lat="42.71258" lon="1.38555">
        <ele>1797.4000244141</ele>
        <time>2013-08-10T11:03:18.000Z</time>
      </trkpt>
      <trkpt lat="42.71263" lon="1.38557">
        <ele>1796.8000488281</ele>
        <time>2013-08-10T11:03:22.000Z</time>
      </trkpt>
      <trkpt lat="42.71265" lon="1.3856">
        <ele>1796.4000244141</ele>
        <time>2013-08-10T11:03:24.000Z</time>
      </trkpt>
      <trkpt lat="42.71267" lon="1.38567">
        <ele>1795.4000244141</ele>
        <time>2013-08-10T11:03:28.000Z</time>
      </trkpt>
      <trkpt lat="42.71269" lon="1.38578">
        <ele>1794</ele>
        <time>2013-08-10T11:03:34.000Z</time>
      </trkpt>
      <trkpt lat="42.71271" lon="1.38583">
        <ele>1793</ele>
        <time>2013-08-10T11:03:38.000Z</time>
      </trkpt>
      <trkpt lat="42.71274" lon="1.3859">
        <ele>1792.4000244141</ele>
        <time>2013-08-10T11:03:42.000Z</time>
      </trkpt>
      <trkpt lat="42.71277" lon="1.38598">
        <ele>1791.4000244141</ele>
        <time>2013-08-10T11:03:47.000Z</time>
      </trkpt>
      <trkpt lat="42.71277" lon="1.38603">
        <ele>1790.4000244141</ele>
        <time>2013-08-10T11:03:50.000Z</time>
      </trkpt>
      <trkpt lat="42.71277" lon="1.38605">
        <ele>1790.4000244141</ele>
        <time>2013-08-10T11:03:51.000Z</time>
      </trkpt>
      <trkpt lat="42.71278" lon="1.38606">
        <ele>1790</ele>
        <time>2013-08-10T11:03:52.000Z</time>
      </trkpt>
      <trkpt lat="42.71282" lon="1.38608">
        <ele>1789.4000244141</ele>
        <time>2013-08-10T11:03:56.000Z</time>
      </trkpt>
      <trkpt lat="42.71284" lon="1.38615">
        <ele>1788.4000244141</ele>
        <time>2013-08-10T11:04:00.000Z</time>
      </trkpt>
      <trkpt lat="42.71287" lon="1.38622">
        <ele>1787.4000244141</ele>
        <time>2013-08-10T11:04:05.000Z</time>
      </trkpt>
      <trkpt lat="42.71283" lon="1.38626">
        <ele>1779.4000244141</ele>
        <time>2013-08-10T11:04:49.000Z</time>
      </trkpt>
      <trkpt lat="42.71284" lon="1.38638">
        <ele>1778.4000244141</ele>
        <time>2013-08-10T11:04:54.000Z</time>
      </trkpt>
      <trkpt lat="42.71286" lon="1.38644">
        <ele>1778</ele>
        <time>2013-08-10T11:04:57.000Z</time>
      </trkpt>
      <trkpt lat="42.71287" lon="1.38646">
        <ele>1778</ele>
        <time>2013-08-10T11:04:58.000Z</time>
      </trkpt>
      <trkpt lat="42.71292" lon="1.38653">
        <ele>1777</ele>
        <time>2013-08-10T11:05:03.000Z</time>
      </trkpt>
      <trkpt lat="42.71298" lon="1.38659">
        <ele>1776</ele>
        <time>2013-08-10T11:05:08.000Z</time>
      </trkpt>
      <trkpt lat="42.71306" lon="1.38663">
        <ele>1775</ele>
        <time>2013-08-10T11:05:14.000Z</time>
      </trkpt>
      <trkpt lat="42.71313" lon="1.38668">
        <ele>1773.8000488281</ele>
        <time>2013-08-10T11:05:20.000Z</time>
      </trkpt>
      <trkpt lat="42.7132" lon="1.38674">
        <ele>1772.4000244141</ele>
        <time>2013-08-10T11:05:26.000Z</time>
      </trkpt>
      <trkpt lat="42.71322" lon="1.38675">
        <ele>1772</ele>
        <time>2013-08-10T11:05:28.000Z</time>
      </trkpt>
      <trkpt lat="42.71325" lon="1.38678">
        <ele>1771.4000244141</ele>
        <time>2013-08-10T11:05:31.000Z</time>
      </trkpt>
      <trkpt lat="42.71329" lon="1.38686">
        <ele>1770</ele>
        <time>2013-08-10T11:05:37.000Z</time>
      </trkpt>
      <trkpt lat="42.71332" lon="1.38699">
        <ele>1768.4000244141</ele>
        <time>2013-08-10T11:05:43.000Z</time>
      </trkpt>
      <trkpt lat="42.71335" lon="1.38709">
        <ele>1767.4000244141</ele>
        <time>2013-08-10T11:05:48.000Z</time>
      </trkpt>
      <trkpt lat="42.71337" lon="1.38717">
        <ele>1766</ele>
        <time>2013-08-10T11:05:53.000Z</time>
      </trkpt>
      <trkpt lat="42.7134" lon="1.38717">
        <ele>1765</ele>
        <time>2013-08-10T11:05:57.000Z</time>
      </trkpt>
      <trkpt lat="42.71341" lon="1.38721">
        <ele>1764.8000488281</ele>
        <time>2013-08-10T11:05:59.000Z</time>
      </trkpt>
      <trkpt lat="42.71343" lon="1.38729">
        <ele>1763.4000244141</ele>
        <time>2013-08-10T11:06:04.000Z</time>
      </trkpt>
      <trkpt lat="42.71344" lon="1.38733">
        <ele>1762.4000244141</ele>
        <time>2013-08-10T11:06:07.000Z</time>
      </trkpt>
      <trkpt lat="42.71345" lon="1.38736">
        <ele>1762</ele>
        <time>2013-08-10T11:06:09.000Z</time>
      </trkpt>
      <trkpt lat="42.71348" lon="1.38741">
        <ele>1761</ele>
        <time>2013-08-10T11:06:13.000Z</time>
      </trkpt>
      <trkpt lat="42.71349" lon="1.38746">
        <ele>1760</ele>
        <time>2013-08-10T11:06:16.000Z</time>
      </trkpt>
      <trkpt lat="42.7135" lon="1.38753">
        <ele>1759</ele>
        <time>2013-08-10T11:06:20.000Z</time>
      </trkpt>
      <trkpt lat="42.71352" lon="1.38767">
        <ele>1757</ele>
        <time>2013-08-10T11:06:28.000Z</time>
      </trkpt>
      <trkpt lat="42.71352" lon="1.38781">
        <ele>1755</ele>
        <time>2013-08-10T11:06:34.000Z</time>
      </trkpt>
      <trkpt lat="42.71354" lon="1.38794">
        <ele>1753.4000244141</ele>
        <time>2013-08-10T11:06:40.000Z</time>
      </trkpt>
      <trkpt lat="42.71356" lon="1.38796">
        <ele>1753.4000244141</ele>
        <time>2013-08-10T11:06:41.000Z</time>
      </trkpt>
      <trkpt lat="42.71356" lon="1.388">
        <ele>1752.8000488281</ele>
        <time>2013-08-10T11:06:43.000Z</time>
      </trkpt>
      <trkpt lat="42.71358" lon="1.38807">
        <ele>1751.4000244141</ele>
        <time>2013-08-10T11:06:47.000Z</time>
      </trkpt>
      <trkpt lat="42.7136" lon="1.38814">
        <ele>1750.4000244141</ele>
        <time>2013-08-10T11:06:51.000Z</time>
      </trkpt>
      <trkpt lat="42.7136" lon="1.38818">
        <ele>1750</ele>
        <time>2013-08-10T11:06:53.000Z</time>
      </trkpt>
      <trkpt lat="42.7136" lon="1.3882">
        <ele>1749.8000488281</ele>
        <time>2013-08-10T11:06:54.000Z</time>
      </trkpt>
      <trkpt lat="42.7136" lon="1.38824">
        <ele>1749</ele>
        <time>2013-08-10T11:06:56.000Z</time>
      </trkpt>
      <trkpt lat="42.71362" lon="1.38835">
        <ele>1747.4000244141</ele>
        <time>2013-08-10T11:07:01.000Z</time>
      </trkpt>
      <trkpt lat="42.71363" lon="1.38849">
        <ele>1745.4000244141</ele>
        <time>2013-08-10T11:07:08.000Z</time>
      </trkpt>
      <trkpt lat="42.71368" lon="1.38858">
        <ele>1744</ele>
        <time>2013-08-10T11:07:14.000Z</time>
      </trkpt>
      <trkpt lat="42.71369" lon="1.38867">
        <ele>1742.4000244141</ele>
        <time>2013-08-10T11:07:19.000Z</time>
      </trkpt>
      <trkpt lat="42.71369" lon="1.38876">
        <ele>1741</ele>
        <time>2013-08-10T11:07:24.000Z</time>
      </trkpt>
      <trkpt lat="42.7137" lon="1.38886">
        <ele>1740</ele>
        <time>2013-08-10T11:07:29.000Z</time>
      </trkpt>
      <trkpt lat="42.71371" lon="1.38896">
        <ele>1738.4000244141</ele>
        <time>2013-08-10T11:07:35.000Z</time>
      </trkpt>
      <trkpt lat="42.71371" lon="1.389">
        <ele>1738</ele>
        <time>2013-08-10T11:07:37.000Z</time>
      </trkpt>
      <trkpt lat="42.71371" lon="1.38905">
        <ele>1737</ele>
        <time>2013-08-10T11:07:40.000Z</time>
      </trkpt>
      <trkpt lat="42.71372" lon="1.38914">
        <ele>1736.4000244141</ele>
        <time>2013-08-10T11:07:44.000Z</time>
      </trkpt>
      <trkpt lat="42.71372" lon="1.38918">
        <ele>1736</ele>
        <time>2013-08-10T11:07:46.000Z</time>
      </trkpt>
      <trkpt lat="42.71374" lon="1.38925">
        <ele>1735</ele>
        <time>2013-08-10T11:07:50.000Z</time>
      </trkpt>
      <trkpt lat="42.71375" lon="1.38933">
        <ele>1734</ele>
        <time>2013-08-10T11:07:55.000Z</time>
      </trkpt>
      <trkpt lat="42.71377" lon="1.3894">
        <ele>1733</ele>
        <time>2013-08-10T11:07:59.000Z</time>
      </trkpt>
      <trkpt lat="42.71378" lon="1.38944">
        <ele>1732.4000244141</ele>
        <time>2013-08-10T11:08:01.000Z</time>
      </trkpt>
      <trkpt lat="42.71379" lon="1.38957">
        <ele>1731</ele>
        <time>2013-08-10T11:08:08.000Z</time>
      </trkpt>
      <trkpt lat="42.7138" lon="1.38969">
        <ele>1729.8000488281</ele>
        <time>2013-08-10T11:08:14.000Z</time>
      </trkpt>
      <trkpt lat="42.7138" lon="1.38981">
        <ele>1728.4000244141</ele>
        <time>2013-08-10T11:08:20.000Z</time>
      </trkpt>
      <trkpt lat="42.71381" lon="1.38993">
        <ele>1727</ele>
        <time>2013-08-10T11:08:26.000Z</time>
      </trkpt>
      <trkpt lat="42.71382" lon="1.39006">
        <ele>1726</ele>
        <time>2013-08-10T11:08:32.000Z</time>
      </trkpt>
      <trkpt lat="42.71384" lon="1.39018">
        <ele>1724.4000244141</ele>
        <time>2013-08-10T11:08:39.000Z</time>
      </trkpt>
      <trkpt lat="42.71387" lon="1.39029">
        <ele>1723.4000244141</ele>
        <time>2013-08-10T11:08:45.000Z</time>
      </trkpt>
      <trkpt lat="42.71388" lon="1.3903">
        <ele>1723</ele>
        <time>2013-08-10T11:08:46.000Z</time>
      </trkpt>
      <trkpt lat="42.71388" lon="1.39036">
        <ele>1722.4000244141</ele>
        <time>2013-08-10T11:08:49.000Z</time>
      </trkpt>
      <trkpt lat="42.71385" lon="1.39043">
        <ele>1721.4000244141</ele>
        <time>2013-08-10T11:08:53.000Z</time>
      </trkpt>
      <trkpt lat="42.71385" lon="1.39045">
        <ele>1721.4000244141</ele>
        <time>2013-08-10T11:08:54.000Z</time>
      </trkpt>
      <trkpt lat="42.71384" lon="1.3905">
        <ele>1720.8000488281</ele>
        <time>2013-08-10T11:08:57.000Z</time>
      </trkpt>
      <trkpt lat="42.71384" lon="1.39054">
        <ele>1720.4000244141</ele>
        <time>2013-08-10T11:08:59.000Z</time>
      </trkpt>
      <trkpt lat="42.71384" lon="1.39062">
        <ele>1719.4000244141</ele>
        <time>2013-08-10T11:09:04.000Z</time>
      </trkpt>
      <trkpt lat="42.71383" lon="1.39065">
        <ele>1719</ele>
        <time>2013-08-10T11:09:06.000Z</time>
      </trkpt>
      <trkpt lat="42.71381" lon="1.3907">
        <ele>1718</ele>
        <time>2013-08-10T11:09:09.000Z</time>
      </trkpt>
      <trkpt lat="42.71379" lon="1.39078">
        <ele>1717.4000244141</ele>
        <time>2013-08-10T11:09:13.000Z</time>
      </trkpt>
      <trkpt lat="42.71379" lon="1.39082">
        <ele>1717</ele>
        <time>2013-08-10T11:09:15.000Z</time>
      </trkpt>
      <trkpt lat="42.71376" lon="1.3909">
        <ele>1716</ele>
        <time>2013-08-10T11:09:20.000Z</time>
      </trkpt>
      <trkpt lat="42.71375" lon="1.39092">
        <ele>1715.8000488281</ele>
        <time>2013-08-10T11:09:21.000Z</time>
      </trkpt>
      <trkpt lat="42.71376" lon="1.39099">
        <ele>1714.8000488281</ele>
        <time>2013-08-10T11:09:25.000Z</time>
      </trkpt>
      <trkpt lat="42.71377" lon="1.39109">
        <ele>1714</ele>
        <time>2013-08-10T11:09:30.000Z</time>
      </trkpt>
      <trkpt lat="42.71378" lon="1.39114">
        <ele>1713.4000244141</ele>
        <time>2013-08-10T11:09:33.000Z</time>
      </trkpt>
      <trkpt lat="42.71379" lon="1.39123">
        <ele>1712.4000244141</ele>
        <time>2013-08-10T11:09:37.000Z</time>
      </trkpt>
      <trkpt lat="42.71381" lon="1.39132">
        <ele>1711.4000244141</ele>
        <time>2013-08-10T11:09:42.000Z</time>
      </trkpt>
      <trkpt lat="42.71381" lon="1.39134">
        <ele>1711.4000244141</ele>
        <time>2013-08-10T11:09:43.000Z</time>
      </trkpt>
      <trkpt lat="42.71383" lon="1.39139">
        <ele>1710.8000488281</ele>
        <time>2013-08-10T11:09:46.000Z</time>
      </trkpt>
      <trkpt lat="42.71383" lon="1.39141">
        <ele>1710.4000244141</ele>
        <time>2013-08-10T11:09:47.000Z</time>
      </trkpt>
      <trkpt lat="42.71386" lon="1.39148">
        <ele>1709.8000488281</ele>
        <time>2013-08-10T11:09:51.000Z</time>
      </trkpt>
      <trkpt lat="42.71386" lon="1.39151">
        <ele>1709.4000244141</ele>
        <time>2013-08-10T11:09:53.000Z</time>
      </trkpt>
      <trkpt lat="42.71388" lon="1.39155">
        <ele>1708.8000488281</ele>
        <time>2013-08-10T11:09:56.000Z</time>
      </trkpt>
      <trkpt lat="42.7139" lon="1.39157">
        <ele>1708.4000244141</ele>
        <time>2013-08-10T11:09:58.000Z</time>
      </trkpt>
      <trkpt lat="42.71393" lon="1.39161">
        <ele>1707.8000488281</ele>
        <time>2013-08-10T11:10:01.000Z</time>
      </trkpt>
      <trkpt lat="42.71397" lon="1.39168">
        <ele>1707</ele>
        <time>2013-08-10T11:10:06.000Z</time>
      </trkpt>
      <trkpt lat="42.71401" lon="1.39177">
        <ele>1705.8000488281</ele>
        <time>2013-08-10T11:10:12.000Z</time>
      </trkpt>
      <trkpt lat="42.71405" lon="1.39188">
        <ele>1704.8000488281</ele>
        <time>2013-08-10T11:10:19.000Z</time>
      </trkpt>
      <trkpt lat="42.71407" lon="1.392">
        <ele>1703.4000244141</ele>
        <time>2013-08-10T11:10:26.000Z</time>
      </trkpt>
      <trkpt lat="42.71408" lon="1.39208">
        <ele>1702.8000488281</ele>
        <time>2013-08-10T11:10:31.000Z</time>
      </trkpt>
      <trkpt lat="42.7141" lon="1.39211">
        <ele>1702.4000244141</ele>
        <time>2013-08-10T11:10:33.000Z</time>
      </trkpt>
      <trkpt lat="42.71411" lon="1.39217">
        <ele>1702</ele>
        <time>2013-08-10T11:10:36.000Z</time>
      </trkpt>
      <trkpt lat="42.71413" lon="1.39228">
        <ele>1701</ele>
        <time>2013-08-10T11:10:42.000Z</time>
      </trkpt>
      <trkpt lat="42.71412" lon="1.39234">
        <ele>1700.8000488281</ele>
        <time>2013-08-10T11:10:45.000Z</time>
      </trkpt>
      <trkpt lat="42.71413" lon="1.39237">
        <ele>1700.8000488281</ele>
        <time>2013-08-10T11:10:46.000Z</time>
      </trkpt>
      <trkpt lat="42.71414" lon="1.39253">
        <ele>1699.8000488281</ele>
        <time>2013-08-10T11:10:54.000Z</time>
      </trkpt>
      <trkpt lat="42.71414" lon="1.39265">
        <ele>1699</ele>
        <time>2013-08-10T11:11:00.000Z</time>
      </trkpt>
      <trkpt lat="42.71414" lon="1.39276">
        <ele>1698.4000244141</ele>
        <time>2013-08-10T11:11:05.000Z</time>
      </trkpt>
      <trkpt lat="42.71414" lon="1.39278">
        <ele>1698</ele>
        <time>2013-08-10T11:11:06.000Z</time>
      </trkpt>
      <trkpt lat="42.71412" lon="1.39285">
        <ele>1697.8000488281</ele>
        <time>2013-08-10T11:11:10.000Z</time>
      </trkpt>
      <trkpt lat="42.71413" lon="1.39289">
        <ele>1697.4000244141</ele>
        <time>2013-08-10T11:11:12.000Z</time>
      </trkpt>
      <trkpt lat="42.71416" lon="1.39299">
        <ele>1697</ele>
        <time>2013-08-10T11:11:17.000Z</time>
      </trkpt>
      <trkpt lat="42.71417" lon="1.39307">
        <ele>1696.4000244141</ele>
        <time>2013-08-10T11:11:21.000Z</time>
      </trkpt>
      <trkpt lat="42.7142" lon="1.39311">
        <ele>1696</ele>
        <time>2013-08-10T11:11:24.000Z</time>
      </trkpt>
      <trkpt lat="42.71423" lon="1.39317">
        <ele>1695.4000244141</ele>
        <time>2013-08-10T11:11:28.000Z</time>
      </trkpt>
      <trkpt lat="42.71424" lon="1.39319">
        <ele>1695.4000244141</ele>
        <time>2013-08-10T11:11:29.000Z</time>
      </trkpt>
      <trkpt lat="42.71426" lon="1.39322">
        <ele>1695</ele>
        <time>2013-08-10T11:11:31.000Z</time>
      </trkpt>
      <trkpt lat="42.71427" lon="1.39327">
        <ele>1694.8000488281</ele>
        <time>2013-08-10T11:11:34.000Z</time>
      </trkpt>
      <trkpt lat="42.71428" lon="1.39331">
        <ele>1694.4000244141</ele>
        <time>2013-08-10T11:11:36.000Z</time>
      </trkpt>
      <trkpt lat="42.71428" lon="1.39337">
        <ele>1694</ele>
        <time>2013-08-10T11:11:39.000Z</time>
      </trkpt>
      <trkpt lat="42.71432" lon="1.39346">
        <ele>1693.4000244141</ele>
        <time>2013-08-10T11:11:45.000Z</time>
      </trkpt>
      <trkpt lat="42.71434" lon="1.39348">
        <ele>1693.4000244141</ele>
        <time>2013-08-10T11:11:46.000Z</time>
      </trkpt>
      <trkpt lat="42.71437" lon="1.39355">
        <ele>1693</ele>
        <time>2013-08-10T11:11:50.000Z</time>
      </trkpt>
      <trkpt lat="42.71445" lon="1.39365">
        <ele>1692</ele>
        <time>2013-08-10T11:11:57.000Z</time>
      </trkpt>
      <trkpt lat="42.71447" lon="1.3937">
        <ele>1691.8000488281</ele>
        <time>2013-08-10T11:12:00.000Z</time>
      </trkpt>
      <trkpt lat="42.7145" lon="1.39373">
        <ele>1691.4000244141</ele>
        <time>2013-08-10T11:12:03.000Z</time>
      </trkpt>
      <trkpt lat="42.7145" lon="1.39375">
        <ele>1691.4000244141</ele>
        <time>2013-08-10T11:12:04.000Z</time>
      </trkpt>
      <trkpt lat="42.71455" lon="1.39381">
        <ele>1690.8000488281</ele>
        <time>2013-08-10T11:12:08.000Z</time>
      </trkpt>
      <trkpt lat="42.7146" lon="1.39387">
        <ele>1690.4000244141</ele>
        <time>2013-08-10T11:12:13.000Z</time>
      </trkpt>
      <trkpt lat="42.71462" lon="1.3939">
        <ele>1690</ele>
        <time>2013-08-10T11:12:15.000Z</time>
      </trkpt>
      <trkpt lat="42.71465" lon="1.39394">
        <ele>1689.8000488281</ele>
        <time>2013-08-10T11:12:18.000Z</time>
      </trkpt>
      <trkpt lat="42.71469" lon="1.394">
        <ele>1689</ele>
        <time>2013-08-10T11:12:22.000Z</time>
      </trkpt>
      <trkpt lat="42.71474" lon="1.39408">
        <ele>1688.8000488281</ele>
        <time>2013-08-10T11:12:27.000Z</time>
      </trkpt>
      <trkpt lat="42.71476" lon="1.39418">
        <ele>1688</ele>
        <time>2013-08-10T11:12:32.000Z</time>
      </trkpt>
      <trkpt lat="42.71476" lon="1.39419">
        <ele>1688</ele>
        <time>2013-08-10T11:12:33.000Z</time>
      </trkpt>
      <trkpt lat="42.71479" lon="1.39423">
        <ele>1687.4000244141</ele>
        <time>2013-08-10T11:12:37.000Z</time>
      </trkpt>
      <trkpt lat="42.71479" lon="1.39424">
        <ele>1687.4000244141</ele>
        <time>2013-08-10T11:12:38.000Z</time>
      </trkpt>
      <trkpt lat="42.7148" lon="1.39425">
        <ele>1687.4000244141</ele>
        <time>2013-08-10T11:12:39.000Z</time>
      </trkpt>
      <trkpt lat="42.71483" lon="1.39425">
        <ele>1687</ele>
        <time>2013-08-10T11:12:42.000Z</time>
      </trkpt>
      <trkpt lat="42.71486" lon="1.3943">
        <ele>1686.4000244141</ele>
        <time>2013-08-10T11:12:46.000Z</time>
      </trkpt>
      <trkpt lat="42.71486" lon="1.39439">
        <ele>1685.4000244141</ele>
        <time>2013-08-10T11:12:51.000Z</time>
      </trkpt>
      <trkpt lat="42.71488" lon="1.39442">
        <ele>1685</ele>
        <time>2013-08-10T11:12:54.000Z</time>
      </trkpt>
      <trkpt lat="42.7149" lon="1.39445">
        <ele>1684.8000488281</ele>
        <time>2013-08-10T11:12:56.000Z</time>
      </trkpt>
      <trkpt lat="42.7149" lon="1.39448">
        <ele>1684.4000244141</ele>
        <time>2013-08-10T11:12:58.000Z</time>
      </trkpt>
      <trkpt lat="42.71491" lon="1.39456">
        <ele>1683.8000488281</ele>
        <time>2013-08-10T11:13:02.000Z</time>
      </trkpt>
      <trkpt lat="42.71491" lon="1.39459">
        <ele>1683.4000244141</ele>
        <time>2013-08-10T11:13:04.000Z</time>
      </trkpt>
      <trkpt lat="42.71493" lon="1.39468">
        <ele>1682.8000488281</ele>
        <time>2013-08-10T11:13:08.000Z</time>
      </trkpt>
      <trkpt lat="42.71493" lon="1.39476">
        <ele>1682</ele>
        <time>2013-08-10T11:13:12.000Z</time>
      </trkpt>
      <trkpt lat="42.71494" lon="1.39479">
        <ele>1681.4000244141</ele>
        <time>2013-08-10T11:13:14.000Z</time>
      </trkpt>
      <trkpt lat="42.71497" lon="1.39491">
        <ele>1680</ele>
        <time>2013-08-10T11:13:22.000Z</time>
      </trkpt>
      <trkpt lat="42.71497" lon="1.39499">
        <ele>1679</ele>
        <time>2013-08-10T11:13:26.000Z</time>
      </trkpt>
      <trkpt lat="42.71498" lon="1.39506">
        <ele>1678.4000244141</ele>
        <time>2013-08-10T11:13:30.000Z</time>
      </trkpt>
      <trkpt lat="42.71499" lon="1.39515">
        <ele>1677.4000244141</ele>
        <time>2013-08-10T11:13:35.000Z</time>
      </trkpt>
      <trkpt lat="42.715" lon="1.39517">
        <ele>1677</ele>
        <time>2013-08-10T11:13:36.000Z</time>
      </trkpt>
      <trkpt lat="42.71502" lon="1.39525">
        <ele>1676</ele>
        <time>2013-08-10T11:13:40.000Z</time>
      </trkpt>
      <trkpt lat="42.71503" lon="1.39526">
        <ele>1676</ele>
        <time>2013-08-10T11:13:41.000Z</time>
      </trkpt>
      <trkpt lat="42.71505" lon="1.39532">
        <ele>1675</ele>
        <time>2013-08-10T11:13:45.000Z</time>
      </trkpt>
      <trkpt lat="42.71505" lon="1.39538">
        <ele>1674.4000244141</ele>
        <time>2013-08-10T11:13:48.000Z</time>
      </trkpt>
      <trkpt lat="42.71506" lon="1.39545">
        <ele>1673.4000244141</ele>
        <time>2013-08-10T11:13:52.000Z</time>
      </trkpt>
      <trkpt lat="42.71506" lon="1.39547">
        <ele>1673.4000244141</ele>
        <time>2013-08-10T11:13:53.000Z</time>
      </trkpt>
      <trkpt lat="42.71506" lon="1.39549">
        <ele>1673</ele>
        <time>2013-08-10T11:13:54.000Z</time>
      </trkpt>
      <trkpt lat="42.71509" lon="1.39555">
        <ele>1672.4000244141</ele>
        <time>2013-08-10T11:13:58.000Z</time>
      </trkpt>
      <trkpt lat="42.7151" lon="1.39559">
        <ele>1672</ele>
        <time>2013-08-10T11:14:00.000Z</time>
      </trkpt>
      <trkpt lat="42.71511" lon="1.39563">
        <ele>1671</ele>
        <time>2013-08-10T11:14:03.000Z</time>
      </trkpt>
      <trkpt lat="42.71512" lon="1.39564">
        <ele>1671</ele>
        <time>2013-08-10T11:14:04.000Z</time>
      </trkpt>
      <trkpt lat="42.71513" lon="1.39572">
        <ele>1669.8000488281</ele>
        <time>2013-08-10T11:14:10.000Z</time>
      </trkpt>
      <trkpt lat="42.71514" lon="1.39573">
        <ele>1669.4000244141</ele>
        <time>2013-08-10T11:14:11.000Z</time>
      </trkpt>
      <trkpt lat="42.71515" lon="1.39579">
        <ele>1668.4000244141</ele>
        <time>2013-08-10T11:14:15.000Z</time>
      </trkpt>
      <trkpt lat="42.71517" lon="1.39585">
        <ele>1667.4000244141</ele>
        <time>2013-08-10T11:14:19.000Z</time>
      </trkpt>
      <trkpt lat="42.71517" lon="1.39593">
        <ele>1666.4000244141</ele>
        <time>2013-08-10T11:14:24.000Z</time>
      </trkpt>
      <trkpt lat="42.71519" lon="1.39599">
        <ele>1665.8000488281</ele>
        <time>2013-08-10T11:14:27.000Z</time>
      </trkpt>
      <trkpt lat="42.71518" lon="1.39601">
        <ele>1665.4000244141</ele>
        <time>2013-08-10T11:14:28.000Z</time>
      </trkpt>
      <trkpt lat="42.71519" lon="1.39602">
        <ele>1665</ele>
        <time>2013-08-10T11:14:29.000Z</time>
      </trkpt>
      <trkpt lat="42.71521" lon="1.39611">
        <ele>1664</ele>
        <time>2013-08-10T11:14:34.000Z</time>
      </trkpt>
      <trkpt lat="42.71521" lon="1.39619">
        <ele>1662.8000488281</ele>
        <time>2013-08-10T11:14:39.000Z</time>
      </trkpt>
      <trkpt lat="42.71523" lon="1.39624">
        <ele>1661.8000488281</ele>
        <time>2013-08-10T11:14:43.000Z</time>
      </trkpt>
      <trkpt lat="42.71523" lon="1.39627">
        <ele>1661.4000244141</ele>
        <time>2013-08-10T11:14:45.000Z</time>
      </trkpt>
      <trkpt lat="42.71525" lon="1.39637">
        <ele>1659.4000244141</ele>
        <time>2013-08-10T11:14:52.000Z</time>
      </trkpt>
      <trkpt lat="42.71525" lon="1.39638">
        <ele>1659.4000244141</ele>
        <time>2013-08-10T11:14:53.000Z</time>
      </trkpt>
      <trkpt lat="42.71523" lon="1.39645">
        <ele>1658</ele>
        <time>2013-08-10T11:14:58.000Z</time>
      </trkpt>
      <trkpt lat="42.71525" lon="1.39653">
        <ele>1656.4000244141</ele>
        <time>2013-08-10T11:15:05.000Z</time>
      </trkpt>
      <trkpt lat="42.71527" lon="1.39655">
        <ele>1655.4000244141</ele>
        <time>2013-08-10T11:15:08.000Z</time>
      </trkpt>
      <trkpt lat="42.71527" lon="1.39657">
        <ele>1655.4000244141</ele>
        <time>2013-08-10T11:15:09.000Z</time>
      </trkpt>
      <trkpt lat="42.71526" lon="1.39658">
        <ele>1655</ele>
        <time>2013-08-10T11:15:10.000Z</time>
      </trkpt>
      <trkpt lat="42.71523" lon="1.39663">
        <ele>1654</ele>
        <time>2013-08-10T11:15:14.000Z</time>
      </trkpt>
      <trkpt lat="42.71524" lon="1.39665">
        <ele>1653.8000488281</ele>
        <time>2013-08-10T11:15:16.000Z</time>
      </trkpt>
      <trkpt lat="42.71526" lon="1.39666">
        <ele>1653</ele>
        <time>2013-08-10T11:15:18.000Z</time>
      </trkpt>
      <trkpt lat="42.71527" lon="1.39668">
        <ele>1652.8000488281</ele>
        <time>2013-08-10T11:15:20.000Z</time>
      </trkpt>
      <trkpt lat="42.71528" lon="1.39668">
        <ele>1652.4000244141</ele>
        <time>2013-08-10T11:15:21.000Z</time>
      </trkpt>
      <trkpt lat="42.7153" lon="1.39675">
        <ele>1651</ele>
        <time>2013-08-10T11:15:26.000Z</time>
      </trkpt>
      <trkpt lat="42.7153" lon="1.39676">
        <ele>1650.4000244141</ele>
        <time>2013-08-10T11:15:28.000Z</time>
      </trkpt>
      <trkpt lat="42.71531" lon="1.39677">
        <ele>1650</ele>
        <time>2013-08-10T11:15:29.000Z</time>
      </trkpt>
      <trkpt lat="42.71533" lon="1.39677">
        <ele>1649.8000488281</ele>
        <time>2013-08-10T11:15:31.000Z</time>
      </trkpt>
      <trkpt lat="42.71536" lon="1.39677">
        <ele>1649</ele>
        <time>2013-08-10T11:15:34.000Z</time>
      </trkpt>
      <trkpt lat="42.71539" lon="1.39676">
        <ele>1648</ele>
        <time>2013-08-10T11:15:37.000Z</time>
      </trkpt>
      <trkpt lat="42.71541" lon="1.39677">
        <ele>1647.4000244141</ele>
        <time>2013-08-10T11:15:39.000Z</time>
      </trkpt>
      <trkpt lat="42.71544" lon="1.39679">
        <ele>1646.8000488281</ele>
        <time>2013-08-10T11:15:42.000Z</time>
      </trkpt>
      <trkpt lat="42.71546" lon="1.39683">
        <ele>1645.8000488281</ele>
        <time>2013-08-10T11:15:46.000Z</time>
      </trkpt>
      <trkpt lat="42.71553" lon="1.39685">
        <ele>1644</ele>
        <time>2013-08-10T11:15:52.000Z</time>
      </trkpt>
      <trkpt lat="42.71558" lon="1.39688">
        <ele>1643</ele>
        <time>2013-08-10T11:15:57.000Z</time>
      </trkpt>
      <trkpt lat="42.71565" lon="1.39693">
        <ele>1641.4000244141</ele>
        <time>2013-08-10T11:16:03.000Z</time>
      </trkpt>
      <trkpt lat="42.7157" lon="1.39698">
        <ele>1640</ele>
        <time>2013-08-10T11:16:08.000Z</time>
      </trkpt>
      <trkpt lat="42.71571" lon="1.39699">
        <ele>1639.8000488281</ele>
        <time>2013-08-10T11:16:09.000Z</time>
      </trkpt>
      <trkpt lat="42.71578" lon="1.39706">
        <ele>1638</ele>
        <time>2013-08-10T11:16:15.000Z</time>
      </trkpt>
      <trkpt lat="42.71575" lon="1.39707">
        <ele>1637.4000244141</ele>
        <time>2013-08-10T11:16:18.000Z</time>
      </trkpt>
      <trkpt lat="42.71571" lon="1.39706">
        <ele>1636.8000488281</ele>
        <time>2013-08-10T11:16:21.000Z</time>
      </trkpt>
      <trkpt lat="42.7157" lon="1.39706">
        <ele>1636.4000244141</ele>
        <time>2013-08-10T11:16:22.000Z</time>
      </trkpt>
      <trkpt lat="42.71569" lon="1.39707">
        <ele>1636</ele>
        <time>2013-08-10T11:16:23.000Z</time>
      </trkpt>
      <trkpt lat="42.71565" lon="1.39709">
        <ele>1635</ele>
        <time>2013-08-10T11:16:27.000Z</time>
      </trkpt>
      <trkpt lat="42.71562" lon="1.39709">
        <ele>1634.4000244141</ele>
        <time>2013-08-10T11:16:29.000Z</time>
      </trkpt>
      <trkpt lat="42.71558" lon="1.39708">
        <ele>1633.8000488281</ele>
        <time>2013-08-10T11:16:32.000Z</time>
      </trkpt>
      <trkpt lat="42.71555" lon="1.39709">
        <ele>1633</ele>
        <time>2013-08-10T11:16:34.000Z</time>
      </trkpt>
      <trkpt lat="42.71551" lon="1.39713">
        <ele>1631.8000488281</ele>
        <time>2013-08-10T11:16:39.000Z</time>
      </trkpt>
      <trkpt lat="42.71553" lon="1.39717">
        <ele>1630.4000244141</ele>
        <time>2013-08-10T11:16:44.000Z</time>
      </trkpt>
      <trkpt lat="42.7156" lon="1.39717">
        <ele>1628.8000488281</ele>
        <time>2013-08-10T11:16:50.000Z</time>
      </trkpt>
      <trkpt lat="42.71561" lon="1.39717">
        <ele>1628.4000244141</ele>
        <time>2013-08-10T11:16:51.000Z</time>
      </trkpt>
      <trkpt lat="42.71562" lon="1.39717">
        <ele>1628</ele>
        <time>2013-08-10T11:16:52.000Z</time>
      </trkpt>
      <trkpt lat="42.71563" lon="1.3972">
        <ele>1627.4000244141</ele>
        <time>2013-08-10T11:16:54.000Z</time>
      </trkpt>
      <trkpt lat="42.71566" lon="1.39727">
        <ele>1626</ele>
        <time>2013-08-10T11:16:59.000Z</time>
      </trkpt>
      <trkpt lat="42.71567" lon="1.3973">
        <ele>1625.4000244141</ele>
        <time>2013-08-10T11:17:02.000Z</time>
      </trkpt>
      <trkpt lat="42.71567" lon="1.3973">
        <ele>1624.8000488281</ele>
        <time>2013-08-10T11:17:04.000Z</time>
      </trkpt>
      <trkpt lat="42.71569" lon="1.39737">
        <ele>1623</ele>
        <time>2013-08-10T11:17:10.000Z</time>
      </trkpt>
      <trkpt lat="42.71571" lon="1.39742">
        <ele>1622</ele>
        <time>2013-08-10T11:17:14.000Z</time>
      </trkpt>
      <trkpt lat="42.71571" lon="1.39746">
        <ele>1621.4000244141</ele>
        <time>2013-08-10T11:17:16.000Z</time>
      </trkpt>
      <trkpt lat="42.71568" lon="1.39743">
        <ele>1620.4000244141</ele>
        <time>2013-08-10T11:17:19.000Z</time>
      </trkpt>
      <trkpt lat="42.71565" lon="1.39741">
        <ele>1619.8000488281</ele>
        <time>2013-08-10T11:17:21.000Z</time>
      </trkpt>
      <trkpt lat="42.7156" lon="1.39739">
        <ele>1618.4000244141</ele>
        <time>2013-08-10T11:17:26.000Z</time>
      </trkpt>
      <trkpt lat="42.71557" lon="1.39739">
        <ele>1616.8000488281</ele>
        <time>2013-08-10T11:17:31.000Z</time>
      </trkpt>
      <trkpt lat="42.71555" lon="1.39739">
        <ele>1616</ele>
        <time>2013-08-10T11:17:33.000Z</time>
      </trkpt>
      <trkpt lat="42.71552" lon="1.39741">
        <ele>1615.4000244141</ele>
        <time>2013-08-10T11:17:36.000Z</time>
      </trkpt>
      <trkpt lat="42.7155" lon="1.39746">
        <ele>1614</ele>
        <time>2013-08-10T11:17:41.000Z</time>
      </trkpt>
      <trkpt lat="42.71546" lon="1.3975">
        <ele>1612.4000244141</ele>
        <time>2013-08-10T11:17:46.000Z</time>
      </trkpt>
      <trkpt lat="42.71544" lon="1.39756">
        <ele>1611</ele>
        <time>2013-08-10T11:17:51.000Z</time>
      </trkpt>
      <trkpt lat="42.71543" lon="1.39762">
        <ele>1609.8000488281</ele>
        <time>2013-08-10T11:17:56.000Z</time>
      </trkpt>
      <trkpt lat="42.71543" lon="1.39762">
        <ele>1609.4000244141</ele>
        <time>2013-08-10T11:17:57.000Z</time>
      </trkpt>
      <trkpt lat="42.71544" lon="1.39762">
        <ele>1609</ele>
        <time>2013-08-10T11:17:58.000Z</time>
      </trkpt>
      <trkpt lat="42.71547" lon="1.39762">
        <ele>1608.4000244141</ele>
        <time>2013-08-10T11:18:00.000Z</time>
      </trkpt>
      <trkpt lat="42.71549" lon="1.39766">
        <ele>1607.8000488281</ele>
        <time>2013-08-10T11:18:03.000Z</time>
      </trkpt>
      <trkpt lat="42.71548" lon="1.3977">
        <ele>1607</ele>
        <time>2013-08-10T11:18:06.000Z</time>
      </trkpt>
      <trkpt lat="42.71548" lon="1.39771">
        <ele>1606.8000488281</ele>
        <time>2013-08-10T11:18:07.000Z</time>
      </trkpt>
      <trkpt lat="42.71548" lon="1.39773">
        <ele>1606</ele>
        <time>2013-08-10T11:18:09.000Z</time>
      </trkpt>
      <trkpt lat="42.71553" lon="1.39775">
        <ele>1605</ele>
        <time>2013-08-10T11:18:13.000Z</time>
      </trkpt>
      <trkpt lat="42.71555" lon="1.39774">
        <ele>1604.4000244141</ele>
        <time>2013-08-10T11:18:15.000Z</time>
      </trkpt>
      <trkpt lat="42.71557" lon="1.39773">
        <ele>1604</ele>
        <time>2013-08-10T11:18:17.000Z</time>
      </trkpt>
      <trkpt lat="42.71559" lon="1.39775">
        <ele>1603.4000244141</ele>
        <time>2013-08-10T11:18:19.000Z</time>
      </trkpt>
      <trkpt lat="42.71564" lon="1.39777">
        <ele>1602.4000244141</ele>
        <time>2013-08-10T11:18:23.000Z</time>
      </trkpt>
      <trkpt lat="42.71565" lon="1.39778">
        <ele>1602</ele>
        <time>2013-08-10T11:18:24.000Z</time>
      </trkpt>
      <trkpt lat="42.71565" lon="1.39779">
        <ele>1601.8000488281</ele>
        <time>2013-08-10T11:18:25.000Z</time>
      </trkpt>
      <trkpt lat="42.71569" lon="1.39783">
        <ele>1600.8000488281</ele>
        <time>2013-08-10T11:18:29.000Z</time>
      </trkpt>
      <trkpt lat="42.71575" lon="1.39788">
        <ele>1599</ele>
        <time>2013-08-10T11:18:35.000Z</time>
      </trkpt>
      <trkpt lat="42.71576" lon="1.3979">
        <ele>1598.4000244141</ele>
        <time>2013-08-10T11:18:37.000Z</time>
      </trkpt>
      <trkpt lat="42.71577" lon="1.39792">
        <ele>1598.4000244141</ele>
        <time>2013-08-10T11:18:38.000Z</time>
      </trkpt>
      <trkpt lat="42.71579" lon="1.39797">
        <ele>1596.8000488281</ele>
        <time>2013-08-10T11:18:44.000Z</time>
      </trkpt>
      <trkpt lat="42.71579" lon="1.39798">
        <ele>1596.4000244141</ele>
        <time>2013-08-10T11:18:45.000Z</time>
      </trkpt>
      <trkpt lat="42.71577" lon="1.398">
        <ele>1595.4000244141</ele>
        <time>2013-08-10T11:18:49.000Z</time>
      </trkpt>
      <trkpt lat="42.71572" lon="1.39801">
        <ele>1594.4000244141</ele>
        <time>2013-08-10T11:18:52.000Z</time>
      </trkpt>
      <trkpt lat="42.71568" lon="1.39804">
        <ele>1593.8000488281</ele>
        <time>2013-08-10T11:18:55.000Z</time>
      </trkpt>
      <trkpt lat="42.71567" lon="1.39807">
        <ele>1593.4000244141</ele>
        <time>2013-08-10T11:18:57.000Z</time>
      </trkpt>
      <trkpt lat="42.71564" lon="1.39809">
        <ele>1592.4000244141</ele>
        <time>2013-08-10T11:19:00.000Z</time>
      </trkpt>
      <trkpt lat="42.71562" lon="1.39814">
        <ele>1591.4000244141</ele>
        <time>2013-08-10T11:19:05.000Z</time>
      </trkpt>
      <trkpt lat="42.71563" lon="1.39815">
        <ele>1591</ele>
        <time>2013-08-10T11:19:06.000Z</time>
      </trkpt>
      <trkpt lat="42.71564" lon="1.39814">
        <ele>1591</ele>
        <time>2013-08-10T11:19:07.000Z</time>
      </trkpt>
      <trkpt lat="42.71566" lon="1.39814">
        <ele>1590.4000244141</ele>
        <time>2013-08-10T11:19:09.000Z</time>
      </trkpt>
      <trkpt lat="42.71568" lon="1.39814">
        <ele>1590</ele>
        <time>2013-08-10T11:19:11.000Z</time>
      </trkpt>
      <trkpt lat="42.7157" lon="1.39815">
        <ele>1589.4000244141</ele>
        <time>2013-08-10T11:19:13.000Z</time>
      </trkpt>
      <trkpt lat="42.71573" lon="1.39816">
        <ele>1588.4000244141</ele>
        <time>2013-08-10T11:19:16.000Z</time>
      </trkpt>
      <trkpt lat="42.71577" lon="1.39819">
        <ele>1587.4000244141</ele>
        <time>2013-08-10T11:19:20.000Z</time>
      </trkpt>
      <trkpt lat="42.7158" lon="1.39824">
        <ele>1586.4000244141</ele>
        <time>2013-08-10T11:19:24.000Z</time>
      </trkpt>
      <trkpt lat="42.71581" lon="1.39827">
        <ele>1585.8000488281</ele>
        <time>2013-08-10T11:19:27.000Z</time>
      </trkpt>
      <trkpt lat="42.7158" lon="1.39829">
        <ele>1585</ele>
        <time>2013-08-10T11:19:29.000Z</time>
      </trkpt>
      <trkpt lat="42.71574" lon="1.3983">
        <ele>1584</ele>
        <time>2013-08-10T11:19:33.000Z</time>
      </trkpt>
      <trkpt lat="42.7157" lon="1.39831">
        <ele>1583</ele>
        <time>2013-08-10T11:19:36.000Z</time>
      </trkpt>
      <trkpt lat="42.71568" lon="1.39831">
        <ele>1582.4000244141</ele>
        <time>2013-08-10T11:19:38.000Z</time>
      </trkpt>
      <trkpt lat="42.71566" lon="1.39834">
        <ele>1581.8000488281</ele>
        <time>2013-08-10T11:19:41.000Z</time>
      </trkpt>
      <trkpt lat="42.71563" lon="1.39837">
        <ele>1581</ele>
        <time>2013-08-10T11:19:44.000Z</time>
      </trkpt>
      <trkpt lat="42.71556" lon="1.39841">
        <ele>1579.8000488281</ele>
        <time>2013-08-10T11:19:49.000Z</time>
      </trkpt>
      <trkpt lat="42.71548" lon="1.39845">
        <ele>1578</ele>
        <time>2013-08-10T11:19:56.000Z</time>
      </trkpt>
      <trkpt lat="42.71547" lon="1.39846">
        <ele>1577.8000488281</ele>
        <time>2013-08-10T11:19:57.000Z</time>
      </trkpt>
      <trkpt lat="42.71543" lon="1.39849">
        <ele>1577</ele>
        <time>2013-08-10T11:20:00.000Z</time>
      </trkpt>
      <trkpt lat="42.71544" lon="1.39851">
        <ele>1576</ele>
        <time>2013-08-10T11:20:04.000Z</time>
      </trkpt>
      <trkpt lat="42.71551" lon="1.39855">
        <ele>1574</ele>
        <time>2013-08-10T11:20:11.000Z</time>
      </trkpt>
      <trkpt lat="42.71553" lon="1.39856">
        <ele>1571.8000488281</ele>
        <time>2013-08-10T11:20:20.000Z</time>
      </trkpt>
      <trkpt lat="42.71555" lon="1.39855">
        <ele>1571.4000244141</ele>
        <time>2013-08-10T11:20:21.000Z</time>
      </trkpt>
      <trkpt lat="42.71561" lon="1.39857">
        <ele>1570.4000244141</ele>
        <time>2013-08-10T11:20:26.000Z</time>
      </trkpt>
      <trkpt lat="42.71567" lon="1.39863">
        <ele>1569</ele>
        <time>2013-08-10T11:20:31.000Z</time>
      </trkpt>
      <trkpt lat="42.71569" lon="1.39867">
        <ele>1568</ele>
        <time>2013-08-10T11:20:34.000Z</time>
      </trkpt>
      <trkpt lat="42.71567" lon="1.39869">
        <ele>1567.8000488281</ele>
        <time>2013-08-10T11:20:36.000Z</time>
      </trkpt>
      <trkpt lat="42.71566" lon="1.39874">
        <ele>1566.4000244141</ele>
        <time>2013-08-10T11:20:41.000Z</time>
      </trkpt>
      <trkpt lat="42.71566" lon="1.39877">
        <ele>1565.8000488281</ele>
        <time>2013-08-10T11:20:43.000Z</time>
      </trkpt>
      <trkpt lat="42.71566" lon="1.39882">
        <ele>1565</ele>
        <time>2013-08-10T11:20:46.000Z</time>
      </trkpt>
      <trkpt lat="42.71565" lon="1.39884">
        <ele>1564.8000488281</ele>
        <time>2013-08-10T11:20:47.000Z</time>
      </trkpt>
      <trkpt lat="42.71564" lon="1.39891">
        <ele>1563.4000244141</ele>
        <time>2013-08-10T11:20:52.000Z</time>
      </trkpt>
      <trkpt lat="42.71564" lon="1.39896">
        <ele>1562.4000244141</ele>
        <time>2013-08-10T11:20:55.000Z</time>
      </trkpt>
      <trkpt lat="42.71564" lon="1.39897">
        <ele>1562.4000244141</ele>
        <time>2013-08-10T11:20:56.000Z</time>
      </trkpt>
      <trkpt lat="42.71563" lon="1.39897">
        <ele>1562</ele>
        <time>2013-08-10T11:20:57.000Z</time>
      </trkpt>
      <trkpt lat="42.71561" lon="1.39901">
        <ele>1561</ele>
        <time>2013-08-10T11:21:01.000Z</time>
      </trkpt>
      <trkpt lat="42.71565" lon="1.39908">
        <ele>1559.4000244141</ele>
        <time>2013-08-10T11:21:06.000Z</time>
      </trkpt>
      <trkpt lat="42.71566" lon="1.39909">
        <ele>1559.4000244141</ele>
        <time>2013-08-10T11:21:07.000Z</time>
      </trkpt>
      <trkpt lat="42.71566" lon="1.39915">
        <ele>1558</ele>
        <time>2013-08-10T11:21:11.000Z</time>
      </trkpt>
      <trkpt lat="42.71566" lon="1.39916">
        <ele>1557.8000488281</ele>
        <time>2013-08-10T11:21:12.000Z</time>
      </trkpt>
      <trkpt lat="42.71566" lon="1.3992">
        <ele>1557</ele>
        <time>2013-08-10T11:21:15.000Z</time>
      </trkpt>
      <trkpt lat="42.71567" lon="1.39925">
        <ele>1556</ele>
        <time>2013-08-10T11:21:18.000Z</time>
      </trkpt>
      <trkpt lat="42.71568" lon="1.39928">
        <ele>1555.8000488281</ele>
        <time>2013-08-10T11:21:19.000Z</time>
      </trkpt>
      <trkpt lat="42.71566" lon="1.39936">
        <ele>1554</ele>
        <time>2013-08-10T11:21:24.000Z</time>
      </trkpt>
      <trkpt lat="42.71563" lon="1.39939">
        <ele>1553.4000244141</ele>
        <time>2013-08-10T11:21:27.000Z</time>
      </trkpt>
      <trkpt lat="42.71558" lon="1.39938">
        <ele>1552.4000244141</ele>
        <time>2013-08-10T11:21:30.000Z</time>
      </trkpt>
      <trkpt lat="42.71553" lon="1.39941">
        <ele>1551</ele>
        <time>2013-08-10T11:21:34.000Z</time>
      </trkpt>
      <trkpt lat="42.71548" lon="1.39945">
        <ele>1550</ele>
        <time>2013-08-10T11:21:37.000Z</time>
      </trkpt>
      <trkpt lat="42.71546" lon="1.39946">
        <ele>1549.4000244141</ele>
        <time>2013-08-10T11:21:39.000Z</time>
      </trkpt>
      <trkpt lat="42.71544" lon="1.39952">
        <ele>1548.8000488281</ele>
        <time>2013-08-10T11:21:42.000Z</time>
      </trkpt>
      <trkpt lat="42.71543" lon="1.39954">
        <ele>1548.4000244141</ele>
        <time>2013-08-10T11:21:43.000Z</time>
      </trkpt>
      <trkpt lat="42.71541" lon="1.39962">
        <ele>1546.8000488281</ele>
        <time>2013-08-10T11:21:48.000Z</time>
      </trkpt>
      <trkpt lat="42.71537" lon="1.39969">
        <ele>1545</ele>
        <time>2013-08-10T11:21:53.000Z</time>
      </trkpt>
      <trkpt lat="42.71535" lon="1.39974">
        <ele>1544</ele>
        <time>2013-08-10T11:21:56.000Z</time>
      </trkpt>
      <trkpt lat="42.71533" lon="1.39977">
        <ele>1543.4000244141</ele>
        <time>2013-08-10T11:21:58.000Z</time>
      </trkpt>
      <trkpt lat="42.71532" lon="1.39978">
        <ele>1543</ele>
        <time>2013-08-10T11:21:59.000Z</time>
      </trkpt>
      <trkpt lat="42.7153" lon="1.39985">
        <ele>1542</ele>
        <time>2013-08-10T11:22:03.000Z</time>
      </trkpt>
      <trkpt lat="42.71527" lon="1.39994">
        <ele>1540.4000244141</ele>
        <time>2013-08-10T11:22:08.000Z</time>
      </trkpt>
      <trkpt lat="42.71526" lon="1.39995">
        <ele>1540</ele>
        <time>2013-08-10T11:22:09.000Z</time>
      </trkpt>
      <trkpt lat="42.71521" lon="1.40004">
        <ele>1538.4000244141</ele>
        <time>2013-08-10T11:22:14.000Z</time>
      </trkpt>
      <trkpt lat="42.71521" lon="1.40005">
        <ele>1538</ele>
        <time>2013-08-10T11:22:15.000Z</time>
      </trkpt>
      <trkpt lat="42.71519" lon="1.40013">
        <ele>1536.8000488281</ele>
        <time>2013-08-10T11:22:19.000Z</time>
      </trkpt>
      <trkpt lat="42.71513" lon="1.4002">
        <ele>1535</ele>
        <time>2013-08-10T11:22:24.000Z</time>
      </trkpt>
      <trkpt lat="42.71511" lon="1.40021">
        <ele>1534.8000488281</ele>
        <time>2013-08-10T11:22:25.000Z</time>
      </trkpt>
      <trkpt lat="42.7151" lon="1.40023">
        <ele>1534</ele>
        <time>2013-08-10T11:22:27.000Z</time>
      </trkpt>
      <trkpt lat="42.71506" lon="1.40025">
        <ele>1533</ele>
        <time>2013-08-10T11:22:30.000Z</time>
      </trkpt>
      <trkpt lat="42.71501" lon="1.40025">
        <ele>1532</ele>
        <time>2013-08-10T11:22:33.000Z</time>
      </trkpt>
      <trkpt lat="42.71499" lon="1.40025">
        <ele>1531.4000244141</ele>
        <time>2013-08-10T11:22:35.000Z</time>
      </trkpt>
      <trkpt lat="42.71494" lon="1.40026">
        <ele>1530.4000244141</ele>
        <time>2013-08-10T11:22:38.000Z</time>
      </trkpt>
      <trkpt lat="42.71491" lon="1.40027">
        <ele>1530</ele>
        <time>2013-08-10T11:22:40.000Z</time>
      </trkpt>
      <trkpt lat="42.7149" lon="1.40027">
        <ele>1529.4000244141</ele>
        <time>2013-08-10T11:22:41.000Z</time>
      </trkpt>
      <trkpt lat="42.71489" lon="1.40027">
        <ele>1529.4000244141</ele>
        <time>2013-08-10T11:22:42.000Z</time>
      </trkpt>
      <trkpt lat="42.71486" lon="1.40031">
        <ele>1528.4000244141</ele>
        <time>2013-08-10T11:22:45.000Z</time>
      </trkpt>
      <trkpt lat="42.71483" lon="1.40034">
        <ele>1527.4000244141</ele>
        <time>2013-08-10T11:22:48.000Z</time>
      </trkpt>
      <trkpt lat="42.71483" lon="1.40036">
        <ele>1527</ele>
        <time>2013-08-10T11:22:49.000Z</time>
      </trkpt>
      <trkpt lat="42.71483" lon="1.40038">
        <ele>1526.8000488281</ele>
        <time>2013-08-10T11:22:50.000Z</time>
      </trkpt>
      <trkpt lat="42.7148" lon="1.40046">
        <ele>1525.4000244141</ele>
        <time>2013-08-10T11:22:54.000Z</time>
      </trkpt>
      <trkpt lat="42.7148" lon="1.40048">
        <ele>1525</ele>
        <time>2013-08-10T11:22:55.000Z</time>
      </trkpt>
      <trkpt lat="42.71475" lon="1.40054">
        <ele>1523.4000244141</ele>
        <time>2013-08-10T11:23:00.000Z</time>
      </trkpt>
      <trkpt lat="42.71472" lon="1.40059">
        <ele>1522.4000244141</ele>
        <time>2013-08-10T11:23:03.000Z</time>
      </trkpt>
      <trkpt lat="42.71471" lon="1.40062">
        <ele>1522</ele>
        <time>2013-08-10T11:23:05.000Z</time>
      </trkpt>
      <trkpt lat="42.7147" lon="1.40063">
        <ele>1521.4000244141</ele>
        <time>2013-08-10T11:23:06.000Z</time>
      </trkpt>
      <trkpt lat="42.71467" lon="1.40066">
        <ele>1520.8000488281</ele>
        <time>2013-08-10T11:23:09.000Z</time>
      </trkpt>
      <trkpt lat="42.71464" lon="1.40068">
        <ele>1520</ele>
        <time>2013-08-10T11:23:11.000Z</time>
      </trkpt>
      <trkpt lat="42.71458" lon="1.40073">
        <ele>1518.4000244141</ele>
        <time>2013-08-10T11:23:16.000Z</time>
      </trkpt>
      <trkpt lat="42.71453" lon="1.40076">
        <ele>1517</ele>
        <time>2013-08-10T11:23:20.000Z</time>
      </trkpt>
      <trkpt lat="42.71449" lon="1.40077">
        <ele>1516</ele>
        <time>2013-08-10T11:23:23.000Z</time>
      </trkpt>
      <trkpt lat="42.71448" lon="1.40078">
        <ele>1516</ele>
        <time>2013-08-10T11:23:24.000Z</time>
      </trkpt>
      <trkpt lat="42.71444" lon="1.4008">
        <ele>1515</ele>
        <time>2013-08-10T11:23:27.000Z</time>
      </trkpt>
      <trkpt lat="42.71442" lon="1.40082">
        <ele>1514</ele>
        <time>2013-08-10T11:23:29.000Z</time>
      </trkpt>
      <trkpt lat="42.71442" lon="1.40084">
        <ele>1513.4000244141</ele>
        <time>2013-08-10T11:23:31.000Z</time>
      </trkpt>
      <trkpt lat="42.71441" lon="1.40087">
        <ele>1513</ele>
        <time>2013-08-10T11:23:33.000Z</time>
      </trkpt>
      <trkpt lat="42.71437" lon="1.40092">
        <ele>1511.4000244141</ele>
        <time>2013-08-10T11:23:38.000Z</time>
      </trkpt>
      <trkpt lat="42.71434" lon="1.40099">
        <ele>1509.8000488281</ele>
        <time>2013-08-10T11:23:43.000Z</time>
      </trkpt>
      <trkpt lat="42.71429" lon="1.40103">
        <ele>1508.4000244141</ele>
        <time>2013-08-10T11:23:47.000Z</time>
      </trkpt>
      <trkpt lat="42.71426" lon="1.40105">
        <ele>1507.8000488281</ele>
        <time>2013-08-10T11:23:49.000Z</time>
      </trkpt>
      <trkpt lat="42.71423" lon="1.40106">
        <ele>1506</ele>
        <time>2013-08-10T11:23:54.000Z</time>
      </trkpt>
      <trkpt lat="42.71422" lon="1.40109">
        <ele>1505.4000244141</ele>
        <time>2013-08-10T11:23:56.000Z</time>
      </trkpt>
      <trkpt lat="42.71419" lon="1.40111">
        <ele>1504.8000488281</ele>
        <time>2013-08-10T11:23:58.000Z</time>
      </trkpt>
      <trkpt lat="42.71417" lon="1.40114">
        <ele>1504</ele>
        <time>2013-08-10T11:24:00.000Z</time>
      </trkpt>
      <trkpt lat="42.71414" lon="1.40119">
        <ele>1503</ele>
        <time>2013-08-10T11:24:03.000Z</time>
      </trkpt>
      <trkpt lat="42.71409" lon="1.40125">
        <ele>1501.4000244141</ele>
        <time>2013-08-10T11:24:08.000Z</time>
      </trkpt>
      <trkpt lat="42.71405" lon="1.40133">
        <ele>1499.8000488281</ele>
        <time>2013-08-10T11:24:13.000Z</time>
      </trkpt>
      <trkpt lat="42.71405" lon="1.40138">
        <ele>1499</ele>
        <time>2013-08-10T11:24:15.000Z</time>
      </trkpt>
      <trkpt lat="42.71404" lon="1.40145">
        <ele>1497.8000488281</ele>
        <time>2013-08-10T11:24:19.000Z</time>
      </trkpt>
      <trkpt lat="42.71405" lon="1.40155">
        <ele>1496</ele>
        <time>2013-08-10T11:24:24.000Z</time>
      </trkpt>
      <trkpt lat="42.71404" lon="1.40156">
        <ele>1495.8000488281</ele>
        <time>2013-08-10T11:24:25.000Z</time>
      </trkpt>
      <trkpt lat="42.71399" lon="1.40158">
        <ele>1495</ele>
        <time>2013-08-10T11:24:28.000Z</time>
      </trkpt>
      <trkpt lat="42.71397" lon="1.40161">
        <ele>1494</ele>
        <time>2013-08-10T11:24:30.000Z</time>
      </trkpt>
      <trkpt lat="42.71394" lon="1.40162">
        <ele>1493.4000244141</ele>
        <time>2013-08-10T11:24:32.000Z</time>
      </trkpt>
      <trkpt lat="42.71388" lon="1.40166">
        <ele>1492</ele>
        <time>2013-08-10T11:24:38.000Z</time>
      </trkpt>
      <trkpt lat="42.71382" lon="1.4017">
        <ele>1490.4000244141</ele>
        <time>2013-08-10T11:24:43.000Z</time>
      </trkpt>
      <trkpt lat="42.7138" lon="1.40171">
        <ele>1490</ele>
        <time>2013-08-10T11:24:45.000Z</time>
      </trkpt>
      <trkpt lat="42.71376" lon="1.40172">
        <ele>1489</ele>
        <time>2013-08-10T11:24:48.000Z</time>
      </trkpt>
      <trkpt lat="42.71373" lon="1.40174">
        <ele>1488.4000244141</ele>
        <time>2013-08-10T11:24:50.000Z</time>
      </trkpt>
      <trkpt lat="42.71371" lon="1.40175">
        <ele>1488</ele>
        <time>2013-08-10T11:24:52.000Z</time>
      </trkpt>
      <trkpt lat="42.71362" lon="1.40178">
        <ele>1486.4000244141</ele>
        <time>2013-08-10T11:24:58.000Z</time>
      </trkpt>
      <trkpt lat="42.71355" lon="1.40181">
        <ele>1485</ele>
        <time>2013-08-10T11:25:04.000Z</time>
      </trkpt>
      <trkpt lat="42.71349" lon="1.40179">
        <ele>1483.8000488281</ele>
        <time>2013-08-10T11:25:09.000Z</time>
      </trkpt>
      <trkpt lat="42.71342" lon="1.40179">
        <ele>1482</ele>
        <time>2013-08-10T11:25:16.000Z</time>
      </trkpt>
      <trkpt lat="42.71336" lon="1.40186">
        <ele>1481</ele>
        <time>2013-08-10T11:25:22.000Z</time>
      </trkpt>
      <trkpt lat="42.71334" lon="1.40187">
        <ele>1481</ele>
        <time>2013-08-10T11:25:23.000Z</time>
      </trkpt>
      <trkpt lat="42.71329" lon="1.4019">
        <ele>1480</ele>
        <time>2013-08-10T11:25:27.000Z</time>
      </trkpt>
      <trkpt lat="42.71321" lon="1.40194">
        <ele>1479</ele>
        <time>2013-08-10T11:25:34.000Z</time>
      </trkpt>
      <trkpt lat="42.71314" lon="1.40198">
        <ele>1477.8000488281</ele>
        <time>2013-08-10T11:25:40.000Z</time>
      </trkpt>
      <trkpt lat="42.71311" lon="1.40197">
        <ele>1477</ele>
        <time>2013-08-10T11:25:45.000Z</time>
      </trkpt>
      <trkpt lat="42.71307" lon="1.402">
        <ele>1476</ele>
        <time>2013-08-10T11:25:50.000Z</time>
      </trkpt>
      <trkpt lat="42.71306" lon="1.402">
        <ele>1476</ele>
        <time>2013-08-10T11:25:52.000Z</time>
      </trkpt>
      <trkpt lat="42.71303" lon="1.40203">
        <ele>1475.4000244141</ele>
        <time>2013-08-10T11:25:54.000Z</time>
      </trkpt>
      <trkpt lat="42.71302" lon="1.40204">
        <ele>1475</ele>
        <time>2013-08-10T11:25:58.000Z</time>
      </trkpt>
      <trkpt lat="42.71302" lon="1.40204">
        <ele>1475</ele>
        <time>2013-08-10T11:25:59.000Z</time>
      </trkpt>
      <trkpt lat="42.71301" lon="1.40205">
        <ele>1474.8000488281</ele>
        <time>2013-08-10T11:26:01.000Z</time>
      </trkpt>
      <trkpt lat="42.71299" lon="1.40214">
        <ele>1473</ele>
        <time>2013-08-10T11:26:19.000Z</time>
      </trkpt>
      <trkpt lat="42.71297" lon="1.40213">
        <ele>1473</ele>
        <time>2013-08-10T11:26:21.000Z</time>
      </trkpt>
      <trkpt lat="42.71296" lon="1.40213">
        <ele>1472.8000488281</ele>
        <time>2013-08-10T11:26:22.000Z</time>
      </trkpt>
      <trkpt lat="42.71292" lon="1.40214">
        <ele>1472.4000244141</ele>
        <time>2013-08-10T11:26:27.000Z</time>
      </trkpt>
      <trkpt lat="42.71291" lon="1.40215">
        <ele>1472.4000244141</ele>
        <time>2013-08-10T11:26:29.000Z</time>
      </trkpt>
      <trkpt lat="42.71291" lon="1.40215">
        <ele>1472.4000244141</ele>
        <time>2013-08-10T11:26:30.000Z</time>
      </trkpt>
      <trkpt lat="42.71295" lon="1.40221">
        <ele>1472.4000244141</ele>
        <time>2013-08-10T11:26:36.000Z</time>
      </trkpt>
      <trkpt lat="42.71294" lon="1.40225">
        <ele>1472</ele>
        <time>2013-08-10T11:26:39.000Z</time>
      </trkpt>
      <trkpt lat="42.71295" lon="1.40226">
        <ele>1472</ele>
        <time>2013-08-10T11:26:40.000Z</time>
      </trkpt>
      <trkpt lat="42.71313" lon="1.40231">
        <ele>1478.4000244141</ele>
        <time>2013-08-10T11:27:43.000Z</time>
      </trkpt>
      <trkpt lat="42.71316" lon="1.40235">
        <ele>1480.4000244141</ele>
        <time>2013-08-10T11:27:48.000Z</time>
      </trkpt>
      <trkpt lat="42.71317" lon="1.40237">
        <ele>1483.4000244141</ele>
        <time>2013-08-10T11:27:57.000Z</time>
      </trkpt>
      <trkpt lat="42.71315" lon="1.40243">
        <ele>1485.4000244141</ele>
        <time>2013-08-10T11:28:04.000Z</time>
      </trkpt>
      <trkpt lat="42.71296" lon="1.40251">
        <ele>1490</ele>
        <time>2013-08-10T11:28:23.000Z</time>
      </trkpt>
      <trkpt lat="42.71292" lon="1.40251">
        <ele>1491</ele>
        <time>2013-08-10T11:28:27.000Z</time>
      </trkpt>
      <trkpt lat="42.71288" lon="1.40254">
        <ele>1492</ele>
        <time>2013-08-10T11:28:31.000Z</time>
      </trkpt>
      <trkpt lat="42.71287" lon="1.40255">
        <ele>1492</ele>
        <time>2013-08-10T11:28:32.000Z</time>
      </trkpt>
      <trkpt lat="42.71243" lon="1.40296">
        <ele>1496.8000488281</ele>
        <time>2013-08-10T11:29:18.000Z</time>
      </trkpt>
      <trkpt lat="42.7124" lon="1.40297">
        <ele>1497</ele>
        <time>2013-08-10T11:29:20.000Z</time>
      </trkpt>
      <trkpt lat="42.71239" lon="1.40298">
        <ele>1497.4000244141</ele>
        <time>2013-08-10T11:29:22.000Z</time>
      </trkpt>
      <trkpt lat="42.71238" lon="1.40299">
        <ele>1497.8000488281</ele>
        <time>2013-08-10T11:29:23.000Z</time>
      </trkpt>
      <trkpt lat="42.71235" lon="1.40302">
        <ele>1498</ele>
        <time>2013-08-10T11:29:25.000Z</time>
      </trkpt>
      <trkpt lat="42.71229" lon="1.40303">
        <ele>1499</ele>
        <time>2013-08-10T11:29:29.000Z</time>
      </trkpt>
      <trkpt lat="42.71227" lon="1.40305">
        <ele>1499.4000244141</ele>
        <time>2013-08-10T11:29:31.000Z</time>
      </trkpt>
      <trkpt lat="42.71226" lon="1.40306">
        <ele>1499.8000488281</ele>
        <time>2013-08-10T11:29:32.000Z</time>
      </trkpt>
      <trkpt lat="42.71223" lon="1.40309">
        <ele>1500.4000244141</ele>
        <time>2013-08-10T11:29:35.000Z</time>
      </trkpt>
      <trkpt lat="42.7122" lon="1.40312">
        <ele>1501</ele>
        <time>2013-08-10T11:29:38.000Z</time>
      </trkpt>
      <trkpt lat="42.71218" lon="1.40313">
        <ele>1501</ele>
        <time>2013-08-10T11:29:39.000Z</time>
      </trkpt>
      <trkpt lat="42.71214" lon="1.40316">
        <ele>1501.4000244141</ele>
        <time>2013-08-10T11:29:41.000Z</time>
      </trkpt>
      <trkpt lat="42.71212" lon="1.40318">
        <ele>1502.4000244141</ele>
        <time>2013-08-10T11:29:44.000Z</time>
      </trkpt>
      <trkpt lat="42.71211" lon="1.4032">
        <ele>1502.4000244141</ele>
        <time>2013-08-10T11:29:45.000Z</time>
      </trkpt>
      <trkpt lat="42.71206" lon="1.40327">
        <ele>1503.4000244141</ele>
        <time>2013-08-10T11:29:50.000Z</time>
      </trkpt>
      <trkpt lat="42.71197" lon="1.40338">
        <ele>1505</ele>
        <time>2013-08-10T11:29:57.000Z</time>
      </trkpt>
      <trkpt lat="42.71195" lon="1.40339">
        <ele>1505.8000488281</ele>
        <time>2013-08-10T11:29:59.000Z</time>
      </trkpt>
      <trkpt lat="42.71191" lon="1.40344">
        <ele>1506.8000488281</ele>
        <time>2013-08-10T11:30:03.000Z</time>
      </trkpt>
      <trkpt lat="42.71187" lon="1.4035">
        <ele>1506.4000244141</ele>
        <time>2013-08-10T11:30:06.000Z</time>
      </trkpt>
      <trkpt lat="42.71185" lon="1.40355">
        <ele>1506.8000488281</ele>
        <time>2013-08-10T11:30:08.000Z</time>
      </trkpt>
      <trkpt lat="42.71181" lon="1.40363">
        <ele>1506.4000244141</ele>
        <time>2013-08-10T11:30:12.000Z</time>
      </trkpt>
      <trkpt lat="42.71181" lon="1.40366">
        <ele>1506.4000244141</ele>
        <time>2013-08-10T11:30:14.000Z</time>
      </trkpt>
      <trkpt lat="42.71183" lon="1.40367">
        <ele>1506.4000244141</ele>
        <time>2013-08-10T11:30:16.000Z</time>
      </trkpt>
      <trkpt lat="42.71184" lon="1.40369">
        <ele>1506</ele>
        <time>2013-08-10T11:30:19.000Z</time>
      </trkpt>
      <trkpt lat="42.71184" lon="1.40371">
        <ele>1506</ele>
        <time>2013-08-10T11:30:22.000Z</time>
      </trkpt>
      <trkpt lat="42.71181" lon="1.40376">
        <ele>1505.4000244141</ele>
        <time>2013-08-10T11:30:27.000Z</time>
      </trkpt>
      <trkpt lat="42.71178" lon="1.40379">
        <ele>1505</ele>
        <time>2013-08-10T11:30:29.000Z</time>
      </trkpt>
      <trkpt lat="42.71171" lon="1.40394">
        <ele>1503.8000488281</ele>
        <time>2013-08-10T11:30:35.000Z</time>
      </trkpt>
      <trkpt lat="42.7117" lon="1.40399">
        <ele>1503</ele>
        <time>2013-08-10T11:30:37.000Z</time>
      </trkpt>
      <trkpt lat="42.71168" lon="1.40401">
        <ele>1503</ele>
        <time>2013-08-10T11:30:38.000Z</time>
      </trkpt>
      <trkpt lat="42.71167" lon="1.40403">
        <ele>1502.4000244141</ele>
        <time>2013-08-10T11:30:39.000Z</time>
      </trkpt>
      <trkpt lat="42.71162" lon="1.40415">
        <ele>1500.8000488281</ele>
        <time>2013-08-10T11:30:44.000Z</time>
      </trkpt>
      <trkpt lat="42.71161" lon="1.40417">
        <ele>1500.4000244141</ele>
        <time>2013-08-10T11:30:45.000Z</time>
      </trkpt>
      <trkpt lat="42.71158" lon="1.40426">
        <ele>1498.8000488281</ele>
        <time>2013-08-10T11:30:49.000Z</time>
      </trkpt>
      <trkpt lat="42.71158" lon="1.40428">
        <ele>1498.4000244141</ele>
        <time>2013-08-10T11:30:50.000Z</time>
      </trkpt>
      <trkpt lat="42.71156" lon="1.40439">
        <ele>1496.4000244141</ele>
        <time>2013-08-10T11:30:55.000Z</time>
      </trkpt>
      <trkpt lat="42.71154" lon="1.40443">
        <ele>1495</ele>
        <time>2013-08-10T11:30:58.000Z</time>
      </trkpt>
      <trkpt lat="42.71151" lon="1.40449">
        <ele>1493.4000244141</ele>
        <time>2013-08-10T11:31:02.000Z</time>
      </trkpt>
      <trkpt lat="42.71149" lon="1.40455">
        <ele>1492</ele>
        <time>2013-08-10T11:31:06.000Z</time>
      </trkpt>
      <trkpt lat="42.71148" lon="1.40456">
        <ele>1491.4000244141</ele>
        <time>2013-08-10T11:31:07.000Z</time>
      </trkpt>
      <trkpt lat="42.71145" lon="1.40462">
        <ele>1490</ele>
        <time>2013-08-10T11:31:11.000Z</time>
      </trkpt>
      <trkpt lat="42.71145" lon="1.40464">
        <ele>1489.4000244141</ele>
        <time>2013-08-10T11:31:12.000Z</time>
      </trkpt>
      <trkpt lat="42.71143" lon="1.40466">
        <ele>1488.8000488281</ele>
        <time>2013-08-10T11:31:14.000Z</time>
      </trkpt>
      <trkpt lat="42.71139" lon="1.40471">
        <ele>1487.4000244141</ele>
        <time>2013-08-10T11:31:17.000Z</time>
      </trkpt>
      <trkpt lat="42.71137" lon="1.40474">
        <ele>1486.8000488281</ele>
        <time>2013-08-10T11:31:19.000Z</time>
      </trkpt>
      <trkpt lat="42.71136" lon="1.40479">
        <ele>1485.4000244141</ele>
        <time>2013-08-10T11:31:22.000Z</time>
      </trkpt>
      <trkpt lat="42.71136" lon="1.40482">
        <ele>1484.8000488281</ele>
        <time>2013-08-10T11:31:24.000Z</time>
      </trkpt>
      <trkpt lat="42.71136" lon="1.40487">
        <ele>1483.4000244141</ele>
        <time>2013-08-10T11:31:27.000Z</time>
      </trkpt>
      <trkpt lat="42.71134" lon="1.40491">
        <ele>1482.4000244141</ele>
        <time>2013-08-10T11:31:30.000Z</time>
      </trkpt>
      <trkpt lat="42.71129" lon="1.405">
        <ele>1480</ele>
        <time>2013-08-10T11:31:36.000Z</time>
      </trkpt>
      <trkpt lat="42.71126" lon="1.4051">
        <ele>1477.8000488281</ele>
        <time>2013-08-10T11:31:42.000Z</time>
      </trkpt>
      <trkpt lat="42.71124" lon="1.40518">
        <ele>1476</ele>
        <time>2013-08-10T11:31:46.000Z</time>
      </trkpt>
      <trkpt lat="42.71121" lon="1.40526">
        <ele>1474</ele>
        <time>2013-08-10T11:31:51.000Z</time>
      </trkpt>
      <trkpt lat="42.7112" lon="1.4053">
        <ele>1473.4000244141</ele>
        <time>2013-08-10T11:31:53.000Z</time>
      </trkpt>
      <trkpt lat="42.7112" lon="1.40538">
        <ele>1471.4000244141</ele>
        <time>2013-08-10T11:31:58.000Z</time>
      </trkpt>
      <trkpt lat="42.71119" lon="1.40546">
        <ele>1469.8000488281</ele>
        <time>2013-08-10T11:32:03.000Z</time>
      </trkpt>
      <trkpt lat="42.71119" lon="1.4055">
        <ele>1468</ele>
        <time>2013-08-10T11:32:07.000Z</time>
      </trkpt>
      <trkpt lat="42.71119" lon="1.40554">
        <ele>1467.4000244141</ele>
        <time>2013-08-10T11:32:09.000Z</time>
      </trkpt>
      <trkpt lat="42.71119" lon="1.40565">
        <ele>1465.4000244141</ele>
        <time>2013-08-10T11:32:15.000Z</time>
      </trkpt>
      <trkpt lat="42.71117" lon="1.40575">
        <ele>1463.4000244141</ele>
        <time>2013-08-10T11:32:21.000Z</time>
      </trkpt>
      <trkpt lat="42.71118" lon="1.40586">
        <ele>1461.4000244141</ele>
        <time>2013-08-10T11:32:27.000Z</time>
      </trkpt>
      <trkpt lat="42.71119" lon="1.40593">
        <ele>1460</ele>
        <time>2013-08-10T11:32:31.000Z</time>
      </trkpt>
      <trkpt lat="42.71118" lon="1.40606">
        <ele>1458</ele>
        <time>2013-08-10T11:32:38.000Z</time>
      </trkpt>
      <trkpt lat="42.71118" lon="1.40617">
        <ele>1456.8000488281</ele>
        <time>2013-08-10T11:32:43.000Z</time>
      </trkpt>
      <trkpt lat="42.71119" lon="1.40619">
        <ele>1456.4000244141</ele>
        <time>2013-08-10T11:32:44.000Z</time>
      </trkpt>
      <trkpt lat="42.71121" lon="1.40626">
        <ele>1455.8000488281</ele>
        <time>2013-08-10T11:32:47.000Z</time>
      </trkpt>
      <trkpt lat="42.71119" lon="1.40632">
        <ele>1454.4000244141</ele>
        <time>2013-08-10T11:32:52.000Z</time>
      </trkpt>
      <trkpt lat="42.71119" lon="1.40639">
        <ele>1453</ele>
        <time>2013-08-10T11:32:57.000Z</time>
      </trkpt>
      <trkpt lat="42.7112" lon="1.40641">
        <ele>1452.8000488281</ele>
        <time>2013-08-10T11:32:58.000Z</time>
      </trkpt>
      <trkpt lat="42.71121" lon="1.40647">
        <ele>1452</ele>
        <time>2013-08-10T11:33:01.000Z</time>
      </trkpt>
      <trkpt lat="42.71123" lon="1.40656">
        <ele>1450.8000488281</ele>
        <time>2013-08-10T11:33:06.000Z</time>
      </trkpt>
      <trkpt lat="42.71125" lon="1.40661">
        <ele>1450</ele>
        <time>2013-08-10T11:33:09.000Z</time>
      </trkpt>
      <trkpt lat="42.71126" lon="1.40662">
        <ele>1449.8000488281</ele>
        <time>2013-08-10T11:33:10.000Z</time>
      </trkpt>
      <trkpt lat="42.71126" lon="1.40664">
        <ele>1449.4000244141</ele>
        <time>2013-08-10T11:33:11.000Z</time>
      </trkpt>
      <trkpt lat="42.71127" lon="1.4067">
        <ele>1448.4000244141</ele>
        <time>2013-08-10T11:33:15.000Z</time>
      </trkpt>
      <trkpt lat="42.71128" lon="1.40678">
        <ele>1447.4000244141</ele>
        <time>2013-08-10T11:33:19.000Z</time>
      </trkpt>
      <trkpt lat="42.71128" lon="1.4068">
        <ele>1447.4000244141</ele>
        <time>2013-08-10T11:33:20.000Z</time>
      </trkpt>
      <trkpt lat="42.7113" lon="1.40688">
        <ele>1446.4000244141</ele>
        <time>2013-08-10T11:33:25.000Z</time>
      </trkpt>
      <trkpt lat="42.71131" lon="1.40697">
        <ele>1445</ele>
        <time>2013-08-10T11:33:31.000Z</time>
      </trkpt>
      <trkpt lat="42.71131" lon="1.40701">
        <ele>1444.8000488281</ele>
        <time>2013-08-10T11:33:33.000Z</time>
      </trkpt>
      <trkpt lat="42.71133" lon="1.40706">
        <ele>1444</ele>
        <time>2013-08-10T11:33:36.000Z</time>
      </trkpt>
      <trkpt lat="42.71133" lon="1.40708">
        <ele>1444</ele>
        <time>2013-08-10T11:33:37.000Z</time>
      </trkpt>
      <trkpt lat="42.71134" lon="1.40714">
        <ele>1443.4000244141</ele>
        <time>2013-08-10T11:33:40.000Z</time>
      </trkpt>
      <trkpt lat="42.71133" lon="1.40716">
        <ele>1443.4000244141</ele>
        <time>2013-08-10T11:33:41.000Z</time>
      </trkpt>
      <trkpt lat="42.71133" lon="1.40718">
        <ele>1443</ele>
        <time>2013-08-10T11:33:42.000Z</time>
      </trkpt>
      <trkpt lat="42.71136" lon="1.40726">
        <ele>1442.4000244141</ele>
        <time>2013-08-10T11:33:46.000Z</time>
      </trkpt>
      <trkpt lat="42.71141" lon="1.40735">
        <ele>1441.4000244141</ele>
        <time>2013-08-10T11:33:52.000Z</time>
      </trkpt>
      <trkpt lat="42.71142" lon="1.40736">
        <ele>1441</ele>
        <time>2013-08-10T11:33:53.000Z</time>
      </trkpt>
      <trkpt lat="42.71145" lon="1.40739">
        <ele>1440.8000488281</ele>
        <time>2013-08-10T11:33:56.000Z</time>
      </trkpt>
      <trkpt lat="42.71148" lon="1.40744">
        <ele>1440</ele>
        <time>2013-08-10T11:34:01.000Z</time>
      </trkpt>
      <trkpt lat="42.7115" lon="1.40751">
        <ele>1439.4000244141</ele>
        <time>2013-08-10T11:34:05.000Z</time>
      </trkpt>
      <trkpt lat="42.71151" lon="1.40753">
        <ele>1439</ele>
        <time>2013-08-10T11:34:06.000Z</time>
      </trkpt>
      <trkpt lat="42.71153" lon="1.40756">
        <ele>1438.8000488281</ele>
        <time>2013-08-10T11:34:09.000Z</time>
      </trkpt>
      <trkpt lat="42.71154" lon="1.40759">
        <ele>1438.4000244141</ele>
        <time>2013-08-10T11:34:11.000Z</time>
      </trkpt>
      <trkpt lat="42.71159" lon="1.40769">
        <ele>1437.4000244141</ele>
        <time>2013-08-10T11:34:18.000Z</time>
      </trkpt>
      <trkpt lat="42.71165" lon="1.40776">
        <ele>1437</ele>
        <time>2013-08-10T11:34:24.000Z</time>
      </trkpt>
      <trkpt lat="42.71165" lon="1.40778">
        <ele>1437</ele>
        <time>2013-08-10T11:34:25.000Z</time>
      </trkpt>
      <trkpt lat="42.71166" lon="1.40779">
        <ele>1436.8000488281</ele>
        <time>2013-08-10T11:34:26.000Z</time>
      </trkpt>
      <trkpt lat="42.71169" lon="1.40784">
        <ele>1436.4000244141</ele>
        <time>2013-08-10T11:34:30.000Z</time>
      </trkpt>
      <trkpt lat="42.71169" lon="1.40786">
        <ele>1436.4000244141</ele>
        <time>2013-08-10T11:34:31.000Z</time>
      </trkpt>
      <trkpt lat="42.71171" lon="1.4079">
        <ele>1436</ele>
        <time>2013-08-10T11:34:34.000Z</time>
      </trkpt>
      <trkpt lat="42.71173" lon="1.40794">
        <ele>1435.8000488281</ele>
        <time>2013-08-10T11:34:36.000Z</time>
      </trkpt>
      <trkpt lat="42.71177" lon="1.40804">
        <ele>1435</ele>
        <time>2013-08-10T11:34:42.000Z</time>
      </trkpt>
      <trkpt lat="42.71182" lon="1.40816">
        <ele>1434.4000244141</ele>
        <time>2013-08-10T11:34:48.000Z</time>
      </trkpt>
      <trkpt lat="42.71186" lon="1.40824">
        <ele>1434</ele>
        <time>2013-08-10T11:34:52.000Z</time>
      </trkpt>
      <trkpt lat="42.71191" lon="1.40834">
        <ele>1433.4000244141</ele>
        <time>2013-08-10T11:34:58.000Z</time>
      </trkpt>
      <trkpt lat="42.71198" lon="1.40851">
        <ele>1432.4000244141</ele>
        <time>2013-08-10T11:35:06.000Z</time>
      </trkpt>
      <trkpt lat="42.71205" lon="1.40866">
        <ele>1431.4000244141</ele>
        <time>2013-08-10T11:35:14.000Z</time>
      </trkpt>
      <trkpt lat="42.71211" lon="1.40879">
        <ele>1431</ele>
        <time>2013-08-10T11:35:20.000Z</time>
      </trkpt>
      <trkpt lat="42.71216" lon="1.40895">
        <ele>1430</ele>
        <time>2013-08-10T11:35:27.000Z</time>
      </trkpt>
      <trkpt lat="42.71222" lon="1.40906">
        <ele>1429.4000244141</ele>
        <time>2013-08-10T11:35:32.000Z</time>
      </trkpt>
      <trkpt lat="42.71226" lon="1.40915">
        <ele>1429</ele>
        <time>2013-08-10T11:35:36.000Z</time>
      </trkpt>
      <trkpt lat="42.71226" lon="1.40918">
        <ele>1429</ele>
        <time>2013-08-10T11:35:37.000Z</time>
      </trkpt>
      <trkpt lat="42.71228" lon="1.40926">
        <ele>1428.8000488281</ele>
        <time>2013-08-10T11:35:41.000Z</time>
      </trkpt>
      <trkpt lat="42.71228" lon="1.40931">
        <ele>1428.4000244141</ele>
        <time>2013-08-10T11:35:43.000Z</time>
      </trkpt>
      <trkpt lat="42.71232" lon="1.40945">
        <ele>1428</ele>
        <time>2013-08-10T11:35:49.000Z</time>
      </trkpt>
      <trkpt lat="42.71235" lon="1.40963">
        <ele>1427.4000244141</ele>
        <time>2013-08-10T11:35:57.000Z</time>
      </trkpt>
      <trkpt lat="42.7124" lon="1.40974">
        <ele>1426.8000488281</ele>
        <time>2013-08-10T11:36:03.000Z</time>
      </trkpt>
      <trkpt lat="42.71243" lon="1.40984">
        <ele>1426</ele>
        <time>2013-08-10T11:36:08.000Z</time>
      </trkpt>
      <trkpt lat="42.71248" lon="1.40993">
        <ele>1425.4000244141</ele>
        <time>2013-08-10T11:36:13.000Z</time>
      </trkpt>
      <trkpt lat="42.7125" lon="1.40998">
        <ele>1425</ele>
        <time>2013-08-10T11:36:16.000Z</time>
      </trkpt>
      <trkpt lat="42.71254" lon="1.41008">
        <ele>1424.8000488281</ele>
        <time>2013-08-10T11:36:21.000Z</time>
      </trkpt>
      <trkpt lat="42.71255" lon="1.41014">
        <ele>1424.4000244141</ele>
        <time>2013-08-10T11:36:25.000Z</time>
      </trkpt>
      <trkpt lat="42.71254" lon="1.41016">
        <ele>1424.4000244141</ele>
        <time>2013-08-10T11:36:26.000Z</time>
      </trkpt>
      <trkpt lat="42.71252" lon="1.41019">
        <ele>1424</ele>
        <time>2013-08-10T11:36:29.000Z</time>
      </trkpt>
      <trkpt lat="42.71247" lon="1.41026">
        <ele>1423.8000488281</ele>
        <time>2013-08-10T11:36:34.000Z</time>
      </trkpt>
      <trkpt lat="42.71246" lon="1.41027">
        <ele>1423.4000244141</ele>
        <time>2013-08-10T11:36:35.000Z</time>
      </trkpt>
      <trkpt lat="42.71246" lon="1.41031">
        <ele>1423.4000244141</ele>
        <time>2013-08-10T11:36:38.000Z</time>
      </trkpt>
      <trkpt lat="42.71245" lon="1.41036">
        <ele>1423</ele>
        <time>2013-08-10T11:36:41.000Z</time>
      </trkpt>
      <trkpt lat="42.71245" lon="1.41039">
        <ele>1423</ele>
        <time>2013-08-10T11:36:42.000Z</time>
      </trkpt>
      <trkpt lat="42.71242" lon="1.41052">
        <ele>1422.8000488281</ele>
        <time>2013-08-10T11:36:47.000Z</time>
      </trkpt>
      <trkpt lat="42.71241" lon="1.41054">
        <ele>1422.8000488281</ele>
        <time>2013-08-10T11:36:48.000Z</time>
      </trkpt>
      <trkpt lat="42.71241" lon="1.41058">
        <ele>1422.4000244141</ele>
        <time>2013-08-10T11:36:50.000Z</time>
      </trkpt>
      <trkpt lat="42.71241" lon="1.41062">
        <ele>1422.4000244141</ele>
        <time>2013-08-10T11:36:52.000Z</time>
      </trkpt>
      <trkpt lat="42.71238" lon="1.41068">
        <ele>1422</ele>
        <time>2013-08-10T11:36:56.000Z</time>
      </trkpt>
      <trkpt lat="42.71238" lon="1.41078">
        <ele>1421.8000488281</ele>
        <time>2013-08-10T11:37:01.000Z</time>
      </trkpt>
      <trkpt lat="42.71238" lon="1.41081">
        <ele>1421.8000488281</ele>
        <time>2013-08-10T11:37:02.000Z</time>
      </trkpt>
      <trkpt lat="42.7124" lon="1.41088">
        <ele>1421.4000244141</ele>
        <time>2013-08-10T11:37:05.000Z</time>
      </trkpt>
      <trkpt lat="42.71241" lon="1.41092">
        <ele>1421.4000244141</ele>
        <time>2013-08-10T11:37:07.000Z</time>
      </trkpt>
      <trkpt lat="42.71242" lon="1.41104">
        <ele>1421</ele>
        <time>2013-08-10T11:37:12.000Z</time>
      </trkpt>
      <trkpt lat="42.71241" lon="1.41114">
        <ele>1421</ele>
        <time>2013-08-10T11:37:16.000Z</time>
      </trkpt>
      <trkpt lat="42.71242" lon="1.41116">
        <ele>1421</ele>
        <time>2013-08-10T11:37:17.000Z</time>
      </trkpt>
      <trkpt lat="42.71242" lon="1.41126">
        <ele>1420.8000488281</ele>
        <time>2013-08-10T11:37:21.000Z</time>
      </trkpt>
      <trkpt lat="42.71242" lon="1.41128">
        <ele>1420.4000244141</ele>
        <time>2013-08-10T11:37:22.000Z</time>
      </trkpt>
      <trkpt lat="42.71246" lon="1.41134">
        <ele>1420.4000244141</ele>
        <time>2013-08-10T11:37:25.000Z</time>
      </trkpt>
      <trkpt lat="42.71247" lon="1.4114">
        <ele>1420.4000244141</ele>
        <time>2013-08-10T11:37:27.000Z</time>
      </trkpt>
      <trkpt lat="42.71247" lon="1.41145">
        <ele>1420.4000244141</ele>
        <time>2013-08-10T11:37:29.000Z</time>
      </trkpt>
      <trkpt lat="42.71248" lon="1.41147">
        <ele>1420</ele>
        <time>2013-08-10T11:37:30.000Z</time>
      </trkpt>
      <trkpt lat="42.71251" lon="1.41153">
        <ele>1420</ele>
        <time>2013-08-10T11:37:34.000Z</time>
      </trkpt>
      <trkpt lat="42.71257" lon="1.41156">
        <ele>1419.8000488281</ele>
        <time>2013-08-10T11:37:38.000Z</time>
      </trkpt>
      <trkpt lat="42.71263" lon="1.4116">
        <ele>1419.4000244141</ele>
        <time>2013-08-10T11:37:42.000Z</time>
      </trkpt>
      <trkpt lat="42.71265" lon="1.41162">
        <ele>1419.4000244141</ele>
        <time>2013-08-10T11:37:43.000Z</time>
      </trkpt>
      <trkpt lat="42.7127" lon="1.41165">
        <ele>1419.4000244141</ele>
        <time>2013-08-10T11:37:47.000Z</time>
      </trkpt>
      <trkpt lat="42.71274" lon="1.41166">
        <ele>1419.4000244141</ele>
        <time>2013-08-10T11:37:49.000Z</time>
      </trkpt>
      <trkpt lat="42.71274" lon="1.41169">
        <ele>1419.4000244141</ele>
        <time>2013-08-10T11:37:51.000Z</time>
      </trkpt>
      <trkpt lat="42.71272" lon="1.41177">
        <ele>1419.4000244141</ele>
        <time>2013-08-10T11:37:54.000Z</time>
      </trkpt>
      <trkpt lat="42.71271" lon="1.41179">
        <ele>1419</ele>
        <time>2013-08-10T11:37:55.000Z</time>
      </trkpt>
      <trkpt lat="42.71269" lon="1.41182">
        <ele>1419</ele>
        <time>2013-08-10T11:37:56.000Z</time>
      </trkpt>
      <trkpt lat="42.71261" lon="1.41187">
        <ele>1419</ele>
        <time>2013-08-10T11:38:00.000Z</time>
      </trkpt>
      <trkpt lat="42.71256" lon="1.41191">
        <ele>1419</ele>
        <time>2013-08-10T11:38:04.000Z</time>
      </trkpt>
      <trkpt lat="42.71249" lon="1.41197">
        <ele>1419</ele>
        <time>2013-08-10T11:38:09.000Z</time>
      </trkpt>
      <trkpt lat="42.71243" lon="1.41202">
        <ele>1419</ele>
        <time>2013-08-10T11:38:13.000Z</time>
      </trkpt>
      <trkpt lat="42.71238" lon="1.41207">
        <ele>1418.8000488281</ele>
        <time>2013-08-10T11:38:17.000Z</time>
      </trkpt>
      <trkpt lat="42.71235" lon="1.41213">
        <ele>1418.8000488281</ele>
        <time>2013-08-10T11:38:20.000Z</time>
      </trkpt>
      <trkpt lat="42.71233" lon="1.41217">
        <ele>1418.8000488281</ele>
        <time>2013-08-10T11:38:22.000Z</time>
      </trkpt>
      <trkpt lat="42.71225" lon="1.41225">
        <ele>1418.4000244141</ele>
        <time>2013-08-10T11:38:28.000Z</time>
      </trkpt>
      <trkpt lat="42.71217" lon="1.41232">
        <ele>1418.4000244141</ele>
        <time>2013-08-10T11:38:34.000Z</time>
      </trkpt>
      <trkpt lat="42.71213" lon="1.41235">
        <ele>1418.4000244141</ele>
        <time>2013-08-10T11:38:38.000Z</time>
      </trkpt>
      <trkpt lat="42.71204" lon="1.41244">
        <ele>1418.4000244141</ele>
        <time>2013-08-10T11:38:44.000Z</time>
      </trkpt>
      <trkpt lat="42.71204" lon="1.41246">
        <ele>1418</ele>
        <time>2013-08-10T11:38:45.000Z</time>
      </trkpt>
      <trkpt lat="42.71203" lon="1.41251">
        <ele>1418</ele>
        <time>2013-08-10T11:38:47.000Z</time>
      </trkpt>
      <trkpt lat="42.712" lon="1.41258">
        <ele>1418</ele>
        <time>2013-08-10T11:38:50.000Z</time>
      </trkpt>
      <trkpt lat="42.71199" lon="1.4126">
        <ele>1418</ele>
        <time>2013-08-10T11:38:51.000Z</time>
      </trkpt>
      <trkpt lat="42.71195" lon="1.41269">
        <ele>1417.4000244141</ele>
        <time>2013-08-10T11:38:55.000Z</time>
      </trkpt>
      <trkpt lat="42.7119" lon="1.41278">
        <ele>1417</ele>
        <time>2013-08-10T11:39:00.000Z</time>
      </trkpt>
      <trkpt lat="42.7119" lon="1.41281">
        <ele>1417</ele>
        <time>2013-08-10T11:39:02.000Z</time>
      </trkpt>
      <trkpt lat="42.71187" lon="1.41288">
        <ele>1416.8000488281</ele>
        <time>2013-08-10T11:39:05.000Z</time>
      </trkpt>
      <trkpt lat="42.71186" lon="1.41294">
        <ele>1416.4000244141</ele>
        <time>2013-08-10T11:39:08.000Z</time>
      </trkpt>
      <trkpt lat="42.71185" lon="1.41302">
        <ele>1416</ele>
        <time>2013-08-10T11:39:11.000Z</time>
      </trkpt>
      <trkpt lat="42.71184" lon="1.41307">
        <ele>1416</ele>
        <time>2013-08-10T11:39:13.000Z</time>
      </trkpt>
      <trkpt lat="42.71182" lon="1.41311">
        <ele>1415.8000488281</ele>
        <time>2013-08-10T11:39:15.000Z</time>
      </trkpt>
      <trkpt lat="42.71181" lon="1.41317">
        <ele>1415.4000244141</ele>
        <time>2013-08-10T11:39:18.000Z</time>
      </trkpt>
      <trkpt lat="42.7118" lon="1.41319">
        <ele>1415.4000244141</ele>
        <time>2013-08-10T11:39:19.000Z</time>
      </trkpt>
      <trkpt lat="42.71175" lon="1.41328">
        <ele>1415</ele>
        <time>2013-08-10T11:39:24.000Z</time>
      </trkpt>
      <trkpt lat="42.71174" lon="1.41337">
        <ele>1414.4000244141</ele>
        <time>2013-08-10T11:39:29.000Z</time>
      </trkpt>
      <trkpt lat="42.71173" lon="1.41339">
        <ele>1414.4000244141</ele>
        <time>2013-08-10T11:39:30.000Z</time>
      </trkpt>
      <trkpt lat="42.71171" lon="1.41349">
        <ele>1414</ele>
        <time>2013-08-10T11:39:35.000Z</time>
      </trkpt>
      <trkpt lat="42.7117" lon="1.41352">
        <ele>1414</ele>
        <time>2013-08-10T11:39:36.000Z</time>
      </trkpt>
      <trkpt lat="42.71168" lon="1.41367">
        <ele>1413.4000244141</ele>
        <time>2013-08-10T11:39:43.000Z</time>
      </trkpt>
      <trkpt lat="42.71169" lon="1.4138">
        <ele>1412.4000244141</ele>
        <time>2013-08-10T11:39:49.000Z</time>
      </trkpt>
      <trkpt lat="42.71168" lon="1.41382">
        <ele>1412.4000244141</ele>
        <time>2013-08-10T11:39:50.000Z</time>
      </trkpt>
      <trkpt lat="42.71168" lon="1.41388">
        <ele>1412.4000244141</ele>
        <time>2013-08-10T11:39:53.000Z</time>
      </trkpt>
      <trkpt lat="42.71169" lon="1.41396">
        <ele>1412</ele>
        <time>2013-08-10T11:39:57.000Z</time>
      </trkpt>
      <trkpt lat="42.7117" lon="1.41402">
        <ele>1411.4000244141</ele>
        <time>2013-08-10T11:40:00.000Z</time>
      </trkpt>
      <trkpt lat="42.7117" lon="1.41415">
        <ele>1411</ele>
        <time>2013-08-10T11:40:06.000Z</time>
      </trkpt>
      <trkpt lat="42.71169" lon="1.41418">
        <ele>1411</ele>
        <time>2013-08-10T11:40:08.000Z</time>
      </trkpt>
      <trkpt lat="42.71168" lon="1.41421">
        <ele>1410.8000488281</ele>
        <time>2013-08-10T11:40:10.000Z</time>
      </trkpt>
      <trkpt lat="42.71163" lon="1.41427">
        <ele>1410.4000244141</ele>
        <time>2013-08-10T11:40:14.000Z</time>
      </trkpt>
      <trkpt lat="42.71162" lon="1.4143">
        <ele>1410.4000244141</ele>
        <time>2013-08-10T11:40:16.000Z</time>
      </trkpt>
      <trkpt lat="42.71162" lon="1.41434">
        <ele>1410</ele>
        <time>2013-08-10T11:40:19.000Z</time>
      </trkpt>
      <trkpt lat="42.7116" lon="1.41443">
        <ele>1409.8000488281</ele>
        <time>2013-08-10T11:40:23.000Z</time>
      </trkpt>
      <trkpt lat="42.71156" lon="1.41453">
        <ele>1409.4000244141</ele>
        <time>2013-08-10T11:40:27.000Z</time>
      </trkpt>
      <trkpt lat="42.71153" lon="1.41456">
        <ele>1409</ele>
        <time>2013-08-10T11:40:30.000Z</time>
      </trkpt>
      <trkpt lat="42.71152" lon="1.41458">
        <ele>1409</ele>
        <time>2013-08-10T11:40:31.000Z</time>
      </trkpt>
      <trkpt lat="42.7115" lon="1.41461">
        <ele>1408.4000244141</ele>
        <time>2013-08-10T11:40:33.000Z</time>
      </trkpt>
      <trkpt lat="42.71149" lon="1.41467">
        <ele>1408.4000244141</ele>
        <time>2013-08-10T11:40:36.000Z</time>
      </trkpt>
      <trkpt lat="42.71148" lon="1.41471">
        <ele>1408</ele>
        <time>2013-08-10T11:40:38.000Z</time>
      </trkpt>
      <trkpt lat="42.71144" lon="1.41479">
        <ele>1407.8000488281</ele>
        <time>2013-08-10T11:40:41.000Z</time>
      </trkpt>
      <trkpt lat="42.7114" lon="1.41484">
        <ele>1407.4000244141</ele>
        <time>2013-08-10T11:40:43.000Z</time>
      </trkpt>
      <trkpt lat="42.7114" lon="1.41489">
        <ele>1407</ele>
        <time>2013-08-10T11:40:45.000Z</time>
      </trkpt>
      <trkpt lat="42.71139" lon="1.415">
        <ele>1406.4000244141</ele>
        <time>2013-08-10T11:40:50.000Z</time>
      </trkpt>
      <trkpt lat="42.71142" lon="1.41505">
        <ele>1406</ele>
        <time>2013-08-10T11:40:53.000Z</time>
      </trkpt>
      <trkpt lat="42.71146" lon="1.41515">
        <ele>1405.8000488281</ele>
        <time>2013-08-10T11:40:57.000Z</time>
      </trkpt>
      <trkpt lat="42.71147" lon="1.41527">
        <ele>1405.4000244141</ele>
        <time>2013-08-10T11:41:01.000Z</time>
      </trkpt>
      <trkpt lat="42.71146" lon="1.4153">
        <ele>1405</ele>
        <time>2013-08-10T11:41:03.000Z</time>
      </trkpt>
      <trkpt lat="42.71146" lon="1.41532">
        <ele>1405</ele>
        <time>2013-08-10T11:41:04.000Z</time>
      </trkpt>
      <trkpt lat="42.71147" lon="1.41533">
        <ele>1405</ele>
        <time>2013-08-10T11:41:05.000Z</time>
      </trkpt>
      <trkpt lat="42.71147" lon="1.41538">
        <ele>1404.8000488281</ele>
        <time>2013-08-10T11:41:07.000Z</time>
      </trkpt>
      <trkpt lat="42.71148" lon="1.4154">
        <ele>1404.4000244141</ele>
        <time>2013-08-10T11:41:08.000Z</time>
      </trkpt>
      <trkpt lat="42.7115" lon="1.41551">
        <ele>1404</ele>
        <time>2013-08-10T11:41:13.000Z</time>
      </trkpt>
      <trkpt lat="42.71152" lon="1.41561">
        <ele>1403.4000244141</ele>
        <time>2013-08-10T11:41:17.000Z</time>
      </trkpt>
      <trkpt lat="42.71155" lon="1.41569">
        <ele>1403</ele>
        <time>2013-08-10T11:41:21.000Z</time>
      </trkpt>
      <trkpt lat="42.7116" lon="1.41576">
        <ele>1402.8000488281</ele>
        <time>2013-08-10T11:41:25.000Z</time>
      </trkpt>
      <trkpt lat="42.71162" lon="1.41577">
        <ele>1402.8000488281</ele>
        <time>2013-08-10T11:41:26.000Z</time>
      </trkpt>
      <trkpt lat="42.71163" lon="1.41582">
        <ele>1402.4000244141</ele>
        <time>2013-08-10T11:41:29.000Z</time>
      </trkpt>
      <trkpt lat="42.71158" lon="1.41587">
        <ele>1402</ele>
        <time>2013-08-10T11:41:32.000Z</time>
      </trkpt>
      <trkpt lat="42.71158" lon="1.41589">
        <ele>1402</ele>
        <time>2013-08-10T11:41:33.000Z</time>
      </trkpt>
      <trkpt lat="42.71157" lon="1.41591">
        <ele>1402</ele>
        <time>2013-08-10T11:41:34.000Z</time>
      </trkpt>
      <trkpt lat="42.71152" lon="1.416">
        <ele>1401.4000244141</ele>
        <time>2013-08-10T11:41:38.000Z</time>
      </trkpt>
      <trkpt lat="42.71148" lon="1.41607">
        <ele>1401</ele>
        <time>2013-08-10T11:41:41.000Z</time>
      </trkpt>
      <trkpt lat="42.71148" lon="1.41609">
        <ele>1401</ele>
        <time>2013-08-10T11:41:42.000Z</time>
      </trkpt>
      <trkpt lat="42.71149" lon="1.41611">
        <ele>1401</ele>
        <time>2013-08-10T11:41:43.000Z</time>
      </trkpt>
      <trkpt lat="42.71151" lon="1.41624">
        <ele>1400</ele>
        <time>2013-08-10T11:41:48.000Z</time>
      </trkpt>
      <trkpt lat="42.71152" lon="1.41636">
        <ele>1399.4000244141</ele>
        <time>2013-08-10T11:41:53.000Z</time>
      </trkpt>
      <trkpt lat="42.71153" lon="1.41638">
        <ele>1399.4000244141</ele>
        <time>2013-08-10T11:41:54.000Z</time>
      </trkpt>
      <trkpt lat="42.71153" lon="1.41645">
        <ele>1399</ele>
        <time>2013-08-10T11:41:57.000Z</time>
      </trkpt>
      <trkpt lat="42.71154" lon="1.41653">
        <ele>1398.4000244141</ele>
        <time>2013-08-10T11:42:00.000Z</time>
      </trkpt>
      <trkpt lat="42.71153" lon="1.41658">
        <ele>1398</ele>
        <time>2013-08-10T11:42:02.000Z</time>
      </trkpt>
      <trkpt lat="42.71151" lon="1.41674">
        <ele>1397</ele>
        <time>2013-08-10T11:42:08.000Z</time>
      </trkpt>
      <trkpt lat="42.71148" lon="1.41687">
        <ele>1396.4000244141</ele>
        <time>2013-08-10T11:42:13.000Z</time>
      </trkpt>
      <trkpt lat="42.71147" lon="1.4169">
        <ele>1396.4000244141</ele>
        <time>2013-08-10T11:42:14.000Z</time>
      </trkpt>
      <trkpt lat="42.71146" lon="1.41705">
        <ele>1395</ele>
        <time>2013-08-10T11:42:20.000Z</time>
      </trkpt>
      <trkpt lat="42.71142" lon="1.41715">
        <ele>1394.4000244141</ele>
        <time>2013-08-10T11:42:25.000Z</time>
      </trkpt>
      <trkpt lat="42.7114" lon="1.41724">
        <ele>1393.8000488281</ele>
        <time>2013-08-10T11:42:29.000Z</time>
      </trkpt>
      <trkpt lat="42.71138" lon="1.41725">
        <ele>1393.4000244141</ele>
        <time>2013-08-10T11:42:31.000Z</time>
      </trkpt>
      <trkpt lat="42.71137" lon="1.41726">
        <ele>1393</ele>
        <time>2013-08-10T11:42:32.000Z</time>
      </trkpt>
      <trkpt lat="42.71134" lon="1.4173">
        <ele>1392.4000244141</ele>
        <time>2013-08-10T11:42:35.000Z</time>
      </trkpt>
      <trkpt lat="42.7113" lon="1.41744">
        <ele>1391</ele>
        <time>2013-08-10T11:42:42.000Z</time>
      </trkpt>
      <trkpt lat="42.71127" lon="1.41755">
        <ele>1390</ele>
        <time>2013-08-10T11:42:47.000Z</time>
      </trkpt>
      <trkpt lat="42.71126" lon="1.41764">
        <ele>1389</ele>
        <time>2013-08-10T11:42:51.000Z</time>
      </trkpt>
      <trkpt lat="42.71125" lon="1.41767">
        <ele>1388.4000244141</ele>
        <time>2013-08-10T11:42:53.000Z</time>
      </trkpt>
      <trkpt lat="42.71123" lon="1.41777">
        <ele>1387.4000244141</ele>
        <time>2013-08-10T11:42:58.000Z</time>
      </trkpt>
      <trkpt lat="42.71122" lon="1.41781">
        <ele>1387</ele>
        <time>2013-08-10T11:43:00.000Z</time>
      </trkpt>
      <trkpt lat="42.71117" lon="1.41796">
        <ele>1385</ele>
        <time>2013-08-10T11:43:08.000Z</time>
      </trkpt>
      <trkpt lat="42.71115" lon="1.41806">
        <ele>1383.4000244141</ele>
        <time>2013-08-10T11:43:14.000Z</time>
      </trkpt>
      <trkpt lat="42.71115" lon="1.41809">
        <ele>1383</ele>
        <time>2013-08-10T11:43:16.000Z</time>
      </trkpt>
      <trkpt lat="42.71113" lon="1.41814">
        <ele>1382.4000244141</ele>
        <time>2013-08-10T11:43:19.000Z</time>
      </trkpt>
      <trkpt lat="42.71113" lon="1.41816">
        <ele>1382</ele>
        <time>2013-08-10T11:43:20.000Z</time>
      </trkpt>
      <trkpt lat="42.71111" lon="1.41821">
        <ele>1381.4000244141</ele>
        <time>2013-08-10T11:43:23.000Z</time>
      </trkpt>
      <trkpt lat="42.7111" lon="1.41826">
        <ele>1380.8000488281</ele>
        <time>2013-08-10T11:43:25.000Z</time>
      </trkpt>
      <trkpt lat="42.71107" lon="1.41832">
        <ele>1379.8000488281</ele>
        <time>2013-08-10T11:43:29.000Z</time>
      </trkpt>
      <trkpt lat="42.71104" lon="1.4184">
        <ele>1378.4000244141</ele>
        <time>2013-08-10T11:43:34.000Z</time>
      </trkpt>
      <trkpt lat="42.711" lon="1.41844">
        <ele>1377.4000244141</ele>
        <time>2013-08-10T11:43:38.000Z</time>
      </trkpt>
      <trkpt lat="42.71098" lon="1.41848">
        <ele>1376.8000488281</ele>
        <time>2013-08-10T11:43:41.000Z</time>
      </trkpt>
      <trkpt lat="42.71097" lon="1.41849">
        <ele>1376.4000244141</ele>
        <time>2013-08-10T11:43:42.000Z</time>
      </trkpt>
      <trkpt lat="42.71095" lon="1.41855">
        <ele>1375.4000244141</ele>
        <time>2013-08-10T11:43:46.000Z</time>
      </trkpt>
      <trkpt lat="42.71094" lon="1.41857">
        <ele>1375</ele>
        <time>2013-08-10T11:43:47.000Z</time>
      </trkpt>
      <trkpt lat="42.7109" lon="1.41867">
        <ele>1373.4000244141</ele>
        <time>2013-08-10T11:43:53.000Z</time>
      </trkpt>
      <trkpt lat="42.71091" lon="1.41873">
        <ele>1372.4000244141</ele>
        <time>2013-08-10T11:43:57.000Z</time>
      </trkpt>
      <trkpt lat="42.71089" lon="1.41879">
        <ele>1371</ele>
        <time>2013-08-10T11:44:02.000Z</time>
      </trkpt>
      <trkpt lat="42.71089" lon="1.41881">
        <ele>1370.8000488281</ele>
        <time>2013-08-10T11:44:03.000Z</time>
      </trkpt>
      <trkpt lat="42.71087" lon="1.41884">
        <ele>1370</ele>
        <time>2013-08-10T11:44:06.000Z</time>
      </trkpt>
      <trkpt lat="42.71086" lon="1.41885">
        <ele>1369.8000488281</ele>
        <time>2013-08-10T11:44:07.000Z</time>
      </trkpt>
      <trkpt lat="42.71083" lon="1.41889">
        <ele>1369</ele>
        <time>2013-08-10T11:44:10.000Z</time>
      </trkpt>
      <trkpt lat="42.7108" lon="1.4189">
        <ele>1368.4000244141</ele>
        <time>2013-08-10T11:44:12.000Z</time>
      </trkpt>
      <trkpt lat="42.71077" lon="1.41894">
        <ele>1367.4000244141</ele>
        <time>2013-08-10T11:44:16.000Z</time>
      </trkpt>
      <trkpt lat="42.71077" lon="1.41895">
        <ele>1367</ele>
        <time>2013-08-10T11:44:17.000Z</time>
      </trkpt>
      <trkpt lat="42.71078" lon="1.41898">
        <ele>1366</ele>
        <time>2013-08-10T11:44:20.000Z</time>
      </trkpt>
      <trkpt lat="42.71079" lon="1.41901">
        <ele>1366</ele>
        <time>2013-08-10T11:44:21.000Z</time>
      </trkpt>
      <trkpt lat="42.71081" lon="1.41904">
        <ele>1365</ele>
        <time>2013-08-10T11:44:24.000Z</time>
      </trkpt>
      <trkpt lat="42.71082" lon="1.4191">
        <ele>1364.4000244141</ele>
        <time>2013-08-10T11:44:27.000Z</time>
      </trkpt>
      <trkpt lat="42.71077" lon="1.41916">
        <ele>1363</ele>
        <time>2013-08-10T11:44:31.000Z</time>
      </trkpt>
      <trkpt lat="42.71076" lon="1.41922">
        <ele>1362</ele>
        <time>2013-08-10T11:44:35.000Z</time>
      </trkpt>
      <trkpt lat="42.71074" lon="1.4193">
        <ele>1360.8000488281</ele>
        <time>2013-08-10T11:44:40.000Z</time>
      </trkpt>
      <trkpt lat="42.71076" lon="1.41935">
        <ele>1360</ele>
        <time>2013-08-10T11:44:43.000Z</time>
      </trkpt>
      <trkpt lat="42.71076" lon="1.41937">
        <ele>1359.8000488281</ele>
        <time>2013-08-10T11:44:44.000Z</time>
      </trkpt>
      <trkpt lat="42.71076" lon="1.41939">
        <ele>1359.4000244141</ele>
        <time>2013-08-10T11:44:45.000Z</time>
      </trkpt>
      <trkpt lat="42.71072" lon="1.41942">
        <ele>1359</ele>
        <time>2013-08-10T11:44:47.000Z</time>
      </trkpt>
      <trkpt lat="42.7107" lon="1.41947">
        <ele>1358</ele>
        <time>2013-08-10T11:44:50.000Z</time>
      </trkpt>
      <trkpt lat="42.71069" lon="1.41953">
        <ele>1357.4000244141</ele>
        <time>2013-08-10T11:44:53.000Z</time>
      </trkpt>
      <trkpt lat="42.71068" lon="1.41958">
        <ele>1356.8000488281</ele>
        <time>2013-08-10T11:44:55.000Z</time>
      </trkpt>
      <trkpt lat="42.71066" lon="1.41965">
        <ele>1355.8000488281</ele>
        <time>2013-08-10T11:44:59.000Z</time>
      </trkpt>
      <trkpt lat="42.71064" lon="1.41972">
        <ele>1354.8000488281</ele>
        <time>2013-08-10T11:45:03.000Z</time>
      </trkpt>
      <trkpt lat="42.71063" lon="1.41975">
        <ele>1354</ele>
        <time>2013-08-10T11:45:05.000Z</time>
      </trkpt>
      <trkpt lat="42.7106" lon="1.4198">
        <ele>1353.4000244141</ele>
        <time>2013-08-10T11:45:08.000Z</time>
      </trkpt>
      <trkpt lat="42.7106" lon="1.41981">
        <ele>1353</ele>
        <time>2013-08-10T11:45:09.000Z</time>
      </trkpt>
      <trkpt lat="42.71059" lon="1.41985">
        <ele>1352.4000244141</ele>
        <time>2013-08-10T11:45:12.000Z</time>
      </trkpt>
      <trkpt lat="42.71057" lon="1.41989">
        <ele>1351.8000488281</ele>
        <time>2013-08-10T11:45:14.000Z</time>
      </trkpt>
      <trkpt lat="42.71057" lon="1.41992">
        <ele>1351</ele>
        <time>2013-08-10T11:45:16.000Z</time>
      </trkpt>
      <trkpt lat="42.71057" lon="1.41999">
        <ele>1350</ele>
        <time>2013-08-10T11:45:20.000Z</time>
      </trkpt>
      <trkpt lat="42.71056" lon="1.42001">
        <ele>1349.8000488281</ele>
        <time>2013-08-10T11:45:21.000Z</time>
      </trkpt>
      <trkpt lat="42.71054" lon="1.42011">
        <ele>1348.4000244141</ele>
        <time>2013-08-10T11:45:26.000Z</time>
      </trkpt>
      <trkpt lat="42.71053" lon="1.42015">
        <ele>1347.8000488281</ele>
        <time>2013-08-10T11:45:28.000Z</time>
      </trkpt>
      <trkpt lat="42.71053" lon="1.4202">
        <ele>1346.8000488281</ele>
        <time>2013-08-10T11:45:31.000Z</time>
      </trkpt>
      <trkpt lat="42.71049" lon="1.42027">
        <ele>1345.4000244141</ele>
        <time>2013-08-10T11:45:35.000Z</time>
      </trkpt>
      <trkpt lat="42.71046" lon="1.42032">
        <ele>1344.4000244141</ele>
        <time>2013-08-10T11:45:38.000Z</time>
      </trkpt>
      <trkpt lat="42.71046" lon="1.42035">
        <ele>1344</ele>
        <time>2013-08-10T11:45:40.000Z</time>
      </trkpt>
      <trkpt lat="42.71045" lon="1.42039">
        <ele>1343.4000244141</ele>
        <time>2013-08-10T11:45:42.000Z</time>
      </trkpt>
      <trkpt lat="42.71044" lon="1.42047">
        <ele>1341.8000488281</ele>
        <time>2013-08-10T11:45:47.000Z</time>
      </trkpt>
      <trkpt lat="42.7104" lon="1.42055">
        <ele>1340.4000244141</ele>
        <time>2013-08-10T11:45:51.000Z</time>
      </trkpt>
      <trkpt lat="42.71039" lon="1.42064">
        <ele>1339</ele>
        <time>2013-08-10T11:45:55.000Z</time>
      </trkpt>
      <trkpt lat="42.71038" lon="1.42068">
        <ele>1338.4000244141</ele>
        <time>2013-08-10T11:45:57.000Z</time>
      </trkpt>
      <trkpt lat="42.71036" lon="1.42072">
        <ele>1337.4000244141</ele>
        <time>2013-08-10T11:46:00.000Z</time>
      </trkpt>
      <trkpt lat="42.71035" lon="1.42073">
        <ele>1337</ele>
        <time>2013-08-10T11:46:01.000Z</time>
      </trkpt>
      <trkpt lat="42.71036" lon="1.42078">
        <ele>1336.4000244141</ele>
        <time>2013-08-10T11:46:04.000Z</time>
      </trkpt>
      <trkpt lat="42.71035" lon="1.42082">
        <ele>1335.4000244141</ele>
        <time>2013-08-10T11:46:07.000Z</time>
      </trkpt>
      <trkpt lat="42.71034" lon="1.42085">
        <ele>1334.4000244141</ele>
        <time>2013-08-10T11:46:09.000Z</time>
      </trkpt>
      <trkpt lat="42.71034" lon="1.42087">
        <ele>1334</ele>
        <time>2013-08-10T11:46:11.000Z</time>
      </trkpt>
      <trkpt lat="42.71033" lon="1.42089">
        <ele>1333.4000244141</ele>
        <time>2013-08-10T11:46:13.000Z</time>
      </trkpt>
      <trkpt lat="42.71032" lon="1.42095">
        <ele>1332</ele>
        <time>2013-08-10T11:46:17.000Z</time>
      </trkpt>
      <trkpt lat="42.7103" lon="1.42099">
        <ele>1331</ele>
        <time>2013-08-10T11:46:20.000Z</time>
      </trkpt>
      <trkpt lat="42.71031" lon="1.421">
        <ele>1330.4000244141</ele>
        <time>2013-08-10T11:46:21.000Z</time>
      </trkpt>
      <trkpt lat="42.71029" lon="1.42106">
        <ele>1329.4000244141</ele>
        <time>2013-08-10T11:46:24.000Z</time>
      </trkpt>
      <trkpt lat="42.71029" lon="1.42112">
        <ele>1328.4000244141</ele>
        <time>2013-08-10T11:46:28.000Z</time>
      </trkpt>
      <trkpt lat="42.71028" lon="1.42124">
        <ele>1326.4000244141</ele>
        <time>2013-08-10T11:46:34.000Z</time>
      </trkpt>
      <trkpt lat="42.71029" lon="1.42127">
        <ele>1325.4000244141</ele>
        <time>2013-08-10T11:46:36.000Z</time>
      </trkpt>
      <trkpt lat="42.71028" lon="1.42132">
        <ele>1325</ele>
        <time>2013-08-10T11:46:38.000Z</time>
      </trkpt>
      <trkpt lat="42.71029" lon="1.42136">
        <ele>1324.4000244141</ele>
        <time>2013-08-10T11:46:40.000Z</time>
      </trkpt>
      <trkpt lat="42.71029" lon="1.42138">
        <ele>1323.4000244141</ele>
        <time>2013-08-10T11:46:42.000Z</time>
      </trkpt>
      <trkpt lat="42.71024" lon="1.42144">
        <ele>1322</ele>
        <time>2013-08-10T11:46:47.000Z</time>
      </trkpt>
      <trkpt lat="42.71022" lon="1.42149">
        <ele>1320.8000488281</ele>
        <time>2013-08-10T11:46:51.000Z</time>
      </trkpt>
      <trkpt lat="42.71023" lon="1.42158">
        <ele>1319</ele>
        <time>2013-08-10T11:46:56.000Z</time>
      </trkpt>
      <trkpt lat="42.71024" lon="1.42163">
        <ele>1317.4000244141</ele>
        <time>2013-08-10T11:47:00.000Z</time>
      </trkpt>
      <trkpt lat="42.71023" lon="1.42168">
        <ele>1316.4000244141</ele>
        <time>2013-08-10T11:47:03.000Z</time>
      </trkpt>
      <trkpt lat="42.71024" lon="1.42175">
        <ele>1315</ele>
        <time>2013-08-10T11:47:07.000Z</time>
      </trkpt>
      <trkpt lat="42.71023" lon="1.42177">
        <ele>1314.4000244141</ele>
        <time>2013-08-10T11:47:09.000Z</time>
      </trkpt>
      <trkpt lat="42.71023" lon="1.42178">
        <ele>1314</ele>
        <time>2013-08-10T11:47:10.000Z</time>
      </trkpt>
      <trkpt lat="42.71022" lon="1.42182">
        <ele>1313</ele>
        <time>2013-08-10T11:47:12.000Z</time>
      </trkpt>
      <trkpt lat="42.71021" lon="1.42186">
        <ele>1312</ele>
        <time>2013-08-10T11:47:15.000Z</time>
      </trkpt>
      <trkpt lat="42.71022" lon="1.42187">
        <ele>1311.8000488281</ele>
        <time>2013-08-10T11:47:16.000Z</time>
      </trkpt>
      <trkpt lat="42.71022" lon="1.42187">
        <ele>1311.4000244141</ele>
        <time>2013-08-10T11:47:17.000Z</time>
      </trkpt>
      <trkpt lat="42.71021" lon="1.42188">
        <ele>1311</ele>
        <time>2013-08-10T11:47:18.000Z</time>
      </trkpt>
      <trkpt lat="42.71021" lon="1.42194">
        <ele>1309.4000244141</ele>
        <time>2013-08-10T11:47:22.000Z</time>
      </trkpt>
      <trkpt lat="42.71022" lon="1.42199">
        <ele>1308.4000244141</ele>
        <time>2013-08-10T11:47:25.000Z</time>
      </trkpt>
      <trkpt lat="42.71021" lon="1.42201">
        <ele>1307.8000488281</ele>
        <time>2013-08-10T11:47:27.000Z</time>
      </trkpt>
      <trkpt lat="42.7102" lon="1.42205">
        <ele>1306.4000244141</ele>
        <time>2013-08-10T11:47:30.000Z</time>
      </trkpt>
      <trkpt lat="42.71022" lon="1.42212">
        <ele>1304.8000488281</ele>
        <time>2013-08-10T11:47:35.000Z</time>
      </trkpt>
      <trkpt lat="42.71022" lon="1.42215">
        <ele>1303</ele>
        <time>2013-08-10T11:47:39.000Z</time>
      </trkpt>
      <trkpt lat="42.71021" lon="1.42218">
        <ele>1302.8000488281</ele>
        <time>2013-08-10T11:47:40.000Z</time>
      </trkpt>
      <trkpt lat="42.71021" lon="1.42221">
        <ele>1301.4000244141</ele>
        <time>2013-08-10T11:47:43.000Z</time>
      </trkpt>
      <trkpt lat="42.7102" lon="1.42223">
        <ele>1301</ele>
        <time>2013-08-10T11:47:44.000Z</time>
      </trkpt>
      <trkpt lat="42.71021" lon="1.42226">
        <ele>1300.4000244141</ele>
        <time>2013-08-10T11:47:46.000Z</time>
      </trkpt>
      <trkpt lat="42.71019" lon="1.42228">
        <ele>1300</ele>
        <time>2013-08-10T11:47:47.000Z</time>
      </trkpt>
      <trkpt lat="42.71018" lon="1.42235">
        <ele>1298.4000244141</ele>
        <time>2013-08-10T11:47:51.000Z</time>
      </trkpt>
      <trkpt lat="42.71017" lon="1.42237">
        <ele>1298</ele>
        <time>2013-08-10T11:47:52.000Z</time>
      </trkpt>
      <trkpt lat="42.71015" lon="1.42243">
        <ele>1296.8000488281</ele>
        <time>2013-08-10T11:47:55.000Z</time>
      </trkpt>
      <trkpt lat="42.71017" lon="1.42248">
        <ele>1295.4000244141</ele>
        <time>2013-08-10T11:47:58.000Z</time>
      </trkpt>
      <trkpt lat="42.71017" lon="1.42252">
        <ele>1294.8000488281</ele>
        <time>2013-08-10T11:48:00.000Z</time>
      </trkpt>
      <trkpt lat="42.71016" lon="1.42259">
        <ele>1293.4000244141</ele>
        <time>2013-08-10T11:48:03.000Z</time>
      </trkpt>
      <trkpt lat="42.71015" lon="1.42264">
        <ele>1292.8000488281</ele>
        <time>2013-08-10T11:48:05.000Z</time>
      </trkpt>
      <trkpt lat="42.71015" lon="1.42273">
        <ele>1291</ele>
        <time>2013-08-10T11:48:09.000Z</time>
      </trkpt>
      <trkpt lat="42.71016" lon="1.42277">
        <ele>1290</ele>
        <time>2013-08-10T11:48:11.000Z</time>
      </trkpt>
      <trkpt lat="42.71017" lon="1.42282">
        <ele>1289</ele>
        <time>2013-08-10T11:48:13.000Z</time>
      </trkpt>
      <trkpt lat="42.71019" lon="1.42288">
        <ele>1287.8000488281</ele>
        <time>2013-08-10T11:48:16.000Z</time>
      </trkpt>
      <trkpt lat="42.71023" lon="1.42301">
        <ele>1284.8000488281</ele>
        <time>2013-08-10T11:48:23.000Z</time>
      </trkpt>
      <trkpt lat="42.71025" lon="1.42309">
        <ele>1282</ele>
        <time>2013-08-10T11:48:29.000Z</time>
      </trkpt>
      <trkpt lat="42.71018" lon="1.42306">
        <ele>1280</ele>
        <time>2013-08-10T11:48:33.000Z</time>
      </trkpt>
      <trkpt lat="42.71017" lon="1.42305">
        <ele>1279.4000244141</ele>
        <time>2013-08-10T11:48:34.000Z</time>
      </trkpt>
      <trkpt lat="42.71014" lon="1.42302">
        <ele>1278.8000488281</ele>
        <time>2013-08-10T11:48:36.000Z</time>
      </trkpt>
      <trkpt lat="42.7101" lon="1.423">
        <ele>1277.4000244141</ele>
        <time>2013-08-10T11:48:39.000Z</time>
      </trkpt>
      <trkpt lat="42.71008" lon="1.42299">
        <ele>1277</ele>
        <time>2013-08-10T11:48:40.000Z</time>
      </trkpt>
      <trkpt lat="42.71004" lon="1.42295">
        <ele>1275</ele>
        <time>2013-08-10T11:48:44.000Z</time>
      </trkpt>
      <trkpt lat="42.71004" lon="1.4229">
        <ele>1273.4000244141</ele>
        <time>2013-08-10T11:48:48.000Z</time>
      </trkpt>
      <trkpt lat="42.70999" lon="1.42285">
        <ele>1272</ele>
        <time>2013-08-10T11:48:51.000Z</time>
      </trkpt>
      <trkpt lat="42.70995" lon="1.42277">
        <ele>1270</ele>
        <time>2013-08-10T11:48:56.000Z</time>
      </trkpt>
      <trkpt lat="42.70995" lon="1.42274">
        <ele>1269.8000488281</ele>
        <time>2013-08-10T11:48:57.000Z</time>
      </trkpt>
      <trkpt lat="42.7099" lon="1.42269">
        <ele>1268.4000244141</ele>
        <time>2013-08-10T11:49:00.000Z</time>
      </trkpt>
      <trkpt lat="42.70987" lon="1.42267">
        <ele>1266.8000488281</ele>
        <time>2013-08-10T11:49:04.000Z</time>
      </trkpt>
      <trkpt lat="42.70983" lon="1.42268">
        <ele>1262</ele>
        <time>2013-08-10T11:49:17.000Z</time>
      </trkpt>
      <trkpt lat="42.70982" lon="1.42266">
        <ele>1260.8000488281</ele>
        <time>2013-08-10T11:49:21.000Z</time>
      </trkpt>
      <trkpt lat="42.7098" lon="1.42266">
        <ele>1259.4000244141</ele>
        <time>2013-08-10T11:49:25.000Z</time>
      </trkpt>
      <trkpt lat="42.70977" lon="1.42266">
        <ele>1258.4000244141</ele>
        <time>2013-08-10T11:49:28.000Z</time>
      </trkpt>
      <trkpt lat="42.70976" lon="1.42265">
        <ele>1258.4000244141</ele>
        <time>2013-08-10T11:49:29.000Z</time>
      </trkpt>
      <trkpt lat="42.70973" lon="1.42259">
        <ele>1256.8000488281</ele>
        <time>2013-08-10T11:49:34.000Z</time>
      </trkpt>
      <trkpt lat="42.70974" lon="1.42251">
        <ele>1255.8000488281</ele>
        <time>2013-08-10T11:49:38.000Z</time>
      </trkpt>
      <trkpt lat="42.70971" lon="1.42239">
        <ele>1254.4000244141</ele>
        <time>2013-08-10T11:49:43.000Z</time>
      </trkpt>
      <trkpt lat="42.70969" lon="1.42231">
        <ele>1253.4000244141</ele>
        <time>2013-08-10T11:49:46.000Z</time>
      </trkpt>
      <trkpt lat="42.7097" lon="1.4223">
        <ele>1253</ele>
        <time>2013-08-10T11:49:47.000Z</time>
      </trkpt>
      <trkpt lat="42.70971" lon="1.42223">
        <ele>1252</ele>
        <time>2013-08-10T11:49:51.000Z</time>
      </trkpt>
      <trkpt lat="42.70974" lon="1.42213">
        <ele>1250.8000488281</ele>
        <time>2013-08-10T11:49:56.000Z</time>
      </trkpt>
      <trkpt lat="42.70974" lon="1.42205">
        <ele>1250</ele>
        <time>2013-08-10T11:50:00.000Z</time>
      </trkpt>
      <trkpt lat="42.70976" lon="1.42198">
        <ele>1249</ele>
        <time>2013-08-10T11:50:04.000Z</time>
      </trkpt>
      <trkpt lat="42.70976" lon="1.42189">
        <ele>1248</ele>
        <time>2013-08-10T11:50:07.000Z</time>
      </trkpt>
      <trkpt lat="42.70976" lon="1.42186">
        <ele>1247.8000488281</ele>
        <time>2013-08-10T11:50:09.000Z</time>
      </trkpt>
      <trkpt lat="42.70974" lon="1.42183">
        <ele>1247.4000244141</ele>
        <time>2013-08-10T11:50:10.000Z</time>
      </trkpt>
      <trkpt lat="42.70967" lon="1.42174">
        <ele>1246.4000244141</ele>
        <time>2013-08-10T11:50:14.000Z</time>
      </trkpt>
      <trkpt lat="42.70966" lon="1.42172">
        <ele>1246.4000244141</ele>
        <time>2013-08-10T11:50:15.000Z</time>
      </trkpt>
      <trkpt lat="42.70966" lon="1.42163">
        <ele>1245.4000244141</ele>
        <time>2013-08-10T11:50:19.000Z</time>
      </trkpt>
      <trkpt lat="42.70966" lon="1.42162">
        <ele>1245.4000244141</ele>
        <time>2013-08-10T11:50:20.000Z</time>
      </trkpt>
      <trkpt lat="42.70965" lon="1.4216">
        <ele>1245</ele>
        <time>2013-08-10T11:50:21.000Z</time>
      </trkpt>
      <trkpt lat="42.70963" lon="1.42157">
        <ele>1244.8000488281</ele>
        <time>2013-08-10T11:50:23.000Z</time>
      </trkpt>
      <trkpt lat="42.70959" lon="1.4215">
        <ele>1244</ele>
        <time>2013-08-10T11:50:27.000Z</time>
      </trkpt>
      <trkpt lat="42.70959" lon="1.42148">
        <ele>1243.8000488281</ele>
        <time>2013-08-10T11:50:28.000Z</time>
      </trkpt>
      <trkpt lat="42.70956" lon="1.42145">
        <ele>1243.4000244141</ele>
        <time>2013-08-10T11:50:29.000Z</time>
      </trkpt>
      <trkpt lat="42.70954" lon="1.42143">
        <ele>1243</ele>
        <time>2013-08-10T11:50:31.000Z</time>
      </trkpt>
      <trkpt lat="42.70948" lon="1.4214">
        <ele>1242.4000244141</ele>
        <time>2013-08-10T11:50:34.000Z</time>
      </trkpt>
      <trkpt lat="42.7094" lon="1.42136">
        <ele>1242</ele>
        <time>2013-08-10T11:50:37.000Z</time>
      </trkpt>
      <trkpt lat="42.70934" lon="1.42133">
        <ele>1241.4000244141</ele>
        <time>2013-08-10T11:50:39.000Z</time>
      </trkpt>
      <trkpt lat="42.70933" lon="1.42132">
        <ele>1241.4000244141</ele>
        <time>2013-08-10T11:50:40.000Z</time>
      </trkpt>
      <trkpt lat="42.70929" lon="1.42129">
        <ele>1241</ele>
        <time>2013-08-10T11:50:42.000Z</time>
      </trkpt>
      <trkpt lat="42.70927" lon="1.42125">
        <ele>1240.8000488281</ele>
        <time>2013-08-10T11:50:44.000Z</time>
      </trkpt>
      <trkpt lat="42.70925" lon="1.42121">
        <ele>1240.4000244141</ele>
        <time>2013-08-10T11:50:46.000Z</time>
      </trkpt>
      <trkpt lat="42.70921" lon="1.42116">
        <ele>1240</ele>
        <time>2013-08-10T11:50:49.000Z</time>
      </trkpt>
      <trkpt lat="42.7092" lon="1.42115">
        <ele>1239.8000488281</ele>
        <time>2013-08-10T11:50:50.000Z</time>
      </trkpt>
      <trkpt lat="42.7092" lon="1.42112">
        <ele>1239.4000244141</ele>
        <time>2013-08-10T11:50:52.000Z</time>
      </trkpt>
      <trkpt lat="42.70924" lon="1.42108">
        <ele>1238.8000488281</ele>
        <time>2013-08-10T11:50:56.000Z</time>
      </trkpt>
      <trkpt lat="42.70925" lon="1.42109">
        <ele>1238.4000244141</ele>
        <time>2013-08-10T11:50:57.000Z</time>
      </trkpt>
      <trkpt lat="42.70924" lon="1.42111">
        <ele>1238</ele>
        <time>2013-08-10T11:50:59.000Z</time>
      </trkpt>
      <trkpt lat="42.70923" lon="1.42118">
        <ele>1237</ele>
        <time>2013-08-10T11:51:04.000Z</time>
      </trkpt>
      <trkpt lat="42.70926" lon="1.42125">
        <ele>1236.4000244141</ele>
        <time>2013-08-10T11:51:09.000Z</time>
      </trkpt>
      <trkpt lat="42.70925" lon="1.42127">
        <ele>1235.8000488281</ele>
        <time>2013-08-10T11:51:12.000Z</time>
      </trkpt>
      <trkpt lat="42.70925" lon="1.42129">
        <ele>1235.4000244141</ele>
        <time>2013-08-10T11:51:13.000Z</time>
      </trkpt>
      <trkpt lat="42.70925" lon="1.42131">
        <ele>1235.4000244141</ele>
        <time>2013-08-10T11:51:14.000Z</time>
      </trkpt>
      <trkpt lat="42.70923" lon="1.42138">
        <ele>1234.8000488281</ele>
        <time>2013-08-10T11:51:18.000Z</time>
      </trkpt>
      <trkpt lat="42.70928" lon="1.42143">
        <ele>1234</ele>
        <time>2013-08-10T11:51:22.000Z</time>
      </trkpt>
      <trkpt lat="42.7093" lon="1.42143">
        <ele>1233.8000488281</ele>
        <time>2013-08-10T11:51:23.000Z</time>
      </trkpt>
      <trkpt lat="42.7093" lon="1.42145">
        <ele>1233.4000244141</ele>
        <time>2013-08-10T11:51:24.000Z</time>
      </trkpt>
      <trkpt lat="42.7093" lon="1.42149">
        <ele>1233.4000244141</ele>
        <time>2013-08-10T11:51:26.000Z</time>
      </trkpt>
      <trkpt lat="42.70926" lon="1.42154">
        <ele>1232.8000488281</ele>
        <time>2013-08-10T11:51:29.000Z</time>
      </trkpt>
      <trkpt lat="42.70925" lon="1.42159">
        <ele>1232</ele>
        <time>2013-08-10T11:51:32.000Z</time>
      </trkpt>
      <trkpt lat="42.70927" lon="1.42165">
        <ele>1231.4000244141</ele>
        <time>2013-08-10T11:51:36.000Z</time>
      </trkpt>
      <trkpt lat="42.7093" lon="1.42172">
        <ele>1230.4000244141</ele>
        <time>2013-08-10T11:51:40.000Z</time>
      </trkpt>
      <trkpt lat="42.70932" lon="1.4218">
        <ele>1229.4000244141</ele>
        <time>2013-08-10T11:51:45.000Z</time>
      </trkpt>
      <trkpt lat="42.70936" lon="1.4219">
        <ele>1228.4000244141</ele>
        <time>2013-08-10T11:51:51.000Z</time>
      </trkpt>
      <trkpt lat="42.70937" lon="1.42194">
        <ele>1228</ele>
        <time>2013-08-10T11:51:53.000Z</time>
      </trkpt>
      <trkpt lat="42.70935" lon="1.42197">
        <ele>1227.4000244141</ele>
        <time>2013-08-10T11:51:55.000Z</time>
      </trkpt>
      <trkpt lat="42.70935" lon="1.42201">
        <ele>1227</ele>
        <time>2013-08-10T11:51:57.000Z</time>
      </trkpt>
      <trkpt lat="42.70933" lon="1.42208">
        <ele>1226.4000244141</ele>
        <time>2013-08-10T11:52:00.000Z</time>
      </trkpt>
      <trkpt lat="42.70934" lon="1.4221">
        <ele>1226.4000244141</ele>
        <time>2013-08-10T11:52:01.000Z</time>
      </trkpt>
      <trkpt lat="42.70934" lon="1.42215">
        <ele>1225.4000244141</ele>
        <time>2013-08-10T11:52:04.000Z</time>
      </trkpt>
      <trkpt lat="42.70935" lon="1.4222">
        <ele>1225</ele>
        <time>2013-08-10T11:52:06.000Z</time>
      </trkpt>
      <trkpt lat="42.70936" lon="1.42227">
        <ele>1224.4000244141</ele>
        <time>2013-08-10T11:52:09.000Z</time>
      </trkpt>
      <trkpt lat="42.70935" lon="1.42236">
        <ele>1223.8000488281</ele>
        <time>2013-08-10T11:52:13.000Z</time>
      </trkpt>
      <trkpt lat="42.70937" lon="1.42238">
        <ele>1223.4000244141</ele>
        <time>2013-08-10T11:52:14.000Z</time>
      </trkpt>
      <trkpt lat="42.70935" lon="1.42243">
        <ele>1223.4000244141</ele>
        <time>2013-08-10T11:52:16.000Z</time>
      </trkpt>
      <trkpt lat="42.70939" lon="1.42251">
        <ele>1222.8000488281</ele>
        <time>2013-08-10T11:52:19.000Z</time>
      </trkpt>
      <trkpt lat="42.70942" lon="1.42255">
        <ele>1222.4000244141</ele>
        <time>2013-08-10T11:52:21.000Z</time>
      </trkpt>
      <trkpt lat="42.70943" lon="1.42259">
        <ele>1222</ele>
        <time>2013-08-10T11:52:23.000Z</time>
      </trkpt>
      <trkpt lat="42.70939" lon="1.42263">
        <ele>1221.8000488281</ele>
        <time>2013-08-10T11:52:25.000Z</time>
      </trkpt>
      <trkpt lat="42.70941" lon="1.42265">
        <ele>1221.4000244141</ele>
        <time>2013-08-10T11:52:26.000Z</time>
      </trkpt>
      <trkpt lat="42.7094" lon="1.42277">
        <ele>1220.8000488281</ele>
        <time>2013-08-10T11:52:30.000Z</time>
      </trkpt>
      <trkpt lat="42.70941" lon="1.42286">
        <ele>1220</ele>
        <time>2013-08-10T11:52:34.000Z</time>
      </trkpt>
      <trkpt lat="42.7094" lon="1.42295">
        <ele>1219.4000244141</ele>
        <time>2013-08-10T11:52:38.000Z</time>
      </trkpt>
      <trkpt lat="42.7094" lon="1.42303">
        <ele>1218.4000244141</ele>
        <time>2013-08-10T11:52:42.000Z</time>
      </trkpt>
      <trkpt lat="42.70941" lon="1.42313">
        <ele>1217.8000488281</ele>
        <time>2013-08-10T11:52:47.000Z</time>
      </trkpt>
      <trkpt lat="42.70942" lon="1.42319">
        <ele>1217.4000244141</ele>
        <time>2013-08-10T11:52:50.000Z</time>
      </trkpt>
      <trkpt lat="42.70946" lon="1.42326">
        <ele>1216.4000244141</ele>
        <time>2013-08-10T11:52:54.000Z</time>
      </trkpt>
      <trkpt lat="42.70947" lon="1.42329">
        <ele>1216</ele>
        <time>2013-08-10T11:52:56.000Z</time>
      </trkpt>
      <trkpt lat="42.70951" lon="1.42334">
        <ele>1215.8000488281</ele>
        <time>2013-08-10T11:52:59.000Z</time>
      </trkpt>
      <trkpt lat="42.70961" lon="1.42342">
        <ele>1214.8000488281</ele>
        <time>2013-08-10T11:53:04.000Z</time>
      </trkpt>
      <trkpt lat="42.70964" lon="1.42348">
        <ele>1214.4000244141</ele>
        <time>2013-08-10T11:53:07.000Z</time>
      </trkpt>
      <trkpt lat="42.70964" lon="1.4235">
        <ele>1214</ele>
        <time>2013-08-10T11:53:08.000Z</time>
      </trkpt>
      <trkpt lat="42.70969" lon="1.42361">
        <ele>1213</ele>
        <time>2013-08-10T11:53:13.000Z</time>
      </trkpt>
      <trkpt lat="42.70972" lon="1.42366">
        <ele>1212.8000488281</ele>
        <time>2013-08-10T11:53:15.000Z</time>
      </trkpt>
      <trkpt lat="42.70973" lon="1.42377">
        <ele>1212</ele>
        <time>2013-08-10T11:53:20.000Z</time>
      </trkpt>
      <trkpt lat="42.70976" lon="1.42384">
        <ele>1211.4000244141</ele>
        <time>2013-08-10T11:53:23.000Z</time>
      </trkpt>
      <trkpt lat="42.70977" lon="1.42388">
        <ele>1211</ele>
        <time>2013-08-10T11:53:25.000Z</time>
      </trkpt>
      <trkpt lat="42.70981" lon="1.42394">
        <ele>1210.4000244141</ele>
        <time>2013-08-10T11:53:28.000Z</time>
      </trkpt>
      <trkpt lat="42.70982" lon="1.42398">
        <ele>1210</ele>
        <time>2013-08-10T11:53:30.000Z</time>
      </trkpt>
      <trkpt lat="42.70986" lon="1.42408">
        <ele>1209.4000244141</ele>
        <time>2013-08-10T11:53:35.000Z</time>
      </trkpt>
      <trkpt lat="42.70989" lon="1.42415">
        <ele>1208.8000488281</ele>
        <time>2013-08-10T11:53:39.000Z</time>
      </trkpt>
      <trkpt lat="42.70992" lon="1.42426">
        <ele>1207.8000488281</ele>
        <time>2013-08-10T11:53:45.000Z</time>
      </trkpt>
      <trkpt lat="42.70997" lon="1.42433">
        <ele>1207</ele>
        <time>2013-08-10T11:53:50.000Z</time>
      </trkpt>
      <trkpt lat="42.71001" lon="1.42442">
        <ele>1206</ele>
        <time>2013-08-10T11:53:55.000Z</time>
      </trkpt>
      <trkpt lat="42.71003" lon="1.42446">
        <ele>1205.8000488281</ele>
        <time>2013-08-10T11:53:57.000Z</time>
      </trkpt>
      <trkpt lat="42.71005" lon="1.42451">
        <ele>1205.4000244141</ele>
        <time>2013-08-10T11:54:00.000Z</time>
      </trkpt>
      <trkpt lat="42.71006" lon="1.42453">
        <ele>1205</ele>
        <time>2013-08-10T11:54:01.000Z</time>
      </trkpt>
      <trkpt lat="42.71008" lon="1.42457">
        <ele>1204.4000244141</ele>
        <time>2013-08-10T11:54:05.000Z</time>
      </trkpt>
    </trkseg>
  </trk>
</gpx>